<?xml version="1.0" encoding="UTF-8" standalone="no" ?>
<gpx xmlns="http://www.topografix.com/GPX/1/1" xmlns:xsi="http://www.w3.org/2001/XMLSchema-instance" xsi:schemaLocation="http://www.topografix.com/GPX/1/1 http://www.topografix.com/GPX/1/1/gpx.xsd" version="1.1" creator="VisuGPX - https://www.visugpx.com">
  <metadata>
    <name>sortie préparée pour Equitey</name>
  </metadata>
  <trk>
    <name><![CDATA[sortie préparée pour Equitey_1]]></name>
    <trkseg>
      <trkpt lat="48.60902" lon="2.03049">
        <ele>106.5</ele>
        <time>2025-11-16T09:59:20Z</time>
      </trkpt>
      <trkpt lat="48.60903" lon="2.03048">
        <ele>106.5</ele>
        <time>2025-11-16T09:59:21Z</time>
      </trkpt>
      <trkpt lat="48.60906" lon="2.03046">
        <ele>106.3</ele>
        <time>2025-11-16T09:59:23Z</time>
      </trkpt>
      <trkpt lat="48.60908" lon="2.03044">
        <ele>106.2</ele>
        <time>2025-11-16T09:59:24Z</time>
      </trkpt>
      <trkpt lat="48.6091" lon="2.03042">
        <ele>106</ele>
        <time>2025-11-16T09:59:26Z</time>
      </trkpt>
      <trkpt lat="48.60912" lon="2.0304">
        <ele>120.8</ele>
        <time>2025-11-16T09:59:28Z</time>
      </trkpt>
      <trkpt lat="48.60915" lon="2.03038">
        <ele>120.2</ele>
        <time>2025-11-16T09:59:30Z</time>
      </trkpt>
      <trkpt lat="48.60917" lon="2.03035">
        <ele>119.6</ele>
        <time>2025-11-16T09:59:32Z</time>
      </trkpt>
      <trkpt lat="48.60919" lon="2.03033">
        <ele>119</ele>
        <time>2025-11-16T09:59:34Z</time>
      </trkpt>
      <trkpt lat="48.60921" lon="2.03031">
        <ele>118.6</ele>
        <time>2025-11-16T09:59:36Z</time>
      </trkpt>
      <trkpt lat="48.60924" lon="2.03029">
        <ele>118.2</ele>
        <time>2025-11-16T09:59:38Z</time>
      </trkpt>
      <trkpt lat="48.60926" lon="2.03027">
        <ele>117.8</ele>
        <time>2025-11-16T09:59:40Z</time>
      </trkpt>
      <trkpt lat="48.60929" lon="2.03025">
        <ele>117.4</ele>
        <time>2025-11-16T09:59:42Z</time>
      </trkpt>
      <trkpt lat="48.60932" lon="2.03022">
        <ele>117</ele>
        <time>2025-11-16T09:59:44Z</time>
      </trkpt>
      <trkpt lat="48.60934" lon="2.03019">
        <ele>116.6</ele>
        <time>2025-11-16T09:59:46Z</time>
      </trkpt>
      <trkpt lat="48.60936" lon="2.03017">
        <ele>116.2</ele>
        <time>2025-11-16T09:59:48Z</time>
      </trkpt>
      <trkpt lat="48.60939" lon="2.03015">
        <ele>115.8</ele>
        <time>2025-11-16T09:59:50Z</time>
        <extensions>
          <gpxtpx:TrackPointExtension xmlns:gpxtpx="http://www.garmin.com/xmlschemas/TrackPointExtension/v1">
            <gpxtpx:hr>108</gpxtpx:hr>
          </gpxtpx:TrackPointExtension>
        </extensions>
      </trkpt>
      <trkpt lat="48.60941" lon="2.03013">
        <ele>115.4</ele>
        <time>2025-11-16T09:59:52Z</time>
        <extensions>
          <gpxtpx:TrackPointExtension xmlns:gpxtpx="http://www.garmin.com/xmlschemas/TrackPointExtension/v1">
            <gpxtpx:hr>108</gpxtpx:hr>
          </gpxtpx:TrackPointExtension>
        </extensions>
      </trkpt>
      <trkpt lat="48.60945" lon="2.03011">
        <ele>114.8</ele>
        <time>2025-11-16T09:59:55Z</time>
        <extensions>
          <gpxtpx:TrackPointExtension xmlns:gpxtpx="http://www.garmin.com/xmlschemas/TrackPointExtension/v1">
            <gpxtpx:hr>107</gpxtpx:hr>
          </gpxtpx:TrackPointExtension>
        </extensions>
      </trkpt>
      <trkpt lat="48.60947" lon="2.03011">
        <ele>114.2</ele>
        <time>2025-11-16T09:59:58Z</time>
      </trkpt>
      <trkpt lat="48.60947" lon="2.03008">
        <ele>113.6</ele>
        <time>2025-11-16T10:00:02Z</time>
      </trkpt>
      <trkpt lat="48.60948" lon="2.03005">
        <ele>113.2</ele>
        <time>2025-11-16T10:00:04Z</time>
      </trkpt>
      <trkpt lat="48.60948" lon="2.03001">
        <ele>113</ele>
        <time>2025-11-16T10:00:06Z</time>
      </trkpt>
      <trkpt lat="48.60949" lon="2.02997">
        <ele>112.6</ele>
        <time>2025-11-16T10:00:08Z</time>
      </trkpt>
      <trkpt lat="48.6095" lon="2.02992">
        <ele>112.2</ele>
        <time>2025-11-16T10:00:10Z</time>
      </trkpt>
      <trkpt lat="48.6095" lon="2.02987">
        <ele>111.8</ele>
        <time>2025-11-16T10:00:12Z</time>
      </trkpt>
      <trkpt lat="48.60951" lon="2.02983">
        <ele>111.6</ele>
        <time>2025-11-16T10:00:14Z</time>
      </trkpt>
      <trkpt lat="48.60953" lon="2.0298">
        <ele>111.2</ele>
        <time>2025-11-16T10:00:16Z</time>
      </trkpt>
      <trkpt lat="48.60955" lon="2.02978">
        <ele>111</ele>
        <time>2025-11-16T10:00:18Z</time>
      </trkpt>
      <trkpt lat="48.60957" lon="2.02976">
        <ele>110.8</ele>
        <time>2025-11-16T10:00:20Z</time>
      </trkpt>
      <trkpt lat="48.6096" lon="2.02973">
        <ele>110.8</ele>
        <time>2025-11-16T10:00:22Z</time>
      </trkpt>
      <trkpt lat="48.60962" lon="2.02971">
        <ele>110.6</ele>
        <time>2025-11-16T10:00:24Z</time>
      </trkpt>
      <trkpt lat="48.60965" lon="2.02969">
        <ele>110.6</ele>
        <time>2025-11-16T10:00:26Z</time>
      </trkpt>
      <trkpt lat="48.60968" lon="2.02967">
        <ele>110.4</ele>
        <time>2025-11-16T10:00:28Z</time>
      </trkpt>
      <trkpt lat="48.60971" lon="2.02966">
        <ele>110.2</ele>
        <time>2025-11-16T10:00:30Z</time>
      </trkpt>
      <trkpt lat="48.60974" lon="2.02965">
        <ele>110</ele>
        <time>2025-11-16T10:00:32Z</time>
      </trkpt>
      <trkpt lat="48.60977" lon="2.02964">
        <ele>109.8</ele>
        <time>2025-11-16T10:00:34Z</time>
      </trkpt>
      <trkpt lat="48.6098" lon="2.02962">
        <ele>109.8</ele>
        <time>2025-11-16T10:00:36Z</time>
      </trkpt>
      <trkpt lat="48.60983" lon="2.02961">
        <ele>109.6</ele>
        <time>2025-11-16T10:00:38Z</time>
      </trkpt>
      <trkpt lat="48.60986" lon="2.0296">
        <ele>109.4</ele>
        <time>2025-11-16T10:00:40Z</time>
      </trkpt>
      <trkpt lat="48.60988" lon="2.0296">
        <ele>109.4</ele>
        <time>2025-11-16T10:00:42Z</time>
      </trkpt>
      <trkpt lat="48.60991" lon="2.0296">
        <ele>109</ele>
        <time>2025-11-16T10:00:44Z</time>
      </trkpt>
      <trkpt lat="48.60994" lon="2.02959">
        <ele>108.8</ele>
        <time>2025-11-16T10:00:46Z</time>
      </trkpt>
      <trkpt lat="48.60996" lon="2.02958">
        <ele>108.6</ele>
        <time>2025-11-16T10:00:48Z</time>
      </trkpt>
      <trkpt lat="48.60998" lon="2.02957">
        <ele>108.4</ele>
        <time>2025-11-16T10:00:50Z</time>
      </trkpt>
      <trkpt lat="48.61" lon="2.02956">
        <ele>108</ele>
        <time>2025-11-16T10:00:52Z</time>
      </trkpt>
      <trkpt lat="48.61002" lon="2.02956">
        <ele>107.8</ele>
        <time>2025-11-16T10:00:54Z</time>
      </trkpt>
      <trkpt lat="48.61004" lon="2.02955">
        <ele>107.4</ele>
        <time>2025-11-16T10:00:56Z</time>
      </trkpt>
      <trkpt lat="48.61006" lon="2.02954">
        <ele>107.2</ele>
        <time>2025-11-16T10:00:58Z</time>
      </trkpt>
      <trkpt lat="48.61009" lon="2.02952">
        <ele>106.8</ele>
        <time>2025-11-16T10:01:00Z</time>
      </trkpt>
      <trkpt lat="48.61012" lon="2.02951">
        <ele>106.4</ele>
        <time>2025-11-16T10:01:02Z</time>
      </trkpt>
      <trkpt lat="48.61015" lon="2.02949">
        <ele>106.2</ele>
        <time>2025-11-16T10:01:04Z</time>
      </trkpt>
      <trkpt lat="48.61018" lon="2.02948">
        <ele>106</ele>
        <time>2025-11-16T10:01:06Z</time>
      </trkpt>
      <trkpt lat="48.61021" lon="2.02947">
        <ele>105.6</ele>
        <time>2025-11-16T10:01:08Z</time>
      </trkpt>
      <trkpt lat="48.61024" lon="2.02947">
        <ele>105.2</ele>
        <time>2025-11-16T10:01:10Z</time>
      </trkpt>
      <trkpt lat="48.61027" lon="2.02947">
        <ele>105</ele>
        <time>2025-11-16T10:01:12Z</time>
      </trkpt>
      <trkpt lat="48.61029" lon="2.02946">
        <ele>104.8</ele>
        <time>2025-11-16T10:01:14Z</time>
      </trkpt>
      <trkpt lat="48.61031" lon="2.02945">
        <ele>104.6</ele>
        <time>2025-11-16T10:01:16Z</time>
      </trkpt>
      <trkpt lat="48.61034" lon="2.02944">
        <ele>104.4</ele>
        <time>2025-11-16T10:01:18Z</time>
      </trkpt>
      <trkpt lat="48.61037" lon="2.02944">
        <ele>104.2</ele>
        <time>2025-11-16T10:01:20Z</time>
      </trkpt>
      <trkpt lat="48.6104" lon="2.02943">
        <ele>104</ele>
        <time>2025-11-16T10:01:22Z</time>
      </trkpt>
      <trkpt lat="48.61043" lon="2.02942">
        <ele>103.8</ele>
        <time>2025-11-16T10:01:24Z</time>
      </trkpt>
      <trkpt lat="48.61046" lon="2.02941">
        <ele>103.4</ele>
        <time>2025-11-16T10:01:26Z</time>
      </trkpt>
      <trkpt lat="48.61049" lon="2.0294">
        <ele>103.2</ele>
        <time>2025-11-16T10:01:28Z</time>
      </trkpt>
      <trkpt lat="48.61052" lon="2.02939">
        <ele>103</ele>
        <time>2025-11-16T10:01:30Z</time>
      </trkpt>
      <trkpt lat="48.61054" lon="2.02938">
        <ele>102.8</ele>
        <time>2025-11-16T10:01:32Z</time>
      </trkpt>
      <trkpt lat="48.61057" lon="2.02936">
        <ele>102.8</ele>
        <time>2025-11-16T10:01:34Z</time>
      </trkpt>
      <trkpt lat="48.6106" lon="2.02935">
        <ele>102.6</ele>
        <time>2025-11-16T10:01:36Z</time>
      </trkpt>
      <trkpt lat="48.61062" lon="2.02933">
        <ele>102.8</ele>
        <time>2025-11-16T10:01:38Z</time>
      </trkpt>
      <trkpt lat="48.61065" lon="2.02932">
        <ele>102.6</ele>
        <time>2025-11-16T10:01:40Z</time>
      </trkpt>
      <trkpt lat="48.61068" lon="2.0293">
        <ele>102.4</ele>
        <time>2025-11-16T10:01:42Z</time>
      </trkpt>
      <trkpt lat="48.6107" lon="2.02928">
        <ele>102.4</ele>
        <time>2025-11-16T10:01:44Z</time>
      </trkpt>
      <trkpt lat="48.61073" lon="2.02927">
        <ele>102.4</ele>
        <time>2025-11-16T10:01:46Z</time>
      </trkpt>
      <trkpt lat="48.61076" lon="2.02926">
        <ele>102.4</ele>
        <time>2025-11-16T10:01:48Z</time>
      </trkpt>
      <trkpt lat="48.61078" lon="2.02924">
        <ele>102.6</ele>
        <time>2025-11-16T10:01:50Z</time>
      </trkpt>
      <trkpt lat="48.61081" lon="2.02922">
        <ele>102.6</ele>
        <time>2025-11-16T10:01:52Z</time>
      </trkpt>
      <trkpt lat="48.61083" lon="2.0292">
        <ele>102.6</ele>
        <time>2025-11-16T10:01:54Z</time>
      </trkpt>
      <trkpt lat="48.61086" lon="2.02918">
        <ele>102.6</ele>
        <time>2025-11-16T10:01:56Z</time>
      </trkpt>
      <trkpt lat="48.61088" lon="2.02916">
        <ele>102.6</ele>
        <time>2025-11-16T10:01:58Z</time>
      </trkpt>
      <trkpt lat="48.61091" lon="2.02915">
        <ele>102.4</ele>
        <time>2025-11-16T10:02:00Z</time>
      </trkpt>
      <trkpt lat="48.61093" lon="2.02913">
        <ele>102.2</ele>
        <time>2025-11-16T10:02:02Z</time>
      </trkpt>
      <trkpt lat="48.61096" lon="2.02911">
        <ele>102.2</ele>
        <time>2025-11-16T10:02:04Z</time>
      </trkpt>
      <trkpt lat="48.61099" lon="2.02909">
        <ele>102.2</ele>
        <time>2025-11-16T10:02:06Z</time>
      </trkpt>
      <trkpt lat="48.61101" lon="2.02907">
        <ele>102</ele>
        <time>2025-11-16T10:02:08Z</time>
      </trkpt>
      <trkpt lat="48.61103" lon="2.02905">
        <ele>102</ele>
        <time>2025-11-16T10:02:10Z</time>
      </trkpt>
      <trkpt lat="48.61106" lon="2.02903">
        <ele>102</ele>
        <time>2025-11-16T10:02:12Z</time>
      </trkpt>
      <trkpt lat="48.61108" lon="2.02901">
        <ele>101.8</ele>
        <time>2025-11-16T10:02:14Z</time>
      </trkpt>
      <trkpt lat="48.61111" lon="2.02899">
        <ele>101.8</ele>
        <time>2025-11-16T10:02:16Z</time>
      </trkpt>
      <trkpt lat="48.61113" lon="2.02897">
        <ele>101.8</ele>
        <time>2025-11-16T10:02:18Z</time>
      </trkpt>
      <trkpt lat="48.61115" lon="2.02895">
        <ele>101.8</ele>
        <time>2025-11-16T10:02:20Z</time>
      </trkpt>
      <trkpt lat="48.61117" lon="2.02893">
        <ele>102</ele>
        <time>2025-11-16T10:02:22Z</time>
      </trkpt>
      <trkpt lat="48.61119" lon="2.0289">
        <ele>102</ele>
        <time>2025-11-16T10:02:24Z</time>
      </trkpt>
      <trkpt lat="48.61121" lon="2.02888">
        <ele>102.2</ele>
        <time>2025-11-16T10:02:26Z</time>
      </trkpt>
      <trkpt lat="48.61124" lon="2.02885">
        <ele>102.2</ele>
        <time>2025-11-16T10:02:28Z</time>
      </trkpt>
      <trkpt lat="48.61126" lon="2.02882">
        <ele>102.4</ele>
        <time>2025-11-16T10:02:30Z</time>
      </trkpt>
      <trkpt lat="48.61128" lon="2.0288">
        <ele>102.6</ele>
        <time>2025-11-16T10:02:32Z</time>
      </trkpt>
      <trkpt lat="48.6113" lon="2.02877">
        <ele>102.8</ele>
        <time>2025-11-16T10:02:34Z</time>
      </trkpt>
      <trkpt lat="48.61132" lon="2.02874">
        <ele>103.2</ele>
        <time>2025-11-16T10:02:36Z</time>
      </trkpt>
      <trkpt lat="48.61134" lon="2.02872">
        <ele>103.4</ele>
        <time>2025-11-16T10:02:38Z</time>
      </trkpt>
      <trkpt lat="48.61137" lon="2.0287">
        <ele>103.8</ele>
        <time>2025-11-16T10:02:40Z</time>
      </trkpt>
      <trkpt lat="48.61139" lon="2.02867">
        <ele>104</ele>
        <time>2025-11-16T10:02:42Z</time>
      </trkpt>
      <trkpt lat="48.61141" lon="2.02864">
        <ele>104</ele>
        <time>2025-11-16T10:02:44Z</time>
      </trkpt>
      <trkpt lat="48.61144" lon="2.02862">
        <ele>104</ele>
        <time>2025-11-16T10:02:46Z</time>
      </trkpt>
      <trkpt lat="48.61146" lon="2.02859">
        <ele>104.2</ele>
        <time>2025-11-16T10:02:48Z</time>
      </trkpt>
      <trkpt lat="48.61148" lon="2.02857">
        <ele>104.4</ele>
        <time>2025-11-16T10:02:50Z</time>
      </trkpt>
      <trkpt lat="48.6115" lon="2.02855">
        <ele>104.6</ele>
        <time>2025-11-16T10:02:52Z</time>
      </trkpt>
      <trkpt lat="48.61152" lon="2.02852">
        <ele>104.8</ele>
        <time>2025-11-16T10:02:54Z</time>
      </trkpt>
      <trkpt lat="48.61155" lon="2.0285">
        <ele>104.8</ele>
        <time>2025-11-16T10:02:56Z</time>
      </trkpt>
      <trkpt lat="48.61157" lon="2.02848">
        <ele>104.8</ele>
        <time>2025-11-16T10:02:58Z</time>
      </trkpt>
      <trkpt lat="48.61159" lon="2.02846">
        <ele>105</ele>
        <time>2025-11-16T10:03:00Z</time>
      </trkpt>
      <trkpt lat="48.61161" lon="2.02844">
        <ele>105.2</ele>
        <time>2025-11-16T10:03:02Z</time>
      </trkpt>
      <trkpt lat="48.61164" lon="2.02842">
        <ele>105.2</ele>
        <time>2025-11-16T10:03:04Z</time>
      </trkpt>
      <trkpt lat="48.61166" lon="2.0284">
        <ele>105.6</ele>
        <time>2025-11-16T10:03:06Z</time>
      </trkpt>
      <trkpt lat="48.61168" lon="2.02838">
        <ele>105.6</ele>
        <time>2025-11-16T10:03:08Z</time>
      </trkpt>
      <trkpt lat="48.61171" lon="2.02836">
        <ele>105.8</ele>
        <time>2025-11-16T10:03:10Z</time>
      </trkpt>
      <trkpt lat="48.61173" lon="2.02834">
        <ele>105.8</ele>
        <time>2025-11-16T10:03:12Z</time>
      </trkpt>
      <trkpt lat="48.61175" lon="2.02832">
        <ele>105.8</ele>
        <time>2025-11-16T10:03:14Z</time>
      </trkpt>
      <trkpt lat="48.61178" lon="2.02829">
        <ele>105.8</ele>
        <time>2025-11-16T10:03:16Z</time>
      </trkpt>
      <trkpt lat="48.6118" lon="2.02827">
        <ele>106</ele>
        <time>2025-11-16T10:03:18Z</time>
      </trkpt>
      <trkpt lat="48.61182" lon="2.02824">
        <ele>106.2</ele>
        <time>2025-11-16T10:03:20Z</time>
      </trkpt>
      <trkpt lat="48.61184" lon="2.02822">
        <ele>106.4</ele>
        <time>2025-11-16T10:03:22Z</time>
      </trkpt>
      <trkpt lat="48.61187" lon="2.02819">
        <ele>106.6</ele>
        <time>2025-11-16T10:03:24Z</time>
      </trkpt>
      <trkpt lat="48.61188" lon="2.02817">
        <ele>106.6</ele>
        <time>2025-11-16T10:03:26Z</time>
      </trkpt>
      <trkpt lat="48.61191" lon="2.02815">
        <ele>106.6</ele>
        <time>2025-11-16T10:03:28Z</time>
      </trkpt>
      <trkpt lat="48.61194" lon="2.02813">
        <ele>106.6</ele>
        <time>2025-11-16T10:03:30Z</time>
      </trkpt>
      <trkpt lat="48.61196" lon="2.02811">
        <ele>106.6</ele>
        <time>2025-11-16T10:03:32Z</time>
      </trkpt>
      <trkpt lat="48.61198" lon="2.02808">
        <ele>106.6</ele>
        <time>2025-11-16T10:03:34Z</time>
      </trkpt>
      <trkpt lat="48.61201" lon="2.02806">
        <ele>106.6</ele>
        <time>2025-11-16T10:03:36Z</time>
      </trkpt>
      <trkpt lat="48.61203" lon="2.02804">
        <ele>106.6</ele>
        <time>2025-11-16T10:03:38Z</time>
      </trkpt>
      <trkpt lat="48.61206" lon="2.02802">
        <ele>106.8</ele>
        <time>2025-11-16T10:03:40Z</time>
      </trkpt>
      <trkpt lat="48.61208" lon="2.028">
        <ele>107</ele>
        <time>2025-11-16T10:03:42Z</time>
      </trkpt>
      <trkpt lat="48.61211" lon="2.02799">
        <ele>107.2</ele>
        <time>2025-11-16T10:03:44Z</time>
      </trkpt>
      <trkpt lat="48.61213" lon="2.02797">
        <ele>107.2</ele>
        <time>2025-11-16T10:03:46Z</time>
      </trkpt>
      <trkpt lat="48.61216" lon="2.02795">
        <ele>107.2</ele>
        <time>2025-11-16T10:03:48Z</time>
      </trkpt>
      <trkpt lat="48.61218" lon="2.02793">
        <ele>107.2</ele>
        <time>2025-11-16T10:03:50Z</time>
      </trkpt>
      <trkpt lat="48.6122" lon="2.0279">
        <ele>107.2</ele>
        <time>2025-11-16T10:03:52Z</time>
      </trkpt>
      <trkpt lat="48.61221" lon="2.02787">
        <ele>107</ele>
        <time>2025-11-16T10:03:54Z</time>
      </trkpt>
      <trkpt lat="48.61222" lon="2.02783">
        <ele>107</ele>
        <time>2025-11-16T10:03:56Z</time>
      </trkpt>
      <trkpt lat="48.61222" lon="2.02778">
        <ele>107</ele>
        <time>2025-11-16T10:03:58Z</time>
      </trkpt>
      <trkpt lat="48.61221" lon="2.02774">
        <ele>106.8</ele>
        <time>2025-11-16T10:04:00Z</time>
      </trkpt>
      <trkpt lat="48.6122" lon="2.0277">
        <ele>107</ele>
        <time>2025-11-16T10:04:02Z</time>
      </trkpt>
      <trkpt lat="48.6122" lon="2.02766">
        <ele>107</ele>
        <time>2025-11-16T10:04:04Z</time>
      </trkpt>
      <trkpt lat="48.6122" lon="2.02761">
        <ele>107.2</ele>
        <time>2025-11-16T10:04:06Z</time>
      </trkpt>
      <trkpt lat="48.61219" lon="2.02757">
        <ele>107.4</ele>
        <time>2025-11-16T10:04:08Z</time>
      </trkpt>
      <trkpt lat="48.61219" lon="2.02753">
        <ele>107.6</ele>
        <time>2025-11-16T10:04:10Z</time>
      </trkpt>
      <trkpt lat="48.61218" lon="2.02749">
        <ele>107.8</ele>
        <time>2025-11-16T10:04:12Z</time>
      </trkpt>
      <trkpt lat="48.61217" lon="2.02745">
        <ele>108</ele>
        <time>2025-11-16T10:04:14Z</time>
      </trkpt>
      <trkpt lat="48.61216" lon="2.02741">
        <ele>108</ele>
        <time>2025-11-16T10:04:16Z</time>
      </trkpt>
      <trkpt lat="48.61216" lon="2.02736">
        <ele>108.2</ele>
        <time>2025-11-16T10:04:18Z</time>
      </trkpt>
      <trkpt lat="48.61215" lon="2.02732">
        <ele>108.2</ele>
        <time>2025-11-16T10:04:20Z</time>
      </trkpt>
      <trkpt lat="48.61214" lon="2.02727">
        <ele>108.4</ele>
        <time>2025-11-16T10:04:22Z</time>
      </trkpt>
      <trkpt lat="48.61214" lon="2.02723">
        <ele>108.4</ele>
        <time>2025-11-16T10:04:24Z</time>
      </trkpt>
      <trkpt lat="48.61213" lon="2.02719">
        <ele>108.4</ele>
        <time>2025-11-16T10:04:26Z</time>
      </trkpt>
      <trkpt lat="48.61212" lon="2.02714">
        <ele>108.6</ele>
        <time>2025-11-16T10:04:28Z</time>
      </trkpt>
      <trkpt lat="48.61212" lon="2.02709">
        <ele>108.8</ele>
        <time>2025-11-16T10:04:30Z</time>
      </trkpt>
      <trkpt lat="48.61212" lon="2.02705">
        <ele>108.8</ele>
        <time>2025-11-16T10:04:32Z</time>
      </trkpt>
      <trkpt lat="48.61212" lon="2.027">
        <ele>108.8</ele>
        <time>2025-11-16T10:04:34Z</time>
      </trkpt>
      <trkpt lat="48.61212" lon="2.02696">
        <ele>109</ele>
        <time>2025-11-16T10:04:36Z</time>
      </trkpt>
      <trkpt lat="48.61211" lon="2.02691">
        <ele>109</ele>
        <time>2025-11-16T10:04:38Z</time>
      </trkpt>
      <trkpt lat="48.61211" lon="2.02687">
        <ele>109</ele>
        <time>2025-11-16T10:04:40Z</time>
      </trkpt>
      <trkpt lat="48.61211" lon="2.02682">
        <ele>109.2</ele>
        <time>2025-11-16T10:04:42Z</time>
      </trkpt>
      <trkpt lat="48.61211" lon="2.02678">
        <ele>109.2</ele>
        <time>2025-11-16T10:04:44Z</time>
      </trkpt>
      <trkpt lat="48.61211" lon="2.02674">
        <ele>109.4</ele>
        <time>2025-11-16T10:04:46Z</time>
      </trkpt>
      <trkpt lat="48.6121" lon="2.02669">
        <ele>109.4</ele>
        <time>2025-11-16T10:04:48Z</time>
      </trkpt>
      <trkpt lat="48.6121" lon="2.02664">
        <ele>109.4</ele>
        <time>2025-11-16T10:04:50Z</time>
      </trkpt>
      <trkpt lat="48.61211" lon="2.0266">
        <ele>109.4</ele>
        <time>2025-11-16T10:04:52Z</time>
      </trkpt>
      <trkpt lat="48.61211" lon="2.02656">
        <ele>109.4</ele>
        <time>2025-11-16T10:04:54Z</time>
      </trkpt>
      <trkpt lat="48.61211" lon="2.02651">
        <ele>109.4</ele>
        <time>2025-11-16T10:04:56Z</time>
      </trkpt>
      <trkpt lat="48.6121" lon="2.02647">
        <ele>109.8</ele>
        <time>2025-11-16T10:04:58Z</time>
      </trkpt>
      <trkpt lat="48.6121" lon="2.02642">
        <ele>110</ele>
        <time>2025-11-16T10:05:00Z</time>
      </trkpt>
      <trkpt lat="48.6121" lon="2.02638">
        <ele>110.4</ele>
        <time>2025-11-16T10:05:02Z</time>
      </trkpt>
      <trkpt lat="48.6121" lon="2.02633">
        <ele>110.6</ele>
        <time>2025-11-16T10:05:04Z</time>
      </trkpt>
      <trkpt lat="48.6121" lon="2.02629">
        <ele>110.6</ele>
        <time>2025-11-16T10:05:06Z</time>
      </trkpt>
      <trkpt lat="48.6121" lon="2.02625">
        <ele>110.6</ele>
        <time>2025-11-16T10:05:08Z</time>
      </trkpt>
      <trkpt lat="48.6121" lon="2.0262">
        <ele>110.8</ele>
        <time>2025-11-16T10:05:10Z</time>
      </trkpt>
      <trkpt lat="48.6121" lon="2.02616">
        <ele>110.6</ele>
        <time>2025-11-16T10:05:12Z</time>
      </trkpt>
      <trkpt lat="48.6121" lon="2.02612">
        <ele>110.6</ele>
        <time>2025-11-16T10:05:14Z</time>
      </trkpt>
      <trkpt lat="48.6121" lon="2.02608">
        <ele>110.6</ele>
        <time>2025-11-16T10:05:16Z</time>
      </trkpt>
      <trkpt lat="48.6121" lon="2.02604">
        <ele>110.8</ele>
        <time>2025-11-16T10:05:18Z</time>
      </trkpt>
      <trkpt lat="48.61209" lon="2.026">
        <ele>110.8</ele>
        <time>2025-11-16T10:05:20Z</time>
      </trkpt>
      <trkpt lat="48.61208" lon="2.02596">
        <ele>111</ele>
        <time>2025-11-16T10:05:22Z</time>
      </trkpt>
      <trkpt lat="48.61206" lon="2.02592">
        <ele>111</ele>
        <time>2025-11-16T10:05:24Z</time>
      </trkpt>
      <trkpt lat="48.61204" lon="2.02589">
        <ele>111</ele>
        <time>2025-11-16T10:05:26Z</time>
      </trkpt>
      <trkpt lat="48.61201" lon="2.02588">
        <ele>110.8</ele>
        <time>2025-11-16T10:05:28Z</time>
      </trkpt>
      <trkpt lat="48.61198" lon="2.02586">
        <ele>110.8</ele>
        <time>2025-11-16T10:05:30Z</time>
      </trkpt>
      <trkpt lat="48.61194" lon="2.02586">
        <ele>111</ele>
        <time>2025-11-16T10:05:32Z</time>
      </trkpt>
      <trkpt lat="48.61192" lon="2.02585">
        <ele>111</ele>
        <time>2025-11-16T10:05:34Z</time>
      </trkpt>
      <trkpt lat="48.61189" lon="2.02585">
        <ele>111.2</ele>
        <time>2025-11-16T10:05:36Z</time>
      </trkpt>
      <trkpt lat="48.61186" lon="2.02585">
        <ele>111.2</ele>
        <time>2025-11-16T10:05:38Z</time>
      </trkpt>
      <trkpt lat="48.61183" lon="2.02585">
        <ele>111.2</ele>
        <time>2025-11-16T10:05:40Z</time>
      </trkpt>
      <trkpt lat="48.6118" lon="2.02585">
        <ele>111.2</ele>
        <time>2025-11-16T10:05:42Z</time>
      </trkpt>
      <trkpt lat="48.61178" lon="2.02585">
        <ele>111.2</ele>
        <time>2025-11-16T10:05:44Z</time>
      </trkpt>
      <trkpt lat="48.61174" lon="2.02585">
        <ele>111.2</ele>
        <time>2025-11-16T10:05:46Z</time>
      </trkpt>
      <trkpt lat="48.61172" lon="2.02584">
        <ele>111.4</ele>
        <time>2025-11-16T10:05:48Z</time>
      </trkpt>
      <trkpt lat="48.61169" lon="2.02584">
        <ele>111.4</ele>
        <time>2025-11-16T10:05:50Z</time>
      </trkpt>
      <trkpt lat="48.61166" lon="2.02585">
        <ele>111.4</ele>
        <time>2025-11-16T10:05:52Z</time>
      </trkpt>
      <trkpt lat="48.61163" lon="2.02586">
        <ele>111.4</ele>
        <time>2025-11-16T10:05:54Z</time>
      </trkpt>
      <trkpt lat="48.61159" lon="2.02586">
        <ele>111.2</ele>
        <time>2025-11-16T10:05:56Z</time>
      </trkpt>
      <trkpt lat="48.61157" lon="2.02586">
        <ele>111.2</ele>
        <time>2025-11-16T10:05:58Z</time>
      </trkpt>
      <trkpt lat="48.61154" lon="2.02587">
        <ele>111</ele>
        <time>2025-11-16T10:06:00Z</time>
      </trkpt>
      <trkpt lat="48.61151" lon="2.02587">
        <ele>111.2</ele>
        <time>2025-11-16T10:06:02Z</time>
      </trkpt>
      <trkpt lat="48.61148" lon="2.02587">
        <ele>111.2</ele>
        <time>2025-11-16T10:06:04Z</time>
      </trkpt>
      <trkpt lat="48.61145" lon="2.02587">
        <ele>111</ele>
        <time>2025-11-16T10:06:06Z</time>
      </trkpt>
      <trkpt lat="48.61142" lon="2.02587">
        <ele>111</ele>
        <time>2025-11-16T10:06:08Z</time>
      </trkpt>
      <trkpt lat="48.61139" lon="2.02588">
        <ele>111</ele>
        <time>2025-11-16T10:06:10Z</time>
      </trkpt>
      <trkpt lat="48.61135" lon="2.02589">
        <ele>111</ele>
        <time>2025-11-16T10:06:12Z</time>
      </trkpt>
      <trkpt lat="48.61132" lon="2.02589">
        <ele>111.2</ele>
        <time>2025-11-16T10:06:14Z</time>
      </trkpt>
      <trkpt lat="48.61131" lon="2.0259">
        <ele>111.2</ele>
        <time>2025-11-16T10:06:15Z</time>
      </trkpt>
      <trkpt lat="48.61127" lon="2.02591">
        <ele>111.2</ele>
        <time>2025-11-16T10:06:17Z</time>
      </trkpt>
      <trkpt lat="48.61124" lon="2.02591">
        <ele>111</ele>
        <time>2025-11-16T10:06:19Z</time>
      </trkpt>
      <trkpt lat="48.61121" lon="2.02591">
        <ele>111</ele>
        <time>2025-11-16T10:06:21Z</time>
      </trkpt>
      <trkpt lat="48.61118" lon="2.02592">
        <ele>111</ele>
        <time>2025-11-16T10:06:23Z</time>
      </trkpt>
      <trkpt lat="48.61115" lon="2.02592">
        <ele>111</ele>
        <time>2025-11-16T10:06:25Z</time>
      </trkpt>
      <trkpt lat="48.61113" lon="2.02592">
        <ele>111</ele>
        <time>2025-11-16T10:06:26Z</time>
      </trkpt>
      <trkpt lat="48.6111" lon="2.02592">
        <ele>110.8</ele>
        <time>2025-11-16T10:06:28Z</time>
      </trkpt>
      <trkpt lat="48.61107" lon="2.02592">
        <ele>110.6</ele>
        <time>2025-11-16T10:06:30Z</time>
      </trkpt>
      <trkpt lat="48.61105" lon="2.02591">
        <ele>110.4</ele>
        <time>2025-11-16T10:06:32Z</time>
      </trkpt>
      <trkpt lat="48.61101" lon="2.02591">
        <ele>110.4</ele>
        <time>2025-11-16T10:06:34Z</time>
      </trkpt>
      <trkpt lat="48.61099" lon="2.0259">
        <ele>110.4</ele>
        <time>2025-11-16T10:06:36Z</time>
      </trkpt>
      <trkpt lat="48.61096" lon="2.0259">
        <ele>110.2</ele>
        <time>2025-11-16T10:06:38Z</time>
      </trkpt>
      <trkpt lat="48.61093" lon="2.0259">
        <ele>110</ele>
        <time>2025-11-16T10:06:40Z</time>
      </trkpt>
      <trkpt lat="48.61091" lon="2.02589">
        <ele>110</ele>
        <time>2025-11-16T10:06:42Z</time>
      </trkpt>
      <trkpt lat="48.61088" lon="2.02589">
        <ele>110</ele>
        <time>2025-11-16T10:06:44Z</time>
      </trkpt>
      <trkpt lat="48.61085" lon="2.02588">
        <ele>109.8</ele>
        <time>2025-11-16T10:06:46Z</time>
      </trkpt>
      <trkpt lat="48.61083" lon="2.02588">
        <ele>109.6</ele>
        <time>2025-11-16T10:06:48Z</time>
      </trkpt>
      <trkpt lat="48.6108" lon="2.02588">
        <ele>109.4</ele>
        <time>2025-11-16T10:06:50Z</time>
      </trkpt>
      <trkpt lat="48.61077" lon="2.02588">
        <ele>109.2</ele>
        <time>2025-11-16T10:06:52Z</time>
      </trkpt>
      <trkpt lat="48.61075" lon="2.02587">
        <ele>108.8</ele>
        <time>2025-11-16T10:06:54Z</time>
      </trkpt>
      <trkpt lat="48.61072" lon="2.02587">
        <ele>108.8</ele>
        <time>2025-11-16T10:06:56Z</time>
      </trkpt>
      <trkpt lat="48.61069" lon="2.02586">
        <ele>108.6</ele>
        <time>2025-11-16T10:06:58Z</time>
      </trkpt>
      <trkpt lat="48.61066" lon="2.02585">
        <ele>108.6</ele>
        <time>2025-11-16T10:07:00Z</time>
      </trkpt>
      <trkpt lat="48.61063" lon="2.02585">
        <ele>108.4</ele>
        <time>2025-11-16T10:07:02Z</time>
      </trkpt>
      <trkpt lat="48.6106" lon="2.02585">
        <ele>108.2</ele>
        <time>2025-11-16T10:07:04Z</time>
      </trkpt>
      <trkpt lat="48.61058" lon="2.02584">
        <ele>108</ele>
        <time>2025-11-16T10:07:06Z</time>
      </trkpt>
      <trkpt lat="48.61055" lon="2.02584">
        <ele>108</ele>
        <time>2025-11-16T10:07:08Z</time>
      </trkpt>
      <trkpt lat="48.61052" lon="2.02584">
        <ele>108</ele>
        <time>2025-11-16T10:07:10Z</time>
      </trkpt>
      <trkpt lat="48.61049" lon="2.02584">
        <ele>108</ele>
        <time>2025-11-16T10:07:12Z</time>
      </trkpt>
      <trkpt lat="48.61046" lon="2.02584">
        <ele>108</ele>
        <time>2025-11-16T10:07:14Z</time>
      </trkpt>
      <trkpt lat="48.61043" lon="2.02584">
        <ele>108.2</ele>
        <time>2025-11-16T10:07:16Z</time>
      </trkpt>
      <trkpt lat="48.61041" lon="2.02584">
        <ele>108.2</ele>
        <time>2025-11-16T10:07:18Z</time>
      </trkpt>
      <trkpt lat="48.61037" lon="2.02583">
        <ele>108.2</ele>
        <time>2025-11-16T10:07:20Z</time>
      </trkpt>
      <trkpt lat="48.61035" lon="2.02583">
        <ele>108.2</ele>
        <time>2025-11-16T10:07:22Z</time>
      </trkpt>
      <trkpt lat="48.61032" lon="2.02583">
        <ele>108.2</ele>
        <time>2025-11-16T10:07:24Z</time>
      </trkpt>
      <trkpt lat="48.61029" lon="2.02582">
        <ele>108</ele>
        <time>2025-11-16T10:07:26Z</time>
      </trkpt>
      <trkpt lat="48.61026" lon="2.02582">
        <ele>108</ele>
        <time>2025-11-16T10:07:28Z</time>
      </trkpt>
      <trkpt lat="48.61023" lon="2.02582">
        <ele>107.8</ele>
        <time>2025-11-16T10:07:30Z</time>
      </trkpt>
      <trkpt lat="48.6102" lon="2.02581">
        <ele>107.8</ele>
        <time>2025-11-16T10:07:32Z</time>
      </trkpt>
      <trkpt lat="48.61018" lon="2.02581">
        <ele>107.6</ele>
        <time>2025-11-16T10:07:34Z</time>
      </trkpt>
      <trkpt lat="48.61014" lon="2.02581">
        <ele>107.8</ele>
        <time>2025-11-16T10:07:38Z</time>
      </trkpt>
      <trkpt lat="48.61012" lon="2.02581">
        <ele>108</ele>
        <time>2025-11-16T10:07:45Z</time>
      </trkpt>
      <trkpt lat="48.6101" lon="2.02582">
        <ele>108.2</ele>
        <time>2025-11-16T10:07:49Z</time>
      </trkpt>
      <trkpt lat="48.61008" lon="2.02583">
        <ele>108.2</ele>
        <time>2025-11-16T10:07:51Z</time>
      </trkpt>
      <trkpt lat="48.61004" lon="2.02583">
        <ele>108.2</ele>
        <time>2025-11-16T10:07:53Z</time>
      </trkpt>
      <trkpt lat="48.61002" lon="2.02583">
        <ele>108.2</ele>
        <time>2025-11-16T10:07:55Z</time>
      </trkpt>
      <trkpt lat="48.60998" lon="2.02583">
        <ele>108</ele>
        <time>2025-11-16T10:07:57Z</time>
      </trkpt>
      <trkpt lat="48.60996" lon="2.02583">
        <ele>108</ele>
        <time>2025-11-16T10:07:59Z</time>
      </trkpt>
      <trkpt lat="48.60992" lon="2.02583">
        <ele>108</ele>
        <time>2025-11-16T10:08:02Z</time>
      </trkpt>
      <trkpt lat="48.6099" lon="2.02583">
        <ele>108</ele>
        <time>2025-11-16T10:08:06Z</time>
      </trkpt>
      <trkpt lat="48.60988" lon="2.02582">
        <ele>107.8</ele>
        <time>2025-11-16T10:08:10Z</time>
      </trkpt>
      <trkpt lat="48.60986" lon="2.02582">
        <ele>107.6</ele>
        <time>2025-11-16T10:08:12Z</time>
      </trkpt>
      <trkpt lat="48.60982" lon="2.02581">
        <ele>107.6</ele>
        <time>2025-11-16T10:08:14Z</time>
      </trkpt>
      <trkpt lat="48.6098" lon="2.0258">
        <ele>107.4</ele>
        <time>2025-11-16T10:08:16Z</time>
      </trkpt>
      <trkpt lat="48.60977" lon="2.02579">
        <ele>107.4</ele>
        <time>2025-11-16T10:08:18Z</time>
      </trkpt>
      <trkpt lat="48.60974" lon="2.02579">
        <ele>107.4</ele>
        <time>2025-11-16T10:08:20Z</time>
      </trkpt>
      <trkpt lat="48.60971" lon="2.02578">
        <ele>107.2</ele>
        <time>2025-11-16T10:08:22Z</time>
      </trkpt>
      <trkpt lat="48.60968" lon="2.02577">
        <ele>107.2</ele>
        <time>2025-11-16T10:08:24Z</time>
      </trkpt>
      <trkpt lat="48.60964" lon="2.02577">
        <ele>107</ele>
        <time>2025-11-16T10:08:26Z</time>
      </trkpt>
      <trkpt lat="48.60962" lon="2.02576">
        <ele>107</ele>
        <time>2025-11-16T10:08:28Z</time>
      </trkpt>
      <trkpt lat="48.60958" lon="2.02575">
        <ele>106.8</ele>
        <time>2025-11-16T10:08:30Z</time>
      </trkpt>
      <trkpt lat="48.60956" lon="2.02574">
        <ele>106.6</ele>
        <time>2025-11-16T10:08:32Z</time>
      </trkpt>
      <trkpt lat="48.60953" lon="2.02573">
        <ele>106.6</ele>
        <time>2025-11-16T10:08:34Z</time>
      </trkpt>
      <trkpt lat="48.6095" lon="2.02571">
        <ele>106.8</ele>
        <time>2025-11-16T10:08:36Z</time>
      </trkpt>
      <trkpt lat="48.60947" lon="2.0257">
        <ele>106.8</ele>
        <time>2025-11-16T10:08:38Z</time>
      </trkpt>
      <trkpt lat="48.60944" lon="2.02569">
        <ele>106.8</ele>
        <time>2025-11-16T10:08:40Z</time>
      </trkpt>
      <trkpt lat="48.60942" lon="2.02567">
        <ele>106.8</ele>
        <time>2025-11-16T10:08:42Z</time>
      </trkpt>
      <trkpt lat="48.60939" lon="2.02566">
        <ele>106.8</ele>
        <time>2025-11-16T10:08:44Z</time>
      </trkpt>
      <trkpt lat="48.60936" lon="2.02565">
        <ele>106.8</ele>
        <time>2025-11-16T10:08:46Z</time>
      </trkpt>
      <trkpt lat="48.60934" lon="2.02564">
        <ele>106.8</ele>
        <time>2025-11-16T10:08:47Z</time>
      </trkpt>
      <trkpt lat="48.60931" lon="2.02562">
        <ele>107</ele>
        <time>2025-11-16T10:08:49Z</time>
      </trkpt>
      <trkpt lat="48.60928" lon="2.02561">
        <ele>107</ele>
        <time>2025-11-16T10:08:51Z</time>
      </trkpt>
      <trkpt lat="48.60925" lon="2.02559">
        <ele>107</ele>
        <time>2025-11-16T10:08:53Z</time>
      </trkpt>
      <trkpt lat="48.60922" lon="2.02558">
        <ele>107.2</ele>
        <time>2025-11-16T10:08:55Z</time>
      </trkpt>
      <trkpt lat="48.60919" lon="2.02556">
        <ele>107.2</ele>
        <time>2025-11-16T10:08:57Z</time>
      </trkpt>
      <trkpt lat="48.60916" lon="2.02554">
        <ele>107.4</ele>
        <time>2025-11-16T10:08:59Z</time>
      </trkpt>
      <trkpt lat="48.60914" lon="2.02551">
        <ele>107.4</ele>
        <time>2025-11-16T10:09:01Z</time>
      </trkpt>
      <trkpt lat="48.60913" lon="2.02549">
        <ele>107.6</ele>
        <time>2025-11-16T10:09:03Z</time>
      </trkpt>
      <trkpt lat="48.60913" lon="2.02546">
        <ele>107.8</ele>
        <time>2025-11-16T10:09:07Z</time>
      </trkpt>
      <trkpt lat="48.60914" lon="2.02544">
        <ele>108</ele>
        <time>2025-11-16T10:09:10Z</time>
      </trkpt>
      <trkpt lat="48.60912" lon="2.02544">
        <ele>108.6</ele>
        <time>2025-11-16T10:09:22Z</time>
      </trkpt>
      <trkpt lat="48.60909" lon="2.02544">
        <ele>108.8</ele>
        <time>2025-11-16T10:09:24Z</time>
      </trkpt>
      <trkpt lat="48.60906" lon="2.02542">
        <ele>109.2</ele>
        <time>2025-11-16T10:09:26Z</time>
      </trkpt>
      <trkpt lat="48.60903" lon="2.0254">
        <ele>109.4</ele>
        <time>2025-11-16T10:09:28Z</time>
      </trkpt>
      <trkpt lat="48.609" lon="2.02538">
        <ele>109.6</ele>
        <time>2025-11-16T10:09:30Z</time>
      </trkpt>
      <trkpt lat="48.60898" lon="2.02536">
        <ele>109.8</ele>
        <time>2025-11-16T10:09:32Z</time>
      </trkpt>
      <trkpt lat="48.60894" lon="2.02533">
        <ele>110</ele>
        <time>2025-11-16T10:09:34Z</time>
      </trkpt>
      <trkpt lat="48.60892" lon="2.02531">
        <ele>110</ele>
        <time>2025-11-16T10:09:36Z</time>
      </trkpt>
      <trkpt lat="48.60889" lon="2.02529">
        <ele>110</ele>
        <time>2025-11-16T10:09:38Z</time>
      </trkpt>
      <trkpt lat="48.60887" lon="2.02528">
        <ele>110.2</ele>
        <time>2025-11-16T10:09:40Z</time>
      </trkpt>
      <trkpt lat="48.60884" lon="2.02526">
        <ele>110.4</ele>
        <time>2025-11-16T10:09:42Z</time>
      </trkpt>
      <trkpt lat="48.60882" lon="2.02524">
        <ele>110.4</ele>
        <time>2025-11-16T10:09:44Z</time>
      </trkpt>
      <trkpt lat="48.60879" lon="2.02523">
        <ele>110.2</ele>
        <time>2025-11-16T10:09:46Z</time>
      </trkpt>
      <trkpt lat="48.60877" lon="2.02522">
        <ele>110</ele>
        <time>2025-11-16T10:09:48Z</time>
      </trkpt>
      <trkpt lat="48.60875" lon="2.02521">
        <ele>109.6</ele>
        <time>2025-11-16T10:09:50Z</time>
      </trkpt>
      <trkpt lat="48.60872" lon="2.02521">
        <ele>109.4</ele>
        <time>2025-11-16T10:09:52Z</time>
      </trkpt>
      <trkpt lat="48.60869" lon="2.02521">
        <ele>109.2</ele>
        <time>2025-11-16T10:09:54Z</time>
      </trkpt>
      <trkpt lat="48.60866" lon="2.02522">
        <ele>109.4</ele>
        <time>2025-11-16T10:09:56Z</time>
      </trkpt>
      <trkpt lat="48.60863" lon="2.02523">
        <ele>109.4</ele>
        <time>2025-11-16T10:09:58Z</time>
      </trkpt>
      <trkpt lat="48.6086" lon="2.02525">
        <ele>109.4</ele>
        <time>2025-11-16T10:10:00Z</time>
      </trkpt>
      <trkpt lat="48.60858" lon="2.02526">
        <ele>109.4</ele>
        <time>2025-11-16T10:10:02Z</time>
      </trkpt>
      <trkpt lat="48.60855" lon="2.02528">
        <ele>109.4</ele>
        <time>2025-11-16T10:10:04Z</time>
      </trkpt>
      <trkpt lat="48.60853" lon="2.02529">
        <ele>109.4</ele>
        <time>2025-11-16T10:10:06Z</time>
      </trkpt>
      <trkpt lat="48.6085" lon="2.02531">
        <ele>109.4</ele>
        <time>2025-11-16T10:10:08Z</time>
      </trkpt>
      <trkpt lat="48.60847" lon="2.02532">
        <ele>109.4</ele>
        <time>2025-11-16T10:10:10Z</time>
      </trkpt>
      <trkpt lat="48.60845" lon="2.02533">
        <ele>109.4</ele>
        <time>2025-11-16T10:10:12Z</time>
      </trkpt>
      <trkpt lat="48.60843" lon="2.02535">
        <ele>109.6</ele>
        <time>2025-11-16T10:10:14Z</time>
      </trkpt>
      <trkpt lat="48.60841" lon="2.02536">
        <ele>109.6</ele>
        <time>2025-11-16T10:10:16Z</time>
      </trkpt>
      <trkpt lat="48.60839" lon="2.02538">
        <ele>109.8</ele>
        <time>2025-11-16T10:10:18Z</time>
      </trkpt>
      <trkpt lat="48.60837" lon="2.02541">
        <ele>109.8</ele>
        <time>2025-11-16T10:10:20Z</time>
      </trkpt>
      <trkpt lat="48.60835" lon="2.02543">
        <ele>109.6</ele>
        <time>2025-11-16T10:10:22Z</time>
      </trkpt>
      <trkpt lat="48.60832" lon="2.02545">
        <ele>109.4</ele>
        <time>2025-11-16T10:10:24Z</time>
      </trkpt>
      <trkpt lat="48.60829" lon="2.02546">
        <ele>109.4</ele>
        <time>2025-11-16T10:10:26Z</time>
      </trkpt>
      <trkpt lat="48.60828" lon="2.02548">
        <ele>109.2</ele>
        <time>2025-11-16T10:10:28Z</time>
      </trkpt>
      <trkpt lat="48.60825" lon="2.02549">
        <ele>109.2</ele>
        <time>2025-11-16T10:10:30Z</time>
      </trkpt>
      <trkpt lat="48.60822" lon="2.02551">
        <ele>109</ele>
        <time>2025-11-16T10:10:32Z</time>
      </trkpt>
      <trkpt lat="48.6082" lon="2.02553">
        <ele>108.8</ele>
        <time>2025-11-16T10:10:34Z</time>
      </trkpt>
      <trkpt lat="48.60817" lon="2.02556">
        <ele>108.4</ele>
        <time>2025-11-16T10:10:36Z</time>
      </trkpt>
      <trkpt lat="48.60814" lon="2.02558">
        <ele>108.4</ele>
        <time>2025-11-16T10:10:38Z</time>
      </trkpt>
      <trkpt lat="48.60811" lon="2.02559">
        <ele>108.4</ele>
        <time>2025-11-16T10:10:40Z</time>
      </trkpt>
      <trkpt lat="48.60808" lon="2.0256">
        <ele>108.2</ele>
        <time>2025-11-16T10:10:42Z</time>
      </trkpt>
      <trkpt lat="48.60805" lon="2.0256">
        <ele>108</ele>
        <time>2025-11-16T10:10:44Z</time>
      </trkpt>
      <trkpt lat="48.60803" lon="2.0256">
        <ele>108</ele>
        <time>2025-11-16T10:10:46Z</time>
      </trkpt>
      <trkpt lat="48.60799" lon="2.02557">
        <ele>107.8</ele>
        <time>2025-11-16T10:10:48Z</time>
      </trkpt>
      <trkpt lat="48.60797" lon="2.02554">
        <ele>107.8</ele>
        <time>2025-11-16T10:10:50Z</time>
      </trkpt>
      <trkpt lat="48.60796" lon="2.02552">
        <ele>107.8</ele>
        <time>2025-11-16T10:10:51Z</time>
      </trkpt>
      <trkpt lat="48.60793" lon="2.02548">
        <ele>107.6</ele>
        <time>2025-11-16T10:10:53Z</time>
      </trkpt>
      <trkpt lat="48.60791" lon="2.02544">
        <ele>107.6</ele>
        <time>2025-11-16T10:10:55Z</time>
      </trkpt>
      <trkpt lat="48.60789" lon="2.0254">
        <ele>107.4</ele>
        <time>2025-11-16T10:10:57Z</time>
      </trkpt>
      <trkpt lat="48.60788" lon="2.02536">
        <ele>107.4</ele>
        <time>2025-11-16T10:10:59Z</time>
      </trkpt>
      <trkpt lat="48.60787" lon="2.02533">
        <ele>107.4</ele>
        <time>2025-11-16T10:11:01Z</time>
      </trkpt>
      <trkpt lat="48.60785" lon="2.02529">
        <ele>107.4</ele>
        <time>2025-11-16T10:11:03Z</time>
      </trkpt>
      <trkpt lat="48.60783" lon="2.02526">
        <ele>107.2</ele>
        <time>2025-11-16T10:11:05Z</time>
      </trkpt>
      <trkpt lat="48.60782" lon="2.02523">
        <ele>107.2</ele>
        <time>2025-11-16T10:11:07Z</time>
      </trkpt>
      <trkpt lat="48.6078" lon="2.0252">
        <ele>107</ele>
        <time>2025-11-16T10:11:09Z</time>
      </trkpt>
      <trkpt lat="48.60779" lon="2.02517">
        <ele>107</ele>
        <time>2025-11-16T10:11:11Z</time>
      </trkpt>
      <trkpt lat="48.60777" lon="2.02514">
        <ele>107.2</ele>
        <time>2025-11-16T10:11:13Z</time>
      </trkpt>
      <trkpt lat="48.60776" lon="2.02511">
        <ele>107.4</ele>
        <time>2025-11-16T10:11:15Z</time>
      </trkpt>
      <trkpt lat="48.60774" lon="2.02508">
        <ele>107.4</ele>
        <time>2025-11-16T10:11:17Z</time>
      </trkpt>
      <trkpt lat="48.60772" lon="2.02505">
        <ele>107.6</ele>
        <time>2025-11-16T10:11:19Z</time>
      </trkpt>
      <trkpt lat="48.60771" lon="2.02501">
        <ele>107.8</ele>
        <time>2025-11-16T10:11:21Z</time>
      </trkpt>
      <trkpt lat="48.60769" lon="2.02497">
        <ele>108</ele>
        <time>2025-11-16T10:11:23Z</time>
      </trkpt>
      <trkpt lat="48.60767" lon="2.02494">
        <ele>108</ele>
        <time>2025-11-16T10:11:25Z</time>
      </trkpt>
      <trkpt lat="48.60765" lon="2.0249">
        <ele>108</ele>
        <time>2025-11-16T10:11:27Z</time>
      </trkpt>
      <trkpt lat="48.60763" lon="2.02487">
        <ele>107.8</ele>
        <time>2025-11-16T10:11:29Z</time>
      </trkpt>
      <trkpt lat="48.60761" lon="2.02483">
        <ele>107.6</ele>
        <time>2025-11-16T10:11:31Z</time>
      </trkpt>
      <trkpt lat="48.60759" lon="2.02479">
        <ele>107.6</ele>
        <time>2025-11-16T10:11:33Z</time>
      </trkpt>
      <trkpt lat="48.60758" lon="2.02476">
        <ele>107.6</ele>
        <time>2025-11-16T10:11:35Z</time>
      </trkpt>
      <trkpt lat="48.60756" lon="2.02472">
        <ele>107.6</ele>
        <time>2025-11-16T10:11:37Z</time>
      </trkpt>
      <trkpt lat="48.60755" lon="2.02469">
        <ele>107.6</ele>
        <time>2025-11-16T10:11:39Z</time>
      </trkpt>
      <trkpt lat="48.60753" lon="2.02465">
        <ele>107.4</ele>
        <time>2025-11-16T10:11:41Z</time>
      </trkpt>
      <trkpt lat="48.60751" lon="2.02462">
        <ele>107.4</ele>
        <time>2025-11-16T10:11:43Z</time>
      </trkpt>
      <trkpt lat="48.6075" lon="2.02458">
        <ele>107.4</ele>
        <time>2025-11-16T10:11:45Z</time>
      </trkpt>
      <trkpt lat="48.60748" lon="2.02454">
        <ele>107.4</ele>
        <time>2025-11-16T10:11:47Z</time>
      </trkpt>
      <trkpt lat="48.60746" lon="2.02451">
        <ele>107.4</ele>
        <time>2025-11-16T10:11:49Z</time>
      </trkpt>
      <trkpt lat="48.60745" lon="2.02447">
        <ele>107.4</ele>
        <time>2025-11-16T10:11:51Z</time>
      </trkpt>
      <trkpt lat="48.60744" lon="2.02444">
        <ele>107.4</ele>
        <time>2025-11-16T10:11:53Z</time>
      </trkpt>
      <trkpt lat="48.60743" lon="2.0244">
        <ele>107.6</ele>
        <time>2025-11-16T10:11:55Z</time>
      </trkpt>
      <trkpt lat="48.60741" lon="2.02437">
        <ele>107.8</ele>
        <time>2025-11-16T10:11:57Z</time>
      </trkpt>
      <trkpt lat="48.6074" lon="2.02433">
        <ele>107.8</ele>
        <time>2025-11-16T10:11:59Z</time>
      </trkpt>
      <trkpt lat="48.60738" lon="2.02431">
        <ele>107.8</ele>
        <time>2025-11-16T10:12:00Z</time>
      </trkpt>
      <trkpt lat="48.60736" lon="2.02427">
        <ele>107.8</ele>
        <time>2025-11-16T10:12:02Z</time>
      </trkpt>
      <trkpt lat="48.60734" lon="2.02423">
        <ele>108</ele>
        <time>2025-11-16T10:12:04Z</time>
      </trkpt>
      <trkpt lat="48.60733" lon="2.02421">
        <ele>108</ele>
        <time>2025-11-16T10:12:06Z</time>
      </trkpt>
      <trkpt lat="48.60732" lon="2.02418">
        <ele>108.2</ele>
        <time>2025-11-16T10:12:08Z</time>
      </trkpt>
      <trkpt lat="48.60732" lon="2.02415">
        <ele>108.2</ele>
        <time>2025-11-16T10:12:10Z</time>
      </trkpt>
      <trkpt lat="48.6073" lon="2.02412">
        <ele>108.2</ele>
        <time>2025-11-16T10:12:12Z</time>
      </trkpt>
      <trkpt lat="48.60728" lon="2.02407">
        <ele>108.2</ele>
        <time>2025-11-16T10:12:14Z</time>
      </trkpt>
      <trkpt lat="48.60727" lon="2.02404">
        <ele>108.2</ele>
        <time>2025-11-16T10:12:15Z</time>
      </trkpt>
      <trkpt lat="48.60726" lon="2.02402">
        <ele>108.2</ele>
        <time>2025-11-16T10:12:16Z</time>
      </trkpt>
      <trkpt lat="48.60725" lon="2.02399">
        <ele>108.2</ele>
        <time>2025-11-16T10:12:17Z</time>
      </trkpt>
      <trkpt lat="48.60724" lon="2.02396">
        <ele>108</ele>
        <time>2025-11-16T10:12:18Z</time>
      </trkpt>
      <trkpt lat="48.60722" lon="2.02392">
        <ele>108</ele>
        <time>2025-11-16T10:12:20Z</time>
      </trkpt>
      <trkpt lat="48.60721" lon="2.02389">
        <ele>107.8</ele>
        <time>2025-11-16T10:12:22Z</time>
      </trkpt>
      <trkpt lat="48.6072" lon="2.02386">
        <ele>107.6</ele>
        <time>2025-11-16T10:12:25Z</time>
      </trkpt>
      <trkpt lat="48.60718" lon="2.02383">
        <ele>107.4</ele>
        <time>2025-11-16T10:12:27Z</time>
      </trkpt>
      <trkpt lat="48.60717" lon="2.0238">
        <ele>107.4</ele>
        <time>2025-11-16T10:12:29Z</time>
      </trkpt>
      <trkpt lat="48.60716" lon="2.02377">
        <ele>107.2</ele>
        <time>2025-11-16T10:12:31Z</time>
      </trkpt>
      <trkpt lat="48.60715" lon="2.02373">
        <ele>107.4</ele>
        <time>2025-11-16T10:12:33Z</time>
      </trkpt>
      <trkpt lat="48.60713" lon="2.02368">
        <ele>107.6</ele>
        <time>2025-11-16T10:12:35Z</time>
      </trkpt>
      <trkpt lat="48.60712" lon="2.02364">
        <ele>107.8</ele>
        <time>2025-11-16T10:12:37Z</time>
      </trkpt>
      <trkpt lat="48.6071" lon="2.02361">
        <ele>107.8</ele>
        <time>2025-11-16T10:12:39Z</time>
      </trkpt>
      <trkpt lat="48.60709" lon="2.02358">
        <ele>108</ele>
        <time>2025-11-16T10:12:41Z</time>
      </trkpt>
      <trkpt lat="48.60708" lon="2.02355">
        <ele>108.2</ele>
        <time>2025-11-16T10:12:43Z</time>
      </trkpt>
      <trkpt lat="48.60707" lon="2.02351">
        <ele>108.2</ele>
        <time>2025-11-16T10:12:45Z</time>
      </trkpt>
      <trkpt lat="48.60706" lon="2.02346">
        <ele>108.4</ele>
        <time>2025-11-16T10:12:47Z</time>
      </trkpt>
      <trkpt lat="48.60704" lon="2.02344">
        <ele>108.4</ele>
        <time>2025-11-16T10:12:48Z</time>
      </trkpt>
      <trkpt lat="48.60702" lon="2.0234">
        <ele>108.4</ele>
        <time>2025-11-16T10:12:50Z</time>
      </trkpt>
      <trkpt lat="48.607" lon="2.02336">
        <ele>108.6</ele>
        <time>2025-11-16T10:12:52Z</time>
      </trkpt>
      <trkpt lat="48.60699" lon="2.02331">
        <ele>109</ele>
        <time>2025-11-16T10:12:54Z</time>
      </trkpt>
      <trkpt lat="48.60698" lon="2.02329">
        <ele>109</ele>
        <time>2025-11-16T10:12:55Z</time>
      </trkpt>
      <trkpt lat="48.60697" lon="2.02326">
        <ele>109.2</ele>
        <time>2025-11-16T10:12:56Z</time>
      </trkpt>
      <trkpt lat="48.60696" lon="2.02324">
        <ele>109.2</ele>
        <time>2025-11-16T10:12:57Z</time>
      </trkpt>
      <trkpt lat="48.60694" lon="2.02321">
        <ele>109.2</ele>
        <time>2025-11-16T10:12:58Z</time>
      </trkpt>
      <trkpt lat="48.60693" lon="2.02318">
        <ele>109.4</ele>
        <time>2025-11-16T10:12:59Z</time>
      </trkpt>
      <trkpt lat="48.60692" lon="2.02315">
        <ele>109.4</ele>
        <time>2025-11-16T10:13:00Z</time>
      </trkpt>
      <trkpt lat="48.60692" lon="2.02313">
        <ele>109.4</ele>
        <time>2025-11-16T10:13:01Z</time>
      </trkpt>
      <trkpt lat="48.6069" lon="2.0231">
        <ele>109.4</ele>
        <time>2025-11-16T10:13:02Z</time>
      </trkpt>
      <trkpt lat="48.60689" lon="2.02306">
        <ele>109.2</ele>
        <time>2025-11-16T10:13:04Z</time>
      </trkpt>
      <trkpt lat="48.60688" lon="2.02302">
        <ele>109.2</ele>
        <time>2025-11-16T10:13:06Z</time>
      </trkpt>
      <trkpt lat="48.60687" lon="2.02299">
        <ele>109.2</ele>
        <time>2025-11-16T10:13:08Z</time>
      </trkpt>
      <trkpt lat="48.60686" lon="2.02296">
        <ele>109.4</ele>
        <time>2025-11-16T10:13:11Z</time>
      </trkpt>
      <trkpt lat="48.60684" lon="2.02293">
        <ele>109.4</ele>
        <time>2025-11-16T10:13:13Z</time>
      </trkpt>
      <trkpt lat="48.60683" lon="2.02289">
        <ele>109.4</ele>
        <time>2025-11-16T10:13:15Z</time>
      </trkpt>
      <trkpt lat="48.60682" lon="2.02287">
        <ele>109.6</ele>
        <time>2025-11-16T10:13:16Z</time>
      </trkpt>
      <trkpt lat="48.6068" lon="2.02283">
        <ele>109.6</ele>
        <time>2025-11-16T10:13:18Z</time>
      </trkpt>
      <trkpt lat="48.60678" lon="2.02278">
        <ele>109.8</ele>
        <time>2025-11-16T10:13:20Z</time>
      </trkpt>
      <trkpt lat="48.60676" lon="2.02274">
        <ele>109.8</ele>
        <time>2025-11-16T10:13:22Z</time>
      </trkpt>
      <trkpt lat="48.60675" lon="2.0227">
        <ele>109.8</ele>
        <time>2025-11-16T10:13:24Z</time>
      </trkpt>
      <trkpt lat="48.60673" lon="2.02267">
        <ele>110</ele>
        <time>2025-11-16T10:13:26Z</time>
      </trkpt>
      <trkpt lat="48.60671" lon="2.02263">
        <ele>110.2</ele>
        <time>2025-11-16T10:13:28Z</time>
      </trkpt>
      <trkpt lat="48.6067" lon="2.0226">
        <ele>110.4</ele>
        <time>2025-11-16T10:13:30Z</time>
      </trkpt>
      <trkpt lat="48.60668" lon="2.02257">
        <ele>110.8</ele>
        <time>2025-11-16T10:13:32Z</time>
      </trkpt>
      <trkpt lat="48.60666" lon="2.02255">
        <ele>111</ele>
        <time>2025-11-16T10:13:34Z</time>
      </trkpt>
      <trkpt lat="48.60664" lon="2.02251">
        <ele>111</ele>
        <time>2025-11-16T10:13:36Z</time>
      </trkpt>
      <trkpt lat="48.60663" lon="2.02249">
        <ele>111</ele>
        <time>2025-11-16T10:13:37Z</time>
      </trkpt>
      <trkpt lat="48.6066" lon="2.02245">
        <ele>111</ele>
        <time>2025-11-16T10:13:39Z</time>
      </trkpt>
      <trkpt lat="48.60659" lon="2.02242">
        <ele>110.8</ele>
        <time>2025-11-16T10:13:41Z</time>
      </trkpt>
      <trkpt lat="48.60657" lon="2.02238">
        <ele>110.8</ele>
        <time>2025-11-16T10:13:43Z</time>
      </trkpt>
      <trkpt lat="48.60656" lon="2.02235">
        <ele>110.8</ele>
        <time>2025-11-16T10:13:45Z</time>
      </trkpt>
      <trkpt lat="48.60654" lon="2.02231">
        <ele>111</ele>
        <time>2025-11-16T10:13:47Z</time>
      </trkpt>
      <trkpt lat="48.60652" lon="2.02227">
        <ele>111.2</ele>
        <time>2025-11-16T10:13:49Z</time>
      </trkpt>
      <trkpt lat="48.60651" lon="2.02224">
        <ele>111.2</ele>
        <time>2025-11-16T10:13:51Z</time>
      </trkpt>
      <trkpt lat="48.6065" lon="2.02221">
        <ele>111.4</ele>
        <time>2025-11-16T10:13:53Z</time>
      </trkpt>
      <trkpt lat="48.60648" lon="2.02217">
        <ele>111.4</ele>
        <time>2025-11-16T10:13:55Z</time>
      </trkpt>
      <trkpt lat="48.60646" lon="2.02213">
        <ele>111.6</ele>
        <time>2025-11-16T10:13:57Z</time>
      </trkpt>
      <trkpt lat="48.60644" lon="2.0221">
        <ele>111.6</ele>
        <time>2025-11-16T10:13:59Z</time>
      </trkpt>
      <trkpt lat="48.60643" lon="2.02206">
        <ele>111.8</ele>
        <time>2025-11-16T10:14:01Z</time>
      </trkpt>
      <trkpt lat="48.60641" lon="2.02202">
        <ele>111.8</ele>
        <time>2025-11-16T10:14:03Z</time>
      </trkpt>
      <trkpt lat="48.6064" lon="2.02198">
        <ele>112</ele>
        <time>2025-11-16T10:14:05Z</time>
      </trkpt>
      <trkpt lat="48.60638" lon="2.02195">
        <ele>111.8</ele>
        <time>2025-11-16T10:14:07Z</time>
      </trkpt>
      <trkpt lat="48.60637" lon="2.02192">
        <ele>111.8</ele>
        <time>2025-11-16T10:14:09Z</time>
      </trkpt>
      <trkpt lat="48.60636" lon="2.0219">
        <ele>111.6</ele>
        <time>2025-11-16T10:14:11Z</time>
      </trkpt>
      <trkpt lat="48.60636" lon="2.02187">
        <ele>111.6</ele>
        <time>2025-11-16T10:14:13Z</time>
      </trkpt>
      <trkpt lat="48.60634" lon="2.02184">
        <ele>111.6</ele>
        <time>2025-11-16T10:14:15Z</time>
      </trkpt>
      <trkpt lat="48.60632" lon="2.02181">
        <ele>111.8</ele>
        <time>2025-11-16T10:14:17Z</time>
      </trkpt>
      <trkpt lat="48.60631" lon="2.02179">
        <ele>111.8</ele>
        <time>2025-11-16T10:14:19Z</time>
      </trkpt>
      <trkpt lat="48.6063" lon="2.02176">
        <ele>112</ele>
        <time>2025-11-16T10:14:21Z</time>
      </trkpt>
      <trkpt lat="48.60628" lon="2.02173">
        <ele>112</ele>
        <time>2025-11-16T10:14:23Z</time>
      </trkpt>
      <trkpt lat="48.60627" lon="2.02169">
        <ele>112.2</ele>
        <time>2025-11-16T10:14:25Z</time>
      </trkpt>
      <trkpt lat="48.60624" lon="2.02164">
        <ele>112.4</ele>
        <time>2025-11-16T10:14:27Z</time>
      </trkpt>
      <trkpt lat="48.60623" lon="2.02162">
        <ele>112.4</ele>
        <time>2025-11-16T10:14:28Z</time>
      </trkpt>
      <trkpt lat="48.60621" lon="2.02158">
        <ele>112.4</ele>
        <time>2025-11-16T10:14:30Z</time>
      </trkpt>
      <trkpt lat="48.60619" lon="2.02154">
        <ele>112.4</ele>
        <time>2025-11-16T10:14:32Z</time>
      </trkpt>
      <trkpt lat="48.60617" lon="2.0215">
        <ele>112.6</ele>
        <time>2025-11-16T10:14:34Z</time>
      </trkpt>
      <trkpt lat="48.60615" lon="2.02147">
        <ele>112.6</ele>
        <time>2025-11-16T10:14:36Z</time>
      </trkpt>
      <trkpt lat="48.60614" lon="2.02144">
        <ele>113</ele>
        <time>2025-11-16T10:14:38Z</time>
      </trkpt>
      <trkpt lat="48.60612" lon="2.02141">
        <ele>113.2</ele>
        <time>2025-11-16T10:14:40Z</time>
      </trkpt>
      <trkpt lat="48.60611" lon="2.02138">
        <ele>113.4</ele>
        <time>2025-11-16T10:14:42Z</time>
      </trkpt>
      <trkpt lat="48.60609" lon="2.02135">
        <ele>113.6</ele>
        <time>2025-11-16T10:14:44Z</time>
      </trkpt>
      <trkpt lat="48.60607" lon="2.02132">
        <ele>113.8</ele>
        <time>2025-11-16T10:14:46Z</time>
      </trkpt>
      <trkpt lat="48.60606" lon="2.02129">
        <ele>114</ele>
        <time>2025-11-16T10:14:48Z</time>
      </trkpt>
      <trkpt lat="48.60604" lon="2.02126">
        <ele>114.2</ele>
        <time>2025-11-16T10:14:50Z</time>
      </trkpt>
      <trkpt lat="48.60603" lon="2.02124">
        <ele>114.6</ele>
        <time>2025-11-16T10:14:52Z</time>
      </trkpt>
      <trkpt lat="48.60601" lon="2.02121">
        <ele>114.8</ele>
        <time>2025-11-16T10:14:54Z</time>
      </trkpt>
      <trkpt lat="48.606" lon="2.02118">
        <ele>115</ele>
        <time>2025-11-16T10:14:56Z</time>
      </trkpt>
      <trkpt lat="48.60599" lon="2.02115">
        <ele>115.2</ele>
        <time>2025-11-16T10:14:58Z</time>
      </trkpt>
      <trkpt lat="48.60597" lon="2.02111">
        <ele>115.6</ele>
        <time>2025-11-16T10:15:00Z</time>
      </trkpt>
      <trkpt lat="48.60596" lon="2.02108">
        <ele>115.8</ele>
        <time>2025-11-16T10:15:02Z</time>
      </trkpt>
      <trkpt lat="48.60595" lon="2.02105">
        <ele>116</ele>
        <time>2025-11-16T10:15:04Z</time>
      </trkpt>
      <trkpt lat="48.60593" lon="2.02101">
        <ele>116</ele>
        <time>2025-11-16T10:15:06Z</time>
      </trkpt>
      <trkpt lat="48.60591" lon="2.02098">
        <ele>116.2</ele>
        <time>2025-11-16T10:15:08Z</time>
      </trkpt>
      <trkpt lat="48.60588" lon="2.02095">
        <ele>116.4</ele>
        <time>2025-11-16T10:15:10Z</time>
      </trkpt>
      <trkpt lat="48.60587" lon="2.02093">
        <ele>116.4</ele>
        <time>2025-11-16T10:15:11Z</time>
      </trkpt>
      <trkpt lat="48.60585" lon="2.02091">
        <ele>116.6</ele>
        <time>2025-11-16T10:15:12Z</time>
      </trkpt>
      <trkpt lat="48.60584" lon="2.02089">
        <ele>116.6</ele>
        <time>2025-11-16T10:15:13Z</time>
      </trkpt>
      <trkpt lat="48.60582" lon="2.02087">
        <ele>116.6</ele>
        <time>2025-11-16T10:15:14Z</time>
      </trkpt>
      <trkpt lat="48.60581" lon="2.02085">
        <ele>116.6</ele>
        <time>2025-11-16T10:15:15Z</time>
      </trkpt>
      <trkpt lat="48.60579" lon="2.02083">
        <ele>116.6</ele>
        <time>2025-11-16T10:15:16Z</time>
      </trkpt>
      <trkpt lat="48.60577" lon="2.02079">
        <ele>116.6</ele>
        <time>2025-11-16T10:15:18Z</time>
      </trkpt>
      <trkpt lat="48.60575" lon="2.02076">
        <ele>116.8</ele>
        <time>2025-11-16T10:15:20Z</time>
      </trkpt>
      <trkpt lat="48.60572" lon="2.02072">
        <ele>117</ele>
        <time>2025-11-16T10:15:22Z</time>
      </trkpt>
      <trkpt lat="48.60571" lon="2.0207">
        <ele>117</ele>
        <time>2025-11-16T10:15:23Z</time>
      </trkpt>
      <trkpt lat="48.60569" lon="2.02069">
        <ele>117.2</ele>
        <time>2025-11-16T10:15:24Z</time>
      </trkpt>
      <trkpt lat="48.60567" lon="2.02065">
        <ele>117.4</ele>
        <time>2025-11-16T10:15:26Z</time>
      </trkpt>
      <trkpt lat="48.60565" lon="2.02064">
        <ele>117.6</ele>
        <time>2025-11-16T10:15:27Z</time>
      </trkpt>
      <trkpt lat="48.60563" lon="2.02061">
        <ele>117.8</ele>
        <time>2025-11-16T10:15:29Z</time>
      </trkpt>
      <trkpt lat="48.60561" lon="2.02059">
        <ele>118.2</ele>
        <time>2025-11-16T10:15:31Z</time>
      </trkpt>
      <trkpt lat="48.60559" lon="2.02057">
        <ele>118.4</ele>
        <time>2025-11-16T10:15:33Z</time>
      </trkpt>
      <trkpt lat="48.60557" lon="2.02055">
        <ele>118.8</ele>
        <time>2025-11-16T10:15:36Z</time>
      </trkpt>
      <trkpt lat="48.60555" lon="2.02054">
        <ele>119</ele>
        <time>2025-11-16T10:15:38Z</time>
      </trkpt>
      <trkpt lat="48.60553" lon="2.02052">
        <ele>119.6</ele>
        <time>2025-11-16T10:15:40Z</time>
      </trkpt>
      <trkpt lat="48.60551" lon="2.02051">
        <ele>119.8</ele>
        <time>2025-11-16T10:15:42Z</time>
      </trkpt>
      <trkpt lat="48.60549" lon="2.0205">
        <ele>119.8</ele>
        <time>2025-11-16T10:15:44Z</time>
      </trkpt>
      <trkpt lat="48.60546" lon="2.02049">
        <ele>119.8</ele>
        <time>2025-11-16T10:15:46Z</time>
      </trkpt>
      <trkpt lat="48.60543" lon="2.02047">
        <ele>120</ele>
        <time>2025-11-16T10:15:48Z</time>
      </trkpt>
      <trkpt lat="48.6054" lon="2.02045">
        <ele>120.2</ele>
        <time>2025-11-16T10:15:50Z</time>
      </trkpt>
      <trkpt lat="48.60537" lon="2.02044">
        <ele>120.4</ele>
        <time>2025-11-16T10:15:52Z</time>
      </trkpt>
      <trkpt lat="48.60535" lon="2.02042">
        <ele>120.6</ele>
        <time>2025-11-16T10:15:54Z</time>
      </trkpt>
      <trkpt lat="48.60533" lon="2.02039">
        <ele>120.8</ele>
        <time>2025-11-16T10:15:56Z</time>
      </trkpt>
      <trkpt lat="48.60531" lon="2.02038">
        <ele>121</ele>
        <time>2025-11-16T10:15:57Z</time>
      </trkpt>
      <trkpt lat="48.60529" lon="2.02035">
        <ele>121.4</ele>
        <time>2025-11-16T10:15:59Z</time>
      </trkpt>
      <trkpt lat="48.60527" lon="2.02033">
        <ele>121.4</ele>
        <time>2025-11-16T10:16:00Z</time>
      </trkpt>
      <trkpt lat="48.60524" lon="2.0203">
        <ele>121.6</ele>
        <time>2025-11-16T10:16:02Z</time>
      </trkpt>
      <trkpt lat="48.60522" lon="2.02027">
        <ele>121.6</ele>
        <time>2025-11-16T10:16:04Z</time>
      </trkpt>
      <trkpt lat="48.6052" lon="2.02025">
        <ele>121.8</ele>
        <time>2025-11-16T10:16:06Z</time>
      </trkpt>
      <trkpt lat="48.60517" lon="2.02022">
        <ele>121.8</ele>
        <time>2025-11-16T10:16:08Z</time>
      </trkpt>
      <trkpt lat="48.60516" lon="2.02019">
        <ele>122.2</ele>
        <time>2025-11-16T10:16:10Z</time>
      </trkpt>
      <trkpt lat="48.60514" lon="2.02017">
        <ele>122.4</ele>
        <time>2025-11-16T10:16:12Z</time>
      </trkpt>
      <trkpt lat="48.60512" lon="2.02015">
        <ele>122.4</ele>
        <time>2025-11-16T10:16:14Z</time>
      </trkpt>
      <trkpt lat="48.60509" lon="2.02013">
        <ele>122.6</ele>
        <time>2025-11-16T10:16:16Z</time>
      </trkpt>
      <trkpt lat="48.60507" lon="2.0201">
        <ele>122.6</ele>
        <time>2025-11-16T10:16:18Z</time>
      </trkpt>
      <trkpt lat="48.60505" lon="2.02007">
        <ele>122.6</ele>
        <time>2025-11-16T10:16:20Z</time>
      </trkpt>
      <trkpt lat="48.60503" lon="2.02005">
        <ele>122.6</ele>
        <time>2025-11-16T10:16:22Z</time>
      </trkpt>
      <trkpt lat="48.60501" lon="2.02002">
        <ele>122.8</ele>
        <time>2025-11-16T10:16:24Z</time>
      </trkpt>
      <trkpt lat="48.605" lon="2.01999">
        <ele>122.8</ele>
        <time>2025-11-16T10:16:26Z</time>
      </trkpt>
      <trkpt lat="48.60498" lon="2.01995">
        <ele>122.8</ele>
        <time>2025-11-16T10:16:28Z</time>
      </trkpt>
      <trkpt lat="48.60495" lon="2.01992">
        <ele>122.6</ele>
        <time>2025-11-16T10:16:30Z</time>
      </trkpt>
      <trkpt lat="48.60493" lon="2.01989">
        <ele>122.4</ele>
        <time>2025-11-16T10:16:32Z</time>
      </trkpt>
      <trkpt lat="48.60491" lon="2.01986">
        <ele>122.2</ele>
        <time>2025-11-16T10:16:34Z</time>
      </trkpt>
      <trkpt lat="48.60489" lon="2.01985">
        <ele>122.2</ele>
        <time>2025-11-16T10:16:35Z</time>
      </trkpt>
      <trkpt lat="48.60486" lon="2.01982">
        <ele>121.8</ele>
        <time>2025-11-16T10:16:37Z</time>
      </trkpt>
      <trkpt lat="48.60484" lon="2.01979">
        <ele>121.6</ele>
        <time>2025-11-16T10:16:39Z</time>
      </trkpt>
      <trkpt lat="48.60481" lon="2.01976">
        <ele>121.6</ele>
        <time>2025-11-16T10:16:41Z</time>
      </trkpt>
      <trkpt lat="48.60479" lon="2.01972">
        <ele>121.4</ele>
        <time>2025-11-16T10:16:43Z</time>
      </trkpt>
      <trkpt lat="48.60476" lon="2.01969">
        <ele>121.2</ele>
        <time>2025-11-16T10:16:45Z</time>
      </trkpt>
      <trkpt lat="48.60474" lon="2.01966">
        <ele>121.2</ele>
        <time>2025-11-16T10:16:47Z</time>
      </trkpt>
      <trkpt lat="48.60471" lon="2.01963">
        <ele>121</ele>
        <time>2025-11-16T10:16:49Z</time>
      </trkpt>
      <trkpt lat="48.60469" lon="2.0196">
        <ele>120.6</ele>
        <time>2025-11-16T10:16:51Z</time>
      </trkpt>
      <trkpt lat="48.60466" lon="2.01957">
        <ele>120.2</ele>
        <time>2025-11-16T10:16:53Z</time>
      </trkpt>
      <trkpt lat="48.60464" lon="2.01954">
        <ele>119.8</ele>
        <time>2025-11-16T10:16:55Z</time>
      </trkpt>
      <trkpt lat="48.60462" lon="2.01952">
        <ele>119.6</ele>
        <time>2025-11-16T10:16:56Z</time>
      </trkpt>
      <trkpt lat="48.6046" lon="2.0195">
        <ele>119.4</ele>
        <time>2025-11-16T10:16:58Z</time>
      </trkpt>
      <trkpt lat="48.60458" lon="2.01948">
        <ele>119</ele>
        <time>2025-11-16T10:17:00Z</time>
      </trkpt>
      <trkpt lat="48.60456" lon="2.01945">
        <ele>118.8</ele>
        <time>2025-11-16T10:17:02Z</time>
      </trkpt>
      <trkpt lat="48.60453" lon="2.01943">
        <ele>118.6</ele>
        <time>2025-11-16T10:17:04Z</time>
      </trkpt>
      <trkpt lat="48.60451" lon="2.0194">
        <ele>118.4</ele>
        <time>2025-11-16T10:17:06Z</time>
      </trkpt>
      <trkpt lat="48.60448" lon="2.01938">
        <ele>118.2</ele>
        <time>2025-11-16T10:17:08Z</time>
      </trkpt>
      <trkpt lat="48.60446" lon="2.01936">
        <ele>118</ele>
        <time>2025-11-16T10:17:09Z</time>
      </trkpt>
      <trkpt lat="48.60444" lon="2.01933">
        <ele>117.8</ele>
        <time>2025-11-16T10:17:11Z</time>
      </trkpt>
      <trkpt lat="48.60442" lon="2.0193">
        <ele>117.6</ele>
        <time>2025-11-16T10:17:13Z</time>
      </trkpt>
      <trkpt lat="48.60439" lon="2.01927">
        <ele>117.4</ele>
        <time>2025-11-16T10:17:15Z</time>
      </trkpt>
      <trkpt lat="48.60436" lon="2.01924">
        <ele>117.4</ele>
        <time>2025-11-16T10:17:17Z</time>
      </trkpt>
      <trkpt lat="48.60434" lon="2.01922">
        <ele>117.4</ele>
        <time>2025-11-16T10:17:19Z</time>
      </trkpt>
      <trkpt lat="48.60431" lon="2.0192">
        <ele>117.4</ele>
        <time>2025-11-16T10:17:21Z</time>
      </trkpt>
      <trkpt lat="48.60428" lon="2.01918">
        <ele>117.4</ele>
        <time>2025-11-16T10:17:23Z</time>
      </trkpt>
      <trkpt lat="48.60425" lon="2.01915">
        <ele>117.2</ele>
        <time>2025-11-16T10:17:25Z</time>
      </trkpt>
      <trkpt lat="48.60423" lon="2.01914">
        <ele>117.2</ele>
        <time>2025-11-16T10:17:26Z</time>
      </trkpt>
      <trkpt lat="48.60422" lon="2.01912">
        <ele>117</ele>
        <time>2025-11-16T10:17:27Z</time>
      </trkpt>
      <trkpt lat="48.6042" lon="2.01911">
        <ele>117</ele>
        <time>2025-11-16T10:17:28Z</time>
      </trkpt>
      <trkpt lat="48.60418" lon="2.01908">
        <ele>116.8</ele>
        <time>2025-11-16T10:17:30Z</time>
      </trkpt>
      <trkpt lat="48.60416" lon="2.01905">
        <ele>116.8</ele>
        <time>2025-11-16T10:17:32Z</time>
      </trkpt>
      <trkpt lat="48.60413" lon="2.01903">
        <ele>116.6</ele>
        <time>2025-11-16T10:17:34Z</time>
      </trkpt>
      <trkpt lat="48.60412" lon="2.01901">
        <ele>116.6</ele>
        <time>2025-11-16T10:17:35Z</time>
      </trkpt>
      <trkpt lat="48.6041" lon="2.019">
        <ele>116.8</ele>
        <time>2025-11-16T10:17:36Z</time>
      </trkpt>
      <trkpt lat="48.60408" lon="2.01898">
        <ele>116.6</ele>
        <time>2025-11-16T10:17:38Z</time>
      </trkpt>
      <trkpt lat="48.60405" lon="2.01895">
        <ele>116.4</ele>
        <time>2025-11-16T10:17:40Z</time>
      </trkpt>
      <trkpt lat="48.60403" lon="2.01892">
        <ele>116.2</ele>
        <time>2025-11-16T10:17:42Z</time>
      </trkpt>
      <trkpt lat="48.604" lon="2.01889">
        <ele>116</ele>
        <time>2025-11-16T10:17:44Z</time>
      </trkpt>
      <trkpt lat="48.60399" lon="2.01887">
        <ele>115.8</ele>
        <time>2025-11-16T10:17:45Z</time>
      </trkpt>
      <trkpt lat="48.60396" lon="2.01885">
        <ele>115.8</ele>
        <time>2025-11-16T10:17:47Z</time>
      </trkpt>
      <trkpt lat="48.60395" lon="2.01882">
        <ele>115.8</ele>
        <time>2025-11-16T10:17:49Z</time>
      </trkpt>
      <trkpt lat="48.60393" lon="2.0188">
        <ele>115.8</ele>
        <time>2025-11-16T10:17:51Z</time>
      </trkpt>
      <trkpt lat="48.60391" lon="2.01877">
        <ele>115.8</ele>
        <time>2025-11-16T10:17:53Z</time>
      </trkpt>
      <trkpt lat="48.60388" lon="2.01874">
        <ele>115.8</ele>
        <time>2025-11-16T10:17:55Z</time>
      </trkpt>
      <trkpt lat="48.60387" lon="2.01871">
        <ele>116</ele>
        <time>2025-11-16T10:17:57Z</time>
      </trkpt>
      <trkpt lat="48.60385" lon="2.01868">
        <ele>116.2</ele>
        <time>2025-11-16T10:17:59Z</time>
      </trkpt>
      <trkpt lat="48.60383" lon="2.01865">
        <ele>116.4</ele>
        <time>2025-11-16T10:18:01Z</time>
      </trkpt>
      <trkpt lat="48.6038" lon="2.01862">
        <ele>116.6</ele>
        <time>2025-11-16T10:18:03Z</time>
      </trkpt>
      <trkpt lat="48.60379" lon="2.01859">
        <ele>116.8</ele>
        <time>2025-11-16T10:18:05Z</time>
      </trkpt>
      <trkpt lat="48.60377" lon="2.01855">
        <ele>117.2</ele>
        <time>2025-11-16T10:18:07Z</time>
      </trkpt>
      <trkpt lat="48.60375" lon="2.01851">
        <ele>117.6</ele>
        <time>2025-11-16T10:18:09Z</time>
      </trkpt>
      <trkpt lat="48.60374" lon="2.01847">
        <ele>117.8</ele>
        <time>2025-11-16T10:18:11Z</time>
      </trkpt>
      <trkpt lat="48.60372" lon="2.01844">
        <ele>118</ele>
        <time>2025-11-16T10:18:13Z</time>
      </trkpt>
      <trkpt lat="48.60371" lon="2.01841">
        <ele>118</ele>
        <time>2025-11-16T10:18:15Z</time>
      </trkpt>
      <trkpt lat="48.6037" lon="2.01838">
        <ele>118.2</ele>
        <time>2025-11-16T10:18:17Z</time>
      </trkpt>
      <trkpt lat="48.60368" lon="2.01835">
        <ele>118.2</ele>
        <time>2025-11-16T10:18:19Z</time>
      </trkpt>
      <trkpt lat="48.60367" lon="2.01832">
        <ele>118.4</ele>
        <time>2025-11-16T10:18:21Z</time>
      </trkpt>
      <trkpt lat="48.60365" lon="2.01829">
        <ele>118.6</ele>
        <time>2025-11-16T10:18:23Z</time>
      </trkpt>
      <trkpt lat="48.60364" lon="2.01826">
        <ele>118.8</ele>
        <time>2025-11-16T10:18:25Z</time>
      </trkpt>
      <trkpt lat="48.60363" lon="2.01824">
        <ele>119</ele>
        <time>2025-11-16T10:18:27Z</time>
      </trkpt>
      <trkpt lat="48.60361" lon="2.0182">
        <ele>119.2</ele>
        <time>2025-11-16T10:18:29Z</time>
      </trkpt>
      <trkpt lat="48.60359" lon="2.01816">
        <ele>119.2</ele>
        <time>2025-11-16T10:18:31Z</time>
      </trkpt>
      <trkpt lat="48.60357" lon="2.01811">
        <ele>119.4</ele>
        <time>2025-11-16T10:18:33Z</time>
      </trkpt>
      <trkpt lat="48.60356" lon="2.01809">
        <ele>119.6</ele>
        <time>2025-11-16T10:18:34Z</time>
      </trkpt>
      <trkpt lat="48.60355" lon="2.01804">
        <ele>119.6</ele>
        <time>2025-11-16T10:18:36Z</time>
      </trkpt>
      <trkpt lat="48.60354" lon="2.018">
        <ele>119.6</ele>
        <time>2025-11-16T10:18:38Z</time>
      </trkpt>
      <trkpt lat="48.60354" lon="2.01796">
        <ele>119.8</ele>
        <time>2025-11-16T10:18:40Z</time>
      </trkpt>
      <trkpt lat="48.60353" lon="2.01792">
        <ele>120</ele>
        <time>2025-11-16T10:18:42Z</time>
      </trkpt>
      <trkpt lat="48.60352" lon="2.01788">
        <ele>120.2</ele>
        <time>2025-11-16T10:18:44Z</time>
      </trkpt>
      <trkpt lat="48.60351" lon="2.01783">
        <ele>120</ele>
        <time>2025-11-16T10:18:46Z</time>
      </trkpt>
      <trkpt lat="48.6035" lon="2.01778">
        <ele>120</ele>
        <time>2025-11-16T10:18:48Z</time>
      </trkpt>
      <trkpt lat="48.60348" lon="2.01773">
        <ele>119.8</ele>
        <time>2025-11-16T10:18:50Z</time>
      </trkpt>
      <trkpt lat="48.60348" lon="2.01768">
        <ele>119.6</ele>
        <time>2025-11-16T10:18:52Z</time>
      </trkpt>
      <trkpt lat="48.60347" lon="2.01763">
        <ele>119.6</ele>
        <time>2025-11-16T10:18:54Z</time>
      </trkpt>
      <trkpt lat="48.60346" lon="2.01761">
        <ele>119.6</ele>
        <time>2025-11-16T10:18:55Z</time>
      </trkpt>
      <trkpt lat="48.60345" lon="2.01755">
        <ele>119.6</ele>
        <time>2025-11-16T10:18:57Z</time>
      </trkpt>
      <trkpt lat="48.60344" lon="2.01751">
        <ele>119.8</ele>
        <time>2025-11-16T10:18:59Z</time>
      </trkpt>
      <trkpt lat="48.60342" lon="2.01746">
        <ele>120</ele>
        <time>2025-11-16T10:19:01Z</time>
      </trkpt>
      <trkpt lat="48.6034" lon="2.01744">
        <ele>120</ele>
        <time>2025-11-16T10:19:02Z</time>
      </trkpt>
      <trkpt lat="48.60339" lon="2.01741">
        <ele>120.2</ele>
        <time>2025-11-16T10:19:04Z</time>
      </trkpt>
      <trkpt lat="48.60337" lon="2.01738">
        <ele>120.4</ele>
        <time>2025-11-16T10:19:06Z</time>
      </trkpt>
      <trkpt lat="48.60335" lon="2.01735">
        <ele>120.6</ele>
        <time>2025-11-16T10:19:08Z</time>
      </trkpt>
      <trkpt lat="48.60332" lon="2.01731">
        <ele>120.6</ele>
        <time>2025-11-16T10:19:10Z</time>
      </trkpt>
      <trkpt lat="48.60329" lon="2.01728">
        <ele>120.8</ele>
        <time>2025-11-16T10:19:12Z</time>
      </trkpt>
      <trkpt lat="48.60326" lon="2.01725">
        <ele>120.8</ele>
        <time>2025-11-16T10:19:14Z</time>
      </trkpt>
      <trkpt lat="48.60325" lon="2.01723">
        <ele>120.8</ele>
        <time>2025-11-16T10:19:15Z</time>
      </trkpt>
      <trkpt lat="48.60323" lon="2.01721">
        <ele>120.8</ele>
        <time>2025-11-16T10:19:16Z</time>
      </trkpt>
      <trkpt lat="48.60321" lon="2.01717">
        <ele>120.8</ele>
        <time>2025-11-16T10:19:18Z</time>
      </trkpt>
      <trkpt lat="48.60319" lon="2.01714">
        <ele>120.8</ele>
        <time>2025-11-16T10:19:20Z</time>
      </trkpt>
      <trkpt lat="48.60317" lon="2.0171">
        <ele>120.8</ele>
        <time>2025-11-16T10:19:22Z</time>
      </trkpt>
      <trkpt lat="48.60315" lon="2.01708">
        <ele>121</ele>
        <time>2025-11-16T10:19:24Z</time>
      </trkpt>
      <trkpt lat="48.60313" lon="2.01705">
        <ele>121</ele>
        <time>2025-11-16T10:19:26Z</time>
      </trkpt>
      <trkpt lat="48.6031" lon="2.01702">
        <ele>121.2</ele>
        <time>2025-11-16T10:19:28Z</time>
      </trkpt>
      <trkpt lat="48.60308" lon="2.01699">
        <ele>121.2</ele>
        <time>2025-11-16T10:19:30Z</time>
      </trkpt>
      <trkpt lat="48.60306" lon="2.01697">
        <ele>121.2</ele>
        <time>2025-11-16T10:19:32Z</time>
      </trkpt>
      <trkpt lat="48.60303" lon="2.01694">
        <ele>121</ele>
        <time>2025-11-16T10:19:34Z</time>
      </trkpt>
      <trkpt lat="48.60301" lon="2.01692">
        <ele>120.8</ele>
        <time>2025-11-16T10:19:36Z</time>
      </trkpt>
      <trkpt lat="48.60299" lon="2.0169">
        <ele>120.6</ele>
        <time>2025-11-16T10:19:38Z</time>
      </trkpt>
      <trkpt lat="48.60296" lon="2.01688">
        <ele>120.4</ele>
        <time>2025-11-16T10:19:40Z</time>
      </trkpt>
      <trkpt lat="48.60293" lon="2.01686">
        <ele>120.2</ele>
        <time>2025-11-16T10:19:42Z</time>
      </trkpt>
      <trkpt lat="48.60291" lon="2.01685">
        <ele>120</ele>
        <time>2025-11-16T10:19:44Z</time>
      </trkpt>
      <trkpt lat="48.60287" lon="2.01684">
        <ele>119.8</ele>
        <time>2025-11-16T10:19:46Z</time>
      </trkpt>
      <trkpt lat="48.60285" lon="2.01683">
        <ele>119.6</ele>
        <time>2025-11-16T10:19:48Z</time>
      </trkpt>
      <trkpt lat="48.60283" lon="2.01681">
        <ele>119.4</ele>
        <time>2025-11-16T10:19:50Z</time>
      </trkpt>
      <trkpt lat="48.6028" lon="2.0168">
        <ele>119.4</ele>
        <time>2025-11-16T10:19:52Z</time>
      </trkpt>
      <trkpt lat="48.60278" lon="2.01678">
        <ele>119.4</ele>
        <time>2025-11-16T10:19:54Z</time>
      </trkpt>
      <trkpt lat="48.60275" lon="2.01676">
        <ele>119.2</ele>
        <time>2025-11-16T10:19:56Z</time>
      </trkpt>
      <trkpt lat="48.60273" lon="2.01675">
        <ele>119.2</ele>
        <time>2025-11-16T10:19:58Z</time>
      </trkpt>
      <trkpt lat="48.60269" lon="2.01673">
        <ele>119.2</ele>
        <time>2025-11-16T10:20:00Z</time>
      </trkpt>
      <trkpt lat="48.60268" lon="2.01672">
        <ele>119.2</ele>
        <time>2025-11-16T10:20:01Z</time>
      </trkpt>
      <trkpt lat="48.60265" lon="2.01671">
        <ele>119.2</ele>
        <time>2025-11-16T10:20:02Z</time>
      </trkpt>
      <trkpt lat="48.60263" lon="2.01669">
        <ele>119</ele>
        <time>2025-11-16T10:20:03Z</time>
      </trkpt>
      <trkpt lat="48.6026" lon="2.01668">
        <ele>119</ele>
        <time>2025-11-16T10:20:04Z</time>
      </trkpt>
      <trkpt lat="48.60257" lon="2.01666">
        <ele>118.8</ele>
        <time>2025-11-16T10:20:05Z</time>
      </trkpt>
      <trkpt lat="48.60254" lon="2.01664">
        <ele>118.8</ele>
        <time>2025-11-16T10:20:06Z</time>
      </trkpt>
      <trkpt lat="48.60251" lon="2.01662">
        <ele>118.8</ele>
        <time>2025-11-16T10:20:07Z</time>
      </trkpt>
      <trkpt lat="48.60248" lon="2.0166">
        <ele>118.6</ele>
        <time>2025-11-16T10:20:08Z</time>
      </trkpt>
      <trkpt lat="48.60245" lon="2.01658">
        <ele>118.6</ele>
        <time>2025-11-16T10:20:09Z</time>
      </trkpt>
      <trkpt lat="48.60242" lon="2.01656">
        <ele>118.4</ele>
        <time>2025-11-16T10:20:10Z</time>
      </trkpt>
      <trkpt lat="48.60239" lon="2.01654">
        <ele>118.4</ele>
        <time>2025-11-16T10:20:11Z</time>
      </trkpt>
      <trkpt lat="48.60237" lon="2.01652">
        <ele>118.4</ele>
        <time>2025-11-16T10:20:12Z</time>
      </trkpt>
      <trkpt lat="48.60235" lon="2.0165">
        <ele>118.4</ele>
        <time>2025-11-16T10:20:13Z</time>
      </trkpt>
      <trkpt lat="48.60232" lon="2.01648">
        <ele>118.4</ele>
        <time>2025-11-16T10:20:14Z</time>
      </trkpt>
      <trkpt lat="48.60229" lon="2.01646">
        <ele>118.4</ele>
        <time>2025-11-16T10:20:15Z</time>
      </trkpt>
      <trkpt lat="48.60227" lon="2.01644">
        <ele>118.4</ele>
        <time>2025-11-16T10:20:16Z</time>
      </trkpt>
      <trkpt lat="48.60224" lon="2.01641">
        <ele>118.6</ele>
        <time>2025-11-16T10:20:17Z</time>
      </trkpt>
      <trkpt lat="48.60221" lon="2.01639">
        <ele>118.6</ele>
        <time>2025-11-16T10:20:18Z</time>
      </trkpt>
      <trkpt lat="48.60218" lon="2.01637">
        <ele>118.6</ele>
        <time>2025-11-16T10:20:19Z</time>
      </trkpt>
      <trkpt lat="48.60215" lon="2.01634">
        <ele>118.8</ele>
        <time>2025-11-16T10:20:20Z</time>
      </trkpt>
      <trkpt lat="48.60211" lon="2.01631">
        <ele>118.8</ele>
        <time>2025-11-16T10:20:21Z</time>
      </trkpt>
      <trkpt lat="48.60208" lon="2.01629">
        <ele>118.8</ele>
        <time>2025-11-16T10:20:22Z</time>
      </trkpt>
      <trkpt lat="48.60205" lon="2.01626">
        <ele>119</ele>
        <time>2025-11-16T10:20:23Z</time>
      </trkpt>
      <trkpt lat="48.60201" lon="2.01624">
        <ele>119</ele>
        <time>2025-11-16T10:20:24Z</time>
      </trkpt>
      <trkpt lat="48.60198" lon="2.01621">
        <ele>119</ele>
        <time>2025-11-16T10:20:25Z</time>
      </trkpt>
      <trkpt lat="48.60195" lon="2.01618">
        <ele>119</ele>
        <time>2025-11-16T10:20:26Z</time>
      </trkpt>
      <trkpt lat="48.60193" lon="2.01616">
        <ele>119</ele>
        <time>2025-11-16T10:20:27Z</time>
      </trkpt>
      <trkpt lat="48.6019" lon="2.01612">
        <ele>118.8</ele>
        <time>2025-11-16T10:20:28Z</time>
      </trkpt>
      <trkpt lat="48.60187" lon="2.01609">
        <ele>118.8</ele>
        <time>2025-11-16T10:20:29Z</time>
      </trkpt>
      <trkpt lat="48.60185" lon="2.01606">
        <ele>118.8</ele>
        <time>2025-11-16T10:20:30Z</time>
      </trkpt>
      <trkpt lat="48.60183" lon="2.01603">
        <ele>118.8</ele>
        <time>2025-11-16T10:20:31Z</time>
      </trkpt>
      <trkpt lat="48.60181" lon="2.016">
        <ele>118.8</ele>
        <time>2025-11-16T10:20:32Z</time>
      </trkpt>
      <trkpt lat="48.60179" lon="2.01597">
        <ele>118.8</ele>
        <time>2025-11-16T10:20:33Z</time>
      </trkpt>
      <trkpt lat="48.60177" lon="2.01594">
        <ele>118.8</ele>
        <time>2025-11-16T10:20:34Z</time>
      </trkpt>
      <trkpt lat="48.60175" lon="2.01592">
        <ele>119</ele>
        <time>2025-11-16T10:20:35Z</time>
      </trkpt>
      <trkpt lat="48.60172" lon="2.01589">
        <ele>119</ele>
        <time>2025-11-16T10:20:36Z</time>
      </trkpt>
      <trkpt lat="48.60169" lon="2.01586">
        <ele>119</ele>
        <time>2025-11-16T10:20:37Z</time>
      </trkpt>
      <trkpt lat="48.60166" lon="2.01584">
        <ele>119</ele>
        <time>2025-11-16T10:20:38Z</time>
      </trkpt>
      <trkpt lat="48.60164" lon="2.01581">
        <ele>119</ele>
        <time>2025-11-16T10:20:39Z</time>
      </trkpt>
      <trkpt lat="48.60161" lon="2.01579">
        <ele>119</ele>
        <time>2025-11-16T10:20:40Z</time>
      </trkpt>
      <trkpt lat="48.60158" lon="2.01576">
        <ele>119.2</ele>
        <time>2025-11-16T10:20:41Z</time>
      </trkpt>
      <trkpt lat="48.60156" lon="2.01573">
        <ele>119.2</ele>
        <time>2025-11-16T10:20:42Z</time>
      </trkpt>
      <trkpt lat="48.60153" lon="2.0157">
        <ele>119.2</ele>
        <time>2025-11-16T10:20:43Z</time>
      </trkpt>
      <trkpt lat="48.6015" lon="2.01566">
        <ele>119.2</ele>
        <time>2025-11-16T10:20:44Z</time>
      </trkpt>
      <trkpt lat="48.60148" lon="2.01563">
        <ele>119.2</ele>
        <time>2025-11-16T10:20:45Z</time>
      </trkpt>
      <trkpt lat="48.60145" lon="2.0156">
        <ele>119.2</ele>
        <time>2025-11-16T10:20:46Z</time>
      </trkpt>
      <trkpt lat="48.60142" lon="2.01557">
        <ele>119.2</ele>
        <time>2025-11-16T10:20:47Z</time>
      </trkpt>
      <trkpt lat="48.6014" lon="2.01554">
        <ele>119.2</ele>
        <time>2025-11-16T10:20:48Z</time>
      </trkpt>
      <trkpt lat="48.60137" lon="2.01551">
        <ele>119.2</ele>
        <time>2025-11-16T10:20:49Z</time>
      </trkpt>
      <trkpt lat="48.60135" lon="2.01548">
        <ele>119.2</ele>
        <time>2025-11-16T10:20:50Z</time>
      </trkpt>
      <trkpt lat="48.60132" lon="2.01545">
        <ele>119.2</ele>
        <time>2025-11-16T10:20:51Z</time>
      </trkpt>
      <trkpt lat="48.6013" lon="2.01543">
        <ele>119.4</ele>
        <time>2025-11-16T10:20:52Z</time>
      </trkpt>
      <trkpt lat="48.60128" lon="2.0154">
        <ele>119.4</ele>
        <time>2025-11-16T10:20:53Z</time>
      </trkpt>
      <trkpt lat="48.60126" lon="2.01537">
        <ele>119.4</ele>
        <time>2025-11-16T10:20:54Z</time>
      </trkpt>
      <trkpt lat="48.60124" lon="2.01535">
        <ele>119.6</ele>
        <time>2025-11-16T10:20:55Z</time>
      </trkpt>
      <trkpt lat="48.60122" lon="2.01533">
        <ele>119.6</ele>
        <time>2025-11-16T10:20:56Z</time>
      </trkpt>
      <trkpt lat="48.6012" lon="2.01531">
        <ele>119.6</ele>
        <time>2025-11-16T10:20:57Z</time>
      </trkpt>
      <trkpt lat="48.60117" lon="2.01528">
        <ele>119.6</ele>
        <time>2025-11-16T10:20:58Z</time>
      </trkpt>
      <trkpt lat="48.60114" lon="2.01525">
        <ele>119.8</ele>
        <time>2025-11-16T10:20:59Z</time>
      </trkpt>
      <trkpt lat="48.60111" lon="2.01523">
        <ele>119.8</ele>
        <time>2025-11-16T10:21:00Z</time>
      </trkpt>
      <trkpt lat="48.60108" lon="2.0152">
        <ele>119.8</ele>
        <time>2025-11-16T10:21:01Z</time>
      </trkpt>
      <trkpt lat="48.60106" lon="2.01517">
        <ele>119.8</ele>
        <time>2025-11-16T10:21:02Z</time>
      </trkpt>
      <trkpt lat="48.60103" lon="2.01514">
        <ele>119.8</ele>
        <time>2025-11-16T10:21:03Z</time>
      </trkpt>
      <trkpt lat="48.60101" lon="2.01512">
        <ele>119.8</ele>
        <time>2025-11-16T10:21:04Z</time>
      </trkpt>
      <trkpt lat="48.60099" lon="2.0151">
        <ele>119.8</ele>
        <time>2025-11-16T10:21:05Z</time>
      </trkpt>
      <trkpt lat="48.60097" lon="2.01508">
        <ele>119.8</ele>
        <time>2025-11-16T10:21:06Z</time>
      </trkpt>
      <trkpt lat="48.60094" lon="2.01506">
        <ele>119.8</ele>
        <time>2025-11-16T10:21:07Z</time>
      </trkpt>
      <trkpt lat="48.60092" lon="2.01504">
        <ele>119.8</ele>
        <time>2025-11-16T10:21:08Z</time>
      </trkpt>
      <trkpt lat="48.6009" lon="2.01502">
        <ele>119.8</ele>
        <time>2025-11-16T10:21:09Z</time>
      </trkpt>
      <trkpt lat="48.60088" lon="2.01499">
        <ele>119.6</ele>
        <time>2025-11-16T10:21:10Z</time>
      </trkpt>
      <trkpt lat="48.60086" lon="2.01497">
        <ele>119.6</ele>
        <time>2025-11-16T10:21:11Z</time>
      </trkpt>
      <trkpt lat="48.60084" lon="2.01494">
        <ele>119.6</ele>
        <time>2025-11-16T10:21:12Z</time>
      </trkpt>
      <trkpt lat="48.60081" lon="2.01491">
        <ele>119.6</ele>
        <time>2025-11-16T10:21:13Z</time>
      </trkpt>
      <trkpt lat="48.60079" lon="2.01488">
        <ele>119.6</ele>
        <time>2025-11-16T10:21:14Z</time>
      </trkpt>
      <trkpt lat="48.60076" lon="2.01485">
        <ele>119.6</ele>
        <time>2025-11-16T10:21:15Z</time>
      </trkpt>
      <trkpt lat="48.60074" lon="2.01482">
        <ele>119.6</ele>
        <time>2025-11-16T10:21:16Z</time>
      </trkpt>
      <trkpt lat="48.60072" lon="2.01479">
        <ele>119.6</ele>
        <time>2025-11-16T10:21:17Z</time>
      </trkpt>
      <trkpt lat="48.6007" lon="2.01476">
        <ele>119.6</ele>
        <time>2025-11-16T10:21:18Z</time>
      </trkpt>
      <trkpt lat="48.60068" lon="2.01474">
        <ele>119.8</ele>
        <time>2025-11-16T10:21:19Z</time>
      </trkpt>
      <trkpt lat="48.60066" lon="2.01471">
        <ele>119.8</ele>
        <time>2025-11-16T10:21:20Z</time>
      </trkpt>
      <trkpt lat="48.60065" lon="2.01469">
        <ele>120</ele>
        <time>2025-11-16T10:21:21Z</time>
      </trkpt>
      <trkpt lat="48.60063" lon="2.01466">
        <ele>120</ele>
        <time>2025-11-16T10:21:22Z</time>
      </trkpt>
      <trkpt lat="48.60061" lon="2.01463">
        <ele>120.2</ele>
        <time>2025-11-16T10:21:23Z</time>
      </trkpt>
      <trkpt lat="48.6006" lon="2.01459">
        <ele>120.2</ele>
        <time>2025-11-16T10:21:24Z</time>
      </trkpt>
      <trkpt lat="48.60058" lon="2.01456">
        <ele>120.2</ele>
        <time>2025-11-16T10:21:25Z</time>
      </trkpt>
      <trkpt lat="48.60056" lon="2.01453">
        <ele>120.2</ele>
        <time>2025-11-16T10:21:26Z</time>
      </trkpt>
      <trkpt lat="48.60054" lon="2.01449">
        <ele>120.2</ele>
        <time>2025-11-16T10:21:27Z</time>
      </trkpt>
      <trkpt lat="48.60052" lon="2.01445">
        <ele>120.2</ele>
        <time>2025-11-16T10:21:28Z</time>
      </trkpt>
      <trkpt lat="48.6005" lon="2.01442">
        <ele>120.2</ele>
        <time>2025-11-16T10:21:29Z</time>
      </trkpt>
      <trkpt lat="48.60048" lon="2.01438">
        <ele>120</ele>
        <time>2025-11-16T10:21:30Z</time>
      </trkpt>
      <trkpt lat="48.60046" lon="2.01434">
        <ele>120</ele>
        <time>2025-11-16T10:21:31Z</time>
      </trkpt>
      <trkpt lat="48.60043" lon="2.0143">
        <ele>120</ele>
        <time>2025-11-16T10:21:32Z</time>
      </trkpt>
      <trkpt lat="48.60041" lon="2.01427">
        <ele>120</ele>
        <time>2025-11-16T10:21:33Z</time>
      </trkpt>
      <trkpt lat="48.60038" lon="2.01424">
        <ele>120</ele>
        <time>2025-11-16T10:21:34Z</time>
      </trkpt>
      <trkpt lat="48.60035" lon="2.01421">
        <ele>120</ele>
        <time>2025-11-16T10:21:35Z</time>
      </trkpt>
      <trkpt lat="48.60033" lon="2.01418">
        <ele>120</ele>
        <time>2025-11-16T10:21:36Z</time>
      </trkpt>
      <trkpt lat="48.6003" lon="2.01416">
        <ele>120</ele>
        <time>2025-11-16T10:21:37Z</time>
      </trkpt>
      <trkpt lat="48.60027" lon="2.01413">
        <ele>120</ele>
        <time>2025-11-16T10:21:38Z</time>
      </trkpt>
      <trkpt lat="48.60025" lon="2.01411">
        <ele>120</ele>
        <time>2025-11-16T10:21:39Z</time>
      </trkpt>
      <trkpt lat="48.60022" lon="2.0141">
        <ele>119.8</ele>
        <time>2025-11-16T10:21:40Z</time>
      </trkpt>
      <trkpt lat="48.6002" lon="2.01408">
        <ele>120</ele>
        <time>2025-11-16T10:21:41Z</time>
      </trkpt>
      <trkpt lat="48.60018" lon="2.01407">
        <ele>120</ele>
        <time>2025-11-16T10:21:42Z</time>
      </trkpt>
      <trkpt lat="48.60016" lon="2.01405">
        <ele>120</ele>
        <time>2025-11-16T10:21:43Z</time>
      </trkpt>
      <trkpt lat="48.60013" lon="2.01404">
        <ele>120</ele>
        <time>2025-11-16T10:21:45Z</time>
      </trkpt>
      <trkpt lat="48.60011" lon="2.01402">
        <ele>120</ele>
        <time>2025-11-16T10:21:47Z</time>
      </trkpt>
      <trkpt lat="48.60009" lon="2.014">
        <ele>119.8</ele>
        <time>2025-11-16T10:21:49Z</time>
      </trkpt>
      <trkpt lat="48.60007" lon="2.01398">
        <ele>119.8</ele>
        <time>2025-11-16T10:21:51Z</time>
      </trkpt>
      <trkpt lat="48.60005" lon="2.01396">
        <ele>120</ele>
        <time>2025-11-16T10:21:53Z</time>
      </trkpt>
      <trkpt lat="48.60002" lon="2.01394">
        <ele>120</ele>
        <time>2025-11-16T10:21:55Z</time>
      </trkpt>
      <trkpt lat="48.59999" lon="2.01392">
        <ele>120</ele>
        <time>2025-11-16T10:21:57Z</time>
      </trkpt>
      <trkpt lat="48.59997" lon="2.0139">
        <ele>120.2</ele>
        <time>2025-11-16T10:21:59Z</time>
      </trkpt>
      <trkpt lat="48.59994" lon="2.01389">
        <ele>120.4</ele>
        <time>2025-11-16T10:22:01Z</time>
      </trkpt>
      <trkpt lat="48.59991" lon="2.01387">
        <ele>120.6</ele>
        <time>2025-11-16T10:22:03Z</time>
      </trkpt>
      <trkpt lat="48.59988" lon="2.01385">
        <ele>120.6</ele>
        <time>2025-11-16T10:22:05Z</time>
      </trkpt>
      <trkpt lat="48.59985" lon="2.01383">
        <ele>120.6</ele>
        <time>2025-11-16T10:22:07Z</time>
      </trkpt>
      <trkpt lat="48.59984" lon="2.01381">
        <ele>120.6</ele>
        <time>2025-11-16T10:22:08Z</time>
      </trkpt>
      <trkpt lat="48.59981" lon="2.01379">
        <ele>120.6</ele>
        <time>2025-11-16T10:22:10Z</time>
      </trkpt>
      <trkpt lat="48.5998" lon="2.01377">
        <ele>120.4</ele>
        <time>2025-11-16T10:22:11Z</time>
      </trkpt>
      <trkpt lat="48.59977" lon="2.01375">
        <ele>120.4</ele>
        <time>2025-11-16T10:22:13Z</time>
      </trkpt>
      <trkpt lat="48.59975" lon="2.01373">
        <ele>120.2</ele>
        <time>2025-11-16T10:22:15Z</time>
      </trkpt>
      <trkpt lat="48.59972" lon="2.01372">
        <ele>120.2</ele>
        <time>2025-11-16T10:22:17Z</time>
      </trkpt>
      <trkpt lat="48.59969" lon="2.0137">
        <ele>120.2</ele>
        <time>2025-11-16T10:22:19Z</time>
      </trkpt>
      <trkpt lat="48.59965" lon="2.01368">
        <ele>120</ele>
        <time>2025-11-16T10:22:21Z</time>
      </trkpt>
      <trkpt lat="48.59964" lon="2.01366">
        <ele>120</ele>
        <time>2025-11-16T10:22:22Z</time>
      </trkpt>
      <trkpt lat="48.59961" lon="2.01363">
        <ele>119.8</ele>
        <time>2025-11-16T10:22:24Z</time>
      </trkpt>
      <trkpt lat="48.59959" lon="2.01362">
        <ele>119.8</ele>
        <time>2025-11-16T10:22:25Z</time>
      </trkpt>
      <trkpt lat="48.59956" lon="2.0136">
        <ele>119.6</ele>
        <time>2025-11-16T10:22:27Z</time>
      </trkpt>
      <trkpt lat="48.59953" lon="2.01358">
        <ele>119.6</ele>
        <time>2025-11-16T10:22:29Z</time>
      </trkpt>
      <trkpt lat="48.59949" lon="2.01357">
        <ele>119.4</ele>
        <time>2025-11-16T10:22:31Z</time>
      </trkpt>
      <trkpt lat="48.59947" lon="2.01357">
        <ele>119.2</ele>
        <time>2025-11-16T10:22:33Z</time>
      </trkpt>
      <trkpt lat="48.59944" lon="2.01356">
        <ele>119</ele>
        <time>2025-11-16T10:22:35Z</time>
      </trkpt>
      <trkpt lat="48.59941" lon="2.01354">
        <ele>118.8</ele>
        <time>2025-11-16T10:22:37Z</time>
      </trkpt>
      <trkpt lat="48.59939" lon="2.01353">
        <ele>118.6</ele>
        <time>2025-11-16T10:22:39Z</time>
      </trkpt>
      <trkpt lat="48.59936" lon="2.01352">
        <ele>118.6</ele>
        <time>2025-11-16T10:22:41Z</time>
      </trkpt>
      <trkpt lat="48.59933" lon="2.01351">
        <ele>118.4</ele>
        <time>2025-11-16T10:22:43Z</time>
      </trkpt>
      <trkpt lat="48.59931" lon="2.0135">
        <ele>118.4</ele>
        <time>2025-11-16T10:22:45Z</time>
      </trkpt>
      <trkpt lat="48.59929" lon="2.0135">
        <ele>118.4</ele>
        <time>2025-11-16T10:22:46Z</time>
      </trkpt>
      <trkpt lat="48.59925" lon="2.0135">
        <ele>118.2</ele>
        <time>2025-11-16T10:22:48Z</time>
      </trkpt>
      <trkpt lat="48.59922" lon="2.01349">
        <ele>118</ele>
        <time>2025-11-16T10:22:50Z</time>
      </trkpt>
      <trkpt lat="48.59919" lon="2.01349">
        <ele>118</ele>
        <time>2025-11-16T10:22:52Z</time>
      </trkpt>
      <trkpt lat="48.59916" lon="2.01348">
        <ele>118</ele>
        <time>2025-11-16T10:22:54Z</time>
      </trkpt>
      <trkpt lat="48.59913" lon="2.01347">
        <ele>118.2</ele>
        <time>2025-11-16T10:22:56Z</time>
      </trkpt>
      <trkpt lat="48.59911" lon="2.01347">
        <ele>118.2</ele>
        <time>2025-11-16T10:22:57Z</time>
      </trkpt>
      <trkpt lat="48.59908" lon="2.01346">
        <ele>118</ele>
        <time>2025-11-16T10:22:59Z</time>
      </trkpt>
      <trkpt lat="48.59906" lon="2.01346">
        <ele>117.8</ele>
        <time>2025-11-16T10:23:00Z</time>
      </trkpt>
      <trkpt lat="48.59903" lon="2.01346">
        <ele>117.6</ele>
        <time>2025-11-16T10:23:02Z</time>
      </trkpt>
      <trkpt lat="48.59901" lon="2.01346">
        <ele>117.4</ele>
        <time>2025-11-16T10:23:03Z</time>
      </trkpt>
      <trkpt lat="48.59898" lon="2.01345">
        <ele>117</ele>
        <time>2025-11-16T10:23:05Z</time>
      </trkpt>
      <trkpt lat="48.59895" lon="2.01345">
        <ele>116.6</ele>
        <time>2025-11-16T10:23:07Z</time>
      </trkpt>
      <trkpt lat="48.59893" lon="2.01344">
        <ele>116.4</ele>
        <time>2025-11-16T10:23:08Z</time>
      </trkpt>
      <trkpt lat="48.5989" lon="2.01344">
        <ele>115.8</ele>
        <time>2025-11-16T10:23:10Z</time>
      </trkpt>
      <trkpt lat="48.59887" lon="2.01344">
        <ele>115.6</ele>
        <time>2025-11-16T10:23:12Z</time>
      </trkpt>
      <trkpt lat="48.59884" lon="2.01344">
        <ele>115.2</ele>
        <time>2025-11-16T10:23:14Z</time>
      </trkpt>
      <trkpt lat="48.59882" lon="2.01344">
        <ele>114.8</ele>
        <time>2025-11-16T10:23:16Z</time>
      </trkpt>
      <trkpt lat="48.59878" lon="2.01343">
        <ele>114.6</ele>
        <time>2025-11-16T10:23:18Z</time>
      </trkpt>
      <trkpt lat="48.59875" lon="2.01342">
        <ele>114.4</ele>
        <time>2025-11-16T10:23:20Z</time>
      </trkpt>
      <trkpt lat="48.59872" lon="2.01342">
        <ele>114.2</ele>
        <time>2025-11-16T10:23:22Z</time>
      </trkpt>
      <trkpt lat="48.59868" lon="2.01342">
        <ele>114</ele>
        <time>2025-11-16T10:23:24Z</time>
      </trkpt>
      <trkpt lat="48.59866" lon="2.01342">
        <ele>113.8</ele>
        <time>2025-11-16T10:23:26Z</time>
      </trkpt>
      <trkpt lat="48.59863" lon="2.01342">
        <ele>113.8</ele>
        <time>2025-11-16T10:23:28Z</time>
      </trkpt>
      <trkpt lat="48.59861" lon="2.01343">
        <ele>113.6</ele>
        <time>2025-11-16T10:23:29Z</time>
      </trkpt>
      <trkpt lat="48.59858" lon="2.01343">
        <ele>113.6</ele>
        <time>2025-11-16T10:23:31Z</time>
      </trkpt>
      <trkpt lat="48.59856" lon="2.01343">
        <ele>113.6</ele>
        <time>2025-11-16T10:23:32Z</time>
      </trkpt>
      <trkpt lat="48.59853" lon="2.01342">
        <ele>113.4</ele>
        <time>2025-11-16T10:23:34Z</time>
      </trkpt>
      <trkpt lat="48.5985" lon="2.01341">
        <ele>113</ele>
        <time>2025-11-16T10:23:36Z</time>
      </trkpt>
      <trkpt lat="48.59848" lon="2.01341">
        <ele>112.8</ele>
        <time>2025-11-16T10:23:37Z</time>
      </trkpt>
      <trkpt lat="48.59844" lon="2.0134">
        <ele>112.6</ele>
        <time>2025-11-16T10:23:39Z</time>
      </trkpt>
      <trkpt lat="48.59842" lon="2.01341">
        <ele>112.6</ele>
        <time>2025-11-16T10:23:41Z</time>
      </trkpt>
      <trkpt lat="48.5984" lon="2.01341">
        <ele>112.6</ele>
        <time>2025-11-16T10:23:42Z</time>
      </trkpt>
      <trkpt lat="48.59836" lon="2.01341">
        <ele>112.6</ele>
        <time>2025-11-16T10:23:44Z</time>
      </trkpt>
      <trkpt lat="48.59834" lon="2.01341">
        <ele>112.4</ele>
        <time>2025-11-16T10:23:46Z</time>
      </trkpt>
      <trkpt lat="48.5983" lon="2.0134">
        <ele>112.2</ele>
        <time>2025-11-16T10:23:48Z</time>
      </trkpt>
      <trkpt lat="48.59827" lon="2.01339">
        <ele>112.2</ele>
        <time>2025-11-16T10:23:50Z</time>
      </trkpt>
      <trkpt lat="48.59824" lon="2.01339">
        <ele>112</ele>
        <time>2025-11-16T10:23:52Z</time>
      </trkpt>
      <trkpt lat="48.59822" lon="2.01338">
        <ele>112</ele>
        <time>2025-11-16T10:23:53Z</time>
      </trkpt>
      <trkpt lat="48.5982" lon="2.01338">
        <ele>112</ele>
        <time>2025-11-16T10:23:54Z</time>
      </trkpt>
      <trkpt lat="48.59818" lon="2.01339">
        <ele>111.8</ele>
        <time>2025-11-16T10:23:55Z</time>
      </trkpt>
      <trkpt lat="48.59815" lon="2.01339">
        <ele>111.6</ele>
        <time>2025-11-16T10:23:57Z</time>
      </trkpt>
      <trkpt lat="48.59812" lon="2.01339">
        <ele>111.6</ele>
        <time>2025-11-16T10:23:59Z</time>
      </trkpt>
      <trkpt lat="48.5981" lon="2.01338">
        <ele>111.4</ele>
        <time>2025-11-16T10:24:01Z</time>
      </trkpt>
      <trkpt lat="48.59807" lon="2.01337">
        <ele>111.4</ele>
        <time>2025-11-16T10:24:03Z</time>
      </trkpt>
      <trkpt lat="48.59804" lon="2.01336">
        <ele>111.4</ele>
        <time>2025-11-16T10:24:05Z</time>
      </trkpt>
      <trkpt lat="48.59801" lon="2.01334">
        <ele>111.2</ele>
        <time>2025-11-16T10:24:07Z</time>
      </trkpt>
      <trkpt lat="48.59799" lon="2.01333">
        <ele>111.2</ele>
        <time>2025-11-16T10:24:09Z</time>
      </trkpt>
      <trkpt lat="48.59796" lon="2.01331">
        <ele>111.2</ele>
        <time>2025-11-16T10:24:11Z</time>
      </trkpt>
      <trkpt lat="48.59794" lon="2.01329">
        <ele>111.2</ele>
        <time>2025-11-16T10:24:13Z</time>
      </trkpt>
      <trkpt lat="48.59792" lon="2.01328">
        <ele>111.2</ele>
        <time>2025-11-16T10:24:15Z</time>
      </trkpt>
      <trkpt lat="48.5979" lon="2.01328">
        <ele>111.2</ele>
        <time>2025-11-16T10:24:17Z</time>
      </trkpt>
      <trkpt lat="48.59787" lon="2.01327">
        <ele>111.4</ele>
        <time>2025-11-16T10:24:19Z</time>
      </trkpt>
      <trkpt lat="48.59784" lon="2.01326">
        <ele>111.4</ele>
        <time>2025-11-16T10:24:21Z</time>
      </trkpt>
      <trkpt lat="48.59781" lon="2.01326">
        <ele>111.4</ele>
        <time>2025-11-16T10:24:23Z</time>
      </trkpt>
      <trkpt lat="48.59779" lon="2.01325">
        <ele>111.6</ele>
        <time>2025-11-16T10:24:24Z</time>
      </trkpt>
      <trkpt lat="48.59776" lon="2.01324">
        <ele>111.6</ele>
        <time>2025-11-16T10:24:26Z</time>
      </trkpt>
      <trkpt lat="48.59772" lon="2.01323">
        <ele>111.6</ele>
        <time>2025-11-16T10:24:28Z</time>
      </trkpt>
      <trkpt lat="48.59769" lon="2.01322">
        <ele>111.4</ele>
        <time>2025-11-16T10:24:30Z</time>
      </trkpt>
      <trkpt lat="48.59766" lon="2.01321">
        <ele>111.2</ele>
        <time>2025-11-16T10:24:32Z</time>
      </trkpt>
      <trkpt lat="48.59764" lon="2.01319">
        <ele>111.2</ele>
        <time>2025-11-16T10:24:34Z</time>
      </trkpt>
      <trkpt lat="48.59761" lon="2.01318">
        <ele>111.2</ele>
        <time>2025-11-16T10:24:36Z</time>
      </trkpt>
      <trkpt lat="48.59758" lon="2.01316">
        <ele>111</ele>
        <time>2025-11-16T10:24:38Z</time>
      </trkpt>
      <trkpt lat="48.59755" lon="2.01315">
        <ele>110.6</ele>
        <time>2025-11-16T10:24:40Z</time>
      </trkpt>
      <trkpt lat="48.59752" lon="2.01314">
        <ele>110.2</ele>
        <time>2025-11-16T10:24:42Z</time>
      </trkpt>
      <trkpt lat="48.59749" lon="2.01312">
        <ele>109.8</ele>
        <time>2025-11-16T10:24:44Z</time>
      </trkpt>
      <trkpt lat="48.59746" lon="2.01311">
        <ele>109.6</ele>
        <time>2025-11-16T10:24:46Z</time>
      </trkpt>
      <trkpt lat="48.59743" lon="2.0131">
        <ele>109.2</ele>
        <time>2025-11-16T10:24:48Z</time>
      </trkpt>
      <trkpt lat="48.5974" lon="2.01309">
        <ele>109</ele>
        <time>2025-11-16T10:24:50Z</time>
      </trkpt>
      <trkpt lat="48.59737" lon="2.01308">
        <ele>109</ele>
        <time>2025-11-16T10:24:52Z</time>
      </trkpt>
      <trkpt lat="48.59734" lon="2.01306">
        <ele>109</ele>
        <time>2025-11-16T10:24:54Z</time>
      </trkpt>
      <trkpt lat="48.59732" lon="2.01304">
        <ele>109</ele>
        <time>2025-11-16T10:24:56Z</time>
      </trkpt>
      <trkpt lat="48.59729" lon="2.01302">
        <ele>109</ele>
        <time>2025-11-16T10:24:58Z</time>
      </trkpt>
      <trkpt lat="48.59726" lon="2.013">
        <ele>109.2</ele>
        <time>2025-11-16T10:25:00Z</time>
      </trkpt>
      <trkpt lat="48.59724" lon="2.01299">
        <ele>109.2</ele>
        <time>2025-11-16T10:25:02Z</time>
      </trkpt>
      <trkpt lat="48.59721" lon="2.01297">
        <ele>109.2</ele>
        <time>2025-11-16T10:25:04Z</time>
      </trkpt>
      <trkpt lat="48.59719" lon="2.01294">
        <ele>109</ele>
        <time>2025-11-16T10:25:06Z</time>
      </trkpt>
      <trkpt lat="48.59716" lon="2.01293">
        <ele>109</ele>
        <time>2025-11-16T10:25:08Z</time>
      </trkpt>
      <trkpt lat="48.59713" lon="2.01291">
        <ele>109</ele>
        <time>2025-11-16T10:25:10Z</time>
      </trkpt>
      <trkpt lat="48.5971" lon="2.0129">
        <ele>109</ele>
        <time>2025-11-16T10:25:12Z</time>
      </trkpt>
      <trkpt lat="48.59707" lon="2.01288">
        <ele>109</ele>
        <time>2025-11-16T10:25:14Z</time>
      </trkpt>
      <trkpt lat="48.59703" lon="2.01287">
        <ele>108.8</ele>
        <time>2025-11-16T10:25:16Z</time>
      </trkpt>
      <trkpt lat="48.597" lon="2.01285">
        <ele>108.6</ele>
        <time>2025-11-16T10:25:18Z</time>
      </trkpt>
      <trkpt lat="48.59698" lon="2.01284">
        <ele>108.6</ele>
        <time>2025-11-16T10:25:20Z</time>
      </trkpt>
      <trkpt lat="48.59695" lon="2.01284">
        <ele>108.6</ele>
        <time>2025-11-16T10:25:22Z</time>
      </trkpt>
      <trkpt lat="48.59693" lon="2.01283">
        <ele>108.4</ele>
        <time>2025-11-16T10:25:25Z</time>
      </trkpt>
      <trkpt lat="48.59691" lon="2.01282">
        <ele>108.2</ele>
        <time>2025-11-16T10:25:27Z</time>
      </trkpt>
      <trkpt lat="48.59688" lon="2.0128">
        <ele>108.2</ele>
        <time>2025-11-16T10:25:29Z</time>
      </trkpt>
      <trkpt lat="48.59685" lon="2.01279">
        <ele>107.8</ele>
        <time>2025-11-16T10:25:31Z</time>
      </trkpt>
      <trkpt lat="48.59683" lon="2.01277">
        <ele>107.6</ele>
        <time>2025-11-16T10:25:33Z</time>
      </trkpt>
      <trkpt lat="48.59681" lon="2.01275">
        <ele>107.4</ele>
        <time>2025-11-16T10:25:35Z</time>
      </trkpt>
      <trkpt lat="48.59679" lon="2.01273">
        <ele>107.2</ele>
        <time>2025-11-16T10:25:37Z</time>
      </trkpt>
      <trkpt lat="48.59677" lon="2.01271">
        <ele>107.2</ele>
        <time>2025-11-16T10:25:38Z</time>
      </trkpt>
      <trkpt lat="48.59676" lon="2.0127">
        <ele>107.2</ele>
        <time>2025-11-16T10:25:39Z</time>
      </trkpt>
      <trkpt lat="48.59674" lon="2.01269">
        <ele>107.2</ele>
        <time>2025-11-16T10:25:40Z</time>
      </trkpt>
      <trkpt lat="48.59672" lon="2.01268">
        <ele>107.4</ele>
        <time>2025-11-16T10:25:41Z</time>
      </trkpt>
      <trkpt lat="48.5967" lon="2.01267">
        <ele>107.4</ele>
        <time>2025-11-16T10:25:42Z</time>
      </trkpt>
      <trkpt lat="48.59668" lon="2.01267">
        <ele>107.4</ele>
        <time>2025-11-16T10:25:43Z</time>
      </trkpt>
      <trkpt lat="48.59665" lon="2.01265">
        <ele>107.4</ele>
        <time>2025-11-16T10:25:45Z</time>
      </trkpt>
      <trkpt lat="48.59661" lon="2.01263">
        <ele>107.6</ele>
        <time>2025-11-16T10:25:47Z</time>
      </trkpt>
      <trkpt lat="48.59658" lon="2.01261">
        <ele>107.6</ele>
        <time>2025-11-16T10:25:49Z</time>
      </trkpt>
      <trkpt lat="48.59655" lon="2.0126">
        <ele>107.6</ele>
        <time>2025-11-16T10:25:51Z</time>
      </trkpt>
      <trkpt lat="48.59653" lon="2.01258">
        <ele>107.6</ele>
        <time>2025-11-16T10:25:53Z</time>
      </trkpt>
      <trkpt lat="48.59651" lon="2.01255">
        <ele>107.6</ele>
        <time>2025-11-16T10:25:55Z</time>
      </trkpt>
      <trkpt lat="48.59649" lon="2.01252">
        <ele>107.6</ele>
        <time>2025-11-16T10:25:57Z</time>
      </trkpt>
      <trkpt lat="48.59647" lon="2.0125">
        <ele>107.4</ele>
        <time>2025-11-16T10:25:59Z</time>
      </trkpt>
      <trkpt lat="48.59644" lon="2.01249">
        <ele>107.4</ele>
        <time>2025-11-16T10:26:01Z</time>
      </trkpt>
      <trkpt lat="48.59641" lon="2.01248">
        <ele>107.4</ele>
        <time>2025-11-16T10:26:03Z</time>
      </trkpt>
      <trkpt lat="48.59638" lon="2.01248">
        <ele>107</ele>
        <time>2025-11-16T10:26:05Z</time>
      </trkpt>
      <trkpt lat="48.59635" lon="2.01248">
        <ele>106.8</ele>
        <time>2025-11-16T10:26:07Z</time>
      </trkpt>
      <trkpt lat="48.59632" lon="2.01249">
        <ele>106.4</ele>
        <time>2025-11-16T10:26:09Z</time>
      </trkpt>
      <trkpt lat="48.59629" lon="2.01251">
        <ele>106.2</ele>
        <time>2025-11-16T10:26:11Z</time>
      </trkpt>
      <trkpt lat="48.59627" lon="2.01253">
        <ele>106.2</ele>
        <time>2025-11-16T10:26:13Z</time>
      </trkpt>
      <trkpt lat="48.59624" lon="2.01255">
        <ele>106.2</ele>
        <time>2025-11-16T10:26:15Z</time>
      </trkpt>
      <trkpt lat="48.59621" lon="2.01257">
        <ele>106.2</ele>
        <time>2025-11-16T10:26:17Z</time>
      </trkpt>
      <trkpt lat="48.59618" lon="2.01259">
        <ele>106.2</ele>
        <time>2025-11-16T10:26:19Z</time>
      </trkpt>
      <trkpt lat="48.59615" lon="2.01261">
        <ele>106.2</ele>
        <time>2025-11-16T10:26:21Z</time>
      </trkpt>
      <trkpt lat="48.59612" lon="2.01263">
        <ele>106.2</ele>
        <time>2025-11-16T10:26:23Z</time>
      </trkpt>
      <trkpt lat="48.5961" lon="2.01265">
        <ele>106.2</ele>
        <time>2025-11-16T10:26:25Z</time>
      </trkpt>
      <trkpt lat="48.59607" lon="2.01268">
        <ele>106</ele>
        <time>2025-11-16T10:26:27Z</time>
      </trkpt>
      <trkpt lat="48.59604" lon="2.0127">
        <ele>105.8</ele>
        <time>2025-11-16T10:26:29Z</time>
      </trkpt>
      <trkpt lat="48.59602" lon="2.01273">
        <ele>105.6</ele>
        <time>2025-11-16T10:26:31Z</time>
      </trkpt>
      <trkpt lat="48.59598" lon="2.01275">
        <ele>105.4</ele>
        <time>2025-11-16T10:26:33Z</time>
      </trkpt>
      <trkpt lat="48.59596" lon="2.01276">
        <ele>105</ele>
        <time>2025-11-16T10:26:35Z</time>
      </trkpt>
      <trkpt lat="48.59594" lon="2.01276">
        <ele>104.8</ele>
        <time>2025-11-16T10:26:36Z</time>
      </trkpt>
      <trkpt lat="48.5959" lon="2.01277">
        <ele>104.6</ele>
        <time>2025-11-16T10:26:38Z</time>
      </trkpt>
      <trkpt lat="48.59588" lon="2.01278">
        <ele>104.4</ele>
        <time>2025-11-16T10:26:40Z</time>
      </trkpt>
      <trkpt lat="48.59584" lon="2.01279">
        <ele>104.4</ele>
        <time>2025-11-16T10:26:42Z</time>
      </trkpt>
      <trkpt lat="48.59581" lon="2.0128">
        <ele>104.2</ele>
        <time>2025-11-16T10:26:44Z</time>
      </trkpt>
      <trkpt lat="48.59578" lon="2.0128">
        <ele>104.2</ele>
        <time>2025-11-16T10:26:46Z</time>
      </trkpt>
      <trkpt lat="48.59576" lon="2.01281">
        <ele>104</ele>
        <time>2025-11-16T10:26:47Z</time>
      </trkpt>
      <trkpt lat="48.59573" lon="2.01282">
        <ele>103.8</ele>
        <time>2025-11-16T10:26:49Z</time>
      </trkpt>
      <trkpt lat="48.5957" lon="2.01282">
        <ele>103.8</ele>
        <time>2025-11-16T10:26:51Z</time>
      </trkpt>
      <trkpt lat="48.59568" lon="2.01284">
        <ele>103.8</ele>
        <time>2025-11-16T10:26:53Z</time>
      </trkpt>
      <trkpt lat="48.59564" lon="2.01285">
        <ele>103.6</ele>
        <time>2025-11-16T10:26:55Z</time>
      </trkpt>
      <trkpt lat="48.59562" lon="2.01287">
        <ele>103.6</ele>
        <time>2025-11-16T10:26:57Z</time>
      </trkpt>
      <trkpt lat="48.59558" lon="2.01288">
        <ele>103.6</ele>
        <time>2025-11-16T10:26:59Z</time>
      </trkpt>
      <trkpt lat="48.59556" lon="2.01291">
        <ele>103.6</ele>
        <time>2025-11-16T10:27:01Z</time>
      </trkpt>
      <trkpt lat="48.59553" lon="2.01293">
        <ele>103.4</ele>
        <time>2025-11-16T10:27:03Z</time>
      </trkpt>
      <trkpt lat="48.5955" lon="2.01295">
        <ele>103.4</ele>
        <time>2025-11-16T10:27:05Z</time>
      </trkpt>
      <trkpt lat="48.59548" lon="2.01297">
        <ele>103.6</ele>
        <time>2025-11-16T10:27:07Z</time>
      </trkpt>
      <trkpt lat="48.59546" lon="2.01299">
        <ele>103.8</ele>
        <time>2025-11-16T10:27:09Z</time>
      </trkpt>
      <trkpt lat="48.59544" lon="2.01301">
        <ele>103.8</ele>
        <time>2025-11-16T10:27:11Z</time>
      </trkpt>
      <trkpt lat="48.59541" lon="2.01304">
        <ele>104</ele>
        <time>2025-11-16T10:27:13Z</time>
      </trkpt>
      <trkpt lat="48.59539" lon="2.01306">
        <ele>104.2</ele>
        <time>2025-11-16T10:27:15Z</time>
      </trkpt>
      <trkpt lat="48.59537" lon="2.01309">
        <ele>104.2</ele>
        <time>2025-11-16T10:27:17Z</time>
      </trkpt>
      <trkpt lat="48.59534" lon="2.01313">
        <ele>104.4</ele>
        <time>2025-11-16T10:27:19Z</time>
      </trkpt>
      <trkpt lat="48.59533" lon="2.01314">
        <ele>104.4</ele>
        <time>2025-11-16T10:27:20Z</time>
      </trkpt>
      <trkpt lat="48.5953" lon="2.01317">
        <ele>104.6</ele>
        <time>2025-11-16T10:27:22Z</time>
      </trkpt>
      <trkpt lat="48.59527" lon="2.01319">
        <ele>104.6</ele>
        <time>2025-11-16T10:27:24Z</time>
      </trkpt>
      <trkpt lat="48.59524" lon="2.01321">
        <ele>104.6</ele>
        <time>2025-11-16T10:27:26Z</time>
      </trkpt>
      <trkpt lat="48.59521" lon="2.01323">
        <ele>104.8</ele>
        <time>2025-11-16T10:27:28Z</time>
      </trkpt>
      <trkpt lat="48.59518" lon="2.01325">
        <ele>104.8</ele>
        <time>2025-11-16T10:27:30Z</time>
      </trkpt>
      <trkpt lat="48.59515" lon="2.01328">
        <ele>104.8</ele>
        <time>2025-11-16T10:27:32Z</time>
      </trkpt>
      <trkpt lat="48.59512" lon="2.01331">
        <ele>105</ele>
        <time>2025-11-16T10:27:34Z</time>
      </trkpt>
      <trkpt lat="48.5951" lon="2.01334">
        <ele>105</ele>
        <time>2025-11-16T10:27:36Z</time>
      </trkpt>
      <trkpt lat="48.59508" lon="2.01336">
        <ele>105.2</ele>
        <time>2025-11-16T10:27:38Z</time>
      </trkpt>
      <trkpt lat="48.59506" lon="2.01339">
        <ele>105.4</ele>
        <time>2025-11-16T10:27:40Z</time>
      </trkpt>
      <trkpt lat="48.59503" lon="2.01342">
        <ele>105.6</ele>
        <time>2025-11-16T10:27:42Z</time>
      </trkpt>
      <trkpt lat="48.595" lon="2.01345">
        <ele>105.6</ele>
        <time>2025-11-16T10:27:44Z</time>
      </trkpt>
      <trkpt lat="48.59498" lon="2.01347">
        <ele>105.8</ele>
        <time>2025-11-16T10:27:46Z</time>
      </trkpt>
      <trkpt lat="48.59495" lon="2.01348">
        <ele>105.6</ele>
        <time>2025-11-16T10:27:48Z</time>
      </trkpt>
      <trkpt lat="48.59492" lon="2.01351">
        <ele>105.6</ele>
        <time>2025-11-16T10:27:50Z</time>
      </trkpt>
      <trkpt lat="48.5949" lon="2.01352">
        <ele>105.6</ele>
        <time>2025-11-16T10:27:51Z</time>
      </trkpt>
      <trkpt lat="48.59489" lon="2.01354">
        <ele>105.8</ele>
        <time>2025-11-16T10:27:52Z</time>
      </trkpt>
      <trkpt lat="48.59486" lon="2.01356">
        <ele>106</ele>
        <time>2025-11-16T10:27:54Z</time>
      </trkpt>
      <trkpt lat="48.59484" lon="2.01358">
        <ele>106</ele>
        <time>2025-11-16T10:27:55Z</time>
      </trkpt>
      <trkpt lat="48.59482" lon="2.01361">
        <ele>106.4</ele>
        <time>2025-11-16T10:27:57Z</time>
      </trkpt>
      <trkpt lat="48.5948" lon="2.01365">
        <ele>106.6</ele>
        <time>2025-11-16T10:27:59Z</time>
      </trkpt>
      <trkpt lat="48.59478" lon="2.01367">
        <ele>106.6</ele>
        <time>2025-11-16T10:28:00Z</time>
      </trkpt>
      <trkpt lat="48.59476" lon="2.0137">
        <ele>106.8</ele>
        <time>2025-11-16T10:28:02Z</time>
      </trkpt>
      <trkpt lat="48.59475" lon="2.01372">
        <ele>106.8</ele>
        <time>2025-11-16T10:28:03Z</time>
      </trkpt>
      <trkpt lat="48.59473" lon="2.01373">
        <ele>107</ele>
        <time>2025-11-16T10:28:04Z</time>
      </trkpt>
      <trkpt lat="48.5947" lon="2.01376">
        <ele>107</ele>
        <time>2025-11-16T10:28:06Z</time>
      </trkpt>
      <trkpt lat="48.59468" lon="2.01379">
        <ele>107</ele>
        <time>2025-11-16T10:28:08Z</time>
      </trkpt>
      <trkpt lat="48.59466" lon="2.01382">
        <ele>107</ele>
        <time>2025-11-16T10:28:10Z</time>
      </trkpt>
      <trkpt lat="48.59464" lon="2.01385">
        <ele>106.8</ele>
        <time>2025-11-16T10:28:12Z</time>
      </trkpt>
      <trkpt lat="48.59462" lon="2.01388">
        <ele>106.6</ele>
        <time>2025-11-16T10:28:14Z</time>
      </trkpt>
      <trkpt lat="48.5946" lon="2.0139">
        <ele>106.4</ele>
        <time>2025-11-16T10:28:16Z</time>
      </trkpt>
      <trkpt lat="48.59457" lon="2.01392">
        <ele>106</ele>
        <time>2025-11-16T10:28:18Z</time>
      </trkpt>
      <trkpt lat="48.59455" lon="2.01395">
        <ele>105.8</ele>
        <time>2025-11-16T10:28:20Z</time>
      </trkpt>
      <trkpt lat="48.59453" lon="2.01398">
        <ele>105.6</ele>
        <time>2025-11-16T10:28:22Z</time>
      </trkpt>
      <trkpt lat="48.59451" lon="2.014">
        <ele>105.2</ele>
        <time>2025-11-16T10:28:24Z</time>
      </trkpt>
      <trkpt lat="48.59449" lon="2.01403">
        <ele>105</ele>
        <time>2025-11-16T10:28:26Z</time>
      </trkpt>
      <trkpt lat="48.59447" lon="2.01406">
        <ele>104.8</ele>
        <time>2025-11-16T10:28:28Z</time>
      </trkpt>
      <trkpt lat="48.59444" lon="2.01409">
        <ele>104.8</ele>
        <time>2025-11-16T10:28:30Z</time>
      </trkpt>
      <trkpt lat="48.59443" lon="2.0141">
        <ele>104.6</ele>
        <time>2025-11-16T10:28:31Z</time>
      </trkpt>
      <trkpt lat="48.59441" lon="2.01412">
        <ele>104.4</ele>
        <time>2025-11-16T10:28:33Z</time>
      </trkpt>
      <trkpt lat="48.59438" lon="2.01414">
        <ele>104.4</ele>
        <time>2025-11-16T10:28:35Z</time>
      </trkpt>
      <trkpt lat="48.59436" lon="2.01417">
        <ele>104.2</ele>
        <time>2025-11-16T10:28:37Z</time>
      </trkpt>
      <trkpt lat="48.59433" lon="2.01419">
        <ele>104</ele>
        <time>2025-11-16T10:28:39Z</time>
      </trkpt>
      <trkpt lat="48.5943" lon="2.01422">
        <ele>103.8</ele>
        <time>2025-11-16T10:28:41Z</time>
      </trkpt>
      <trkpt lat="48.59428" lon="2.01424">
        <ele>103.6</ele>
        <time>2025-11-16T10:28:43Z</time>
      </trkpt>
      <trkpt lat="48.59426" lon="2.01427">
        <ele>103.6</ele>
        <time>2025-11-16T10:28:45Z</time>
      </trkpt>
      <trkpt lat="48.59423" lon="2.0143">
        <ele>103.6</ele>
        <time>2025-11-16T10:28:47Z</time>
      </trkpt>
      <trkpt lat="48.59421" lon="2.01432">
        <ele>103.6</ele>
        <time>2025-11-16T10:28:49Z</time>
      </trkpt>
      <trkpt lat="48.59419" lon="2.01435">
        <ele>103.8</ele>
        <time>2025-11-16T10:28:51Z</time>
      </trkpt>
      <trkpt lat="48.59417" lon="2.01438">
        <ele>103.6</ele>
        <time>2025-11-16T10:28:53Z</time>
      </trkpt>
      <trkpt lat="48.59415" lon="2.01441">
        <ele>103.2</ele>
        <time>2025-11-16T10:28:55Z</time>
      </trkpt>
      <trkpt lat="48.59413" lon="2.01444">
        <ele>103</ele>
        <time>2025-11-16T10:28:57Z</time>
      </trkpt>
      <trkpt lat="48.59411" lon="2.01446">
        <ele>102.8</ele>
        <time>2025-11-16T10:28:59Z</time>
      </trkpt>
      <trkpt lat="48.59408" lon="2.01448">
        <ele>102.8</ele>
        <time>2025-11-16T10:29:01Z</time>
      </trkpt>
      <trkpt lat="48.59405" lon="2.01451">
        <ele>102.6</ele>
        <time>2025-11-16T10:29:03Z</time>
      </trkpt>
      <trkpt lat="48.59403" lon="2.01453">
        <ele>102.4</ele>
        <time>2025-11-16T10:29:05Z</time>
      </trkpt>
      <trkpt lat="48.59401" lon="2.01455">
        <ele>102.2</ele>
        <time>2025-11-16T10:29:06Z</time>
      </trkpt>
      <trkpt lat="48.594" lon="2.01456">
        <ele>102.2</ele>
        <time>2025-11-16T10:29:07Z</time>
      </trkpt>
      <trkpt lat="48.59397" lon="2.01459">
        <ele>102</ele>
        <time>2025-11-16T10:29:09Z</time>
      </trkpt>
      <trkpt lat="48.59396" lon="2.01461">
        <ele>102</ele>
        <time>2025-11-16T10:29:10Z</time>
      </trkpt>
      <trkpt lat="48.59394" lon="2.01462">
        <ele>102</ele>
        <time>2025-11-16T10:29:11Z</time>
      </trkpt>
      <trkpt lat="48.59391" lon="2.01464">
        <ele>101.8</ele>
        <time>2025-11-16T10:29:13Z</time>
      </trkpt>
      <trkpt lat="48.59389" lon="2.01467">
        <ele>101.8</ele>
        <time>2025-11-16T10:29:15Z</time>
      </trkpt>
      <trkpt lat="48.59387" lon="2.01469">
        <ele>101.8</ele>
        <time>2025-11-16T10:29:17Z</time>
      </trkpt>
      <trkpt lat="48.59384" lon="2.01471">
        <ele>101.8</ele>
        <time>2025-11-16T10:29:19Z</time>
      </trkpt>
      <trkpt lat="48.59381" lon="2.01473">
        <ele>101.8</ele>
        <time>2025-11-16T10:29:21Z</time>
      </trkpt>
      <trkpt lat="48.59379" lon="2.01475">
        <ele>102</ele>
        <time>2025-11-16T10:29:23Z</time>
      </trkpt>
      <trkpt lat="48.59377" lon="2.01477">
        <ele>102</ele>
        <time>2025-11-16T10:29:25Z</time>
      </trkpt>
      <trkpt lat="48.59375" lon="2.01479">
        <ele>102</ele>
        <time>2025-11-16T10:29:27Z</time>
      </trkpt>
      <trkpt lat="48.59372" lon="2.01482">
        <ele>102</ele>
        <time>2025-11-16T10:29:29Z</time>
      </trkpt>
      <trkpt lat="48.5937" lon="2.01484">
        <ele>102</ele>
        <time>2025-11-16T10:29:31Z</time>
      </trkpt>
      <trkpt lat="48.59368" lon="2.01486">
        <ele>102</ele>
        <time>2025-11-16T10:29:33Z</time>
      </trkpt>
      <trkpt lat="48.59365" lon="2.01488">
        <ele>102</ele>
        <time>2025-11-16T10:29:35Z</time>
      </trkpt>
      <trkpt lat="48.59363" lon="2.01491">
        <ele>102</ele>
        <time>2025-11-16T10:29:37Z</time>
      </trkpt>
      <trkpt lat="48.59361" lon="2.01492">
        <ele>102</ele>
        <time>2025-11-16T10:29:38Z</time>
      </trkpt>
      <trkpt lat="48.5936" lon="2.01494">
        <ele>102</ele>
        <time>2025-11-16T10:29:39Z</time>
      </trkpt>
      <trkpt lat="48.59358" lon="2.01495">
        <ele>102</ele>
        <time>2025-11-16T10:29:40Z</time>
      </trkpt>
      <trkpt lat="48.59356" lon="2.01498">
        <ele>102</ele>
        <time>2025-11-16T10:29:42Z</time>
      </trkpt>
      <trkpt lat="48.59353" lon="2.01501">
        <ele>101.8</ele>
        <time>2025-11-16T10:29:44Z</time>
      </trkpt>
      <trkpt lat="48.59351" lon="2.01504">
        <ele>101.8</ele>
        <time>2025-11-16T10:29:46Z</time>
      </trkpt>
      <trkpt lat="48.59349" lon="2.01508">
        <ele>101.4</ele>
        <time>2025-11-16T10:29:48Z</time>
      </trkpt>
      <trkpt lat="48.59347" lon="2.01511">
        <ele>101.2</ele>
        <time>2025-11-16T10:29:50Z</time>
      </trkpt>
      <trkpt lat="48.59345" lon="2.01514">
        <ele>101.2</ele>
        <time>2025-11-16T10:29:52Z</time>
      </trkpt>
      <trkpt lat="48.59342" lon="2.01517">
        <ele>101</ele>
        <time>2025-11-16T10:29:54Z</time>
      </trkpt>
      <trkpt lat="48.5934" lon="2.01521">
        <ele>101</ele>
        <time>2025-11-16T10:29:56Z</time>
      </trkpt>
      <trkpt lat="48.59337" lon="2.01524">
        <ele>101.2</ele>
        <time>2025-11-16T10:29:58Z</time>
      </trkpt>
      <trkpt lat="48.59335" lon="2.01527">
        <ele>101.2</ele>
        <time>2025-11-16T10:30:00Z</time>
      </trkpt>
      <trkpt lat="48.59332" lon="2.0153">
        <ele>101.4</ele>
        <time>2025-11-16T10:30:02Z</time>
      </trkpt>
      <trkpt lat="48.59329" lon="2.01532">
        <ele>101.4</ele>
        <time>2025-11-16T10:30:04Z</time>
      </trkpt>
      <trkpt lat="48.59326" lon="2.01535">
        <ele>101.4</ele>
        <time>2025-11-16T10:30:06Z</time>
      </trkpt>
      <trkpt lat="48.59324" lon="2.01537">
        <ele>101.4</ele>
        <time>2025-11-16T10:30:08Z</time>
      </trkpt>
      <trkpt lat="48.59321" lon="2.01539">
        <ele>101.4</ele>
        <time>2025-11-16T10:30:10Z</time>
      </trkpt>
      <trkpt lat="48.59318" lon="2.01541">
        <ele>101.4</ele>
        <time>2025-11-16T10:30:12Z</time>
      </trkpt>
      <trkpt lat="48.59316" lon="2.01544">
        <ele>101.6</ele>
        <time>2025-11-16T10:30:14Z</time>
      </trkpt>
      <trkpt lat="48.59312" lon="2.01546">
        <ele>101.6</ele>
        <time>2025-11-16T10:30:16Z</time>
      </trkpt>
      <trkpt lat="48.5931" lon="2.01548">
        <ele>101.4</ele>
        <time>2025-11-16T10:30:18Z</time>
      </trkpt>
      <trkpt lat="48.59307" lon="2.01551">
        <ele>101.2</ele>
        <time>2025-11-16T10:30:20Z</time>
      </trkpt>
      <trkpt lat="48.59304" lon="2.01552">
        <ele>101</ele>
        <time>2025-11-16T10:30:22Z</time>
      </trkpt>
      <trkpt lat="48.59302" lon="2.01554">
        <ele>100.8</ele>
        <time>2025-11-16T10:30:24Z</time>
      </trkpt>
      <trkpt lat="48.59299" lon="2.01555">
        <ele>100.6</ele>
        <time>2025-11-16T10:30:26Z</time>
      </trkpt>
      <trkpt lat="48.59296" lon="2.01555">
        <ele>100.6</ele>
        <time>2025-11-16T10:30:28Z</time>
      </trkpt>
      <trkpt lat="48.59293" lon="2.01556">
        <ele>100.4</ele>
        <time>2025-11-16T10:30:30Z</time>
      </trkpt>
      <trkpt lat="48.59291" lon="2.01557">
        <ele>100.4</ele>
        <time>2025-11-16T10:30:32Z</time>
      </trkpt>
      <trkpt lat="48.59288" lon="2.01557">
        <ele>100.2</ele>
        <time>2025-11-16T10:30:34Z</time>
      </trkpt>
      <trkpt lat="48.59285" lon="2.01558">
        <ele>100</ele>
        <time>2025-11-16T10:30:36Z</time>
      </trkpt>
      <trkpt lat="48.59282" lon="2.01558">
        <ele>99.8</ele>
        <time>2025-11-16T10:30:38Z</time>
      </trkpt>
      <trkpt lat="48.5928" lon="2.01559">
        <ele>99.8</ele>
        <time>2025-11-16T10:30:39Z</time>
      </trkpt>
      <trkpt lat="48.59277" lon="2.0156">
        <ele>99.6</ele>
        <time>2025-11-16T10:30:41Z</time>
      </trkpt>
      <trkpt lat="48.59274" lon="2.01561">
        <ele>99.2</ele>
        <time>2025-11-16T10:30:43Z</time>
      </trkpt>
      <trkpt lat="48.59271" lon="2.01561">
        <ele>99</ele>
        <time>2025-11-16T10:30:45Z</time>
      </trkpt>
      <trkpt lat="48.59268" lon="2.01562">
        <ele>99</ele>
        <time>2025-11-16T10:30:47Z</time>
      </trkpt>
      <trkpt lat="48.59265" lon="2.01563">
        <ele>98.8</ele>
        <time>2025-11-16T10:30:49Z</time>
      </trkpt>
      <trkpt lat="48.59262" lon="2.01564">
        <ele>98.6</ele>
        <time>2025-11-16T10:30:51Z</time>
      </trkpt>
      <trkpt lat="48.59259" lon="2.01565">
        <ele>98.6</ele>
        <time>2025-11-16T10:30:53Z</time>
      </trkpt>
      <trkpt lat="48.59256" lon="2.01566">
        <ele>98.6</ele>
        <time>2025-11-16T10:30:55Z</time>
      </trkpt>
      <trkpt lat="48.59253" lon="2.01567">
        <ele>98.6</ele>
        <time>2025-11-16T10:30:57Z</time>
      </trkpt>
      <trkpt lat="48.5925" lon="2.01568">
        <ele>98.8</ele>
        <time>2025-11-16T10:30:59Z</time>
      </trkpt>
      <trkpt lat="48.59247" lon="2.01569">
        <ele>98.8</ele>
        <time>2025-11-16T10:31:01Z</time>
      </trkpt>
      <trkpt lat="48.59244" lon="2.0157">
        <ele>98.6</ele>
        <time>2025-11-16T10:31:03Z</time>
      </trkpt>
      <trkpt lat="48.59241" lon="2.01571">
        <ele>98.4</ele>
        <time>2025-11-16T10:31:05Z</time>
      </trkpt>
      <trkpt lat="48.59238" lon="2.01572">
        <ele>98.2</ele>
        <time>2025-11-16T10:31:07Z</time>
      </trkpt>
      <trkpt lat="48.59236" lon="2.01572">
        <ele>98</ele>
        <time>2025-11-16T10:31:09Z</time>
      </trkpt>
      <trkpt lat="48.59233" lon="2.01572">
        <ele>97.6</ele>
        <time>2025-11-16T10:31:11Z</time>
      </trkpt>
      <trkpt lat="48.5923" lon="2.0157">
        <ele>97.4</ele>
        <time>2025-11-16T10:31:13Z</time>
      </trkpt>
      <trkpt lat="48.59228" lon="2.01567">
        <ele>97.4</ele>
        <time>2025-11-16T10:31:15Z</time>
      </trkpt>
      <trkpt lat="48.59225" lon="2.01565">
        <ele>97.4</ele>
        <time>2025-11-16T10:31:17Z</time>
      </trkpt>
      <trkpt lat="48.59222" lon="2.01562">
        <ele>97.2</ele>
        <time>2025-11-16T10:31:19Z</time>
      </trkpt>
      <trkpt lat="48.5922" lon="2.01559">
        <ele>97</ele>
        <time>2025-11-16T10:31:21Z</time>
      </trkpt>
      <trkpt lat="48.59217" lon="2.01556">
        <ele>96.8</ele>
        <time>2025-11-16T10:31:23Z</time>
      </trkpt>
      <trkpt lat="48.59214" lon="2.01554">
        <ele>96.6</ele>
        <time>2025-11-16T10:31:25Z</time>
      </trkpt>
      <trkpt lat="48.59211" lon="2.01551">
        <ele>96.6</ele>
        <time>2025-11-16T10:31:27Z</time>
      </trkpt>
      <trkpt lat="48.59209" lon="2.01548">
        <ele>96.4</ele>
        <time>2025-11-16T10:31:29Z</time>
      </trkpt>
      <trkpt lat="48.59206" lon="2.01546">
        <ele>96.4</ele>
        <time>2025-11-16T10:31:31Z</time>
      </trkpt>
      <trkpt lat="48.59203" lon="2.01543">
        <ele>96.4</ele>
        <time>2025-11-16T10:31:33Z</time>
      </trkpt>
      <trkpt lat="48.59201" lon="2.01541">
        <ele>96.2</ele>
        <time>2025-11-16T10:31:35Z</time>
      </trkpt>
      <trkpt lat="48.59198" lon="2.01538">
        <ele>96</ele>
        <time>2025-11-16T10:31:37Z</time>
      </trkpt>
      <trkpt lat="48.59197" lon="2.01536">
        <ele>96</ele>
        <time>2025-11-16T10:31:38Z</time>
      </trkpt>
      <trkpt lat="48.59195" lon="2.01533">
        <ele>95.8</ele>
        <time>2025-11-16T10:31:40Z</time>
      </trkpt>
      <trkpt lat="48.59193" lon="2.01532">
        <ele>95.6</ele>
        <time>2025-11-16T10:31:41Z</time>
      </trkpt>
      <trkpt lat="48.5919" lon="2.01529">
        <ele>95.4</ele>
        <time>2025-11-16T10:31:43Z</time>
      </trkpt>
      <trkpt lat="48.59188" lon="2.01527">
        <ele>95.4</ele>
        <time>2025-11-16T10:31:45Z</time>
      </trkpt>
      <trkpt lat="48.59186" lon="2.01526">
        <ele>95.4</ele>
        <time>2025-11-16T10:31:48Z</time>
      </trkpt>
      <trkpt lat="48.59184" lon="2.01526">
        <ele>95.2</ele>
        <time>2025-11-16T10:31:51Z</time>
      </trkpt>
      <trkpt lat="48.59182" lon="2.01525">
        <ele>95.2</ele>
        <time>2025-11-16T10:31:53Z</time>
      </trkpt>
      <trkpt lat="48.5918" lon="2.01526">
        <ele>95.2</ele>
        <time>2025-11-16T10:31:55Z</time>
      </trkpt>
      <trkpt lat="48.59177" lon="2.01527">
        <ele>95.2</ele>
        <time>2025-11-16T10:31:57Z</time>
      </trkpt>
      <trkpt lat="48.59175" lon="2.01529">
        <ele>95</ele>
        <time>2025-11-16T10:31:59Z</time>
      </trkpt>
      <trkpt lat="48.59173" lon="2.01531">
        <ele>95</ele>
        <time>2025-11-16T10:32:01Z</time>
      </trkpt>
      <trkpt lat="48.59171" lon="2.01534">
        <ele>94.8</ele>
        <time>2025-11-16T10:32:03Z</time>
      </trkpt>
      <trkpt lat="48.59168" lon="2.01536">
        <ele>94.8</ele>
        <time>2025-11-16T10:32:05Z</time>
      </trkpt>
      <trkpt lat="48.59165" lon="2.01538">
        <ele>94.8</ele>
        <time>2025-11-16T10:32:07Z</time>
      </trkpt>
      <trkpt lat="48.59163" lon="2.0154">
        <ele>94.8</ele>
        <time>2025-11-16T10:32:09Z</time>
      </trkpt>
      <trkpt lat="48.5916" lon="2.01542">
        <ele>94.6</ele>
        <time>2025-11-16T10:32:11Z</time>
      </trkpt>
      <trkpt lat="48.59157" lon="2.01544">
        <ele>94.6</ele>
        <time>2025-11-16T10:32:13Z</time>
      </trkpt>
      <trkpt lat="48.59155" lon="2.01545">
        <ele>94.6</ele>
        <time>2025-11-16T10:32:15Z</time>
      </trkpt>
      <trkpt lat="48.59152" lon="2.01547">
        <ele>94.8</ele>
        <time>2025-11-16T10:32:17Z</time>
      </trkpt>
      <trkpt lat="48.59149" lon="2.01548">
        <ele>94.8</ele>
        <time>2025-11-16T10:32:19Z</time>
      </trkpt>
      <trkpt lat="48.59147" lon="2.0155">
        <ele>94.6</ele>
        <time>2025-11-16T10:32:21Z</time>
      </trkpt>
      <trkpt lat="48.59144" lon="2.01552">
        <ele>94.6</ele>
        <time>2025-11-16T10:32:23Z</time>
      </trkpt>
      <trkpt lat="48.59141" lon="2.01554">
        <ele>94.6</ele>
        <time>2025-11-16T10:32:25Z</time>
      </trkpt>
      <trkpt lat="48.59139" lon="2.01556">
        <ele>94.6</ele>
        <time>2025-11-16T10:32:27Z</time>
      </trkpt>
      <trkpt lat="48.59136" lon="2.01558">
        <ele>94.6</ele>
        <time>2025-11-16T10:32:29Z</time>
      </trkpt>
      <trkpt lat="48.59133" lon="2.01559">
        <ele>94.8</ele>
        <time>2025-11-16T10:32:31Z</time>
      </trkpt>
      <trkpt lat="48.59131" lon="2.01561">
        <ele>95.2</ele>
        <time>2025-11-16T10:32:33Z</time>
      </trkpt>
      <trkpt lat="48.59128" lon="2.01562">
        <ele>95.4</ele>
        <time>2025-11-16T10:32:35Z</time>
      </trkpt>
      <trkpt lat="48.59126" lon="2.01563">
        <ele>95.4</ele>
        <time>2025-11-16T10:32:37Z</time>
      </trkpt>
      <trkpt lat="48.59124" lon="2.01565">
        <ele>95.4</ele>
        <time>2025-11-16T10:32:39Z</time>
      </trkpt>
      <trkpt lat="48.59121" lon="2.01566">
        <ele>95.4</ele>
        <time>2025-11-16T10:32:41Z</time>
      </trkpt>
      <trkpt lat="48.59119" lon="2.01568">
        <ele>95.4</ele>
        <time>2025-11-16T10:32:43Z</time>
      </trkpt>
      <trkpt lat="48.59116" lon="2.0157">
        <ele>95.4</ele>
        <time>2025-11-16T10:32:45Z</time>
      </trkpt>
      <trkpt lat="48.59113" lon="2.01572">
        <ele>95.4</ele>
        <time>2025-11-16T10:32:47Z</time>
      </trkpt>
      <trkpt lat="48.59111" lon="2.01573">
        <ele>95.4</ele>
        <time>2025-11-16T10:32:49Z</time>
      </trkpt>
      <trkpt lat="48.59108" lon="2.01575">
        <ele>95.4</ele>
        <time>2025-11-16T10:32:51Z</time>
      </trkpt>
      <trkpt lat="48.59105" lon="2.01576">
        <ele>95.4</ele>
        <time>2025-11-16T10:32:53Z</time>
      </trkpt>
      <trkpt lat="48.59102" lon="2.01578">
        <ele>95.2</ele>
        <time>2025-11-16T10:32:55Z</time>
      </trkpt>
      <trkpt lat="48.591" lon="2.01579">
        <ele>95.2</ele>
        <time>2025-11-16T10:32:57Z</time>
      </trkpt>
      <trkpt lat="48.59097" lon="2.01581">
        <ele>95.2</ele>
        <time>2025-11-16T10:32:59Z</time>
      </trkpt>
      <trkpt lat="48.59095" lon="2.01583">
        <ele>95.2</ele>
        <time>2025-11-16T10:33:01Z</time>
      </trkpt>
      <trkpt lat="48.59092" lon="2.01585">
        <ele>95.2</ele>
        <time>2025-11-16T10:33:03Z</time>
      </trkpt>
      <trkpt lat="48.59089" lon="2.01587">
        <ele>95.2</ele>
        <time>2025-11-16T10:33:05Z</time>
      </trkpt>
      <trkpt lat="48.59086" lon="2.01589">
        <ele>95.4</ele>
        <time>2025-11-16T10:33:07Z</time>
      </trkpt>
      <trkpt lat="48.59083" lon="2.0159">
        <ele>95.4</ele>
        <time>2025-11-16T10:33:09Z</time>
      </trkpt>
      <trkpt lat="48.59081" lon="2.01592">
        <ele>95.4</ele>
        <time>2025-11-16T10:33:11Z</time>
      </trkpt>
      <trkpt lat="48.59077" lon="2.01593">
        <ele>95.4</ele>
        <time>2025-11-16T10:33:13Z</time>
      </trkpt>
      <trkpt lat="48.59075" lon="2.01593">
        <ele>95.4</ele>
        <time>2025-11-16T10:33:15Z</time>
      </trkpt>
      <trkpt lat="48.59072" lon="2.01593">
        <ele>95.4</ele>
        <time>2025-11-16T10:33:17Z</time>
      </trkpt>
      <trkpt lat="48.59069" lon="2.01592">
        <ele>95.2</ele>
        <time>2025-11-16T10:33:19Z</time>
      </trkpt>
      <trkpt lat="48.59067" lon="2.01591">
        <ele>95</ele>
        <time>2025-11-16T10:33:21Z</time>
      </trkpt>
      <trkpt lat="48.59065" lon="2.0159">
        <ele>94.8</ele>
        <time>2025-11-16T10:33:23Z</time>
      </trkpt>
      <trkpt lat="48.59063" lon="2.01588">
        <ele>94.8</ele>
        <time>2025-11-16T10:33:25Z</time>
      </trkpt>
      <trkpt lat="48.59061" lon="2.01585">
        <ele>94.6</ele>
        <time>2025-11-16T10:33:27Z</time>
      </trkpt>
      <trkpt lat="48.5906" lon="2.01582">
        <ele>94.4</ele>
        <time>2025-11-16T10:33:29Z</time>
      </trkpt>
      <trkpt lat="48.59058" lon="2.01579">
        <ele>94.2</ele>
        <time>2025-11-16T10:33:31Z</time>
      </trkpt>
      <trkpt lat="48.59057" lon="2.01576">
        <ele>93.8</ele>
        <time>2025-11-16T10:33:33Z</time>
      </trkpt>
      <trkpt lat="48.59055" lon="2.01573">
        <ele>93.6</ele>
        <time>2025-11-16T10:33:35Z</time>
      </trkpt>
      <trkpt lat="48.59054" lon="2.0157">
        <ele>93.4</ele>
        <time>2025-11-16T10:33:37Z</time>
      </trkpt>
      <trkpt lat="48.59053" lon="2.01566">
        <ele>93.2</ele>
        <time>2025-11-16T10:33:39Z</time>
      </trkpt>
      <trkpt lat="48.59052" lon="2.01563">
        <ele>93</ele>
        <time>2025-11-16T10:33:41Z</time>
      </trkpt>
      <trkpt lat="48.5905" lon="2.0156">
        <ele>93</ele>
        <time>2025-11-16T10:33:43Z</time>
      </trkpt>
      <trkpt lat="48.59049" lon="2.01557">
        <ele>93.2</ele>
        <time>2025-11-16T10:33:45Z</time>
      </trkpt>
      <trkpt lat="48.59047" lon="2.01553">
        <ele>93.2</ele>
        <time>2025-11-16T10:33:47Z</time>
      </trkpt>
      <trkpt lat="48.59045" lon="2.0155">
        <ele>93.2</ele>
        <time>2025-11-16T10:33:49Z</time>
      </trkpt>
      <trkpt lat="48.59043" lon="2.01546">
        <ele>93.2</ele>
        <time>2025-11-16T10:33:51Z</time>
      </trkpt>
      <trkpt lat="48.59041" lon="2.01543">
        <ele>93</ele>
        <time>2025-11-16T10:33:53Z</time>
      </trkpt>
      <trkpt lat="48.59039" lon="2.0154">
        <ele>93</ele>
        <time>2025-11-16T10:33:55Z</time>
      </trkpt>
      <trkpt lat="48.59036" lon="2.01536">
        <ele>93</ele>
        <time>2025-11-16T10:33:57Z</time>
      </trkpt>
      <trkpt lat="48.59035" lon="2.01532">
        <ele>92.8</ele>
        <time>2025-11-16T10:33:59Z</time>
      </trkpt>
      <trkpt lat="48.59033" lon="2.01529">
        <ele>92.6</ele>
        <time>2025-11-16T10:34:01Z</time>
      </trkpt>
      <trkpt lat="48.59031" lon="2.01525">
        <ele>92.6</ele>
        <time>2025-11-16T10:34:03Z</time>
      </trkpt>
      <trkpt lat="48.5903" lon="2.01522">
        <ele>92.4</ele>
        <time>2025-11-16T10:34:05Z</time>
      </trkpt>
      <trkpt lat="48.59028" lon="2.01518">
        <ele>92.4</ele>
        <time>2025-11-16T10:34:07Z</time>
      </trkpt>
      <trkpt lat="48.59027" lon="2.01515">
        <ele>92.4</ele>
        <time>2025-11-16T10:34:09Z</time>
      </trkpt>
      <trkpt lat="48.59026" lon="2.01511">
        <ele>92.2</ele>
        <time>2025-11-16T10:34:11Z</time>
      </trkpt>
      <trkpt lat="48.59024" lon="2.01507">
        <ele>92.2</ele>
        <time>2025-11-16T10:34:13Z</time>
      </trkpt>
      <trkpt lat="48.59023" lon="2.01503">
        <ele>92.2</ele>
        <time>2025-11-16T10:34:15Z</time>
      </trkpt>
      <trkpt lat="48.59022" lon="2.01499">
        <ele>92</ele>
        <time>2025-11-16T10:34:17Z</time>
      </trkpt>
      <trkpt lat="48.59021" lon="2.01496">
        <ele>91.8</ele>
        <time>2025-11-16T10:34:19Z</time>
      </trkpt>
      <trkpt lat="48.5902" lon="2.01492">
        <ele>91.6</ele>
        <time>2025-11-16T10:34:21Z</time>
      </trkpt>
      <trkpt lat="48.59019" lon="2.01487">
        <ele>91.4</ele>
        <time>2025-11-16T10:34:23Z</time>
      </trkpt>
      <trkpt lat="48.59018" lon="2.01483">
        <ele>91.2</ele>
        <time>2025-11-16T10:34:25Z</time>
      </trkpt>
      <trkpt lat="48.59017" lon="2.01478">
        <ele>91</ele>
        <time>2025-11-16T10:34:27Z</time>
      </trkpt>
      <trkpt lat="48.59016" lon="2.01474">
        <ele>91</ele>
        <time>2025-11-16T10:34:29Z</time>
      </trkpt>
      <trkpt lat="48.59016" lon="2.0147">
        <ele>91</ele>
        <time>2025-11-16T10:34:31Z</time>
      </trkpt>
      <trkpt lat="48.59016" lon="2.01467">
        <ele>91</ele>
        <time>2025-11-16T10:34:33Z</time>
      </trkpt>
      <trkpt lat="48.59016" lon="2.01463">
        <ele>90.8</ele>
        <time>2025-11-16T10:34:35Z</time>
      </trkpt>
      <trkpt lat="48.59015" lon="2.0146">
        <ele>90.8</ele>
        <time>2025-11-16T10:34:37Z</time>
      </trkpt>
      <trkpt lat="48.59014" lon="2.01456">
        <ele>90.8</ele>
        <time>2025-11-16T10:34:39Z</time>
      </trkpt>
      <trkpt lat="48.59013" lon="2.01452">
        <ele>90.6</ele>
        <time>2025-11-16T10:34:41Z</time>
      </trkpt>
      <trkpt lat="48.59012" lon="2.01447">
        <ele>90.6</ele>
        <time>2025-11-16T10:34:43Z</time>
      </trkpt>
      <trkpt lat="48.59012" lon="2.01443">
        <ele>90.4</ele>
        <time>2025-11-16T10:34:45Z</time>
      </trkpt>
      <trkpt lat="48.59011" lon="2.01439">
        <ele>90.4</ele>
        <time>2025-11-16T10:34:47Z</time>
      </trkpt>
      <trkpt lat="48.5901" lon="2.01434">
        <ele>90.2</ele>
        <time>2025-11-16T10:34:49Z</time>
      </trkpt>
      <trkpt lat="48.5901" lon="2.0143">
        <ele>90</ele>
        <time>2025-11-16T10:34:51Z</time>
      </trkpt>
      <trkpt lat="48.59008" lon="2.01426">
        <ele>90</ele>
        <time>2025-11-16T10:34:53Z</time>
      </trkpt>
      <trkpt lat="48.59008" lon="2.01422">
        <ele>89.8</ele>
        <time>2025-11-16T10:34:55Z</time>
      </trkpt>
      <trkpt lat="48.59007" lon="2.01418">
        <ele>89.8</ele>
        <time>2025-11-16T10:34:57Z</time>
      </trkpt>
      <trkpt lat="48.59006" lon="2.01413">
        <ele>89.8</ele>
        <time>2025-11-16T10:34:59Z</time>
      </trkpt>
      <trkpt lat="48.59005" lon="2.01408">
        <ele>89.8</ele>
        <time>2025-11-16T10:35:01Z</time>
      </trkpt>
      <trkpt lat="48.59004" lon="2.01404">
        <ele>89.8</ele>
        <time>2025-11-16T10:35:03Z</time>
      </trkpt>
      <trkpt lat="48.59004" lon="2.01399">
        <ele>89.8</ele>
        <time>2025-11-16T10:35:05Z</time>
      </trkpt>
      <trkpt lat="48.59004" lon="2.01396">
        <ele>89.6</ele>
        <time>2025-11-16T10:35:07Z</time>
      </trkpt>
      <trkpt lat="48.59003" lon="2.01391">
        <ele>89.4</ele>
        <time>2025-11-16T10:35:09Z</time>
      </trkpt>
      <trkpt lat="48.59002" lon="2.01387">
        <ele>89.4</ele>
        <time>2025-11-16T10:35:11Z</time>
      </trkpt>
      <trkpt lat="48.59002" lon="2.01383">
        <ele>89.2</ele>
        <time>2025-11-16T10:35:13Z</time>
      </trkpt>
      <trkpt lat="48.59001" lon="2.01379">
        <ele>89.2</ele>
        <time>2025-11-16T10:35:15Z</time>
      </trkpt>
      <trkpt lat="48.59" lon="2.01375">
        <ele>89.2</ele>
        <time>2025-11-16T10:35:17Z</time>
      </trkpt>
      <trkpt lat="48.58999" lon="2.01371">
        <ele>89</ele>
        <time>2025-11-16T10:35:19Z</time>
      </trkpt>
      <trkpt lat="48.58998" lon="2.01367">
        <ele>89</ele>
        <time>2025-11-16T10:35:21Z</time>
      </trkpt>
      <trkpt lat="48.58998" lon="2.01363">
        <ele>89</ele>
        <time>2025-11-16T10:35:23Z</time>
      </trkpt>
      <trkpt lat="48.58997" lon="2.01358">
        <ele>89</ele>
        <time>2025-11-16T10:35:25Z</time>
      </trkpt>
      <trkpt lat="48.58996" lon="2.01354">
        <ele>88.8</ele>
        <time>2025-11-16T10:35:27Z</time>
      </trkpt>
      <trkpt lat="48.58996" lon="2.0135">
        <ele>88.6</ele>
        <time>2025-11-16T10:35:29Z</time>
      </trkpt>
      <trkpt lat="48.58996" lon="2.01346">
        <ele>88.6</ele>
        <time>2025-11-16T10:35:31Z</time>
      </trkpt>
      <trkpt lat="48.58995" lon="2.01342">
        <ele>88.4</ele>
        <time>2025-11-16T10:35:33Z</time>
      </trkpt>
      <trkpt lat="48.58994" lon="2.01337">
        <ele>88.2</ele>
        <time>2025-11-16T10:35:35Z</time>
      </trkpt>
      <trkpt lat="48.58994" lon="2.01333">
        <ele>88.2</ele>
        <time>2025-11-16T10:35:37Z</time>
      </trkpt>
      <trkpt lat="48.58993" lon="2.01329">
        <ele>88</ele>
        <time>2025-11-16T10:35:39Z</time>
      </trkpt>
      <trkpt lat="48.58992" lon="2.01325">
        <ele>87.8</ele>
        <time>2025-11-16T10:35:41Z</time>
      </trkpt>
      <trkpt lat="48.58991" lon="2.01321">
        <ele>87.6</ele>
        <time>2025-11-16T10:35:43Z</time>
      </trkpt>
      <trkpt lat="48.58991" lon="2.01317">
        <ele>87.6</ele>
        <time>2025-11-16T10:35:45Z</time>
      </trkpt>
      <trkpt lat="48.5899" lon="2.01312">
        <ele>87.6</ele>
        <time>2025-11-16T10:35:47Z</time>
      </trkpt>
      <trkpt lat="48.58988" lon="2.01308">
        <ele>87.6</ele>
        <time>2025-11-16T10:35:49Z</time>
      </trkpt>
      <trkpt lat="48.58988" lon="2.01303">
        <ele>87.4</ele>
        <time>2025-11-16T10:35:51Z</time>
      </trkpt>
      <trkpt lat="48.58987" lon="2.01299">
        <ele>87.4</ele>
        <time>2025-11-16T10:35:53Z</time>
      </trkpt>
      <trkpt lat="48.58986" lon="2.01294">
        <ele>87.6</ele>
        <time>2025-11-16T10:35:55Z</time>
      </trkpt>
      <trkpt lat="48.58984" lon="2.0129">
        <ele>87.6</ele>
        <time>2025-11-16T10:35:57Z</time>
      </trkpt>
      <trkpt lat="48.58984" lon="2.01286">
        <ele>87.8</ele>
        <time>2025-11-16T10:35:59Z</time>
      </trkpt>
      <trkpt lat="48.58983" lon="2.01281">
        <ele>88</ele>
        <time>2025-11-16T10:36:01Z</time>
      </trkpt>
      <trkpt lat="48.58982" lon="2.01277">
        <ele>88</ele>
        <time>2025-11-16T10:36:03Z</time>
      </trkpt>
      <trkpt lat="48.58981" lon="2.01273">
        <ele>88</ele>
        <time>2025-11-16T10:36:05Z</time>
      </trkpt>
      <trkpt lat="48.5898" lon="2.01269">
        <ele>88</ele>
        <time>2025-11-16T10:36:07Z</time>
      </trkpt>
      <trkpt lat="48.5898" lon="2.01265">
        <ele>88</ele>
        <time>2025-11-16T10:36:09Z</time>
      </trkpt>
      <trkpt lat="48.5898" lon="2.01261">
        <ele>87.8</ele>
        <time>2025-11-16T10:36:11Z</time>
      </trkpt>
      <trkpt lat="48.58979" lon="2.01257">
        <ele>87.8</ele>
        <time>2025-11-16T10:36:13Z</time>
      </trkpt>
      <trkpt lat="48.58978" lon="2.01252">
        <ele>87.8</ele>
        <time>2025-11-16T10:36:15Z</time>
      </trkpt>
      <trkpt lat="48.58978" lon="2.01247">
        <ele>88</ele>
        <time>2025-11-16T10:36:17Z</time>
      </trkpt>
      <trkpt lat="48.58977" lon="2.01242">
        <ele>88</ele>
        <time>2025-11-16T10:36:19Z</time>
      </trkpt>
      <trkpt lat="48.58976" lon="2.01238">
        <ele>88</ele>
        <time>2025-11-16T10:36:21Z</time>
      </trkpt>
      <trkpt lat="48.58975" lon="2.01233">
        <ele>88.2</ele>
        <time>2025-11-16T10:36:23Z</time>
      </trkpt>
      <trkpt lat="48.58974" lon="2.01229">
        <ele>88.2</ele>
        <time>2025-11-16T10:36:25Z</time>
      </trkpt>
      <trkpt lat="48.58973" lon="2.01225">
        <ele>88.2</ele>
        <time>2025-11-16T10:36:27Z</time>
      </trkpt>
      <trkpt lat="48.58972" lon="2.01221">
        <ele>88.2</ele>
        <time>2025-11-16T10:36:29Z</time>
      </trkpt>
      <trkpt lat="48.58972" lon="2.01216">
        <ele>88.2</ele>
        <time>2025-11-16T10:36:31Z</time>
      </trkpt>
      <trkpt lat="48.58971" lon="2.01212">
        <ele>88.4</ele>
        <time>2025-11-16T10:36:33Z</time>
      </trkpt>
      <trkpt lat="48.5897" lon="2.01208">
        <ele>88.6</ele>
        <time>2025-11-16T10:36:35Z</time>
      </trkpt>
      <trkpt lat="48.5897" lon="2.01204">
        <ele>88.6</ele>
        <time>2025-11-16T10:36:37Z</time>
      </trkpt>
      <trkpt lat="48.58969" lon="2.01201">
        <ele>88.8</ele>
        <time>2025-11-16T10:36:39Z</time>
      </trkpt>
      <trkpt lat="48.58968" lon="2.01197">
        <ele>88.8</ele>
        <time>2025-11-16T10:36:41Z</time>
      </trkpt>
      <trkpt lat="48.58968" lon="2.01193">
        <ele>89</ele>
        <time>2025-11-16T10:36:43Z</time>
      </trkpt>
      <trkpt lat="48.58967" lon="2.01188">
        <ele>89</ele>
        <time>2025-11-16T10:36:45Z</time>
      </trkpt>
      <trkpt lat="48.58966" lon="2.01183">
        <ele>89.2</ele>
        <time>2025-11-16T10:36:47Z</time>
      </trkpt>
      <trkpt lat="48.58965" lon="2.01179">
        <ele>89</ele>
        <time>2025-11-16T10:36:49Z</time>
      </trkpt>
      <trkpt lat="48.58964" lon="2.01174">
        <ele>89</ele>
        <time>2025-11-16T10:36:51Z</time>
      </trkpt>
      <trkpt lat="48.58964" lon="2.01169">
        <ele>89</ele>
        <time>2025-11-16T10:36:53Z</time>
      </trkpt>
      <trkpt lat="48.58963" lon="2.01163">
        <ele>89</ele>
        <time>2025-11-16T10:36:55Z</time>
      </trkpt>
      <trkpt lat="48.58962" lon="2.01159">
        <ele>89</ele>
        <time>2025-11-16T10:36:57Z</time>
      </trkpt>
      <trkpt lat="48.58962" lon="2.01154">
        <ele>89</ele>
        <time>2025-11-16T10:36:59Z</time>
      </trkpt>
      <trkpt lat="48.58961" lon="2.0115">
        <ele>89</ele>
        <time>2025-11-16T10:37:01Z</time>
      </trkpt>
      <trkpt lat="48.5896" lon="2.01146">
        <ele>89</ele>
        <time>2025-11-16T10:37:03Z</time>
      </trkpt>
      <trkpt lat="48.58959" lon="2.01142">
        <ele>89</ele>
        <time>2025-11-16T10:37:05Z</time>
      </trkpt>
      <trkpt lat="48.58958" lon="2.01137">
        <ele>89</ele>
        <time>2025-11-16T10:37:07Z</time>
      </trkpt>
      <trkpt lat="48.58957" lon="2.01133">
        <ele>89.2</ele>
        <time>2025-11-16T10:37:09Z</time>
      </trkpt>
      <trkpt lat="48.58956" lon="2.01129">
        <ele>89.2</ele>
        <time>2025-11-16T10:37:11Z</time>
      </trkpt>
      <trkpt lat="48.58955" lon="2.01125">
        <ele>89.4</ele>
        <time>2025-11-16T10:37:13Z</time>
      </trkpt>
      <trkpt lat="48.58954" lon="2.0112">
        <ele>89.6</ele>
        <time>2025-11-16T10:37:15Z</time>
      </trkpt>
      <trkpt lat="48.58954" lon="2.01115">
        <ele>89.8</ele>
        <time>2025-11-16T10:37:17Z</time>
      </trkpt>
      <trkpt lat="48.58954" lon="2.0111">
        <ele>90</ele>
        <time>2025-11-16T10:37:19Z</time>
      </trkpt>
      <trkpt lat="48.58953" lon="2.01105">
        <ele>90.2</ele>
        <time>2025-11-16T10:37:21Z</time>
      </trkpt>
      <trkpt lat="48.58952" lon="2.01101">
        <ele>90.2</ele>
        <time>2025-11-16T10:37:23Z</time>
      </trkpt>
      <trkpt lat="48.5895" lon="2.01096">
        <ele>90.4</ele>
        <time>2025-11-16T10:37:25Z</time>
      </trkpt>
      <trkpt lat="48.58949" lon="2.01092">
        <ele>90.6</ele>
        <time>2025-11-16T10:37:27Z</time>
      </trkpt>
      <trkpt lat="48.58948" lon="2.01088">
        <ele>90.6</ele>
        <time>2025-11-16T10:37:29Z</time>
      </trkpt>
      <trkpt lat="48.58948" lon="2.01084">
        <ele>90.8</ele>
        <time>2025-11-16T10:37:31Z</time>
      </trkpt>
      <trkpt lat="48.58948" lon="2.0108">
        <ele>91</ele>
        <time>2025-11-16T10:37:33Z</time>
      </trkpt>
      <trkpt lat="48.58947" lon="2.01075">
        <ele>91.2</ele>
        <time>2025-11-16T10:37:35Z</time>
      </trkpt>
      <trkpt lat="48.58946" lon="2.0107">
        <ele>91.2</ele>
        <time>2025-11-16T10:37:37Z</time>
      </trkpt>
      <trkpt lat="48.58946" lon="2.01065">
        <ele>91.4</ele>
        <time>2025-11-16T10:37:39Z</time>
      </trkpt>
      <trkpt lat="48.58945" lon="2.0106">
        <ele>91.6</ele>
        <time>2025-11-16T10:37:41Z</time>
      </trkpt>
      <trkpt lat="48.58944" lon="2.01056">
        <ele>91.8</ele>
        <time>2025-11-16T10:37:43Z</time>
      </trkpt>
      <trkpt lat="48.58943" lon="2.01052">
        <ele>91.8</ele>
        <time>2025-11-16T10:37:45Z</time>
      </trkpt>
      <trkpt lat="48.58942" lon="2.01047">
        <ele>91.8</ele>
        <time>2025-11-16T10:37:47Z</time>
      </trkpt>
      <trkpt lat="48.58941" lon="2.01042">
        <ele>91.8</ele>
        <time>2025-11-16T10:37:49Z</time>
      </trkpt>
      <trkpt lat="48.58941" lon="2.01039">
        <ele>91.8</ele>
        <time>2025-11-16T10:37:50Z</time>
      </trkpt>
      <trkpt lat="48.58941" lon="2.01034">
        <ele>92</ele>
        <time>2025-11-16T10:37:52Z</time>
      </trkpt>
      <trkpt lat="48.58941" lon="2.0103">
        <ele>92.2</ele>
        <time>2025-11-16T10:37:54Z</time>
      </trkpt>
      <trkpt lat="48.58941" lon="2.01026">
        <ele>92.4</ele>
        <time>2025-11-16T10:37:56Z</time>
      </trkpt>
      <trkpt lat="48.58942" lon="2.01023">
        <ele>92.6</ele>
        <time>2025-11-16T10:37:58Z</time>
      </trkpt>
      <trkpt lat="48.58944" lon="2.01022">
        <ele>92.8</ele>
        <time>2025-11-16T10:38:00Z</time>
      </trkpt>
      <trkpt lat="48.58946" lon="2.01023">
        <ele>92.8</ele>
        <time>2025-11-16T10:38:02Z</time>
      </trkpt>
      <trkpt lat="48.58948" lon="2.01024">
        <ele>93</ele>
        <time>2025-11-16T10:38:04Z</time>
      </trkpt>
      <trkpt lat="48.58951" lon="2.01025">
        <ele>93.2</ele>
        <time>2025-11-16T10:38:06Z</time>
      </trkpt>
      <trkpt lat="48.58953" lon="2.01026">
        <ele>93.4</ele>
        <time>2025-11-16T10:38:08Z</time>
      </trkpt>
      <trkpt lat="48.58956" lon="2.01027">
        <ele>93.8</ele>
        <time>2025-11-16T10:38:10Z</time>
      </trkpt>
      <trkpt lat="48.58959" lon="2.01029">
        <ele>94</ele>
        <time>2025-11-16T10:38:12Z</time>
      </trkpt>
      <trkpt lat="48.58961" lon="2.0103">
        <ele>94</ele>
        <time>2025-11-16T10:38:13Z</time>
      </trkpt>
      <trkpt lat="48.58964" lon="2.01031">
        <ele>94.2</ele>
        <time>2025-11-16T10:38:15Z</time>
      </trkpt>
      <trkpt lat="48.58966" lon="2.01032">
        <ele>94.4</ele>
        <time>2025-11-16T10:38:17Z</time>
      </trkpt>
      <trkpt lat="48.58968" lon="2.01033">
        <ele>94.6</ele>
        <time>2025-11-16T10:38:19Z</time>
      </trkpt>
      <trkpt lat="48.58971" lon="2.01034">
        <ele>94.8</ele>
        <time>2025-11-16T10:38:21Z</time>
      </trkpt>
      <trkpt lat="48.58974" lon="2.01035">
        <ele>95.2</ele>
        <time>2025-11-16T10:38:23Z</time>
      </trkpt>
      <trkpt lat="48.58976" lon="2.01036">
        <ele>95.6</ele>
        <time>2025-11-16T10:38:25Z</time>
      </trkpt>
      <trkpt lat="48.58978" lon="2.01036">
        <ele>95.8</ele>
        <time>2025-11-16T10:38:27Z</time>
      </trkpt>
      <trkpt lat="48.5898" lon="2.01035">
        <ele>96.2</ele>
        <time>2025-11-16T10:38:30Z</time>
      </trkpt>
      <trkpt lat="48.58983" lon="2.01035">
        <ele>96.4</ele>
        <time>2025-11-16T10:38:32Z</time>
      </trkpt>
      <trkpt lat="48.58985" lon="2.01034">
        <ele>96.8</ele>
        <time>2025-11-16T10:38:34Z</time>
      </trkpt>
      <trkpt lat="48.58988" lon="2.01033">
        <ele>97.2</ele>
        <time>2025-11-16T10:38:36Z</time>
      </trkpt>
      <trkpt lat="48.58991" lon="2.01032">
        <ele>97.4</ele>
        <time>2025-11-16T10:38:38Z</time>
      </trkpt>
      <trkpt lat="48.58994" lon="2.01031">
        <ele>97.6</ele>
        <time>2025-11-16T10:38:40Z</time>
      </trkpt>
      <trkpt lat="48.58996" lon="2.0103">
        <ele>97.8</ele>
        <time>2025-11-16T10:38:41Z</time>
      </trkpt>
      <trkpt lat="48.58998" lon="2.0103">
        <ele>97.8</ele>
        <time>2025-11-16T10:38:42Z</time>
      </trkpt>
      <trkpt lat="48.59" lon="2.01029">
        <ele>98</ele>
        <time>2025-11-16T10:38:43Z</time>
      </trkpt>
      <trkpt lat="48.59003" lon="2.01028">
        <ele>98</ele>
        <time>2025-11-16T10:38:44Z</time>
      </trkpt>
      <trkpt lat="48.59005" lon="2.01027">
        <ele>98</ele>
        <time>2025-11-16T10:38:45Z</time>
      </trkpt>
      <trkpt lat="48.59007" lon="2.01026">
        <ele>98.2</ele>
        <time>2025-11-16T10:38:46Z</time>
      </trkpt>
      <trkpt lat="48.59011" lon="2.01024">
        <ele>98.2</ele>
        <time>2025-11-16T10:38:48Z</time>
      </trkpt>
      <trkpt lat="48.59014" lon="2.01023">
        <ele>98.4</ele>
        <time>2025-11-16T10:38:50Z</time>
      </trkpt>
      <trkpt lat="48.59017" lon="2.01022">
        <ele>98.6</ele>
        <time>2025-11-16T10:38:52Z</time>
      </trkpt>
      <trkpt lat="48.5902" lon="2.01021">
        <ele>98.8</ele>
        <time>2025-11-16T10:38:54Z</time>
      </trkpt>
      <trkpt lat="48.59022" lon="2.0102">
        <ele>99</ele>
        <time>2025-11-16T10:38:56Z</time>
      </trkpt>
      <trkpt lat="48.59026" lon="2.0102">
        <ele>99.4</ele>
        <time>2025-11-16T10:38:58Z</time>
      </trkpt>
      <trkpt lat="48.59029" lon="2.01019">
        <ele>99.6</ele>
        <time>2025-11-16T10:39:00Z</time>
      </trkpt>
      <trkpt lat="48.59031" lon="2.01019">
        <ele>99.8</ele>
        <time>2025-11-16T10:39:01Z</time>
      </trkpt>
      <trkpt lat="48.59035" lon="2.01018">
        <ele>100</ele>
        <time>2025-11-16T10:39:03Z</time>
      </trkpt>
      <trkpt lat="48.59038" lon="2.01016">
        <ele>100.2</ele>
        <time>2025-11-16T10:39:05Z</time>
      </trkpt>
      <trkpt lat="48.5904" lon="2.01015">
        <ele>100.4</ele>
        <time>2025-11-16T10:39:07Z</time>
      </trkpt>
      <trkpt lat="48.59043" lon="2.01014">
        <ele>100.6</ele>
        <time>2025-11-16T10:39:09Z</time>
      </trkpt>
      <trkpt lat="48.59046" lon="2.01013">
        <ele>101</ele>
        <time>2025-11-16T10:39:11Z</time>
      </trkpt>
      <trkpt lat="48.59048" lon="2.01012">
        <ele>101.4</ele>
        <time>2025-11-16T10:39:13Z</time>
      </trkpt>
      <trkpt lat="48.59051" lon="2.01011">
        <ele>101.8</ele>
        <time>2025-11-16T10:39:15Z</time>
      </trkpt>
      <trkpt lat="48.59053" lon="2.01011">
        <ele>102</ele>
        <time>2025-11-16T10:39:17Z</time>
      </trkpt>
      <trkpt lat="48.59055" lon="2.01011">
        <ele>102.4</ele>
        <time>2025-11-16T10:39:19Z</time>
      </trkpt>
      <trkpt lat="48.59057" lon="2.0101">
        <ele>102.6</ele>
        <time>2025-11-16T10:39:21Z</time>
      </trkpt>
      <trkpt lat="48.5906" lon="2.0101">
        <ele>102.8</ele>
        <time>2025-11-16T10:39:23Z</time>
      </trkpt>
      <trkpt lat="48.59063" lon="2.01009">
        <ele>103</ele>
        <time>2025-11-16T10:39:25Z</time>
      </trkpt>
      <trkpt lat="48.59066" lon="2.01008">
        <ele>103.2</ele>
        <time>2025-11-16T10:39:27Z</time>
      </trkpt>
      <trkpt lat="48.59068" lon="2.01007">
        <ele>103.6</ele>
        <time>2025-11-16T10:39:29Z</time>
      </trkpt>
      <trkpt lat="48.5907" lon="2.01006">
        <ele>103.8</ele>
        <time>2025-11-16T10:39:31Z</time>
      </trkpt>
      <trkpt lat="48.59073" lon="2.01004">
        <ele>104.2</ele>
        <time>2025-11-16T10:39:33Z</time>
      </trkpt>
      <trkpt lat="48.59076" lon="2.01002">
        <ele>104.6</ele>
        <time>2025-11-16T10:39:35Z</time>
      </trkpt>
      <trkpt lat="48.59079" lon="2.01">
        <ele>104.8</ele>
        <time>2025-11-16T10:39:37Z</time>
      </trkpt>
      <trkpt lat="48.59081" lon="2.00999">
        <ele>105</ele>
        <time>2025-11-16T10:39:38Z</time>
      </trkpt>
      <trkpt lat="48.59084" lon="2.00997">
        <ele>105</ele>
        <time>2025-11-16T10:39:40Z</time>
      </trkpt>
      <trkpt lat="48.59086" lon="2.00996">
        <ele>105.2</ele>
        <time>2025-11-16T10:39:42Z</time>
      </trkpt>
      <trkpt lat="48.59088" lon="2.00995">
        <ele>105.6</ele>
        <time>2025-11-16T10:39:45Z</time>
      </trkpt>
      <trkpt lat="48.59091" lon="2.00994">
        <ele>105.8</ele>
        <time>2025-11-16T10:39:47Z</time>
      </trkpt>
      <trkpt lat="48.59093" lon="2.00992">
        <ele>106</ele>
        <time>2025-11-16T10:39:49Z</time>
      </trkpt>
      <trkpt lat="48.59097" lon="2.00991">
        <ele>106.2</ele>
        <time>2025-11-16T10:39:51Z</time>
      </trkpt>
      <trkpt lat="48.591" lon="2.00989">
        <ele>106.2</ele>
        <time>2025-11-16T10:39:53Z</time>
      </trkpt>
      <trkpt lat="48.59102" lon="2.00988">
        <ele>106.4</ele>
        <time>2025-11-16T10:39:55Z</time>
      </trkpt>
      <trkpt lat="48.59105" lon="2.00986">
        <ele>106.6</ele>
        <time>2025-11-16T10:39:57Z</time>
      </trkpt>
      <trkpt lat="48.59107" lon="2.00985">
        <ele>106.6</ele>
        <time>2025-11-16T10:39:59Z</time>
      </trkpt>
      <trkpt lat="48.59109" lon="2.00984">
        <ele>106.6</ele>
        <time>2025-11-16T10:40:01Z</time>
      </trkpt>
      <trkpt lat="48.59113" lon="2.00984">
        <ele>106.8</ele>
        <time>2025-11-16T10:40:03Z</time>
      </trkpt>
      <trkpt lat="48.59116" lon="2.00983">
        <ele>106.8</ele>
        <time>2025-11-16T10:40:05Z</time>
      </trkpt>
      <trkpt lat="48.59119" lon="2.00982">
        <ele>106.8</ele>
        <time>2025-11-16T10:40:07Z</time>
      </trkpt>
      <trkpt lat="48.59121" lon="2.00982">
        <ele>106.8</ele>
        <time>2025-11-16T10:40:09Z</time>
      </trkpt>
      <trkpt lat="48.59124" lon="2.00982">
        <ele>106.8</ele>
        <time>2025-11-16T10:40:11Z</time>
      </trkpt>
      <trkpt lat="48.59127" lon="2.00982">
        <ele>107</ele>
        <time>2025-11-16T10:40:13Z</time>
      </trkpt>
      <trkpt lat="48.59129" lon="2.00982">
        <ele>107</ele>
        <time>2025-11-16T10:40:14Z</time>
      </trkpt>
      <trkpt lat="48.59132" lon="2.00981">
        <ele>107</ele>
        <time>2025-11-16T10:40:16Z</time>
      </trkpt>
      <trkpt lat="48.59135" lon="2.0098">
        <ele>107.4</ele>
        <time>2025-11-16T10:40:19Z</time>
      </trkpt>
      <trkpt lat="48.59137" lon="2.00979">
        <ele>107.8</ele>
        <time>2025-11-16T10:40:21Z</time>
      </trkpt>
      <trkpt lat="48.59139" lon="2.00979">
        <ele>108</ele>
        <time>2025-11-16T10:40:23Z</time>
      </trkpt>
      <trkpt lat="48.59141" lon="2.00978">
        <ele>108.4</ele>
        <time>2025-11-16T10:40:25Z</time>
      </trkpt>
      <trkpt lat="48.59145" lon="2.00978">
        <ele>108.6</ele>
        <time>2025-11-16T10:40:27Z</time>
      </trkpt>
      <trkpt lat="48.59148" lon="2.00978">
        <ele>108.8</ele>
        <time>2025-11-16T10:40:29Z</time>
      </trkpt>
      <trkpt lat="48.59151" lon="2.00978">
        <ele>109</ele>
        <time>2025-11-16T10:40:31Z</time>
      </trkpt>
      <trkpt lat="48.59154" lon="2.00978">
        <ele>109.2</ele>
        <time>2025-11-16T10:40:33Z</time>
      </trkpt>
      <trkpt lat="48.59157" lon="2.00978">
        <ele>109.2</ele>
        <time>2025-11-16T10:40:35Z</time>
      </trkpt>
      <trkpt lat="48.5916" lon="2.00979">
        <ele>109.4</ele>
        <time>2025-11-16T10:40:37Z</time>
      </trkpt>
      <trkpt lat="48.59163" lon="2.00979">
        <ele>109.6</ele>
        <time>2025-11-16T10:40:39Z</time>
      </trkpt>
      <trkpt lat="48.59167" lon="2.00979">
        <ele>109.6</ele>
        <time>2025-11-16T10:40:41Z</time>
      </trkpt>
      <trkpt lat="48.59169" lon="2.00978">
        <ele>109.6</ele>
        <time>2025-11-16T10:40:42Z</time>
      </trkpt>
      <trkpt lat="48.59171" lon="2.00978">
        <ele>109.6</ele>
        <time>2025-11-16T10:40:43Z</time>
      </trkpt>
      <trkpt lat="48.59172" lon="2.00978">
        <ele>109.6</ele>
        <time>2025-11-16T10:40:44Z</time>
      </trkpt>
      <trkpt lat="48.59174" lon="2.00978">
        <ele>109.6</ele>
        <time>2025-11-16T10:40:45Z</time>
      </trkpt>
      <trkpt lat="48.59176" lon="2.00978">
        <ele>109.6</ele>
        <time>2025-11-16T10:40:46Z</time>
      </trkpt>
      <trkpt lat="48.59178" lon="2.00978">
        <ele>109.6</ele>
        <time>2025-11-16T10:40:47Z</time>
      </trkpt>
      <trkpt lat="48.5918" lon="2.00978">
        <ele>109.4</ele>
        <time>2025-11-16T10:40:48Z</time>
      </trkpt>
      <trkpt lat="48.59184" lon="2.00977">
        <ele>109.4</ele>
        <time>2025-11-16T10:40:50Z</time>
      </trkpt>
      <trkpt lat="48.59186" lon="2.00977">
        <ele>109.2</ele>
        <time>2025-11-16T10:40:51Z</time>
      </trkpt>
      <trkpt lat="48.59188" lon="2.00977">
        <ele>109.2</ele>
        <time>2025-11-16T10:40:52Z</time>
      </trkpt>
      <trkpt lat="48.59191" lon="2.00977">
        <ele>109</ele>
        <time>2025-11-16T10:40:54Z</time>
      </trkpt>
      <trkpt lat="48.59195" lon="2.00978">
        <ele>108.6</ele>
        <time>2025-11-16T10:40:56Z</time>
      </trkpt>
      <trkpt lat="48.59197" lon="2.00979">
        <ele>108.2</ele>
        <time>2025-11-16T10:40:58Z</time>
      </trkpt>
      <trkpt lat="48.592" lon="2.00978">
        <ele>107.8</ele>
        <time>2025-11-16T10:41:00Z</time>
      </trkpt>
      <trkpt lat="48.59202" lon="2.00978">
        <ele>107.6</ele>
        <time>2025-11-16T10:41:01Z</time>
      </trkpt>
      <trkpt lat="48.59205" lon="2.00978">
        <ele>107.2</ele>
        <time>2025-11-16T10:41:03Z</time>
      </trkpt>
      <trkpt lat="48.59207" lon="2.00978">
        <ele>107.2</ele>
        <time>2025-11-16T10:41:04Z</time>
      </trkpt>
      <trkpt lat="48.5921" lon="2.00977">
        <ele>107</ele>
        <time>2025-11-16T10:41:05Z</time>
      </trkpt>
      <trkpt lat="48.59213" lon="2.00976">
        <ele>106.8</ele>
        <time>2025-11-16T10:41:07Z</time>
      </trkpt>
      <trkpt lat="48.59215" lon="2.00975">
        <ele>106.6</ele>
        <time>2025-11-16T10:41:08Z</time>
      </trkpt>
      <trkpt lat="48.59217" lon="2.00975">
        <ele>106.4</ele>
        <time>2025-11-16T10:41:09Z</time>
      </trkpt>
      <trkpt lat="48.5922" lon="2.00974">
        <ele>106.2</ele>
        <time>2025-11-16T10:41:11Z</time>
      </trkpt>
      <trkpt lat="48.59224" lon="2.00973">
        <ele>106</ele>
        <time>2025-11-16T10:41:13Z</time>
      </trkpt>
      <trkpt lat="48.59227" lon="2.00971">
        <ele>106</ele>
        <time>2025-11-16T10:41:15Z</time>
      </trkpt>
      <trkpt lat="48.59229" lon="2.00968">
        <ele>106</ele>
        <time>2025-11-16T10:41:17Z</time>
      </trkpt>
      <trkpt lat="48.59232" lon="2.00966">
        <ele>106</ele>
        <time>2025-11-16T10:41:19Z</time>
      </trkpt>
      <trkpt lat="48.59234" lon="2.00964">
        <ele>105.8</ele>
        <time>2025-11-16T10:41:21Z</time>
      </trkpt>
      <trkpt lat="48.59236" lon="2.00963">
        <ele>105.8</ele>
        <time>2025-11-16T10:41:23Z</time>
      </trkpt>
      <trkpt lat="48.59239" lon="2.00962">
        <ele>105.8</ele>
        <time>2025-11-16T10:41:25Z</time>
      </trkpt>
      <trkpt lat="48.59242" lon="2.00961">
        <ele>106</ele>
        <time>2025-11-16T10:41:27Z</time>
      </trkpt>
      <trkpt lat="48.59244" lon="2.0096">
        <ele>106.2</ele>
        <time>2025-11-16T10:41:28Z</time>
      </trkpt>
      <trkpt lat="48.59247" lon="2.00958">
        <ele>106.4</ele>
        <time>2025-11-16T10:41:30Z</time>
      </trkpt>
      <trkpt lat="48.5925" lon="2.00955">
        <ele>106.6</ele>
        <time>2025-11-16T10:41:32Z</time>
      </trkpt>
      <trkpt lat="48.59252" lon="2.00954">
        <ele>106.6</ele>
        <time>2025-11-16T10:41:33Z</time>
      </trkpt>
      <trkpt lat="48.59255" lon="2.00952">
        <ele>106.6</ele>
        <time>2025-11-16T10:41:35Z</time>
      </trkpt>
      <trkpt lat="48.59258" lon="2.0095">
        <ele>106.4</ele>
        <time>2025-11-16T10:41:37Z</time>
      </trkpt>
      <trkpt lat="48.5926" lon="2.00949">
        <ele>106.2</ele>
        <time>2025-11-16T10:41:39Z</time>
      </trkpt>
      <trkpt lat="48.59262" lon="2.00947">
        <ele>106.2</ele>
        <time>2025-11-16T10:41:41Z</time>
      </trkpt>
      <trkpt lat="48.59265" lon="2.00946">
        <ele>106.2</ele>
        <time>2025-11-16T10:41:43Z</time>
      </trkpt>
      <trkpt lat="48.59268" lon="2.00944">
        <ele>106.2</ele>
        <time>2025-11-16T10:41:45Z</time>
      </trkpt>
      <trkpt lat="48.59271" lon="2.00941">
        <ele>106.2</ele>
        <time>2025-11-16T10:41:47Z</time>
      </trkpt>
      <trkpt lat="48.59272" lon="2.0094">
        <ele>106.2</ele>
        <time>2025-11-16T10:41:48Z</time>
      </trkpt>
      <trkpt lat="48.59275" lon="2.00936">
        <ele>106.2</ele>
        <time>2025-11-16T10:41:50Z</time>
      </trkpt>
      <trkpt lat="48.59278" lon="2.00933">
        <ele>106.2</ele>
        <time>2025-11-16T10:41:52Z</time>
      </trkpt>
      <trkpt lat="48.59279" lon="2.00931">
        <ele>106.2</ele>
        <time>2025-11-16T10:41:53Z</time>
      </trkpt>
      <trkpt lat="48.59282" lon="2.00929">
        <ele>106</ele>
        <time>2025-11-16T10:41:55Z</time>
      </trkpt>
      <trkpt lat="48.59284" lon="2.00927">
        <ele>106</ele>
        <time>2025-11-16T10:41:57Z</time>
      </trkpt>
      <trkpt lat="48.59287" lon="2.00924">
        <ele>106</ele>
        <time>2025-11-16T10:41:59Z</time>
      </trkpt>
      <trkpt lat="48.5929" lon="2.00922">
        <ele>106.2</ele>
        <time>2025-11-16T10:42:01Z</time>
      </trkpt>
      <trkpt lat="48.59292" lon="2.0092">
        <ele>106.2</ele>
        <time>2025-11-16T10:42:03Z</time>
      </trkpt>
      <trkpt lat="48.59294" lon="2.00918">
        <ele>106.2</ele>
        <time>2025-11-16T10:42:05Z</time>
      </trkpt>
      <trkpt lat="48.59297" lon="2.00915">
        <ele>106.4</ele>
        <time>2025-11-16T10:42:07Z</time>
      </trkpt>
      <trkpt lat="48.59299" lon="2.00913">
        <ele>106.4</ele>
        <time>2025-11-16T10:42:09Z</time>
      </trkpt>
      <trkpt lat="48.59301" lon="2.0091">
        <ele>106.4</ele>
        <time>2025-11-16T10:42:11Z</time>
      </trkpt>
      <trkpt lat="48.59304" lon="2.00906">
        <ele>106.6</ele>
        <time>2025-11-16T10:42:13Z</time>
      </trkpt>
      <trkpt lat="48.59306" lon="2.00903">
        <ele>106.6</ele>
        <time>2025-11-16T10:42:15Z</time>
      </trkpt>
      <trkpt lat="48.59308" lon="2.00899">
        <ele>106.6</ele>
        <time>2025-11-16T10:42:17Z</time>
      </trkpt>
      <trkpt lat="48.5931" lon="2.00895">
        <ele>106.6</ele>
        <time>2025-11-16T10:42:19Z</time>
      </trkpt>
      <trkpt lat="48.59312" lon="2.00892">
        <ele>106.4</ele>
        <time>2025-11-16T10:42:21Z</time>
      </trkpt>
      <trkpt lat="48.59314" lon="2.00889">
        <ele>106.6</ele>
        <time>2025-11-16T10:42:23Z</time>
      </trkpt>
      <trkpt lat="48.59316" lon="2.00887">
        <ele>106.6</ele>
        <time>2025-11-16T10:42:25Z</time>
      </trkpt>
      <trkpt lat="48.59318" lon="2.00885">
        <ele>106.6</ele>
        <time>2025-11-16T10:42:27Z</time>
      </trkpt>
      <trkpt lat="48.5932" lon="2.00882">
        <ele>106.6</ele>
        <time>2025-11-16T10:42:30Z</time>
      </trkpt>
      <trkpt lat="48.59321" lon="2.0088">
        <ele>106.6</ele>
        <time>2025-11-16T10:42:32Z</time>
      </trkpt>
      <trkpt lat="48.59322" lon="2.00876">
        <ele>106.6</ele>
        <time>2025-11-16T10:42:34Z</time>
      </trkpt>
      <trkpt lat="48.59323" lon="2.00872">
        <ele>106.6</ele>
        <time>2025-11-16T10:42:36Z</time>
      </trkpt>
      <trkpt lat="48.59324" lon="2.00868">
        <ele>106.8</ele>
        <time>2025-11-16T10:42:38Z</time>
      </trkpt>
      <trkpt lat="48.59325" lon="2.00864">
        <ele>107</ele>
        <time>2025-11-16T10:42:40Z</time>
      </trkpt>
      <trkpt lat="48.59326" lon="2.00861">
        <ele>107.2</ele>
        <time>2025-11-16T10:42:42Z</time>
      </trkpt>
      <trkpt lat="48.59327" lon="2.00857">
        <ele>107.4</ele>
        <time>2025-11-16T10:42:44Z</time>
      </trkpt>
      <trkpt lat="48.59328" lon="2.00855">
        <ele>107.6</ele>
        <time>2025-11-16T10:42:46Z</time>
      </trkpt>
      <trkpt lat="48.5933" lon="2.00852">
        <ele>107.8</ele>
        <time>2025-11-16T10:42:48Z</time>
      </trkpt>
      <trkpt lat="48.59331" lon="2.0085">
        <ele>108</ele>
        <time>2025-11-16T10:42:50Z</time>
      </trkpt>
      <trkpt lat="48.59333" lon="2.00847">
        <ele>108.2</ele>
        <time>2025-11-16T10:42:52Z</time>
      </trkpt>
      <trkpt lat="48.59335" lon="2.00844">
        <ele>108.2</ele>
        <time>2025-11-16T10:42:54Z</time>
      </trkpt>
      <trkpt lat="48.59336" lon="2.00842">
        <ele>108.2</ele>
        <time>2025-11-16T10:42:56Z</time>
      </trkpt>
      <trkpt lat="48.59338" lon="2.00839">
        <ele>108.2</ele>
        <time>2025-11-16T10:42:58Z</time>
      </trkpt>
      <trkpt lat="48.5934" lon="2.00836">
        <ele>108.6</ele>
        <time>2025-11-16T10:43:00Z</time>
      </trkpt>
      <trkpt lat="48.59341" lon="2.00833">
        <ele>109</ele>
        <time>2025-11-16T10:43:02Z</time>
      </trkpt>
      <trkpt lat="48.59343" lon="2.00831">
        <ele>109</ele>
        <time>2025-11-16T10:43:03Z</time>
      </trkpt>
      <trkpt lat="48.59344" lon="2.00827">
        <ele>109</ele>
        <time>2025-11-16T10:43:05Z</time>
      </trkpt>
      <trkpt lat="48.59346" lon="2.00823">
        <ele>109.2</ele>
        <time>2025-11-16T10:43:07Z</time>
      </trkpt>
      <trkpt lat="48.59347" lon="2.0082">
        <ele>109.2</ele>
        <time>2025-11-16T10:43:09Z</time>
      </trkpt>
      <trkpt lat="48.59348" lon="2.00817">
        <ele>109.6</ele>
        <time>2025-11-16T10:43:11Z</time>
      </trkpt>
      <trkpt lat="48.59349" lon="2.00814">
        <ele>109.8</ele>
        <time>2025-11-16T10:43:14Z</time>
      </trkpt>
      <trkpt lat="48.59349" lon="2.00811">
        <ele>110</ele>
        <time>2025-11-16T10:43:16Z</time>
      </trkpt>
      <trkpt lat="48.59349" lon="2.00806">
        <ele>110.2</ele>
        <time>2025-11-16T10:43:18Z</time>
      </trkpt>
      <trkpt lat="48.59349" lon="2.00803">
        <ele>110.2</ele>
        <time>2025-11-16T10:43:19Z</time>
      </trkpt>
      <trkpt lat="48.5935" lon="2.008">
        <ele>110.2</ele>
        <time>2025-11-16T10:43:20Z</time>
      </trkpt>
      <trkpt lat="48.59351" lon="2.00797">
        <ele>110</ele>
        <time>2025-11-16T10:43:21Z</time>
      </trkpt>
      <trkpt lat="48.59352" lon="2.00794">
        <ele>110</ele>
        <time>2025-11-16T10:43:22Z</time>
      </trkpt>
      <trkpt lat="48.59353" lon="2.00791">
        <ele>110</ele>
        <time>2025-11-16T10:43:23Z</time>
      </trkpt>
      <trkpt lat="48.59355" lon="2.0079">
        <ele>110</ele>
        <time>2025-11-16T10:43:24Z</time>
      </trkpt>
      <trkpt lat="48.59357" lon="2.00786">
        <ele>110</ele>
        <time>2025-11-16T10:43:26Z</time>
      </trkpt>
      <trkpt lat="48.59359" lon="2.00781">
        <ele>110</ele>
        <time>2025-11-16T10:43:28Z</time>
      </trkpt>
      <trkpt lat="48.59361" lon="2.00779">
        <ele>110</ele>
        <time>2025-11-16T10:43:29Z</time>
      </trkpt>
      <trkpt lat="48.59362" lon="2.00776">
        <ele>110</ele>
        <time>2025-11-16T10:43:30Z</time>
      </trkpt>
      <trkpt lat="48.59363" lon="2.00774">
        <ele>110</ele>
        <time>2025-11-16T10:43:31Z</time>
      </trkpt>
      <trkpt lat="48.59364" lon="2.00771">
        <ele>110</ele>
        <time>2025-11-16T10:43:33Z</time>
      </trkpt>
      <trkpt lat="48.59365" lon="2.00768">
        <ele>109.8</ele>
        <time>2025-11-16T10:43:35Z</time>
      </trkpt>
      <trkpt lat="48.59367" lon="2.00766">
        <ele>109.4</ele>
        <time>2025-11-16T10:43:37Z</time>
      </trkpt>
      <trkpt lat="48.59369" lon="2.00764">
        <ele>109.2</ele>
        <time>2025-11-16T10:43:40Z</time>
      </trkpt>
      <trkpt lat="48.59371" lon="2.00762">
        <ele>109</ele>
        <time>2025-11-16T10:43:42Z</time>
      </trkpt>
      <trkpt lat="48.59372" lon="2.00759">
        <ele>108.8</ele>
        <time>2025-11-16T10:43:44Z</time>
      </trkpt>
      <trkpt lat="48.59375" lon="2.00756">
        <ele>109</ele>
        <time>2025-11-16T10:43:46Z</time>
      </trkpt>
      <trkpt lat="48.59377" lon="2.00753">
        <ele>109</ele>
        <time>2025-11-16T10:43:48Z</time>
      </trkpt>
      <trkpt lat="48.59379" lon="2.00749">
        <ele>109</ele>
        <time>2025-11-16T10:43:50Z</time>
      </trkpt>
      <trkpt lat="48.5938" lon="2.00745">
        <ele>109</ele>
        <time>2025-11-16T10:43:52Z</time>
      </trkpt>
      <trkpt lat="48.59381" lon="2.00743">
        <ele>109</ele>
        <time>2025-11-16T10:43:53Z</time>
      </trkpt>
      <trkpt lat="48.59383" lon="2.00739">
        <ele>109.2</ele>
        <time>2025-11-16T10:43:55Z</time>
      </trkpt>
      <trkpt lat="48.59385" lon="2.00735">
        <ele>109.2</ele>
        <time>2025-11-16T10:43:57Z</time>
      </trkpt>
      <trkpt lat="48.59386" lon="2.00733">
        <ele>109.2</ele>
        <time>2025-11-16T10:43:58Z</time>
      </trkpt>
      <trkpt lat="48.59388" lon="2.00729">
        <ele>109.2</ele>
        <time>2025-11-16T10:44:00Z</time>
      </trkpt>
      <trkpt lat="48.5939" lon="2.00725">
        <ele>109</ele>
        <time>2025-11-16T10:44:02Z</time>
      </trkpt>
      <trkpt lat="48.59392" lon="2.00721">
        <ele>109</ele>
        <time>2025-11-16T10:44:04Z</time>
      </trkpt>
      <trkpt lat="48.59393" lon="2.00717">
        <ele>108.8</ele>
        <time>2025-11-16T10:44:06Z</time>
      </trkpt>
      <trkpt lat="48.59395" lon="2.00714">
        <ele>108.8</ele>
        <time>2025-11-16T10:44:08Z</time>
      </trkpt>
      <trkpt lat="48.59396" lon="2.00711">
        <ele>108.8</ele>
        <time>2025-11-16T10:44:10Z</time>
      </trkpt>
      <trkpt lat="48.59397" lon="2.00708">
        <ele>108.6</ele>
        <time>2025-11-16T10:44:12Z</time>
      </trkpt>
      <trkpt lat="48.59397" lon="2.00705">
        <ele>108.6</ele>
        <time>2025-11-16T10:44:14Z</time>
      </trkpt>
      <trkpt lat="48.59398" lon="2.00701">
        <ele>108.6</ele>
        <time>2025-11-16T10:44:16Z</time>
      </trkpt>
      <trkpt lat="48.59398" lon="2.00698">
        <ele>108.6</ele>
        <time>2025-11-16T10:44:18Z</time>
      </trkpt>
      <trkpt lat="48.59399" lon="2.00694">
        <ele>108.8</ele>
        <time>2025-11-16T10:44:20Z</time>
      </trkpt>
      <trkpt lat="48.59399" lon="2.0069">
        <ele>108.8</ele>
        <time>2025-11-16T10:44:22Z</time>
      </trkpt>
      <trkpt lat="48.59398" lon="2.00686">
        <ele>108.8</ele>
        <time>2025-11-16T10:44:24Z</time>
      </trkpt>
      <trkpt lat="48.59397" lon="2.00682">
        <ele>108.8</ele>
        <time>2025-11-16T10:44:26Z</time>
      </trkpt>
      <trkpt lat="48.59396" lon="2.00679">
        <ele>109</ele>
        <time>2025-11-16T10:44:28Z</time>
      </trkpt>
      <trkpt lat="48.59396" lon="2.00675">
        <ele>109</ele>
        <time>2025-11-16T10:44:30Z</time>
      </trkpt>
      <trkpt lat="48.59396" lon="2.00671">
        <ele>109.2</ele>
        <time>2025-11-16T10:44:32Z</time>
      </trkpt>
      <trkpt lat="48.59396" lon="2.00667">
        <ele>109.4</ele>
        <time>2025-11-16T10:44:34Z</time>
      </trkpt>
      <trkpt lat="48.59395" lon="2.00663">
        <ele>109.6</ele>
        <time>2025-11-16T10:44:36Z</time>
      </trkpt>
      <trkpt lat="48.59395" lon="2.00659">
        <ele>109.8</ele>
        <time>2025-11-16T10:44:38Z</time>
      </trkpt>
      <trkpt lat="48.59394" lon="2.00656">
        <ele>110</ele>
        <time>2025-11-16T10:44:40Z</time>
      </trkpt>
      <trkpt lat="48.59392" lon="2.00652">
        <ele>110</ele>
        <time>2025-11-16T10:44:42Z</time>
      </trkpt>
      <trkpt lat="48.59391" lon="2.00648">
        <ele>110.2</ele>
        <time>2025-11-16T10:44:44Z</time>
      </trkpt>
      <trkpt lat="48.5939" lon="2.00645">
        <ele>110.4</ele>
        <time>2025-11-16T10:44:46Z</time>
      </trkpt>
      <trkpt lat="48.59389" lon="2.00641">
        <ele>110.6</ele>
        <time>2025-11-16T10:44:48Z</time>
      </trkpt>
      <trkpt lat="48.59389" lon="2.00638">
        <ele>110.6</ele>
        <time>2025-11-16T10:44:50Z</time>
      </trkpt>
      <trkpt lat="48.59388" lon="2.00634">
        <ele>110.6</ele>
        <time>2025-11-16T10:44:52Z</time>
      </trkpt>
      <trkpt lat="48.59388" lon="2.0063">
        <ele>110.6</ele>
        <time>2025-11-16T10:44:54Z</time>
      </trkpt>
      <trkpt lat="48.59388" lon="2.00626">
        <ele>110.6</ele>
        <time>2025-11-16T10:44:56Z</time>
      </trkpt>
      <trkpt lat="48.59388" lon="2.00623">
        <ele>110.6</ele>
        <time>2025-11-16T10:44:58Z</time>
      </trkpt>
      <trkpt lat="48.59387" lon="2.00619">
        <ele>110.6</ele>
        <time>2025-11-16T10:45:00Z</time>
      </trkpt>
      <trkpt lat="48.59386" lon="2.00616">
        <ele>110.4</ele>
        <time>2025-11-16T10:45:02Z</time>
      </trkpt>
      <trkpt lat="48.59386" lon="2.00613">
        <ele>110.4</ele>
        <time>2025-11-16T10:45:04Z</time>
      </trkpt>
      <trkpt lat="48.59385" lon="2.00609">
        <ele>110.2</ele>
        <time>2025-11-16T10:45:06Z</time>
      </trkpt>
      <trkpt lat="48.59384" lon="2.00605">
        <ele>110</ele>
        <time>2025-11-16T10:45:08Z</time>
      </trkpt>
      <trkpt lat="48.59383" lon="2.00603">
        <ele>110</ele>
        <time>2025-11-16T10:45:09Z</time>
      </trkpt>
      <trkpt lat="48.59381" lon="2.00598">
        <ele>110</ele>
        <time>2025-11-16T10:45:11Z</time>
      </trkpt>
      <trkpt lat="48.5938" lon="2.00596">
        <ele>110</ele>
        <time>2025-11-16T10:45:12Z</time>
      </trkpt>
      <trkpt lat="48.59379" lon="2.00591">
        <ele>109.8</ele>
        <time>2025-11-16T10:45:14Z</time>
      </trkpt>
      <trkpt lat="48.59377" lon="2.00588">
        <ele>109.8</ele>
        <time>2025-11-16T10:45:16Z</time>
      </trkpt>
      <trkpt lat="48.59376" lon="2.00584">
        <ele>109.6</ele>
        <time>2025-11-16T10:45:18Z</time>
      </trkpt>
      <trkpt lat="48.59375" lon="2.0058">
        <ele>109.6</ele>
        <time>2025-11-16T10:45:20Z</time>
      </trkpt>
      <trkpt lat="48.59374" lon="2.00577">
        <ele>109.4</ele>
        <time>2025-11-16T10:45:22Z</time>
      </trkpt>
      <trkpt lat="48.59373" lon="2.00574">
        <ele>109.6</ele>
        <time>2025-11-16T10:45:24Z</time>
      </trkpt>
      <trkpt lat="48.59372" lon="2.0057">
        <ele>109.6</ele>
        <time>2025-11-16T10:45:26Z</time>
      </trkpt>
      <trkpt lat="48.59371" lon="2.00565">
        <ele>109.8</ele>
        <time>2025-11-16T10:45:28Z</time>
      </trkpt>
      <trkpt lat="48.5937" lon="2.00562">
        <ele>109.8</ele>
        <time>2025-11-16T10:45:29Z</time>
      </trkpt>
      <trkpt lat="48.59368" lon="2.00558">
        <ele>110</ele>
        <time>2025-11-16T10:45:31Z</time>
      </trkpt>
      <trkpt lat="48.59366" lon="2.00553">
        <ele>110</ele>
        <time>2025-11-16T10:45:33Z</time>
      </trkpt>
      <trkpt lat="48.59365" lon="2.00548">
        <ele>110.2</ele>
        <time>2025-11-16T10:45:35Z</time>
      </trkpt>
      <trkpt lat="48.59364" lon="2.00544">
        <ele>110.2</ele>
        <time>2025-11-16T10:45:37Z</time>
      </trkpt>
      <trkpt lat="48.59364" lon="2.0054">
        <ele>110.4</ele>
        <time>2025-11-16T10:45:39Z</time>
      </trkpt>
      <trkpt lat="48.59363" lon="2.00535">
        <ele>110.6</ele>
        <time>2025-11-16T10:45:41Z</time>
      </trkpt>
      <trkpt lat="48.59362" lon="2.00533">
        <ele>110.6</ele>
        <time>2025-11-16T10:45:42Z</time>
      </trkpt>
      <trkpt lat="48.59361" lon="2.0053">
        <ele>110.6</ele>
        <time>2025-11-16T10:45:43Z</time>
      </trkpt>
      <trkpt lat="48.59361" lon="2.00528">
        <ele>110.6</ele>
        <time>2025-11-16T10:45:44Z</time>
      </trkpt>
      <trkpt lat="48.5936" lon="2.00525">
        <ele>110.8</ele>
        <time>2025-11-16T10:45:45Z</time>
      </trkpt>
      <trkpt lat="48.59359" lon="2.0052">
        <ele>110.8</ele>
        <time>2025-11-16T10:45:47Z</time>
      </trkpt>
      <trkpt lat="48.59357" lon="2.00516">
        <ele>111</ele>
        <time>2025-11-16T10:45:49Z</time>
      </trkpt>
      <trkpt lat="48.59355" lon="2.00513">
        <ele>111.2</ele>
        <time>2025-11-16T10:45:51Z</time>
      </trkpt>
      <trkpt lat="48.59353" lon="2.00511">
        <ele>111.6</ele>
        <time>2025-11-16T10:45:53Z</time>
      </trkpt>
      <trkpt lat="48.59352" lon="2.00507">
        <ele>111.8</ele>
        <time>2025-11-16T10:45:55Z</time>
      </trkpt>
      <trkpt lat="48.59351" lon="2.00504">
        <ele>112</ele>
        <time>2025-11-16T10:45:56Z</time>
      </trkpt>
      <trkpt lat="48.5935" lon="2.00501">
        <ele>112</ele>
        <time>2025-11-16T10:45:57Z</time>
      </trkpt>
      <trkpt lat="48.59349" lon="2.00498">
        <ele>112.2</ele>
        <time>2025-11-16T10:45:58Z</time>
      </trkpt>
      <trkpt lat="48.59348" lon="2.00495">
        <ele>112.2</ele>
        <time>2025-11-16T10:45:59Z</time>
      </trkpt>
      <trkpt lat="48.59347" lon="2.00491">
        <ele>112.2</ele>
        <time>2025-11-16T10:46:00Z</time>
      </trkpt>
      <trkpt lat="48.59346" lon="2.00488">
        <ele>112.4</ele>
        <time>2025-11-16T10:46:01Z</time>
      </trkpt>
      <trkpt lat="48.59346" lon="2.00485">
        <ele>112.4</ele>
        <time>2025-11-16T10:46:02Z</time>
      </trkpt>
      <trkpt lat="48.59345" lon="2.00482">
        <ele>112.4</ele>
        <time>2025-11-16T10:46:03Z</time>
      </trkpt>
      <trkpt lat="48.59345" lon="2.00477">
        <ele>112.4</ele>
        <time>2025-11-16T10:46:05Z</time>
      </trkpt>
      <trkpt lat="48.59344" lon="2.00474">
        <ele>112.2</ele>
        <time>2025-11-16T10:46:07Z</time>
      </trkpt>
      <trkpt lat="48.59343" lon="2.0047">
        <ele>112</ele>
        <time>2025-11-16T10:46:10Z</time>
      </trkpt>
      <trkpt lat="48.59342" lon="2.00468">
        <ele>112</ele>
        <time>2025-11-16T10:46:12Z</time>
      </trkpt>
      <trkpt lat="48.59341" lon="2.00464">
        <ele>112.2</ele>
        <time>2025-11-16T10:46:14Z</time>
      </trkpt>
      <trkpt lat="48.5934" lon="2.0046">
        <ele>112.2</ele>
        <time>2025-11-16T10:46:16Z</time>
      </trkpt>
      <trkpt lat="48.5934" lon="2.00455">
        <ele>112.4</ele>
        <time>2025-11-16T10:46:18Z</time>
      </trkpt>
      <trkpt lat="48.59339" lon="2.00451">
        <ele>112.6</ele>
        <time>2025-11-16T10:46:20Z</time>
      </trkpt>
      <trkpt lat="48.59338" lon="2.00447">
        <ele>112.8</ele>
        <time>2025-11-16T10:46:22Z</time>
      </trkpt>
      <trkpt lat="48.59336" lon="2.00444">
        <ele>112.8</ele>
        <time>2025-11-16T10:46:24Z</time>
      </trkpt>
      <trkpt lat="48.59334" lon="2.0044">
        <ele>113</ele>
        <time>2025-11-16T10:46:26Z</time>
      </trkpt>
      <trkpt lat="48.59332" lon="2.00436">
        <ele>113.2</ele>
        <time>2025-11-16T10:46:28Z</time>
      </trkpt>
      <trkpt lat="48.59331" lon="2.00432">
        <ele>113.4</ele>
        <time>2025-11-16T10:46:30Z</time>
      </trkpt>
      <trkpt lat="48.5933" lon="2.00428">
        <ele>113.4</ele>
        <time>2025-11-16T10:46:32Z</time>
      </trkpt>
      <trkpt lat="48.59329" lon="2.00424">
        <ele>113.6</ele>
        <time>2025-11-16T10:46:34Z</time>
      </trkpt>
      <trkpt lat="48.59328" lon="2.0042">
        <ele>113.6</ele>
        <time>2025-11-16T10:46:36Z</time>
      </trkpt>
      <trkpt lat="48.59326" lon="2.00415">
        <ele>113.6</ele>
        <time>2025-11-16T10:46:38Z</time>
      </trkpt>
      <trkpt lat="48.59325" lon="2.00411">
        <ele>113.6</ele>
        <time>2025-11-16T10:46:40Z</time>
      </trkpt>
      <trkpt lat="48.59325" lon="2.00406">
        <ele>113.8</ele>
        <time>2025-11-16T10:46:42Z</time>
      </trkpt>
      <trkpt lat="48.59324" lon="2.00402">
        <ele>113.8</ele>
        <time>2025-11-16T10:46:44Z</time>
      </trkpt>
      <trkpt lat="48.59323" lon="2.00398">
        <ele>113.8</ele>
        <time>2025-11-16T10:46:46Z</time>
      </trkpt>
      <trkpt lat="48.59322" lon="2.00395">
        <ele>113.8</ele>
        <time>2025-11-16T10:46:48Z</time>
      </trkpt>
      <trkpt lat="48.59321" lon="2.00392">
        <ele>113.6</ele>
        <time>2025-11-16T10:46:50Z</time>
      </trkpt>
      <trkpt lat="48.59321" lon="2.00389">
        <ele>113.6</ele>
        <time>2025-11-16T10:46:52Z</time>
      </trkpt>
      <trkpt lat="48.5932" lon="2.00385">
        <ele>113.4</ele>
        <time>2025-11-16T10:46:54Z</time>
      </trkpt>
      <trkpt lat="48.59319" lon="2.00382">
        <ele>113.4</ele>
        <time>2025-11-16T10:46:56Z</time>
      </trkpt>
      <trkpt lat="48.59318" lon="2.00378">
        <ele>113.4</ele>
        <time>2025-11-16T10:46:58Z</time>
      </trkpt>
      <trkpt lat="48.59316" lon="2.00373">
        <ele>113.4</ele>
        <time>2025-11-16T10:47:00Z</time>
      </trkpt>
      <trkpt lat="48.59316" lon="2.00368">
        <ele>113.4</ele>
        <time>2025-11-16T10:47:02Z</time>
      </trkpt>
      <trkpt lat="48.59316" lon="2.00364">
        <ele>113.6</ele>
        <time>2025-11-16T10:47:04Z</time>
      </trkpt>
      <trkpt lat="48.59316" lon="2.0036">
        <ele>113.6</ele>
        <time>2025-11-16T10:47:06Z</time>
      </trkpt>
      <trkpt lat="48.59316" lon="2.00357">
        <ele>113.8</ele>
        <time>2025-11-16T10:47:08Z</time>
      </trkpt>
      <trkpt lat="48.59317" lon="2.00354">
        <ele>113.8</ele>
        <time>2025-11-16T10:47:10Z</time>
      </trkpt>
      <trkpt lat="48.59319" lon="2.0035">
        <ele>113.8</ele>
        <time>2025-11-16T10:47:12Z</time>
      </trkpt>
      <trkpt lat="48.59321" lon="2.00346">
        <ele>113.8</ele>
        <time>2025-11-16T10:47:14Z</time>
      </trkpt>
      <trkpt lat="48.59323" lon="2.00342">
        <ele>114</ele>
        <time>2025-11-16T10:47:16Z</time>
      </trkpt>
      <trkpt lat="48.59325" lon="2.00338">
        <ele>114</ele>
        <time>2025-11-16T10:47:18Z</time>
      </trkpt>
      <trkpt lat="48.59326" lon="2.00334">
        <ele>114</ele>
        <time>2025-11-16T10:47:20Z</time>
      </trkpt>
      <trkpt lat="48.59328" lon="2.00331">
        <ele>114</ele>
        <time>2025-11-16T10:47:22Z</time>
      </trkpt>
      <trkpt lat="48.59329" lon="2.00327">
        <ele>114</ele>
        <time>2025-11-16T10:47:24Z</time>
      </trkpt>
      <trkpt lat="48.5933" lon="2.00322">
        <ele>114.2</ele>
        <time>2025-11-16T10:47:26Z</time>
      </trkpt>
      <trkpt lat="48.59332" lon="2.00318">
        <ele>114.2</ele>
        <time>2025-11-16T10:47:28Z</time>
      </trkpt>
      <trkpt lat="48.59333" lon="2.00314">
        <ele>114.6</ele>
        <time>2025-11-16T10:47:30Z</time>
      </trkpt>
      <trkpt lat="48.59335" lon="2.0031">
        <ele>114.6</ele>
        <time>2025-11-16T10:47:32Z</time>
      </trkpt>
      <trkpt lat="48.59338" lon="2.00307">
        <ele>114.4</ele>
        <time>2025-11-16T10:47:34Z</time>
      </trkpt>
      <trkpt lat="48.5934" lon="2.00304">
        <ele>114.4</ele>
        <time>2025-11-16T10:47:36Z</time>
      </trkpt>
      <trkpt lat="48.59342" lon="2.00302">
        <ele>114.2</ele>
        <time>2025-11-16T10:47:38Z</time>
      </trkpt>
      <trkpt lat="48.59344" lon="2.00299">
        <ele>114.2</ele>
        <time>2025-11-16T10:47:40Z</time>
      </trkpt>
      <trkpt lat="48.59346" lon="2.00296">
        <ele>114</ele>
        <time>2025-11-16T10:47:42Z</time>
      </trkpt>
      <trkpt lat="48.59348" lon="2.00293">
        <ele>114.2</ele>
        <time>2025-11-16T10:47:44Z</time>
      </trkpt>
      <trkpt lat="48.5935" lon="2.0029">
        <ele>114.4</ele>
        <time>2025-11-16T10:47:46Z</time>
      </trkpt>
      <trkpt lat="48.59351" lon="2.00289">
        <ele>114.6</ele>
        <time>2025-11-16T10:47:48Z</time>
      </trkpt>
      <trkpt lat="48.59353" lon="2.00287">
        <ele>115</ele>
        <time>2025-11-16T10:47:51Z</time>
      </trkpt>
      <trkpt lat="48.59355" lon="2.00284">
        <ele>115.2</ele>
        <time>2025-11-16T10:47:53Z</time>
      </trkpt>
      <trkpt lat="48.59357" lon="2.0028">
        <ele>115.4</ele>
        <time>2025-11-16T10:47:55Z</time>
      </trkpt>
      <trkpt lat="48.59359" lon="2.00277">
        <ele>115.6</ele>
        <time>2025-11-16T10:47:56Z</time>
      </trkpt>
      <trkpt lat="48.5936" lon="2.00274">
        <ele>115.8</ele>
        <time>2025-11-16T10:47:57Z</time>
      </trkpt>
      <trkpt lat="48.59361" lon="2.00272">
        <ele>115.8</ele>
        <time>2025-11-16T10:47:58Z</time>
      </trkpt>
      <trkpt lat="48.59363" lon="2.00267">
        <ele>116</ele>
        <time>2025-11-16T10:48:00Z</time>
      </trkpt>
      <trkpt lat="48.59365" lon="2.00263">
        <ele>116</ele>
        <time>2025-11-16T10:48:02Z</time>
      </trkpt>
      <trkpt lat="48.59366" lon="2.0026">
        <ele>116</ele>
        <time>2025-11-16T10:48:04Z</time>
      </trkpt>
      <trkpt lat="48.59368" lon="2.00257">
        <ele>116</ele>
        <time>2025-11-16T10:48:06Z</time>
      </trkpt>
      <trkpt lat="48.5937" lon="2.00253">
        <ele>116</ele>
        <time>2025-11-16T10:48:08Z</time>
      </trkpt>
      <trkpt lat="48.59372" lon="2.00249">
        <ele>116</ele>
        <time>2025-11-16T10:48:10Z</time>
      </trkpt>
      <trkpt lat="48.59374" lon="2.00246">
        <ele>116</ele>
        <time>2025-11-16T10:48:12Z</time>
      </trkpt>
      <trkpt lat="48.59376" lon="2.00243">
        <ele>116.2</ele>
        <time>2025-11-16T10:48:14Z</time>
      </trkpt>
      <trkpt lat="48.59378" lon="2.00239">
        <ele>116.4</ele>
        <time>2025-11-16T10:48:16Z</time>
      </trkpt>
      <trkpt lat="48.5938" lon="2.00236">
        <ele>116.4</ele>
        <time>2025-11-16T10:48:18Z</time>
      </trkpt>
      <trkpt lat="48.59381" lon="2.00232">
        <ele>116.4</ele>
        <time>2025-11-16T10:48:20Z</time>
      </trkpt>
      <trkpt lat="48.59383" lon="2.00229">
        <ele>116.4</ele>
        <time>2025-11-16T10:48:22Z</time>
      </trkpt>
      <trkpt lat="48.59385" lon="2.00226">
        <ele>116.4</ele>
        <time>2025-11-16T10:48:24Z</time>
      </trkpt>
      <trkpt lat="48.59387" lon="2.00223">
        <ele>116.4</ele>
        <time>2025-11-16T10:48:26Z</time>
      </trkpt>
      <trkpt lat="48.59388" lon="2.00219">
        <ele>116.4</ele>
        <time>2025-11-16T10:48:28Z</time>
      </trkpt>
      <trkpt lat="48.59389" lon="2.00215">
        <ele>116.2</ele>
        <time>2025-11-16T10:48:30Z</time>
      </trkpt>
      <trkpt lat="48.59389" lon="2.00212">
        <ele>116.2</ele>
        <time>2025-11-16T10:48:32Z</time>
      </trkpt>
      <trkpt lat="48.59391" lon="2.00209">
        <ele>116.2</ele>
        <time>2025-11-16T10:48:34Z</time>
      </trkpt>
      <trkpt lat="48.59393" lon="2.00205">
        <ele>116</ele>
        <time>2025-11-16T10:48:36Z</time>
      </trkpt>
      <trkpt lat="48.59395" lon="2.00201">
        <ele>116.2</ele>
        <time>2025-11-16T10:48:38Z</time>
      </trkpt>
      <trkpt lat="48.59397" lon="2.00197">
        <ele>116.2</ele>
        <time>2025-11-16T10:48:40Z</time>
      </trkpt>
      <trkpt lat="48.59398" lon="2.00194">
        <ele>116.2</ele>
        <time>2025-11-16T10:48:42Z</time>
      </trkpt>
      <trkpt lat="48.594" lon="2.0019">
        <ele>116.2</ele>
        <time>2025-11-16T10:48:44Z</time>
      </trkpt>
      <trkpt lat="48.59402" lon="2.00186">
        <ele>116.2</ele>
        <time>2025-11-16T10:48:46Z</time>
      </trkpt>
      <trkpt lat="48.59403" lon="2.00184">
        <ele>116.2</ele>
        <time>2025-11-16T10:48:47Z</time>
      </trkpt>
      <trkpt lat="48.59405" lon="2.0018">
        <ele>116.2</ele>
        <time>2025-11-16T10:48:49Z</time>
      </trkpt>
      <trkpt lat="48.59406" lon="2.00178">
        <ele>116.4</ele>
        <time>2025-11-16T10:48:50Z</time>
      </trkpt>
      <trkpt lat="48.59408" lon="2.00174">
        <ele>116.4</ele>
        <time>2025-11-16T10:48:52Z</time>
      </trkpt>
      <trkpt lat="48.5941" lon="2.00171">
        <ele>116.4</ele>
        <time>2025-11-16T10:48:54Z</time>
      </trkpt>
      <trkpt lat="48.59411" lon="2.00168">
        <ele>116.2</ele>
        <time>2025-11-16T10:48:56Z</time>
      </trkpt>
      <trkpt lat="48.59413" lon="2.00164">
        <ele>116.4</ele>
        <time>2025-11-16T10:48:58Z</time>
      </trkpt>
      <trkpt lat="48.59414" lon="2.00161">
        <ele>116.4</ele>
        <time>2025-11-16T10:49:00Z</time>
      </trkpt>
      <trkpt lat="48.59416" lon="2.00157">
        <ele>116.4</ele>
        <time>2025-11-16T10:49:02Z</time>
      </trkpt>
      <trkpt lat="48.59418" lon="2.00153">
        <ele>116.2</ele>
        <time>2025-11-16T10:49:04Z</time>
      </trkpt>
      <trkpt lat="48.59419" lon="2.00149">
        <ele>116.4</ele>
        <time>2025-11-16T10:49:06Z</time>
      </trkpt>
      <trkpt lat="48.5942" lon="2.00146">
        <ele>116.4</ele>
        <time>2025-11-16T10:49:07Z</time>
      </trkpt>
      <trkpt lat="48.59421" lon="2.00144">
        <ele>116.4</ele>
        <time>2025-11-16T10:49:08Z</time>
      </trkpt>
      <trkpt lat="48.59422" lon="2.00141">
        <ele>116.4</ele>
        <time>2025-11-16T10:49:09Z</time>
      </trkpt>
      <trkpt lat="48.59423" lon="2.00139">
        <ele>116.4</ele>
        <time>2025-11-16T10:49:10Z</time>
      </trkpt>
      <trkpt lat="48.59424" lon="2.00136">
        <ele>116.4</ele>
        <time>2025-11-16T10:49:11Z</time>
      </trkpt>
      <trkpt lat="48.59426" lon="2.00132">
        <ele>116.4</ele>
        <time>2025-11-16T10:49:13Z</time>
      </trkpt>
      <trkpt lat="48.59428" lon="2.00128">
        <ele>116.4</ele>
        <time>2025-11-16T10:49:15Z</time>
      </trkpt>
      <trkpt lat="48.59429" lon="2.00125">
        <ele>116.2</ele>
        <time>2025-11-16T10:49:17Z</time>
      </trkpt>
      <trkpt lat="48.59431" lon="2.00121">
        <ele>116.2</ele>
        <time>2025-11-16T10:49:19Z</time>
      </trkpt>
      <trkpt lat="48.59433" lon="2.00118">
        <ele>116.2</ele>
        <time>2025-11-16T10:49:21Z</time>
      </trkpt>
      <trkpt lat="48.59435" lon="2.00115">
        <ele>116</ele>
        <time>2025-11-16T10:49:23Z</time>
      </trkpt>
      <trkpt lat="48.59436" lon="2.00111">
        <ele>116</ele>
        <time>2025-11-16T10:49:25Z</time>
      </trkpt>
      <trkpt lat="48.59437" lon="2.00107">
        <ele>116</ele>
        <time>2025-11-16T10:49:27Z</time>
      </trkpt>
      <trkpt lat="48.59439" lon="2.00103">
        <ele>115.8</ele>
        <time>2025-11-16T10:49:29Z</time>
      </trkpt>
      <trkpt lat="48.59441" lon="2.00098">
        <ele>115.8</ele>
        <time>2025-11-16T10:49:31Z</time>
      </trkpt>
      <trkpt lat="48.59443" lon="2.00094">
        <ele>115.8</ele>
        <time>2025-11-16T10:49:33Z</time>
      </trkpt>
      <trkpt lat="48.59444" lon="2.00091">
        <ele>115.8</ele>
        <time>2025-11-16T10:49:34Z</time>
      </trkpt>
      <trkpt lat="48.59445" lon="2.00087">
        <ele>115.8</ele>
        <time>2025-11-16T10:49:36Z</time>
      </trkpt>
      <trkpt lat="48.59446" lon="2.00084">
        <ele>115.8</ele>
        <time>2025-11-16T10:49:37Z</time>
      </trkpt>
      <trkpt lat="48.59447" lon="2.00079">
        <ele>115.6</ele>
        <time>2025-11-16T10:49:39Z</time>
      </trkpt>
      <trkpt lat="48.59448" lon="2.00074">
        <ele>115.6</ele>
        <time>2025-11-16T10:49:41Z</time>
      </trkpt>
      <trkpt lat="48.59449" lon="2.00069">
        <ele>115.6</ele>
        <time>2025-11-16T10:49:43Z</time>
      </trkpt>
      <trkpt lat="48.5945" lon="2.00067">
        <ele>115.6</ele>
        <time>2025-11-16T10:49:44Z</time>
      </trkpt>
      <trkpt lat="48.59452" lon="2.00064">
        <ele>115.6</ele>
        <time>2025-11-16T10:49:46Z</time>
      </trkpt>
      <trkpt lat="48.59454" lon="2.0006">
        <ele>115.6</ele>
        <time>2025-11-16T10:49:48Z</time>
      </trkpt>
      <trkpt lat="48.59456" lon="2.00057">
        <ele>115.4</ele>
        <time>2025-11-16T10:49:50Z</time>
      </trkpt>
      <trkpt lat="48.59458" lon="2.00054">
        <ele>115.4</ele>
        <time>2025-11-16T10:49:52Z</time>
      </trkpt>
      <trkpt lat="48.5946" lon="2.00051">
        <ele>115.6</ele>
        <time>2025-11-16T10:49:54Z</time>
      </trkpt>
      <trkpt lat="48.59461" lon="2.00048">
        <ele>115.8</ele>
        <time>2025-11-16T10:49:56Z</time>
      </trkpt>
      <trkpt lat="48.59463" lon="2.00044">
        <ele>116</ele>
        <time>2025-11-16T10:49:58Z</time>
      </trkpt>
      <trkpt lat="48.59464" lon="2.00041">
        <ele>116.2</ele>
        <time>2025-11-16T10:50:00Z</time>
      </trkpt>
      <trkpt lat="48.59465" lon="2.00037">
        <ele>116.2</ele>
        <time>2025-11-16T10:50:02Z</time>
      </trkpt>
      <trkpt lat="48.59466" lon="2.00034">
        <ele>116.4</ele>
        <time>2025-11-16T10:50:04Z</time>
      </trkpt>
      <trkpt lat="48.59468" lon="2.0003">
        <ele>116.4</ele>
        <time>2025-11-16T10:50:06Z</time>
      </trkpt>
      <trkpt lat="48.59469" lon="2.00027">
        <ele>116.6</ele>
        <time>2025-11-16T10:50:08Z</time>
      </trkpt>
      <trkpt lat="48.5947" lon="2.00023">
        <ele>116.8</ele>
        <time>2025-11-16T10:50:10Z</time>
      </trkpt>
      <trkpt lat="48.59472" lon="2.0002">
        <ele>116.8</ele>
        <time>2025-11-16T10:50:12Z</time>
      </trkpt>
      <trkpt lat="48.59473" lon="2.00017">
        <ele>117</ele>
        <time>2025-11-16T10:50:14Z</time>
      </trkpt>
      <trkpt lat="48.59475" lon="2.00013">
        <ele>117.2</ele>
        <time>2025-11-16T10:50:16Z</time>
      </trkpt>
      <trkpt lat="48.59476" lon="2.00011">
        <ele>117.2</ele>
        <time>2025-11-16T10:50:17Z</time>
      </trkpt>
      <trkpt lat="48.59476" lon="2.00008">
        <ele>117.2</ele>
        <time>2025-11-16T10:50:18Z</time>
      </trkpt>
      <trkpt lat="48.59477" lon="2.00005">
        <ele>117.2</ele>
        <time>2025-11-16T10:50:19Z</time>
      </trkpt>
      <trkpt lat="48.59478" lon="2.00003">
        <ele>117.2</ele>
        <time>2025-11-16T10:50:20Z</time>
      </trkpt>
      <trkpt lat="48.5948" lon="1.99998">
        <ele>117.2</ele>
        <time>2025-11-16T10:50:22Z</time>
      </trkpt>
      <trkpt lat="48.59482" lon="1.99994">
        <ele>117</ele>
        <time>2025-11-16T10:50:24Z</time>
      </trkpt>
      <trkpt lat="48.59484" lon="1.9999">
        <ele>116.8</ele>
        <time>2025-11-16T10:50:26Z</time>
      </trkpt>
      <trkpt lat="48.59485" lon="1.99985">
        <ele>116.6</ele>
        <time>2025-11-16T10:50:28Z</time>
      </trkpt>
      <trkpt lat="48.59486" lon="1.99983">
        <ele>116.6</ele>
        <time>2025-11-16T10:50:29Z</time>
      </trkpt>
      <trkpt lat="48.59487" lon="1.99978">
        <ele>116.4</ele>
        <time>2025-11-16T10:50:31Z</time>
      </trkpt>
      <trkpt lat="48.59487" lon="1.99973">
        <ele>116.2</ele>
        <time>2025-11-16T10:50:33Z</time>
      </trkpt>
      <trkpt lat="48.59487" lon="1.99969">
        <ele>116</ele>
        <time>2025-11-16T10:50:35Z</time>
      </trkpt>
      <trkpt lat="48.59487" lon="1.99965">
        <ele>115.8</ele>
        <time>2025-11-16T10:50:37Z</time>
      </trkpt>
      <trkpt lat="48.59485" lon="1.99962">
        <ele>115.6</ele>
        <time>2025-11-16T10:50:39Z</time>
      </trkpt>
      <trkpt lat="48.59483" lon="1.99958">
        <ele>115.6</ele>
        <time>2025-11-16T10:50:41Z</time>
      </trkpt>
      <trkpt lat="48.59481" lon="1.99956">
        <ele>115.4</ele>
        <time>2025-11-16T10:50:43Z</time>
      </trkpt>
      <trkpt lat="48.59478" lon="1.99954">
        <ele>115.4</ele>
        <time>2025-11-16T10:50:45Z</time>
      </trkpt>
      <trkpt lat="48.59476" lon="1.99953">
        <ele>115.2</ele>
        <time>2025-11-16T10:50:47Z</time>
      </trkpt>
      <trkpt lat="48.59473" lon="1.99951">
        <ele>115.2</ele>
        <time>2025-11-16T10:50:49Z</time>
      </trkpt>
      <trkpt lat="48.59471" lon="1.9995">
        <ele>115</ele>
        <time>2025-11-16T10:50:51Z</time>
      </trkpt>
      <trkpt lat="48.59469" lon="1.99948">
        <ele>115</ele>
        <time>2025-11-16T10:50:53Z</time>
      </trkpt>
      <trkpt lat="48.59467" lon="1.99946">
        <ele>114.8</ele>
        <time>2025-11-16T10:50:55Z</time>
      </trkpt>
      <trkpt lat="48.59465" lon="1.99943">
        <ele>114.6</ele>
        <time>2025-11-16T10:50:57Z</time>
      </trkpt>
      <trkpt lat="48.59462" lon="1.99941">
        <ele>114.6</ele>
        <time>2025-11-16T10:50:59Z</time>
      </trkpt>
      <trkpt lat="48.5946" lon="1.99939">
        <ele>114.6</ele>
        <time>2025-11-16T10:51:00Z</time>
      </trkpt>
      <trkpt lat="48.59458" lon="1.99937">
        <ele>114.6</ele>
        <time>2025-11-16T10:51:02Z</time>
      </trkpt>
      <trkpt lat="48.59455" lon="1.99935">
        <ele>114.8</ele>
        <time>2025-11-16T10:51:04Z</time>
      </trkpt>
      <trkpt lat="48.59453" lon="1.99933">
        <ele>115</ele>
        <time>2025-11-16T10:51:06Z</time>
      </trkpt>
      <trkpt lat="48.59451" lon="1.99931">
        <ele>115</ele>
        <time>2025-11-16T10:51:08Z</time>
      </trkpt>
      <trkpt lat="48.59449" lon="1.99929">
        <ele>115</ele>
        <time>2025-11-16T10:51:10Z</time>
      </trkpt>
      <trkpt lat="48.59446" lon="1.99927">
        <ele>115</ele>
        <time>2025-11-16T10:51:12Z</time>
      </trkpt>
      <trkpt lat="48.59444" lon="1.99925">
        <ele>115.2</ele>
        <time>2025-11-16T10:51:14Z</time>
      </trkpt>
      <trkpt lat="48.59443" lon="1.99923">
        <ele>115.2</ele>
        <time>2025-11-16T10:51:16Z</time>
      </trkpt>
      <trkpt lat="48.5944" lon="1.9992">
        <ele>115.4</ele>
        <time>2025-11-16T10:51:18Z</time>
      </trkpt>
      <trkpt lat="48.59438" lon="1.99917">
        <ele>115.6</ele>
        <time>2025-11-16T10:51:20Z</time>
      </trkpt>
      <trkpt lat="48.59436" lon="1.99915">
        <ele>115.8</ele>
        <time>2025-11-16T10:51:22Z</time>
      </trkpt>
      <trkpt lat="48.59435" lon="1.99912">
        <ele>116</ele>
        <time>2025-11-16T10:51:24Z</time>
      </trkpt>
      <trkpt lat="48.59433" lon="1.9991">
        <ele>116.2</ele>
        <time>2025-11-16T10:51:26Z</time>
      </trkpt>
      <trkpt lat="48.59431" lon="1.99908">
        <ele>116.2</ele>
        <time>2025-11-16T10:51:28Z</time>
      </trkpt>
      <trkpt lat="48.59429" lon="1.99906">
        <ele>116.4</ele>
        <time>2025-11-16T10:51:30Z</time>
      </trkpt>
      <trkpt lat="48.59427" lon="1.99904">
        <ele>116.6</ele>
        <time>2025-11-16T10:51:32Z</time>
      </trkpt>
      <trkpt lat="48.59424" lon="1.999">
        <ele>116.8</ele>
        <time>2025-11-16T10:51:34Z</time>
      </trkpt>
      <trkpt lat="48.59421" lon="1.99897">
        <ele>117</ele>
        <time>2025-11-16T10:51:36Z</time>
      </trkpt>
      <trkpt lat="48.59419" lon="1.99893">
        <ele>117.2</ele>
        <time>2025-11-16T10:51:38Z</time>
      </trkpt>
      <trkpt lat="48.59416" lon="1.9989">
        <ele>117.4</ele>
        <time>2025-11-16T10:51:40Z</time>
      </trkpt>
      <trkpt lat="48.59414" lon="1.99888">
        <ele>117.6</ele>
        <time>2025-11-16T10:51:42Z</time>
      </trkpt>
      <trkpt lat="48.59412" lon="1.99885">
        <ele>117.8</ele>
        <time>2025-11-16T10:51:44Z</time>
      </trkpt>
      <trkpt lat="48.5941" lon="1.99884">
        <ele>117.8</ele>
        <time>2025-11-16T10:51:46Z</time>
      </trkpt>
      <trkpt lat="48.59407" lon="1.99882">
        <ele>118</ele>
        <time>2025-11-16T10:51:48Z</time>
      </trkpt>
      <trkpt lat="48.59404" lon="1.99879">
        <ele>118</ele>
        <time>2025-11-16T10:51:50Z</time>
      </trkpt>
      <trkpt lat="48.59403" lon="1.99877">
        <ele>118</ele>
        <time>2025-11-16T10:51:51Z</time>
      </trkpt>
      <trkpt lat="48.59401" lon="1.99874">
        <ele>117.8</ele>
        <time>2025-11-16T10:51:53Z</time>
      </trkpt>
      <trkpt lat="48.59399" lon="1.99872">
        <ele>117.8</ele>
        <time>2025-11-16T10:51:55Z</time>
      </trkpt>
      <trkpt lat="48.59397" lon="1.99869">
        <ele>118</ele>
        <time>2025-11-16T10:51:57Z</time>
      </trkpt>
      <trkpt lat="48.59395" lon="1.99867">
        <ele>118</ele>
        <time>2025-11-16T10:51:59Z</time>
      </trkpt>
      <trkpt lat="48.59392" lon="1.99863">
        <ele>118.2</ele>
        <time>2025-11-16T10:52:01Z</time>
      </trkpt>
      <trkpt lat="48.59388" lon="1.9986">
        <ele>118.2</ele>
        <time>2025-11-16T10:52:03Z</time>
      </trkpt>
      <trkpt lat="48.59387" lon="1.99858">
        <ele>118.2</ele>
        <time>2025-11-16T10:52:04Z</time>
      </trkpt>
      <trkpt lat="48.59385" lon="1.99857">
        <ele>118</ele>
        <time>2025-11-16T10:52:05Z</time>
      </trkpt>
      <trkpt lat="48.59383" lon="1.99855">
        <ele>118</ele>
        <time>2025-11-16T10:52:06Z</time>
      </trkpt>
      <trkpt lat="48.59381" lon="1.99853">
        <ele>117.8</ele>
        <time>2025-11-16T10:52:07Z</time>
      </trkpt>
      <trkpt lat="48.59379" lon="1.99852">
        <ele>117.8</ele>
        <time>2025-11-16T10:52:08Z</time>
      </trkpt>
      <trkpt lat="48.59377" lon="1.99849">
        <ele>117.6</ele>
        <time>2025-11-16T10:52:09Z</time>
      </trkpt>
      <trkpt lat="48.59374" lon="1.99847">
        <ele>117.6</ele>
        <time>2025-11-16T10:52:10Z</time>
      </trkpt>
      <trkpt lat="48.59372" lon="1.99844">
        <ele>117.4</ele>
        <time>2025-11-16T10:52:11Z</time>
      </trkpt>
      <trkpt lat="48.5937" lon="1.99842">
        <ele>117.4</ele>
        <time>2025-11-16T10:52:12Z</time>
      </trkpt>
      <trkpt lat="48.59368" lon="1.99839">
        <ele>117.2</ele>
        <time>2025-11-16T10:52:13Z</time>
      </trkpt>
      <trkpt lat="48.59366" lon="1.99836">
        <ele>117.2</ele>
        <time>2025-11-16T10:52:14Z</time>
      </trkpt>
      <trkpt lat="48.59364" lon="1.99833">
        <ele>117.2</ele>
        <time>2025-11-16T10:52:15Z</time>
      </trkpt>
      <trkpt lat="48.59363" lon="1.99831">
        <ele>117</ele>
        <time>2025-11-16T10:52:16Z</time>
      </trkpt>
      <trkpt lat="48.59361" lon="1.99828">
        <ele>117</ele>
        <time>2025-11-16T10:52:17Z</time>
      </trkpt>
      <trkpt lat="48.5936" lon="1.99826">
        <ele>116.8</ele>
        <time>2025-11-16T10:52:18Z</time>
      </trkpt>
      <trkpt lat="48.59358" lon="1.99824">
        <ele>116.6</ele>
        <time>2025-11-16T10:52:19Z</time>
      </trkpt>
      <trkpt lat="48.59357" lon="1.99821">
        <ele>116.6</ele>
        <time>2025-11-16T10:52:20Z</time>
      </trkpt>
      <trkpt lat="48.59355" lon="1.9982">
        <ele>116.4</ele>
        <time>2025-11-16T10:52:21Z</time>
      </trkpt>
      <trkpt lat="48.59354" lon="1.99818">
        <ele>116.4</ele>
        <time>2025-11-16T10:52:22Z</time>
      </trkpt>
      <trkpt lat="48.59352" lon="1.99816">
        <ele>116.2</ele>
        <time>2025-11-16T10:52:23Z</time>
      </trkpt>
      <trkpt lat="48.59349" lon="1.99812">
        <ele>116.2</ele>
        <time>2025-11-16T10:52:25Z</time>
      </trkpt>
      <trkpt lat="48.59348" lon="1.9981">
        <ele>116.2</ele>
        <time>2025-11-16T10:52:26Z</time>
      </trkpt>
      <trkpt lat="48.59346" lon="1.99808">
        <ele>116.2</ele>
        <time>2025-11-16T10:52:27Z</time>
      </trkpt>
      <trkpt lat="48.59343" lon="1.99805">
        <ele>116.2</ele>
        <time>2025-11-16T10:52:28Z</time>
      </trkpt>
      <trkpt lat="48.5934" lon="1.99803">
        <ele>116.4</ele>
        <time>2025-11-16T10:52:29Z</time>
      </trkpt>
      <trkpt lat="48.59337" lon="1.998">
        <ele>116.4</ele>
        <time>2025-11-16T10:52:30Z</time>
      </trkpt>
      <trkpt lat="48.59334" lon="1.99797">
        <ele>116.4</ele>
        <time>2025-11-16T10:52:31Z</time>
      </trkpt>
      <trkpt lat="48.59331" lon="1.99795">
        <ele>116.4</ele>
        <time>2025-11-16T10:52:32Z</time>
      </trkpt>
      <trkpt lat="48.59327" lon="1.99792">
        <ele>116.4</ele>
        <time>2025-11-16T10:52:33Z</time>
      </trkpt>
      <trkpt lat="48.59325" lon="1.9979">
        <ele>116.6</ele>
        <time>2025-11-16T10:52:34Z</time>
      </trkpt>
      <trkpt lat="48.59322" lon="1.99787">
        <ele>116.6</ele>
        <time>2025-11-16T10:52:35Z</time>
      </trkpt>
      <trkpt lat="48.59319" lon="1.99784">
        <ele>116.6</ele>
        <time>2025-11-16T10:52:36Z</time>
      </trkpt>
      <trkpt lat="48.59317" lon="1.99782">
        <ele>116.6</ele>
        <time>2025-11-16T10:52:37Z</time>
      </trkpt>
      <trkpt lat="48.59315" lon="1.99779">
        <ele>116.6</ele>
        <time>2025-11-16T10:52:38Z</time>
      </trkpt>
      <trkpt lat="48.59312" lon="1.99776">
        <ele>116.4</ele>
        <time>2025-11-16T10:52:39Z</time>
      </trkpt>
      <trkpt lat="48.5931" lon="1.99774">
        <ele>116.4</ele>
        <time>2025-11-16T10:52:40Z</time>
      </trkpt>
      <trkpt lat="48.59308" lon="1.99771">
        <ele>116.4</ele>
        <time>2025-11-16T10:52:41Z</time>
      </trkpt>
      <trkpt lat="48.59305" lon="1.99768">
        <ele>116.4</ele>
        <time>2025-11-16T10:52:42Z</time>
      </trkpt>
      <trkpt lat="48.59303" lon="1.99765">
        <ele>116.4</ele>
        <time>2025-11-16T10:52:43Z</time>
      </trkpt>
      <trkpt lat="48.593" lon="1.99762">
        <ele>116.4</ele>
        <time>2025-11-16T10:52:44Z</time>
      </trkpt>
      <trkpt lat="48.59298" lon="1.99759">
        <ele>116.2</ele>
        <time>2025-11-16T10:52:45Z</time>
      </trkpt>
      <trkpt lat="48.59295" lon="1.99756">
        <ele>116.2</ele>
        <time>2025-11-16T10:52:46Z</time>
      </trkpt>
      <trkpt lat="48.59292" lon="1.99754">
        <ele>116.2</ele>
        <time>2025-11-16T10:52:47Z</time>
      </trkpt>
      <trkpt lat="48.5929" lon="1.99751">
        <ele>116.2</ele>
        <time>2025-11-16T10:52:48Z</time>
      </trkpt>
      <trkpt lat="48.59287" lon="1.99748">
        <ele>116.2</ele>
        <time>2025-11-16T10:52:49Z</time>
      </trkpt>
      <trkpt lat="48.59285" lon="1.99745">
        <ele>116.4</ele>
        <time>2025-11-16T10:52:50Z</time>
      </trkpt>
      <trkpt lat="48.59283" lon="1.99743">
        <ele>116.4</ele>
        <time>2025-11-16T10:52:51Z</time>
      </trkpt>
      <trkpt lat="48.5928" lon="1.9974">
        <ele>116.4</ele>
        <time>2025-11-16T10:52:52Z</time>
      </trkpt>
      <trkpt lat="48.59278" lon="1.99738">
        <ele>116.6</ele>
        <time>2025-11-16T10:52:53Z</time>
      </trkpt>
      <trkpt lat="48.59276" lon="1.99735">
        <ele>116.8</ele>
        <time>2025-11-16T10:52:54Z</time>
      </trkpt>
      <trkpt lat="48.59273" lon="1.99733">
        <ele>116.8</ele>
        <time>2025-11-16T10:52:55Z</time>
      </trkpt>
      <trkpt lat="48.59271" lon="1.9973">
        <ele>117</ele>
        <time>2025-11-16T10:52:56Z</time>
      </trkpt>
      <trkpt lat="48.59268" lon="1.99728">
        <ele>117</ele>
        <time>2025-11-16T10:52:57Z</time>
      </trkpt>
      <trkpt lat="48.59266" lon="1.99725">
        <ele>117</ele>
        <time>2025-11-16T10:52:58Z</time>
      </trkpt>
      <trkpt lat="48.59264" lon="1.99722">
        <ele>117</ele>
        <time>2025-11-16T10:52:59Z</time>
      </trkpt>
      <trkpt lat="48.59261" lon="1.99719">
        <ele>117</ele>
        <time>2025-11-16T10:53:00Z</time>
      </trkpt>
      <trkpt lat="48.59259" lon="1.99716">
        <ele>117</ele>
        <time>2025-11-16T10:53:01Z</time>
      </trkpt>
      <trkpt lat="48.59256" lon="1.99713">
        <ele>117</ele>
        <time>2025-11-16T10:53:02Z</time>
      </trkpt>
      <trkpt lat="48.59254" lon="1.9971">
        <ele>116.8</ele>
        <time>2025-11-16T10:53:03Z</time>
      </trkpt>
      <trkpt lat="48.59252" lon="1.99707">
        <ele>116.8</ele>
        <time>2025-11-16T10:53:04Z</time>
      </trkpt>
      <trkpt lat="48.59249" lon="1.99704">
        <ele>116.6</ele>
        <time>2025-11-16T10:53:05Z</time>
      </trkpt>
      <trkpt lat="48.59246" lon="1.99701">
        <ele>116.6</ele>
        <time>2025-11-16T10:53:06Z</time>
      </trkpt>
      <trkpt lat="48.59244" lon="1.99698">
        <ele>116.6</ele>
        <time>2025-11-16T10:53:07Z</time>
      </trkpt>
      <trkpt lat="48.59241" lon="1.99694">
        <ele>116.4</ele>
        <time>2025-11-16T10:53:08Z</time>
      </trkpt>
      <trkpt lat="48.59238" lon="1.9969">
        <ele>116.4</ele>
        <time>2025-11-16T10:53:09Z</time>
      </trkpt>
      <trkpt lat="48.59236" lon="1.99687">
        <ele>116.2</ele>
        <time>2025-11-16T10:53:10Z</time>
      </trkpt>
      <trkpt lat="48.59233" lon="1.99683">
        <ele>116</ele>
        <time>2025-11-16T10:53:11Z</time>
      </trkpt>
      <trkpt lat="48.5923" lon="1.99679">
        <ele>116</ele>
        <time>2025-11-16T10:53:12Z</time>
      </trkpt>
      <trkpt lat="48.59227" lon="1.99676">
        <ele>115.8</ele>
        <time>2025-11-16T10:53:13Z</time>
      </trkpt>
      <trkpt lat="48.59224" lon="1.99672">
        <ele>115.8</ele>
        <time>2025-11-16T10:53:14Z</time>
      </trkpt>
      <trkpt lat="48.59222" lon="1.99669">
        <ele>115.6</ele>
        <time>2025-11-16T10:53:15Z</time>
      </trkpt>
      <trkpt lat="48.59219" lon="1.99666">
        <ele>115.4</ele>
        <time>2025-11-16T10:53:16Z</time>
      </trkpt>
      <trkpt lat="48.59216" lon="1.99663">
        <ele>115.2</ele>
        <time>2025-11-16T10:53:17Z</time>
      </trkpt>
      <trkpt lat="48.59213" lon="1.9966">
        <ele>115.2</ele>
        <time>2025-11-16T10:53:18Z</time>
      </trkpt>
      <trkpt lat="48.5921" lon="1.99657">
        <ele>115</ele>
        <time>2025-11-16T10:53:19Z</time>
      </trkpt>
      <trkpt lat="48.59207" lon="1.99653">
        <ele>115</ele>
        <time>2025-11-16T10:53:20Z</time>
      </trkpt>
      <trkpt lat="48.59204" lon="1.9965">
        <ele>114.8</ele>
        <time>2025-11-16T10:53:21Z</time>
      </trkpt>
      <trkpt lat="48.59201" lon="1.99647">
        <ele>114.8</ele>
        <time>2025-11-16T10:53:22Z</time>
      </trkpt>
      <trkpt lat="48.59198" lon="1.99644">
        <ele>114.6</ele>
        <time>2025-11-16T10:53:23Z</time>
      </trkpt>
      <trkpt lat="48.59195" lon="1.9964">
        <ele>114.6</ele>
        <time>2025-11-16T10:53:24Z</time>
      </trkpt>
      <trkpt lat="48.59192" lon="1.99637">
        <ele>114.4</ele>
        <time>2025-11-16T10:53:25Z</time>
      </trkpt>
      <trkpt lat="48.59189" lon="1.99633">
        <ele>114.4</ele>
        <time>2025-11-16T10:53:26Z</time>
      </trkpt>
      <trkpt lat="48.59186" lon="1.9963">
        <ele>114.2</ele>
        <time>2025-11-16T10:53:27Z</time>
      </trkpt>
      <trkpt lat="48.59183" lon="1.99627">
        <ele>114.2</ele>
        <time>2025-11-16T10:53:28Z</time>
      </trkpt>
      <trkpt lat="48.5918" lon="1.99624">
        <ele>114</ele>
        <time>2025-11-16T10:53:29Z</time>
      </trkpt>
      <trkpt lat="48.59178" lon="1.99621">
        <ele>114</ele>
        <time>2025-11-16T10:53:30Z</time>
      </trkpt>
      <trkpt lat="48.59175" lon="1.99618">
        <ele>114</ele>
        <time>2025-11-16T10:53:31Z</time>
      </trkpt>
      <trkpt lat="48.59172" lon="1.99614">
        <ele>114</ele>
        <time>2025-11-16T10:53:32Z</time>
      </trkpt>
      <trkpt lat="48.59169" lon="1.99611">
        <ele>114</ele>
        <time>2025-11-16T10:53:33Z</time>
      </trkpt>
      <trkpt lat="48.59166" lon="1.99607">
        <ele>114</ele>
        <time>2025-11-16T10:53:34Z</time>
      </trkpt>
      <trkpt lat="48.59163" lon="1.99603">
        <ele>114</ele>
        <time>2025-11-16T10:53:35Z</time>
      </trkpt>
      <trkpt lat="48.59159" lon="1.99598">
        <ele>114</ele>
        <time>2025-11-16T10:53:36Z</time>
      </trkpt>
      <trkpt lat="48.59155" lon="1.99594">
        <ele>114</ele>
        <time>2025-11-16T10:53:37Z</time>
      </trkpt>
      <trkpt lat="48.59151" lon="1.99589">
        <ele>114</ele>
        <time>2025-11-16T10:53:38Z</time>
      </trkpt>
      <trkpt lat="48.59148" lon="1.99584">
        <ele>114.2</ele>
        <time>2025-11-16T10:53:39Z</time>
      </trkpt>
      <trkpt lat="48.59144" lon="1.9958">
        <ele>114.2</ele>
        <time>2025-11-16T10:53:40Z</time>
      </trkpt>
      <trkpt lat="48.5914" lon="1.99575">
        <ele>114.2</ele>
        <time>2025-11-16T10:53:41Z</time>
      </trkpt>
      <trkpt lat="48.59136" lon="1.9957">
        <ele>114.2</ele>
        <time>2025-11-16T10:53:42Z</time>
      </trkpt>
      <trkpt lat="48.59132" lon="1.99565">
        <ele>114.4</ele>
        <time>2025-11-16T10:53:43Z</time>
      </trkpt>
      <trkpt lat="48.59128" lon="1.99561">
        <ele>114.4</ele>
        <time>2025-11-16T10:53:44Z</time>
      </trkpt>
      <trkpt lat="48.59124" lon="1.99556">
        <ele>114.4</ele>
        <time>2025-11-16T10:53:45Z</time>
      </trkpt>
      <trkpt lat="48.59119" lon="1.99552">
        <ele>114.6</ele>
        <time>2025-11-16T10:53:46Z</time>
      </trkpt>
      <trkpt lat="48.59116" lon="1.99548">
        <ele>114.6</ele>
        <time>2025-11-16T10:53:47Z</time>
      </trkpt>
      <trkpt lat="48.59112" lon="1.99544">
        <ele>114.6</ele>
        <time>2025-11-16T10:53:48Z</time>
      </trkpt>
      <trkpt lat="48.59108" lon="1.99539">
        <ele>114.8</ele>
        <time>2025-11-16T10:53:49Z</time>
      </trkpt>
      <trkpt lat="48.59104" lon="1.99535">
        <ele>114.8</ele>
        <time>2025-11-16T10:53:50Z</time>
      </trkpt>
      <trkpt lat="48.591" lon="1.99531">
        <ele>115</ele>
        <time>2025-11-16T10:53:51Z</time>
      </trkpt>
      <trkpt lat="48.59096" lon="1.99526">
        <ele>115</ele>
        <time>2025-11-16T10:53:52Z</time>
      </trkpt>
      <trkpt lat="48.59092" lon="1.99522">
        <ele>115</ele>
        <time>2025-11-16T10:53:53Z</time>
      </trkpt>
      <trkpt lat="48.59089" lon="1.99518">
        <ele>115.2</ele>
        <time>2025-11-16T10:53:54Z</time>
      </trkpt>
      <trkpt lat="48.59084" lon="1.99514">
        <ele>115.2</ele>
        <time>2025-11-16T10:53:55Z</time>
      </trkpt>
      <trkpt lat="48.59081" lon="1.99509">
        <ele>115.2</ele>
        <time>2025-11-16T10:53:56Z</time>
      </trkpt>
      <trkpt lat="48.59077" lon="1.99505">
        <ele>115.2</ele>
        <time>2025-11-16T10:53:57Z</time>
      </trkpt>
      <trkpt lat="48.59073" lon="1.99501">
        <ele>115.4</ele>
        <time>2025-11-16T10:53:58Z</time>
      </trkpt>
      <trkpt lat="48.59069" lon="1.99497">
        <ele>115.4</ele>
        <time>2025-11-16T10:53:59Z</time>
      </trkpt>
      <trkpt lat="48.59066" lon="1.99492">
        <ele>115.4</ele>
        <time>2025-11-16T10:54:00Z</time>
      </trkpt>
      <trkpt lat="48.59062" lon="1.99488">
        <ele>115.6</ele>
        <time>2025-11-16T10:54:01Z</time>
      </trkpt>
      <trkpt lat="48.59059" lon="1.99484">
        <ele>115.6</ele>
        <time>2025-11-16T10:54:02Z</time>
      </trkpt>
      <trkpt lat="48.59055" lon="1.9948">
        <ele>115.6</ele>
        <time>2025-11-16T10:54:03Z</time>
      </trkpt>
      <trkpt lat="48.59051" lon="1.99476">
        <ele>115.6</ele>
        <time>2025-11-16T10:54:04Z</time>
      </trkpt>
      <trkpt lat="48.59047" lon="1.99471">
        <ele>115.8</ele>
        <time>2025-11-16T10:54:05Z</time>
      </trkpt>
      <trkpt lat="48.59043" lon="1.99466">
        <ele>115.8</ele>
        <time>2025-11-16T10:54:06Z</time>
      </trkpt>
      <trkpt lat="48.59038" lon="1.99461">
        <ele>115.8</ele>
        <time>2025-11-16T10:54:07Z</time>
      </trkpt>
      <trkpt lat="48.59034" lon="1.99456">
        <ele>115.6</ele>
        <time>2025-11-16T10:54:08Z</time>
      </trkpt>
      <trkpt lat="48.59029" lon="1.99452">
        <ele>115.6</ele>
        <time>2025-11-16T10:54:09Z</time>
      </trkpt>
      <trkpt lat="48.59025" lon="1.99447">
        <ele>115.8</ele>
        <time>2025-11-16T10:54:10Z</time>
      </trkpt>
      <trkpt lat="48.59021" lon="1.99443">
        <ele>115.8</ele>
        <time>2025-11-16T10:54:11Z</time>
      </trkpt>
      <trkpt lat="48.59018" lon="1.99439">
        <ele>115.8</ele>
        <time>2025-11-16T10:54:12Z</time>
      </trkpt>
      <trkpt lat="48.59014" lon="1.99435">
        <ele>116</ele>
        <time>2025-11-16T10:54:13Z</time>
      </trkpt>
      <trkpt lat="48.59011" lon="1.99431">
        <ele>116</ele>
        <time>2025-11-16T10:54:14Z</time>
      </trkpt>
      <trkpt lat="48.59008" lon="1.99427">
        <ele>116.2</ele>
        <time>2025-11-16T10:54:15Z</time>
      </trkpt>
      <trkpt lat="48.59005" lon="1.99423">
        <ele>116.4</ele>
        <time>2025-11-16T10:54:16Z</time>
      </trkpt>
      <trkpt lat="48.59002" lon="1.99419">
        <ele>116.6</ele>
        <time>2025-11-16T10:54:17Z</time>
      </trkpt>
      <trkpt lat="48.58999" lon="1.99416">
        <ele>116.6</ele>
        <time>2025-11-16T10:54:18Z</time>
      </trkpt>
      <trkpt lat="48.58996" lon="1.99413">
        <ele>116.8</ele>
        <time>2025-11-16T10:54:19Z</time>
      </trkpt>
      <trkpt lat="48.58994" lon="1.9941">
        <ele>117</ele>
        <time>2025-11-16T10:54:20Z</time>
      </trkpt>
      <trkpt lat="48.58991" lon="1.99408">
        <ele>117</ele>
        <time>2025-11-16T10:54:21Z</time>
      </trkpt>
      <trkpt lat="48.58989" lon="1.99406">
        <ele>117.2</ele>
        <time>2025-11-16T10:54:22Z</time>
      </trkpt>
      <trkpt lat="48.58988" lon="1.99405">
        <ele>117.2</ele>
        <time>2025-11-16T10:54:23Z</time>
      </trkpt>
      <trkpt lat="48.58986" lon="1.99404">
        <ele>117.2</ele>
        <time>2025-11-16T10:54:24Z</time>
      </trkpt>
      <trkpt lat="48.58983" lon="1.99401">
        <ele>117.2</ele>
        <time>2025-11-16T10:54:26Z</time>
      </trkpt>
      <trkpt lat="48.5898" lon="1.99399">
        <ele>117.4</ele>
        <time>2025-11-16T10:54:28Z</time>
      </trkpt>
      <trkpt lat="48.58978" lon="1.99395">
        <ele>117.4</ele>
        <time>2025-11-16T10:54:30Z</time>
      </trkpt>
      <trkpt lat="48.58976" lon="1.99392">
        <ele>117.6</ele>
        <time>2025-11-16T10:54:32Z</time>
      </trkpt>
      <trkpt lat="48.58973" lon="1.99388">
        <ele>117.8</ele>
        <time>2025-11-16T10:54:34Z</time>
      </trkpt>
      <trkpt lat="48.58972" lon="1.99386">
        <ele>118</ele>
        <time>2025-11-16T10:54:35Z</time>
      </trkpt>
      <trkpt lat="48.5897" lon="1.99384">
        <ele>118</ele>
        <time>2025-11-16T10:54:36Z</time>
      </trkpt>
      <trkpt lat="48.58969" lon="1.99383">
        <ele>118</ele>
        <time>2025-11-16T10:54:37Z</time>
      </trkpt>
      <trkpt lat="48.58966" lon="1.99379">
        <ele>118</ele>
        <time>2025-11-16T10:54:39Z</time>
      </trkpt>
      <trkpt lat="48.58964" lon="1.99376">
        <ele>118.2</ele>
        <time>2025-11-16T10:54:41Z</time>
      </trkpt>
      <trkpt lat="48.5896" lon="1.99374">
        <ele>118.2</ele>
        <time>2025-11-16T10:54:43Z</time>
      </trkpt>
      <trkpt lat="48.58958" lon="1.99372">
        <ele>118.2</ele>
        <time>2025-11-16T10:54:45Z</time>
      </trkpt>
      <trkpt lat="48.58956" lon="1.99371">
        <ele>118.2</ele>
        <time>2025-11-16T10:54:46Z</time>
      </trkpt>
      <trkpt lat="48.58954" lon="1.99368">
        <ele>118.2</ele>
        <time>2025-11-16T10:54:48Z</time>
      </trkpt>
      <trkpt lat="48.58952" lon="1.99365">
        <ele>118.2</ele>
        <time>2025-11-16T10:54:50Z</time>
      </trkpt>
      <trkpt lat="48.5895" lon="1.99362">
        <ele>118.2</ele>
        <time>2025-11-16T10:54:52Z</time>
      </trkpt>
      <trkpt lat="48.58948" lon="1.99358">
        <ele>118.2</ele>
        <time>2025-11-16T10:54:54Z</time>
      </trkpt>
      <trkpt lat="48.58946" lon="1.99355">
        <ele>118.2</ele>
        <time>2025-11-16T10:54:56Z</time>
      </trkpt>
      <trkpt lat="48.58944" lon="1.99352">
        <ele>118.2</ele>
        <time>2025-11-16T10:54:58Z</time>
      </trkpt>
      <trkpt lat="48.58942" lon="1.99349">
        <ele>118.4</ele>
        <time>2025-11-16T10:55:00Z</time>
      </trkpt>
      <trkpt lat="48.5894" lon="1.99346">
        <ele>118.6</ele>
        <time>2025-11-16T10:55:02Z</time>
      </trkpt>
      <trkpt lat="48.58938" lon="1.99345">
        <ele>118.8</ele>
        <time>2025-11-16T10:55:04Z</time>
      </trkpt>
      <trkpt lat="48.58936" lon="1.99343">
        <ele>119</ele>
        <time>2025-11-16T10:55:06Z</time>
      </trkpt>
      <trkpt lat="48.58933" lon="1.99341">
        <ele>119.4</ele>
        <time>2025-11-16T10:55:08Z</time>
      </trkpt>
      <trkpt lat="48.5893" lon="1.99338">
        <ele>119.6</ele>
        <time>2025-11-16T10:55:10Z</time>
      </trkpt>
      <trkpt lat="48.58928" lon="1.99335">
        <ele>119.8</ele>
        <time>2025-11-16T10:55:12Z</time>
      </trkpt>
      <trkpt lat="48.58925" lon="1.99331">
        <ele>120</ele>
        <time>2025-11-16T10:55:14Z</time>
      </trkpt>
      <trkpt lat="48.58923" lon="1.99327">
        <ele>120.2</ele>
        <time>2025-11-16T10:55:16Z</time>
      </trkpt>
      <trkpt lat="48.58922" lon="1.99323">
        <ele>120.4</ele>
        <time>2025-11-16T10:55:18Z</time>
      </trkpt>
      <trkpt lat="48.58922" lon="1.99318">
        <ele>120.6</ele>
        <time>2025-11-16T10:55:20Z</time>
      </trkpt>
      <trkpt lat="48.58921" lon="1.99313">
        <ele>120.8</ele>
        <time>2025-11-16T10:55:22Z</time>
      </trkpt>
      <trkpt lat="48.58921" lon="1.99308">
        <ele>121</ele>
        <time>2025-11-16T10:55:24Z</time>
      </trkpt>
      <trkpt lat="48.58921" lon="1.99303">
        <ele>121.4</ele>
        <time>2025-11-16T10:55:26Z</time>
      </trkpt>
      <trkpt lat="48.58921" lon="1.99299">
        <ele>121.6</ele>
        <time>2025-11-16T10:55:28Z</time>
      </trkpt>
      <trkpt lat="48.58921" lon="1.99294">
        <ele>122</ele>
        <time>2025-11-16T10:55:30Z</time>
      </trkpt>
      <trkpt lat="48.5892" lon="1.99289">
        <ele>122.2</ele>
        <time>2025-11-16T10:55:32Z</time>
      </trkpt>
      <trkpt lat="48.5892" lon="1.99284">
        <ele>122.6</ele>
        <time>2025-11-16T10:55:34Z</time>
      </trkpt>
      <trkpt lat="48.5892" lon="1.99279">
        <ele>123.2</ele>
        <time>2025-11-16T10:55:36Z</time>
      </trkpt>
      <trkpt lat="48.5892" lon="1.99275">
        <ele>123.8</ele>
        <time>2025-11-16T10:55:38Z</time>
      </trkpt>
      <trkpt lat="48.5892" lon="1.9927">
        <ele>124.4</ele>
        <time>2025-11-16T10:55:40Z</time>
      </trkpt>
      <trkpt lat="48.58919" lon="1.99264">
        <ele>125</ele>
        <time>2025-11-16T10:55:42Z</time>
      </trkpt>
      <trkpt lat="48.58919" lon="1.99259">
        <ele>125.6</ele>
        <time>2025-11-16T10:55:44Z</time>
      </trkpt>
      <trkpt lat="48.58918" lon="1.99254">
        <ele>126</ele>
        <time>2025-11-16T10:55:46Z</time>
      </trkpt>
      <trkpt lat="48.58918" lon="1.99249">
        <ele>126.2</ele>
        <time>2025-11-16T10:55:48Z</time>
      </trkpt>
      <trkpt lat="48.58918" lon="1.99244">
        <ele>126.2</ele>
        <time>2025-11-16T10:55:50Z</time>
      </trkpt>
      <trkpt lat="48.58918" lon="1.99238">
        <ele>126.4</ele>
        <time>2025-11-16T10:55:52Z</time>
      </trkpt>
      <trkpt lat="48.58918" lon="1.99235">
        <ele>126.4</ele>
        <time>2025-11-16T10:55:53Z</time>
      </trkpt>
      <trkpt lat="48.58918" lon="1.99233">
        <ele>126.4</ele>
        <time>2025-11-16T10:55:54Z</time>
      </trkpt>
      <trkpt lat="48.58918" lon="1.9923">
        <ele>126.4</ele>
        <time>2025-11-16T10:55:55Z</time>
      </trkpt>
      <trkpt lat="48.58918" lon="1.99227">
        <ele>126.4</ele>
        <time>2025-11-16T10:55:56Z</time>
      </trkpt>
      <trkpt lat="48.58918" lon="1.99224">
        <ele>126.4</ele>
        <time>2025-11-16T10:55:57Z</time>
      </trkpt>
      <trkpt lat="48.58918" lon="1.99222">
        <ele>126.4</ele>
        <time>2025-11-16T10:55:58Z</time>
      </trkpt>
      <trkpt lat="48.58918" lon="1.99219">
        <ele>126.6</ele>
        <time>2025-11-16T10:55:59Z</time>
      </trkpt>
      <trkpt lat="48.58918" lon="1.99216">
        <ele>126.6</ele>
        <time>2025-11-16T10:56:00Z</time>
      </trkpt>
      <trkpt lat="48.58918" lon="1.99213">
        <ele>126.6</ele>
        <time>2025-11-16T10:56:01Z</time>
      </trkpt>
      <trkpt lat="48.58918" lon="1.99208">
        <ele>126.8</ele>
        <time>2025-11-16T10:56:03Z</time>
      </trkpt>
      <trkpt lat="48.58918" lon="1.99204">
        <ele>126.8</ele>
        <time>2025-11-16T10:56:05Z</time>
      </trkpt>
      <trkpt lat="48.5892" lon="1.992">
        <ele>126.8</ele>
        <time>2025-11-16T10:56:07Z</time>
      </trkpt>
      <trkpt lat="48.58921" lon="1.99196">
        <ele>126.8</ele>
        <time>2025-11-16T10:56:09Z</time>
      </trkpt>
      <trkpt lat="48.58923" lon="1.99191">
        <ele>126.8</ele>
        <time>2025-11-16T10:56:11Z</time>
      </trkpt>
      <trkpt lat="48.58924" lon="1.99186">
        <ele>127</ele>
        <time>2025-11-16T10:56:13Z</time>
      </trkpt>
      <trkpt lat="48.58924" lon="1.99182">
        <ele>127</ele>
        <time>2025-11-16T10:56:15Z</time>
      </trkpt>
      <trkpt lat="48.58925" lon="1.99177">
        <ele>127</ele>
        <time>2025-11-16T10:56:17Z</time>
      </trkpt>
      <trkpt lat="48.58926" lon="1.99173">
        <ele>126.8</ele>
        <time>2025-11-16T10:56:19Z</time>
      </trkpt>
      <trkpt lat="48.58928" lon="1.99169">
        <ele>126.4</ele>
        <time>2025-11-16T10:56:21Z</time>
      </trkpt>
      <trkpt lat="48.58929" lon="1.99165">
        <ele>126.2</ele>
        <time>2025-11-16T10:56:23Z</time>
      </trkpt>
      <trkpt lat="48.5893" lon="1.99161">
        <ele>126.2</ele>
        <time>2025-11-16T10:56:25Z</time>
      </trkpt>
      <trkpt lat="48.58931" lon="1.99157">
        <ele>126.2</ele>
        <time>2025-11-16T10:56:27Z</time>
      </trkpt>
      <trkpt lat="48.58932" lon="1.99153">
        <ele>126</ele>
        <time>2025-11-16T10:56:29Z</time>
      </trkpt>
      <trkpt lat="48.58934" lon="1.99149">
        <ele>126</ele>
        <time>2025-11-16T10:56:31Z</time>
      </trkpt>
      <trkpt lat="48.58935" lon="1.99145">
        <ele>125.8</ele>
        <time>2025-11-16T10:56:33Z</time>
      </trkpt>
      <trkpt lat="48.58936" lon="1.99141">
        <ele>125.6</ele>
        <time>2025-11-16T10:56:35Z</time>
      </trkpt>
      <trkpt lat="48.58937" lon="1.99137">
        <ele>125.4</ele>
        <time>2025-11-16T10:56:37Z</time>
      </trkpt>
      <trkpt lat="48.58938" lon="1.99133">
        <ele>125.4</ele>
        <time>2025-11-16T10:56:39Z</time>
      </trkpt>
      <trkpt lat="48.58939" lon="1.99129">
        <ele>125.2</ele>
        <time>2025-11-16T10:56:41Z</time>
      </trkpt>
      <trkpt lat="48.5894" lon="1.99124">
        <ele>125</ele>
        <time>2025-11-16T10:56:43Z</time>
      </trkpt>
      <trkpt lat="48.58941" lon="1.9912">
        <ele>124.8</ele>
        <time>2025-11-16T10:56:45Z</time>
      </trkpt>
      <trkpt lat="48.58942" lon="1.99116">
        <ele>124.6</ele>
        <time>2025-11-16T10:56:47Z</time>
      </trkpt>
      <trkpt lat="48.58944" lon="1.99111">
        <ele>124.4</ele>
        <time>2025-11-16T10:56:49Z</time>
      </trkpt>
      <trkpt lat="48.58945" lon="1.99107">
        <ele>124.2</ele>
        <time>2025-11-16T10:56:51Z</time>
      </trkpt>
      <trkpt lat="48.58946" lon="1.99104">
        <ele>124.2</ele>
        <time>2025-11-16T10:56:52Z</time>
      </trkpt>
      <trkpt lat="48.58947" lon="1.99099">
        <ele>124.2</ele>
        <time>2025-11-16T10:56:54Z</time>
      </trkpt>
      <trkpt lat="48.58948" lon="1.99096">
        <ele>124.2</ele>
        <time>2025-11-16T10:56:55Z</time>
      </trkpt>
      <trkpt lat="48.58948" lon="1.99094">
        <ele>124.2</ele>
        <time>2025-11-16T10:56:56Z</time>
      </trkpt>
      <trkpt lat="48.58949" lon="1.99089">
        <ele>124.2</ele>
        <time>2025-11-16T10:56:58Z</time>
      </trkpt>
      <trkpt lat="48.5895" lon="1.99083">
        <ele>124.2</ele>
        <time>2025-11-16T10:57:00Z</time>
      </trkpt>
      <trkpt lat="48.5895" lon="1.99081">
        <ele>124.2</ele>
        <time>2025-11-16T10:57:01Z</time>
      </trkpt>
      <trkpt lat="48.58951" lon="1.99078">
        <ele>124.4</ele>
        <time>2025-11-16T10:57:02Z</time>
      </trkpt>
      <trkpt lat="48.58952" lon="1.99073">
        <ele>124.4</ele>
        <time>2025-11-16T10:57:04Z</time>
      </trkpt>
      <trkpt lat="48.58953" lon="1.99068">
        <ele>124.6</ele>
        <time>2025-11-16T10:57:06Z</time>
      </trkpt>
      <trkpt lat="48.58954" lon="1.99066">
        <ele>124.6</ele>
        <time>2025-11-16T10:57:07Z</time>
      </trkpt>
      <trkpt lat="48.58956" lon="1.99062">
        <ele>124.6</ele>
        <time>2025-11-16T10:57:09Z</time>
      </trkpt>
      <trkpt lat="48.58958" lon="1.9906">
        <ele>124.4</ele>
        <time>2025-11-16T10:57:10Z</time>
      </trkpt>
      <trkpt lat="48.58961" lon="1.9906">
        <ele>124.4</ele>
        <time>2025-11-16T10:57:12Z</time>
      </trkpt>
      <trkpt lat="48.58963" lon="1.99061">
        <ele>124.4</ele>
        <time>2025-11-16T10:57:13Z</time>
      </trkpt>
      <trkpt lat="48.58964" lon="1.99062">
        <ele>124.4</ele>
        <time>2025-11-16T10:57:14Z</time>
      </trkpt>
      <trkpt lat="48.58966" lon="1.99064">
        <ele>124.4</ele>
        <time>2025-11-16T10:57:15Z</time>
      </trkpt>
      <trkpt lat="48.58968" lon="1.99065">
        <ele>124.4</ele>
        <time>2025-11-16T10:57:16Z</time>
      </trkpt>
      <trkpt lat="48.5897" lon="1.99068">
        <ele>124.4</ele>
        <time>2025-11-16T10:57:18Z</time>
      </trkpt>
      <trkpt lat="48.58973" lon="1.9907">
        <ele>124.2</ele>
        <time>2025-11-16T10:57:20Z</time>
      </trkpt>
      <trkpt lat="48.58976" lon="1.99072">
        <ele>124</ele>
        <time>2025-11-16T10:57:22Z</time>
      </trkpt>
      <trkpt lat="48.58979" lon="1.99074">
        <ele>123.8</ele>
        <time>2025-11-16T10:57:24Z</time>
      </trkpt>
      <trkpt lat="48.58982" lon="1.99075">
        <ele>123.6</ele>
        <time>2025-11-16T10:57:26Z</time>
      </trkpt>
      <trkpt lat="48.58984" lon="1.99076">
        <ele>123.2</ele>
        <time>2025-11-16T10:57:28Z</time>
      </trkpt>
      <trkpt lat="48.58987" lon="1.99077">
        <ele>123</ele>
        <time>2025-11-16T10:57:30Z</time>
      </trkpt>
      <trkpt lat="48.58989" lon="1.99079">
        <ele>122.8</ele>
        <time>2025-11-16T10:57:32Z</time>
      </trkpt>
      <trkpt lat="48.58992" lon="1.9908">
        <ele>122.6</ele>
        <time>2025-11-16T10:57:34Z</time>
      </trkpt>
      <trkpt lat="48.58996" lon="1.99082">
        <ele>122.6</ele>
        <time>2025-11-16T10:57:36Z</time>
      </trkpt>
      <trkpt lat="48.58998" lon="1.99083">
        <ele>122.4</ele>
        <time>2025-11-16T10:57:38Z</time>
      </trkpt>
      <trkpt lat="48.59" lon="1.99084">
        <ele>122.4</ele>
        <time>2025-11-16T10:57:40Z</time>
      </trkpt>
      <trkpt lat="48.59002" lon="1.99084">
        <ele>122.4</ele>
        <time>2025-11-16T10:57:42Z</time>
      </trkpt>
      <trkpt lat="48.59004" lon="1.99085">
        <ele>122.4</ele>
        <time>2025-11-16T10:57:44Z</time>
      </trkpt>
      <trkpt lat="48.59007" lon="1.99087">
        <ele>122.6</ele>
        <time>2025-11-16T10:57:46Z</time>
      </trkpt>
      <trkpt lat="48.59011" lon="1.99088">
        <ele>122.6</ele>
        <time>2025-11-16T10:57:48Z</time>
      </trkpt>
      <trkpt lat="48.59014" lon="1.9909">
        <ele>123</ele>
        <time>2025-11-16T10:57:50Z</time>
      </trkpt>
      <trkpt lat="48.59017" lon="1.9909">
        <ele>123</ele>
        <time>2025-11-16T10:57:52Z</time>
      </trkpt>
      <trkpt lat="48.5902" lon="1.99091">
        <ele>123.4</ele>
        <time>2025-11-16T10:57:54Z</time>
      </trkpt>
      <trkpt lat="48.59022" lon="1.99093">
        <ele>123.4</ele>
        <time>2025-11-16T10:57:56Z</time>
      </trkpt>
      <trkpt lat="48.59026" lon="1.99095">
        <ele>123.6</ele>
        <time>2025-11-16T10:57:58Z</time>
      </trkpt>
      <trkpt lat="48.59029" lon="1.99098">
        <ele>123.6</ele>
        <time>2025-11-16T10:58:00Z</time>
      </trkpt>
      <trkpt lat="48.59032" lon="1.991">
        <ele>123.4</ele>
        <time>2025-11-16T10:58:02Z</time>
      </trkpt>
      <trkpt lat="48.59035" lon="1.99101">
        <ele>123.2</ele>
        <time>2025-11-16T10:58:04Z</time>
      </trkpt>
      <trkpt lat="48.59037" lon="1.99102">
        <ele>122.8</ele>
        <time>2025-11-16T10:58:06Z</time>
      </trkpt>
      <trkpt lat="48.5904" lon="1.99103">
        <ele>122.6</ele>
        <time>2025-11-16T10:58:08Z</time>
      </trkpt>
      <trkpt lat="48.59043" lon="1.99105">
        <ele>122.2</ele>
        <time>2025-11-16T10:58:10Z</time>
      </trkpt>
      <trkpt lat="48.59046" lon="1.99107">
        <ele>121.8</ele>
        <time>2025-11-16T10:58:12Z</time>
      </trkpt>
      <trkpt lat="48.59049" lon="1.99109">
        <ele>121.4</ele>
        <time>2025-11-16T10:58:14Z</time>
      </trkpt>
      <trkpt lat="48.59052" lon="1.9911">
        <ele>121.2</ele>
        <time>2025-11-16T10:58:16Z</time>
      </trkpt>
      <trkpt lat="48.59055" lon="1.99111">
        <ele>120.8</ele>
        <time>2025-11-16T10:58:18Z</time>
      </trkpt>
      <trkpt lat="48.59058" lon="1.99112">
        <ele>120.8</ele>
        <time>2025-11-16T10:58:20Z</time>
      </trkpt>
      <trkpt lat="48.59061" lon="1.99112">
        <ele>120.8</ele>
        <time>2025-11-16T10:58:22Z</time>
      </trkpt>
      <trkpt lat="48.59065" lon="1.99111">
        <ele>120.8</ele>
        <time>2025-11-16T10:58:24Z</time>
      </trkpt>
      <trkpt lat="48.59068" lon="1.9911">
        <ele>120.6</ele>
        <time>2025-11-16T10:58:26Z</time>
      </trkpt>
      <trkpt lat="48.5907" lon="1.99109">
        <ele>120.6</ele>
        <time>2025-11-16T10:58:28Z</time>
      </trkpt>
      <trkpt lat="48.59073" lon="1.99107">
        <ele>120.4</ele>
        <time>2025-11-16T10:58:30Z</time>
      </trkpt>
      <trkpt lat="48.59076" lon="1.99104">
        <ele>120.4</ele>
        <time>2025-11-16T10:58:32Z</time>
      </trkpt>
      <trkpt lat="48.59079" lon="1.99102">
        <ele>120.2</ele>
        <time>2025-11-16T10:58:34Z</time>
      </trkpt>
      <trkpt lat="48.59081" lon="1.99099">
        <ele>120.2</ele>
        <time>2025-11-16T10:58:36Z</time>
      </trkpt>
      <trkpt lat="48.59083" lon="1.99096">
        <ele>120.2</ele>
        <time>2025-11-16T10:58:38Z</time>
      </trkpt>
      <trkpt lat="48.59086" lon="1.99093">
        <ele>120.2</ele>
        <time>2025-11-16T10:58:40Z</time>
      </trkpt>
      <trkpt lat="48.59089" lon="1.9909">
        <ele>120</ele>
        <time>2025-11-16T10:58:42Z</time>
      </trkpt>
      <trkpt lat="48.59091" lon="1.99088">
        <ele>119.8</ele>
        <time>2025-11-16T10:58:44Z</time>
      </trkpt>
      <trkpt lat="48.59093" lon="1.99087">
        <ele>119.6</ele>
        <time>2025-11-16T10:58:45Z</time>
      </trkpt>
      <trkpt lat="48.59096" lon="1.99084">
        <ele>119.4</ele>
        <time>2025-11-16T10:58:47Z</time>
      </trkpt>
      <trkpt lat="48.59098" lon="1.99083">
        <ele>119.4</ele>
        <time>2025-11-16T10:58:48Z</time>
      </trkpt>
      <trkpt lat="48.59099" lon="1.99081">
        <ele>119.2</ele>
        <time>2025-11-16T10:58:49Z</time>
      </trkpt>
      <trkpt lat="48.59101" lon="1.9908">
        <ele>119.2</ele>
        <time>2025-11-16T10:58:50Z</time>
      </trkpt>
      <trkpt lat="48.59102" lon="1.99078">
        <ele>119.2</ele>
        <time>2025-11-16T10:58:51Z</time>
      </trkpt>
      <trkpt lat="48.59105" lon="1.99075">
        <ele>119.4</ele>
        <time>2025-11-16T10:58:53Z</time>
      </trkpt>
      <trkpt lat="48.59107" lon="1.99071">
        <ele>119.6</ele>
        <time>2025-11-16T10:58:55Z</time>
      </trkpt>
      <trkpt lat="48.59109" lon="1.99067">
        <ele>119.8</ele>
        <time>2025-11-16T10:58:57Z</time>
      </trkpt>
      <trkpt lat="48.59111" lon="1.99064">
        <ele>120</ele>
        <time>2025-11-16T10:58:59Z</time>
      </trkpt>
      <trkpt lat="48.59113" lon="1.99061">
        <ele>120.4</ele>
        <time>2025-11-16T10:59:01Z</time>
      </trkpt>
      <trkpt lat="48.59115" lon="1.99058">
        <ele>120.6</ele>
        <time>2025-11-16T10:59:03Z</time>
      </trkpt>
      <trkpt lat="48.59117" lon="1.99055">
        <ele>121</ele>
        <time>2025-11-16T10:59:05Z</time>
      </trkpt>
      <trkpt lat="48.5912" lon="1.99053">
        <ele>121</ele>
        <time>2025-11-16T10:59:07Z</time>
      </trkpt>
      <trkpt lat="48.59121" lon="1.99052">
        <ele>121.2</ele>
        <time>2025-11-16T10:59:08Z</time>
      </trkpt>
      <trkpt lat="48.59124" lon="1.99049">
        <ele>121.4</ele>
        <time>2025-11-16T10:59:10Z</time>
      </trkpt>
      <trkpt lat="48.59126" lon="1.99047">
        <ele>121.4</ele>
        <time>2025-11-16T10:59:12Z</time>
      </trkpt>
      <trkpt lat="48.59128" lon="1.99045">
        <ele>121.6</ele>
        <time>2025-11-16T10:59:14Z</time>
      </trkpt>
      <trkpt lat="48.59131" lon="1.99043">
        <ele>121.6</ele>
        <time>2025-11-16T10:59:16Z</time>
      </trkpt>
      <trkpt lat="48.59133" lon="1.9904">
        <ele>121.8</ele>
        <time>2025-11-16T10:59:18Z</time>
      </trkpt>
      <trkpt lat="48.59135" lon="1.99038">
        <ele>121.8</ele>
        <time>2025-11-16T10:59:20Z</time>
      </trkpt>
      <trkpt lat="48.59137" lon="1.99035">
        <ele>121.8</ele>
        <time>2025-11-16T10:59:22Z</time>
      </trkpt>
      <trkpt lat="48.5914" lon="1.99033">
        <ele>121.8</ele>
        <time>2025-11-16T10:59:24Z</time>
      </trkpt>
      <trkpt lat="48.59142" lon="1.9903">
        <ele>121.8</ele>
        <time>2025-11-16T10:59:26Z</time>
      </trkpt>
      <trkpt lat="48.59145" lon="1.99027">
        <ele>121.6</ele>
        <time>2025-11-16T10:59:28Z</time>
      </trkpt>
      <trkpt lat="48.59147" lon="1.99025">
        <ele>121.6</ele>
        <time>2025-11-16T10:59:30Z</time>
      </trkpt>
      <trkpt lat="48.59149" lon="1.99022">
        <ele>121.6</ele>
        <time>2025-11-16T10:59:32Z</time>
      </trkpt>
      <trkpt lat="48.59151" lon="1.99021">
        <ele>121.6</ele>
        <time>2025-11-16T10:59:33Z</time>
      </trkpt>
      <trkpt lat="48.59153" lon="1.99019">
        <ele>121.6</ele>
        <time>2025-11-16T10:59:35Z</time>
      </trkpt>
      <trkpt lat="48.59156" lon="1.99016">
        <ele>121.8</ele>
        <time>2025-11-16T10:59:37Z</time>
      </trkpt>
      <trkpt lat="48.59158" lon="1.99014">
        <ele>121.8</ele>
        <time>2025-11-16T10:59:39Z</time>
      </trkpt>
      <trkpt lat="48.59161" lon="1.99012">
        <ele>121.8</ele>
        <time>2025-11-16T10:59:41Z</time>
      </trkpt>
      <trkpt lat="48.59164" lon="1.99009">
        <ele>121.8</ele>
        <time>2025-11-16T10:59:43Z</time>
      </trkpt>
      <trkpt lat="48.59166" lon="1.99007">
        <ele>121.8</ele>
        <time>2025-11-16T10:59:45Z</time>
      </trkpt>
      <trkpt lat="48.59169" lon="1.99005">
        <ele>121.6</ele>
        <time>2025-11-16T10:59:47Z</time>
      </trkpt>
      <trkpt lat="48.59171" lon="1.99003">
        <ele>121.4</ele>
        <time>2025-11-16T10:59:49Z</time>
      </trkpt>
      <trkpt lat="48.59173" lon="1.99">
        <ele>121.2</ele>
        <time>2025-11-16T10:59:51Z</time>
      </trkpt>
      <trkpt lat="48.59175" lon="1.98998">
        <ele>121</ele>
        <time>2025-11-16T10:59:53Z</time>
      </trkpt>
      <trkpt lat="48.59177" lon="1.98997">
        <ele>120.8</ele>
        <time>2025-11-16T10:59:54Z</time>
      </trkpt>
      <trkpt lat="48.59179" lon="1.98994">
        <ele>120.8</ele>
        <time>2025-11-16T10:59:56Z</time>
      </trkpt>
      <trkpt lat="48.59181" lon="1.98992">
        <ele>120.8</ele>
        <time>2025-11-16T10:59:58Z</time>
      </trkpt>
      <trkpt lat="48.59183" lon="1.98989">
        <ele>120.6</ele>
        <time>2025-11-16T11:00:00Z</time>
      </trkpt>
      <trkpt lat="48.59185" lon="1.98985">
        <ele>120.6</ele>
        <time>2025-11-16T11:00:02Z</time>
      </trkpt>
      <trkpt lat="48.59188" lon="1.98982">
        <ele>120.6</ele>
        <time>2025-11-16T11:00:04Z</time>
      </trkpt>
      <trkpt lat="48.5919" lon="1.98978">
        <ele>120.6</ele>
        <time>2025-11-16T11:00:06Z</time>
      </trkpt>
      <trkpt lat="48.59192" lon="1.98975">
        <ele>120.6</ele>
        <time>2025-11-16T11:00:08Z</time>
      </trkpt>
      <trkpt lat="48.59195" lon="1.98971">
        <ele>120.8</ele>
        <time>2025-11-16T11:00:10Z</time>
      </trkpt>
      <trkpt lat="48.59196" lon="1.98968">
        <ele>120.8</ele>
        <time>2025-11-16T11:00:12Z</time>
      </trkpt>
      <trkpt lat="48.59198" lon="1.98965">
        <ele>120.6</ele>
        <time>2025-11-16T11:00:14Z</time>
      </trkpt>
      <trkpt lat="48.592" lon="1.98961">
        <ele>120.6</ele>
        <time>2025-11-16T11:00:16Z</time>
      </trkpt>
      <trkpt lat="48.59201" lon="1.98957">
        <ele>120.8</ele>
        <time>2025-11-16T11:00:18Z</time>
      </trkpt>
      <trkpt lat="48.59203" lon="1.98954">
        <ele>121</ele>
        <time>2025-11-16T11:00:20Z</time>
      </trkpt>
      <trkpt lat="48.59204" lon="1.9895">
        <ele>121</ele>
        <time>2025-11-16T11:00:22Z</time>
      </trkpt>
      <trkpt lat="48.59206" lon="1.98947">
        <ele>121.2</ele>
        <time>2025-11-16T11:00:24Z</time>
      </trkpt>
      <trkpt lat="48.59208" lon="1.98943">
        <ele>121.4</ele>
        <time>2025-11-16T11:00:26Z</time>
      </trkpt>
      <trkpt lat="48.5921" lon="1.9894">
        <ele>121.4</ele>
        <time>2025-11-16T11:00:28Z</time>
      </trkpt>
      <trkpt lat="48.59212" lon="1.98937">
        <ele>121.4</ele>
        <time>2025-11-16T11:00:30Z</time>
      </trkpt>
      <trkpt lat="48.59214" lon="1.98934">
        <ele>121.2</ele>
        <time>2025-11-16T11:00:32Z</time>
      </trkpt>
      <trkpt lat="48.59216" lon="1.98931">
        <ele>121.2</ele>
        <time>2025-11-16T11:00:34Z</time>
      </trkpt>
      <trkpt lat="48.59218" lon="1.98928">
        <ele>121.2</ele>
        <time>2025-11-16T11:00:36Z</time>
      </trkpt>
      <trkpt lat="48.59219" lon="1.98924">
        <ele>121.2</ele>
        <time>2025-11-16T11:00:38Z</time>
      </trkpt>
      <trkpt lat="48.5922" lon="1.98921">
        <ele>121</ele>
        <time>2025-11-16T11:00:40Z</time>
      </trkpt>
      <trkpt lat="48.59221" lon="1.98918">
        <ele>121</ele>
        <time>2025-11-16T11:00:42Z</time>
      </trkpt>
      <trkpt lat="48.59223" lon="1.98915">
        <ele>121</ele>
        <time>2025-11-16T11:00:44Z</time>
      </trkpt>
      <trkpt lat="48.59226" lon="1.98912">
        <ele>121</ele>
        <time>2025-11-16T11:00:46Z</time>
      </trkpt>
      <trkpt lat="48.59228" lon="1.98908">
        <ele>121.2</ele>
        <time>2025-11-16T11:00:48Z</time>
      </trkpt>
      <trkpt lat="48.5923" lon="1.98905">
        <ele>121</ele>
        <time>2025-11-16T11:00:50Z</time>
      </trkpt>
      <trkpt lat="48.59233" lon="1.98902">
        <ele>121</ele>
        <time>2025-11-16T11:00:52Z</time>
      </trkpt>
      <trkpt lat="48.59236" lon="1.98899">
        <ele>121</ele>
        <time>2025-11-16T11:00:54Z</time>
      </trkpt>
      <trkpt lat="48.59237" lon="1.98896">
        <ele>121</ele>
        <time>2025-11-16T11:00:56Z</time>
      </trkpt>
      <trkpt lat="48.59239" lon="1.98892">
        <ele>121</ele>
        <time>2025-11-16T11:00:58Z</time>
      </trkpt>
      <trkpt lat="48.59241" lon="1.98889">
        <ele>120.8</ele>
        <time>2025-11-16T11:01:00Z</time>
      </trkpt>
      <trkpt lat="48.59244" lon="1.98886">
        <ele>120.8</ele>
        <time>2025-11-16T11:01:02Z</time>
      </trkpt>
      <trkpt lat="48.59246" lon="1.98883">
        <ele>121</ele>
        <time>2025-11-16T11:01:04Z</time>
      </trkpt>
      <trkpt lat="48.59248" lon="1.9888">
        <ele>120.8</ele>
        <time>2025-11-16T11:01:06Z</time>
      </trkpt>
      <trkpt lat="48.59251" lon="1.98878">
        <ele>120.8</ele>
        <time>2025-11-16T11:01:08Z</time>
      </trkpt>
      <trkpt lat="48.59253" lon="1.98876">
        <ele>120.8</ele>
        <time>2025-11-16T11:01:10Z</time>
      </trkpt>
      <trkpt lat="48.59256" lon="1.98875">
        <ele>120.6</ele>
        <time>2025-11-16T11:01:12Z</time>
      </trkpt>
      <trkpt lat="48.59259" lon="1.98874">
        <ele>120.6</ele>
        <time>2025-11-16T11:01:14Z</time>
      </trkpt>
      <trkpt lat="48.5926" lon="1.98873">
        <ele>120.6</ele>
        <time>2025-11-16T11:01:15Z</time>
      </trkpt>
      <trkpt lat="48.59264" lon="1.98872">
        <ele>120.4</ele>
        <time>2025-11-16T11:01:17Z</time>
      </trkpt>
      <trkpt lat="48.59267" lon="1.98871">
        <ele>120.4</ele>
        <time>2025-11-16T11:01:19Z</time>
      </trkpt>
      <trkpt lat="48.59268" lon="1.9887">
        <ele>120.4</ele>
        <time>2025-11-16T11:01:20Z</time>
      </trkpt>
      <trkpt lat="48.59272" lon="1.98869">
        <ele>120.4</ele>
        <time>2025-11-16T11:01:22Z</time>
      </trkpt>
      <trkpt lat="48.59275" lon="1.98867">
        <ele>120.2</ele>
        <time>2025-11-16T11:01:24Z</time>
      </trkpt>
      <trkpt lat="48.59278" lon="1.98866">
        <ele>120.4</ele>
        <time>2025-11-16T11:01:26Z</time>
      </trkpt>
      <trkpt lat="48.59281" lon="1.98865">
        <ele>120.2</ele>
        <time>2025-11-16T11:01:28Z</time>
      </trkpt>
      <trkpt lat="48.59284" lon="1.98864">
        <ele>120.4</ele>
        <time>2025-11-16T11:01:30Z</time>
      </trkpt>
      <trkpt lat="48.59288" lon="1.98863">
        <ele>120.4</ele>
        <time>2025-11-16T11:01:32Z</time>
      </trkpt>
      <trkpt lat="48.59291" lon="1.98861">
        <ele>120.4</ele>
        <time>2025-11-16T11:01:34Z</time>
      </trkpt>
      <trkpt lat="48.59293" lon="1.9886">
        <ele>120.4</ele>
        <time>2025-11-16T11:01:35Z</time>
      </trkpt>
      <trkpt lat="48.59296" lon="1.98858">
        <ele>120.4</ele>
        <time>2025-11-16T11:01:37Z</time>
      </trkpt>
      <trkpt lat="48.59298" lon="1.98857">
        <ele>120.4</ele>
        <time>2025-11-16T11:01:38Z</time>
      </trkpt>
      <trkpt lat="48.59301" lon="1.98855">
        <ele>120.4</ele>
        <time>2025-11-16T11:01:40Z</time>
      </trkpt>
      <trkpt lat="48.59304" lon="1.98854">
        <ele>120.2</ele>
        <time>2025-11-16T11:01:42Z</time>
      </trkpt>
      <trkpt lat="48.59307" lon="1.98853">
        <ele>120.2</ele>
        <time>2025-11-16T11:01:44Z</time>
      </trkpt>
      <trkpt lat="48.5931" lon="1.98852">
        <ele>120</ele>
        <time>2025-11-16T11:01:46Z</time>
      </trkpt>
      <trkpt lat="48.59313" lon="1.98851">
        <ele>120</ele>
        <time>2025-11-16T11:01:48Z</time>
      </trkpt>
      <trkpt lat="48.59316" lon="1.98849">
        <ele>119.8</ele>
        <time>2025-11-16T11:01:50Z</time>
      </trkpt>
      <trkpt lat="48.59318" lon="1.98848">
        <ele>119.6</ele>
        <time>2025-11-16T11:01:52Z</time>
      </trkpt>
      <trkpt lat="48.59321" lon="1.98846">
        <ele>119.6</ele>
        <time>2025-11-16T11:01:54Z</time>
      </trkpt>
      <trkpt lat="48.59324" lon="1.98844">
        <ele>119.4</ele>
        <time>2025-11-16T11:01:56Z</time>
      </trkpt>
      <trkpt lat="48.59327" lon="1.98843">
        <ele>119.2</ele>
        <time>2025-11-16T11:01:58Z</time>
      </trkpt>
      <trkpt lat="48.5933" lon="1.98842">
        <ele>119.2</ele>
        <time>2025-11-16T11:02:00Z</time>
      </trkpt>
      <trkpt lat="48.59333" lon="1.9884">
        <ele>119.2</ele>
        <time>2025-11-16T11:02:02Z</time>
      </trkpt>
      <trkpt lat="48.59336" lon="1.98838">
        <ele>119.2</ele>
        <time>2025-11-16T11:02:04Z</time>
      </trkpt>
      <trkpt lat="48.5934" lon="1.98837">
        <ele>119</ele>
        <time>2025-11-16T11:02:06Z</time>
      </trkpt>
      <trkpt lat="48.59343" lon="1.98836">
        <ele>119</ele>
        <time>2025-11-16T11:02:08Z</time>
      </trkpt>
      <trkpt lat="48.59346" lon="1.98835">
        <ele>119</ele>
        <time>2025-11-16T11:02:10Z</time>
      </trkpt>
      <trkpt lat="48.59349" lon="1.98834">
        <ele>119</ele>
        <time>2025-11-16T11:02:12Z</time>
      </trkpt>
      <trkpt lat="48.59352" lon="1.98832">
        <ele>119</ele>
        <time>2025-11-16T11:02:14Z</time>
      </trkpt>
      <trkpt lat="48.59355" lon="1.9883">
        <ele>119</ele>
        <time>2025-11-16T11:02:16Z</time>
      </trkpt>
      <trkpt lat="48.59358" lon="1.98828">
        <ele>119</ele>
        <time>2025-11-16T11:02:18Z</time>
      </trkpt>
      <trkpt lat="48.59361" lon="1.98826">
        <ele>119</ele>
        <time>2025-11-16T11:02:20Z</time>
      </trkpt>
      <trkpt lat="48.59364" lon="1.98825">
        <ele>119</ele>
        <time>2025-11-16T11:02:22Z</time>
      </trkpt>
      <trkpt lat="48.59368" lon="1.98824">
        <ele>119</ele>
        <time>2025-11-16T11:02:24Z</time>
      </trkpt>
      <trkpt lat="48.59371" lon="1.98823">
        <ele>119</ele>
        <time>2025-11-16T11:02:26Z</time>
      </trkpt>
      <trkpt lat="48.59374" lon="1.98823">
        <ele>118.8</ele>
        <time>2025-11-16T11:02:28Z</time>
      </trkpt>
      <trkpt lat="48.59377" lon="1.98822">
        <ele>118.8</ele>
        <time>2025-11-16T11:02:30Z</time>
      </trkpt>
      <trkpt lat="48.59379" lon="1.98822">
        <ele>118.6</ele>
        <time>2025-11-16T11:02:32Z</time>
      </trkpt>
      <trkpt lat="48.59383" lon="1.98821">
        <ele>118.6</ele>
        <time>2025-11-16T11:02:34Z</time>
      </trkpt>
      <trkpt lat="48.59386" lon="1.98819">
        <ele>118.6</ele>
        <time>2025-11-16T11:02:36Z</time>
      </trkpt>
      <trkpt lat="48.59389" lon="1.98818">
        <ele>118.6</ele>
        <time>2025-11-16T11:02:38Z</time>
      </trkpt>
      <trkpt lat="48.59392" lon="1.98817">
        <ele>118.6</ele>
        <time>2025-11-16T11:02:40Z</time>
      </trkpt>
      <trkpt lat="48.59394" lon="1.98816">
        <ele>118.6</ele>
        <time>2025-11-16T11:02:41Z</time>
      </trkpt>
      <trkpt lat="48.59397" lon="1.98815">
        <ele>118.6</ele>
        <time>2025-11-16T11:02:43Z</time>
      </trkpt>
      <trkpt lat="48.59399" lon="1.98815">
        <ele>118.6</ele>
        <time>2025-11-16T11:02:44Z</time>
      </trkpt>
      <trkpt lat="48.59401" lon="1.98815">
        <ele>118.6</ele>
        <time>2025-11-16T11:02:45Z</time>
      </trkpt>
      <trkpt lat="48.59403" lon="1.98815">
        <ele>118.6</ele>
        <time>2025-11-16T11:02:46Z</time>
      </trkpt>
      <trkpt lat="48.59405" lon="1.98814">
        <ele>118.6</ele>
        <time>2025-11-16T11:02:47Z</time>
      </trkpt>
      <trkpt lat="48.59407" lon="1.98814">
        <ele>118.6</ele>
        <time>2025-11-16T11:02:48Z</time>
      </trkpt>
      <trkpt lat="48.59411" lon="1.98814">
        <ele>118.6</ele>
        <time>2025-11-16T11:02:50Z</time>
      </trkpt>
      <trkpt lat="48.59413" lon="1.98814">
        <ele>118.6</ele>
        <time>2025-11-16T11:02:52Z</time>
      </trkpt>
      <trkpt lat="48.59416" lon="1.98813">
        <ele>118.6</ele>
        <time>2025-11-16T11:02:54Z</time>
      </trkpt>
      <trkpt lat="48.59419" lon="1.98813">
        <ele>118.6</ele>
        <time>2025-11-16T11:02:56Z</time>
      </trkpt>
      <trkpt lat="48.59422" lon="1.98813">
        <ele>119</ele>
        <time>2025-11-16T11:02:58Z</time>
      </trkpt>
      <trkpt lat="48.59425" lon="1.98813">
        <ele>119.2</ele>
        <time>2025-11-16T11:03:00Z</time>
      </trkpt>
      <trkpt lat="48.59427" lon="1.98813">
        <ele>119.4</ele>
        <time>2025-11-16T11:03:02Z</time>
      </trkpt>
      <trkpt lat="48.5943" lon="1.98813">
        <ele>119.4</ele>
        <time>2025-11-16T11:03:04Z</time>
      </trkpt>
      <trkpt lat="48.59433" lon="1.98813">
        <ele>119.6</ele>
        <time>2025-11-16T11:03:06Z</time>
      </trkpt>
      <trkpt lat="48.59436" lon="1.98812">
        <ele>119.8</ele>
        <time>2025-11-16T11:03:08Z</time>
      </trkpt>
      <trkpt lat="48.59439" lon="1.9881">
        <ele>120</ele>
        <time>2025-11-16T11:03:10Z</time>
      </trkpt>
      <trkpt lat="48.59442" lon="1.98809">
        <ele>120</ele>
        <time>2025-11-16T11:03:12Z</time>
      </trkpt>
      <trkpt lat="48.59445" lon="1.98808">
        <ele>120</ele>
        <time>2025-11-16T11:03:14Z</time>
      </trkpt>
      <trkpt lat="48.59448" lon="1.98807">
        <ele>120.2</ele>
        <time>2025-11-16T11:03:16Z</time>
      </trkpt>
      <trkpt lat="48.5945" lon="1.98806">
        <ele>120.2</ele>
        <time>2025-11-16T11:03:18Z</time>
      </trkpt>
      <trkpt lat="48.59452" lon="1.98807">
        <ele>120.2</ele>
        <time>2025-11-16T11:03:22Z</time>
      </trkpt>
      <trkpt lat="48.59454" lon="1.98809">
        <ele>120.2</ele>
        <time>2025-11-16T11:03:24Z</time>
      </trkpt>
      <trkpt lat="48.59457" lon="1.98811">
        <ele>120.2</ele>
        <time>2025-11-16T11:03:26Z</time>
      </trkpt>
      <trkpt lat="48.59461" lon="1.98812">
        <ele>120.2</ele>
        <time>2025-11-16T11:03:28Z</time>
      </trkpt>
      <trkpt lat="48.59464" lon="1.98811">
        <ele>120.2</ele>
        <time>2025-11-16T11:03:30Z</time>
      </trkpt>
      <trkpt lat="48.59467" lon="1.98811">
        <ele>120.4</ele>
        <time>2025-11-16T11:03:32Z</time>
      </trkpt>
      <trkpt lat="48.5947" lon="1.9881">
        <ele>120.6</ele>
        <time>2025-11-16T11:03:34Z</time>
      </trkpt>
      <trkpt lat="48.59473" lon="1.98809">
        <ele>120.8</ele>
        <time>2025-11-16T11:03:36Z</time>
      </trkpt>
      <trkpt lat="48.59476" lon="1.98809">
        <ele>120.8</ele>
        <time>2025-11-16T11:03:38Z</time>
      </trkpt>
      <trkpt lat="48.5948" lon="1.98809">
        <ele>121</ele>
        <time>2025-11-16T11:03:40Z</time>
      </trkpt>
      <trkpt lat="48.59483" lon="1.98808">
        <ele>121</ele>
        <time>2025-11-16T11:03:42Z</time>
      </trkpt>
      <trkpt lat="48.59484" lon="1.98808">
        <ele>121</ele>
        <time>2025-11-16T11:03:43Z</time>
      </trkpt>
      <trkpt lat="48.59488" lon="1.98808">
        <ele>120.8</ele>
        <time>2025-11-16T11:03:45Z</time>
      </trkpt>
      <trkpt lat="48.59491" lon="1.98807">
        <ele>120.8</ele>
        <time>2025-11-16T11:03:47Z</time>
      </trkpt>
      <trkpt lat="48.59493" lon="1.98806">
        <ele>120.8</ele>
        <time>2025-11-16T11:03:49Z</time>
      </trkpt>
      <trkpt lat="48.59496" lon="1.98806">
        <ele>121</ele>
        <time>2025-11-16T11:03:51Z</time>
      </trkpt>
      <trkpt lat="48.59498" lon="1.98805">
        <ele>121</ele>
        <time>2025-11-16T11:03:53Z</time>
      </trkpt>
      <trkpt lat="48.595" lon="1.98803">
        <ele>121.2</ele>
        <time>2025-11-16T11:03:55Z</time>
      </trkpt>
      <trkpt lat="48.59503" lon="1.98802">
        <ele>121.4</ele>
        <time>2025-11-16T11:03:57Z</time>
      </trkpt>
      <trkpt lat="48.59506" lon="1.988">
        <ele>121.6</ele>
        <time>2025-11-16T11:03:59Z</time>
      </trkpt>
      <trkpt lat="48.59508" lon="1.988">
        <ele>121.8</ele>
        <time>2025-11-16T11:04:01Z</time>
      </trkpt>
      <trkpt lat="48.5951" lon="1.98799">
        <ele>122</ele>
        <time>2025-11-16T11:04:03Z</time>
      </trkpt>
      <trkpt lat="48.59513" lon="1.98799">
        <ele>122.4</ele>
        <time>2025-11-16T11:04:05Z</time>
      </trkpt>
      <trkpt lat="48.59516" lon="1.98798">
        <ele>122.6</ele>
        <time>2025-11-16T11:04:07Z</time>
      </trkpt>
      <trkpt lat="48.59519" lon="1.98798">
        <ele>123</ele>
        <time>2025-11-16T11:04:09Z</time>
      </trkpt>
      <trkpt lat="48.59522" lon="1.98799">
        <ele>123.2</ele>
        <time>2025-11-16T11:04:11Z</time>
      </trkpt>
      <trkpt lat="48.59524" lon="1.98799">
        <ele>123.6</ele>
        <time>2025-11-16T11:04:13Z</time>
      </trkpt>
      <trkpt lat="48.59527" lon="1.98799">
        <ele>123.8</ele>
        <time>2025-11-16T11:04:15Z</time>
      </trkpt>
      <trkpt lat="48.5953" lon="1.98799">
        <ele>123.8</ele>
        <time>2025-11-16T11:04:17Z</time>
      </trkpt>
      <trkpt lat="48.59534" lon="1.98799">
        <ele>124</ele>
        <time>2025-11-16T11:04:19Z</time>
      </trkpt>
      <trkpt lat="48.59537" lon="1.98798">
        <ele>124.2</ele>
        <time>2025-11-16T11:04:21Z</time>
      </trkpt>
      <trkpt lat="48.5954" lon="1.98796">
        <ele>124.4</ele>
        <time>2025-11-16T11:04:23Z</time>
      </trkpt>
      <trkpt lat="48.59542" lon="1.98794">
        <ele>124.6</ele>
        <time>2025-11-16T11:04:24Z</time>
      </trkpt>
      <trkpt lat="48.59544" lon="1.98792">
        <ele>124.6</ele>
        <time>2025-11-16T11:04:25Z</time>
      </trkpt>
      <trkpt lat="48.59546" lon="1.9879">
        <ele>124.8</ele>
        <time>2025-11-16T11:04:26Z</time>
      </trkpt>
      <trkpt lat="48.59547" lon="1.98788">
        <ele>124.8</ele>
        <time>2025-11-16T11:04:27Z</time>
      </trkpt>
      <trkpt lat="48.59548" lon="1.98785">
        <ele>124.8</ele>
        <time>2025-11-16T11:04:28Z</time>
      </trkpt>
      <trkpt lat="48.59549" lon="1.98782">
        <ele>124.8</ele>
        <time>2025-11-16T11:04:29Z</time>
      </trkpt>
      <trkpt lat="48.59551" lon="1.98779">
        <ele>125</ele>
        <time>2025-11-16T11:04:30Z</time>
      </trkpt>
      <trkpt lat="48.59552" lon="1.98777">
        <ele>125</ele>
        <time>2025-11-16T11:04:31Z</time>
      </trkpt>
      <trkpt lat="48.59554" lon="1.98775">
        <ele>125</ele>
        <time>2025-11-16T11:04:32Z</time>
      </trkpt>
      <trkpt lat="48.59556" lon="1.98773">
        <ele>125</ele>
        <time>2025-11-16T11:04:33Z</time>
      </trkpt>
      <trkpt lat="48.59557" lon="1.98771">
        <ele>125</ele>
        <time>2025-11-16T11:04:34Z</time>
      </trkpt>
      <trkpt lat="48.5956" lon="1.98769">
        <ele>125.2</ele>
        <time>2025-11-16T11:04:36Z</time>
      </trkpt>
      <trkpt lat="48.59563" lon="1.98768">
        <ele>125.4</ele>
        <time>2025-11-16T11:04:38Z</time>
      </trkpt>
      <trkpt lat="48.59565" lon="1.98767">
        <ele>125.4</ele>
        <time>2025-11-16T11:04:40Z</time>
      </trkpt>
      <trkpt lat="48.59568" lon="1.98766">
        <ele>125.4</ele>
        <time>2025-11-16T11:04:42Z</time>
      </trkpt>
      <trkpt lat="48.59571" lon="1.98765">
        <ele>125.6</ele>
        <time>2025-11-16T11:04:44Z</time>
      </trkpt>
      <trkpt lat="48.59573" lon="1.98763">
        <ele>125.6</ele>
        <time>2025-11-16T11:04:46Z</time>
      </trkpt>
      <trkpt lat="48.59576" lon="1.98761">
        <ele>125.8</ele>
        <time>2025-11-16T11:04:48Z</time>
      </trkpt>
      <trkpt lat="48.59579" lon="1.98759">
        <ele>126</ele>
        <time>2025-11-16T11:04:50Z</time>
      </trkpt>
      <trkpt lat="48.59581" lon="1.98757">
        <ele>126.2</ele>
        <time>2025-11-16T11:04:52Z</time>
      </trkpt>
      <trkpt lat="48.59584" lon="1.98754">
        <ele>126.6</ele>
        <time>2025-11-16T11:04:54Z</time>
      </trkpt>
      <trkpt lat="48.59585" lon="1.98752">
        <ele>126.6</ele>
        <time>2025-11-16T11:04:55Z</time>
      </trkpt>
      <trkpt lat="48.59586" lon="1.9875">
        <ele>126.8</ele>
        <time>2025-11-16T11:04:56Z</time>
      </trkpt>
      <trkpt lat="48.59588" lon="1.98748">
        <ele>126.8</ele>
        <time>2025-11-16T11:04:57Z</time>
      </trkpt>
      <trkpt lat="48.59589" lon="1.98746">
        <ele>126.8</ele>
        <time>2025-11-16T11:04:58Z</time>
      </trkpt>
      <trkpt lat="48.59591" lon="1.98743">
        <ele>127</ele>
        <time>2025-11-16T11:05:00Z</time>
      </trkpt>
      <trkpt lat="48.59593" lon="1.98741">
        <ele>127</ele>
        <time>2025-11-16T11:05:01Z</time>
      </trkpt>
      <trkpt lat="48.59596" lon="1.98739">
        <ele>127.4</ele>
        <time>2025-11-16T11:05:03Z</time>
      </trkpt>
      <trkpt lat="48.59598" lon="1.98736">
        <ele>127.8</ele>
        <time>2025-11-16T11:05:05Z</time>
      </trkpt>
      <trkpt lat="48.596" lon="1.98732">
        <ele>128</ele>
        <time>2025-11-16T11:05:07Z</time>
      </trkpt>
      <trkpt lat="48.59602" lon="1.98727">
        <ele>128.4</ele>
        <time>2025-11-16T11:05:09Z</time>
      </trkpt>
      <trkpt lat="48.59603" lon="1.98725">
        <ele>128.6</ele>
        <time>2025-11-16T11:05:10Z</time>
      </trkpt>
      <trkpt lat="48.59605" lon="1.98721">
        <ele>129</ele>
        <time>2025-11-16T11:05:12Z</time>
      </trkpt>
      <trkpt lat="48.59606" lon="1.98717">
        <ele>129.2</ele>
        <time>2025-11-16T11:05:14Z</time>
      </trkpt>
      <trkpt lat="48.59608" lon="1.98714">
        <ele>129.6</ele>
        <time>2025-11-16T11:05:16Z</time>
      </trkpt>
      <trkpt lat="48.59611" lon="1.9871">
        <ele>130</ele>
        <time>2025-11-16T11:05:18Z</time>
      </trkpt>
      <trkpt lat="48.59613" lon="1.98707">
        <ele>130.2</ele>
        <time>2025-11-16T11:05:20Z</time>
      </trkpt>
      <trkpt lat="48.59615" lon="1.98704">
        <ele>130.6</ele>
        <time>2025-11-16T11:05:22Z</time>
      </trkpt>
      <trkpt lat="48.59617" lon="1.98702">
        <ele>130.8</ele>
        <time>2025-11-16T11:05:23Z</time>
      </trkpt>
      <trkpt lat="48.59619" lon="1.98699">
        <ele>131</ele>
        <time>2025-11-16T11:05:25Z</time>
      </trkpt>
      <trkpt lat="48.59621" lon="1.98694">
        <ele>131.4</ele>
        <time>2025-11-16T11:05:27Z</time>
      </trkpt>
      <trkpt lat="48.59623" lon="1.9869">
        <ele>131.8</ele>
        <time>2025-11-16T11:05:29Z</time>
      </trkpt>
      <trkpt lat="48.59625" lon="1.98688">
        <ele>131.8</ele>
        <time>2025-11-16T11:05:30Z</time>
      </trkpt>
      <trkpt lat="48.59628" lon="1.98686">
        <ele>132</ele>
        <time>2025-11-16T11:05:32Z</time>
      </trkpt>
      <trkpt lat="48.5963" lon="1.98685">
        <ele>132.2</ele>
        <time>2025-11-16T11:05:33Z</time>
      </trkpt>
      <trkpt lat="48.59633" lon="1.98685">
        <ele>132.2</ele>
        <time>2025-11-16T11:05:35Z</time>
      </trkpt>
      <trkpt lat="48.59636" lon="1.98686">
        <ele>132.4</ele>
        <time>2025-11-16T11:05:37Z</time>
      </trkpt>
      <trkpt lat="48.59638" lon="1.98687">
        <ele>132.6</ele>
        <time>2025-11-16T11:05:39Z</time>
      </trkpt>
      <trkpt lat="48.59641" lon="1.98688">
        <ele>133</ele>
        <time>2025-11-16T11:05:43Z</time>
      </trkpt>
      <trkpt lat="48.59643" lon="1.9869">
        <ele>133.2</ele>
        <time>2025-11-16T11:05:45Z</time>
      </trkpt>
      <trkpt lat="48.59645" lon="1.98692">
        <ele>133.4</ele>
        <time>2025-11-16T11:05:47Z</time>
      </trkpt>
      <trkpt lat="48.59647" lon="1.98692">
        <ele>133.4</ele>
        <time>2025-11-16T11:05:48Z</time>
      </trkpt>
      <trkpt lat="48.59649" lon="1.98693">
        <ele>133.6</ele>
        <time>2025-11-16T11:05:49Z</time>
      </trkpt>
      <trkpt lat="48.59652" lon="1.98694">
        <ele>133.6</ele>
        <time>2025-11-16T11:05:50Z</time>
      </trkpt>
      <trkpt lat="48.59653" lon="1.98694">
        <ele>133.8</ele>
        <time>2025-11-16T11:05:51Z</time>
      </trkpt>
      <trkpt lat="48.59656" lon="1.98695">
        <ele>133.8</ele>
        <time>2025-11-16T11:05:52Z</time>
      </trkpt>
      <trkpt lat="48.59658" lon="1.98695">
        <ele>133.8</ele>
        <time>2025-11-16T11:05:53Z</time>
      </trkpt>
      <trkpt lat="48.5966" lon="1.98694">
        <ele>133.8</ele>
        <time>2025-11-16T11:05:54Z</time>
      </trkpt>
      <trkpt lat="48.59663" lon="1.98692">
        <ele>134</ele>
        <time>2025-11-16T11:05:56Z</time>
      </trkpt>
      <trkpt lat="48.59665" lon="1.98691">
        <ele>134</ele>
        <time>2025-11-16T11:05:57Z</time>
      </trkpt>
      <trkpt lat="48.59667" lon="1.98689">
        <ele>134.2</ele>
        <time>2025-11-16T11:05:58Z</time>
      </trkpt>
      <trkpt lat="48.59669" lon="1.98687">
        <ele>134.2</ele>
        <time>2025-11-16T11:05:59Z</time>
      </trkpt>
      <trkpt lat="48.59671" lon="1.98684">
        <ele>134.2</ele>
        <time>2025-11-16T11:06:00Z</time>
      </trkpt>
      <trkpt lat="48.59674" lon="1.98681">
        <ele>134.2</ele>
        <time>2025-11-16T11:06:01Z</time>
      </trkpt>
      <trkpt lat="48.59677" lon="1.98677">
        <ele>134.2</ele>
        <time>2025-11-16T11:06:02Z</time>
      </trkpt>
      <trkpt lat="48.59679" lon="1.98673">
        <ele>134.4</ele>
        <time>2025-11-16T11:06:03Z</time>
      </trkpt>
      <trkpt lat="48.59682" lon="1.98668">
        <ele>134.4</ele>
        <time>2025-11-16T11:06:04Z</time>
      </trkpt>
      <trkpt lat="48.59685" lon="1.98663">
        <ele>134.6</ele>
        <time>2025-11-16T11:06:05Z</time>
      </trkpt>
      <trkpt lat="48.59688" lon="1.98658">
        <ele>134.8</ele>
        <time>2025-11-16T11:06:06Z</time>
      </trkpt>
      <trkpt lat="48.59691" lon="1.98651">
        <ele>135</ele>
        <time>2025-11-16T11:06:07Z</time>
      </trkpt>
      <trkpt lat="48.59693" lon="1.98644">
        <ele>135.2</ele>
        <time>2025-11-16T11:06:08Z</time>
      </trkpt>
      <trkpt lat="48.59695" lon="1.98637">
        <ele>135.2</ele>
        <time>2025-11-16T11:06:09Z</time>
      </trkpt>
      <trkpt lat="48.59697" lon="1.98629">
        <ele>135.4</ele>
        <time>2025-11-16T11:06:10Z</time>
      </trkpt>
      <trkpt lat="48.59699" lon="1.98621">
        <ele>135.6</ele>
        <time>2025-11-16T11:06:11Z</time>
      </trkpt>
      <trkpt lat="48.59699" lon="1.98612">
        <ele>135.8</ele>
        <time>2025-11-16T11:06:12Z</time>
      </trkpt>
      <trkpt lat="48.597" lon="1.98604">
        <ele>136</ele>
        <time>2025-11-16T11:06:13Z</time>
      </trkpt>
      <trkpt lat="48.597" lon="1.98595">
        <ele>136.2</ele>
        <time>2025-11-16T11:06:14Z</time>
      </trkpt>
      <trkpt lat="48.59699" lon="1.98586">
        <ele>136.4</ele>
        <time>2025-11-16T11:06:15Z</time>
      </trkpt>
      <trkpt lat="48.59699" lon="1.98578">
        <ele>136.6</ele>
        <time>2025-11-16T11:06:16Z</time>
      </trkpt>
      <trkpt lat="48.59698" lon="1.9857">
        <ele>136.6</ele>
        <time>2025-11-16T11:06:17Z</time>
      </trkpt>
      <trkpt lat="48.59698" lon="1.98561">
        <ele>136.8</ele>
        <time>2025-11-16T11:06:18Z</time>
      </trkpt>
      <trkpt lat="48.59697" lon="1.98553">
        <ele>137</ele>
        <time>2025-11-16T11:06:19Z</time>
      </trkpt>
      <trkpt lat="48.59697" lon="1.98546">
        <ele>137.2</ele>
        <time>2025-11-16T11:06:20Z</time>
      </trkpt>
      <trkpt lat="48.59696" lon="1.98538">
        <ele>137.4</ele>
        <time>2025-11-16T11:06:21Z</time>
      </trkpt>
      <trkpt lat="48.59695" lon="1.98532">
        <ele>137.6</ele>
        <time>2025-11-16T11:06:22Z</time>
      </trkpt>
      <trkpt lat="48.59695" lon="1.98526">
        <ele>137.8</ele>
        <time>2025-11-16T11:06:23Z</time>
      </trkpt>
      <trkpt lat="48.59695" lon="1.9852">
        <ele>138</ele>
        <time>2025-11-16T11:06:24Z</time>
      </trkpt>
      <trkpt lat="48.59695" lon="1.98514">
        <ele>138.2</ele>
        <time>2025-11-16T11:06:25Z</time>
      </trkpt>
      <trkpt lat="48.59695" lon="1.98509">
        <ele>138.4</ele>
        <time>2025-11-16T11:06:26Z</time>
      </trkpt>
      <trkpt lat="48.59695" lon="1.98504">
        <ele>138.6</ele>
        <time>2025-11-16T11:06:27Z</time>
      </trkpt>
      <trkpt lat="48.59695" lon="1.98498">
        <ele>138.8</ele>
        <time>2025-11-16T11:06:28Z</time>
      </trkpt>
      <trkpt lat="48.59695" lon="1.98493">
        <ele>139</ele>
        <time>2025-11-16T11:06:29Z</time>
      </trkpt>
      <trkpt lat="48.59694" lon="1.98486">
        <ele>139.2</ele>
        <time>2025-11-16T11:06:30Z</time>
      </trkpt>
      <trkpt lat="48.59694" lon="1.9848">
        <ele>139.4</ele>
        <time>2025-11-16T11:06:31Z</time>
      </trkpt>
      <trkpt lat="48.59693" lon="1.98472">
        <ele>139.6</ele>
        <time>2025-11-16T11:06:32Z</time>
      </trkpt>
      <trkpt lat="48.59693" lon="1.98464">
        <ele>139.6</ele>
        <time>2025-11-16T11:06:33Z</time>
      </trkpt>
      <trkpt lat="48.59692" lon="1.98456">
        <ele>139.8</ele>
        <time>2025-11-16T11:06:34Z</time>
      </trkpt>
      <trkpt lat="48.59692" lon="1.98448">
        <ele>140</ele>
        <time>2025-11-16T11:06:35Z</time>
      </trkpt>
      <trkpt lat="48.59692" lon="1.9844">
        <ele>140</ele>
        <time>2025-11-16T11:06:36Z</time>
      </trkpt>
      <trkpt lat="48.59691" lon="1.98433">
        <ele>140.2</ele>
        <time>2025-11-16T11:06:37Z</time>
      </trkpt>
      <trkpt lat="48.59691" lon="1.98427">
        <ele>140.2</ele>
        <time>2025-11-16T11:06:38Z</time>
      </trkpt>
      <trkpt lat="48.59691" lon="1.98421">
        <ele>140.4</ele>
        <time>2025-11-16T11:06:39Z</time>
      </trkpt>
      <trkpt lat="48.5969" lon="1.98416">
        <ele>140.4</ele>
        <time>2025-11-16T11:06:40Z</time>
      </trkpt>
      <trkpt lat="48.59689" lon="1.98412">
        <ele>140.6</ele>
        <time>2025-11-16T11:06:41Z</time>
      </trkpt>
      <trkpt lat="48.59688" lon="1.98408">
        <ele>140.6</ele>
        <time>2025-11-16T11:06:42Z</time>
      </trkpt>
      <trkpt lat="48.59687" lon="1.98404">
        <ele>140.8</ele>
        <time>2025-11-16T11:06:43Z</time>
      </trkpt>
      <trkpt lat="48.59685" lon="1.98401">
        <ele>140.8</ele>
        <time>2025-11-16T11:06:44Z</time>
      </trkpt>
      <trkpt lat="48.59684" lon="1.98398">
        <ele>141</ele>
        <time>2025-11-16T11:06:45Z</time>
      </trkpt>
      <trkpt lat="48.59683" lon="1.98394">
        <ele>141</ele>
        <time>2025-11-16T11:06:46Z</time>
      </trkpt>
      <trkpt lat="48.59681" lon="1.98391">
        <ele>141.2</ele>
        <time>2025-11-16T11:06:47Z</time>
      </trkpt>
      <trkpt lat="48.59679" lon="1.98388">
        <ele>141.2</ele>
        <time>2025-11-16T11:06:48Z</time>
      </trkpt>
      <trkpt lat="48.59678" lon="1.98385">
        <ele>141.4</ele>
        <time>2025-11-16T11:06:49Z</time>
      </trkpt>
      <trkpt lat="48.59676" lon="1.98382">
        <ele>141.4</ele>
        <time>2025-11-16T11:06:50Z</time>
      </trkpt>
      <trkpt lat="48.59675" lon="1.98379">
        <ele>141.4</ele>
        <time>2025-11-16T11:06:51Z</time>
      </trkpt>
      <trkpt lat="48.59674" lon="1.98377">
        <ele>141.6</ele>
        <time>2025-11-16T11:06:52Z</time>
      </trkpt>
      <trkpt lat="48.59673" lon="1.98374">
        <ele>141.6</ele>
        <time>2025-11-16T11:06:53Z</time>
      </trkpt>
      <trkpt lat="48.59672" lon="1.98369">
        <ele>141.8</ele>
        <time>2025-11-16T11:06:55Z</time>
      </trkpt>
      <trkpt lat="48.59669" lon="1.98366">
        <ele>142.2</ele>
        <time>2025-11-16T11:06:57Z</time>
      </trkpt>
      <trkpt lat="48.59667" lon="1.98363">
        <ele>142.4</ele>
        <time>2025-11-16T11:06:59Z</time>
      </trkpt>
      <trkpt lat="48.59665" lon="1.9836">
        <ele>142.8</ele>
        <time>2025-11-16T11:07:01Z</time>
      </trkpt>
      <trkpt lat="48.59663" lon="1.98357">
        <ele>143.2</ele>
        <time>2025-11-16T11:07:03Z</time>
      </trkpt>
      <trkpt lat="48.59661" lon="1.98354">
        <ele>143.4</ele>
        <time>2025-11-16T11:07:05Z</time>
      </trkpt>
      <trkpt lat="48.5966" lon="1.98351">
        <ele>143.6</ele>
        <time>2025-11-16T11:07:07Z</time>
      </trkpt>
      <trkpt lat="48.59659" lon="1.98347">
        <ele>143.8</ele>
        <time>2025-11-16T11:07:09Z</time>
      </trkpt>
      <trkpt lat="48.59658" lon="1.98342">
        <ele>144</ele>
        <time>2025-11-16T11:07:11Z</time>
      </trkpt>
      <trkpt lat="48.59657" lon="1.98339">
        <ele>144</ele>
        <time>2025-11-16T11:07:12Z</time>
      </trkpt>
      <trkpt lat="48.59657" lon="1.98337">
        <ele>144.2</ele>
        <time>2025-11-16T11:07:13Z</time>
      </trkpt>
      <trkpt lat="48.59656" lon="1.98334">
        <ele>144.2</ele>
        <time>2025-11-16T11:07:14Z</time>
      </trkpt>
      <trkpt lat="48.59654" lon="1.98329">
        <ele>144.4</ele>
        <time>2025-11-16T11:07:16Z</time>
      </trkpt>
      <trkpt lat="48.59652" lon="1.98325">
        <ele>144.6</ele>
        <time>2025-11-16T11:07:18Z</time>
      </trkpt>
      <trkpt lat="48.59651" lon="1.98323">
        <ele>144.8</ele>
        <time>2025-11-16T11:07:19Z</time>
      </trkpt>
      <trkpt lat="48.5965" lon="1.98321">
        <ele>144.8</ele>
        <time>2025-11-16T11:07:20Z</time>
      </trkpt>
      <trkpt lat="48.59647" lon="1.98317">
        <ele>144.8</ele>
        <time>2025-11-16T11:07:22Z</time>
      </trkpt>
      <trkpt lat="48.59646" lon="1.98312">
        <ele>145</ele>
        <time>2025-11-16T11:07:24Z</time>
      </trkpt>
      <trkpt lat="48.59645" lon="1.9831">
        <ele>145</ele>
        <time>2025-11-16T11:07:25Z</time>
      </trkpt>
      <trkpt lat="48.59644" lon="1.98307">
        <ele>145</ele>
        <time>2025-11-16T11:07:26Z</time>
      </trkpt>
      <trkpt lat="48.59643" lon="1.98303">
        <ele>145.2</ele>
        <time>2025-11-16T11:07:27Z</time>
      </trkpt>
      <trkpt lat="48.59642" lon="1.983">
        <ele>145.2</ele>
        <time>2025-11-16T11:07:28Z</time>
      </trkpt>
      <trkpt lat="48.59641" lon="1.98296">
        <ele>145.2</ele>
        <time>2025-11-16T11:07:29Z</time>
      </trkpt>
      <trkpt lat="48.59639" lon="1.98292">
        <ele>145.4</ele>
        <time>2025-11-16T11:07:30Z</time>
      </trkpt>
      <trkpt lat="48.59637" lon="1.98288">
        <ele>145.4</ele>
        <time>2025-11-16T11:07:31Z</time>
      </trkpt>
      <trkpt lat="48.59636" lon="1.98284">
        <ele>145.4</ele>
        <time>2025-11-16T11:07:32Z</time>
      </trkpt>
      <trkpt lat="48.59634" lon="1.98279">
        <ele>145.6</ele>
        <time>2025-11-16T11:07:33Z</time>
      </trkpt>
      <trkpt lat="48.59632" lon="1.98275">
        <ele>145.6</ele>
        <time>2025-11-16T11:07:34Z</time>
      </trkpt>
      <trkpt lat="48.59629" lon="1.9827">
        <ele>145.6</ele>
        <time>2025-11-16T11:07:35Z</time>
      </trkpt>
      <trkpt lat="48.59627" lon="1.98265">
        <ele>145.6</ele>
        <time>2025-11-16T11:07:36Z</time>
      </trkpt>
      <trkpt lat="48.59625" lon="1.9826">
        <ele>145.8</ele>
        <time>2025-11-16T11:07:37Z</time>
      </trkpt>
      <trkpt lat="48.59621" lon="1.98255">
        <ele>145.8</ele>
        <time>2025-11-16T11:07:38Z</time>
      </trkpt>
      <trkpt lat="48.59619" lon="1.98251">
        <ele>145.8</ele>
        <time>2025-11-16T11:07:39Z</time>
      </trkpt>
      <trkpt lat="48.59616" lon="1.98246">
        <ele>145.8</ele>
        <time>2025-11-16T11:07:40Z</time>
      </trkpt>
      <trkpt lat="48.59613" lon="1.98241">
        <ele>146</ele>
        <time>2025-11-16T11:07:41Z</time>
      </trkpt>
      <trkpt lat="48.5961" lon="1.98237">
        <ele>146</ele>
        <time>2025-11-16T11:07:42Z</time>
      </trkpt>
      <trkpt lat="48.59606" lon="1.98232">
        <ele>146</ele>
        <time>2025-11-16T11:07:43Z</time>
      </trkpt>
      <trkpt lat="48.59604" lon="1.98228">
        <ele>146.2</ele>
        <time>2025-11-16T11:07:44Z</time>
      </trkpt>
      <trkpt lat="48.596" lon="1.98224">
        <ele>146.2</ele>
        <time>2025-11-16T11:07:45Z</time>
      </trkpt>
      <trkpt lat="48.59597" lon="1.9822">
        <ele>146.2</ele>
        <time>2025-11-16T11:07:46Z</time>
      </trkpt>
      <trkpt lat="48.59594" lon="1.98216">
        <ele>146.2</ele>
        <time>2025-11-16T11:07:47Z</time>
      </trkpt>
      <trkpt lat="48.59591" lon="1.98212">
        <ele>146.4</ele>
        <time>2025-11-16T11:07:48Z</time>
      </trkpt>
      <trkpt lat="48.59588" lon="1.98208">
        <ele>146.4</ele>
        <time>2025-11-16T11:07:49Z</time>
      </trkpt>
      <trkpt lat="48.59584" lon="1.98204">
        <ele>146.6</ele>
        <time>2025-11-16T11:07:50Z</time>
      </trkpt>
      <trkpt lat="48.5958" lon="1.982">
        <ele>146.6</ele>
        <time>2025-11-16T11:07:51Z</time>
      </trkpt>
      <trkpt lat="48.59578" lon="1.98195">
        <ele>146.8</ele>
        <time>2025-11-16T11:07:52Z</time>
      </trkpt>
      <trkpt lat="48.59574" lon="1.98191">
        <ele>146.8</ele>
        <time>2025-11-16T11:07:53Z</time>
      </trkpt>
      <trkpt lat="48.59571" lon="1.98186">
        <ele>147</ele>
        <time>2025-11-16T11:07:54Z</time>
      </trkpt>
      <trkpt lat="48.59568" lon="1.9818">
        <ele>147</ele>
        <time>2025-11-16T11:07:55Z</time>
      </trkpt>
      <trkpt lat="48.59565" lon="1.98175">
        <ele>147.2</ele>
        <time>2025-11-16T11:07:56Z</time>
      </trkpt>
      <trkpt lat="48.59563" lon="1.98169">
        <ele>147.4</ele>
        <time>2025-11-16T11:07:57Z</time>
      </trkpt>
      <trkpt lat="48.5956" lon="1.98163">
        <ele>147.6</ele>
        <time>2025-11-16T11:07:58Z</time>
      </trkpt>
      <trkpt lat="48.59557" lon="1.98157">
        <ele>147.8</ele>
        <time>2025-11-16T11:07:59Z</time>
      </trkpt>
      <trkpt lat="48.59555" lon="1.98151">
        <ele>147.8</ele>
        <time>2025-11-16T11:08:00Z</time>
      </trkpt>
      <trkpt lat="48.59552" lon="1.98144">
        <ele>148</ele>
        <time>2025-11-16T11:08:01Z</time>
      </trkpt>
      <trkpt lat="48.5955" lon="1.98138">
        <ele>148.2</ele>
        <time>2025-11-16T11:08:02Z</time>
      </trkpt>
      <trkpt lat="48.59548" lon="1.98132">
        <ele>148.4</ele>
        <time>2025-11-16T11:08:03Z</time>
      </trkpt>
      <trkpt lat="48.59546" lon="1.98126">
        <ele>148.4</ele>
        <time>2025-11-16T11:08:04Z</time>
      </trkpt>
      <trkpt lat="48.59543" lon="1.9812">
        <ele>148.6</ele>
        <time>2025-11-16T11:08:05Z</time>
      </trkpt>
      <trkpt lat="48.59541" lon="1.98114">
        <ele>148.8</ele>
        <time>2025-11-16T11:08:06Z</time>
      </trkpt>
      <trkpt lat="48.59539" lon="1.98108">
        <ele>149</ele>
        <time>2025-11-16T11:08:07Z</time>
      </trkpt>
      <trkpt lat="48.59537" lon="1.98102">
        <ele>149.2</ele>
        <time>2025-11-16T11:08:08Z</time>
      </trkpt>
      <trkpt lat="48.59535" lon="1.98097">
        <ele>149.4</ele>
        <time>2025-11-16T11:08:09Z</time>
      </trkpt>
      <trkpt lat="48.59534" lon="1.98091">
        <ele>149.6</ele>
        <time>2025-11-16T11:08:10Z</time>
      </trkpt>
      <trkpt lat="48.59532" lon="1.98085">
        <ele>149.8</ele>
        <time>2025-11-16T11:08:11Z</time>
      </trkpt>
      <trkpt lat="48.59531" lon="1.98079">
        <ele>150</ele>
        <time>2025-11-16T11:08:12Z</time>
      </trkpt>
      <trkpt lat="48.59529" lon="1.98073">
        <ele>150.2</ele>
        <time>2025-11-16T11:08:13Z</time>
      </trkpt>
      <trkpt lat="48.59528" lon="1.98067">
        <ele>150.4</ele>
        <time>2025-11-16T11:08:14Z</time>
      </trkpt>
      <trkpt lat="48.59528" lon="1.9806">
        <ele>150.8</ele>
        <time>2025-11-16T11:08:15Z</time>
      </trkpt>
      <trkpt lat="48.59527" lon="1.98053">
        <ele>151</ele>
        <time>2025-11-16T11:08:16Z</time>
      </trkpt>
      <trkpt lat="48.59526" lon="1.98047">
        <ele>151.2</ele>
        <time>2025-11-16T11:08:17Z</time>
      </trkpt>
      <trkpt lat="48.59526" lon="1.9804">
        <ele>151.2</ele>
        <time>2025-11-16T11:08:18Z</time>
      </trkpt>
      <trkpt lat="48.59526" lon="1.98034">
        <ele>151.4</ele>
        <time>2025-11-16T11:08:19Z</time>
      </trkpt>
      <trkpt lat="48.59526" lon="1.98027">
        <ele>151.6</ele>
        <time>2025-11-16T11:08:20Z</time>
      </trkpt>
      <trkpt lat="48.59525" lon="1.98021">
        <ele>151.8</ele>
        <time>2025-11-16T11:08:21Z</time>
      </trkpt>
      <trkpt lat="48.59524" lon="1.98015">
        <ele>151.8</ele>
        <time>2025-11-16T11:08:22Z</time>
      </trkpt>
      <trkpt lat="48.59522" lon="1.98009">
        <ele>152</ele>
        <time>2025-11-16T11:08:23Z</time>
      </trkpt>
      <trkpt lat="48.5952" lon="1.98004">
        <ele>152.2</ele>
        <time>2025-11-16T11:08:24Z</time>
      </trkpt>
      <trkpt lat="48.59517" lon="1.98">
        <ele>152.4</ele>
        <time>2025-11-16T11:08:25Z</time>
      </trkpt>
      <trkpt lat="48.59515" lon="1.97997">
        <ele>152.6</ele>
        <time>2025-11-16T11:08:26Z</time>
      </trkpt>
      <trkpt lat="48.59512" lon="1.97995">
        <ele>152.8</ele>
        <time>2025-11-16T11:08:27Z</time>
      </trkpt>
      <trkpt lat="48.5951" lon="1.97994">
        <ele>153</ele>
        <time>2025-11-16T11:08:28Z</time>
      </trkpt>
      <trkpt lat="48.59508" lon="1.97993">
        <ele>153.2</ele>
        <time>2025-11-16T11:08:29Z</time>
      </trkpt>
      <trkpt lat="48.59506" lon="1.97993">
        <ele>153.6</ele>
        <time>2025-11-16T11:08:31Z</time>
      </trkpt>
      <trkpt lat="48.59503" lon="1.97994">
        <ele>153.8</ele>
        <time>2025-11-16T11:08:33Z</time>
      </trkpt>
      <trkpt lat="48.595" lon="1.97996">
        <ele>154.2</ele>
        <time>2025-11-16T11:08:35Z</time>
      </trkpt>
      <trkpt lat="48.59497" lon="1.97997">
        <ele>154.6</ele>
        <time>2025-11-16T11:08:37Z</time>
      </trkpt>
      <trkpt lat="48.59495" lon="1.97998">
        <ele>154.8</ele>
        <time>2025-11-16T11:08:38Z</time>
      </trkpt>
      <trkpt lat="48.59492" lon="1.97999">
        <ele>155.2</ele>
        <time>2025-11-16T11:08:40Z</time>
      </trkpt>
      <trkpt lat="48.5949" lon="1.98002">
        <ele>155.8</ele>
        <time>2025-11-16T11:08:42Z</time>
      </trkpt>
      <trkpt lat="48.59488" lon="1.98004">
        <ele>156.2</ele>
        <time>2025-11-16T11:08:44Z</time>
      </trkpt>
      <trkpt lat="48.59485" lon="1.98007">
        <ele>156.6</ele>
        <time>2025-11-16T11:08:46Z</time>
      </trkpt>
      <trkpt lat="48.59483" lon="1.98009">
        <ele>156.8</ele>
        <time>2025-11-16T11:08:48Z</time>
      </trkpt>
      <trkpt lat="48.5948" lon="1.98011">
        <ele>157.2</ele>
        <time>2025-11-16T11:08:50Z</time>
      </trkpt>
      <trkpt lat="48.59478" lon="1.98013">
        <ele>157.6</ele>
        <time>2025-11-16T11:08:52Z</time>
      </trkpt>
      <trkpt lat="48.59477" lon="1.98015">
        <ele>158</ele>
        <time>2025-11-16T11:08:54Z</time>
      </trkpt>
      <trkpt lat="48.59475" lon="1.98018">
        <ele>158.2</ele>
        <time>2025-11-16T11:08:56Z</time>
      </trkpt>
      <trkpt lat="48.59473" lon="1.98022">
        <ele>158.4</ele>
        <time>2025-11-16T11:08:58Z</time>
      </trkpt>
      <trkpt lat="48.59471" lon="1.98026">
        <ele>158.6</ele>
        <time>2025-11-16T11:09:00Z</time>
      </trkpt>
      <trkpt lat="48.59468" lon="1.98029">
        <ele>158.8</ele>
        <time>2025-11-16T11:09:02Z</time>
      </trkpt>
      <trkpt lat="48.59467" lon="1.98032">
        <ele>159</ele>
        <time>2025-11-16T11:09:04Z</time>
      </trkpt>
      <trkpt lat="48.59465" lon="1.98035">
        <ele>159</ele>
        <time>2025-11-16T11:09:06Z</time>
      </trkpt>
      <trkpt lat="48.59463" lon="1.98039">
        <ele>159.2</ele>
        <time>2025-11-16T11:09:08Z</time>
      </trkpt>
      <trkpt lat="48.59461" lon="1.98041">
        <ele>159.2</ele>
        <time>2025-11-16T11:09:09Z</time>
      </trkpt>
      <trkpt lat="48.5946" lon="1.98046">
        <ele>159.4</ele>
        <time>2025-11-16T11:09:11Z</time>
      </trkpt>
      <trkpt lat="48.59459" lon="1.98048">
        <ele>159.6</ele>
        <time>2025-11-16T11:09:12Z</time>
      </trkpt>
      <trkpt lat="48.59457" lon="1.9805">
        <ele>159.6</ele>
        <time>2025-11-16T11:09:13Z</time>
      </trkpt>
      <trkpt lat="48.59455" lon="1.98054">
        <ele>159.8</ele>
        <time>2025-11-16T11:09:15Z</time>
      </trkpt>
      <trkpt lat="48.59453" lon="1.98057">
        <ele>160.2</ele>
        <time>2025-11-16T11:09:17Z</time>
      </trkpt>
      <trkpt lat="48.59451" lon="1.9806">
        <ele>160.4</ele>
        <time>2025-11-16T11:09:19Z</time>
      </trkpt>
      <trkpt lat="48.59449" lon="1.98064">
        <ele>160.4</ele>
        <time>2025-11-16T11:09:21Z</time>
      </trkpt>
      <trkpt lat="48.59447" lon="1.98067">
        <ele>160.8</ele>
        <time>2025-11-16T11:09:23Z</time>
      </trkpt>
      <trkpt lat="48.59445" lon="1.9807">
        <ele>160.8</ele>
        <time>2025-11-16T11:09:25Z</time>
      </trkpt>
      <trkpt lat="48.59443" lon="1.98073">
        <ele>161</ele>
        <time>2025-11-16T11:09:27Z</time>
      </trkpt>
      <trkpt lat="48.59441" lon="1.98076">
        <ele>161</ele>
        <time>2025-11-16T11:09:29Z</time>
      </trkpt>
      <trkpt lat="48.59439" lon="1.98078">
        <ele>161</ele>
        <time>2025-11-16T11:09:30Z</time>
      </trkpt>
      <trkpt lat="48.59437" lon="1.98079">
        <ele>161</ele>
        <time>2025-11-16T11:09:31Z</time>
      </trkpt>
      <trkpt lat="48.59435" lon="1.98082">
        <ele>161</ele>
        <time>2025-11-16T11:09:33Z</time>
      </trkpt>
      <trkpt lat="48.59433" lon="1.98084">
        <ele>161</ele>
        <time>2025-11-16T11:09:34Z</time>
      </trkpt>
      <trkpt lat="48.59431" lon="1.98085">
        <ele>161</ele>
        <time>2025-11-16T11:09:35Z</time>
      </trkpt>
      <trkpt lat="48.59429" lon="1.98087">
        <ele>161.2</ele>
        <time>2025-11-16T11:09:37Z</time>
      </trkpt>
      <trkpt lat="48.59427" lon="1.9809">
        <ele>161.2</ele>
        <time>2025-11-16T11:09:39Z</time>
      </trkpt>
      <trkpt lat="48.59425" lon="1.98091">
        <ele>161.2</ele>
        <time>2025-11-16T11:09:41Z</time>
      </trkpt>
      <trkpt lat="48.59422" lon="1.98092">
        <ele>161</ele>
        <time>2025-11-16T11:09:43Z</time>
      </trkpt>
      <trkpt lat="48.59419" lon="1.98092">
        <ele>161</ele>
        <time>2025-11-16T11:09:45Z</time>
      </trkpt>
      <trkpt lat="48.59416" lon="1.98091">
        <ele>160.8</ele>
        <time>2025-11-16T11:09:47Z</time>
      </trkpt>
      <trkpt lat="48.59414" lon="1.9809">
        <ele>160.8</ele>
        <time>2025-11-16T11:09:48Z</time>
      </trkpt>
      <trkpt lat="48.59411" lon="1.98088">
        <ele>160.6</ele>
        <time>2025-11-16T11:09:50Z</time>
      </trkpt>
      <trkpt lat="48.59408" lon="1.98086">
        <ele>160.4</ele>
        <time>2025-11-16T11:09:52Z</time>
      </trkpt>
      <trkpt lat="48.59405" lon="1.98084">
        <ele>160.2</ele>
        <time>2025-11-16T11:09:54Z</time>
      </trkpt>
      <trkpt lat="48.59403" lon="1.98082">
        <ele>160</ele>
        <time>2025-11-16T11:09:56Z</time>
        <extensions>
          <gpxtpx:TrackPointExtension xmlns:gpxtpx="http://www.garmin.com/xmlschemas/TrackPointExtension/v1">
            <gpxtpx:hr>111</gpxtpx:hr>
          </gpxtpx:TrackPointExtension>
        </extensions>
      </trkpt>
      <trkpt lat="48.59401" lon="1.98079">
        <ele>159.8</ele>
        <time>2025-11-16T11:09:58Z</time>
        <extensions>
          <gpxtpx:TrackPointExtension xmlns:gpxtpx="http://www.garmin.com/xmlschemas/TrackPointExtension/v1">
            <gpxtpx:hr>111</gpxtpx:hr>
          </gpxtpx:TrackPointExtension>
        </extensions>
      </trkpt>
      <trkpt lat="48.59398" lon="1.98077">
        <ele>159.8</ele>
        <time>2025-11-16T11:10:00Z</time>
        <extensions>
          <gpxtpx:TrackPointExtension xmlns:gpxtpx="http://www.garmin.com/xmlschemas/TrackPointExtension/v1">
            <gpxtpx:hr>111</gpxtpx:hr>
          </gpxtpx:TrackPointExtension>
        </extensions>
      </trkpt>
      <trkpt lat="48.59396" lon="1.98075">
        <ele>159.6</ele>
        <time>2025-11-16T11:10:02Z</time>
        <extensions>
          <gpxtpx:TrackPointExtension xmlns:gpxtpx="http://www.garmin.com/xmlschemas/TrackPointExtension/v1">
            <gpxtpx:hr>111</gpxtpx:hr>
          </gpxtpx:TrackPointExtension>
        </extensions>
      </trkpt>
      <trkpt lat="48.59393" lon="1.98074">
        <ele>159.6</ele>
        <time>2025-11-16T11:10:04Z</time>
        <extensions>
          <gpxtpx:TrackPointExtension xmlns:gpxtpx="http://www.garmin.com/xmlschemas/TrackPointExtension/v1">
            <gpxtpx:hr>111</gpxtpx:hr>
          </gpxtpx:TrackPointExtension>
        </extensions>
      </trkpt>
      <trkpt lat="48.5939" lon="1.98072">
        <ele>159.6</ele>
        <time>2025-11-16T11:10:06Z</time>
        <extensions>
          <gpxtpx:TrackPointExtension xmlns:gpxtpx="http://www.garmin.com/xmlschemas/TrackPointExtension/v1">
            <gpxtpx:hr>111</gpxtpx:hr>
          </gpxtpx:TrackPointExtension>
        </extensions>
      </trkpt>
      <trkpt lat="48.59388" lon="1.98069">
        <ele>159.4</ele>
        <time>2025-11-16T11:10:08Z</time>
        <extensions>
          <gpxtpx:TrackPointExtension xmlns:gpxtpx="http://www.garmin.com/xmlschemas/TrackPointExtension/v1">
            <gpxtpx:hr>111</gpxtpx:hr>
          </gpxtpx:TrackPointExtension>
        </extensions>
      </trkpt>
      <trkpt lat="48.59385" lon="1.98066">
        <ele>159.4</ele>
        <time>2025-11-16T11:10:10Z</time>
        <extensions>
          <gpxtpx:TrackPointExtension xmlns:gpxtpx="http://www.garmin.com/xmlschemas/TrackPointExtension/v1">
            <gpxtpx:hr>111</gpxtpx:hr>
          </gpxtpx:TrackPointExtension>
        </extensions>
      </trkpt>
      <trkpt lat="48.59383" lon="1.98064">
        <ele>159.4</ele>
        <time>2025-11-16T11:10:11Z</time>
        <extensions>
          <gpxtpx:TrackPointExtension xmlns:gpxtpx="http://www.garmin.com/xmlschemas/TrackPointExtension/v1">
            <gpxtpx:hr>111</gpxtpx:hr>
          </gpxtpx:TrackPointExtension>
        </extensions>
      </trkpt>
      <trkpt lat="48.59382" lon="1.98062">
        <ele>159.2</ele>
        <time>2025-11-16T11:10:12Z</time>
        <extensions>
          <gpxtpx:TrackPointExtension xmlns:gpxtpx="http://www.garmin.com/xmlschemas/TrackPointExtension/v1">
            <gpxtpx:hr>112</gpxtpx:hr>
          </gpxtpx:TrackPointExtension>
        </extensions>
      </trkpt>
      <trkpt lat="48.5938" lon="1.9806">
        <ele>159.2</ele>
        <time>2025-11-16T11:10:13Z</time>
        <extensions>
          <gpxtpx:TrackPointExtension xmlns:gpxtpx="http://www.garmin.com/xmlschemas/TrackPointExtension/v1">
            <gpxtpx:hr>112</gpxtpx:hr>
          </gpxtpx:TrackPointExtension>
        </extensions>
      </trkpt>
      <trkpt lat="48.59379" lon="1.98058">
        <ele>159.4</ele>
        <time>2025-11-16T11:10:14Z</time>
        <extensions>
          <gpxtpx:TrackPointExtension xmlns:gpxtpx="http://www.garmin.com/xmlschemas/TrackPointExtension/v1">
            <gpxtpx:hr>112</gpxtpx:hr>
          </gpxtpx:TrackPointExtension>
        </extensions>
      </trkpt>
      <trkpt lat="48.59377" lon="1.98057">
        <ele>159.4</ele>
        <time>2025-11-16T11:10:15Z</time>
        <extensions>
          <gpxtpx:TrackPointExtension xmlns:gpxtpx="http://www.garmin.com/xmlschemas/TrackPointExtension/v1">
            <gpxtpx:hr>113</gpxtpx:hr>
          </gpxtpx:TrackPointExtension>
        </extensions>
      </trkpt>
      <trkpt lat="48.59375" lon="1.98055">
        <ele>159.4</ele>
        <time>2025-11-16T11:10:16Z</time>
        <extensions>
          <gpxtpx:TrackPointExtension xmlns:gpxtpx="http://www.garmin.com/xmlschemas/TrackPointExtension/v1">
            <gpxtpx:hr>113</gpxtpx:hr>
          </gpxtpx:TrackPointExtension>
        </extensions>
      </trkpt>
      <trkpt lat="48.59373" lon="1.98053">
        <ele>159.4</ele>
        <time>2025-11-16T11:10:17Z</time>
        <extensions>
          <gpxtpx:TrackPointExtension xmlns:gpxtpx="http://www.garmin.com/xmlschemas/TrackPointExtension/v1">
            <gpxtpx:hr>114</gpxtpx:hr>
          </gpxtpx:TrackPointExtension>
        </extensions>
      </trkpt>
      <trkpt lat="48.59372" lon="1.98051">
        <ele>159.4</ele>
        <time>2025-11-16T11:10:18Z</time>
        <extensions>
          <gpxtpx:TrackPointExtension xmlns:gpxtpx="http://www.garmin.com/xmlschemas/TrackPointExtension/v1">
            <gpxtpx:hr>115</gpxtpx:hr>
          </gpxtpx:TrackPointExtension>
        </extensions>
      </trkpt>
      <trkpt lat="48.59369" lon="1.98048">
        <ele>159.6</ele>
        <time>2025-11-16T11:10:20Z</time>
        <extensions>
          <gpxtpx:TrackPointExtension xmlns:gpxtpx="http://www.garmin.com/xmlschemas/TrackPointExtension/v1">
            <gpxtpx:hr>117</gpxtpx:hr>
          </gpxtpx:TrackPointExtension>
        </extensions>
      </trkpt>
      <trkpt lat="48.59367" lon="1.98046">
        <ele>159.6</ele>
        <time>2025-11-16T11:10:21Z</time>
        <extensions>
          <gpxtpx:TrackPointExtension xmlns:gpxtpx="http://www.garmin.com/xmlschemas/TrackPointExtension/v1">
            <gpxtpx:hr>118</gpxtpx:hr>
          </gpxtpx:TrackPointExtension>
        </extensions>
      </trkpt>
      <trkpt lat="48.59366" lon="1.98044">
        <ele>159.8</ele>
        <time>2025-11-16T11:10:22Z</time>
        <extensions>
          <gpxtpx:TrackPointExtension xmlns:gpxtpx="http://www.garmin.com/xmlschemas/TrackPointExtension/v1">
            <gpxtpx:hr>120</gpxtpx:hr>
          </gpxtpx:TrackPointExtension>
        </extensions>
      </trkpt>
      <trkpt lat="48.59363" lon="1.9804">
        <ele>159.8</ele>
        <time>2025-11-16T11:10:24Z</time>
        <extensions>
          <gpxtpx:TrackPointExtension xmlns:gpxtpx="http://www.garmin.com/xmlschemas/TrackPointExtension/v1">
            <gpxtpx:hr>122</gpxtpx:hr>
          </gpxtpx:TrackPointExtension>
        </extensions>
      </trkpt>
      <trkpt lat="48.59361" lon="1.98035">
        <ele>160</ele>
        <time>2025-11-16T11:10:26Z</time>
        <extensions>
          <gpxtpx:TrackPointExtension xmlns:gpxtpx="http://www.garmin.com/xmlschemas/TrackPointExtension/v1">
            <gpxtpx:hr>121</gpxtpx:hr>
          </gpxtpx:TrackPointExtension>
        </extensions>
      </trkpt>
      <trkpt lat="48.5936" lon="1.9803">
        <ele>160</ele>
        <time>2025-11-16T11:10:28Z</time>
        <extensions>
          <gpxtpx:TrackPointExtension xmlns:gpxtpx="http://www.garmin.com/xmlschemas/TrackPointExtension/v1">
            <gpxtpx:hr>119</gpxtpx:hr>
          </gpxtpx:TrackPointExtension>
        </extensions>
      </trkpt>
      <trkpt lat="48.59359" lon="1.98025">
        <ele>160.2</ele>
        <time>2025-11-16T11:10:30Z</time>
        <extensions>
          <gpxtpx:TrackPointExtension xmlns:gpxtpx="http://www.garmin.com/xmlschemas/TrackPointExtension/v1">
            <gpxtpx:hr>119</gpxtpx:hr>
          </gpxtpx:TrackPointExtension>
        </extensions>
      </trkpt>
      <trkpt lat="48.59358" lon="1.98021">
        <ele>160.2</ele>
        <time>2025-11-16T11:10:32Z</time>
        <extensions>
          <gpxtpx:TrackPointExtension xmlns:gpxtpx="http://www.garmin.com/xmlschemas/TrackPointExtension/v1">
            <gpxtpx:hr>119</gpxtpx:hr>
          </gpxtpx:TrackPointExtension>
        </extensions>
      </trkpt>
      <trkpt lat="48.59357" lon="1.98016">
        <ele>160.4</ele>
        <time>2025-11-16T11:10:34Z</time>
        <extensions>
          <gpxtpx:TrackPointExtension xmlns:gpxtpx="http://www.garmin.com/xmlschemas/TrackPointExtension/v1">
            <gpxtpx:hr>119</gpxtpx:hr>
          </gpxtpx:TrackPointExtension>
        </extensions>
      </trkpt>
      <trkpt lat="48.59356" lon="1.98012">
        <ele>160.6</ele>
        <time>2025-11-16T11:10:36Z</time>
        <extensions>
          <gpxtpx:TrackPointExtension xmlns:gpxtpx="http://www.garmin.com/xmlschemas/TrackPointExtension/v1">
            <gpxtpx:hr>119</gpxtpx:hr>
          </gpxtpx:TrackPointExtension>
        </extensions>
      </trkpt>
      <trkpt lat="48.59356" lon="1.98007">
        <ele>160.8</ele>
        <time>2025-11-16T11:10:38Z</time>
        <extensions>
          <gpxtpx:TrackPointExtension xmlns:gpxtpx="http://www.garmin.com/xmlschemas/TrackPointExtension/v1">
            <gpxtpx:hr>119</gpxtpx:hr>
          </gpxtpx:TrackPointExtension>
        </extensions>
      </trkpt>
      <trkpt lat="48.59356" lon="1.98003">
        <ele>160.8</ele>
        <time>2025-11-16T11:10:40Z</time>
        <extensions>
          <gpxtpx:TrackPointExtension xmlns:gpxtpx="http://www.garmin.com/xmlschemas/TrackPointExtension/v1">
            <gpxtpx:hr>119</gpxtpx:hr>
          </gpxtpx:TrackPointExtension>
        </extensions>
      </trkpt>
      <trkpt lat="48.59356" lon="1.97999">
        <ele>161</ele>
        <time>2025-11-16T11:10:42Z</time>
        <extensions>
          <gpxtpx:TrackPointExtension xmlns:gpxtpx="http://www.garmin.com/xmlschemas/TrackPointExtension/v1">
            <gpxtpx:hr>119</gpxtpx:hr>
          </gpxtpx:TrackPointExtension>
        </extensions>
      </trkpt>
      <trkpt lat="48.59357" lon="1.97995">
        <ele>161.2</ele>
        <time>2025-11-16T11:10:44Z</time>
        <extensions>
          <gpxtpx:TrackPointExtension xmlns:gpxtpx="http://www.garmin.com/xmlschemas/TrackPointExtension/v1">
            <gpxtpx:hr>119</gpxtpx:hr>
          </gpxtpx:TrackPointExtension>
        </extensions>
      </trkpt>
      <trkpt lat="48.59358" lon="1.97991">
        <ele>161.4</ele>
        <time>2025-11-16T11:10:46Z</time>
        <extensions>
          <gpxtpx:TrackPointExtension xmlns:gpxtpx="http://www.garmin.com/xmlschemas/TrackPointExtension/v1">
            <gpxtpx:hr>119</gpxtpx:hr>
          </gpxtpx:TrackPointExtension>
        </extensions>
      </trkpt>
      <trkpt lat="48.59359" lon="1.97987">
        <ele>161.6</ele>
        <time>2025-11-16T11:10:48Z</time>
        <extensions>
          <gpxtpx:TrackPointExtension xmlns:gpxtpx="http://www.garmin.com/xmlschemas/TrackPointExtension/v1">
            <gpxtpx:hr>119</gpxtpx:hr>
          </gpxtpx:TrackPointExtension>
        </extensions>
      </trkpt>
      <trkpt lat="48.5936" lon="1.97983">
        <ele>161.8</ele>
        <time>2025-11-16T11:10:50Z</time>
        <extensions>
          <gpxtpx:TrackPointExtension xmlns:gpxtpx="http://www.garmin.com/xmlschemas/TrackPointExtension/v1">
            <gpxtpx:hr>119</gpxtpx:hr>
          </gpxtpx:TrackPointExtension>
        </extensions>
      </trkpt>
      <trkpt lat="48.59361" lon="1.97978">
        <ele>162</ele>
        <time>2025-11-16T11:10:52Z</time>
        <extensions>
          <gpxtpx:TrackPointExtension xmlns:gpxtpx="http://www.garmin.com/xmlschemas/TrackPointExtension/v1">
            <gpxtpx:hr>119</gpxtpx:hr>
          </gpxtpx:TrackPointExtension>
        </extensions>
      </trkpt>
      <trkpt lat="48.59362" lon="1.97973">
        <ele>162.2</ele>
        <time>2025-11-16T11:10:54Z</time>
        <extensions>
          <gpxtpx:TrackPointExtension xmlns:gpxtpx="http://www.garmin.com/xmlschemas/TrackPointExtension/v1">
            <gpxtpx:hr>119</gpxtpx:hr>
          </gpxtpx:TrackPointExtension>
        </extensions>
      </trkpt>
      <trkpt lat="48.59363" lon="1.9797">
        <ele>162.2</ele>
        <time>2025-11-16T11:10:55Z</time>
        <extensions>
          <gpxtpx:TrackPointExtension xmlns:gpxtpx="http://www.garmin.com/xmlschemas/TrackPointExtension/v1">
            <gpxtpx:hr>119</gpxtpx:hr>
          </gpxtpx:TrackPointExtension>
        </extensions>
      </trkpt>
      <trkpt lat="48.59363" lon="1.97968">
        <ele>162.4</ele>
        <time>2025-11-16T11:10:56Z</time>
        <extensions>
          <gpxtpx:TrackPointExtension xmlns:gpxtpx="http://www.garmin.com/xmlschemas/TrackPointExtension/v1">
            <gpxtpx:hr>119</gpxtpx:hr>
          </gpxtpx:TrackPointExtension>
        </extensions>
      </trkpt>
      <trkpt lat="48.59363" lon="1.97965">
        <ele>162.4</ele>
        <time>2025-11-16T11:10:57Z</time>
        <extensions>
          <gpxtpx:TrackPointExtension xmlns:gpxtpx="http://www.garmin.com/xmlschemas/TrackPointExtension/v1">
            <gpxtpx:hr>119</gpxtpx:hr>
          </gpxtpx:TrackPointExtension>
        </extensions>
      </trkpt>
      <trkpt lat="48.59364" lon="1.97962">
        <ele>162.6</ele>
        <time>2025-11-16T11:10:58Z</time>
        <extensions>
          <gpxtpx:TrackPointExtension xmlns:gpxtpx="http://www.garmin.com/xmlschemas/TrackPointExtension/v1">
            <gpxtpx:hr>119</gpxtpx:hr>
          </gpxtpx:TrackPointExtension>
        </extensions>
      </trkpt>
      <trkpt lat="48.59364" lon="1.9796">
        <ele>162.6</ele>
        <time>2025-11-16T11:10:59Z</time>
        <extensions>
          <gpxtpx:TrackPointExtension xmlns:gpxtpx="http://www.garmin.com/xmlschemas/TrackPointExtension/v1">
            <gpxtpx:hr>119</gpxtpx:hr>
          </gpxtpx:TrackPointExtension>
        </extensions>
      </trkpt>
      <trkpt lat="48.59365" lon="1.97957">
        <ele>162.6</ele>
        <time>2025-11-16T11:11:00Z</time>
        <extensions>
          <gpxtpx:TrackPointExtension xmlns:gpxtpx="http://www.garmin.com/xmlschemas/TrackPointExtension/v1">
            <gpxtpx:hr>119</gpxtpx:hr>
          </gpxtpx:TrackPointExtension>
        </extensions>
      </trkpt>
      <trkpt lat="48.59365" lon="1.97952">
        <ele>162.8</ele>
        <time>2025-11-16T11:11:02Z</time>
        <extensions>
          <gpxtpx:TrackPointExtension xmlns:gpxtpx="http://www.garmin.com/xmlschemas/TrackPointExtension/v1">
            <gpxtpx:hr>119</gpxtpx:hr>
          </gpxtpx:TrackPointExtension>
        </extensions>
      </trkpt>
      <trkpt lat="48.59366" lon="1.97946">
        <ele>162.8</ele>
        <time>2025-11-16T11:11:04Z</time>
        <extensions>
          <gpxtpx:TrackPointExtension xmlns:gpxtpx="http://www.garmin.com/xmlschemas/TrackPointExtension/v1">
            <gpxtpx:hr>119</gpxtpx:hr>
          </gpxtpx:TrackPointExtension>
        </extensions>
      </trkpt>
      <trkpt lat="48.59367" lon="1.97941">
        <ele>162.8</ele>
        <time>2025-11-16T11:11:06Z</time>
        <extensions>
          <gpxtpx:TrackPointExtension xmlns:gpxtpx="http://www.garmin.com/xmlschemas/TrackPointExtension/v1">
            <gpxtpx:hr>119</gpxtpx:hr>
          </gpxtpx:TrackPointExtension>
        </extensions>
      </trkpt>
      <trkpt lat="48.59367" lon="1.97936">
        <ele>162.8</ele>
        <time>2025-11-16T11:11:08Z</time>
        <extensions>
          <gpxtpx:TrackPointExtension xmlns:gpxtpx="http://www.garmin.com/xmlschemas/TrackPointExtension/v1">
            <gpxtpx:hr>119</gpxtpx:hr>
          </gpxtpx:TrackPointExtension>
        </extensions>
      </trkpt>
      <trkpt lat="48.59368" lon="1.97931">
        <ele>162.8</ele>
        <time>2025-11-16T11:11:10Z</time>
        <extensions>
          <gpxtpx:TrackPointExtension xmlns:gpxtpx="http://www.garmin.com/xmlschemas/TrackPointExtension/v1">
            <gpxtpx:hr>119</gpxtpx:hr>
          </gpxtpx:TrackPointExtension>
        </extensions>
      </trkpt>
      <trkpt lat="48.59368" lon="1.97927">
        <ele>162.8</ele>
        <time>2025-11-16T11:11:12Z</time>
        <extensions>
          <gpxtpx:TrackPointExtension xmlns:gpxtpx="http://www.garmin.com/xmlschemas/TrackPointExtension/v1">
            <gpxtpx:hr>119</gpxtpx:hr>
          </gpxtpx:TrackPointExtension>
        </extensions>
      </trkpt>
      <trkpt lat="48.59368" lon="1.97923">
        <ele>162.8</ele>
        <time>2025-11-16T11:11:14Z</time>
        <extensions>
          <gpxtpx:TrackPointExtension xmlns:gpxtpx="http://www.garmin.com/xmlschemas/TrackPointExtension/v1">
            <gpxtpx:hr>119</gpxtpx:hr>
          </gpxtpx:TrackPointExtension>
        </extensions>
      </trkpt>
      <trkpt lat="48.59367" lon="1.97918">
        <ele>162.6</ele>
        <time>2025-11-16T11:11:16Z</time>
        <extensions>
          <gpxtpx:TrackPointExtension xmlns:gpxtpx="http://www.garmin.com/xmlschemas/TrackPointExtension/v1">
            <gpxtpx:hr>119</gpxtpx:hr>
          </gpxtpx:TrackPointExtension>
        </extensions>
      </trkpt>
      <trkpt lat="48.59367" lon="1.97914">
        <ele>162.6</ele>
        <time>2025-11-16T11:11:18Z</time>
        <extensions>
          <gpxtpx:TrackPointExtension xmlns:gpxtpx="http://www.garmin.com/xmlschemas/TrackPointExtension/v1">
            <gpxtpx:hr>120</gpxtpx:hr>
          </gpxtpx:TrackPointExtension>
        </extensions>
      </trkpt>
      <trkpt lat="48.59367" lon="1.97909">
        <ele>162.6</ele>
        <time>2025-11-16T11:11:20Z</time>
        <extensions>
          <gpxtpx:TrackPointExtension xmlns:gpxtpx="http://www.garmin.com/xmlschemas/TrackPointExtension/v1">
            <gpxtpx:hr>120</gpxtpx:hr>
          </gpxtpx:TrackPointExtension>
        </extensions>
      </trkpt>
      <trkpt lat="48.59366" lon="1.97904">
        <ele>162.6</ele>
        <time>2025-11-16T11:11:22Z</time>
        <extensions>
          <gpxtpx:TrackPointExtension xmlns:gpxtpx="http://www.garmin.com/xmlschemas/TrackPointExtension/v1">
            <gpxtpx:hr>119</gpxtpx:hr>
          </gpxtpx:TrackPointExtension>
        </extensions>
      </trkpt>
      <trkpt lat="48.59365" lon="1.979">
        <ele>162.8</ele>
        <time>2025-11-16T11:11:24Z</time>
        <extensions>
          <gpxtpx:TrackPointExtension xmlns:gpxtpx="http://www.garmin.com/xmlschemas/TrackPointExtension/v1">
            <gpxtpx:hr>119</gpxtpx:hr>
          </gpxtpx:TrackPointExtension>
        </extensions>
      </trkpt>
      <trkpt lat="48.59364" lon="1.97895">
        <ele>162.8</ele>
        <time>2025-11-16T11:11:26Z</time>
        <extensions>
          <gpxtpx:TrackPointExtension xmlns:gpxtpx="http://www.garmin.com/xmlschemas/TrackPointExtension/v1">
            <gpxtpx:hr>119</gpxtpx:hr>
          </gpxtpx:TrackPointExtension>
        </extensions>
      </trkpt>
      <trkpt lat="48.59364" lon="1.9789">
        <ele>162.8</ele>
        <time>2025-11-16T11:11:28Z</time>
        <extensions>
          <gpxtpx:TrackPointExtension xmlns:gpxtpx="http://www.garmin.com/xmlschemas/TrackPointExtension/v1">
            <gpxtpx:hr>119</gpxtpx:hr>
          </gpxtpx:TrackPointExtension>
        </extensions>
      </trkpt>
      <trkpt lat="48.59363" lon="1.97886">
        <ele>163</ele>
        <time>2025-11-16T11:11:30Z</time>
        <extensions>
          <gpxtpx:TrackPointExtension xmlns:gpxtpx="http://www.garmin.com/xmlschemas/TrackPointExtension/v1">
            <gpxtpx:hr>119</gpxtpx:hr>
          </gpxtpx:TrackPointExtension>
        </extensions>
      </trkpt>
      <trkpt lat="48.59362" lon="1.97883">
        <ele>163</ele>
        <time>2025-11-16T11:11:31Z</time>
        <extensions>
          <gpxtpx:TrackPointExtension xmlns:gpxtpx="http://www.garmin.com/xmlschemas/TrackPointExtension/v1">
            <gpxtpx:hr>119</gpxtpx:hr>
          </gpxtpx:TrackPointExtension>
        </extensions>
      </trkpt>
      <trkpt lat="48.5936" lon="1.97879">
        <ele>163</ele>
        <time>2025-11-16T11:11:33Z</time>
        <extensions>
          <gpxtpx:TrackPointExtension xmlns:gpxtpx="http://www.garmin.com/xmlschemas/TrackPointExtension/v1">
            <gpxtpx:hr>119</gpxtpx:hr>
          </gpxtpx:TrackPointExtension>
        </extensions>
      </trkpt>
      <trkpt lat="48.59359" lon="1.97874">
        <ele>163</ele>
        <time>2025-11-16T11:11:35Z</time>
        <extensions>
          <gpxtpx:TrackPointExtension xmlns:gpxtpx="http://www.garmin.com/xmlschemas/TrackPointExtension/v1">
            <gpxtpx:hr>119</gpxtpx:hr>
          </gpxtpx:TrackPointExtension>
        </extensions>
      </trkpt>
      <trkpt lat="48.59358" lon="1.97869">
        <ele>163</ele>
        <time>2025-11-16T11:11:37Z</time>
        <extensions>
          <gpxtpx:TrackPointExtension xmlns:gpxtpx="http://www.garmin.com/xmlschemas/TrackPointExtension/v1">
            <gpxtpx:hr>119</gpxtpx:hr>
          </gpxtpx:TrackPointExtension>
        </extensions>
      </trkpt>
      <trkpt lat="48.59357" lon="1.97864">
        <ele>163</ele>
        <time>2025-11-16T11:11:39Z</time>
        <extensions>
          <gpxtpx:TrackPointExtension xmlns:gpxtpx="http://www.garmin.com/xmlschemas/TrackPointExtension/v1">
            <gpxtpx:hr>119</gpxtpx:hr>
          </gpxtpx:TrackPointExtension>
        </extensions>
      </trkpt>
      <trkpt lat="48.59356" lon="1.97859">
        <ele>162.8</ele>
        <time>2025-11-16T11:11:41Z</time>
        <extensions>
          <gpxtpx:TrackPointExtension xmlns:gpxtpx="http://www.garmin.com/xmlschemas/TrackPointExtension/v1">
            <gpxtpx:hr>119</gpxtpx:hr>
          </gpxtpx:TrackPointExtension>
        </extensions>
      </trkpt>
      <trkpt lat="48.59355" lon="1.97854">
        <ele>162.6</ele>
        <time>2025-11-16T11:11:43Z</time>
        <extensions>
          <gpxtpx:TrackPointExtension xmlns:gpxtpx="http://www.garmin.com/xmlschemas/TrackPointExtension/v1">
            <gpxtpx:hr>119</gpxtpx:hr>
          </gpxtpx:TrackPointExtension>
        </extensions>
      </trkpt>
      <trkpt lat="48.59353" lon="1.9785">
        <ele>162.4</ele>
        <time>2025-11-16T11:11:45Z</time>
        <extensions>
          <gpxtpx:TrackPointExtension xmlns:gpxtpx="http://www.garmin.com/xmlschemas/TrackPointExtension/v1">
            <gpxtpx:hr>119</gpxtpx:hr>
          </gpxtpx:TrackPointExtension>
        </extensions>
      </trkpt>
      <trkpt lat="48.59352" lon="1.97846">
        <ele>162.2</ele>
        <time>2025-11-16T11:11:47Z</time>
        <extensions>
          <gpxtpx:TrackPointExtension xmlns:gpxtpx="http://www.garmin.com/xmlschemas/TrackPointExtension/v1">
            <gpxtpx:hr>119</gpxtpx:hr>
          </gpxtpx:TrackPointExtension>
        </extensions>
      </trkpt>
      <trkpt lat="48.5935" lon="1.97842">
        <ele>162</ele>
        <time>2025-11-16T11:11:49Z</time>
        <extensions>
          <gpxtpx:TrackPointExtension xmlns:gpxtpx="http://www.garmin.com/xmlschemas/TrackPointExtension/v1">
            <gpxtpx:hr>119</gpxtpx:hr>
          </gpxtpx:TrackPointExtension>
        </extensions>
      </trkpt>
      <trkpt lat="48.59349" lon="1.97837">
        <ele>161.8</ele>
        <time>2025-11-16T11:11:51Z</time>
        <extensions>
          <gpxtpx:TrackPointExtension xmlns:gpxtpx="http://www.garmin.com/xmlschemas/TrackPointExtension/v1">
            <gpxtpx:hr>118</gpxtpx:hr>
          </gpxtpx:TrackPointExtension>
        </extensions>
      </trkpt>
      <trkpt lat="48.59348" lon="1.97833">
        <ele>161.6</ele>
        <time>2025-11-16T11:11:53Z</time>
        <extensions>
          <gpxtpx:TrackPointExtension xmlns:gpxtpx="http://www.garmin.com/xmlschemas/TrackPointExtension/v1">
            <gpxtpx:hr>118</gpxtpx:hr>
          </gpxtpx:TrackPointExtension>
        </extensions>
      </trkpt>
      <trkpt lat="48.59347" lon="1.97828">
        <ele>161.6</ele>
        <time>2025-11-16T11:11:55Z</time>
        <extensions>
          <gpxtpx:TrackPointExtension xmlns:gpxtpx="http://www.garmin.com/xmlschemas/TrackPointExtension/v1">
            <gpxtpx:hr>118</gpxtpx:hr>
          </gpxtpx:TrackPointExtension>
        </extensions>
      </trkpt>
      <trkpt lat="48.59346" lon="1.97826">
        <ele>161.6</ele>
        <time>2025-11-16T11:11:56Z</time>
        <extensions>
          <gpxtpx:TrackPointExtension xmlns:gpxtpx="http://www.garmin.com/xmlschemas/TrackPointExtension/v1">
            <gpxtpx:hr>117</gpxtpx:hr>
          </gpxtpx:TrackPointExtension>
        </extensions>
      </trkpt>
      <trkpt lat="48.59345" lon="1.97821">
        <ele>161.6</ele>
        <time>2025-11-16T11:11:58Z</time>
        <extensions>
          <gpxtpx:TrackPointExtension xmlns:gpxtpx="http://www.garmin.com/xmlschemas/TrackPointExtension/v1">
            <gpxtpx:hr>117</gpxtpx:hr>
          </gpxtpx:TrackPointExtension>
        </extensions>
      </trkpt>
      <trkpt lat="48.59344" lon="1.97817">
        <ele>161.4</ele>
        <time>2025-11-16T11:12:00Z</time>
        <extensions>
          <gpxtpx:TrackPointExtension xmlns:gpxtpx="http://www.garmin.com/xmlschemas/TrackPointExtension/v1">
            <gpxtpx:hr>117</gpxtpx:hr>
          </gpxtpx:TrackPointExtension>
        </extensions>
      </trkpt>
      <trkpt lat="48.59343" lon="1.97813">
        <ele>161.4</ele>
        <time>2025-11-16T11:12:02Z</time>
        <extensions>
          <gpxtpx:TrackPointExtension xmlns:gpxtpx="http://www.garmin.com/xmlschemas/TrackPointExtension/v1">
            <gpxtpx:hr>116</gpxtpx:hr>
          </gpxtpx:TrackPointExtension>
        </extensions>
      </trkpt>
      <trkpt lat="48.59342" lon="1.97808">
        <ele>161.4</ele>
        <time>2025-11-16T11:12:04Z</time>
        <extensions>
          <gpxtpx:TrackPointExtension xmlns:gpxtpx="http://www.garmin.com/xmlschemas/TrackPointExtension/v1">
            <gpxtpx:hr>116</gpxtpx:hr>
          </gpxtpx:TrackPointExtension>
        </extensions>
      </trkpt>
      <trkpt lat="48.59341" lon="1.97804">
        <ele>161.6</ele>
        <time>2025-11-16T11:12:06Z</time>
        <extensions>
          <gpxtpx:TrackPointExtension xmlns:gpxtpx="http://www.garmin.com/xmlschemas/TrackPointExtension/v1">
            <gpxtpx:hr>116</gpxtpx:hr>
          </gpxtpx:TrackPointExtension>
        </extensions>
      </trkpt>
      <trkpt lat="48.5934" lon="1.97801">
        <ele>161.6</ele>
        <time>2025-11-16T11:12:07Z</time>
        <extensions>
          <gpxtpx:TrackPointExtension xmlns:gpxtpx="http://www.garmin.com/xmlschemas/TrackPointExtension/v1">
            <gpxtpx:hr>116</gpxtpx:hr>
          </gpxtpx:TrackPointExtension>
        </extensions>
      </trkpt>
      <trkpt lat="48.59339" lon="1.97797">
        <ele>161.6</ele>
        <time>2025-11-16T11:12:09Z</time>
        <extensions>
          <gpxtpx:TrackPointExtension xmlns:gpxtpx="http://www.garmin.com/xmlschemas/TrackPointExtension/v1">
            <gpxtpx:hr>115</gpxtpx:hr>
          </gpxtpx:TrackPointExtension>
        </extensions>
      </trkpt>
      <trkpt lat="48.59338" lon="1.97794">
        <ele>161.6</ele>
        <time>2025-11-16T11:12:10Z</time>
        <extensions>
          <gpxtpx:TrackPointExtension xmlns:gpxtpx="http://www.garmin.com/xmlschemas/TrackPointExtension/v1">
            <gpxtpx:hr>115</gpxtpx:hr>
          </gpxtpx:TrackPointExtension>
        </extensions>
      </trkpt>
      <trkpt lat="48.59337" lon="1.9779">
        <ele>161.4</ele>
        <time>2025-11-16T11:12:12Z</time>
        <extensions>
          <gpxtpx:TrackPointExtension xmlns:gpxtpx="http://www.garmin.com/xmlschemas/TrackPointExtension/v1">
            <gpxtpx:hr>115</gpxtpx:hr>
          </gpxtpx:TrackPointExtension>
        </extensions>
      </trkpt>
      <trkpt lat="48.59336" lon="1.97787">
        <ele>161.4</ele>
        <time>2025-11-16T11:12:13Z</time>
        <extensions>
          <gpxtpx:TrackPointExtension xmlns:gpxtpx="http://www.garmin.com/xmlschemas/TrackPointExtension/v1">
            <gpxtpx:hr>115</gpxtpx:hr>
          </gpxtpx:TrackPointExtension>
        </extensions>
      </trkpt>
      <trkpt lat="48.59336" lon="1.97783">
        <ele>161</ele>
        <time>2025-11-16T11:12:15Z</time>
        <extensions>
          <gpxtpx:TrackPointExtension xmlns:gpxtpx="http://www.garmin.com/xmlschemas/TrackPointExtension/v1">
            <gpxtpx:hr>115</gpxtpx:hr>
          </gpxtpx:TrackPointExtension>
        </extensions>
      </trkpt>
      <trkpt lat="48.59336" lon="1.97778">
        <ele>161</ele>
        <time>2025-11-16T11:12:17Z</time>
      </trkpt>
      <trkpt lat="48.59336" lon="1.97773">
        <ele>160.6</ele>
        <time>2025-11-16T11:12:19Z</time>
        <extensions>
          <gpxtpx:TrackPointExtension xmlns:gpxtpx="http://www.garmin.com/xmlschemas/TrackPointExtension/v1">
            <gpxtpx:hr>115</gpxtpx:hr>
          </gpxtpx:TrackPointExtension>
        </extensions>
      </trkpt>
      <trkpt lat="48.59336" lon="1.97768">
        <ele>160.4</ele>
        <time>2025-11-16T11:12:21Z</time>
        <extensions>
          <gpxtpx:TrackPointExtension xmlns:gpxtpx="http://www.garmin.com/xmlschemas/TrackPointExtension/v1">
            <gpxtpx:hr>115</gpxtpx:hr>
          </gpxtpx:TrackPointExtension>
        </extensions>
      </trkpt>
      <trkpt lat="48.59336" lon="1.97764">
        <ele>160.2</ele>
        <time>2025-11-16T11:12:23Z</time>
        <extensions>
          <gpxtpx:TrackPointExtension xmlns:gpxtpx="http://www.garmin.com/xmlschemas/TrackPointExtension/v1">
            <gpxtpx:hr>115</gpxtpx:hr>
          </gpxtpx:TrackPointExtension>
        </extensions>
      </trkpt>
      <trkpt lat="48.59337" lon="1.9776">
        <ele>159.8</ele>
        <time>2025-11-16T11:12:25Z</time>
        <extensions>
          <gpxtpx:TrackPointExtension xmlns:gpxtpx="http://www.garmin.com/xmlschemas/TrackPointExtension/v1">
            <gpxtpx:hr>115</gpxtpx:hr>
          </gpxtpx:TrackPointExtension>
        </extensions>
      </trkpt>
      <trkpt lat="48.59339" lon="1.97757">
        <ele>159.8</ele>
        <time>2025-11-16T11:12:27Z</time>
        <extensions>
          <gpxtpx:TrackPointExtension xmlns:gpxtpx="http://www.garmin.com/xmlschemas/TrackPointExtension/v1">
            <gpxtpx:hr>115</gpxtpx:hr>
          </gpxtpx:TrackPointExtension>
        </extensions>
      </trkpt>
      <trkpt lat="48.5934" lon="1.97753">
        <ele>159.6</ele>
        <time>2025-11-16T11:12:29Z</time>
        <extensions>
          <gpxtpx:TrackPointExtension xmlns:gpxtpx="http://www.garmin.com/xmlschemas/TrackPointExtension/v1">
            <gpxtpx:hr>115</gpxtpx:hr>
          </gpxtpx:TrackPointExtension>
        </extensions>
      </trkpt>
      <trkpt lat="48.59342" lon="1.9775">
        <ele>159.4</ele>
        <time>2025-11-16T11:12:31Z</time>
        <extensions>
          <gpxtpx:TrackPointExtension xmlns:gpxtpx="http://www.garmin.com/xmlschemas/TrackPointExtension/v1">
            <gpxtpx:hr>115</gpxtpx:hr>
          </gpxtpx:TrackPointExtension>
        </extensions>
      </trkpt>
      <trkpt lat="48.59343" lon="1.97747">
        <ele>159.4</ele>
        <time>2025-11-16T11:12:33Z</time>
        <extensions>
          <gpxtpx:TrackPointExtension xmlns:gpxtpx="http://www.garmin.com/xmlschemas/TrackPointExtension/v1">
            <gpxtpx:hr>115</gpxtpx:hr>
          </gpxtpx:TrackPointExtension>
        </extensions>
      </trkpt>
      <trkpt lat="48.59345" lon="1.97743">
        <ele>159.2</ele>
        <time>2025-11-16T11:12:35Z</time>
        <extensions>
          <gpxtpx:TrackPointExtension xmlns:gpxtpx="http://www.garmin.com/xmlschemas/TrackPointExtension/v1">
            <gpxtpx:hr>115</gpxtpx:hr>
          </gpxtpx:TrackPointExtension>
        </extensions>
      </trkpt>
      <trkpt lat="48.59346" lon="1.97738">
        <ele>159.2</ele>
        <time>2025-11-16T11:12:37Z</time>
        <extensions>
          <gpxtpx:TrackPointExtension xmlns:gpxtpx="http://www.garmin.com/xmlschemas/TrackPointExtension/v1">
            <gpxtpx:hr>115</gpxtpx:hr>
          </gpxtpx:TrackPointExtension>
        </extensions>
      </trkpt>
      <trkpt lat="48.59346" lon="1.97736">
        <ele>159.2</ele>
        <time>2025-11-16T11:12:38Z</time>
        <extensions>
          <gpxtpx:TrackPointExtension xmlns:gpxtpx="http://www.garmin.com/xmlschemas/TrackPointExtension/v1">
            <gpxtpx:hr>115</gpxtpx:hr>
          </gpxtpx:TrackPointExtension>
        </extensions>
      </trkpt>
      <trkpt lat="48.59347" lon="1.97733">
        <ele>159.2</ele>
        <time>2025-11-16T11:12:39Z</time>
        <extensions>
          <gpxtpx:TrackPointExtension xmlns:gpxtpx="http://www.garmin.com/xmlschemas/TrackPointExtension/v1">
            <gpxtpx:hr>115</gpxtpx:hr>
          </gpxtpx:TrackPointExtension>
        </extensions>
      </trkpt>
      <trkpt lat="48.59348" lon="1.9773">
        <ele>159.4</ele>
        <time>2025-11-16T11:12:40Z</time>
        <extensions>
          <gpxtpx:TrackPointExtension xmlns:gpxtpx="http://www.garmin.com/xmlschemas/TrackPointExtension/v1">
            <gpxtpx:hr>115</gpxtpx:hr>
          </gpxtpx:TrackPointExtension>
        </extensions>
      </trkpt>
      <trkpt lat="48.59349" lon="1.97726">
        <ele>159.4</ele>
        <time>2025-11-16T11:12:42Z</time>
        <extensions>
          <gpxtpx:TrackPointExtension xmlns:gpxtpx="http://www.garmin.com/xmlschemas/TrackPointExtension/v1">
            <gpxtpx:hr>115</gpxtpx:hr>
          </gpxtpx:TrackPointExtension>
        </extensions>
      </trkpt>
      <trkpt lat="48.5935" lon="1.97722">
        <ele>159.6</ele>
        <time>2025-11-16T11:12:44Z</time>
        <extensions>
          <gpxtpx:TrackPointExtension xmlns:gpxtpx="http://www.garmin.com/xmlschemas/TrackPointExtension/v1">
            <gpxtpx:hr>115</gpxtpx:hr>
          </gpxtpx:TrackPointExtension>
        </extensions>
      </trkpt>
      <trkpt lat="48.59353" lon="1.97718">
        <ele>159.6</ele>
        <time>2025-11-16T11:12:46Z</time>
        <extensions>
          <gpxtpx:TrackPointExtension xmlns:gpxtpx="http://www.garmin.com/xmlschemas/TrackPointExtension/v1">
            <gpxtpx:hr>115</gpxtpx:hr>
          </gpxtpx:TrackPointExtension>
        </extensions>
      </trkpt>
      <trkpt lat="48.59354" lon="1.97716">
        <ele>159.6</ele>
        <time>2025-11-16T11:12:47Z</time>
        <extensions>
          <gpxtpx:TrackPointExtension xmlns:gpxtpx="http://www.garmin.com/xmlschemas/TrackPointExtension/v1">
            <gpxtpx:hr>115</gpxtpx:hr>
          </gpxtpx:TrackPointExtension>
        </extensions>
      </trkpt>
      <trkpt lat="48.59356" lon="1.97714">
        <ele>159.6</ele>
        <time>2025-11-16T11:12:48Z</time>
        <extensions>
          <gpxtpx:TrackPointExtension xmlns:gpxtpx="http://www.garmin.com/xmlschemas/TrackPointExtension/v1">
            <gpxtpx:hr>115</gpxtpx:hr>
          </gpxtpx:TrackPointExtension>
        </extensions>
      </trkpt>
      <trkpt lat="48.59357" lon="1.97712">
        <ele>159.6</ele>
        <time>2025-11-16T11:12:49Z</time>
        <extensions>
          <gpxtpx:TrackPointExtension xmlns:gpxtpx="http://www.garmin.com/xmlschemas/TrackPointExtension/v1">
            <gpxtpx:hr>116</gpxtpx:hr>
          </gpxtpx:TrackPointExtension>
        </extensions>
      </trkpt>
      <trkpt lat="48.59359" lon="1.97711">
        <ele>159.6</ele>
        <time>2025-11-16T11:12:50Z</time>
        <extensions>
          <gpxtpx:TrackPointExtension xmlns:gpxtpx="http://www.garmin.com/xmlschemas/TrackPointExtension/v1">
            <gpxtpx:hr>116</gpxtpx:hr>
          </gpxtpx:TrackPointExtension>
        </extensions>
      </trkpt>
      <trkpt lat="48.59362" lon="1.97709">
        <ele>159.6</ele>
        <time>2025-11-16T11:12:52Z</time>
        <extensions>
          <gpxtpx:TrackPointExtension xmlns:gpxtpx="http://www.garmin.com/xmlschemas/TrackPointExtension/v1">
            <gpxtpx:hr>116</gpxtpx:hr>
          </gpxtpx:TrackPointExtension>
        </extensions>
      </trkpt>
      <trkpt lat="48.59365" lon="1.97709">
        <ele>159.6</ele>
        <time>2025-11-16T11:12:54Z</time>
        <extensions>
          <gpxtpx:TrackPointExtension xmlns:gpxtpx="http://www.garmin.com/xmlschemas/TrackPointExtension/v1">
            <gpxtpx:hr>116</gpxtpx:hr>
          </gpxtpx:TrackPointExtension>
        </extensions>
      </trkpt>
      <trkpt lat="48.59368" lon="1.9771">
        <ele>159.6</ele>
        <time>2025-11-16T11:12:57Z</time>
        <extensions>
          <gpxtpx:TrackPointExtension xmlns:gpxtpx="http://www.garmin.com/xmlschemas/TrackPointExtension/v1">
            <gpxtpx:hr>116</gpxtpx:hr>
          </gpxtpx:TrackPointExtension>
        </extensions>
      </trkpt>
      <trkpt lat="48.59371" lon="1.9771">
        <ele>159.6</ele>
        <time>2025-11-16T11:12:59Z</time>
        <extensions>
          <gpxtpx:TrackPointExtension xmlns:gpxtpx="http://www.garmin.com/xmlschemas/TrackPointExtension/v1">
            <gpxtpx:hr>116</gpxtpx:hr>
          </gpxtpx:TrackPointExtension>
        </extensions>
      </trkpt>
      <trkpt lat="48.59373" lon="1.97712">
        <ele>159.6</ele>
        <time>2025-11-16T11:13:01Z</time>
        <extensions>
          <gpxtpx:TrackPointExtension xmlns:gpxtpx="http://www.garmin.com/xmlschemas/TrackPointExtension/v1">
            <gpxtpx:hr>117</gpxtpx:hr>
          </gpxtpx:TrackPointExtension>
        </extensions>
      </trkpt>
      <trkpt lat="48.59375" lon="1.97712">
        <ele>159.4</ele>
        <time>2025-11-16T11:13:03Z</time>
        <extensions>
          <gpxtpx:TrackPointExtension xmlns:gpxtpx="http://www.garmin.com/xmlschemas/TrackPointExtension/v1">
            <gpxtpx:hr>119</gpxtpx:hr>
          </gpxtpx:TrackPointExtension>
        </extensions>
      </trkpt>
      <trkpt lat="48.59379" lon="1.97713">
        <ele>159.4</ele>
        <time>2025-11-16T11:13:06Z</time>
        <extensions>
          <gpxtpx:TrackPointExtension xmlns:gpxtpx="http://www.garmin.com/xmlschemas/TrackPointExtension/v1">
            <gpxtpx:hr>119</gpxtpx:hr>
          </gpxtpx:TrackPointExtension>
        </extensions>
      </trkpt>
      <trkpt lat="48.59381" lon="1.97714">
        <ele>159.6</ele>
        <time>2025-11-16T11:13:09Z</time>
        <extensions>
          <gpxtpx:TrackPointExtension xmlns:gpxtpx="http://www.garmin.com/xmlschemas/TrackPointExtension/v1">
            <gpxtpx:hr>119</gpxtpx:hr>
          </gpxtpx:TrackPointExtension>
        </extensions>
      </trkpt>
      <trkpt lat="48.59383" lon="1.97716">
        <ele>159.8</ele>
        <time>2025-11-16T11:13:11Z</time>
        <extensions>
          <gpxtpx:TrackPointExtension xmlns:gpxtpx="http://www.garmin.com/xmlschemas/TrackPointExtension/v1">
            <gpxtpx:hr>119</gpxtpx:hr>
          </gpxtpx:TrackPointExtension>
        </extensions>
      </trkpt>
      <trkpt lat="48.59386" lon="1.97718">
        <ele>159.8</ele>
        <time>2025-11-16T11:13:13Z</time>
        <extensions>
          <gpxtpx:TrackPointExtension xmlns:gpxtpx="http://www.garmin.com/xmlschemas/TrackPointExtension/v1">
            <gpxtpx:hr>118</gpxtpx:hr>
          </gpxtpx:TrackPointExtension>
        </extensions>
      </trkpt>
      <trkpt lat="48.59387" lon="1.9772">
        <ele>160</ele>
        <time>2025-11-16T11:13:15Z</time>
        <extensions>
          <gpxtpx:TrackPointExtension xmlns:gpxtpx="http://www.garmin.com/xmlschemas/TrackPointExtension/v1">
            <gpxtpx:hr>119</gpxtpx:hr>
          </gpxtpx:TrackPointExtension>
        </extensions>
      </trkpt>
      <trkpt lat="48.59389" lon="1.97721">
        <ele>160.2</ele>
        <time>2025-11-16T11:13:17Z</time>
        <extensions>
          <gpxtpx:TrackPointExtension xmlns:gpxtpx="http://www.garmin.com/xmlschemas/TrackPointExtension/v1">
            <gpxtpx:hr>119</gpxtpx:hr>
          </gpxtpx:TrackPointExtension>
        </extensions>
      </trkpt>
      <trkpt lat="48.59391" lon="1.97722">
        <ele>160.4</ele>
        <time>2025-11-16T11:13:19Z</time>
        <extensions>
          <gpxtpx:TrackPointExtension xmlns:gpxtpx="http://www.garmin.com/xmlschemas/TrackPointExtension/v1">
            <gpxtpx:hr>119</gpxtpx:hr>
          </gpxtpx:TrackPointExtension>
        </extensions>
      </trkpt>
      <trkpt lat="48.59393" lon="1.97724">
        <ele>160.6</ele>
        <time>2025-11-16T11:13:21Z</time>
        <extensions>
          <gpxtpx:TrackPointExtension xmlns:gpxtpx="http://www.garmin.com/xmlschemas/TrackPointExtension/v1">
            <gpxtpx:hr>119</gpxtpx:hr>
          </gpxtpx:TrackPointExtension>
        </extensions>
      </trkpt>
      <trkpt lat="48.59395" lon="1.97725">
        <ele>160.8</ele>
        <time>2025-11-16T11:13:23Z</time>
        <extensions>
          <gpxtpx:TrackPointExtension xmlns:gpxtpx="http://www.garmin.com/xmlschemas/TrackPointExtension/v1">
            <gpxtpx:hr>119</gpxtpx:hr>
          </gpxtpx:TrackPointExtension>
        </extensions>
      </trkpt>
      <trkpt lat="48.59397" lon="1.97727">
        <ele>161</ele>
        <time>2025-11-16T11:13:25Z</time>
        <extensions>
          <gpxtpx:TrackPointExtension xmlns:gpxtpx="http://www.garmin.com/xmlschemas/TrackPointExtension/v1">
            <gpxtpx:hr>119</gpxtpx:hr>
          </gpxtpx:TrackPointExtension>
        </extensions>
      </trkpt>
      <trkpt lat="48.59399" lon="1.97729">
        <ele>161.2</ele>
        <time>2025-11-16T11:13:27Z</time>
        <extensions>
          <gpxtpx:TrackPointExtension xmlns:gpxtpx="http://www.garmin.com/xmlschemas/TrackPointExtension/v1">
            <gpxtpx:hr>119</gpxtpx:hr>
          </gpxtpx:TrackPointExtension>
        </extensions>
      </trkpt>
      <trkpt lat="48.59401" lon="1.97731">
        <ele>161.2</ele>
        <time>2025-11-16T11:13:29Z</time>
        <extensions>
          <gpxtpx:TrackPointExtension xmlns:gpxtpx="http://www.garmin.com/xmlschemas/TrackPointExtension/v1">
            <gpxtpx:hr>118</gpxtpx:hr>
          </gpxtpx:TrackPointExtension>
        </extensions>
      </trkpt>
      <trkpt lat="48.59403" lon="1.97733">
        <ele>161.4</ele>
        <time>2025-11-16T11:13:30Z</time>
        <extensions>
          <gpxtpx:TrackPointExtension xmlns:gpxtpx="http://www.garmin.com/xmlschemas/TrackPointExtension/v1">
            <gpxtpx:hr>118</gpxtpx:hr>
          </gpxtpx:TrackPointExtension>
        </extensions>
      </trkpt>
      <trkpt lat="48.59405" lon="1.97734">
        <ele>161.4</ele>
        <time>2025-11-16T11:13:31Z</time>
        <extensions>
          <gpxtpx:TrackPointExtension xmlns:gpxtpx="http://www.garmin.com/xmlschemas/TrackPointExtension/v1">
            <gpxtpx:hr>118</gpxtpx:hr>
          </gpxtpx:TrackPointExtension>
        </extensions>
      </trkpt>
      <trkpt lat="48.59407" lon="1.97735">
        <ele>161.4</ele>
        <time>2025-11-16T11:13:32Z</time>
        <extensions>
          <gpxtpx:TrackPointExtension xmlns:gpxtpx="http://www.garmin.com/xmlschemas/TrackPointExtension/v1">
            <gpxtpx:hr>118</gpxtpx:hr>
          </gpxtpx:TrackPointExtension>
        </extensions>
      </trkpt>
      <trkpt lat="48.5941" lon="1.97736">
        <ele>161.6</ele>
        <time>2025-11-16T11:13:33Z</time>
        <extensions>
          <gpxtpx:TrackPointExtension xmlns:gpxtpx="http://www.garmin.com/xmlschemas/TrackPointExtension/v1">
            <gpxtpx:hr>118</gpxtpx:hr>
          </gpxtpx:TrackPointExtension>
        </extensions>
      </trkpt>
      <trkpt lat="48.59412" lon="1.97737">
        <ele>161.6</ele>
        <time>2025-11-16T11:13:34Z</time>
        <extensions>
          <gpxtpx:TrackPointExtension xmlns:gpxtpx="http://www.garmin.com/xmlschemas/TrackPointExtension/v1">
            <gpxtpx:hr>118</gpxtpx:hr>
          </gpxtpx:TrackPointExtension>
        </extensions>
      </trkpt>
      <trkpt lat="48.59415" lon="1.97737">
        <ele>161.6</ele>
        <time>2025-11-16T11:13:35Z</time>
        <extensions>
          <gpxtpx:TrackPointExtension xmlns:gpxtpx="http://www.garmin.com/xmlschemas/TrackPointExtension/v1">
            <gpxtpx:hr>118</gpxtpx:hr>
          </gpxtpx:TrackPointExtension>
        </extensions>
      </trkpt>
      <trkpt lat="48.59417" lon="1.97738">
        <ele>161.6</ele>
        <time>2025-11-16T11:13:36Z</time>
        <extensions>
          <gpxtpx:TrackPointExtension xmlns:gpxtpx="http://www.garmin.com/xmlschemas/TrackPointExtension/v1">
            <gpxtpx:hr>117</gpxtpx:hr>
          </gpxtpx:TrackPointExtension>
        </extensions>
      </trkpt>
      <trkpt lat="48.59419" lon="1.97738">
        <ele>161.8</ele>
        <time>2025-11-16T11:13:37Z</time>
        <extensions>
          <gpxtpx:TrackPointExtension xmlns:gpxtpx="http://www.garmin.com/xmlschemas/TrackPointExtension/v1">
            <gpxtpx:hr>117</gpxtpx:hr>
          </gpxtpx:TrackPointExtension>
        </extensions>
      </trkpt>
      <trkpt lat="48.59421" lon="1.97738">
        <ele>161.8</ele>
        <time>2025-11-16T11:13:38Z</time>
        <extensions>
          <gpxtpx:TrackPointExtension xmlns:gpxtpx="http://www.garmin.com/xmlschemas/TrackPointExtension/v1">
            <gpxtpx:hr>117</gpxtpx:hr>
          </gpxtpx:TrackPointExtension>
        </extensions>
      </trkpt>
      <trkpt lat="48.59424" lon="1.97738">
        <ele>161.8</ele>
        <time>2025-11-16T11:13:39Z</time>
        <extensions>
          <gpxtpx:TrackPointExtension xmlns:gpxtpx="http://www.garmin.com/xmlschemas/TrackPointExtension/v1">
            <gpxtpx:hr>117</gpxtpx:hr>
          </gpxtpx:TrackPointExtension>
        </extensions>
      </trkpt>
      <trkpt lat="48.59426" lon="1.97737">
        <ele>161.8</ele>
        <time>2025-11-16T11:13:40Z</time>
        <extensions>
          <gpxtpx:TrackPointExtension xmlns:gpxtpx="http://www.garmin.com/xmlschemas/TrackPointExtension/v1">
            <gpxtpx:hr>117</gpxtpx:hr>
          </gpxtpx:TrackPointExtension>
        </extensions>
      </trkpt>
      <trkpt lat="48.59428" lon="1.97736">
        <ele>161.8</ele>
        <time>2025-11-16T11:13:41Z</time>
        <extensions>
          <gpxtpx:TrackPointExtension xmlns:gpxtpx="http://www.garmin.com/xmlschemas/TrackPointExtension/v1">
            <gpxtpx:hr>117</gpxtpx:hr>
          </gpxtpx:TrackPointExtension>
        </extensions>
      </trkpt>
      <trkpt lat="48.59431" lon="1.97733">
        <ele>161.8</ele>
        <time>2025-11-16T11:13:43Z</time>
        <extensions>
          <gpxtpx:TrackPointExtension xmlns:gpxtpx="http://www.garmin.com/xmlschemas/TrackPointExtension/v1">
            <gpxtpx:hr>117</gpxtpx:hr>
          </gpxtpx:TrackPointExtension>
        </extensions>
      </trkpt>
      <trkpt lat="48.59432" lon="1.97732">
        <ele>161.8</ele>
        <time>2025-11-16T11:13:44Z</time>
        <extensions>
          <gpxtpx:TrackPointExtension xmlns:gpxtpx="http://www.garmin.com/xmlschemas/TrackPointExtension/v1">
            <gpxtpx:hr>117</gpxtpx:hr>
          </gpxtpx:TrackPointExtension>
        </extensions>
      </trkpt>
      <trkpt lat="48.59435" lon="1.97728">
        <ele>161.8</ele>
        <time>2025-11-16T11:13:46Z</time>
        <extensions>
          <gpxtpx:TrackPointExtension xmlns:gpxtpx="http://www.garmin.com/xmlschemas/TrackPointExtension/v1">
            <gpxtpx:hr>117</gpxtpx:hr>
          </gpxtpx:TrackPointExtension>
        </extensions>
      </trkpt>
      <trkpt lat="48.59436" lon="1.97724">
        <ele>161.8</ele>
        <time>2025-11-16T11:13:48Z</time>
        <extensions>
          <gpxtpx:TrackPointExtension xmlns:gpxtpx="http://www.garmin.com/xmlschemas/TrackPointExtension/v1">
            <gpxtpx:hr>117</gpxtpx:hr>
          </gpxtpx:TrackPointExtension>
        </extensions>
      </trkpt>
      <trkpt lat="48.59435" lon="1.9772">
        <ele>162</ele>
        <time>2025-11-16T11:13:50Z</time>
        <extensions>
          <gpxtpx:TrackPointExtension xmlns:gpxtpx="http://www.garmin.com/xmlschemas/TrackPointExtension/v1">
            <gpxtpx:hr>117</gpxtpx:hr>
          </gpxtpx:TrackPointExtension>
        </extensions>
      </trkpt>
      <trkpt lat="48.59434" lon="1.97715">
        <ele>162</ele>
        <time>2025-11-16T11:13:52Z</time>
        <extensions>
          <gpxtpx:TrackPointExtension xmlns:gpxtpx="http://www.garmin.com/xmlschemas/TrackPointExtension/v1">
            <gpxtpx:hr>117</gpxtpx:hr>
          </gpxtpx:TrackPointExtension>
        </extensions>
      </trkpt>
      <trkpt lat="48.59432" lon="1.97711">
        <ele>162.2</ele>
        <time>2025-11-16T11:13:54Z</time>
        <extensions>
          <gpxtpx:TrackPointExtension xmlns:gpxtpx="http://www.garmin.com/xmlschemas/TrackPointExtension/v1">
            <gpxtpx:hr>117</gpxtpx:hr>
          </gpxtpx:TrackPointExtension>
        </extensions>
      </trkpt>
      <trkpt lat="48.59431" lon="1.97707">
        <ele>162.4</ele>
        <time>2025-11-16T11:13:56Z</time>
        <extensions>
          <gpxtpx:TrackPointExtension xmlns:gpxtpx="http://www.garmin.com/xmlschemas/TrackPointExtension/v1">
            <gpxtpx:hr>117</gpxtpx:hr>
          </gpxtpx:TrackPointExtension>
        </extensions>
      </trkpt>
      <trkpt lat="48.59429" lon="1.97703">
        <ele>162.4</ele>
        <time>2025-11-16T11:13:58Z</time>
        <extensions>
          <gpxtpx:TrackPointExtension xmlns:gpxtpx="http://www.garmin.com/xmlschemas/TrackPointExtension/v1">
            <gpxtpx:hr>117</gpxtpx:hr>
          </gpxtpx:TrackPointExtension>
        </extensions>
      </trkpt>
      <trkpt lat="48.59429" lon="1.97699">
        <ele>162.4</ele>
        <time>2025-11-16T11:14:00Z</time>
        <extensions>
          <gpxtpx:TrackPointExtension xmlns:gpxtpx="http://www.garmin.com/xmlschemas/TrackPointExtension/v1">
            <gpxtpx:hr>117</gpxtpx:hr>
          </gpxtpx:TrackPointExtension>
        </extensions>
      </trkpt>
      <trkpt lat="48.59429" lon="1.97694">
        <ele>162.4</ele>
        <time>2025-11-16T11:14:02Z</time>
        <extensions>
          <gpxtpx:TrackPointExtension xmlns:gpxtpx="http://www.garmin.com/xmlschemas/TrackPointExtension/v1">
            <gpxtpx:hr>117</gpxtpx:hr>
          </gpxtpx:TrackPointExtension>
        </extensions>
      </trkpt>
      <trkpt lat="48.59429" lon="1.9769">
        <ele>162.4</ele>
        <time>2025-11-16T11:14:04Z</time>
        <extensions>
          <gpxtpx:TrackPointExtension xmlns:gpxtpx="http://www.garmin.com/xmlschemas/TrackPointExtension/v1">
            <gpxtpx:hr>117</gpxtpx:hr>
          </gpxtpx:TrackPointExtension>
        </extensions>
      </trkpt>
      <trkpt lat="48.59429" lon="1.97685">
        <ele>162.4</ele>
        <time>2025-11-16T11:14:06Z</time>
        <extensions>
          <gpxtpx:TrackPointExtension xmlns:gpxtpx="http://www.garmin.com/xmlschemas/TrackPointExtension/v1">
            <gpxtpx:hr>117</gpxtpx:hr>
          </gpxtpx:TrackPointExtension>
        </extensions>
      </trkpt>
      <trkpt lat="48.59429" lon="1.9768">
        <ele>162.4</ele>
        <time>2025-11-16T11:14:08Z</time>
        <extensions>
          <gpxtpx:TrackPointExtension xmlns:gpxtpx="http://www.garmin.com/xmlschemas/TrackPointExtension/v1">
            <gpxtpx:hr>116</gpxtpx:hr>
          </gpxtpx:TrackPointExtension>
        </extensions>
      </trkpt>
      <trkpt lat="48.59429" lon="1.97675">
        <ele>162.4</ele>
        <time>2025-11-16T11:14:10Z</time>
        <extensions>
          <gpxtpx:TrackPointExtension xmlns:gpxtpx="http://www.garmin.com/xmlschemas/TrackPointExtension/v1">
            <gpxtpx:hr>116</gpxtpx:hr>
          </gpxtpx:TrackPointExtension>
        </extensions>
      </trkpt>
      <trkpt lat="48.5943" lon="1.9767">
        <ele>162.2</ele>
        <time>2025-11-16T11:14:12Z</time>
        <extensions>
          <gpxtpx:TrackPointExtension xmlns:gpxtpx="http://www.garmin.com/xmlschemas/TrackPointExtension/v1">
            <gpxtpx:hr>115</gpxtpx:hr>
          </gpxtpx:TrackPointExtension>
        </extensions>
      </trkpt>
      <trkpt lat="48.5943" lon="1.97666">
        <ele>162.2</ele>
        <time>2025-11-16T11:14:14Z</time>
        <extensions>
          <gpxtpx:TrackPointExtension xmlns:gpxtpx="http://www.garmin.com/xmlschemas/TrackPointExtension/v1">
            <gpxtpx:hr>115</gpxtpx:hr>
          </gpxtpx:TrackPointExtension>
        </extensions>
      </trkpt>
      <trkpt lat="48.5943" lon="1.97662">
        <ele>162</ele>
        <time>2025-11-16T11:14:16Z</time>
        <extensions>
          <gpxtpx:TrackPointExtension xmlns:gpxtpx="http://www.garmin.com/xmlschemas/TrackPointExtension/v1">
            <gpxtpx:hr>114</gpxtpx:hr>
          </gpxtpx:TrackPointExtension>
        </extensions>
      </trkpt>
      <trkpt lat="48.5943" lon="1.97658">
        <ele>161.8</ele>
        <time>2025-11-16T11:14:18Z</time>
        <extensions>
          <gpxtpx:TrackPointExtension xmlns:gpxtpx="http://www.garmin.com/xmlschemas/TrackPointExtension/v1">
            <gpxtpx:hr>114</gpxtpx:hr>
          </gpxtpx:TrackPointExtension>
        </extensions>
      </trkpt>
      <trkpt lat="48.5943" lon="1.97653">
        <ele>161.6</ele>
        <time>2025-11-16T11:14:20Z</time>
        <extensions>
          <gpxtpx:TrackPointExtension xmlns:gpxtpx="http://www.garmin.com/xmlschemas/TrackPointExtension/v1">
            <gpxtpx:hr>114</gpxtpx:hr>
          </gpxtpx:TrackPointExtension>
        </extensions>
      </trkpt>
      <trkpt lat="48.59431" lon="1.97648">
        <ele>161.4</ele>
        <time>2025-11-16T11:14:22Z</time>
        <extensions>
          <gpxtpx:TrackPointExtension xmlns:gpxtpx="http://www.garmin.com/xmlschemas/TrackPointExtension/v1">
            <gpxtpx:hr>114</gpxtpx:hr>
          </gpxtpx:TrackPointExtension>
        </extensions>
      </trkpt>
      <trkpt lat="48.59431" lon="1.97644">
        <ele>161.4</ele>
        <time>2025-11-16T11:14:24Z</time>
        <extensions>
          <gpxtpx:TrackPointExtension xmlns:gpxtpx="http://www.garmin.com/xmlschemas/TrackPointExtension/v1">
            <gpxtpx:hr>114</gpxtpx:hr>
          </gpxtpx:TrackPointExtension>
        </extensions>
      </trkpt>
      <trkpt lat="48.59431" lon="1.97639">
        <ele>161.4</ele>
        <time>2025-11-16T11:14:26Z</time>
        <extensions>
          <gpxtpx:TrackPointExtension xmlns:gpxtpx="http://www.garmin.com/xmlschemas/TrackPointExtension/v1">
            <gpxtpx:hr>114</gpxtpx:hr>
          </gpxtpx:TrackPointExtension>
        </extensions>
      </trkpt>
      <trkpt lat="48.59432" lon="1.97635">
        <ele>161.2</ele>
        <time>2025-11-16T11:14:28Z</time>
        <extensions>
          <gpxtpx:TrackPointExtension xmlns:gpxtpx="http://www.garmin.com/xmlschemas/TrackPointExtension/v1">
            <gpxtpx:hr>114</gpxtpx:hr>
          </gpxtpx:TrackPointExtension>
        </extensions>
      </trkpt>
      <trkpt lat="48.59432" lon="1.9763">
        <ele>161</ele>
        <time>2025-11-16T11:14:30Z</time>
        <extensions>
          <gpxtpx:TrackPointExtension xmlns:gpxtpx="http://www.garmin.com/xmlschemas/TrackPointExtension/v1">
            <gpxtpx:hr>114</gpxtpx:hr>
          </gpxtpx:TrackPointExtension>
        </extensions>
      </trkpt>
      <trkpt lat="48.59431" lon="1.97626">
        <ele>160.8</ele>
        <time>2025-11-16T11:14:32Z</time>
        <extensions>
          <gpxtpx:TrackPointExtension xmlns:gpxtpx="http://www.garmin.com/xmlschemas/TrackPointExtension/v1">
            <gpxtpx:hr>114</gpxtpx:hr>
          </gpxtpx:TrackPointExtension>
        </extensions>
      </trkpt>
      <trkpt lat="48.59431" lon="1.97622">
        <ele>160.8</ele>
        <time>2025-11-16T11:14:34Z</time>
        <extensions>
          <gpxtpx:TrackPointExtension xmlns:gpxtpx="http://www.garmin.com/xmlschemas/TrackPointExtension/v1">
            <gpxtpx:hr>114</gpxtpx:hr>
          </gpxtpx:TrackPointExtension>
        </extensions>
      </trkpt>
      <trkpt lat="48.59432" lon="1.97617">
        <ele>160.6</ele>
        <time>2025-11-16T11:14:36Z</time>
        <extensions>
          <gpxtpx:TrackPointExtension xmlns:gpxtpx="http://www.garmin.com/xmlschemas/TrackPointExtension/v1">
            <gpxtpx:hr>114</gpxtpx:hr>
          </gpxtpx:TrackPointExtension>
        </extensions>
      </trkpt>
      <trkpt lat="48.59432" lon="1.97613">
        <ele>160.6</ele>
        <time>2025-11-16T11:14:38Z</time>
        <extensions>
          <gpxtpx:TrackPointExtension xmlns:gpxtpx="http://www.garmin.com/xmlschemas/TrackPointExtension/v1">
            <gpxtpx:hr>114</gpxtpx:hr>
          </gpxtpx:TrackPointExtension>
        </extensions>
      </trkpt>
      <trkpt lat="48.59433" lon="1.97608">
        <ele>160.4</ele>
        <time>2025-11-16T11:14:40Z</time>
        <extensions>
          <gpxtpx:TrackPointExtension xmlns:gpxtpx="http://www.garmin.com/xmlschemas/TrackPointExtension/v1">
            <gpxtpx:hr>114</gpxtpx:hr>
          </gpxtpx:TrackPointExtension>
        </extensions>
      </trkpt>
      <trkpt lat="48.59433" lon="1.97603">
        <ele>160.2</ele>
        <time>2025-11-16T11:14:42Z</time>
        <extensions>
          <gpxtpx:TrackPointExtension xmlns:gpxtpx="http://www.garmin.com/xmlschemas/TrackPointExtension/v1">
            <gpxtpx:hr>114</gpxtpx:hr>
          </gpxtpx:TrackPointExtension>
        </extensions>
      </trkpt>
      <trkpt lat="48.59434" lon="1.97599">
        <ele>160</ele>
        <time>2025-11-16T11:14:44Z</time>
        <extensions>
          <gpxtpx:TrackPointExtension xmlns:gpxtpx="http://www.garmin.com/xmlschemas/TrackPointExtension/v1">
            <gpxtpx:hr>114</gpxtpx:hr>
          </gpxtpx:TrackPointExtension>
        </extensions>
      </trkpt>
      <trkpt lat="48.59435" lon="1.97594">
        <ele>160</ele>
        <time>2025-11-16T11:14:46Z</time>
        <extensions>
          <gpxtpx:TrackPointExtension xmlns:gpxtpx="http://www.garmin.com/xmlschemas/TrackPointExtension/v1">
            <gpxtpx:hr>114</gpxtpx:hr>
          </gpxtpx:TrackPointExtension>
        </extensions>
      </trkpt>
      <trkpt lat="48.59436" lon="1.97589">
        <ele>159.8</ele>
        <time>2025-11-16T11:14:48Z</time>
        <extensions>
          <gpxtpx:TrackPointExtension xmlns:gpxtpx="http://www.garmin.com/xmlschemas/TrackPointExtension/v1">
            <gpxtpx:hr>114</gpxtpx:hr>
          </gpxtpx:TrackPointExtension>
        </extensions>
      </trkpt>
      <trkpt lat="48.59438" lon="1.97585">
        <ele>159.6</ele>
        <time>2025-11-16T11:14:50Z</time>
        <extensions>
          <gpxtpx:TrackPointExtension xmlns:gpxtpx="http://www.garmin.com/xmlschemas/TrackPointExtension/v1">
            <gpxtpx:hr>114</gpxtpx:hr>
          </gpxtpx:TrackPointExtension>
        </extensions>
      </trkpt>
      <trkpt lat="48.59439" lon="1.9758">
        <ele>159.6</ele>
        <time>2025-11-16T11:14:52Z</time>
        <extensions>
          <gpxtpx:TrackPointExtension xmlns:gpxtpx="http://www.garmin.com/xmlschemas/TrackPointExtension/v1">
            <gpxtpx:hr>114</gpxtpx:hr>
          </gpxtpx:TrackPointExtension>
        </extensions>
      </trkpt>
      <trkpt lat="48.59441" lon="1.97576">
        <ele>159.4</ele>
        <time>2025-11-16T11:14:54Z</time>
        <extensions>
          <gpxtpx:TrackPointExtension xmlns:gpxtpx="http://www.garmin.com/xmlschemas/TrackPointExtension/v1">
            <gpxtpx:hr>114</gpxtpx:hr>
          </gpxtpx:TrackPointExtension>
        </extensions>
      </trkpt>
      <trkpt lat="48.59443" lon="1.97572">
        <ele>159</ele>
        <time>2025-11-16T11:14:56Z</time>
        <extensions>
          <gpxtpx:TrackPointExtension xmlns:gpxtpx="http://www.garmin.com/xmlschemas/TrackPointExtension/v1">
            <gpxtpx:hr>114</gpxtpx:hr>
          </gpxtpx:TrackPointExtension>
        </extensions>
      </trkpt>
      <trkpt lat="48.59445" lon="1.97568">
        <ele>158.8</ele>
        <time>2025-11-16T11:14:58Z</time>
        <extensions>
          <gpxtpx:TrackPointExtension xmlns:gpxtpx="http://www.garmin.com/xmlschemas/TrackPointExtension/v1">
            <gpxtpx:hr>114</gpxtpx:hr>
          </gpxtpx:TrackPointExtension>
        </extensions>
      </trkpt>
      <trkpt lat="48.59446" lon="1.97563">
        <ele>158.4</ele>
        <time>2025-11-16T11:15:00Z</time>
        <extensions>
          <gpxtpx:TrackPointExtension xmlns:gpxtpx="http://www.garmin.com/xmlschemas/TrackPointExtension/v1">
            <gpxtpx:hr>113</gpxtpx:hr>
          </gpxtpx:TrackPointExtension>
        </extensions>
      </trkpt>
      <trkpt lat="48.59448" lon="1.97559">
        <ele>158</ele>
        <time>2025-11-16T11:15:02Z</time>
        <extensions>
          <gpxtpx:TrackPointExtension xmlns:gpxtpx="http://www.garmin.com/xmlschemas/TrackPointExtension/v1">
            <gpxtpx:hr>113</gpxtpx:hr>
          </gpxtpx:TrackPointExtension>
        </extensions>
      </trkpt>
      <trkpt lat="48.5945" lon="1.97555">
        <ele>157.6</ele>
        <time>2025-11-16T11:15:04Z</time>
        <extensions>
          <gpxtpx:TrackPointExtension xmlns:gpxtpx="http://www.garmin.com/xmlschemas/TrackPointExtension/v1">
            <gpxtpx:hr>113</gpxtpx:hr>
          </gpxtpx:TrackPointExtension>
        </extensions>
      </trkpt>
      <trkpt lat="48.59451" lon="1.97553">
        <ele>157.4</ele>
        <time>2025-11-16T11:15:05Z</time>
        <extensions>
          <gpxtpx:TrackPointExtension xmlns:gpxtpx="http://www.garmin.com/xmlschemas/TrackPointExtension/v1">
            <gpxtpx:hr>113</gpxtpx:hr>
          </gpxtpx:TrackPointExtension>
        </extensions>
      </trkpt>
      <trkpt lat="48.59454" lon="1.97549">
        <ele>157</ele>
        <time>2025-11-16T11:15:07Z</time>
        <extensions>
          <gpxtpx:TrackPointExtension xmlns:gpxtpx="http://www.garmin.com/xmlschemas/TrackPointExtension/v1">
            <gpxtpx:hr>113</gpxtpx:hr>
          </gpxtpx:TrackPointExtension>
        </extensions>
      </trkpt>
      <trkpt lat="48.59457" lon="1.97546">
        <ele>156.4</ele>
        <time>2025-11-16T11:15:09Z</time>
        <extensions>
          <gpxtpx:TrackPointExtension xmlns:gpxtpx="http://www.garmin.com/xmlschemas/TrackPointExtension/v1">
            <gpxtpx:hr>113</gpxtpx:hr>
          </gpxtpx:TrackPointExtension>
        </extensions>
      </trkpt>
      <trkpt lat="48.59459" lon="1.97543">
        <ele>156</ele>
        <time>2025-11-16T11:15:11Z</time>
        <extensions>
          <gpxtpx:TrackPointExtension xmlns:gpxtpx="http://www.garmin.com/xmlschemas/TrackPointExtension/v1">
            <gpxtpx:hr>113</gpxtpx:hr>
          </gpxtpx:TrackPointExtension>
        </extensions>
      </trkpt>
      <trkpt lat="48.59461" lon="1.9754">
        <ele>155.6</ele>
        <time>2025-11-16T11:15:13Z</time>
        <extensions>
          <gpxtpx:TrackPointExtension xmlns:gpxtpx="http://www.garmin.com/xmlschemas/TrackPointExtension/v1">
            <gpxtpx:hr>113</gpxtpx:hr>
          </gpxtpx:TrackPointExtension>
        </extensions>
      </trkpt>
      <trkpt lat="48.59463" lon="1.97538">
        <ele>155.4</ele>
        <time>2025-11-16T11:15:14Z</time>
        <extensions>
          <gpxtpx:TrackPointExtension xmlns:gpxtpx="http://www.garmin.com/xmlschemas/TrackPointExtension/v1">
            <gpxtpx:hr>113</gpxtpx:hr>
          </gpxtpx:TrackPointExtension>
        </extensions>
      </trkpt>
      <trkpt lat="48.59465" lon="1.97535">
        <ele>155</ele>
        <time>2025-11-16T11:15:16Z</time>
        <extensions>
          <gpxtpx:TrackPointExtension xmlns:gpxtpx="http://www.garmin.com/xmlschemas/TrackPointExtension/v1">
            <gpxtpx:hr>113</gpxtpx:hr>
          </gpxtpx:TrackPointExtension>
        </extensions>
      </trkpt>
      <trkpt lat="48.59467" lon="1.97531">
        <ele>154.8</ele>
        <time>2025-11-16T11:15:18Z</time>
        <extensions>
          <gpxtpx:TrackPointExtension xmlns:gpxtpx="http://www.garmin.com/xmlschemas/TrackPointExtension/v1">
            <gpxtpx:hr>114</gpxtpx:hr>
          </gpxtpx:TrackPointExtension>
        </extensions>
      </trkpt>
      <trkpt lat="48.59469" lon="1.97527">
        <ele>154.8</ele>
        <time>2025-11-16T11:15:20Z</time>
        <extensions>
          <gpxtpx:TrackPointExtension xmlns:gpxtpx="http://www.garmin.com/xmlschemas/TrackPointExtension/v1">
            <gpxtpx:hr>115</gpxtpx:hr>
          </gpxtpx:TrackPointExtension>
        </extensions>
      </trkpt>
      <trkpt lat="48.5947" lon="1.97522">
        <ele>154.6</ele>
        <time>2025-11-16T11:15:22Z</time>
        <extensions>
          <gpxtpx:TrackPointExtension xmlns:gpxtpx="http://www.garmin.com/xmlschemas/TrackPointExtension/v1">
            <gpxtpx:hr>116</gpxtpx:hr>
          </gpxtpx:TrackPointExtension>
        </extensions>
      </trkpt>
      <trkpt lat="48.59471" lon="1.97518">
        <ele>154.4</ele>
        <time>2025-11-16T11:15:24Z</time>
        <extensions>
          <gpxtpx:TrackPointExtension xmlns:gpxtpx="http://www.garmin.com/xmlschemas/TrackPointExtension/v1">
            <gpxtpx:hr>118</gpxtpx:hr>
          </gpxtpx:TrackPointExtension>
        </extensions>
      </trkpt>
      <trkpt lat="48.59472" lon="1.97514">
        <ele>154.4</ele>
        <time>2025-11-16T11:15:26Z</time>
        <extensions>
          <gpxtpx:TrackPointExtension xmlns:gpxtpx="http://www.garmin.com/xmlschemas/TrackPointExtension/v1">
            <gpxtpx:hr>122</gpxtpx:hr>
          </gpxtpx:TrackPointExtension>
        </extensions>
      </trkpt>
      <trkpt lat="48.59473" lon="1.97509">
        <ele>154.4</ele>
        <time>2025-11-16T11:15:28Z</time>
        <extensions>
          <gpxtpx:TrackPointExtension xmlns:gpxtpx="http://www.garmin.com/xmlschemas/TrackPointExtension/v1">
            <gpxtpx:hr>123</gpxtpx:hr>
          </gpxtpx:TrackPointExtension>
        </extensions>
      </trkpt>
      <trkpt lat="48.59474" lon="1.97505">
        <ele>154.4</ele>
        <time>2025-11-16T11:15:30Z</time>
        <extensions>
          <gpxtpx:TrackPointExtension xmlns:gpxtpx="http://www.garmin.com/xmlschemas/TrackPointExtension/v1">
            <gpxtpx:hr>124</gpxtpx:hr>
          </gpxtpx:TrackPointExtension>
        </extensions>
      </trkpt>
      <trkpt lat="48.59474" lon="1.97501">
        <ele>154.4</ele>
        <time>2025-11-16T11:15:32Z</time>
        <extensions>
          <gpxtpx:TrackPointExtension xmlns:gpxtpx="http://www.garmin.com/xmlschemas/TrackPointExtension/v1">
            <gpxtpx:hr>125</gpxtpx:hr>
          </gpxtpx:TrackPointExtension>
        </extensions>
      </trkpt>
      <trkpt lat="48.59473" lon="1.97498">
        <ele>154.4</ele>
        <time>2025-11-16T11:15:34Z</time>
        <extensions>
          <gpxtpx:TrackPointExtension xmlns:gpxtpx="http://www.garmin.com/xmlschemas/TrackPointExtension/v1">
            <gpxtpx:hr>125</gpxtpx:hr>
          </gpxtpx:TrackPointExtension>
        </extensions>
      </trkpt>
      <trkpt lat="48.59472" lon="1.97494">
        <ele>154.4</ele>
        <time>2025-11-16T11:15:36Z</time>
        <extensions>
          <gpxtpx:TrackPointExtension xmlns:gpxtpx="http://www.garmin.com/xmlschemas/TrackPointExtension/v1">
            <gpxtpx:hr>125</gpxtpx:hr>
          </gpxtpx:TrackPointExtension>
        </extensions>
      </trkpt>
      <trkpt lat="48.5947" lon="1.9749">
        <ele>154.6</ele>
        <time>2025-11-16T11:15:38Z</time>
        <extensions>
          <gpxtpx:TrackPointExtension xmlns:gpxtpx="http://www.garmin.com/xmlschemas/TrackPointExtension/v1">
            <gpxtpx:hr>127</gpxtpx:hr>
          </gpxtpx:TrackPointExtension>
        </extensions>
      </trkpt>
      <trkpt lat="48.59469" lon="1.97486">
        <ele>154.6</ele>
        <time>2025-11-16T11:15:40Z</time>
        <extensions>
          <gpxtpx:TrackPointExtension xmlns:gpxtpx="http://www.garmin.com/xmlschemas/TrackPointExtension/v1">
            <gpxtpx:hr>128</gpxtpx:hr>
          </gpxtpx:TrackPointExtension>
        </extensions>
      </trkpt>
      <trkpt lat="48.59469" lon="1.97483">
        <ele>154.8</ele>
        <time>2025-11-16T11:15:41Z</time>
        <extensions>
          <gpxtpx:TrackPointExtension xmlns:gpxtpx="http://www.garmin.com/xmlschemas/TrackPointExtension/v1">
            <gpxtpx:hr>128</gpxtpx:hr>
          </gpxtpx:TrackPointExtension>
        </extensions>
      </trkpt>
      <trkpt lat="48.59468" lon="1.9748">
        <ele>154.8</ele>
        <time>2025-11-16T11:15:42Z</time>
        <extensions>
          <gpxtpx:TrackPointExtension xmlns:gpxtpx="http://www.garmin.com/xmlschemas/TrackPointExtension/v1">
            <gpxtpx:hr>128</gpxtpx:hr>
          </gpxtpx:TrackPointExtension>
        </extensions>
      </trkpt>
      <trkpt lat="48.59468" lon="1.97477">
        <ele>154.8</ele>
        <time>2025-11-16T11:15:43Z</time>
        <extensions>
          <gpxtpx:TrackPointExtension xmlns:gpxtpx="http://www.garmin.com/xmlschemas/TrackPointExtension/v1">
            <gpxtpx:hr>128</gpxtpx:hr>
          </gpxtpx:TrackPointExtension>
        </extensions>
      </trkpt>
      <trkpt lat="48.59467" lon="1.97475">
        <ele>154.8</ele>
        <time>2025-11-16T11:15:44Z</time>
        <extensions>
          <gpxtpx:TrackPointExtension xmlns:gpxtpx="http://www.garmin.com/xmlschemas/TrackPointExtension/v1">
            <gpxtpx:hr>128</gpxtpx:hr>
          </gpxtpx:TrackPointExtension>
        </extensions>
      </trkpt>
      <trkpt lat="48.59467" lon="1.9747">
        <ele>154.8</ele>
        <time>2025-11-16T11:15:46Z</time>
        <extensions>
          <gpxtpx:TrackPointExtension xmlns:gpxtpx="http://www.garmin.com/xmlschemas/TrackPointExtension/v1">
            <gpxtpx:hr>128</gpxtpx:hr>
          </gpxtpx:TrackPointExtension>
        </extensions>
      </trkpt>
      <trkpt lat="48.59467" lon="1.97465">
        <ele>154.8</ele>
        <time>2025-11-16T11:15:48Z</time>
        <extensions>
          <gpxtpx:TrackPointExtension xmlns:gpxtpx="http://www.garmin.com/xmlschemas/TrackPointExtension/v1">
            <gpxtpx:hr>128</gpxtpx:hr>
          </gpxtpx:TrackPointExtension>
        </extensions>
      </trkpt>
      <trkpt lat="48.59467" lon="1.9746">
        <ele>154.8</ele>
        <time>2025-11-16T11:15:50Z</time>
        <extensions>
          <gpxtpx:TrackPointExtension xmlns:gpxtpx="http://www.garmin.com/xmlschemas/TrackPointExtension/v1">
            <gpxtpx:hr>128</gpxtpx:hr>
          </gpxtpx:TrackPointExtension>
        </extensions>
      </trkpt>
      <trkpt lat="48.59468" lon="1.97455">
        <ele>154.8</ele>
        <time>2025-11-16T11:15:52Z</time>
        <extensions>
          <gpxtpx:TrackPointExtension xmlns:gpxtpx="http://www.garmin.com/xmlschemas/TrackPointExtension/v1">
            <gpxtpx:hr>128</gpxtpx:hr>
          </gpxtpx:TrackPointExtension>
        </extensions>
      </trkpt>
      <trkpt lat="48.59468" lon="1.97452">
        <ele>154.8</ele>
        <time>2025-11-16T11:15:53Z</time>
        <extensions>
          <gpxtpx:TrackPointExtension xmlns:gpxtpx="http://www.garmin.com/xmlschemas/TrackPointExtension/v1">
            <gpxtpx:hr>128</gpxtpx:hr>
          </gpxtpx:TrackPointExtension>
        </extensions>
      </trkpt>
      <trkpt lat="48.59469" lon="1.97449">
        <ele>154.6</ele>
        <time>2025-11-16T11:15:54Z</time>
        <extensions>
          <gpxtpx:TrackPointExtension xmlns:gpxtpx="http://www.garmin.com/xmlschemas/TrackPointExtension/v1">
            <gpxtpx:hr>128</gpxtpx:hr>
          </gpxtpx:TrackPointExtension>
        </extensions>
      </trkpt>
      <trkpt lat="48.59469" lon="1.97446">
        <ele>154.4</ele>
        <time>2025-11-16T11:15:55Z</time>
        <extensions>
          <gpxtpx:TrackPointExtension xmlns:gpxtpx="http://www.garmin.com/xmlschemas/TrackPointExtension/v1">
            <gpxtpx:hr>128</gpxtpx:hr>
          </gpxtpx:TrackPointExtension>
        </extensions>
      </trkpt>
      <trkpt lat="48.5947" lon="1.97444">
        <ele>154.2</ele>
        <time>2025-11-16T11:15:56Z</time>
        <extensions>
          <gpxtpx:TrackPointExtension xmlns:gpxtpx="http://www.garmin.com/xmlschemas/TrackPointExtension/v1">
            <gpxtpx:hr>129</gpxtpx:hr>
          </gpxtpx:TrackPointExtension>
        </extensions>
      </trkpt>
      <trkpt lat="48.5947" lon="1.97439">
        <ele>153.6</ele>
        <time>2025-11-16T11:15:58Z</time>
        <extensions>
          <gpxtpx:TrackPointExtension xmlns:gpxtpx="http://www.garmin.com/xmlschemas/TrackPointExtension/v1">
            <gpxtpx:hr>129</gpxtpx:hr>
          </gpxtpx:TrackPointExtension>
        </extensions>
      </trkpt>
      <trkpt lat="48.59471" lon="1.97434">
        <ele>153.2</ele>
        <time>2025-11-16T11:16:00Z</time>
        <extensions>
          <gpxtpx:TrackPointExtension xmlns:gpxtpx="http://www.garmin.com/xmlschemas/TrackPointExtension/v1">
            <gpxtpx:hr>129</gpxtpx:hr>
          </gpxtpx:TrackPointExtension>
        </extensions>
      </trkpt>
      <trkpt lat="48.59472" lon="1.97431">
        <ele>153</ele>
        <time>2025-11-16T11:16:01Z</time>
        <extensions>
          <gpxtpx:TrackPointExtension xmlns:gpxtpx="http://www.garmin.com/xmlschemas/TrackPointExtension/v1">
            <gpxtpx:hr>129</gpxtpx:hr>
          </gpxtpx:TrackPointExtension>
        </extensions>
      </trkpt>
      <trkpt lat="48.59474" lon="1.97427">
        <ele>152.4</ele>
        <time>2025-11-16T11:16:03Z</time>
        <extensions>
          <gpxtpx:TrackPointExtension xmlns:gpxtpx="http://www.garmin.com/xmlschemas/TrackPointExtension/v1">
            <gpxtpx:hr>129</gpxtpx:hr>
          </gpxtpx:TrackPointExtension>
        </extensions>
      </trkpt>
      <trkpt lat="48.59475" lon="1.97422">
        <ele>152</ele>
        <time>2025-11-16T11:16:05Z</time>
        <extensions>
          <gpxtpx:TrackPointExtension xmlns:gpxtpx="http://www.garmin.com/xmlschemas/TrackPointExtension/v1">
            <gpxtpx:hr>129</gpxtpx:hr>
          </gpxtpx:TrackPointExtension>
        </extensions>
      </trkpt>
      <trkpt lat="48.59476" lon="1.97417">
        <ele>151.6</ele>
        <time>2025-11-16T11:16:07Z</time>
        <extensions>
          <gpxtpx:TrackPointExtension xmlns:gpxtpx="http://www.garmin.com/xmlschemas/TrackPointExtension/v1">
            <gpxtpx:hr>129</gpxtpx:hr>
          </gpxtpx:TrackPointExtension>
        </extensions>
      </trkpt>
      <trkpt lat="48.59476" lon="1.97413">
        <ele>151.4</ele>
        <time>2025-11-16T11:16:09Z</time>
        <extensions>
          <gpxtpx:TrackPointExtension xmlns:gpxtpx="http://www.garmin.com/xmlschemas/TrackPointExtension/v1">
            <gpxtpx:hr>129</gpxtpx:hr>
          </gpxtpx:TrackPointExtension>
        </extensions>
      </trkpt>
      <trkpt lat="48.59475" lon="1.97408">
        <ele>151</ele>
        <time>2025-11-16T11:16:11Z</time>
        <extensions>
          <gpxtpx:TrackPointExtension xmlns:gpxtpx="http://www.garmin.com/xmlschemas/TrackPointExtension/v1">
            <gpxtpx:hr>129</gpxtpx:hr>
          </gpxtpx:TrackPointExtension>
        </extensions>
      </trkpt>
      <trkpt lat="48.59475" lon="1.97404">
        <ele>150.8</ele>
        <time>2025-11-16T11:16:13Z</time>
        <extensions>
          <gpxtpx:TrackPointExtension xmlns:gpxtpx="http://www.garmin.com/xmlschemas/TrackPointExtension/v1">
            <gpxtpx:hr>129</gpxtpx:hr>
          </gpxtpx:TrackPointExtension>
        </extensions>
      </trkpt>
      <trkpt lat="48.59474" lon="1.97399">
        <ele>150.6</ele>
        <time>2025-11-16T11:16:15Z</time>
        <extensions>
          <gpxtpx:TrackPointExtension xmlns:gpxtpx="http://www.garmin.com/xmlschemas/TrackPointExtension/v1">
            <gpxtpx:hr>128</gpxtpx:hr>
          </gpxtpx:TrackPointExtension>
        </extensions>
      </trkpt>
      <trkpt lat="48.59473" lon="1.97394">
        <ele>150.4</ele>
        <time>2025-11-16T11:16:17Z</time>
        <extensions>
          <gpxtpx:TrackPointExtension xmlns:gpxtpx="http://www.garmin.com/xmlschemas/TrackPointExtension/v1">
            <gpxtpx:hr>128</gpxtpx:hr>
          </gpxtpx:TrackPointExtension>
        </extensions>
      </trkpt>
      <trkpt lat="48.59473" lon="1.9739">
        <ele>150.2</ele>
        <time>2025-11-16T11:16:19Z</time>
        <extensions>
          <gpxtpx:TrackPointExtension xmlns:gpxtpx="http://www.garmin.com/xmlschemas/TrackPointExtension/v1">
            <gpxtpx:hr>128</gpxtpx:hr>
          </gpxtpx:TrackPointExtension>
        </extensions>
      </trkpt>
      <trkpt lat="48.59472" lon="1.97385">
        <ele>150</ele>
        <time>2025-11-16T11:16:21Z</time>
        <extensions>
          <gpxtpx:TrackPointExtension xmlns:gpxtpx="http://www.garmin.com/xmlschemas/TrackPointExtension/v1">
            <gpxtpx:hr>128</gpxtpx:hr>
          </gpxtpx:TrackPointExtension>
        </extensions>
      </trkpt>
      <trkpt lat="48.59471" lon="1.9738">
        <ele>149.8</ele>
        <time>2025-11-16T11:16:23Z</time>
        <extensions>
          <gpxtpx:TrackPointExtension xmlns:gpxtpx="http://www.garmin.com/xmlschemas/TrackPointExtension/v1">
            <gpxtpx:hr>128</gpxtpx:hr>
          </gpxtpx:TrackPointExtension>
        </extensions>
      </trkpt>
      <trkpt lat="48.59471" lon="1.97375">
        <ele>149.8</ele>
        <time>2025-11-16T11:16:25Z</time>
        <extensions>
          <gpxtpx:TrackPointExtension xmlns:gpxtpx="http://www.garmin.com/xmlschemas/TrackPointExtension/v1">
            <gpxtpx:hr>128</gpxtpx:hr>
          </gpxtpx:TrackPointExtension>
        </extensions>
      </trkpt>
      <trkpt lat="48.5947" lon="1.9737">
        <ele>149.6</ele>
        <time>2025-11-16T11:16:27Z</time>
        <extensions>
          <gpxtpx:TrackPointExtension xmlns:gpxtpx="http://www.garmin.com/xmlschemas/TrackPointExtension/v1">
            <gpxtpx:hr>128</gpxtpx:hr>
          </gpxtpx:TrackPointExtension>
        </extensions>
      </trkpt>
      <trkpt lat="48.59468" lon="1.97365">
        <ele>149.2</ele>
        <time>2025-11-16T11:16:29Z</time>
        <extensions>
          <gpxtpx:TrackPointExtension xmlns:gpxtpx="http://www.garmin.com/xmlschemas/TrackPointExtension/v1">
            <gpxtpx:hr>128</gpxtpx:hr>
          </gpxtpx:TrackPointExtension>
        </extensions>
      </trkpt>
      <trkpt lat="48.59467" lon="1.9736">
        <ele>148.8</ele>
        <time>2025-11-16T11:16:31Z</time>
        <extensions>
          <gpxtpx:TrackPointExtension xmlns:gpxtpx="http://www.garmin.com/xmlschemas/TrackPointExtension/v1">
            <gpxtpx:hr>128</gpxtpx:hr>
          </gpxtpx:TrackPointExtension>
        </extensions>
      </trkpt>
      <trkpt lat="48.59466" lon="1.97356">
        <ele>148.4</ele>
        <time>2025-11-16T11:16:33Z</time>
        <extensions>
          <gpxtpx:TrackPointExtension xmlns:gpxtpx="http://www.garmin.com/xmlschemas/TrackPointExtension/v1">
            <gpxtpx:hr>128</gpxtpx:hr>
          </gpxtpx:TrackPointExtension>
        </extensions>
      </trkpt>
      <trkpt lat="48.59465" lon="1.97351">
        <ele>148.2</ele>
        <time>2025-11-16T11:16:35Z</time>
        <extensions>
          <gpxtpx:TrackPointExtension xmlns:gpxtpx="http://www.garmin.com/xmlschemas/TrackPointExtension/v1">
            <gpxtpx:hr>128</gpxtpx:hr>
          </gpxtpx:TrackPointExtension>
        </extensions>
      </trkpt>
      <trkpt lat="48.59464" lon="1.97346">
        <ele>148</ele>
        <time>2025-11-16T11:16:37Z</time>
        <extensions>
          <gpxtpx:TrackPointExtension xmlns:gpxtpx="http://www.garmin.com/xmlschemas/TrackPointExtension/v1">
            <gpxtpx:hr>128</gpxtpx:hr>
          </gpxtpx:TrackPointExtension>
        </extensions>
      </trkpt>
      <trkpt lat="48.59463" lon="1.97343">
        <ele>148</ele>
        <time>2025-11-16T11:16:38Z</time>
        <extensions>
          <gpxtpx:TrackPointExtension xmlns:gpxtpx="http://www.garmin.com/xmlschemas/TrackPointExtension/v1">
            <gpxtpx:hr>128</gpxtpx:hr>
          </gpxtpx:TrackPointExtension>
        </extensions>
      </trkpt>
      <trkpt lat="48.59463" lon="1.97338">
        <ele>148</ele>
        <time>2025-11-16T11:16:40Z</time>
        <extensions>
          <gpxtpx:TrackPointExtension xmlns:gpxtpx="http://www.garmin.com/xmlschemas/TrackPointExtension/v1">
            <gpxtpx:hr>128</gpxtpx:hr>
          </gpxtpx:TrackPointExtension>
        </extensions>
      </trkpt>
      <trkpt lat="48.59462" lon="1.97333">
        <ele>148.2</ele>
        <time>2025-11-16T11:16:42Z</time>
        <extensions>
          <gpxtpx:TrackPointExtension xmlns:gpxtpx="http://www.garmin.com/xmlschemas/TrackPointExtension/v1">
            <gpxtpx:hr>129</gpxtpx:hr>
          </gpxtpx:TrackPointExtension>
        </extensions>
      </trkpt>
      <trkpt lat="48.59461" lon="1.97328">
        <ele>148.4</ele>
        <time>2025-11-16T11:16:44Z</time>
        <extensions>
          <gpxtpx:TrackPointExtension xmlns:gpxtpx="http://www.garmin.com/xmlschemas/TrackPointExtension/v1">
            <gpxtpx:hr>129</gpxtpx:hr>
          </gpxtpx:TrackPointExtension>
        </extensions>
      </trkpt>
      <trkpt lat="48.59461" lon="1.97325">
        <ele>148.4</ele>
        <time>2025-11-16T11:16:46Z</time>
        <extensions>
          <gpxtpx:TrackPointExtension xmlns:gpxtpx="http://www.garmin.com/xmlschemas/TrackPointExtension/v1">
            <gpxtpx:hr>130</gpxtpx:hr>
          </gpxtpx:TrackPointExtension>
        </extensions>
      </trkpt>
      <trkpt lat="48.59462" lon="1.97321">
        <ele>148.6</ele>
        <time>2025-11-16T11:16:48Z</time>
        <extensions>
          <gpxtpx:TrackPointExtension xmlns:gpxtpx="http://www.garmin.com/xmlschemas/TrackPointExtension/v1">
            <gpxtpx:hr>129</gpxtpx:hr>
          </gpxtpx:TrackPointExtension>
        </extensions>
      </trkpt>
      <trkpt lat="48.59463" lon="1.97317">
        <ele>148.6</ele>
        <time>2025-11-16T11:16:50Z</time>
        <extensions>
          <gpxtpx:TrackPointExtension xmlns:gpxtpx="http://www.garmin.com/xmlschemas/TrackPointExtension/v1">
            <gpxtpx:hr>129</gpxtpx:hr>
          </gpxtpx:TrackPointExtension>
        </extensions>
      </trkpt>
      <trkpt lat="48.59463" lon="1.97312">
        <ele>148.8</ele>
        <time>2025-11-16T11:16:52Z</time>
        <extensions>
          <gpxtpx:TrackPointExtension xmlns:gpxtpx="http://www.garmin.com/xmlschemas/TrackPointExtension/v1">
            <gpxtpx:hr>129</gpxtpx:hr>
          </gpxtpx:TrackPointExtension>
        </extensions>
      </trkpt>
      <trkpt lat="48.59463" lon="1.97308">
        <ele>148.8</ele>
        <time>2025-11-16T11:16:54Z</time>
        <extensions>
          <gpxtpx:TrackPointExtension xmlns:gpxtpx="http://www.garmin.com/xmlschemas/TrackPointExtension/v1">
            <gpxtpx:hr>129</gpxtpx:hr>
          </gpxtpx:TrackPointExtension>
        </extensions>
      </trkpt>
      <trkpt lat="48.59462" lon="1.97304">
        <ele>149</ele>
        <time>2025-11-16T11:16:56Z</time>
        <extensions>
          <gpxtpx:TrackPointExtension xmlns:gpxtpx="http://www.garmin.com/xmlschemas/TrackPointExtension/v1">
            <gpxtpx:hr>129</gpxtpx:hr>
          </gpxtpx:TrackPointExtension>
        </extensions>
      </trkpt>
      <trkpt lat="48.5946" lon="1.973">
        <ele>149</ele>
        <time>2025-11-16T11:16:58Z</time>
        <extensions>
          <gpxtpx:TrackPointExtension xmlns:gpxtpx="http://www.garmin.com/xmlschemas/TrackPointExtension/v1">
            <gpxtpx:hr>128</gpxtpx:hr>
          </gpxtpx:TrackPointExtension>
        </extensions>
      </trkpt>
      <trkpt lat="48.59457" lon="1.97297">
        <ele>149.2</ele>
        <time>2025-11-16T11:17:00Z</time>
        <extensions>
          <gpxtpx:TrackPointExtension xmlns:gpxtpx="http://www.garmin.com/xmlschemas/TrackPointExtension/v1">
            <gpxtpx:hr>128</gpxtpx:hr>
          </gpxtpx:TrackPointExtension>
        </extensions>
      </trkpt>
      <trkpt lat="48.59454" lon="1.97294">
        <ele>149.4</ele>
        <time>2025-11-16T11:17:02Z</time>
        <extensions>
          <gpxtpx:TrackPointExtension xmlns:gpxtpx="http://www.garmin.com/xmlschemas/TrackPointExtension/v1">
            <gpxtpx:hr>128</gpxtpx:hr>
          </gpxtpx:TrackPointExtension>
        </extensions>
      </trkpt>
      <trkpt lat="48.59452" lon="1.9729">
        <ele>149.8</ele>
        <time>2025-11-16T11:17:04Z</time>
        <extensions>
          <gpxtpx:TrackPointExtension xmlns:gpxtpx="http://www.garmin.com/xmlschemas/TrackPointExtension/v1">
            <gpxtpx:hr>128</gpxtpx:hr>
          </gpxtpx:TrackPointExtension>
        </extensions>
      </trkpt>
      <trkpt lat="48.5945" lon="1.97287">
        <ele>150</ele>
        <time>2025-11-16T11:17:06Z</time>
        <extensions>
          <gpxtpx:TrackPointExtension xmlns:gpxtpx="http://www.garmin.com/xmlschemas/TrackPointExtension/v1">
            <gpxtpx:hr>128</gpxtpx:hr>
          </gpxtpx:TrackPointExtension>
        </extensions>
      </trkpt>
      <trkpt lat="48.59448" lon="1.97283">
        <ele>150</ele>
        <time>2025-11-16T11:17:08Z</time>
        <extensions>
          <gpxtpx:TrackPointExtension xmlns:gpxtpx="http://www.garmin.com/xmlschemas/TrackPointExtension/v1">
            <gpxtpx:hr>128</gpxtpx:hr>
          </gpxtpx:TrackPointExtension>
        </extensions>
      </trkpt>
      <trkpt lat="48.59446" lon="1.9728">
        <ele>150.2</ele>
        <time>2025-11-16T11:17:10Z</time>
        <extensions>
          <gpxtpx:TrackPointExtension xmlns:gpxtpx="http://www.garmin.com/xmlschemas/TrackPointExtension/v1">
            <gpxtpx:hr>128</gpxtpx:hr>
          </gpxtpx:TrackPointExtension>
        </extensions>
      </trkpt>
      <trkpt lat="48.59444" lon="1.97276">
        <ele>150.2</ele>
        <time>2025-11-16T11:17:12Z</time>
        <extensions>
          <gpxtpx:TrackPointExtension xmlns:gpxtpx="http://www.garmin.com/xmlschemas/TrackPointExtension/v1">
            <gpxtpx:hr>128</gpxtpx:hr>
          </gpxtpx:TrackPointExtension>
        </extensions>
      </trkpt>
      <trkpt lat="48.59441" lon="1.97273">
        <ele>150.4</ele>
        <time>2025-11-16T11:17:14Z</time>
        <extensions>
          <gpxtpx:TrackPointExtension xmlns:gpxtpx="http://www.garmin.com/xmlschemas/TrackPointExtension/v1">
            <gpxtpx:hr>128</gpxtpx:hr>
          </gpxtpx:TrackPointExtension>
        </extensions>
      </trkpt>
      <trkpt lat="48.59439" lon="1.97269">
        <ele>150.6</ele>
        <time>2025-11-16T11:17:16Z</time>
        <extensions>
          <gpxtpx:TrackPointExtension xmlns:gpxtpx="http://www.garmin.com/xmlschemas/TrackPointExtension/v1">
            <gpxtpx:hr>128</gpxtpx:hr>
          </gpxtpx:TrackPointExtension>
        </extensions>
      </trkpt>
      <trkpt lat="48.59437" lon="1.97266">
        <ele>150.8</ele>
        <time>2025-11-16T11:17:18Z</time>
        <extensions>
          <gpxtpx:TrackPointExtension xmlns:gpxtpx="http://www.garmin.com/xmlschemas/TrackPointExtension/v1">
            <gpxtpx:hr>128</gpxtpx:hr>
          </gpxtpx:TrackPointExtension>
        </extensions>
      </trkpt>
      <trkpt lat="48.59435" lon="1.97262">
        <ele>150.8</ele>
        <time>2025-11-16T11:17:20Z</time>
        <extensions>
          <gpxtpx:TrackPointExtension xmlns:gpxtpx="http://www.garmin.com/xmlschemas/TrackPointExtension/v1">
            <gpxtpx:hr>128</gpxtpx:hr>
          </gpxtpx:TrackPointExtension>
        </extensions>
      </trkpt>
      <trkpt lat="48.59433" lon="1.97258">
        <ele>151</ele>
        <time>2025-11-16T11:17:22Z</time>
        <extensions>
          <gpxtpx:TrackPointExtension xmlns:gpxtpx="http://www.garmin.com/xmlschemas/TrackPointExtension/v1">
            <gpxtpx:hr>127</gpxtpx:hr>
          </gpxtpx:TrackPointExtension>
        </extensions>
      </trkpt>
      <trkpt lat="48.59431" lon="1.97256">
        <ele>151</ele>
        <time>2025-11-16T11:17:23Z</time>
        <extensions>
          <gpxtpx:TrackPointExtension xmlns:gpxtpx="http://www.garmin.com/xmlschemas/TrackPointExtension/v1">
            <gpxtpx:hr>127</gpxtpx:hr>
          </gpxtpx:TrackPointExtension>
        </extensions>
      </trkpt>
      <trkpt lat="48.59429" lon="1.97253">
        <ele>151.2</ele>
        <time>2025-11-16T11:17:25Z</time>
        <extensions>
          <gpxtpx:TrackPointExtension xmlns:gpxtpx="http://www.garmin.com/xmlschemas/TrackPointExtension/v1">
            <gpxtpx:hr>127</gpxtpx:hr>
          </gpxtpx:TrackPointExtension>
        </extensions>
      </trkpt>
      <trkpt lat="48.59427" lon="1.9725">
        <ele>151.4</ele>
        <time>2025-11-16T11:17:27Z</time>
        <extensions>
          <gpxtpx:TrackPointExtension xmlns:gpxtpx="http://www.garmin.com/xmlschemas/TrackPointExtension/v1">
            <gpxtpx:hr>128</gpxtpx:hr>
          </gpxtpx:TrackPointExtension>
        </extensions>
      </trkpt>
      <trkpt lat="48.59425" lon="1.97247">
        <ele>151.8</ele>
        <time>2025-11-16T11:17:29Z</time>
        <extensions>
          <gpxtpx:TrackPointExtension xmlns:gpxtpx="http://www.garmin.com/xmlschemas/TrackPointExtension/v1">
            <gpxtpx:hr>128</gpxtpx:hr>
          </gpxtpx:TrackPointExtension>
        </extensions>
      </trkpt>
      <trkpt lat="48.59423" lon="1.97243">
        <ele>152.2</ele>
        <time>2025-11-16T11:17:31Z</time>
        <extensions>
          <gpxtpx:TrackPointExtension xmlns:gpxtpx="http://www.garmin.com/xmlschemas/TrackPointExtension/v1">
            <gpxtpx:hr>128</gpxtpx:hr>
          </gpxtpx:TrackPointExtension>
        </extensions>
      </trkpt>
      <trkpt lat="48.59422" lon="1.97239">
        <ele>152.4</ele>
        <time>2025-11-16T11:17:33Z</time>
        <extensions>
          <gpxtpx:TrackPointExtension xmlns:gpxtpx="http://www.garmin.com/xmlschemas/TrackPointExtension/v1">
            <gpxtpx:hr>127</gpxtpx:hr>
          </gpxtpx:TrackPointExtension>
        </extensions>
      </trkpt>
      <trkpt lat="48.59422" lon="1.97235">
        <ele>152.6</ele>
        <time>2025-11-16T11:17:35Z</time>
        <extensions>
          <gpxtpx:TrackPointExtension xmlns:gpxtpx="http://www.garmin.com/xmlschemas/TrackPointExtension/v1">
            <gpxtpx:hr>127</gpxtpx:hr>
          </gpxtpx:TrackPointExtension>
        </extensions>
      </trkpt>
      <trkpt lat="48.59422" lon="1.97231">
        <ele>152.8</ele>
        <time>2025-11-16T11:17:37Z</time>
        <extensions>
          <gpxtpx:TrackPointExtension xmlns:gpxtpx="http://www.garmin.com/xmlschemas/TrackPointExtension/v1">
            <gpxtpx:hr>127</gpxtpx:hr>
          </gpxtpx:TrackPointExtension>
        </extensions>
      </trkpt>
      <trkpt lat="48.59423" lon="1.97226">
        <ele>152.8</ele>
        <time>2025-11-16T11:17:39Z</time>
        <extensions>
          <gpxtpx:TrackPointExtension xmlns:gpxtpx="http://www.garmin.com/xmlschemas/TrackPointExtension/v1">
            <gpxtpx:hr>127</gpxtpx:hr>
          </gpxtpx:TrackPointExtension>
        </extensions>
      </trkpt>
      <trkpt lat="48.59424" lon="1.97222">
        <ele>153</ele>
        <time>2025-11-16T11:17:41Z</time>
        <extensions>
          <gpxtpx:TrackPointExtension xmlns:gpxtpx="http://www.garmin.com/xmlschemas/TrackPointExtension/v1">
            <gpxtpx:hr>127</gpxtpx:hr>
          </gpxtpx:TrackPointExtension>
        </extensions>
      </trkpt>
      <trkpt lat="48.59425" lon="1.97218">
        <ele>153</ele>
        <time>2025-11-16T11:17:43Z</time>
        <extensions>
          <gpxtpx:TrackPointExtension xmlns:gpxtpx="http://www.garmin.com/xmlschemas/TrackPointExtension/v1">
            <gpxtpx:hr>127</gpxtpx:hr>
          </gpxtpx:TrackPointExtension>
        </extensions>
      </trkpt>
      <trkpt lat="48.59427" lon="1.97213">
        <ele>153.2</ele>
        <time>2025-11-16T11:17:45Z</time>
        <extensions>
          <gpxtpx:TrackPointExtension xmlns:gpxtpx="http://www.garmin.com/xmlschemas/TrackPointExtension/v1">
            <gpxtpx:hr>127</gpxtpx:hr>
          </gpxtpx:TrackPointExtension>
        </extensions>
      </trkpt>
      <trkpt lat="48.59428" lon="1.9721">
        <ele>153.2</ele>
        <time>2025-11-16T11:17:47Z</time>
        <extensions>
          <gpxtpx:TrackPointExtension xmlns:gpxtpx="http://www.garmin.com/xmlschemas/TrackPointExtension/v1">
            <gpxtpx:hr>128</gpxtpx:hr>
          </gpxtpx:TrackPointExtension>
        </extensions>
      </trkpt>
      <trkpt lat="48.5943" lon="1.97206">
        <ele>153.4</ele>
        <time>2025-11-16T11:17:49Z</time>
        <extensions>
          <gpxtpx:TrackPointExtension xmlns:gpxtpx="http://www.garmin.com/xmlschemas/TrackPointExtension/v1">
            <gpxtpx:hr>127</gpxtpx:hr>
          </gpxtpx:TrackPointExtension>
        </extensions>
      </trkpt>
      <trkpt lat="48.59432" lon="1.97203">
        <ele>153.6</ele>
        <time>2025-11-16T11:17:51Z</time>
        <extensions>
          <gpxtpx:TrackPointExtension xmlns:gpxtpx="http://www.garmin.com/xmlschemas/TrackPointExtension/v1">
            <gpxtpx:hr>127</gpxtpx:hr>
          </gpxtpx:TrackPointExtension>
        </extensions>
      </trkpt>
      <trkpt lat="48.59434" lon="1.97199">
        <ele>153.8</ele>
        <time>2025-11-16T11:17:53Z</time>
        <extensions>
          <gpxtpx:TrackPointExtension xmlns:gpxtpx="http://www.garmin.com/xmlschemas/TrackPointExtension/v1">
            <gpxtpx:hr>127</gpxtpx:hr>
          </gpxtpx:TrackPointExtension>
        </extensions>
      </trkpt>
      <trkpt lat="48.59436" lon="1.97196">
        <ele>154</ele>
        <time>2025-11-16T11:17:55Z</time>
        <extensions>
          <gpxtpx:TrackPointExtension xmlns:gpxtpx="http://www.garmin.com/xmlschemas/TrackPointExtension/v1">
            <gpxtpx:hr>127</gpxtpx:hr>
          </gpxtpx:TrackPointExtension>
        </extensions>
      </trkpt>
      <trkpt lat="48.59437" lon="1.97193">
        <ele>154.2</ele>
        <time>2025-11-16T11:17:57Z</time>
        <extensions>
          <gpxtpx:TrackPointExtension xmlns:gpxtpx="http://www.garmin.com/xmlschemas/TrackPointExtension/v1">
            <gpxtpx:hr>126</gpxtpx:hr>
          </gpxtpx:TrackPointExtension>
        </extensions>
      </trkpt>
      <trkpt lat="48.59439" lon="1.97189">
        <ele>154.2</ele>
        <time>2025-11-16T11:17:59Z</time>
        <extensions>
          <gpxtpx:TrackPointExtension xmlns:gpxtpx="http://www.garmin.com/xmlschemas/TrackPointExtension/v1">
            <gpxtpx:hr>125</gpxtpx:hr>
          </gpxtpx:TrackPointExtension>
        </extensions>
      </trkpt>
      <trkpt lat="48.59441" lon="1.97185">
        <ele>154.2</ele>
        <time>2025-11-16T11:18:01Z</time>
        <extensions>
          <gpxtpx:TrackPointExtension xmlns:gpxtpx="http://www.garmin.com/xmlschemas/TrackPointExtension/v1">
            <gpxtpx:hr>125</gpxtpx:hr>
          </gpxtpx:TrackPointExtension>
        </extensions>
      </trkpt>
      <trkpt lat="48.59441" lon="1.97181">
        <ele>154.4</ele>
        <time>2025-11-16T11:18:03Z</time>
        <extensions>
          <gpxtpx:TrackPointExtension xmlns:gpxtpx="http://www.garmin.com/xmlschemas/TrackPointExtension/v1">
            <gpxtpx:hr>125</gpxtpx:hr>
          </gpxtpx:TrackPointExtension>
        </extensions>
      </trkpt>
      <trkpt lat="48.59441" lon="1.97177">
        <ele>154.6</ele>
        <time>2025-11-16T11:18:05Z</time>
        <extensions>
          <gpxtpx:TrackPointExtension xmlns:gpxtpx="http://www.garmin.com/xmlschemas/TrackPointExtension/v1">
            <gpxtpx:hr>125</gpxtpx:hr>
          </gpxtpx:TrackPointExtension>
        </extensions>
      </trkpt>
      <trkpt lat="48.59441" lon="1.97172">
        <ele>154.8</ele>
        <time>2025-11-16T11:18:07Z</time>
        <extensions>
          <gpxtpx:TrackPointExtension xmlns:gpxtpx="http://www.garmin.com/xmlschemas/TrackPointExtension/v1">
            <gpxtpx:hr>125</gpxtpx:hr>
          </gpxtpx:TrackPointExtension>
        </extensions>
      </trkpt>
      <trkpt lat="48.5944" lon="1.97168">
        <ele>154.8</ele>
        <time>2025-11-16T11:18:09Z</time>
        <extensions>
          <gpxtpx:TrackPointExtension xmlns:gpxtpx="http://www.garmin.com/xmlschemas/TrackPointExtension/v1">
            <gpxtpx:hr>125</gpxtpx:hr>
          </gpxtpx:TrackPointExtension>
        </extensions>
      </trkpt>
      <trkpt lat="48.5944" lon="1.97165">
        <ele>154.8</ele>
        <time>2025-11-16T11:18:11Z</time>
        <extensions>
          <gpxtpx:TrackPointExtension xmlns:gpxtpx="http://www.garmin.com/xmlschemas/TrackPointExtension/v1">
            <gpxtpx:hr>124</gpxtpx:hr>
          </gpxtpx:TrackPointExtension>
        </extensions>
      </trkpt>
      <trkpt lat="48.59439" lon="1.97162">
        <ele>155</ele>
        <time>2025-11-16T11:18:13Z</time>
        <extensions>
          <gpxtpx:TrackPointExtension xmlns:gpxtpx="http://www.garmin.com/xmlschemas/TrackPointExtension/v1">
            <gpxtpx:hr>122</gpxtpx:hr>
          </gpxtpx:TrackPointExtension>
        </extensions>
      </trkpt>
      <trkpt lat="48.59437" lon="1.97158">
        <ele>155</ele>
        <time>2025-11-16T11:18:15Z</time>
        <extensions>
          <gpxtpx:TrackPointExtension xmlns:gpxtpx="http://www.garmin.com/xmlschemas/TrackPointExtension/v1">
            <gpxtpx:hr>121</gpxtpx:hr>
          </gpxtpx:TrackPointExtension>
        </extensions>
      </trkpt>
      <trkpt lat="48.59436" lon="1.97154">
        <ele>155.2</ele>
        <time>2025-11-16T11:18:17Z</time>
        <extensions>
          <gpxtpx:TrackPointExtension xmlns:gpxtpx="http://www.garmin.com/xmlschemas/TrackPointExtension/v1">
            <gpxtpx:hr>121</gpxtpx:hr>
          </gpxtpx:TrackPointExtension>
        </extensions>
      </trkpt>
      <trkpt lat="48.59435" lon="1.9715">
        <ele>155.2</ele>
        <time>2025-11-16T11:18:19Z</time>
        <extensions>
          <gpxtpx:TrackPointExtension xmlns:gpxtpx="http://www.garmin.com/xmlschemas/TrackPointExtension/v1">
            <gpxtpx:hr>121</gpxtpx:hr>
          </gpxtpx:TrackPointExtension>
        </extensions>
      </trkpt>
      <trkpt lat="48.59433" lon="1.97146">
        <ele>155.2</ele>
        <time>2025-11-16T11:18:21Z</time>
        <extensions>
          <gpxtpx:TrackPointExtension xmlns:gpxtpx="http://www.garmin.com/xmlschemas/TrackPointExtension/v1">
            <gpxtpx:hr>121</gpxtpx:hr>
          </gpxtpx:TrackPointExtension>
        </extensions>
      </trkpt>
      <trkpt lat="48.59432" lon="1.97141">
        <ele>155.2</ele>
        <time>2025-11-16T11:18:23Z</time>
        <extensions>
          <gpxtpx:TrackPointExtension xmlns:gpxtpx="http://www.garmin.com/xmlschemas/TrackPointExtension/v1">
            <gpxtpx:hr>121</gpxtpx:hr>
          </gpxtpx:TrackPointExtension>
        </extensions>
      </trkpt>
      <trkpt lat="48.59431" lon="1.97137">
        <ele>155.4</ele>
        <time>2025-11-16T11:18:25Z</time>
        <extensions>
          <gpxtpx:TrackPointExtension xmlns:gpxtpx="http://www.garmin.com/xmlschemas/TrackPointExtension/v1">
            <gpxtpx:hr>120</gpxtpx:hr>
          </gpxtpx:TrackPointExtension>
        </extensions>
      </trkpt>
      <trkpt lat="48.59432" lon="1.97132">
        <ele>155.4</ele>
        <time>2025-11-16T11:18:27Z</time>
        <extensions>
          <gpxtpx:TrackPointExtension xmlns:gpxtpx="http://www.garmin.com/xmlschemas/TrackPointExtension/v1">
            <gpxtpx:hr>120</gpxtpx:hr>
          </gpxtpx:TrackPointExtension>
        </extensions>
      </trkpt>
      <trkpt lat="48.59432" lon="1.97128">
        <ele>155.6</ele>
        <time>2025-11-16T11:18:29Z</time>
        <extensions>
          <gpxtpx:TrackPointExtension xmlns:gpxtpx="http://www.garmin.com/xmlschemas/TrackPointExtension/v1">
            <gpxtpx:hr>120</gpxtpx:hr>
          </gpxtpx:TrackPointExtension>
        </extensions>
      </trkpt>
      <trkpt lat="48.59433" lon="1.97123">
        <ele>155.8</ele>
        <time>2025-11-16T11:18:31Z</time>
        <extensions>
          <gpxtpx:TrackPointExtension xmlns:gpxtpx="http://www.garmin.com/xmlschemas/TrackPointExtension/v1">
            <gpxtpx:hr>120</gpxtpx:hr>
          </gpxtpx:TrackPointExtension>
        </extensions>
      </trkpt>
      <trkpt lat="48.59433" lon="1.97119">
        <ele>155.6</ele>
        <time>2025-11-16T11:18:33Z</time>
        <extensions>
          <gpxtpx:TrackPointExtension xmlns:gpxtpx="http://www.garmin.com/xmlschemas/TrackPointExtension/v1">
            <gpxtpx:hr>120</gpxtpx:hr>
          </gpxtpx:TrackPointExtension>
        </extensions>
      </trkpt>
      <trkpt lat="48.59433" lon="1.97114">
        <ele>155.6</ele>
        <time>2025-11-16T11:18:35Z</time>
        <extensions>
          <gpxtpx:TrackPointExtension xmlns:gpxtpx="http://www.garmin.com/xmlschemas/TrackPointExtension/v1">
            <gpxtpx:hr>120</gpxtpx:hr>
          </gpxtpx:TrackPointExtension>
        </extensions>
      </trkpt>
      <trkpt lat="48.59433" lon="1.97109">
        <ele>155.6</ele>
        <time>2025-11-16T11:18:37Z</time>
        <extensions>
          <gpxtpx:TrackPointExtension xmlns:gpxtpx="http://www.garmin.com/xmlschemas/TrackPointExtension/v1">
            <gpxtpx:hr>120</gpxtpx:hr>
          </gpxtpx:TrackPointExtension>
        </extensions>
      </trkpt>
      <trkpt lat="48.59433" lon="1.97105">
        <ele>155.6</ele>
        <time>2025-11-16T11:18:39Z</time>
        <extensions>
          <gpxtpx:TrackPointExtension xmlns:gpxtpx="http://www.garmin.com/xmlschemas/TrackPointExtension/v1">
            <gpxtpx:hr>119</gpxtpx:hr>
          </gpxtpx:TrackPointExtension>
        </extensions>
      </trkpt>
      <trkpt lat="48.59433" lon="1.971">
        <ele>155.6</ele>
        <time>2025-11-16T11:18:41Z</time>
        <extensions>
          <gpxtpx:TrackPointExtension xmlns:gpxtpx="http://www.garmin.com/xmlschemas/TrackPointExtension/v1">
            <gpxtpx:hr>119</gpxtpx:hr>
          </gpxtpx:TrackPointExtension>
        </extensions>
      </trkpt>
      <trkpt lat="48.59433" lon="1.97095">
        <ele>155.6</ele>
        <time>2025-11-16T11:18:43Z</time>
        <extensions>
          <gpxtpx:TrackPointExtension xmlns:gpxtpx="http://www.garmin.com/xmlschemas/TrackPointExtension/v1">
            <gpxtpx:hr>119</gpxtpx:hr>
          </gpxtpx:TrackPointExtension>
        </extensions>
      </trkpt>
      <trkpt lat="48.59433" lon="1.97091">
        <ele>155.6</ele>
        <time>2025-11-16T11:18:45Z</time>
        <extensions>
          <gpxtpx:TrackPointExtension xmlns:gpxtpx="http://www.garmin.com/xmlschemas/TrackPointExtension/v1">
            <gpxtpx:hr>119</gpxtpx:hr>
          </gpxtpx:TrackPointExtension>
        </extensions>
      </trkpt>
      <trkpt lat="48.59433" lon="1.97086">
        <ele>155.6</ele>
        <time>2025-11-16T11:18:47Z</time>
        <extensions>
          <gpxtpx:TrackPointExtension xmlns:gpxtpx="http://www.garmin.com/xmlschemas/TrackPointExtension/v1">
            <gpxtpx:hr>119</gpxtpx:hr>
          </gpxtpx:TrackPointExtension>
        </extensions>
      </trkpt>
      <trkpt lat="48.59432" lon="1.97082">
        <ele>155.8</ele>
        <time>2025-11-16T11:18:49Z</time>
        <extensions>
          <gpxtpx:TrackPointExtension xmlns:gpxtpx="http://www.garmin.com/xmlschemas/TrackPointExtension/v1">
            <gpxtpx:hr>119</gpxtpx:hr>
          </gpxtpx:TrackPointExtension>
        </extensions>
      </trkpt>
      <trkpt lat="48.59431" lon="1.97078">
        <ele>156</ele>
        <time>2025-11-16T11:18:51Z</time>
        <extensions>
          <gpxtpx:TrackPointExtension xmlns:gpxtpx="http://www.garmin.com/xmlschemas/TrackPointExtension/v1">
            <gpxtpx:hr>119</gpxtpx:hr>
          </gpxtpx:TrackPointExtension>
        </extensions>
      </trkpt>
      <trkpt lat="48.59429" lon="1.97074">
        <ele>156.2</ele>
        <time>2025-11-16T11:18:53Z</time>
        <extensions>
          <gpxtpx:TrackPointExtension xmlns:gpxtpx="http://www.garmin.com/xmlschemas/TrackPointExtension/v1">
            <gpxtpx:hr>119</gpxtpx:hr>
          </gpxtpx:TrackPointExtension>
        </extensions>
      </trkpt>
      <trkpt lat="48.59428" lon="1.97069">
        <ele>156.4</ele>
        <time>2025-11-16T11:18:55Z</time>
        <extensions>
          <gpxtpx:TrackPointExtension xmlns:gpxtpx="http://www.garmin.com/xmlschemas/TrackPointExtension/v1">
            <gpxtpx:hr>119</gpxtpx:hr>
          </gpxtpx:TrackPointExtension>
        </extensions>
      </trkpt>
      <trkpt lat="48.59427" lon="1.97064">
        <ele>156.4</ele>
        <time>2025-11-16T11:18:57Z</time>
        <extensions>
          <gpxtpx:TrackPointExtension xmlns:gpxtpx="http://www.garmin.com/xmlschemas/TrackPointExtension/v1">
            <gpxtpx:hr>119</gpxtpx:hr>
          </gpxtpx:TrackPointExtension>
        </extensions>
      </trkpt>
      <trkpt lat="48.59426" lon="1.97059">
        <ele>156.4</ele>
        <time>2025-11-16T11:18:59Z</time>
        <extensions>
          <gpxtpx:TrackPointExtension xmlns:gpxtpx="http://www.garmin.com/xmlschemas/TrackPointExtension/v1">
            <gpxtpx:hr>119</gpxtpx:hr>
          </gpxtpx:TrackPointExtension>
        </extensions>
      </trkpt>
      <trkpt lat="48.59425" lon="1.97054">
        <ele>156.4</ele>
        <time>2025-11-16T11:19:01Z</time>
        <extensions>
          <gpxtpx:TrackPointExtension xmlns:gpxtpx="http://www.garmin.com/xmlschemas/TrackPointExtension/v1">
            <gpxtpx:hr>119</gpxtpx:hr>
          </gpxtpx:TrackPointExtension>
        </extensions>
      </trkpt>
      <trkpt lat="48.59424" lon="1.97049">
        <ele>156.4</ele>
        <time>2025-11-16T11:19:03Z</time>
        <extensions>
          <gpxtpx:TrackPointExtension xmlns:gpxtpx="http://www.garmin.com/xmlschemas/TrackPointExtension/v1">
            <gpxtpx:hr>119</gpxtpx:hr>
          </gpxtpx:TrackPointExtension>
        </extensions>
      </trkpt>
      <trkpt lat="48.59423" lon="1.97045">
        <ele>156.4</ele>
        <time>2025-11-16T11:19:05Z</time>
        <extensions>
          <gpxtpx:TrackPointExtension xmlns:gpxtpx="http://www.garmin.com/xmlschemas/TrackPointExtension/v1">
            <gpxtpx:hr>119</gpxtpx:hr>
          </gpxtpx:TrackPointExtension>
        </extensions>
      </trkpt>
      <trkpt lat="48.59422" lon="1.9704">
        <ele>156.6</ele>
        <time>2025-11-16T11:19:07Z</time>
        <extensions>
          <gpxtpx:TrackPointExtension xmlns:gpxtpx="http://www.garmin.com/xmlschemas/TrackPointExtension/v1">
            <gpxtpx:hr>119</gpxtpx:hr>
          </gpxtpx:TrackPointExtension>
        </extensions>
      </trkpt>
      <trkpt lat="48.59421" lon="1.97036">
        <ele>156.8</ele>
        <time>2025-11-16T11:19:09Z</time>
        <extensions>
          <gpxtpx:TrackPointExtension xmlns:gpxtpx="http://www.garmin.com/xmlschemas/TrackPointExtension/v1">
            <gpxtpx:hr>119</gpxtpx:hr>
          </gpxtpx:TrackPointExtension>
        </extensions>
      </trkpt>
      <trkpt lat="48.5942" lon="1.97032">
        <ele>156.8</ele>
        <time>2025-11-16T11:19:11Z</time>
        <extensions>
          <gpxtpx:TrackPointExtension xmlns:gpxtpx="http://www.garmin.com/xmlschemas/TrackPointExtension/v1">
            <gpxtpx:hr>119</gpxtpx:hr>
          </gpxtpx:TrackPointExtension>
        </extensions>
      </trkpt>
      <trkpt lat="48.59419" lon="1.97027">
        <ele>156.8</ele>
        <time>2025-11-16T11:19:13Z</time>
        <extensions>
          <gpxtpx:TrackPointExtension xmlns:gpxtpx="http://www.garmin.com/xmlschemas/TrackPointExtension/v1">
            <gpxtpx:hr>119</gpxtpx:hr>
          </gpxtpx:TrackPointExtension>
        </extensions>
      </trkpt>
      <trkpt lat="48.59419" lon="1.97023">
        <ele>156.8</ele>
        <time>2025-11-16T11:19:15Z</time>
        <extensions>
          <gpxtpx:TrackPointExtension xmlns:gpxtpx="http://www.garmin.com/xmlschemas/TrackPointExtension/v1">
            <gpxtpx:hr>118</gpxtpx:hr>
          </gpxtpx:TrackPointExtension>
        </extensions>
      </trkpt>
      <trkpt lat="48.59419" lon="1.97018">
        <ele>156.8</ele>
        <time>2025-11-16T11:19:17Z</time>
        <extensions>
          <gpxtpx:TrackPointExtension xmlns:gpxtpx="http://www.garmin.com/xmlschemas/TrackPointExtension/v1">
            <gpxtpx:hr>118</gpxtpx:hr>
          </gpxtpx:TrackPointExtension>
        </extensions>
      </trkpt>
      <trkpt lat="48.59419" lon="1.97013">
        <ele>156.8</ele>
        <time>2025-11-16T11:19:19Z</time>
        <extensions>
          <gpxtpx:TrackPointExtension xmlns:gpxtpx="http://www.garmin.com/xmlschemas/TrackPointExtension/v1">
            <gpxtpx:hr>118</gpxtpx:hr>
          </gpxtpx:TrackPointExtension>
        </extensions>
      </trkpt>
      <trkpt lat="48.59419" lon="1.97009">
        <ele>156.8</ele>
        <time>2025-11-16T11:19:21Z</time>
        <extensions>
          <gpxtpx:TrackPointExtension xmlns:gpxtpx="http://www.garmin.com/xmlschemas/TrackPointExtension/v1">
            <gpxtpx:hr>117</gpxtpx:hr>
          </gpxtpx:TrackPointExtension>
        </extensions>
      </trkpt>
      <trkpt lat="48.5942" lon="1.97004">
        <ele>156.8</ele>
        <time>2025-11-16T11:19:23Z</time>
        <extensions>
          <gpxtpx:TrackPointExtension xmlns:gpxtpx="http://www.garmin.com/xmlschemas/TrackPointExtension/v1">
            <gpxtpx:hr>117</gpxtpx:hr>
          </gpxtpx:TrackPointExtension>
        </extensions>
      </trkpt>
      <trkpt lat="48.5942" lon="1.97">
        <ele>156.8</ele>
        <time>2025-11-16T11:19:25Z</time>
        <extensions>
          <gpxtpx:TrackPointExtension xmlns:gpxtpx="http://www.garmin.com/xmlschemas/TrackPointExtension/v1">
            <gpxtpx:hr>116</gpxtpx:hr>
          </gpxtpx:TrackPointExtension>
        </extensions>
      </trkpt>
      <trkpt lat="48.59421" lon="1.96996">
        <ele>156.8</ele>
        <time>2025-11-16T11:19:27Z</time>
        <extensions>
          <gpxtpx:TrackPointExtension xmlns:gpxtpx="http://www.garmin.com/xmlschemas/TrackPointExtension/v1">
            <gpxtpx:hr>116</gpxtpx:hr>
          </gpxtpx:TrackPointExtension>
        </extensions>
      </trkpt>
      <trkpt lat="48.59422" lon="1.96991">
        <ele>156.8</ele>
        <time>2025-11-16T11:19:29Z</time>
        <extensions>
          <gpxtpx:TrackPointExtension xmlns:gpxtpx="http://www.garmin.com/xmlschemas/TrackPointExtension/v1">
            <gpxtpx:hr>116</gpxtpx:hr>
          </gpxtpx:TrackPointExtension>
        </extensions>
      </trkpt>
      <trkpt lat="48.59423" lon="1.96987">
        <ele>157</ele>
        <time>2025-11-16T11:19:31Z</time>
        <extensions>
          <gpxtpx:TrackPointExtension xmlns:gpxtpx="http://www.garmin.com/xmlschemas/TrackPointExtension/v1">
            <gpxtpx:hr>116</gpxtpx:hr>
          </gpxtpx:TrackPointExtension>
        </extensions>
      </trkpt>
      <trkpt lat="48.59424" lon="1.96981">
        <ele>157</ele>
        <time>2025-11-16T11:19:33Z</time>
        <extensions>
          <gpxtpx:TrackPointExtension xmlns:gpxtpx="http://www.garmin.com/xmlschemas/TrackPointExtension/v1">
            <gpxtpx:hr>116</gpxtpx:hr>
          </gpxtpx:TrackPointExtension>
        </extensions>
      </trkpt>
      <trkpt lat="48.59424" lon="1.96979">
        <ele>157</ele>
        <time>2025-11-16T11:19:34Z</time>
        <extensions>
          <gpxtpx:TrackPointExtension xmlns:gpxtpx="http://www.garmin.com/xmlschemas/TrackPointExtension/v1">
            <gpxtpx:hr>116</gpxtpx:hr>
          </gpxtpx:TrackPointExtension>
        </extensions>
      </trkpt>
      <trkpt lat="48.59424" lon="1.96973">
        <ele>157.2</ele>
        <time>2025-11-16T11:19:36Z</time>
        <extensions>
          <gpxtpx:TrackPointExtension xmlns:gpxtpx="http://www.garmin.com/xmlschemas/TrackPointExtension/v1">
            <gpxtpx:hr>116</gpxtpx:hr>
          </gpxtpx:TrackPointExtension>
        </extensions>
      </trkpt>
      <trkpt lat="48.59424" lon="1.96971">
        <ele>157.2</ele>
        <time>2025-11-16T11:19:37Z</time>
        <extensions>
          <gpxtpx:TrackPointExtension xmlns:gpxtpx="http://www.garmin.com/xmlschemas/TrackPointExtension/v1">
            <gpxtpx:hr>116</gpxtpx:hr>
          </gpxtpx:TrackPointExtension>
        </extensions>
      </trkpt>
      <trkpt lat="48.59423" lon="1.96968">
        <ele>157.2</ele>
        <time>2025-11-16T11:19:38Z</time>
        <extensions>
          <gpxtpx:TrackPointExtension xmlns:gpxtpx="http://www.garmin.com/xmlschemas/TrackPointExtension/v1">
            <gpxtpx:hr>116</gpxtpx:hr>
          </gpxtpx:TrackPointExtension>
        </extensions>
      </trkpt>
      <trkpt lat="48.59422" lon="1.96965">
        <ele>157.2</ele>
        <time>2025-11-16T11:19:39Z</time>
        <extensions>
          <gpxtpx:TrackPointExtension xmlns:gpxtpx="http://www.garmin.com/xmlschemas/TrackPointExtension/v1">
            <gpxtpx:hr>116</gpxtpx:hr>
          </gpxtpx:TrackPointExtension>
        </extensions>
      </trkpt>
      <trkpt lat="48.59421" lon="1.96963">
        <ele>157.2</ele>
        <time>2025-11-16T11:19:40Z</time>
        <extensions>
          <gpxtpx:TrackPointExtension xmlns:gpxtpx="http://www.garmin.com/xmlschemas/TrackPointExtension/v1">
            <gpxtpx:hr>116</gpxtpx:hr>
          </gpxtpx:TrackPointExtension>
        </extensions>
      </trkpt>
      <trkpt lat="48.59419" lon="1.9696">
        <ele>157.4</ele>
        <time>2025-11-16T11:19:41Z</time>
        <extensions>
          <gpxtpx:TrackPointExtension xmlns:gpxtpx="http://www.garmin.com/xmlschemas/TrackPointExtension/v1">
            <gpxtpx:hr>116</gpxtpx:hr>
          </gpxtpx:TrackPointExtension>
        </extensions>
      </trkpt>
      <trkpt lat="48.59418" lon="1.96958">
        <ele>157.4</ele>
        <time>2025-11-16T11:19:42Z</time>
        <extensions>
          <gpxtpx:TrackPointExtension xmlns:gpxtpx="http://www.garmin.com/xmlschemas/TrackPointExtension/v1">
            <gpxtpx:hr>116</gpxtpx:hr>
          </gpxtpx:TrackPointExtension>
        </extensions>
      </trkpt>
      <trkpt lat="48.59416" lon="1.96956">
        <ele>157.4</ele>
        <time>2025-11-16T11:19:43Z</time>
        <extensions>
          <gpxtpx:TrackPointExtension xmlns:gpxtpx="http://www.garmin.com/xmlschemas/TrackPointExtension/v1">
            <gpxtpx:hr>116</gpxtpx:hr>
          </gpxtpx:TrackPointExtension>
        </extensions>
      </trkpt>
      <trkpt lat="48.59413" lon="1.96952">
        <ele>157.2</ele>
        <time>2025-11-16T11:19:45Z</time>
        <extensions>
          <gpxtpx:TrackPointExtension xmlns:gpxtpx="http://www.garmin.com/xmlschemas/TrackPointExtension/v1">
            <gpxtpx:hr>117</gpxtpx:hr>
          </gpxtpx:TrackPointExtension>
        </extensions>
      </trkpt>
      <trkpt lat="48.59411" lon="1.96949">
        <ele>157.2</ele>
        <time>2025-11-16T11:19:47Z</time>
        <extensions>
          <gpxtpx:TrackPointExtension xmlns:gpxtpx="http://www.garmin.com/xmlschemas/TrackPointExtension/v1">
            <gpxtpx:hr>117</gpxtpx:hr>
          </gpxtpx:TrackPointExtension>
        </extensions>
      </trkpt>
      <trkpt lat="48.5941" lon="1.96945">
        <ele>157.2</ele>
        <time>2025-11-16T11:19:49Z</time>
        <extensions>
          <gpxtpx:TrackPointExtension xmlns:gpxtpx="http://www.garmin.com/xmlschemas/TrackPointExtension/v1">
            <gpxtpx:hr>117</gpxtpx:hr>
          </gpxtpx:TrackPointExtension>
        </extensions>
      </trkpt>
      <trkpt lat="48.59409" lon="1.96941">
        <ele>157.2</ele>
        <time>2025-11-16T11:19:51Z</time>
        <extensions>
          <gpxtpx:TrackPointExtension xmlns:gpxtpx="http://www.garmin.com/xmlschemas/TrackPointExtension/v1">
            <gpxtpx:hr>116</gpxtpx:hr>
          </gpxtpx:TrackPointExtension>
        </extensions>
      </trkpt>
      <trkpt lat="48.59407" lon="1.96936">
        <ele>157.2</ele>
        <time>2025-11-16T11:19:53Z</time>
        <extensions>
          <gpxtpx:TrackPointExtension xmlns:gpxtpx="http://www.garmin.com/xmlschemas/TrackPointExtension/v1">
            <gpxtpx:hr>116</gpxtpx:hr>
          </gpxtpx:TrackPointExtension>
        </extensions>
      </trkpt>
      <trkpt lat="48.59407" lon="1.96932">
        <ele>157.2</ele>
        <time>2025-11-16T11:19:55Z</time>
        <extensions>
          <gpxtpx:TrackPointExtension xmlns:gpxtpx="http://www.garmin.com/xmlschemas/TrackPointExtension/v1">
            <gpxtpx:hr>116</gpxtpx:hr>
          </gpxtpx:TrackPointExtension>
        </extensions>
      </trkpt>
      <trkpt lat="48.59405" lon="1.96927">
        <ele>157.2</ele>
        <time>2025-11-16T11:19:57Z</time>
        <extensions>
          <gpxtpx:TrackPointExtension xmlns:gpxtpx="http://www.garmin.com/xmlschemas/TrackPointExtension/v1">
            <gpxtpx:hr>116</gpxtpx:hr>
          </gpxtpx:TrackPointExtension>
        </extensions>
      </trkpt>
      <trkpt lat="48.59405" lon="1.96922">
        <ele>157</ele>
        <time>2025-11-16T11:19:59Z</time>
        <extensions>
          <gpxtpx:TrackPointExtension xmlns:gpxtpx="http://www.garmin.com/xmlschemas/TrackPointExtension/v1">
            <gpxtpx:hr>116</gpxtpx:hr>
          </gpxtpx:TrackPointExtension>
        </extensions>
      </trkpt>
      <trkpt lat="48.59404" lon="1.96917">
        <ele>157</ele>
        <time>2025-11-16T11:20:01Z</time>
        <extensions>
          <gpxtpx:TrackPointExtension xmlns:gpxtpx="http://www.garmin.com/xmlschemas/TrackPointExtension/v1">
            <gpxtpx:hr>116</gpxtpx:hr>
          </gpxtpx:TrackPointExtension>
        </extensions>
      </trkpt>
      <trkpt lat="48.59403" lon="1.96913">
        <ele>157</ele>
        <time>2025-11-16T11:20:03Z</time>
        <extensions>
          <gpxtpx:TrackPointExtension xmlns:gpxtpx="http://www.garmin.com/xmlschemas/TrackPointExtension/v1">
            <gpxtpx:hr>116</gpxtpx:hr>
          </gpxtpx:TrackPointExtension>
        </extensions>
      </trkpt>
      <trkpt lat="48.59403" lon="1.96908">
        <ele>157</ele>
        <time>2025-11-16T11:20:05Z</time>
        <extensions>
          <gpxtpx:TrackPointExtension xmlns:gpxtpx="http://www.garmin.com/xmlschemas/TrackPointExtension/v1">
            <gpxtpx:hr>116</gpxtpx:hr>
          </gpxtpx:TrackPointExtension>
        </extensions>
      </trkpt>
      <trkpt lat="48.59402" lon="1.96904">
        <ele>157</ele>
        <time>2025-11-16T11:20:07Z</time>
        <extensions>
          <gpxtpx:TrackPointExtension xmlns:gpxtpx="http://www.garmin.com/xmlschemas/TrackPointExtension/v1">
            <gpxtpx:hr>115</gpxtpx:hr>
          </gpxtpx:TrackPointExtension>
        </extensions>
      </trkpt>
      <trkpt lat="48.59402" lon="1.96899">
        <ele>157.2</ele>
        <time>2025-11-16T11:20:09Z</time>
        <extensions>
          <gpxtpx:TrackPointExtension xmlns:gpxtpx="http://www.garmin.com/xmlschemas/TrackPointExtension/v1">
            <gpxtpx:hr>115</gpxtpx:hr>
          </gpxtpx:TrackPointExtension>
        </extensions>
      </trkpt>
      <trkpt lat="48.59402" lon="1.96894">
        <ele>157.2</ele>
        <time>2025-11-16T11:20:11Z</time>
        <extensions>
          <gpxtpx:TrackPointExtension xmlns:gpxtpx="http://www.garmin.com/xmlschemas/TrackPointExtension/v1">
            <gpxtpx:hr>115</gpxtpx:hr>
          </gpxtpx:TrackPointExtension>
        </extensions>
      </trkpt>
      <trkpt lat="48.59403" lon="1.96889">
        <ele>157.2</ele>
        <time>2025-11-16T11:20:13Z</time>
        <extensions>
          <gpxtpx:TrackPointExtension xmlns:gpxtpx="http://www.garmin.com/xmlschemas/TrackPointExtension/v1">
            <gpxtpx:hr>115</gpxtpx:hr>
          </gpxtpx:TrackPointExtension>
        </extensions>
      </trkpt>
      <trkpt lat="48.59405" lon="1.96885">
        <ele>157.2</ele>
        <time>2025-11-16T11:20:15Z</time>
        <extensions>
          <gpxtpx:TrackPointExtension xmlns:gpxtpx="http://www.garmin.com/xmlschemas/TrackPointExtension/v1">
            <gpxtpx:hr>115</gpxtpx:hr>
          </gpxtpx:TrackPointExtension>
        </extensions>
      </trkpt>
      <trkpt lat="48.59407" lon="1.96881">
        <ele>157.2</ele>
        <time>2025-11-16T11:20:17Z</time>
        <extensions>
          <gpxtpx:TrackPointExtension xmlns:gpxtpx="http://www.garmin.com/xmlschemas/TrackPointExtension/v1">
            <gpxtpx:hr>115</gpxtpx:hr>
          </gpxtpx:TrackPointExtension>
        </extensions>
      </trkpt>
      <trkpt lat="48.59409" lon="1.96878">
        <ele>157.2</ele>
        <time>2025-11-16T11:20:19Z</time>
        <extensions>
          <gpxtpx:TrackPointExtension xmlns:gpxtpx="http://www.garmin.com/xmlschemas/TrackPointExtension/v1">
            <gpxtpx:hr>114</gpxtpx:hr>
          </gpxtpx:TrackPointExtension>
        </extensions>
      </trkpt>
      <trkpt lat="48.59411" lon="1.96874">
        <ele>157</ele>
        <time>2025-11-16T11:20:21Z</time>
        <extensions>
          <gpxtpx:TrackPointExtension xmlns:gpxtpx="http://www.garmin.com/xmlschemas/TrackPointExtension/v1">
            <gpxtpx:hr>114</gpxtpx:hr>
          </gpxtpx:TrackPointExtension>
        </extensions>
      </trkpt>
      <trkpt lat="48.59413" lon="1.96871">
        <ele>157</ele>
        <time>2025-11-16T11:20:23Z</time>
        <extensions>
          <gpxtpx:TrackPointExtension xmlns:gpxtpx="http://www.garmin.com/xmlschemas/TrackPointExtension/v1">
            <gpxtpx:hr>114</gpxtpx:hr>
          </gpxtpx:TrackPointExtension>
        </extensions>
      </trkpt>
      <trkpt lat="48.59416" lon="1.96868">
        <ele>157</ele>
        <time>2025-11-16T11:20:25Z</time>
        <extensions>
          <gpxtpx:TrackPointExtension xmlns:gpxtpx="http://www.garmin.com/xmlschemas/TrackPointExtension/v1">
            <gpxtpx:hr>115</gpxtpx:hr>
          </gpxtpx:TrackPointExtension>
        </extensions>
      </trkpt>
      <trkpt lat="48.59418" lon="1.96865">
        <ele>156.8</ele>
        <time>2025-11-16T11:20:27Z</time>
        <extensions>
          <gpxtpx:TrackPointExtension xmlns:gpxtpx="http://www.garmin.com/xmlschemas/TrackPointExtension/v1">
            <gpxtpx:hr>115</gpxtpx:hr>
          </gpxtpx:TrackPointExtension>
        </extensions>
      </trkpt>
      <trkpt lat="48.59421" lon="1.96862">
        <ele>156.6</ele>
        <time>2025-11-16T11:20:29Z</time>
        <extensions>
          <gpxtpx:TrackPointExtension xmlns:gpxtpx="http://www.garmin.com/xmlschemas/TrackPointExtension/v1">
            <gpxtpx:hr>115</gpxtpx:hr>
          </gpxtpx:TrackPointExtension>
        </extensions>
      </trkpt>
      <trkpt lat="48.59424" lon="1.9686">
        <ele>156.6</ele>
        <time>2025-11-16T11:20:31Z</time>
        <extensions>
          <gpxtpx:TrackPointExtension xmlns:gpxtpx="http://www.garmin.com/xmlschemas/TrackPointExtension/v1">
            <gpxtpx:hr>115</gpxtpx:hr>
          </gpxtpx:TrackPointExtension>
        </extensions>
      </trkpt>
      <trkpt lat="48.59427" lon="1.96859">
        <ele>156.4</ele>
        <time>2025-11-16T11:20:33Z</time>
        <extensions>
          <gpxtpx:TrackPointExtension xmlns:gpxtpx="http://www.garmin.com/xmlschemas/TrackPointExtension/v1">
            <gpxtpx:hr>115</gpxtpx:hr>
          </gpxtpx:TrackPointExtension>
        </extensions>
      </trkpt>
      <trkpt lat="48.59429" lon="1.96859">
        <ele>156.2</ele>
        <time>2025-11-16T11:20:34Z</time>
        <extensions>
          <gpxtpx:TrackPointExtension xmlns:gpxtpx="http://www.garmin.com/xmlschemas/TrackPointExtension/v1">
            <gpxtpx:hr>115</gpxtpx:hr>
          </gpxtpx:TrackPointExtension>
        </extensions>
      </trkpt>
      <trkpt lat="48.59432" lon="1.96857">
        <ele>156.2</ele>
        <time>2025-11-16T11:20:36Z</time>
        <extensions>
          <gpxtpx:TrackPointExtension xmlns:gpxtpx="http://www.garmin.com/xmlschemas/TrackPointExtension/v1">
            <gpxtpx:hr>114</gpxtpx:hr>
          </gpxtpx:TrackPointExtension>
        </extensions>
      </trkpt>
      <trkpt lat="48.59435" lon="1.96856">
        <ele>156</ele>
        <time>2025-11-16T11:20:38Z</time>
        <extensions>
          <gpxtpx:TrackPointExtension xmlns:gpxtpx="http://www.garmin.com/xmlschemas/TrackPointExtension/v1">
            <gpxtpx:hr>115</gpxtpx:hr>
          </gpxtpx:TrackPointExtension>
        </extensions>
      </trkpt>
      <trkpt lat="48.59437" lon="1.96854">
        <ele>155.8</ele>
        <time>2025-11-16T11:20:40Z</time>
        <extensions>
          <gpxtpx:TrackPointExtension xmlns:gpxtpx="http://www.garmin.com/xmlschemas/TrackPointExtension/v1">
            <gpxtpx:hr>114</gpxtpx:hr>
          </gpxtpx:TrackPointExtension>
        </extensions>
      </trkpt>
      <trkpt lat="48.5944" lon="1.96851">
        <ele>155.8</ele>
        <time>2025-11-16T11:20:42Z</time>
        <extensions>
          <gpxtpx:TrackPointExtension xmlns:gpxtpx="http://www.garmin.com/xmlschemas/TrackPointExtension/v1">
            <gpxtpx:hr>115</gpxtpx:hr>
          </gpxtpx:TrackPointExtension>
        </extensions>
      </trkpt>
      <trkpt lat="48.59441" lon="1.96846">
        <ele>155.8</ele>
        <time>2025-11-16T11:20:44Z</time>
        <extensions>
          <gpxtpx:TrackPointExtension xmlns:gpxtpx="http://www.garmin.com/xmlschemas/TrackPointExtension/v1">
            <gpxtpx:hr>115</gpxtpx:hr>
          </gpxtpx:TrackPointExtension>
        </extensions>
      </trkpt>
      <trkpt lat="48.59442" lon="1.96844">
        <ele>155.8</ele>
        <time>2025-11-16T11:20:45Z</time>
        <extensions>
          <gpxtpx:TrackPointExtension xmlns:gpxtpx="http://www.garmin.com/xmlschemas/TrackPointExtension/v1">
            <gpxtpx:hr>115</gpxtpx:hr>
          </gpxtpx:TrackPointExtension>
        </extensions>
      </trkpt>
      <trkpt lat="48.59443" lon="1.96839">
        <ele>155.8</ele>
        <time>2025-11-16T11:20:47Z</time>
        <extensions>
          <gpxtpx:TrackPointExtension xmlns:gpxtpx="http://www.garmin.com/xmlschemas/TrackPointExtension/v1">
            <gpxtpx:hr>115</gpxtpx:hr>
          </gpxtpx:TrackPointExtension>
        </extensions>
      </trkpt>
      <trkpt lat="48.59443" lon="1.96836">
        <ele>155.8</ele>
        <time>2025-11-16T11:20:48Z</time>
        <extensions>
          <gpxtpx:TrackPointExtension xmlns:gpxtpx="http://www.garmin.com/xmlschemas/TrackPointExtension/v1">
            <gpxtpx:hr>115</gpxtpx:hr>
          </gpxtpx:TrackPointExtension>
        </extensions>
      </trkpt>
      <trkpt lat="48.59443" lon="1.96833">
        <ele>155.8</ele>
        <time>2025-11-16T11:20:49Z</time>
        <extensions>
          <gpxtpx:TrackPointExtension xmlns:gpxtpx="http://www.garmin.com/xmlschemas/TrackPointExtension/v1">
            <gpxtpx:hr>115</gpxtpx:hr>
          </gpxtpx:TrackPointExtension>
        </extensions>
      </trkpt>
      <trkpt lat="48.59443" lon="1.9683">
        <ele>155.8</ele>
        <time>2025-11-16T11:20:50Z</time>
        <extensions>
          <gpxtpx:TrackPointExtension xmlns:gpxtpx="http://www.garmin.com/xmlschemas/TrackPointExtension/v1">
            <gpxtpx:hr>115</gpxtpx:hr>
          </gpxtpx:TrackPointExtension>
        </extensions>
      </trkpt>
      <trkpt lat="48.59443" lon="1.96828">
        <ele>155.8</ele>
        <time>2025-11-16T11:20:51Z</time>
        <extensions>
          <gpxtpx:TrackPointExtension xmlns:gpxtpx="http://www.garmin.com/xmlschemas/TrackPointExtension/v1">
            <gpxtpx:hr>115</gpxtpx:hr>
          </gpxtpx:TrackPointExtension>
        </extensions>
      </trkpt>
      <trkpt lat="48.59443" lon="1.96825">
        <ele>155.8</ele>
        <time>2025-11-16T11:20:52Z</time>
        <extensions>
          <gpxtpx:TrackPointExtension xmlns:gpxtpx="http://www.garmin.com/xmlschemas/TrackPointExtension/v1">
            <gpxtpx:hr>116</gpxtpx:hr>
          </gpxtpx:TrackPointExtension>
        </extensions>
      </trkpt>
      <trkpt lat="48.59442" lon="1.96822">
        <ele>155.6</ele>
        <time>2025-11-16T11:20:53Z</time>
        <extensions>
          <gpxtpx:TrackPointExtension xmlns:gpxtpx="http://www.garmin.com/xmlschemas/TrackPointExtension/v1">
            <gpxtpx:hr>116</gpxtpx:hr>
          </gpxtpx:TrackPointExtension>
        </extensions>
      </trkpt>
      <trkpt lat="48.59442" lon="1.96819">
        <ele>155.6</ele>
        <time>2025-11-16T11:20:54Z</time>
        <extensions>
          <gpxtpx:TrackPointExtension xmlns:gpxtpx="http://www.garmin.com/xmlschemas/TrackPointExtension/v1">
            <gpxtpx:hr>116</gpxtpx:hr>
          </gpxtpx:TrackPointExtension>
        </extensions>
      </trkpt>
      <trkpt lat="48.59441" lon="1.96814">
        <ele>155.6</ele>
        <time>2025-11-16T11:20:56Z</time>
      </trkpt>
      <trkpt lat="48.5944" lon="1.96809">
        <ele>155.2</ele>
        <time>2025-11-16T11:20:58Z</time>
        <extensions>
          <gpxtpx:TrackPointExtension xmlns:gpxtpx="http://www.garmin.com/xmlschemas/TrackPointExtension/v1">
            <gpxtpx:hr>117</gpxtpx:hr>
          </gpxtpx:TrackPointExtension>
        </extensions>
      </trkpt>
      <trkpt lat="48.59439" lon="1.96807">
        <ele>155.2</ele>
        <time>2025-11-16T11:20:59Z</time>
        <extensions>
          <gpxtpx:TrackPointExtension xmlns:gpxtpx="http://www.garmin.com/xmlschemas/TrackPointExtension/v1">
            <gpxtpx:hr>117</gpxtpx:hr>
          </gpxtpx:TrackPointExtension>
        </extensions>
      </trkpt>
      <trkpt lat="48.59437" lon="1.96802">
        <ele>155</ele>
        <time>2025-11-16T11:21:01Z</time>
        <extensions>
          <gpxtpx:TrackPointExtension xmlns:gpxtpx="http://www.garmin.com/xmlschemas/TrackPointExtension/v1">
            <gpxtpx:hr>118</gpxtpx:hr>
          </gpxtpx:TrackPointExtension>
        </extensions>
      </trkpt>
      <trkpt lat="48.59436" lon="1.96797">
        <ele>154.8</ele>
        <time>2025-11-16T11:21:03Z</time>
        <extensions>
          <gpxtpx:TrackPointExtension xmlns:gpxtpx="http://www.garmin.com/xmlschemas/TrackPointExtension/v1">
            <gpxtpx:hr>119</gpxtpx:hr>
          </gpxtpx:TrackPointExtension>
        </extensions>
      </trkpt>
      <trkpt lat="48.59435" lon="1.96794">
        <ele>154.8</ele>
        <time>2025-11-16T11:21:04Z</time>
        <extensions>
          <gpxtpx:TrackPointExtension xmlns:gpxtpx="http://www.garmin.com/xmlschemas/TrackPointExtension/v1">
            <gpxtpx:hr>119</gpxtpx:hr>
          </gpxtpx:TrackPointExtension>
        </extensions>
      </trkpt>
      <trkpt lat="48.59434" lon="1.9679">
        <ele>154.6</ele>
        <time>2025-11-16T11:21:06Z</time>
        <extensions>
          <gpxtpx:TrackPointExtension xmlns:gpxtpx="http://www.garmin.com/xmlschemas/TrackPointExtension/v1">
            <gpxtpx:hr>119</gpxtpx:hr>
          </gpxtpx:TrackPointExtension>
        </extensions>
      </trkpt>
      <trkpt lat="48.59432" lon="1.96786">
        <ele>154.4</ele>
        <time>2025-11-16T11:21:08Z</time>
        <extensions>
          <gpxtpx:TrackPointExtension xmlns:gpxtpx="http://www.garmin.com/xmlschemas/TrackPointExtension/v1">
            <gpxtpx:hr>119</gpxtpx:hr>
          </gpxtpx:TrackPointExtension>
        </extensions>
      </trkpt>
      <trkpt lat="48.5943" lon="1.96781">
        <ele>154.2</ele>
        <time>2025-11-16T11:21:10Z</time>
        <extensions>
          <gpxtpx:TrackPointExtension xmlns:gpxtpx="http://www.garmin.com/xmlschemas/TrackPointExtension/v1">
            <gpxtpx:hr>119</gpxtpx:hr>
          </gpxtpx:TrackPointExtension>
        </extensions>
      </trkpt>
      <trkpt lat="48.59428" lon="1.96777">
        <ele>154</ele>
        <time>2025-11-16T11:21:12Z</time>
        <extensions>
          <gpxtpx:TrackPointExtension xmlns:gpxtpx="http://www.garmin.com/xmlschemas/TrackPointExtension/v1">
            <gpxtpx:hr>119</gpxtpx:hr>
          </gpxtpx:TrackPointExtension>
        </extensions>
      </trkpt>
      <trkpt lat="48.59426" lon="1.96772">
        <ele>153.8</ele>
        <time>2025-11-16T11:21:14Z</time>
        <extensions>
          <gpxtpx:TrackPointExtension xmlns:gpxtpx="http://www.garmin.com/xmlschemas/TrackPointExtension/v1">
            <gpxtpx:hr>119</gpxtpx:hr>
          </gpxtpx:TrackPointExtension>
        </extensions>
      </trkpt>
      <trkpt lat="48.59425" lon="1.96768">
        <ele>153.4</ele>
        <time>2025-11-16T11:21:16Z</time>
        <extensions>
          <gpxtpx:TrackPointExtension xmlns:gpxtpx="http://www.garmin.com/xmlschemas/TrackPointExtension/v1">
            <gpxtpx:hr>119</gpxtpx:hr>
          </gpxtpx:TrackPointExtension>
        </extensions>
      </trkpt>
      <trkpt lat="48.59423" lon="1.96764">
        <ele>153.2</ele>
        <time>2025-11-16T11:21:18Z</time>
        <extensions>
          <gpxtpx:TrackPointExtension xmlns:gpxtpx="http://www.garmin.com/xmlschemas/TrackPointExtension/v1">
            <gpxtpx:hr>119</gpxtpx:hr>
          </gpxtpx:TrackPointExtension>
        </extensions>
      </trkpt>
      <trkpt lat="48.59421" lon="1.9676">
        <ele>152.8</ele>
        <time>2025-11-16T11:21:20Z</time>
        <extensions>
          <gpxtpx:TrackPointExtension xmlns:gpxtpx="http://www.garmin.com/xmlschemas/TrackPointExtension/v1">
            <gpxtpx:hr>119</gpxtpx:hr>
          </gpxtpx:TrackPointExtension>
        </extensions>
      </trkpt>
      <trkpt lat="48.5942" lon="1.96756">
        <ele>152.6</ele>
        <time>2025-11-16T11:21:22Z</time>
        <extensions>
          <gpxtpx:TrackPointExtension xmlns:gpxtpx="http://www.garmin.com/xmlschemas/TrackPointExtension/v1">
            <gpxtpx:hr>119</gpxtpx:hr>
          </gpxtpx:TrackPointExtension>
        </extensions>
      </trkpt>
      <trkpt lat="48.59418" lon="1.96752">
        <ele>152.2</ele>
        <time>2025-11-16T11:21:24Z</time>
        <extensions>
          <gpxtpx:TrackPointExtension xmlns:gpxtpx="http://www.garmin.com/xmlschemas/TrackPointExtension/v1">
            <gpxtpx:hr>119</gpxtpx:hr>
          </gpxtpx:TrackPointExtension>
        </extensions>
      </trkpt>
      <trkpt lat="48.59416" lon="1.96747">
        <ele>151.8</ele>
        <time>2025-11-16T11:21:26Z</time>
        <extensions>
          <gpxtpx:TrackPointExtension xmlns:gpxtpx="http://www.garmin.com/xmlschemas/TrackPointExtension/v1">
            <gpxtpx:hr>119</gpxtpx:hr>
          </gpxtpx:TrackPointExtension>
        </extensions>
      </trkpt>
      <trkpt lat="48.59415" lon="1.96742">
        <ele>151.6</ele>
        <time>2025-11-16T11:21:28Z</time>
        <extensions>
          <gpxtpx:TrackPointExtension xmlns:gpxtpx="http://www.garmin.com/xmlschemas/TrackPointExtension/v1">
            <gpxtpx:hr>120</gpxtpx:hr>
          </gpxtpx:TrackPointExtension>
        </extensions>
      </trkpt>
      <trkpt lat="48.59415" lon="1.96737">
        <ele>151.4</ele>
        <time>2025-11-16T11:21:30Z</time>
        <extensions>
          <gpxtpx:TrackPointExtension xmlns:gpxtpx="http://www.garmin.com/xmlschemas/TrackPointExtension/v1">
            <gpxtpx:hr>120</gpxtpx:hr>
          </gpxtpx:TrackPointExtension>
        </extensions>
      </trkpt>
      <trkpt lat="48.59415" lon="1.96732">
        <ele>151.2</ele>
        <time>2025-11-16T11:21:32Z</time>
        <extensions>
          <gpxtpx:TrackPointExtension xmlns:gpxtpx="http://www.garmin.com/xmlschemas/TrackPointExtension/v1">
            <gpxtpx:hr>120</gpxtpx:hr>
          </gpxtpx:TrackPointExtension>
        </extensions>
      </trkpt>
      <trkpt lat="48.59415" lon="1.96727">
        <ele>151</ele>
        <time>2025-11-16T11:21:34Z</time>
        <extensions>
          <gpxtpx:TrackPointExtension xmlns:gpxtpx="http://www.garmin.com/xmlschemas/TrackPointExtension/v1">
            <gpxtpx:hr>120</gpxtpx:hr>
          </gpxtpx:TrackPointExtension>
        </extensions>
      </trkpt>
      <trkpt lat="48.59416" lon="1.96722">
        <ele>150.8</ele>
        <time>2025-11-16T11:21:36Z</time>
        <extensions>
          <gpxtpx:TrackPointExtension xmlns:gpxtpx="http://www.garmin.com/xmlschemas/TrackPointExtension/v1">
            <gpxtpx:hr>120</gpxtpx:hr>
          </gpxtpx:TrackPointExtension>
        </extensions>
      </trkpt>
      <trkpt lat="48.59416" lon="1.96718">
        <ele>150.6</ele>
        <time>2025-11-16T11:21:38Z</time>
        <extensions>
          <gpxtpx:TrackPointExtension xmlns:gpxtpx="http://www.garmin.com/xmlschemas/TrackPointExtension/v1">
            <gpxtpx:hr>120</gpxtpx:hr>
          </gpxtpx:TrackPointExtension>
        </extensions>
      </trkpt>
      <trkpt lat="48.59416" lon="1.96713">
        <ele>150.2</ele>
        <time>2025-11-16T11:21:40Z</time>
        <extensions>
          <gpxtpx:TrackPointExtension xmlns:gpxtpx="http://www.garmin.com/xmlschemas/TrackPointExtension/v1">
            <gpxtpx:hr>120</gpxtpx:hr>
          </gpxtpx:TrackPointExtension>
        </extensions>
      </trkpt>
      <trkpt lat="48.59416" lon="1.96708">
        <ele>150</ele>
        <time>2025-11-16T11:21:42Z</time>
        <extensions>
          <gpxtpx:TrackPointExtension xmlns:gpxtpx="http://www.garmin.com/xmlschemas/TrackPointExtension/v1">
            <gpxtpx:hr>120</gpxtpx:hr>
          </gpxtpx:TrackPointExtension>
        </extensions>
      </trkpt>
      <trkpt lat="48.59415" lon="1.96703">
        <ele>149.8</ele>
        <time>2025-11-16T11:21:44Z</time>
        <extensions>
          <gpxtpx:TrackPointExtension xmlns:gpxtpx="http://www.garmin.com/xmlschemas/TrackPointExtension/v1">
            <gpxtpx:hr>120</gpxtpx:hr>
          </gpxtpx:TrackPointExtension>
        </extensions>
      </trkpt>
      <trkpt lat="48.59413" lon="1.96698">
        <ele>149.4</ele>
        <time>2025-11-16T11:21:46Z</time>
        <extensions>
          <gpxtpx:TrackPointExtension xmlns:gpxtpx="http://www.garmin.com/xmlschemas/TrackPointExtension/v1">
            <gpxtpx:hr>120</gpxtpx:hr>
          </gpxtpx:TrackPointExtension>
        </extensions>
      </trkpt>
      <trkpt lat="48.59412" lon="1.96693">
        <ele>149.2</ele>
        <time>2025-11-16T11:21:48Z</time>
        <extensions>
          <gpxtpx:TrackPointExtension xmlns:gpxtpx="http://www.garmin.com/xmlschemas/TrackPointExtension/v1">
            <gpxtpx:hr>120</gpxtpx:hr>
          </gpxtpx:TrackPointExtension>
        </extensions>
      </trkpt>
      <trkpt lat="48.59411" lon="1.96691">
        <ele>149.2</ele>
        <time>2025-11-16T11:21:49Z</time>
        <extensions>
          <gpxtpx:TrackPointExtension xmlns:gpxtpx="http://www.garmin.com/xmlschemas/TrackPointExtension/v1">
            <gpxtpx:hr>120</gpxtpx:hr>
          </gpxtpx:TrackPointExtension>
        </extensions>
      </trkpt>
      <trkpt lat="48.59411" lon="1.96688">
        <ele>149</ele>
        <time>2025-11-16T11:21:50Z</time>
        <extensions>
          <gpxtpx:TrackPointExtension xmlns:gpxtpx="http://www.garmin.com/xmlschemas/TrackPointExtension/v1">
            <gpxtpx:hr>120</gpxtpx:hr>
          </gpxtpx:TrackPointExtension>
        </extensions>
      </trkpt>
      <trkpt lat="48.5941" lon="1.96685">
        <ele>149</ele>
        <time>2025-11-16T11:21:51Z</time>
        <extensions>
          <gpxtpx:TrackPointExtension xmlns:gpxtpx="http://www.garmin.com/xmlschemas/TrackPointExtension/v1">
            <gpxtpx:hr>120</gpxtpx:hr>
          </gpxtpx:TrackPointExtension>
        </extensions>
      </trkpt>
      <trkpt lat="48.59409" lon="1.96682">
        <ele>148.8</ele>
        <time>2025-11-16T11:21:52Z</time>
        <extensions>
          <gpxtpx:TrackPointExtension xmlns:gpxtpx="http://www.garmin.com/xmlschemas/TrackPointExtension/v1">
            <gpxtpx:hr>120</gpxtpx:hr>
          </gpxtpx:TrackPointExtension>
        </extensions>
      </trkpt>
      <trkpt lat="48.59409" lon="1.9668">
        <ele>148.6</ele>
        <time>2025-11-16T11:21:53Z</time>
        <extensions>
          <gpxtpx:TrackPointExtension xmlns:gpxtpx="http://www.garmin.com/xmlschemas/TrackPointExtension/v1">
            <gpxtpx:hr>121</gpxtpx:hr>
          </gpxtpx:TrackPointExtension>
        </extensions>
      </trkpt>
      <trkpt lat="48.59409" lon="1.96677">
        <ele>148.6</ele>
        <time>2025-11-16T11:21:54Z</time>
        <extensions>
          <gpxtpx:TrackPointExtension xmlns:gpxtpx="http://www.garmin.com/xmlschemas/TrackPointExtension/v1">
            <gpxtpx:hr>121</gpxtpx:hr>
          </gpxtpx:TrackPointExtension>
        </extensions>
      </trkpt>
      <trkpt lat="48.5941" lon="1.96672">
        <ele>148.4</ele>
        <time>2025-11-16T11:21:56Z</time>
        <extensions>
          <gpxtpx:TrackPointExtension xmlns:gpxtpx="http://www.garmin.com/xmlschemas/TrackPointExtension/v1">
            <gpxtpx:hr>121</gpxtpx:hr>
          </gpxtpx:TrackPointExtension>
        </extensions>
      </trkpt>
      <trkpt lat="48.59411" lon="1.96667">
        <ele>148.2</ele>
        <time>2025-11-16T11:21:58Z</time>
        <extensions>
          <gpxtpx:TrackPointExtension xmlns:gpxtpx="http://www.garmin.com/xmlschemas/TrackPointExtension/v1">
            <gpxtpx:hr>121</gpxtpx:hr>
          </gpxtpx:TrackPointExtension>
        </extensions>
      </trkpt>
      <trkpt lat="48.59412" lon="1.96665">
        <ele>148.2</ele>
        <time>2025-11-16T11:21:59Z</time>
        <extensions>
          <gpxtpx:TrackPointExtension xmlns:gpxtpx="http://www.garmin.com/xmlschemas/TrackPointExtension/v1">
            <gpxtpx:hr>121</gpxtpx:hr>
          </gpxtpx:TrackPointExtension>
        </extensions>
      </trkpt>
      <trkpt lat="48.59415" lon="1.96662">
        <ele>148</ele>
        <time>2025-11-16T11:22:01Z</time>
        <extensions>
          <gpxtpx:TrackPointExtension xmlns:gpxtpx="http://www.garmin.com/xmlschemas/TrackPointExtension/v1">
            <gpxtpx:hr>121</gpxtpx:hr>
          </gpxtpx:TrackPointExtension>
        </extensions>
      </trkpt>
      <trkpt lat="48.59417" lon="1.96658">
        <ele>147.8</ele>
        <time>2025-11-16T11:22:03Z</time>
        <extensions>
          <gpxtpx:TrackPointExtension xmlns:gpxtpx="http://www.garmin.com/xmlschemas/TrackPointExtension/v1">
            <gpxtpx:hr>121</gpxtpx:hr>
          </gpxtpx:TrackPointExtension>
        </extensions>
      </trkpt>
      <trkpt lat="48.5942" lon="1.96655">
        <ele>147.6</ele>
        <time>2025-11-16T11:22:05Z</time>
        <extensions>
          <gpxtpx:TrackPointExtension xmlns:gpxtpx="http://www.garmin.com/xmlschemas/TrackPointExtension/v1">
            <gpxtpx:hr>121</gpxtpx:hr>
          </gpxtpx:TrackPointExtension>
        </extensions>
      </trkpt>
      <trkpt lat="48.59422" lon="1.96651">
        <ele>147.2</ele>
        <time>2025-11-16T11:22:07Z</time>
        <extensions>
          <gpxtpx:TrackPointExtension xmlns:gpxtpx="http://www.garmin.com/xmlschemas/TrackPointExtension/v1">
            <gpxtpx:hr>120</gpxtpx:hr>
          </gpxtpx:TrackPointExtension>
        </extensions>
      </trkpt>
      <trkpt lat="48.59424" lon="1.96648">
        <ele>147</ele>
        <time>2025-11-16T11:22:09Z</time>
        <extensions>
          <gpxtpx:TrackPointExtension xmlns:gpxtpx="http://www.garmin.com/xmlschemas/TrackPointExtension/v1">
            <gpxtpx:hr>120</gpxtpx:hr>
          </gpxtpx:TrackPointExtension>
        </extensions>
      </trkpt>
      <trkpt lat="48.59426" lon="1.96643">
        <ele>147</ele>
        <time>2025-11-16T11:22:11Z</time>
        <extensions>
          <gpxtpx:TrackPointExtension xmlns:gpxtpx="http://www.garmin.com/xmlschemas/TrackPointExtension/v1">
            <gpxtpx:hr>120</gpxtpx:hr>
          </gpxtpx:TrackPointExtension>
        </extensions>
      </trkpt>
      <trkpt lat="48.59428" lon="1.96639">
        <ele>146.8</ele>
        <time>2025-11-16T11:22:13Z</time>
        <extensions>
          <gpxtpx:TrackPointExtension xmlns:gpxtpx="http://www.garmin.com/xmlschemas/TrackPointExtension/v1">
            <gpxtpx:hr>120</gpxtpx:hr>
          </gpxtpx:TrackPointExtension>
        </extensions>
      </trkpt>
      <trkpt lat="48.59429" lon="1.96635">
        <ele>146.6</ele>
        <time>2025-11-16T11:22:15Z</time>
        <extensions>
          <gpxtpx:TrackPointExtension xmlns:gpxtpx="http://www.garmin.com/xmlschemas/TrackPointExtension/v1">
            <gpxtpx:hr>120</gpxtpx:hr>
          </gpxtpx:TrackPointExtension>
        </extensions>
      </trkpt>
      <trkpt lat="48.5943" lon="1.96632">
        <ele>146.6</ele>
        <time>2025-11-16T11:22:16Z</time>
        <extensions>
          <gpxtpx:TrackPointExtension xmlns:gpxtpx="http://www.garmin.com/xmlschemas/TrackPointExtension/v1">
            <gpxtpx:hr>120</gpxtpx:hr>
          </gpxtpx:TrackPointExtension>
        </extensions>
      </trkpt>
      <trkpt lat="48.59432" lon="1.96628">
        <ele>146.4</ele>
        <time>2025-11-16T11:22:18Z</time>
        <extensions>
          <gpxtpx:TrackPointExtension xmlns:gpxtpx="http://www.garmin.com/xmlschemas/TrackPointExtension/v1">
            <gpxtpx:hr>120</gpxtpx:hr>
          </gpxtpx:TrackPointExtension>
        </extensions>
      </trkpt>
      <trkpt lat="48.59435" lon="1.96624">
        <ele>146.4</ele>
        <time>2025-11-16T11:22:20Z</time>
        <extensions>
          <gpxtpx:TrackPointExtension xmlns:gpxtpx="http://www.garmin.com/xmlschemas/TrackPointExtension/v1">
            <gpxtpx:hr>120</gpxtpx:hr>
          </gpxtpx:TrackPointExtension>
        </extensions>
      </trkpt>
      <trkpt lat="48.59437" lon="1.96622">
        <ele>146.4</ele>
        <time>2025-11-16T11:22:22Z</time>
        <extensions>
          <gpxtpx:TrackPointExtension xmlns:gpxtpx="http://www.garmin.com/xmlschemas/TrackPointExtension/v1">
            <gpxtpx:hr>120</gpxtpx:hr>
          </gpxtpx:TrackPointExtension>
        </extensions>
      </trkpt>
      <trkpt lat="48.59441" lon="1.96623">
        <ele>146.2</ele>
        <time>2025-11-16T11:22:24Z</time>
        <extensions>
          <gpxtpx:TrackPointExtension xmlns:gpxtpx="http://www.garmin.com/xmlschemas/TrackPointExtension/v1">
            <gpxtpx:hr>120</gpxtpx:hr>
          </gpxtpx:TrackPointExtension>
        </extensions>
      </trkpt>
      <trkpt lat="48.59444" lon="1.96625">
        <ele>146.2</ele>
        <time>2025-11-16T11:22:26Z</time>
        <extensions>
          <gpxtpx:TrackPointExtension xmlns:gpxtpx="http://www.garmin.com/xmlschemas/TrackPointExtension/v1">
            <gpxtpx:hr>120</gpxtpx:hr>
          </gpxtpx:TrackPointExtension>
        </extensions>
      </trkpt>
      <trkpt lat="48.59445" lon="1.96626">
        <ele>146.2</ele>
        <time>2025-11-16T11:22:27Z</time>
        <extensions>
          <gpxtpx:TrackPointExtension xmlns:gpxtpx="http://www.garmin.com/xmlschemas/TrackPointExtension/v1">
            <gpxtpx:hr>120</gpxtpx:hr>
          </gpxtpx:TrackPointExtension>
        </extensions>
      </trkpt>
      <trkpt lat="48.59447" lon="1.96627">
        <ele>146.4</ele>
        <time>2025-11-16T11:22:28Z</time>
        <extensions>
          <gpxtpx:TrackPointExtension xmlns:gpxtpx="http://www.garmin.com/xmlschemas/TrackPointExtension/v1">
            <gpxtpx:hr>120</gpxtpx:hr>
          </gpxtpx:TrackPointExtension>
        </extensions>
      </trkpt>
      <trkpt lat="48.5945" lon="1.9663">
        <ele>146.4</ele>
        <time>2025-11-16T11:22:30Z</time>
        <extensions>
          <gpxtpx:TrackPointExtension xmlns:gpxtpx="http://www.garmin.com/xmlschemas/TrackPointExtension/v1">
            <gpxtpx:hr>120</gpxtpx:hr>
          </gpxtpx:TrackPointExtension>
        </extensions>
      </trkpt>
      <trkpt lat="48.59452" lon="1.96632">
        <ele>146.4</ele>
        <time>2025-11-16T11:22:32Z</time>
        <extensions>
          <gpxtpx:TrackPointExtension xmlns:gpxtpx="http://www.garmin.com/xmlschemas/TrackPointExtension/v1">
            <gpxtpx:hr>120</gpxtpx:hr>
          </gpxtpx:TrackPointExtension>
        </extensions>
      </trkpt>
      <trkpt lat="48.59455" lon="1.96634">
        <ele>146.4</ele>
        <time>2025-11-16T11:22:34Z</time>
        <extensions>
          <gpxtpx:TrackPointExtension xmlns:gpxtpx="http://www.garmin.com/xmlschemas/TrackPointExtension/v1">
            <gpxtpx:hr>120</gpxtpx:hr>
          </gpxtpx:TrackPointExtension>
        </extensions>
      </trkpt>
      <trkpt lat="48.59457" lon="1.96636">
        <ele>146.2</ele>
        <time>2025-11-16T11:22:36Z</time>
        <extensions>
          <gpxtpx:TrackPointExtension xmlns:gpxtpx="http://www.garmin.com/xmlschemas/TrackPointExtension/v1">
            <gpxtpx:hr>120</gpxtpx:hr>
          </gpxtpx:TrackPointExtension>
        </extensions>
      </trkpt>
      <trkpt lat="48.5946" lon="1.96637">
        <ele>146.2</ele>
        <time>2025-11-16T11:22:38Z</time>
        <extensions>
          <gpxtpx:TrackPointExtension xmlns:gpxtpx="http://www.garmin.com/xmlschemas/TrackPointExtension/v1">
            <gpxtpx:hr>120</gpxtpx:hr>
          </gpxtpx:TrackPointExtension>
        </extensions>
      </trkpt>
      <trkpt lat="48.59463" lon="1.96638">
        <ele>146</ele>
        <time>2025-11-16T11:22:40Z</time>
        <extensions>
          <gpxtpx:TrackPointExtension xmlns:gpxtpx="http://www.garmin.com/xmlschemas/TrackPointExtension/v1">
            <gpxtpx:hr>119</gpxtpx:hr>
          </gpxtpx:TrackPointExtension>
        </extensions>
      </trkpt>
      <trkpt lat="48.59465" lon="1.9664">
        <ele>145.8</ele>
        <time>2025-11-16T11:22:42Z</time>
        <extensions>
          <gpxtpx:TrackPointExtension xmlns:gpxtpx="http://www.garmin.com/xmlschemas/TrackPointExtension/v1">
            <gpxtpx:hr>119</gpxtpx:hr>
          </gpxtpx:TrackPointExtension>
        </extensions>
      </trkpt>
      <trkpt lat="48.59468" lon="1.96641">
        <ele>145.6</ele>
        <time>2025-11-16T11:22:44Z</time>
        <extensions>
          <gpxtpx:TrackPointExtension xmlns:gpxtpx="http://www.garmin.com/xmlschemas/TrackPointExtension/v1">
            <gpxtpx:hr>119</gpxtpx:hr>
          </gpxtpx:TrackPointExtension>
        </extensions>
      </trkpt>
      <trkpt lat="48.59471" lon="1.96643">
        <ele>145.6</ele>
        <time>2025-11-16T11:22:46Z</time>
        <extensions>
          <gpxtpx:TrackPointExtension xmlns:gpxtpx="http://www.garmin.com/xmlschemas/TrackPointExtension/v1">
            <gpxtpx:hr>118</gpxtpx:hr>
          </gpxtpx:TrackPointExtension>
        </extensions>
      </trkpt>
      <trkpt lat="48.59474" lon="1.96644">
        <ele>145.6</ele>
        <time>2025-11-16T11:22:48Z</time>
        <extensions>
          <gpxtpx:TrackPointExtension xmlns:gpxtpx="http://www.garmin.com/xmlschemas/TrackPointExtension/v1">
            <gpxtpx:hr>117</gpxtpx:hr>
          </gpxtpx:TrackPointExtension>
        </extensions>
      </trkpt>
      <trkpt lat="48.59477" lon="1.96646">
        <ele>145.6</ele>
        <time>2025-11-16T11:22:50Z</time>
        <extensions>
          <gpxtpx:TrackPointExtension xmlns:gpxtpx="http://www.garmin.com/xmlschemas/TrackPointExtension/v1">
            <gpxtpx:hr>118</gpxtpx:hr>
          </gpxtpx:TrackPointExtension>
        </extensions>
      </trkpt>
      <trkpt lat="48.59479" lon="1.96647">
        <ele>145.6</ele>
        <time>2025-11-16T11:22:51Z</time>
        <extensions>
          <gpxtpx:TrackPointExtension xmlns:gpxtpx="http://www.garmin.com/xmlschemas/TrackPointExtension/v1">
            <gpxtpx:hr>118</gpxtpx:hr>
          </gpxtpx:TrackPointExtension>
        </extensions>
      </trkpt>
      <trkpt lat="48.59483" lon="1.96649">
        <ele>145.6</ele>
        <time>2025-11-16T11:22:53Z</time>
        <extensions>
          <gpxtpx:TrackPointExtension xmlns:gpxtpx="http://www.garmin.com/xmlschemas/TrackPointExtension/v1">
            <gpxtpx:hr>118</gpxtpx:hr>
          </gpxtpx:TrackPointExtension>
        </extensions>
      </trkpt>
      <trkpt lat="48.59485" lon="1.96651">
        <ele>145.6</ele>
        <time>2025-11-16T11:22:55Z</time>
        <extensions>
          <gpxtpx:TrackPointExtension xmlns:gpxtpx="http://www.garmin.com/xmlschemas/TrackPointExtension/v1">
            <gpxtpx:hr>119</gpxtpx:hr>
          </gpxtpx:TrackPointExtension>
        </extensions>
      </trkpt>
      <trkpt lat="48.59488" lon="1.96653">
        <ele>145.8</ele>
        <time>2025-11-16T11:22:57Z</time>
        <extensions>
          <gpxtpx:TrackPointExtension xmlns:gpxtpx="http://www.garmin.com/xmlschemas/TrackPointExtension/v1">
            <gpxtpx:hr>119</gpxtpx:hr>
          </gpxtpx:TrackPointExtension>
        </extensions>
      </trkpt>
      <trkpt lat="48.5949" lon="1.96656">
        <ele>145.8</ele>
        <time>2025-11-16T11:22:59Z</time>
        <extensions>
          <gpxtpx:TrackPointExtension xmlns:gpxtpx="http://www.garmin.com/xmlschemas/TrackPointExtension/v1">
            <gpxtpx:hr>118</gpxtpx:hr>
          </gpxtpx:TrackPointExtension>
        </extensions>
      </trkpt>
      <trkpt lat="48.59492" lon="1.96658">
        <ele>146</ele>
        <time>2025-11-16T11:23:01Z</time>
        <extensions>
          <gpxtpx:TrackPointExtension xmlns:gpxtpx="http://www.garmin.com/xmlschemas/TrackPointExtension/v1">
            <gpxtpx:hr>118</gpxtpx:hr>
          </gpxtpx:TrackPointExtension>
        </extensions>
      </trkpt>
      <trkpt lat="48.59494" lon="1.9666">
        <ele>146</ele>
        <time>2025-11-16T11:23:02Z</time>
        <extensions>
          <gpxtpx:TrackPointExtension xmlns:gpxtpx="http://www.garmin.com/xmlschemas/TrackPointExtension/v1">
            <gpxtpx:hr>118</gpxtpx:hr>
          </gpxtpx:TrackPointExtension>
        </extensions>
      </trkpt>
      <trkpt lat="48.59496" lon="1.96663">
        <ele>146.2</ele>
        <time>2025-11-16T11:23:04Z</time>
        <extensions>
          <gpxtpx:TrackPointExtension xmlns:gpxtpx="http://www.garmin.com/xmlschemas/TrackPointExtension/v1">
            <gpxtpx:hr>118</gpxtpx:hr>
          </gpxtpx:TrackPointExtension>
        </extensions>
      </trkpt>
      <trkpt lat="48.59499" lon="1.96665">
        <ele>146.4</ele>
        <time>2025-11-16T11:23:06Z</time>
        <extensions>
          <gpxtpx:TrackPointExtension xmlns:gpxtpx="http://www.garmin.com/xmlschemas/TrackPointExtension/v1">
            <gpxtpx:hr>118</gpxtpx:hr>
          </gpxtpx:TrackPointExtension>
        </extensions>
      </trkpt>
      <trkpt lat="48.59502" lon="1.96668">
        <ele>146.4</ele>
        <time>2025-11-16T11:23:08Z</time>
        <extensions>
          <gpxtpx:TrackPointExtension xmlns:gpxtpx="http://www.garmin.com/xmlschemas/TrackPointExtension/v1">
            <gpxtpx:hr>118</gpxtpx:hr>
          </gpxtpx:TrackPointExtension>
        </extensions>
      </trkpt>
      <trkpt lat="48.59504" lon="1.96671">
        <ele>146.6</ele>
        <time>2025-11-16T11:23:10Z</time>
        <extensions>
          <gpxtpx:TrackPointExtension xmlns:gpxtpx="http://www.garmin.com/xmlschemas/TrackPointExtension/v1">
            <gpxtpx:hr>118</gpxtpx:hr>
          </gpxtpx:TrackPointExtension>
        </extensions>
      </trkpt>
      <trkpt lat="48.59506" lon="1.96673">
        <ele>146.6</ele>
        <time>2025-11-16T11:23:11Z</time>
        <extensions>
          <gpxtpx:TrackPointExtension xmlns:gpxtpx="http://www.garmin.com/xmlschemas/TrackPointExtension/v1">
            <gpxtpx:hr>118</gpxtpx:hr>
          </gpxtpx:TrackPointExtension>
        </extensions>
      </trkpt>
      <trkpt lat="48.59508" lon="1.96676">
        <ele>146.8</ele>
        <time>2025-11-16T11:23:13Z</time>
        <extensions>
          <gpxtpx:TrackPointExtension xmlns:gpxtpx="http://www.garmin.com/xmlschemas/TrackPointExtension/v1">
            <gpxtpx:hr>118</gpxtpx:hr>
          </gpxtpx:TrackPointExtension>
        </extensions>
      </trkpt>
      <trkpt lat="48.5951" lon="1.96679">
        <ele>146.8</ele>
        <time>2025-11-16T11:23:15Z</time>
        <extensions>
          <gpxtpx:TrackPointExtension xmlns:gpxtpx="http://www.garmin.com/xmlschemas/TrackPointExtension/v1">
            <gpxtpx:hr>118</gpxtpx:hr>
          </gpxtpx:TrackPointExtension>
        </extensions>
      </trkpt>
      <trkpt lat="48.59512" lon="1.96682">
        <ele>147</ele>
        <time>2025-11-16T11:23:17Z</time>
        <extensions>
          <gpxtpx:TrackPointExtension xmlns:gpxtpx="http://www.garmin.com/xmlschemas/TrackPointExtension/v1">
            <gpxtpx:hr>118</gpxtpx:hr>
          </gpxtpx:TrackPointExtension>
        </extensions>
      </trkpt>
      <trkpt lat="48.59514" lon="1.96683">
        <ele>147</ele>
        <time>2025-11-16T11:23:18Z</time>
        <extensions>
          <gpxtpx:TrackPointExtension xmlns:gpxtpx="http://www.garmin.com/xmlschemas/TrackPointExtension/v1">
            <gpxtpx:hr>118</gpxtpx:hr>
          </gpxtpx:TrackPointExtension>
        </extensions>
      </trkpt>
      <trkpt lat="48.59516" lon="1.96684">
        <ele>147</ele>
        <time>2025-11-16T11:23:19Z</time>
        <extensions>
          <gpxtpx:TrackPointExtension xmlns:gpxtpx="http://www.garmin.com/xmlschemas/TrackPointExtension/v1">
            <gpxtpx:hr>118</gpxtpx:hr>
          </gpxtpx:TrackPointExtension>
        </extensions>
      </trkpt>
      <trkpt lat="48.59518" lon="1.96687">
        <ele>147.2</ele>
        <time>2025-11-16T11:23:21Z</time>
        <extensions>
          <gpxtpx:TrackPointExtension xmlns:gpxtpx="http://www.garmin.com/xmlschemas/TrackPointExtension/v1">
            <gpxtpx:hr>118</gpxtpx:hr>
          </gpxtpx:TrackPointExtension>
        </extensions>
      </trkpt>
      <trkpt lat="48.5952" lon="1.96688">
        <ele>147.2</ele>
        <time>2025-11-16T11:23:22Z</time>
        <extensions>
          <gpxtpx:TrackPointExtension xmlns:gpxtpx="http://www.garmin.com/xmlschemas/TrackPointExtension/v1">
            <gpxtpx:hr>118</gpxtpx:hr>
          </gpxtpx:TrackPointExtension>
        </extensions>
      </trkpt>
      <trkpt lat="48.59522" lon="1.96691">
        <ele>147.2</ele>
        <time>2025-11-16T11:23:24Z</time>
        <extensions>
          <gpxtpx:TrackPointExtension xmlns:gpxtpx="http://www.garmin.com/xmlschemas/TrackPointExtension/v1">
            <gpxtpx:hr>118</gpxtpx:hr>
          </gpxtpx:TrackPointExtension>
        </extensions>
      </trkpt>
      <trkpt lat="48.59524" lon="1.96692">
        <ele>147.4</ele>
        <time>2025-11-16T11:23:25Z</time>
        <extensions>
          <gpxtpx:TrackPointExtension xmlns:gpxtpx="http://www.garmin.com/xmlschemas/TrackPointExtension/v1">
            <gpxtpx:hr>118</gpxtpx:hr>
          </gpxtpx:TrackPointExtension>
        </extensions>
      </trkpt>
      <trkpt lat="48.59526" lon="1.96695">
        <ele>147.4</ele>
        <time>2025-11-16T11:23:27Z</time>
        <extensions>
          <gpxtpx:TrackPointExtension xmlns:gpxtpx="http://www.garmin.com/xmlschemas/TrackPointExtension/v1">
            <gpxtpx:hr>118</gpxtpx:hr>
          </gpxtpx:TrackPointExtension>
        </extensions>
      </trkpt>
      <trkpt lat="48.59529" lon="1.96697">
        <ele>147.4</ele>
        <time>2025-11-16T11:23:29Z</time>
        <extensions>
          <gpxtpx:TrackPointExtension xmlns:gpxtpx="http://www.garmin.com/xmlschemas/TrackPointExtension/v1">
            <gpxtpx:hr>118</gpxtpx:hr>
          </gpxtpx:TrackPointExtension>
        </extensions>
      </trkpt>
      <trkpt lat="48.59532" lon="1.96699">
        <ele>147.6</ele>
        <time>2025-11-16T11:23:31Z</time>
        <extensions>
          <gpxtpx:TrackPointExtension xmlns:gpxtpx="http://www.garmin.com/xmlschemas/TrackPointExtension/v1">
            <gpxtpx:hr>117</gpxtpx:hr>
          </gpxtpx:TrackPointExtension>
        </extensions>
      </trkpt>
      <trkpt lat="48.59534" lon="1.96701">
        <ele>147.6</ele>
        <time>2025-11-16T11:23:33Z</time>
        <extensions>
          <gpxtpx:TrackPointExtension xmlns:gpxtpx="http://www.garmin.com/xmlschemas/TrackPointExtension/v1">
            <gpxtpx:hr>116</gpxtpx:hr>
          </gpxtpx:TrackPointExtension>
        </extensions>
      </trkpt>
      <trkpt lat="48.59535" lon="1.96702">
        <ele>147.6</ele>
        <time>2025-11-16T11:23:34Z</time>
        <extensions>
          <gpxtpx:TrackPointExtension xmlns:gpxtpx="http://www.garmin.com/xmlschemas/TrackPointExtension/v1">
            <gpxtpx:hr>116</gpxtpx:hr>
          </gpxtpx:TrackPointExtension>
        </extensions>
      </trkpt>
      <trkpt lat="48.59538" lon="1.96705">
        <ele>147.6</ele>
        <time>2025-11-16T11:23:36Z</time>
        <extensions>
          <gpxtpx:TrackPointExtension xmlns:gpxtpx="http://www.garmin.com/xmlschemas/TrackPointExtension/v1">
            <gpxtpx:hr>116</gpxtpx:hr>
          </gpxtpx:TrackPointExtension>
        </extensions>
      </trkpt>
      <trkpt lat="48.5954" lon="1.96708">
        <ele>147.6</ele>
        <time>2025-11-16T11:23:38Z</time>
        <extensions>
          <gpxtpx:TrackPointExtension xmlns:gpxtpx="http://www.garmin.com/xmlschemas/TrackPointExtension/v1">
            <gpxtpx:hr>116</gpxtpx:hr>
          </gpxtpx:TrackPointExtension>
        </extensions>
      </trkpt>
      <trkpt lat="48.59543" lon="1.96711">
        <ele>147.6</ele>
        <time>2025-11-16T11:23:40Z</time>
        <extensions>
          <gpxtpx:TrackPointExtension xmlns:gpxtpx="http://www.garmin.com/xmlschemas/TrackPointExtension/v1">
            <gpxtpx:hr>116</gpxtpx:hr>
          </gpxtpx:TrackPointExtension>
        </extensions>
      </trkpt>
      <trkpt lat="48.59546" lon="1.96714">
        <ele>147.8</ele>
        <time>2025-11-16T11:23:42Z</time>
        <extensions>
          <gpxtpx:TrackPointExtension xmlns:gpxtpx="http://www.garmin.com/xmlschemas/TrackPointExtension/v1">
            <gpxtpx:hr>115</gpxtpx:hr>
          </gpxtpx:TrackPointExtension>
        </extensions>
      </trkpt>
      <trkpt lat="48.59548" lon="1.96716">
        <ele>147.8</ele>
        <time>2025-11-16T11:23:44Z</time>
        <extensions>
          <gpxtpx:TrackPointExtension xmlns:gpxtpx="http://www.garmin.com/xmlschemas/TrackPointExtension/v1">
            <gpxtpx:hr>115</gpxtpx:hr>
          </gpxtpx:TrackPointExtension>
        </extensions>
      </trkpt>
      <trkpt lat="48.59552" lon="1.96719">
        <ele>147.6</ele>
        <time>2025-11-16T11:23:46Z</time>
        <extensions>
          <gpxtpx:TrackPointExtension xmlns:gpxtpx="http://www.garmin.com/xmlschemas/TrackPointExtension/v1">
            <gpxtpx:hr>115</gpxtpx:hr>
          </gpxtpx:TrackPointExtension>
        </extensions>
      </trkpt>
      <trkpt lat="48.59553" lon="1.9672">
        <ele>147.6</ele>
        <time>2025-11-16T11:23:47Z</time>
        <extensions>
          <gpxtpx:TrackPointExtension xmlns:gpxtpx="http://www.garmin.com/xmlschemas/TrackPointExtension/v1">
            <gpxtpx:hr>115</gpxtpx:hr>
          </gpxtpx:TrackPointExtension>
        </extensions>
      </trkpt>
      <trkpt lat="48.59555" lon="1.96722">
        <ele>147.4</ele>
        <time>2025-11-16T11:23:48Z</time>
        <extensions>
          <gpxtpx:TrackPointExtension xmlns:gpxtpx="http://www.garmin.com/xmlschemas/TrackPointExtension/v1">
            <gpxtpx:hr>116</gpxtpx:hr>
          </gpxtpx:TrackPointExtension>
        </extensions>
      </trkpt>
      <trkpt lat="48.59557" lon="1.96724">
        <ele>147.4</ele>
        <time>2025-11-16T11:23:49Z</time>
        <extensions>
          <gpxtpx:TrackPointExtension xmlns:gpxtpx="http://www.garmin.com/xmlschemas/TrackPointExtension/v1">
            <gpxtpx:hr>115</gpxtpx:hr>
          </gpxtpx:TrackPointExtension>
        </extensions>
      </trkpt>
      <trkpt lat="48.59559" lon="1.96726">
        <ele>147.4</ele>
        <time>2025-11-16T11:23:50Z</time>
        <extensions>
          <gpxtpx:TrackPointExtension xmlns:gpxtpx="http://www.garmin.com/xmlschemas/TrackPointExtension/v1">
            <gpxtpx:hr>115</gpxtpx:hr>
          </gpxtpx:TrackPointExtension>
        </extensions>
      </trkpt>
      <trkpt lat="48.5956" lon="1.96728">
        <ele>147.2</ele>
        <time>2025-11-16T11:23:51Z</time>
        <extensions>
          <gpxtpx:TrackPointExtension xmlns:gpxtpx="http://www.garmin.com/xmlschemas/TrackPointExtension/v1">
            <gpxtpx:hr>116</gpxtpx:hr>
          </gpxtpx:TrackPointExtension>
        </extensions>
      </trkpt>
      <trkpt lat="48.59562" lon="1.9673">
        <ele>147.2</ele>
        <time>2025-11-16T11:23:52Z</time>
        <extensions>
          <gpxtpx:TrackPointExtension xmlns:gpxtpx="http://www.garmin.com/xmlschemas/TrackPointExtension/v1">
            <gpxtpx:hr>116</gpxtpx:hr>
          </gpxtpx:TrackPointExtension>
        </extensions>
      </trkpt>
      <trkpt lat="48.59564" lon="1.96732">
        <ele>147.2</ele>
        <time>2025-11-16T11:23:53Z</time>
        <extensions>
          <gpxtpx:TrackPointExtension xmlns:gpxtpx="http://www.garmin.com/xmlschemas/TrackPointExtension/v1">
            <gpxtpx:hr>116</gpxtpx:hr>
          </gpxtpx:TrackPointExtension>
        </extensions>
      </trkpt>
      <trkpt lat="48.59566" lon="1.96734">
        <ele>147.2</ele>
        <time>2025-11-16T11:23:54Z</time>
        <extensions>
          <gpxtpx:TrackPointExtension xmlns:gpxtpx="http://www.garmin.com/xmlschemas/TrackPointExtension/v1">
            <gpxtpx:hr>116</gpxtpx:hr>
          </gpxtpx:TrackPointExtension>
        </extensions>
      </trkpt>
      <trkpt lat="48.59568" lon="1.96736">
        <ele>147</ele>
        <time>2025-11-16T11:23:55Z</time>
        <extensions>
          <gpxtpx:TrackPointExtension xmlns:gpxtpx="http://www.garmin.com/xmlschemas/TrackPointExtension/v1">
            <gpxtpx:hr>116</gpxtpx:hr>
          </gpxtpx:TrackPointExtension>
        </extensions>
      </trkpt>
      <trkpt lat="48.5957" lon="1.96738">
        <ele>147</ele>
        <time>2025-11-16T11:23:56Z</time>
        <extensions>
          <gpxtpx:TrackPointExtension xmlns:gpxtpx="http://www.garmin.com/xmlschemas/TrackPointExtension/v1">
            <gpxtpx:hr>116</gpxtpx:hr>
          </gpxtpx:TrackPointExtension>
        </extensions>
      </trkpt>
      <trkpt lat="48.59572" lon="1.9674">
        <ele>146.8</ele>
        <time>2025-11-16T11:23:57Z</time>
        <extensions>
          <gpxtpx:TrackPointExtension xmlns:gpxtpx="http://www.garmin.com/xmlschemas/TrackPointExtension/v1">
            <gpxtpx:hr>116</gpxtpx:hr>
          </gpxtpx:TrackPointExtension>
        </extensions>
      </trkpt>
      <trkpt lat="48.59574" lon="1.96742">
        <ele>146.6</ele>
        <time>2025-11-16T11:23:58Z</time>
        <extensions>
          <gpxtpx:TrackPointExtension xmlns:gpxtpx="http://www.garmin.com/xmlschemas/TrackPointExtension/v1">
            <gpxtpx:hr>116</gpxtpx:hr>
          </gpxtpx:TrackPointExtension>
        </extensions>
      </trkpt>
      <trkpt lat="48.59576" lon="1.96744">
        <ele>146.6</ele>
        <time>2025-11-16T11:23:59Z</time>
        <extensions>
          <gpxtpx:TrackPointExtension xmlns:gpxtpx="http://www.garmin.com/xmlschemas/TrackPointExtension/v1">
            <gpxtpx:hr>116</gpxtpx:hr>
          </gpxtpx:TrackPointExtension>
        </extensions>
      </trkpt>
      <trkpt lat="48.59578" lon="1.96746">
        <ele>146.4</ele>
        <time>2025-11-16T11:24:00Z</time>
        <extensions>
          <gpxtpx:TrackPointExtension xmlns:gpxtpx="http://www.garmin.com/xmlschemas/TrackPointExtension/v1">
            <gpxtpx:hr>116</gpxtpx:hr>
          </gpxtpx:TrackPointExtension>
        </extensions>
      </trkpt>
      <trkpt lat="48.5958" lon="1.96748">
        <ele>146.4</ele>
        <time>2025-11-16T11:24:01Z</time>
        <extensions>
          <gpxtpx:TrackPointExtension xmlns:gpxtpx="http://www.garmin.com/xmlschemas/TrackPointExtension/v1">
            <gpxtpx:hr>116</gpxtpx:hr>
          </gpxtpx:TrackPointExtension>
        </extensions>
      </trkpt>
      <trkpt lat="48.59582" lon="1.96751">
        <ele>146.2</ele>
        <time>2025-11-16T11:24:03Z</time>
        <extensions>
          <gpxtpx:TrackPointExtension xmlns:gpxtpx="http://www.garmin.com/xmlschemas/TrackPointExtension/v1">
            <gpxtpx:hr>117</gpxtpx:hr>
          </gpxtpx:TrackPointExtension>
        </extensions>
      </trkpt>
      <trkpt lat="48.59583" lon="1.96753">
        <ele>146.2</ele>
        <time>2025-11-16T11:24:04Z</time>
        <extensions>
          <gpxtpx:TrackPointExtension xmlns:gpxtpx="http://www.garmin.com/xmlschemas/TrackPointExtension/v1">
            <gpxtpx:hr>117</gpxtpx:hr>
          </gpxtpx:TrackPointExtension>
        </extensions>
      </trkpt>
      <trkpt lat="48.59586" lon="1.96756">
        <ele>146.2</ele>
        <time>2025-11-16T11:24:06Z</time>
        <extensions>
          <gpxtpx:TrackPointExtension xmlns:gpxtpx="http://www.garmin.com/xmlschemas/TrackPointExtension/v1">
            <gpxtpx:hr>117</gpxtpx:hr>
          </gpxtpx:TrackPointExtension>
        </extensions>
      </trkpt>
      <trkpt lat="48.59588" lon="1.96758">
        <ele>146.2</ele>
        <time>2025-11-16T11:24:08Z</time>
        <extensions>
          <gpxtpx:TrackPointExtension xmlns:gpxtpx="http://www.garmin.com/xmlschemas/TrackPointExtension/v1">
            <gpxtpx:hr>117</gpxtpx:hr>
          </gpxtpx:TrackPointExtension>
        </extensions>
      </trkpt>
      <trkpt lat="48.5959" lon="1.9676">
        <ele>146</ele>
        <time>2025-11-16T11:24:09Z</time>
        <extensions>
          <gpxtpx:TrackPointExtension xmlns:gpxtpx="http://www.garmin.com/xmlschemas/TrackPointExtension/v1">
            <gpxtpx:hr>117</gpxtpx:hr>
          </gpxtpx:TrackPointExtension>
        </extensions>
      </trkpt>
      <trkpt lat="48.59592" lon="1.96762">
        <ele>146</ele>
        <time>2025-11-16T11:24:10Z</time>
        <extensions>
          <gpxtpx:TrackPointExtension xmlns:gpxtpx="http://www.garmin.com/xmlschemas/TrackPointExtension/v1">
            <gpxtpx:hr>117</gpxtpx:hr>
          </gpxtpx:TrackPointExtension>
        </extensions>
      </trkpt>
      <trkpt lat="48.59594" lon="1.96764">
        <ele>146</ele>
        <time>2025-11-16T11:24:11Z</time>
        <extensions>
          <gpxtpx:TrackPointExtension xmlns:gpxtpx="http://www.garmin.com/xmlschemas/TrackPointExtension/v1">
            <gpxtpx:hr>117</gpxtpx:hr>
          </gpxtpx:TrackPointExtension>
        </extensions>
      </trkpt>
      <trkpt lat="48.59596" lon="1.96766">
        <ele>146</ele>
        <time>2025-11-16T11:24:12Z</time>
        <extensions>
          <gpxtpx:TrackPointExtension xmlns:gpxtpx="http://www.garmin.com/xmlschemas/TrackPointExtension/v1">
            <gpxtpx:hr>118</gpxtpx:hr>
          </gpxtpx:TrackPointExtension>
        </extensions>
      </trkpt>
      <trkpt lat="48.59598" lon="1.96768">
        <ele>146</ele>
        <time>2025-11-16T11:24:13Z</time>
        <extensions>
          <gpxtpx:TrackPointExtension xmlns:gpxtpx="http://www.garmin.com/xmlschemas/TrackPointExtension/v1">
            <gpxtpx:hr>118</gpxtpx:hr>
          </gpxtpx:TrackPointExtension>
        </extensions>
      </trkpt>
      <trkpt lat="48.596" lon="1.96771">
        <ele>146</ele>
        <time>2025-11-16T11:24:14Z</time>
        <extensions>
          <gpxtpx:TrackPointExtension xmlns:gpxtpx="http://www.garmin.com/xmlschemas/TrackPointExtension/v1">
            <gpxtpx:hr>118</gpxtpx:hr>
          </gpxtpx:TrackPointExtension>
        </extensions>
      </trkpt>
      <trkpt lat="48.59602" lon="1.96773">
        <ele>146.2</ele>
        <time>2025-11-16T11:24:15Z</time>
        <extensions>
          <gpxtpx:TrackPointExtension xmlns:gpxtpx="http://www.garmin.com/xmlschemas/TrackPointExtension/v1">
            <gpxtpx:hr>118</gpxtpx:hr>
          </gpxtpx:TrackPointExtension>
        </extensions>
      </trkpt>
      <trkpt lat="48.59604" lon="1.96775">
        <ele>146.2</ele>
        <time>2025-11-16T11:24:16Z</time>
        <extensions>
          <gpxtpx:TrackPointExtension xmlns:gpxtpx="http://www.garmin.com/xmlschemas/TrackPointExtension/v1">
            <gpxtpx:hr>118</gpxtpx:hr>
          </gpxtpx:TrackPointExtension>
        </extensions>
      </trkpt>
      <trkpt lat="48.59606" lon="1.96778">
        <ele>146.2</ele>
        <time>2025-11-16T11:24:17Z</time>
        <extensions>
          <gpxtpx:TrackPointExtension xmlns:gpxtpx="http://www.garmin.com/xmlschemas/TrackPointExtension/v1">
            <gpxtpx:hr>118</gpxtpx:hr>
          </gpxtpx:TrackPointExtension>
        </extensions>
      </trkpt>
      <trkpt lat="48.59609" lon="1.9678">
        <ele>146.2</ele>
        <time>2025-11-16T11:24:18Z</time>
        <extensions>
          <gpxtpx:TrackPointExtension xmlns:gpxtpx="http://www.garmin.com/xmlschemas/TrackPointExtension/v1">
            <gpxtpx:hr>118</gpxtpx:hr>
          </gpxtpx:TrackPointExtension>
        </extensions>
      </trkpt>
      <trkpt lat="48.59612" lon="1.96783">
        <ele>146.2</ele>
        <time>2025-11-16T11:24:19Z</time>
        <extensions>
          <gpxtpx:TrackPointExtension xmlns:gpxtpx="http://www.garmin.com/xmlschemas/TrackPointExtension/v1">
            <gpxtpx:hr>119</gpxtpx:hr>
          </gpxtpx:TrackPointExtension>
        </extensions>
      </trkpt>
      <trkpt lat="48.59615" lon="1.96786">
        <ele>146.2</ele>
        <time>2025-11-16T11:24:20Z</time>
        <extensions>
          <gpxtpx:TrackPointExtension xmlns:gpxtpx="http://www.garmin.com/xmlschemas/TrackPointExtension/v1">
            <gpxtpx:hr>119</gpxtpx:hr>
          </gpxtpx:TrackPointExtension>
        </extensions>
      </trkpt>
      <trkpt lat="48.59617" lon="1.96789">
        <ele>146.2</ele>
        <time>2025-11-16T11:24:21Z</time>
        <extensions>
          <gpxtpx:TrackPointExtension xmlns:gpxtpx="http://www.garmin.com/xmlschemas/TrackPointExtension/v1">
            <gpxtpx:hr>119</gpxtpx:hr>
          </gpxtpx:TrackPointExtension>
        </extensions>
      </trkpt>
      <trkpt lat="48.5962" lon="1.96792">
        <ele>146.2</ele>
        <time>2025-11-16T11:24:22Z</time>
        <extensions>
          <gpxtpx:TrackPointExtension xmlns:gpxtpx="http://www.garmin.com/xmlschemas/TrackPointExtension/v1">
            <gpxtpx:hr>119</gpxtpx:hr>
          </gpxtpx:TrackPointExtension>
        </extensions>
      </trkpt>
      <trkpt lat="48.59623" lon="1.96795">
        <ele>146.2</ele>
        <time>2025-11-16T11:24:23Z</time>
        <extensions>
          <gpxtpx:TrackPointExtension xmlns:gpxtpx="http://www.garmin.com/xmlschemas/TrackPointExtension/v1">
            <gpxtpx:hr>119</gpxtpx:hr>
          </gpxtpx:TrackPointExtension>
        </extensions>
      </trkpt>
      <trkpt lat="48.59626" lon="1.96798">
        <ele>146.2</ele>
        <time>2025-11-16T11:24:24Z</time>
        <extensions>
          <gpxtpx:TrackPointExtension xmlns:gpxtpx="http://www.garmin.com/xmlschemas/TrackPointExtension/v1">
            <gpxtpx:hr>120</gpxtpx:hr>
          </gpxtpx:TrackPointExtension>
        </extensions>
      </trkpt>
      <trkpt lat="48.59629" lon="1.96801">
        <ele>146.2</ele>
        <time>2025-11-16T11:24:25Z</time>
        <extensions>
          <gpxtpx:TrackPointExtension xmlns:gpxtpx="http://www.garmin.com/xmlschemas/TrackPointExtension/v1">
            <gpxtpx:hr>120</gpxtpx:hr>
          </gpxtpx:TrackPointExtension>
        </extensions>
      </trkpt>
      <trkpt lat="48.59632" lon="1.96804">
        <ele>146.2</ele>
        <time>2025-11-16T11:24:26Z</time>
        <extensions>
          <gpxtpx:TrackPointExtension xmlns:gpxtpx="http://www.garmin.com/xmlschemas/TrackPointExtension/v1">
            <gpxtpx:hr>120</gpxtpx:hr>
          </gpxtpx:TrackPointExtension>
        </extensions>
      </trkpt>
      <trkpt lat="48.59635" lon="1.96806">
        <ele>146</ele>
        <time>2025-11-16T11:24:27Z</time>
        <extensions>
          <gpxtpx:TrackPointExtension xmlns:gpxtpx="http://www.garmin.com/xmlschemas/TrackPointExtension/v1">
            <gpxtpx:hr>120</gpxtpx:hr>
          </gpxtpx:TrackPointExtension>
        </extensions>
      </trkpt>
      <trkpt lat="48.59638" lon="1.96809">
        <ele>146</ele>
        <time>2025-11-16T11:24:28Z</time>
        <extensions>
          <gpxtpx:TrackPointExtension xmlns:gpxtpx="http://www.garmin.com/xmlschemas/TrackPointExtension/v1">
            <gpxtpx:hr>120</gpxtpx:hr>
          </gpxtpx:TrackPointExtension>
        </extensions>
      </trkpt>
      <trkpt lat="48.59641" lon="1.96811">
        <ele>146</ele>
        <time>2025-11-16T11:24:29Z</time>
        <extensions>
          <gpxtpx:TrackPointExtension xmlns:gpxtpx="http://www.garmin.com/xmlschemas/TrackPointExtension/v1">
            <gpxtpx:hr>120</gpxtpx:hr>
          </gpxtpx:TrackPointExtension>
        </extensions>
      </trkpt>
      <trkpt lat="48.59644" lon="1.96814">
        <ele>145.8</ele>
        <time>2025-11-16T11:24:30Z</time>
        <extensions>
          <gpxtpx:TrackPointExtension xmlns:gpxtpx="http://www.garmin.com/xmlschemas/TrackPointExtension/v1">
            <gpxtpx:hr>121</gpxtpx:hr>
          </gpxtpx:TrackPointExtension>
        </extensions>
      </trkpt>
      <trkpt lat="48.59647" lon="1.96816">
        <ele>145.8</ele>
        <time>2025-11-16T11:24:31Z</time>
        <extensions>
          <gpxtpx:TrackPointExtension xmlns:gpxtpx="http://www.garmin.com/xmlschemas/TrackPointExtension/v1">
            <gpxtpx:hr>121</gpxtpx:hr>
          </gpxtpx:TrackPointExtension>
        </extensions>
      </trkpt>
      <trkpt lat="48.5965" lon="1.96819">
        <ele>145.6</ele>
        <time>2025-11-16T11:24:32Z</time>
        <extensions>
          <gpxtpx:TrackPointExtension xmlns:gpxtpx="http://www.garmin.com/xmlschemas/TrackPointExtension/v1">
            <gpxtpx:hr>121</gpxtpx:hr>
          </gpxtpx:TrackPointExtension>
        </extensions>
      </trkpt>
      <trkpt lat="48.59653" lon="1.96822">
        <ele>145.4</ele>
        <time>2025-11-16T11:24:33Z</time>
        <extensions>
          <gpxtpx:TrackPointExtension xmlns:gpxtpx="http://www.garmin.com/xmlschemas/TrackPointExtension/v1">
            <gpxtpx:hr>121</gpxtpx:hr>
          </gpxtpx:TrackPointExtension>
        </extensions>
      </trkpt>
      <trkpt lat="48.59656" lon="1.96825">
        <ele>145.4</ele>
        <time>2025-11-16T11:24:34Z</time>
        <extensions>
          <gpxtpx:TrackPointExtension xmlns:gpxtpx="http://www.garmin.com/xmlschemas/TrackPointExtension/v1">
            <gpxtpx:hr>121</gpxtpx:hr>
          </gpxtpx:TrackPointExtension>
        </extensions>
      </trkpt>
      <trkpt lat="48.59659" lon="1.96828">
        <ele>145.2</ele>
        <time>2025-11-16T11:24:35Z</time>
        <extensions>
          <gpxtpx:TrackPointExtension xmlns:gpxtpx="http://www.garmin.com/xmlschemas/TrackPointExtension/v1">
            <gpxtpx:hr>121</gpxtpx:hr>
          </gpxtpx:TrackPointExtension>
        </extensions>
      </trkpt>
      <trkpt lat="48.59662" lon="1.96831">
        <ele>145</ele>
        <time>2025-11-16T11:24:36Z</time>
        <extensions>
          <gpxtpx:TrackPointExtension xmlns:gpxtpx="http://www.garmin.com/xmlschemas/TrackPointExtension/v1">
            <gpxtpx:hr>122</gpxtpx:hr>
          </gpxtpx:TrackPointExtension>
        </extensions>
      </trkpt>
      <trkpt lat="48.59665" lon="1.96834">
        <ele>145</ele>
        <time>2025-11-16T11:24:37Z</time>
        <extensions>
          <gpxtpx:TrackPointExtension xmlns:gpxtpx="http://www.garmin.com/xmlschemas/TrackPointExtension/v1">
            <gpxtpx:hr>122</gpxtpx:hr>
          </gpxtpx:TrackPointExtension>
        </extensions>
      </trkpt>
      <trkpt lat="48.59669" lon="1.96838">
        <ele>144.8</ele>
        <time>2025-11-16T11:24:38Z</time>
        <extensions>
          <gpxtpx:TrackPointExtension xmlns:gpxtpx="http://www.garmin.com/xmlschemas/TrackPointExtension/v1">
            <gpxtpx:hr>122</gpxtpx:hr>
          </gpxtpx:TrackPointExtension>
        </extensions>
      </trkpt>
      <trkpt lat="48.59673" lon="1.96842">
        <ele>144.8</ele>
        <time>2025-11-16T11:24:39Z</time>
        <extensions>
          <gpxtpx:TrackPointExtension xmlns:gpxtpx="http://www.garmin.com/xmlschemas/TrackPointExtension/v1">
            <gpxtpx:hr>123</gpxtpx:hr>
          </gpxtpx:TrackPointExtension>
        </extensions>
      </trkpt>
      <trkpt lat="48.59676" lon="1.96846">
        <ele>144.6</ele>
        <time>2025-11-16T11:24:40Z</time>
        <extensions>
          <gpxtpx:TrackPointExtension xmlns:gpxtpx="http://www.garmin.com/xmlschemas/TrackPointExtension/v1">
            <gpxtpx:hr>123</gpxtpx:hr>
          </gpxtpx:TrackPointExtension>
        </extensions>
      </trkpt>
      <trkpt lat="48.5968" lon="1.96851">
        <ele>144.6</ele>
        <time>2025-11-16T11:24:41Z</time>
        <extensions>
          <gpxtpx:TrackPointExtension xmlns:gpxtpx="http://www.garmin.com/xmlschemas/TrackPointExtension/v1">
            <gpxtpx:hr>123</gpxtpx:hr>
          </gpxtpx:TrackPointExtension>
        </extensions>
      </trkpt>
      <trkpt lat="48.59684" lon="1.96856">
        <ele>144.4</ele>
        <time>2025-11-16T11:24:42Z</time>
        <extensions>
          <gpxtpx:TrackPointExtension xmlns:gpxtpx="http://www.garmin.com/xmlschemas/TrackPointExtension/v1">
            <gpxtpx:hr>123</gpxtpx:hr>
          </gpxtpx:TrackPointExtension>
        </extensions>
      </trkpt>
      <trkpt lat="48.59688" lon="1.96861">
        <ele>144.4</ele>
        <time>2025-11-16T11:24:43Z</time>
        <extensions>
          <gpxtpx:TrackPointExtension xmlns:gpxtpx="http://www.garmin.com/xmlschemas/TrackPointExtension/v1">
            <gpxtpx:hr>123</gpxtpx:hr>
          </gpxtpx:TrackPointExtension>
        </extensions>
      </trkpt>
      <trkpt lat="48.59692" lon="1.96865">
        <ele>144.2</ele>
        <time>2025-11-16T11:24:44Z</time>
        <extensions>
          <gpxtpx:TrackPointExtension xmlns:gpxtpx="http://www.garmin.com/xmlschemas/TrackPointExtension/v1">
            <gpxtpx:hr>124</gpxtpx:hr>
          </gpxtpx:TrackPointExtension>
        </extensions>
      </trkpt>
      <trkpt lat="48.59696" lon="1.9687">
        <ele>144.2</ele>
        <time>2025-11-16T11:24:45Z</time>
        <extensions>
          <gpxtpx:TrackPointExtension xmlns:gpxtpx="http://www.garmin.com/xmlschemas/TrackPointExtension/v1">
            <gpxtpx:hr>124</gpxtpx:hr>
          </gpxtpx:TrackPointExtension>
        </extensions>
      </trkpt>
      <trkpt lat="48.597" lon="1.96874">
        <ele>144</ele>
        <time>2025-11-16T11:24:46Z</time>
        <extensions>
          <gpxtpx:TrackPointExtension xmlns:gpxtpx="http://www.garmin.com/xmlschemas/TrackPointExtension/v1">
            <gpxtpx:hr>124</gpxtpx:hr>
          </gpxtpx:TrackPointExtension>
        </extensions>
      </trkpt>
      <trkpt lat="48.59703" lon="1.96878">
        <ele>144</ele>
        <time>2025-11-16T11:24:47Z</time>
        <extensions>
          <gpxtpx:TrackPointExtension xmlns:gpxtpx="http://www.garmin.com/xmlschemas/TrackPointExtension/v1">
            <gpxtpx:hr>124</gpxtpx:hr>
          </gpxtpx:TrackPointExtension>
        </extensions>
      </trkpt>
      <trkpt lat="48.59707" lon="1.96882">
        <ele>144</ele>
        <time>2025-11-16T11:24:48Z</time>
        <extensions>
          <gpxtpx:TrackPointExtension xmlns:gpxtpx="http://www.garmin.com/xmlschemas/TrackPointExtension/v1">
            <gpxtpx:hr>124</gpxtpx:hr>
          </gpxtpx:TrackPointExtension>
        </extensions>
      </trkpt>
      <trkpt lat="48.5971" lon="1.96886">
        <ele>143.8</ele>
        <time>2025-11-16T11:24:49Z</time>
        <extensions>
          <gpxtpx:TrackPointExtension xmlns:gpxtpx="http://www.garmin.com/xmlschemas/TrackPointExtension/v1">
            <gpxtpx:hr>124</gpxtpx:hr>
          </gpxtpx:TrackPointExtension>
        </extensions>
      </trkpt>
      <trkpt lat="48.59714" lon="1.9689">
        <ele>143.8</ele>
        <time>2025-11-16T11:24:50Z</time>
        <extensions>
          <gpxtpx:TrackPointExtension xmlns:gpxtpx="http://www.garmin.com/xmlschemas/TrackPointExtension/v1">
            <gpxtpx:hr>124</gpxtpx:hr>
          </gpxtpx:TrackPointExtension>
        </extensions>
      </trkpt>
      <trkpt lat="48.59718" lon="1.96893">
        <ele>143.8</ele>
        <time>2025-11-16T11:24:51Z</time>
        <extensions>
          <gpxtpx:TrackPointExtension xmlns:gpxtpx="http://www.garmin.com/xmlschemas/TrackPointExtension/v1">
            <gpxtpx:hr>124</gpxtpx:hr>
          </gpxtpx:TrackPointExtension>
        </extensions>
      </trkpt>
      <trkpt lat="48.59722" lon="1.96896">
        <ele>143.8</ele>
        <time>2025-11-16T11:24:52Z</time>
        <extensions>
          <gpxtpx:TrackPointExtension xmlns:gpxtpx="http://www.garmin.com/xmlschemas/TrackPointExtension/v1">
            <gpxtpx:hr>123</gpxtpx:hr>
          </gpxtpx:TrackPointExtension>
        </extensions>
      </trkpt>
      <trkpt lat="48.59725" lon="1.969">
        <ele>143.8</ele>
        <time>2025-11-16T11:24:53Z</time>
        <extensions>
          <gpxtpx:TrackPointExtension xmlns:gpxtpx="http://www.garmin.com/xmlschemas/TrackPointExtension/v1">
            <gpxtpx:hr>123</gpxtpx:hr>
          </gpxtpx:TrackPointExtension>
        </extensions>
      </trkpt>
      <trkpt lat="48.59729" lon="1.96904">
        <ele>143.8</ele>
        <time>2025-11-16T11:24:54Z</time>
        <extensions>
          <gpxtpx:TrackPointExtension xmlns:gpxtpx="http://www.garmin.com/xmlschemas/TrackPointExtension/v1">
            <gpxtpx:hr>124</gpxtpx:hr>
          </gpxtpx:TrackPointExtension>
        </extensions>
      </trkpt>
      <trkpt lat="48.59733" lon="1.96908">
        <ele>143.8</ele>
        <time>2025-11-16T11:24:55Z</time>
        <extensions>
          <gpxtpx:TrackPointExtension xmlns:gpxtpx="http://www.garmin.com/xmlschemas/TrackPointExtension/v1">
            <gpxtpx:hr>124</gpxtpx:hr>
          </gpxtpx:TrackPointExtension>
        </extensions>
      </trkpt>
      <trkpt lat="48.59738" lon="1.96912">
        <ele>143.8</ele>
        <time>2025-11-16T11:24:56Z</time>
        <extensions>
          <gpxtpx:TrackPointExtension xmlns:gpxtpx="http://www.garmin.com/xmlschemas/TrackPointExtension/v1">
            <gpxtpx:hr>124</gpxtpx:hr>
          </gpxtpx:TrackPointExtension>
        </extensions>
      </trkpt>
      <trkpt lat="48.59742" lon="1.96916">
        <ele>143.8</ele>
        <time>2025-11-16T11:24:57Z</time>
        <extensions>
          <gpxtpx:TrackPointExtension xmlns:gpxtpx="http://www.garmin.com/xmlschemas/TrackPointExtension/v1">
            <gpxtpx:hr>124</gpxtpx:hr>
          </gpxtpx:TrackPointExtension>
        </extensions>
      </trkpt>
      <trkpt lat="48.59747" lon="1.96921">
        <ele>143.8</ele>
        <time>2025-11-16T11:24:58Z</time>
        <extensions>
          <gpxtpx:TrackPointExtension xmlns:gpxtpx="http://www.garmin.com/xmlschemas/TrackPointExtension/v1">
            <gpxtpx:hr>124</gpxtpx:hr>
          </gpxtpx:TrackPointExtension>
        </extensions>
      </trkpt>
      <trkpt lat="48.59752" lon="1.96926">
        <ele>143.8</ele>
        <time>2025-11-16T11:24:59Z</time>
        <extensions>
          <gpxtpx:TrackPointExtension xmlns:gpxtpx="http://www.garmin.com/xmlschemas/TrackPointExtension/v1">
            <gpxtpx:hr>124</gpxtpx:hr>
          </gpxtpx:TrackPointExtension>
        </extensions>
      </trkpt>
      <trkpt lat="48.59757" lon="1.96931">
        <ele>144</ele>
        <time>2025-11-16T11:25:00Z</time>
        <extensions>
          <gpxtpx:TrackPointExtension xmlns:gpxtpx="http://www.garmin.com/xmlschemas/TrackPointExtension/v1">
            <gpxtpx:hr>124</gpxtpx:hr>
          </gpxtpx:TrackPointExtension>
        </extensions>
      </trkpt>
      <trkpt lat="48.59762" lon="1.96935">
        <ele>144</ele>
        <time>2025-11-16T11:25:01Z</time>
        <extensions>
          <gpxtpx:TrackPointExtension xmlns:gpxtpx="http://www.garmin.com/xmlschemas/TrackPointExtension/v1">
            <gpxtpx:hr>124</gpxtpx:hr>
          </gpxtpx:TrackPointExtension>
        </extensions>
      </trkpt>
      <trkpt lat="48.59767" lon="1.9694">
        <ele>144</ele>
        <time>2025-11-16T11:25:02Z</time>
        <extensions>
          <gpxtpx:TrackPointExtension xmlns:gpxtpx="http://www.garmin.com/xmlschemas/TrackPointExtension/v1">
            <gpxtpx:hr>124</gpxtpx:hr>
          </gpxtpx:TrackPointExtension>
        </extensions>
      </trkpt>
      <trkpt lat="48.59772" lon="1.96945">
        <ele>144.2</ele>
        <time>2025-11-16T11:25:03Z</time>
        <extensions>
          <gpxtpx:TrackPointExtension xmlns:gpxtpx="http://www.garmin.com/xmlschemas/TrackPointExtension/v1">
            <gpxtpx:hr>124</gpxtpx:hr>
          </gpxtpx:TrackPointExtension>
        </extensions>
      </trkpt>
      <trkpt lat="48.59777" lon="1.96949">
        <ele>144.2</ele>
        <time>2025-11-16T11:25:04Z</time>
        <extensions>
          <gpxtpx:TrackPointExtension xmlns:gpxtpx="http://www.garmin.com/xmlschemas/TrackPointExtension/v1">
            <gpxtpx:hr>124</gpxtpx:hr>
          </gpxtpx:TrackPointExtension>
        </extensions>
      </trkpt>
      <trkpt lat="48.59782" lon="1.96954">
        <ele>144.2</ele>
        <time>2025-11-16T11:25:05Z</time>
        <extensions>
          <gpxtpx:TrackPointExtension xmlns:gpxtpx="http://www.garmin.com/xmlschemas/TrackPointExtension/v1">
            <gpxtpx:hr>124</gpxtpx:hr>
          </gpxtpx:TrackPointExtension>
        </extensions>
      </trkpt>
      <trkpt lat="48.59786" lon="1.96959">
        <ele>144.2</ele>
        <time>2025-11-16T11:25:06Z</time>
        <extensions>
          <gpxtpx:TrackPointExtension xmlns:gpxtpx="http://www.garmin.com/xmlschemas/TrackPointExtension/v1">
            <gpxtpx:hr>125</gpxtpx:hr>
          </gpxtpx:TrackPointExtension>
        </extensions>
      </trkpt>
      <trkpt lat="48.59791" lon="1.96964">
        <ele>144.4</ele>
        <time>2025-11-16T11:25:07Z</time>
        <extensions>
          <gpxtpx:TrackPointExtension xmlns:gpxtpx="http://www.garmin.com/xmlschemas/TrackPointExtension/v1">
            <gpxtpx:hr>125</gpxtpx:hr>
          </gpxtpx:TrackPointExtension>
        </extensions>
      </trkpt>
      <trkpt lat="48.59796" lon="1.96969">
        <ele>144.4</ele>
        <time>2025-11-16T11:25:08Z</time>
        <extensions>
          <gpxtpx:TrackPointExtension xmlns:gpxtpx="http://www.garmin.com/xmlschemas/TrackPointExtension/v1">
            <gpxtpx:hr>125</gpxtpx:hr>
          </gpxtpx:TrackPointExtension>
        </extensions>
      </trkpt>
      <trkpt lat="48.59802" lon="1.96974">
        <ele>144.4</ele>
        <time>2025-11-16T11:25:09Z</time>
        <extensions>
          <gpxtpx:TrackPointExtension xmlns:gpxtpx="http://www.garmin.com/xmlschemas/TrackPointExtension/v1">
            <gpxtpx:hr>125</gpxtpx:hr>
          </gpxtpx:TrackPointExtension>
        </extensions>
      </trkpt>
      <trkpt lat="48.59806" lon="1.96979">
        <ele>144.4</ele>
        <time>2025-11-16T11:25:10Z</time>
        <extensions>
          <gpxtpx:TrackPointExtension xmlns:gpxtpx="http://www.garmin.com/xmlschemas/TrackPointExtension/v1">
            <gpxtpx:hr>126</gpxtpx:hr>
          </gpxtpx:TrackPointExtension>
        </extensions>
      </trkpt>
      <trkpt lat="48.59812" lon="1.96984">
        <ele>144.6</ele>
        <time>2025-11-16T11:25:11Z</time>
        <extensions>
          <gpxtpx:TrackPointExtension xmlns:gpxtpx="http://www.garmin.com/xmlschemas/TrackPointExtension/v1">
            <gpxtpx:hr>126</gpxtpx:hr>
          </gpxtpx:TrackPointExtension>
        </extensions>
      </trkpt>
      <trkpt lat="48.59817" lon="1.96988">
        <ele>144.6</ele>
        <time>2025-11-16T11:25:12Z</time>
        <extensions>
          <gpxtpx:TrackPointExtension xmlns:gpxtpx="http://www.garmin.com/xmlschemas/TrackPointExtension/v1">
            <gpxtpx:hr>126</gpxtpx:hr>
          </gpxtpx:TrackPointExtension>
        </extensions>
      </trkpt>
      <trkpt lat="48.59822" lon="1.96993">
        <ele>144.6</ele>
        <time>2025-11-16T11:25:13Z</time>
        <extensions>
          <gpxtpx:TrackPointExtension xmlns:gpxtpx="http://www.garmin.com/xmlschemas/TrackPointExtension/v1">
            <gpxtpx:hr>126</gpxtpx:hr>
          </gpxtpx:TrackPointExtension>
        </extensions>
      </trkpt>
      <trkpt lat="48.59827" lon="1.96997">
        <ele>144.6</ele>
        <time>2025-11-16T11:25:14Z</time>
        <extensions>
          <gpxtpx:TrackPointExtension xmlns:gpxtpx="http://www.garmin.com/xmlschemas/TrackPointExtension/v1">
            <gpxtpx:hr>126</gpxtpx:hr>
          </gpxtpx:TrackPointExtension>
        </extensions>
      </trkpt>
      <trkpt lat="48.59831" lon="1.97002">
        <ele>144.6</ele>
        <time>2025-11-16T11:25:15Z</time>
        <extensions>
          <gpxtpx:TrackPointExtension xmlns:gpxtpx="http://www.garmin.com/xmlschemas/TrackPointExtension/v1">
            <gpxtpx:hr>126</gpxtpx:hr>
          </gpxtpx:TrackPointExtension>
        </extensions>
      </trkpt>
      <trkpt lat="48.59836" lon="1.97007">
        <ele>144.6</ele>
        <time>2025-11-16T11:25:16Z</time>
        <extensions>
          <gpxtpx:TrackPointExtension xmlns:gpxtpx="http://www.garmin.com/xmlschemas/TrackPointExtension/v1">
            <gpxtpx:hr>126</gpxtpx:hr>
          </gpxtpx:TrackPointExtension>
        </extensions>
      </trkpt>
      <trkpt lat="48.5984" lon="1.97011">
        <ele>144.6</ele>
        <time>2025-11-16T11:25:17Z</time>
        <extensions>
          <gpxtpx:TrackPointExtension xmlns:gpxtpx="http://www.garmin.com/xmlschemas/TrackPointExtension/v1">
            <gpxtpx:hr>126</gpxtpx:hr>
          </gpxtpx:TrackPointExtension>
        </extensions>
      </trkpt>
      <trkpt lat="48.59844" lon="1.97016">
        <ele>144.6</ele>
        <time>2025-11-16T11:25:18Z</time>
        <extensions>
          <gpxtpx:TrackPointExtension xmlns:gpxtpx="http://www.garmin.com/xmlschemas/TrackPointExtension/v1">
            <gpxtpx:hr>126</gpxtpx:hr>
          </gpxtpx:TrackPointExtension>
        </extensions>
      </trkpt>
      <trkpt lat="48.59849" lon="1.97021">
        <ele>144.6</ele>
        <time>2025-11-16T11:25:19Z</time>
        <extensions>
          <gpxtpx:TrackPointExtension xmlns:gpxtpx="http://www.garmin.com/xmlschemas/TrackPointExtension/v1">
            <gpxtpx:hr>127</gpxtpx:hr>
          </gpxtpx:TrackPointExtension>
        </extensions>
      </trkpt>
      <trkpt lat="48.59853" lon="1.97026">
        <ele>144.6</ele>
        <time>2025-11-16T11:25:20Z</time>
        <extensions>
          <gpxtpx:TrackPointExtension xmlns:gpxtpx="http://www.garmin.com/xmlschemas/TrackPointExtension/v1">
            <gpxtpx:hr>127</gpxtpx:hr>
          </gpxtpx:TrackPointExtension>
        </extensions>
      </trkpt>
      <trkpt lat="48.59858" lon="1.97031">
        <ele>144.4</ele>
        <time>2025-11-16T11:25:21Z</time>
        <extensions>
          <gpxtpx:TrackPointExtension xmlns:gpxtpx="http://www.garmin.com/xmlschemas/TrackPointExtension/v1">
            <gpxtpx:hr>126</gpxtpx:hr>
          </gpxtpx:TrackPointExtension>
        </extensions>
      </trkpt>
      <trkpt lat="48.59863" lon="1.97036">
        <ele>144.4</ele>
        <time>2025-11-16T11:25:22Z</time>
        <extensions>
          <gpxtpx:TrackPointExtension xmlns:gpxtpx="http://www.garmin.com/xmlschemas/TrackPointExtension/v1">
            <gpxtpx:hr>127</gpxtpx:hr>
          </gpxtpx:TrackPointExtension>
        </extensions>
      </trkpt>
      <trkpt lat="48.59868" lon="1.97041">
        <ele>144.4</ele>
        <time>2025-11-16T11:25:23Z</time>
        <extensions>
          <gpxtpx:TrackPointExtension xmlns:gpxtpx="http://www.garmin.com/xmlschemas/TrackPointExtension/v1">
            <gpxtpx:hr>126</gpxtpx:hr>
          </gpxtpx:TrackPointExtension>
        </extensions>
      </trkpt>
      <trkpt lat="48.59873" lon="1.97046">
        <ele>144.4</ele>
        <time>2025-11-16T11:25:24Z</time>
        <extensions>
          <gpxtpx:TrackPointExtension xmlns:gpxtpx="http://www.garmin.com/xmlschemas/TrackPointExtension/v1">
            <gpxtpx:hr>126</gpxtpx:hr>
          </gpxtpx:TrackPointExtension>
        </extensions>
      </trkpt>
      <trkpt lat="48.59878" lon="1.97051">
        <ele>144.4</ele>
        <time>2025-11-16T11:25:25Z</time>
        <extensions>
          <gpxtpx:TrackPointExtension xmlns:gpxtpx="http://www.garmin.com/xmlschemas/TrackPointExtension/v1">
            <gpxtpx:hr>126</gpxtpx:hr>
          </gpxtpx:TrackPointExtension>
        </extensions>
      </trkpt>
      <trkpt lat="48.59883" lon="1.97056">
        <ele>144.4</ele>
        <time>2025-11-16T11:25:26Z</time>
        <extensions>
          <gpxtpx:TrackPointExtension xmlns:gpxtpx="http://www.garmin.com/xmlschemas/TrackPointExtension/v1">
            <gpxtpx:hr>127</gpxtpx:hr>
          </gpxtpx:TrackPointExtension>
        </extensions>
      </trkpt>
      <trkpt lat="48.59888" lon="1.9706">
        <ele>144.4</ele>
        <time>2025-11-16T11:25:27Z</time>
      </trkpt>
      <trkpt lat="48.59893" lon="1.97065">
        <ele>144.4</ele>
        <time>2025-11-16T11:25:28Z</time>
        <extensions>
          <gpxtpx:TrackPointExtension xmlns:gpxtpx="http://www.garmin.com/xmlschemas/TrackPointExtension/v1">
            <gpxtpx:hr>127</gpxtpx:hr>
          </gpxtpx:TrackPointExtension>
        </extensions>
      </trkpt>
      <trkpt lat="48.59897" lon="1.97069">
        <ele>144.4</ele>
        <time>2025-11-16T11:25:29Z</time>
        <extensions>
          <gpxtpx:TrackPointExtension xmlns:gpxtpx="http://www.garmin.com/xmlschemas/TrackPointExtension/v1">
            <gpxtpx:hr>127</gpxtpx:hr>
          </gpxtpx:TrackPointExtension>
        </extensions>
      </trkpt>
      <trkpt lat="48.59902" lon="1.97074">
        <ele>144.4</ele>
        <time>2025-11-16T11:25:30Z</time>
        <extensions>
          <gpxtpx:TrackPointExtension xmlns:gpxtpx="http://www.garmin.com/xmlschemas/TrackPointExtension/v1">
            <gpxtpx:hr>127</gpxtpx:hr>
          </gpxtpx:TrackPointExtension>
        </extensions>
      </trkpt>
      <trkpt lat="48.59906" lon="1.97078">
        <ele>144.4</ele>
        <time>2025-11-16T11:25:31Z</time>
        <extensions>
          <gpxtpx:TrackPointExtension xmlns:gpxtpx="http://www.garmin.com/xmlschemas/TrackPointExtension/v1">
            <gpxtpx:hr>127</gpxtpx:hr>
          </gpxtpx:TrackPointExtension>
        </extensions>
      </trkpt>
      <trkpt lat="48.5991" lon="1.97082">
        <ele>144.4</ele>
        <time>2025-11-16T11:25:32Z</time>
        <extensions>
          <gpxtpx:TrackPointExtension xmlns:gpxtpx="http://www.garmin.com/xmlschemas/TrackPointExtension/v1">
            <gpxtpx:hr>127</gpxtpx:hr>
          </gpxtpx:TrackPointExtension>
        </extensions>
      </trkpt>
      <trkpt lat="48.59914" lon="1.97086">
        <ele>144.4</ele>
        <time>2025-11-16T11:25:33Z</time>
        <extensions>
          <gpxtpx:TrackPointExtension xmlns:gpxtpx="http://www.garmin.com/xmlschemas/TrackPointExtension/v1">
            <gpxtpx:hr>128</gpxtpx:hr>
          </gpxtpx:TrackPointExtension>
        </extensions>
      </trkpt>
      <trkpt lat="48.59917" lon="1.97089">
        <ele>144.4</ele>
        <time>2025-11-16T11:25:34Z</time>
        <extensions>
          <gpxtpx:TrackPointExtension xmlns:gpxtpx="http://www.garmin.com/xmlschemas/TrackPointExtension/v1">
            <gpxtpx:hr>128</gpxtpx:hr>
          </gpxtpx:TrackPointExtension>
        </extensions>
      </trkpt>
      <trkpt lat="48.5992" lon="1.97093">
        <ele>144.4</ele>
        <time>2025-11-16T11:25:35Z</time>
        <extensions>
          <gpxtpx:TrackPointExtension xmlns:gpxtpx="http://www.garmin.com/xmlschemas/TrackPointExtension/v1">
            <gpxtpx:hr>128</gpxtpx:hr>
          </gpxtpx:TrackPointExtension>
        </extensions>
      </trkpt>
      <trkpt lat="48.59923" lon="1.97096">
        <ele>144.4</ele>
        <time>2025-11-16T11:25:36Z</time>
        <extensions>
          <gpxtpx:TrackPointExtension xmlns:gpxtpx="http://www.garmin.com/xmlschemas/TrackPointExtension/v1">
            <gpxtpx:hr>128</gpxtpx:hr>
          </gpxtpx:TrackPointExtension>
        </extensions>
      </trkpt>
      <trkpt lat="48.59926" lon="1.97099">
        <ele>144.4</ele>
        <time>2025-11-16T11:25:37Z</time>
        <extensions>
          <gpxtpx:TrackPointExtension xmlns:gpxtpx="http://www.garmin.com/xmlschemas/TrackPointExtension/v1">
            <gpxtpx:hr>128</gpxtpx:hr>
          </gpxtpx:TrackPointExtension>
        </extensions>
      </trkpt>
      <trkpt lat="48.5993" lon="1.97103">
        <ele>144.2</ele>
        <time>2025-11-16T11:25:38Z</time>
        <extensions>
          <gpxtpx:TrackPointExtension xmlns:gpxtpx="http://www.garmin.com/xmlschemas/TrackPointExtension/v1">
            <gpxtpx:hr>128</gpxtpx:hr>
          </gpxtpx:TrackPointExtension>
        </extensions>
      </trkpt>
      <trkpt lat="48.59933" lon="1.97107">
        <ele>144.2</ele>
        <time>2025-11-16T11:25:39Z</time>
        <extensions>
          <gpxtpx:TrackPointExtension xmlns:gpxtpx="http://www.garmin.com/xmlschemas/TrackPointExtension/v1">
            <gpxtpx:hr>128</gpxtpx:hr>
          </gpxtpx:TrackPointExtension>
        </extensions>
      </trkpt>
      <trkpt lat="48.59937" lon="1.97111">
        <ele>144.2</ele>
        <time>2025-11-16T11:25:40Z</time>
        <extensions>
          <gpxtpx:TrackPointExtension xmlns:gpxtpx="http://www.garmin.com/xmlschemas/TrackPointExtension/v1">
            <gpxtpx:hr>128</gpxtpx:hr>
          </gpxtpx:TrackPointExtension>
        </extensions>
      </trkpt>
      <trkpt lat="48.59941" lon="1.97115">
        <ele>144.2</ele>
        <time>2025-11-16T11:25:41Z</time>
        <extensions>
          <gpxtpx:TrackPointExtension xmlns:gpxtpx="http://www.garmin.com/xmlschemas/TrackPointExtension/v1">
            <gpxtpx:hr>128</gpxtpx:hr>
          </gpxtpx:TrackPointExtension>
        </extensions>
      </trkpt>
      <trkpt lat="48.59946" lon="1.97119">
        <ele>144.2</ele>
        <time>2025-11-16T11:25:42Z</time>
        <extensions>
          <gpxtpx:TrackPointExtension xmlns:gpxtpx="http://www.garmin.com/xmlschemas/TrackPointExtension/v1">
            <gpxtpx:hr>128</gpxtpx:hr>
          </gpxtpx:TrackPointExtension>
        </extensions>
      </trkpt>
      <trkpt lat="48.5995" lon="1.97123">
        <ele>144.2</ele>
        <time>2025-11-16T11:25:43Z</time>
        <extensions>
          <gpxtpx:TrackPointExtension xmlns:gpxtpx="http://www.garmin.com/xmlschemas/TrackPointExtension/v1">
            <gpxtpx:hr>128</gpxtpx:hr>
          </gpxtpx:TrackPointExtension>
        </extensions>
      </trkpt>
      <trkpt lat="48.59954" lon="1.97126">
        <ele>144.4</ele>
        <time>2025-11-16T11:25:44Z</time>
        <extensions>
          <gpxtpx:TrackPointExtension xmlns:gpxtpx="http://www.garmin.com/xmlschemas/TrackPointExtension/v1">
            <gpxtpx:hr>128</gpxtpx:hr>
          </gpxtpx:TrackPointExtension>
        </extensions>
      </trkpt>
      <trkpt lat="48.59958" lon="1.9713">
        <ele>144.4</ele>
        <time>2025-11-16T11:25:45Z</time>
        <extensions>
          <gpxtpx:TrackPointExtension xmlns:gpxtpx="http://www.garmin.com/xmlschemas/TrackPointExtension/v1">
            <gpxtpx:hr>128</gpxtpx:hr>
          </gpxtpx:TrackPointExtension>
        </extensions>
      </trkpt>
      <trkpt lat="48.59962" lon="1.97133">
        <ele>144.4</ele>
        <time>2025-11-16T11:25:46Z</time>
        <extensions>
          <gpxtpx:TrackPointExtension xmlns:gpxtpx="http://www.garmin.com/xmlschemas/TrackPointExtension/v1">
            <gpxtpx:hr>128</gpxtpx:hr>
          </gpxtpx:TrackPointExtension>
        </extensions>
      </trkpt>
      <trkpt lat="48.59965" lon="1.97135">
        <ele>144.4</ele>
        <time>2025-11-16T11:25:47Z</time>
        <extensions>
          <gpxtpx:TrackPointExtension xmlns:gpxtpx="http://www.garmin.com/xmlschemas/TrackPointExtension/v1">
            <gpxtpx:hr>128</gpxtpx:hr>
          </gpxtpx:TrackPointExtension>
        </extensions>
      </trkpt>
      <trkpt lat="48.5997" lon="1.97137">
        <ele>144.4</ele>
        <time>2025-11-16T11:25:48Z</time>
        <extensions>
          <gpxtpx:TrackPointExtension xmlns:gpxtpx="http://www.garmin.com/xmlschemas/TrackPointExtension/v1">
            <gpxtpx:hr>128</gpxtpx:hr>
          </gpxtpx:TrackPointExtension>
        </extensions>
      </trkpt>
      <trkpt lat="48.59974" lon="1.97138">
        <ele>144.4</ele>
        <time>2025-11-16T11:25:49Z</time>
        <extensions>
          <gpxtpx:TrackPointExtension xmlns:gpxtpx="http://www.garmin.com/xmlschemas/TrackPointExtension/v1">
            <gpxtpx:hr>128</gpxtpx:hr>
          </gpxtpx:TrackPointExtension>
        </extensions>
      </trkpt>
      <trkpt lat="48.59978" lon="1.97139">
        <ele>144.4</ele>
        <time>2025-11-16T11:25:50Z</time>
        <extensions>
          <gpxtpx:TrackPointExtension xmlns:gpxtpx="http://www.garmin.com/xmlschemas/TrackPointExtension/v1">
            <gpxtpx:hr>128</gpxtpx:hr>
          </gpxtpx:TrackPointExtension>
        </extensions>
      </trkpt>
      <trkpt lat="48.59982" lon="1.9714">
        <ele>144.4</ele>
        <time>2025-11-16T11:25:51Z</time>
        <extensions>
          <gpxtpx:TrackPointExtension xmlns:gpxtpx="http://www.garmin.com/xmlschemas/TrackPointExtension/v1">
            <gpxtpx:hr>128</gpxtpx:hr>
          </gpxtpx:TrackPointExtension>
        </extensions>
      </trkpt>
      <trkpt lat="48.59985" lon="1.9714">
        <ele>144.4</ele>
        <time>2025-11-16T11:25:52Z</time>
        <extensions>
          <gpxtpx:TrackPointExtension xmlns:gpxtpx="http://www.garmin.com/xmlschemas/TrackPointExtension/v1">
            <gpxtpx:hr>128</gpxtpx:hr>
          </gpxtpx:TrackPointExtension>
        </extensions>
      </trkpt>
      <trkpt lat="48.59989" lon="1.9714">
        <ele>144.4</ele>
        <time>2025-11-16T11:25:53Z</time>
        <extensions>
          <gpxtpx:TrackPointExtension xmlns:gpxtpx="http://www.garmin.com/xmlschemas/TrackPointExtension/v1">
            <gpxtpx:hr>128</gpxtpx:hr>
          </gpxtpx:TrackPointExtension>
        </extensions>
      </trkpt>
      <trkpt lat="48.59993" lon="1.97141">
        <ele>144.4</ele>
        <time>2025-11-16T11:25:54Z</time>
        <extensions>
          <gpxtpx:TrackPointExtension xmlns:gpxtpx="http://www.garmin.com/xmlschemas/TrackPointExtension/v1">
            <gpxtpx:hr>128</gpxtpx:hr>
          </gpxtpx:TrackPointExtension>
        </extensions>
      </trkpt>
      <trkpt lat="48.59996" lon="1.97141">
        <ele>144.6</ele>
        <time>2025-11-16T11:25:55Z</time>
        <extensions>
          <gpxtpx:TrackPointExtension xmlns:gpxtpx="http://www.garmin.com/xmlschemas/TrackPointExtension/v1">
            <gpxtpx:hr>128</gpxtpx:hr>
          </gpxtpx:TrackPointExtension>
        </extensions>
      </trkpt>
      <trkpt lat="48.6" lon="1.97141">
        <ele>144.6</ele>
        <time>2025-11-16T11:25:56Z</time>
        <extensions>
          <gpxtpx:TrackPointExtension xmlns:gpxtpx="http://www.garmin.com/xmlschemas/TrackPointExtension/v1">
            <gpxtpx:hr>128</gpxtpx:hr>
          </gpxtpx:TrackPointExtension>
        </extensions>
      </trkpt>
      <trkpt lat="48.60004" lon="1.97142">
        <ele>144.6</ele>
        <time>2025-11-16T11:25:57Z</time>
        <extensions>
          <gpxtpx:TrackPointExtension xmlns:gpxtpx="http://www.garmin.com/xmlschemas/TrackPointExtension/v1">
            <gpxtpx:hr>128</gpxtpx:hr>
          </gpxtpx:TrackPointExtension>
        </extensions>
      </trkpt>
      <trkpt lat="48.60008" lon="1.97141">
        <ele>144.6</ele>
        <time>2025-11-16T11:25:58Z</time>
        <extensions>
          <gpxtpx:TrackPointExtension xmlns:gpxtpx="http://www.garmin.com/xmlschemas/TrackPointExtension/v1">
            <gpxtpx:hr>127</gpxtpx:hr>
          </gpxtpx:TrackPointExtension>
        </extensions>
      </trkpt>
      <trkpt lat="48.60012" lon="1.9714">
        <ele>144.6</ele>
        <time>2025-11-16T11:25:59Z</time>
        <extensions>
          <gpxtpx:TrackPointExtension xmlns:gpxtpx="http://www.garmin.com/xmlschemas/TrackPointExtension/v1">
            <gpxtpx:hr>127</gpxtpx:hr>
          </gpxtpx:TrackPointExtension>
        </extensions>
      </trkpt>
      <trkpt lat="48.60016" lon="1.97138">
        <ele>144.6</ele>
        <time>2025-11-16T11:26:00Z</time>
        <extensions>
          <gpxtpx:TrackPointExtension xmlns:gpxtpx="http://www.garmin.com/xmlschemas/TrackPointExtension/v1">
            <gpxtpx:hr>127</gpxtpx:hr>
          </gpxtpx:TrackPointExtension>
        </extensions>
      </trkpt>
      <trkpt lat="48.60019" lon="1.97136">
        <ele>144.6</ele>
        <time>2025-11-16T11:26:01Z</time>
        <extensions>
          <gpxtpx:TrackPointExtension xmlns:gpxtpx="http://www.garmin.com/xmlschemas/TrackPointExtension/v1">
            <gpxtpx:hr>127</gpxtpx:hr>
          </gpxtpx:TrackPointExtension>
        </extensions>
      </trkpt>
      <trkpt lat="48.60023" lon="1.97133">
        <ele>144.6</ele>
        <time>2025-11-16T11:26:02Z</time>
        <extensions>
          <gpxtpx:TrackPointExtension xmlns:gpxtpx="http://www.garmin.com/xmlschemas/TrackPointExtension/v1">
            <gpxtpx:hr>127</gpxtpx:hr>
          </gpxtpx:TrackPointExtension>
        </extensions>
      </trkpt>
      <trkpt lat="48.60027" lon="1.97129">
        <ele>144.6</ele>
        <time>2025-11-16T11:26:03Z</time>
        <extensions>
          <gpxtpx:TrackPointExtension xmlns:gpxtpx="http://www.garmin.com/xmlschemas/TrackPointExtension/v1">
            <gpxtpx:hr>127</gpxtpx:hr>
          </gpxtpx:TrackPointExtension>
        </extensions>
      </trkpt>
      <trkpt lat="48.6003" lon="1.97126">
        <ele>144.6</ele>
        <time>2025-11-16T11:26:04Z</time>
        <extensions>
          <gpxtpx:TrackPointExtension xmlns:gpxtpx="http://www.garmin.com/xmlschemas/TrackPointExtension/v1">
            <gpxtpx:hr>127</gpxtpx:hr>
          </gpxtpx:TrackPointExtension>
        </extensions>
      </trkpt>
      <trkpt lat="48.60035" lon="1.97122">
        <ele>144.6</ele>
        <time>2025-11-16T11:26:05Z</time>
        <extensions>
          <gpxtpx:TrackPointExtension xmlns:gpxtpx="http://www.garmin.com/xmlschemas/TrackPointExtension/v1">
            <gpxtpx:hr>127</gpxtpx:hr>
          </gpxtpx:TrackPointExtension>
        </extensions>
      </trkpt>
      <trkpt lat="48.60039" lon="1.97118">
        <ele>144.6</ele>
        <time>2025-11-16T11:26:06Z</time>
        <extensions>
          <gpxtpx:TrackPointExtension xmlns:gpxtpx="http://www.garmin.com/xmlschemas/TrackPointExtension/v1">
            <gpxtpx:hr>127</gpxtpx:hr>
          </gpxtpx:TrackPointExtension>
        </extensions>
      </trkpt>
      <trkpt lat="48.60043" lon="1.97115">
        <ele>144.6</ele>
        <time>2025-11-16T11:26:07Z</time>
        <extensions>
          <gpxtpx:TrackPointExtension xmlns:gpxtpx="http://www.garmin.com/xmlschemas/TrackPointExtension/v1">
            <gpxtpx:hr>127</gpxtpx:hr>
          </gpxtpx:TrackPointExtension>
        </extensions>
      </trkpt>
      <trkpt lat="48.60047" lon="1.97111">
        <ele>144.6</ele>
        <time>2025-11-16T11:26:08Z</time>
        <extensions>
          <gpxtpx:TrackPointExtension xmlns:gpxtpx="http://www.garmin.com/xmlschemas/TrackPointExtension/v1">
            <gpxtpx:hr>127</gpxtpx:hr>
          </gpxtpx:TrackPointExtension>
        </extensions>
      </trkpt>
      <trkpt lat="48.60051" lon="1.97108">
        <ele>144.6</ele>
        <time>2025-11-16T11:26:09Z</time>
        <extensions>
          <gpxtpx:TrackPointExtension xmlns:gpxtpx="http://www.garmin.com/xmlschemas/TrackPointExtension/v1">
            <gpxtpx:hr>127</gpxtpx:hr>
          </gpxtpx:TrackPointExtension>
        </extensions>
      </trkpt>
      <trkpt lat="48.60055" lon="1.97105">
        <ele>144.4</ele>
        <time>2025-11-16T11:26:10Z</time>
        <extensions>
          <gpxtpx:TrackPointExtension xmlns:gpxtpx="http://www.garmin.com/xmlschemas/TrackPointExtension/v1">
            <gpxtpx:hr>127</gpxtpx:hr>
          </gpxtpx:TrackPointExtension>
        </extensions>
      </trkpt>
      <trkpt lat="48.60059" lon="1.97103">
        <ele>144.4</ele>
        <time>2025-11-16T11:26:11Z</time>
        <extensions>
          <gpxtpx:TrackPointExtension xmlns:gpxtpx="http://www.garmin.com/xmlschemas/TrackPointExtension/v1">
            <gpxtpx:hr>127</gpxtpx:hr>
          </gpxtpx:TrackPointExtension>
        </extensions>
      </trkpt>
      <trkpt lat="48.60064" lon="1.971">
        <ele>144.4</ele>
        <time>2025-11-16T11:26:12Z</time>
        <extensions>
          <gpxtpx:TrackPointExtension xmlns:gpxtpx="http://www.garmin.com/xmlschemas/TrackPointExtension/v1">
            <gpxtpx:hr>127</gpxtpx:hr>
          </gpxtpx:TrackPointExtension>
        </extensions>
      </trkpt>
      <trkpt lat="48.60068" lon="1.97098">
        <ele>144.2</ele>
        <time>2025-11-16T11:26:13Z</time>
        <extensions>
          <gpxtpx:TrackPointExtension xmlns:gpxtpx="http://www.garmin.com/xmlschemas/TrackPointExtension/v1">
            <gpxtpx:hr>127</gpxtpx:hr>
          </gpxtpx:TrackPointExtension>
        </extensions>
      </trkpt>
      <trkpt lat="48.60072" lon="1.97096">
        <ele>144.2</ele>
        <time>2025-11-16T11:26:14Z</time>
        <extensions>
          <gpxtpx:TrackPointExtension xmlns:gpxtpx="http://www.garmin.com/xmlschemas/TrackPointExtension/v1">
            <gpxtpx:hr>127</gpxtpx:hr>
          </gpxtpx:TrackPointExtension>
        </extensions>
      </trkpt>
      <trkpt lat="48.60077" lon="1.97093">
        <ele>144</ele>
        <time>2025-11-16T11:26:15Z</time>
        <extensions>
          <gpxtpx:TrackPointExtension xmlns:gpxtpx="http://www.garmin.com/xmlschemas/TrackPointExtension/v1">
            <gpxtpx:hr>127</gpxtpx:hr>
          </gpxtpx:TrackPointExtension>
        </extensions>
      </trkpt>
      <trkpt lat="48.60081" lon="1.97091">
        <ele>144</ele>
        <time>2025-11-16T11:26:16Z</time>
        <extensions>
          <gpxtpx:TrackPointExtension xmlns:gpxtpx="http://www.garmin.com/xmlschemas/TrackPointExtension/v1">
            <gpxtpx:hr>127</gpxtpx:hr>
          </gpxtpx:TrackPointExtension>
        </extensions>
      </trkpt>
      <trkpt lat="48.60085" lon="1.97088">
        <ele>143.8</ele>
        <time>2025-11-16T11:26:17Z</time>
        <extensions>
          <gpxtpx:TrackPointExtension xmlns:gpxtpx="http://www.garmin.com/xmlschemas/TrackPointExtension/v1">
            <gpxtpx:hr>127</gpxtpx:hr>
          </gpxtpx:TrackPointExtension>
        </extensions>
      </trkpt>
      <trkpt lat="48.60089" lon="1.97085">
        <ele>143.8</ele>
        <time>2025-11-16T11:26:18Z</time>
        <extensions>
          <gpxtpx:TrackPointExtension xmlns:gpxtpx="http://www.garmin.com/xmlschemas/TrackPointExtension/v1">
            <gpxtpx:hr>127</gpxtpx:hr>
          </gpxtpx:TrackPointExtension>
        </extensions>
      </trkpt>
      <trkpt lat="48.60092" lon="1.97083">
        <ele>143.6</ele>
        <time>2025-11-16T11:26:19Z</time>
        <extensions>
          <gpxtpx:TrackPointExtension xmlns:gpxtpx="http://www.garmin.com/xmlschemas/TrackPointExtension/v1">
            <gpxtpx:hr>127</gpxtpx:hr>
          </gpxtpx:TrackPointExtension>
        </extensions>
      </trkpt>
      <trkpt lat="48.60096" lon="1.9708">
        <ele>143.6</ele>
        <time>2025-11-16T11:26:20Z</time>
        <extensions>
          <gpxtpx:TrackPointExtension xmlns:gpxtpx="http://www.garmin.com/xmlschemas/TrackPointExtension/v1">
            <gpxtpx:hr>127</gpxtpx:hr>
          </gpxtpx:TrackPointExtension>
        </extensions>
      </trkpt>
      <trkpt lat="48.60099" lon="1.97078">
        <ele>143.6</ele>
        <time>2025-11-16T11:26:21Z</time>
        <extensions>
          <gpxtpx:TrackPointExtension xmlns:gpxtpx="http://www.garmin.com/xmlschemas/TrackPointExtension/v1">
            <gpxtpx:hr>127</gpxtpx:hr>
          </gpxtpx:TrackPointExtension>
        </extensions>
      </trkpt>
      <trkpt lat="48.60102" lon="1.97076">
        <ele>143.4</ele>
        <time>2025-11-16T11:26:22Z</time>
        <extensions>
          <gpxtpx:TrackPointExtension xmlns:gpxtpx="http://www.garmin.com/xmlschemas/TrackPointExtension/v1">
            <gpxtpx:hr>126</gpxtpx:hr>
          </gpxtpx:TrackPointExtension>
        </extensions>
      </trkpt>
      <trkpt lat="48.60105" lon="1.97075">
        <ele>143.2</ele>
        <time>2025-11-16T11:26:23Z</time>
        <extensions>
          <gpxtpx:TrackPointExtension xmlns:gpxtpx="http://www.garmin.com/xmlschemas/TrackPointExtension/v1">
            <gpxtpx:hr>126</gpxtpx:hr>
          </gpxtpx:TrackPointExtension>
        </extensions>
      </trkpt>
      <trkpt lat="48.60108" lon="1.97074">
        <ele>143.2</ele>
        <time>2025-11-16T11:26:24Z</time>
        <extensions>
          <gpxtpx:TrackPointExtension xmlns:gpxtpx="http://www.garmin.com/xmlschemas/TrackPointExtension/v1">
            <gpxtpx:hr>126</gpxtpx:hr>
          </gpxtpx:TrackPointExtension>
        </extensions>
      </trkpt>
      <trkpt lat="48.6011" lon="1.97073">
        <ele>143</ele>
        <time>2025-11-16T11:26:25Z</time>
        <extensions>
          <gpxtpx:TrackPointExtension xmlns:gpxtpx="http://www.garmin.com/xmlschemas/TrackPointExtension/v1">
            <gpxtpx:hr>126</gpxtpx:hr>
          </gpxtpx:TrackPointExtension>
        </extensions>
      </trkpt>
      <trkpt lat="48.60112" lon="1.97073">
        <ele>142.8</ele>
        <time>2025-11-16T11:26:26Z</time>
        <extensions>
          <gpxtpx:TrackPointExtension xmlns:gpxtpx="http://www.garmin.com/xmlschemas/TrackPointExtension/v1">
            <gpxtpx:hr>126</gpxtpx:hr>
          </gpxtpx:TrackPointExtension>
        </extensions>
      </trkpt>
      <trkpt lat="48.60115" lon="1.97074">
        <ele>142.6</ele>
        <time>2025-11-16T11:26:28Z</time>
        <extensions>
          <gpxtpx:TrackPointExtension xmlns:gpxtpx="http://www.garmin.com/xmlschemas/TrackPointExtension/v1">
            <gpxtpx:hr>126</gpxtpx:hr>
          </gpxtpx:TrackPointExtension>
        </extensions>
      </trkpt>
      <trkpt lat="48.60118" lon="1.97075">
        <ele>142.2</ele>
        <time>2025-11-16T11:26:30Z</time>
        <extensions>
          <gpxtpx:TrackPointExtension xmlns:gpxtpx="http://www.garmin.com/xmlschemas/TrackPointExtension/v1">
            <gpxtpx:hr>126</gpxtpx:hr>
          </gpxtpx:TrackPointExtension>
        </extensions>
      </trkpt>
      <trkpt lat="48.60121" lon="1.97076">
        <ele>142.2</ele>
        <time>2025-11-16T11:26:32Z</time>
        <extensions>
          <gpxtpx:TrackPointExtension xmlns:gpxtpx="http://www.garmin.com/xmlschemas/TrackPointExtension/v1">
            <gpxtpx:hr>125</gpxtpx:hr>
          </gpxtpx:TrackPointExtension>
        </extensions>
      </trkpt>
      <trkpt lat="48.60124" lon="1.97076">
        <ele>142</ele>
        <time>2025-11-16T11:26:34Z</time>
        <extensions>
          <gpxtpx:TrackPointExtension xmlns:gpxtpx="http://www.garmin.com/xmlschemas/TrackPointExtension/v1">
            <gpxtpx:hr>125</gpxtpx:hr>
          </gpxtpx:TrackPointExtension>
        </extensions>
      </trkpt>
      <trkpt lat="48.60126" lon="1.97075">
        <ele>142</ele>
        <time>2025-11-16T11:26:35Z</time>
        <extensions>
          <gpxtpx:TrackPointExtension xmlns:gpxtpx="http://www.garmin.com/xmlschemas/TrackPointExtension/v1">
            <gpxtpx:hr>124</gpxtpx:hr>
          </gpxtpx:TrackPointExtension>
        </extensions>
      </trkpt>
      <trkpt lat="48.6013" lon="1.97075">
        <ele>141.6</ele>
        <time>2025-11-16T11:26:37Z</time>
        <extensions>
          <gpxtpx:TrackPointExtension xmlns:gpxtpx="http://www.garmin.com/xmlschemas/TrackPointExtension/v1">
            <gpxtpx:hr>124</gpxtpx:hr>
          </gpxtpx:TrackPointExtension>
        </extensions>
      </trkpt>
      <trkpt lat="48.60133" lon="1.97075">
        <ele>141.4</ele>
        <time>2025-11-16T11:26:39Z</time>
        <extensions>
          <gpxtpx:TrackPointExtension xmlns:gpxtpx="http://www.garmin.com/xmlschemas/TrackPointExtension/v1">
            <gpxtpx:hr>124</gpxtpx:hr>
          </gpxtpx:TrackPointExtension>
        </extensions>
      </trkpt>
      <trkpt lat="48.60137" lon="1.97076">
        <ele>141.2</ele>
        <time>2025-11-16T11:26:41Z</time>
        <extensions>
          <gpxtpx:TrackPointExtension xmlns:gpxtpx="http://www.garmin.com/xmlschemas/TrackPointExtension/v1">
            <gpxtpx:hr>123</gpxtpx:hr>
          </gpxtpx:TrackPointExtension>
        </extensions>
      </trkpt>
      <trkpt lat="48.6014" lon="1.97077">
        <ele>141</ele>
        <time>2025-11-16T11:26:43Z</time>
        <extensions>
          <gpxtpx:TrackPointExtension xmlns:gpxtpx="http://www.garmin.com/xmlschemas/TrackPointExtension/v1">
            <gpxtpx:hr>123</gpxtpx:hr>
          </gpxtpx:TrackPointExtension>
        </extensions>
      </trkpt>
      <trkpt lat="48.60143" lon="1.97077">
        <ele>140.6</ele>
        <time>2025-11-16T11:26:45Z</time>
        <extensions>
          <gpxtpx:TrackPointExtension xmlns:gpxtpx="http://www.garmin.com/xmlschemas/TrackPointExtension/v1">
            <gpxtpx:hr>122</gpxtpx:hr>
          </gpxtpx:TrackPointExtension>
        </extensions>
      </trkpt>
      <trkpt lat="48.60147" lon="1.97078">
        <ele>140.4</ele>
        <time>2025-11-16T11:26:47Z</time>
        <extensions>
          <gpxtpx:TrackPointExtension xmlns:gpxtpx="http://www.garmin.com/xmlschemas/TrackPointExtension/v1">
            <gpxtpx:hr>122</gpxtpx:hr>
          </gpxtpx:TrackPointExtension>
        </extensions>
      </trkpt>
      <trkpt lat="48.60148" lon="1.97079">
        <ele>140.4</ele>
        <time>2025-11-16T11:26:48Z</time>
        <extensions>
          <gpxtpx:TrackPointExtension xmlns:gpxtpx="http://www.garmin.com/xmlschemas/TrackPointExtension/v1">
            <gpxtpx:hr>122</gpxtpx:hr>
          </gpxtpx:TrackPointExtension>
        </extensions>
      </trkpt>
      <trkpt lat="48.60152" lon="1.97079">
        <ele>140.2</ele>
        <time>2025-11-16T11:26:50Z</time>
        <extensions>
          <gpxtpx:TrackPointExtension xmlns:gpxtpx="http://www.garmin.com/xmlschemas/TrackPointExtension/v1">
            <gpxtpx:hr>121</gpxtpx:hr>
          </gpxtpx:TrackPointExtension>
        </extensions>
      </trkpt>
      <trkpt lat="48.60154" lon="1.9708">
        <ele>140</ele>
        <time>2025-11-16T11:26:52Z</time>
        <extensions>
          <gpxtpx:TrackPointExtension xmlns:gpxtpx="http://www.garmin.com/xmlschemas/TrackPointExtension/v1">
            <gpxtpx:hr>120</gpxtpx:hr>
          </gpxtpx:TrackPointExtension>
        </extensions>
      </trkpt>
      <trkpt lat="48.60157" lon="1.9708">
        <ele>140</ele>
        <time>2025-11-16T11:26:54Z</time>
        <extensions>
          <gpxtpx:TrackPointExtension xmlns:gpxtpx="http://www.garmin.com/xmlschemas/TrackPointExtension/v1">
            <gpxtpx:hr>120</gpxtpx:hr>
          </gpxtpx:TrackPointExtension>
        </extensions>
      </trkpt>
      <trkpt lat="48.60159" lon="1.9708">
        <ele>139.8</ele>
        <time>2025-11-16T11:26:55Z</time>
        <extensions>
          <gpxtpx:TrackPointExtension xmlns:gpxtpx="http://www.garmin.com/xmlschemas/TrackPointExtension/v1">
            <gpxtpx:hr>120</gpxtpx:hr>
          </gpxtpx:TrackPointExtension>
        </extensions>
      </trkpt>
      <trkpt lat="48.60163" lon="1.9708">
        <ele>139.6</ele>
        <time>2025-11-16T11:26:57Z</time>
        <extensions>
          <gpxtpx:TrackPointExtension xmlns:gpxtpx="http://www.garmin.com/xmlschemas/TrackPointExtension/v1">
            <gpxtpx:hr>120</gpxtpx:hr>
          </gpxtpx:TrackPointExtension>
        </extensions>
      </trkpt>
      <trkpt lat="48.60165" lon="1.9708">
        <ele>139.4</ele>
        <time>2025-11-16T11:26:59Z</time>
        <extensions>
          <gpxtpx:TrackPointExtension xmlns:gpxtpx="http://www.garmin.com/xmlschemas/TrackPointExtension/v1">
            <gpxtpx:hr>119</gpxtpx:hr>
          </gpxtpx:TrackPointExtension>
        </extensions>
      </trkpt>
      <trkpt lat="48.60168" lon="1.9708">
        <ele>139.2</ele>
        <time>2025-11-16T11:27:01Z</time>
        <extensions>
          <gpxtpx:TrackPointExtension xmlns:gpxtpx="http://www.garmin.com/xmlschemas/TrackPointExtension/v1">
            <gpxtpx:hr>119</gpxtpx:hr>
          </gpxtpx:TrackPointExtension>
        </extensions>
      </trkpt>
      <trkpt lat="48.60171" lon="1.97079">
        <ele>139</ele>
        <time>2025-11-16T11:27:03Z</time>
        <extensions>
          <gpxtpx:TrackPointExtension xmlns:gpxtpx="http://www.garmin.com/xmlschemas/TrackPointExtension/v1">
            <gpxtpx:hr>119</gpxtpx:hr>
          </gpxtpx:TrackPointExtension>
        </extensions>
      </trkpt>
      <trkpt lat="48.60173" lon="1.9708">
        <ele>138.6</ele>
        <time>2025-11-16T11:27:05Z</time>
        <extensions>
          <gpxtpx:TrackPointExtension xmlns:gpxtpx="http://www.garmin.com/xmlschemas/TrackPointExtension/v1">
            <gpxtpx:hr>119</gpxtpx:hr>
          </gpxtpx:TrackPointExtension>
        </extensions>
      </trkpt>
      <trkpt lat="48.60175" lon="1.9708">
        <ele>138.2</ele>
        <time>2025-11-16T11:27:08Z</time>
        <extensions>
          <gpxtpx:TrackPointExtension xmlns:gpxtpx="http://www.garmin.com/xmlschemas/TrackPointExtension/v1">
            <gpxtpx:hr>118</gpxtpx:hr>
          </gpxtpx:TrackPointExtension>
        </extensions>
      </trkpt>
      <trkpt lat="48.60177" lon="1.9708">
        <ele>137.8</ele>
        <time>2025-11-16T11:27:10Z</time>
        <extensions>
          <gpxtpx:TrackPointExtension xmlns:gpxtpx="http://www.garmin.com/xmlschemas/TrackPointExtension/v1">
            <gpxtpx:hr>118</gpxtpx:hr>
          </gpxtpx:TrackPointExtension>
        </extensions>
      </trkpt>
      <trkpt lat="48.60179" lon="1.9708">
        <ele>137.6</ele>
        <time>2025-11-16T11:27:12Z</time>
        <extensions>
          <gpxtpx:TrackPointExtension xmlns:gpxtpx="http://www.garmin.com/xmlschemas/TrackPointExtension/v1">
            <gpxtpx:hr>118</gpxtpx:hr>
          </gpxtpx:TrackPointExtension>
        </extensions>
      </trkpt>
      <trkpt lat="48.60181" lon="1.97081">
        <ele>137.4</ele>
        <time>2025-11-16T11:27:14Z</time>
        <extensions>
          <gpxtpx:TrackPointExtension xmlns:gpxtpx="http://www.garmin.com/xmlschemas/TrackPointExtension/v1">
            <gpxtpx:hr>118</gpxtpx:hr>
          </gpxtpx:TrackPointExtension>
        </extensions>
      </trkpt>
      <trkpt lat="48.60183" lon="1.97081">
        <ele>137</ele>
        <time>2025-11-16T11:27:16Z</time>
        <extensions>
          <gpxtpx:TrackPointExtension xmlns:gpxtpx="http://www.garmin.com/xmlschemas/TrackPointExtension/v1">
            <gpxtpx:hr>118</gpxtpx:hr>
          </gpxtpx:TrackPointExtension>
        </extensions>
      </trkpt>
      <trkpt lat="48.60185" lon="1.97081">
        <ele>136.8</ele>
        <time>2025-11-16T11:27:18Z</time>
        <extensions>
          <gpxtpx:TrackPointExtension xmlns:gpxtpx="http://www.garmin.com/xmlschemas/TrackPointExtension/v1">
            <gpxtpx:hr>118</gpxtpx:hr>
          </gpxtpx:TrackPointExtension>
        </extensions>
      </trkpt>
      <trkpt lat="48.60188" lon="1.97081">
        <ele>136.8</ele>
        <time>2025-11-16T11:27:20Z</time>
        <extensions>
          <gpxtpx:TrackPointExtension xmlns:gpxtpx="http://www.garmin.com/xmlschemas/TrackPointExtension/v1">
            <gpxtpx:hr>118</gpxtpx:hr>
          </gpxtpx:TrackPointExtension>
        </extensions>
      </trkpt>
      <trkpt lat="48.60189" lon="1.97081">
        <ele>136.6</ele>
        <time>2025-11-16T11:27:22Z</time>
        <extensions>
          <gpxtpx:TrackPointExtension xmlns:gpxtpx="http://www.garmin.com/xmlschemas/TrackPointExtension/v1">
            <gpxtpx:hr>117</gpxtpx:hr>
          </gpxtpx:TrackPointExtension>
        </extensions>
      </trkpt>
      <trkpt lat="48.60191" lon="1.97081">
        <ele>136.2</ele>
        <time>2025-11-16T11:27:24Z</time>
        <extensions>
          <gpxtpx:TrackPointExtension xmlns:gpxtpx="http://www.garmin.com/xmlschemas/TrackPointExtension/v1">
            <gpxtpx:hr>117</gpxtpx:hr>
          </gpxtpx:TrackPointExtension>
        </extensions>
      </trkpt>
      <trkpt lat="48.60193" lon="1.97082">
        <ele>136.2</ele>
        <time>2025-11-16T11:27:26Z</time>
        <extensions>
          <gpxtpx:TrackPointExtension xmlns:gpxtpx="http://www.garmin.com/xmlschemas/TrackPointExtension/v1">
            <gpxtpx:hr>117</gpxtpx:hr>
          </gpxtpx:TrackPointExtension>
        </extensions>
      </trkpt>
      <trkpt lat="48.60196" lon="1.97083">
        <ele>136</ele>
        <time>2025-11-16T11:27:28Z</time>
        <extensions>
          <gpxtpx:TrackPointExtension xmlns:gpxtpx="http://www.garmin.com/xmlschemas/TrackPointExtension/v1">
            <gpxtpx:hr>117</gpxtpx:hr>
          </gpxtpx:TrackPointExtension>
        </extensions>
      </trkpt>
      <trkpt lat="48.60198" lon="1.97084">
        <ele>135.8</ele>
        <time>2025-11-16T11:27:30Z</time>
        <extensions>
          <gpxtpx:TrackPointExtension xmlns:gpxtpx="http://www.garmin.com/xmlschemas/TrackPointExtension/v1">
            <gpxtpx:hr>117</gpxtpx:hr>
          </gpxtpx:TrackPointExtension>
        </extensions>
      </trkpt>
      <trkpt lat="48.60201" lon="1.97086">
        <ele>135.6</ele>
        <time>2025-11-16T11:27:32Z</time>
        <extensions>
          <gpxtpx:TrackPointExtension xmlns:gpxtpx="http://www.garmin.com/xmlschemas/TrackPointExtension/v1">
            <gpxtpx:hr>117</gpxtpx:hr>
          </gpxtpx:TrackPointExtension>
        </extensions>
      </trkpt>
      <trkpt lat="48.60204" lon="1.97087">
        <ele>135.4</ele>
        <time>2025-11-16T11:27:34Z</time>
        <extensions>
          <gpxtpx:TrackPointExtension xmlns:gpxtpx="http://www.garmin.com/xmlschemas/TrackPointExtension/v1">
            <gpxtpx:hr>117</gpxtpx:hr>
          </gpxtpx:TrackPointExtension>
        </extensions>
      </trkpt>
      <trkpt lat="48.60207" lon="1.97089">
        <ele>135.4</ele>
        <time>2025-11-16T11:27:36Z</time>
        <extensions>
          <gpxtpx:TrackPointExtension xmlns:gpxtpx="http://www.garmin.com/xmlschemas/TrackPointExtension/v1">
            <gpxtpx:hr>116</gpxtpx:hr>
          </gpxtpx:TrackPointExtension>
        </extensions>
      </trkpt>
      <trkpt lat="48.6021" lon="1.97091">
        <ele>135.2</ele>
        <time>2025-11-16T11:27:38Z</time>
        <extensions>
          <gpxtpx:TrackPointExtension xmlns:gpxtpx="http://www.garmin.com/xmlschemas/TrackPointExtension/v1">
            <gpxtpx:hr>117</gpxtpx:hr>
          </gpxtpx:TrackPointExtension>
        </extensions>
      </trkpt>
      <trkpt lat="48.60212" lon="1.97092">
        <ele>135</ele>
        <time>2025-11-16T11:27:39Z</time>
        <extensions>
          <gpxtpx:TrackPointExtension xmlns:gpxtpx="http://www.garmin.com/xmlschemas/TrackPointExtension/v1">
            <gpxtpx:hr>116</gpxtpx:hr>
          </gpxtpx:TrackPointExtension>
        </extensions>
      </trkpt>
      <trkpt lat="48.60213" lon="1.97094">
        <ele>135</ele>
        <time>2025-11-16T11:27:40Z</time>
        <extensions>
          <gpxtpx:TrackPointExtension xmlns:gpxtpx="http://www.garmin.com/xmlschemas/TrackPointExtension/v1">
            <gpxtpx:hr>116</gpxtpx:hr>
          </gpxtpx:TrackPointExtension>
        </extensions>
      </trkpt>
      <trkpt lat="48.60215" lon="1.97095">
        <ele>134.8</ele>
        <time>2025-11-16T11:27:41Z</time>
        <extensions>
          <gpxtpx:TrackPointExtension xmlns:gpxtpx="http://www.garmin.com/xmlschemas/TrackPointExtension/v1">
            <gpxtpx:hr>116</gpxtpx:hr>
          </gpxtpx:TrackPointExtension>
        </extensions>
      </trkpt>
      <trkpt lat="48.60219" lon="1.97097">
        <ele>134.6</ele>
        <time>2025-11-16T11:27:43Z</time>
        <extensions>
          <gpxtpx:TrackPointExtension xmlns:gpxtpx="http://www.garmin.com/xmlschemas/TrackPointExtension/v1">
            <gpxtpx:hr>116</gpxtpx:hr>
          </gpxtpx:TrackPointExtension>
        </extensions>
      </trkpt>
      <trkpt lat="48.6022" lon="1.97098">
        <ele>134.6</ele>
        <time>2025-11-16T11:27:44Z</time>
        <extensions>
          <gpxtpx:TrackPointExtension xmlns:gpxtpx="http://www.garmin.com/xmlschemas/TrackPointExtension/v1">
            <gpxtpx:hr>116</gpxtpx:hr>
          </gpxtpx:TrackPointExtension>
        </extensions>
      </trkpt>
      <trkpt lat="48.60222" lon="1.97099">
        <ele>134.4</ele>
        <time>2025-11-16T11:27:45Z</time>
        <extensions>
          <gpxtpx:TrackPointExtension xmlns:gpxtpx="http://www.garmin.com/xmlschemas/TrackPointExtension/v1">
            <gpxtpx:hr>117</gpxtpx:hr>
          </gpxtpx:TrackPointExtension>
        </extensions>
      </trkpt>
      <trkpt lat="48.60226" lon="1.971">
        <ele>134.2</ele>
        <time>2025-11-16T11:27:47Z</time>
        <extensions>
          <gpxtpx:TrackPointExtension xmlns:gpxtpx="http://www.garmin.com/xmlschemas/TrackPointExtension/v1">
            <gpxtpx:hr>117</gpxtpx:hr>
          </gpxtpx:TrackPointExtension>
        </extensions>
      </trkpt>
      <trkpt lat="48.60228" lon="1.97101">
        <ele>134.2</ele>
        <time>2025-11-16T11:27:48Z</time>
        <extensions>
          <gpxtpx:TrackPointExtension xmlns:gpxtpx="http://www.garmin.com/xmlschemas/TrackPointExtension/v1">
            <gpxtpx:hr>116</gpxtpx:hr>
          </gpxtpx:TrackPointExtension>
        </extensions>
      </trkpt>
      <trkpt lat="48.6023" lon="1.97101">
        <ele>134</ele>
        <time>2025-11-16T11:27:49Z</time>
        <extensions>
          <gpxtpx:TrackPointExtension xmlns:gpxtpx="http://www.garmin.com/xmlschemas/TrackPointExtension/v1">
            <gpxtpx:hr>116</gpxtpx:hr>
          </gpxtpx:TrackPointExtension>
        </extensions>
      </trkpt>
      <trkpt lat="48.60232" lon="1.97101">
        <ele>133.8</ele>
        <time>2025-11-16T11:27:50Z</time>
        <extensions>
          <gpxtpx:TrackPointExtension xmlns:gpxtpx="http://www.garmin.com/xmlschemas/TrackPointExtension/v1">
            <gpxtpx:hr>116</gpxtpx:hr>
          </gpxtpx:TrackPointExtension>
        </extensions>
      </trkpt>
      <trkpt lat="48.60236" lon="1.97102">
        <ele>133.6</ele>
        <time>2025-11-16T11:27:52Z</time>
        <extensions>
          <gpxtpx:TrackPointExtension xmlns:gpxtpx="http://www.garmin.com/xmlschemas/TrackPointExtension/v1">
            <gpxtpx:hr>116</gpxtpx:hr>
          </gpxtpx:TrackPointExtension>
        </extensions>
      </trkpt>
      <trkpt lat="48.60239" lon="1.97101">
        <ele>133.4</ele>
        <time>2025-11-16T11:27:53Z</time>
        <extensions>
          <gpxtpx:TrackPointExtension xmlns:gpxtpx="http://www.garmin.com/xmlschemas/TrackPointExtension/v1">
            <gpxtpx:hr>116</gpxtpx:hr>
          </gpxtpx:TrackPointExtension>
        </extensions>
      </trkpt>
      <trkpt lat="48.60241" lon="1.97101">
        <ele>133.2</ele>
        <time>2025-11-16T11:27:54Z</time>
        <extensions>
          <gpxtpx:TrackPointExtension xmlns:gpxtpx="http://www.garmin.com/xmlschemas/TrackPointExtension/v1">
            <gpxtpx:hr>116</gpxtpx:hr>
          </gpxtpx:TrackPointExtension>
        </extensions>
      </trkpt>
      <trkpt lat="48.60243" lon="1.971">
        <ele>133.2</ele>
        <time>2025-11-16T11:27:55Z</time>
        <extensions>
          <gpxtpx:TrackPointExtension xmlns:gpxtpx="http://www.garmin.com/xmlschemas/TrackPointExtension/v1">
            <gpxtpx:hr>116</gpxtpx:hr>
          </gpxtpx:TrackPointExtension>
        </extensions>
      </trkpt>
      <trkpt lat="48.60246" lon="1.97098">
        <ele>133</ele>
        <time>2025-11-16T11:27:57Z</time>
        <extensions>
          <gpxtpx:TrackPointExtension xmlns:gpxtpx="http://www.garmin.com/xmlschemas/TrackPointExtension/v1">
            <gpxtpx:hr>116</gpxtpx:hr>
          </gpxtpx:TrackPointExtension>
        </extensions>
      </trkpt>
      <trkpt lat="48.60248" lon="1.97095">
        <ele>132.8</ele>
        <time>2025-11-16T11:27:59Z</time>
        <extensions>
          <gpxtpx:TrackPointExtension xmlns:gpxtpx="http://www.garmin.com/xmlschemas/TrackPointExtension/v1">
            <gpxtpx:hr>116</gpxtpx:hr>
          </gpxtpx:TrackPointExtension>
        </extensions>
      </trkpt>
      <trkpt lat="48.6025" lon="1.97091">
        <ele>132.6</ele>
        <time>2025-11-16T11:28:01Z</time>
        <extensions>
          <gpxtpx:TrackPointExtension xmlns:gpxtpx="http://www.garmin.com/xmlschemas/TrackPointExtension/v1">
            <gpxtpx:hr>116</gpxtpx:hr>
          </gpxtpx:TrackPointExtension>
        </extensions>
      </trkpt>
      <trkpt lat="48.60252" lon="1.97087">
        <ele>132.4</ele>
        <time>2025-11-16T11:28:03Z</time>
        <extensions>
          <gpxtpx:TrackPointExtension xmlns:gpxtpx="http://www.garmin.com/xmlschemas/TrackPointExtension/v1">
            <gpxtpx:hr>116</gpxtpx:hr>
          </gpxtpx:TrackPointExtension>
        </extensions>
      </trkpt>
      <trkpt lat="48.60254" lon="1.97084">
        <ele>132.4</ele>
        <time>2025-11-16T11:28:05Z</time>
        <extensions>
          <gpxtpx:TrackPointExtension xmlns:gpxtpx="http://www.garmin.com/xmlschemas/TrackPointExtension/v1">
            <gpxtpx:hr>116</gpxtpx:hr>
          </gpxtpx:TrackPointExtension>
        </extensions>
      </trkpt>
      <trkpt lat="48.60257" lon="1.97081">
        <ele>132.2</ele>
        <time>2025-11-16T11:28:07Z</time>
        <extensions>
          <gpxtpx:TrackPointExtension xmlns:gpxtpx="http://www.garmin.com/xmlschemas/TrackPointExtension/v1">
            <gpxtpx:hr>116</gpxtpx:hr>
          </gpxtpx:TrackPointExtension>
        </extensions>
      </trkpt>
      <trkpt lat="48.60259" lon="1.97079">
        <ele>132.2</ele>
        <time>2025-11-16T11:28:08Z</time>
        <extensions>
          <gpxtpx:TrackPointExtension xmlns:gpxtpx="http://www.garmin.com/xmlschemas/TrackPointExtension/v1">
            <gpxtpx:hr>117</gpxtpx:hr>
          </gpxtpx:TrackPointExtension>
        </extensions>
      </trkpt>
      <trkpt lat="48.6026" lon="1.97077">
        <ele>132.2</ele>
        <time>2025-11-16T11:28:09Z</time>
        <extensions>
          <gpxtpx:TrackPointExtension xmlns:gpxtpx="http://www.garmin.com/xmlschemas/TrackPointExtension/v1">
            <gpxtpx:hr>117</gpxtpx:hr>
          </gpxtpx:TrackPointExtension>
        </extensions>
      </trkpt>
      <trkpt lat="48.60261" lon="1.97075">
        <ele>132</ele>
        <time>2025-11-16T11:28:10Z</time>
        <extensions>
          <gpxtpx:TrackPointExtension xmlns:gpxtpx="http://www.garmin.com/xmlschemas/TrackPointExtension/v1">
            <gpxtpx:hr>117</gpxtpx:hr>
          </gpxtpx:TrackPointExtension>
        </extensions>
      </trkpt>
      <trkpt lat="48.60263" lon="1.97073">
        <ele>132</ele>
        <time>2025-11-16T11:28:11Z</time>
        <extensions>
          <gpxtpx:TrackPointExtension xmlns:gpxtpx="http://www.garmin.com/xmlschemas/TrackPointExtension/v1">
            <gpxtpx:hr>117</gpxtpx:hr>
          </gpxtpx:TrackPointExtension>
        </extensions>
      </trkpt>
      <trkpt lat="48.60265" lon="1.97069">
        <ele>132</ele>
        <time>2025-11-16T11:28:13Z</time>
        <extensions>
          <gpxtpx:TrackPointExtension xmlns:gpxtpx="http://www.garmin.com/xmlschemas/TrackPointExtension/v1">
            <gpxtpx:hr>117</gpxtpx:hr>
          </gpxtpx:TrackPointExtension>
        </extensions>
      </trkpt>
      <trkpt lat="48.60267" lon="1.97066">
        <ele>131.8</ele>
        <time>2025-11-16T11:28:15Z</time>
        <extensions>
          <gpxtpx:TrackPointExtension xmlns:gpxtpx="http://www.garmin.com/xmlschemas/TrackPointExtension/v1">
            <gpxtpx:hr>118</gpxtpx:hr>
          </gpxtpx:TrackPointExtension>
        </extensions>
      </trkpt>
      <trkpt lat="48.60269" lon="1.97064">
        <ele>131.8</ele>
        <time>2025-11-16T11:28:17Z</time>
        <extensions>
          <gpxtpx:TrackPointExtension xmlns:gpxtpx="http://www.garmin.com/xmlschemas/TrackPointExtension/v1">
            <gpxtpx:hr>118</gpxtpx:hr>
          </gpxtpx:TrackPointExtension>
        </extensions>
      </trkpt>
      <trkpt lat="48.60271" lon="1.97061">
        <ele>131.8</ele>
        <time>2025-11-16T11:28:19Z</time>
        <extensions>
          <gpxtpx:TrackPointExtension xmlns:gpxtpx="http://www.garmin.com/xmlschemas/TrackPointExtension/v1">
            <gpxtpx:hr>118</gpxtpx:hr>
          </gpxtpx:TrackPointExtension>
        </extensions>
      </trkpt>
      <trkpt lat="48.60273" lon="1.97057">
        <ele>131.6</ele>
        <time>2025-11-16T11:28:21Z</time>
        <extensions>
          <gpxtpx:TrackPointExtension xmlns:gpxtpx="http://www.garmin.com/xmlschemas/TrackPointExtension/v1">
            <gpxtpx:hr>119</gpxtpx:hr>
          </gpxtpx:TrackPointExtension>
        </extensions>
      </trkpt>
      <trkpt lat="48.60275" lon="1.97055">
        <ele>131.6</ele>
        <time>2025-11-16T11:28:22Z</time>
        <extensions>
          <gpxtpx:TrackPointExtension xmlns:gpxtpx="http://www.garmin.com/xmlschemas/TrackPointExtension/v1">
            <gpxtpx:hr>119</gpxtpx:hr>
          </gpxtpx:TrackPointExtension>
        </extensions>
      </trkpt>
      <trkpt lat="48.60276" lon="1.97053">
        <ele>131.6</ele>
        <time>2025-11-16T11:28:23Z</time>
        <extensions>
          <gpxtpx:TrackPointExtension xmlns:gpxtpx="http://www.garmin.com/xmlschemas/TrackPointExtension/v1">
            <gpxtpx:hr>119</gpxtpx:hr>
          </gpxtpx:TrackPointExtension>
        </extensions>
      </trkpt>
      <trkpt lat="48.60277" lon="1.97051">
        <ele>131.6</ele>
        <time>2025-11-16T11:28:24Z</time>
        <extensions>
          <gpxtpx:TrackPointExtension xmlns:gpxtpx="http://www.garmin.com/xmlschemas/TrackPointExtension/v1">
            <gpxtpx:hr>119</gpxtpx:hr>
          </gpxtpx:TrackPointExtension>
        </extensions>
      </trkpt>
      <trkpt lat="48.60279" lon="1.97049">
        <ele>131.4</ele>
        <time>2025-11-16T11:28:25Z</time>
        <extensions>
          <gpxtpx:TrackPointExtension xmlns:gpxtpx="http://www.garmin.com/xmlschemas/TrackPointExtension/v1">
            <gpxtpx:hr>119</gpxtpx:hr>
          </gpxtpx:TrackPointExtension>
        </extensions>
      </trkpt>
      <trkpt lat="48.60281" lon="1.97048">
        <ele>131.4</ele>
        <time>2025-11-16T11:28:26Z</time>
        <extensions>
          <gpxtpx:TrackPointExtension xmlns:gpxtpx="http://www.garmin.com/xmlschemas/TrackPointExtension/v1">
            <gpxtpx:hr>119</gpxtpx:hr>
          </gpxtpx:TrackPointExtension>
        </extensions>
      </trkpt>
      <trkpt lat="48.60282" lon="1.97046">
        <ele>131.4</ele>
        <time>2025-11-16T11:28:27Z</time>
        <extensions>
          <gpxtpx:TrackPointExtension xmlns:gpxtpx="http://www.garmin.com/xmlschemas/TrackPointExtension/v1">
            <gpxtpx:hr>119</gpxtpx:hr>
          </gpxtpx:TrackPointExtension>
        </extensions>
      </trkpt>
      <trkpt lat="48.60284" lon="1.97045">
        <ele>131.2</ele>
        <time>2025-11-16T11:28:28Z</time>
        <extensions>
          <gpxtpx:TrackPointExtension xmlns:gpxtpx="http://www.garmin.com/xmlschemas/TrackPointExtension/v1">
            <gpxtpx:hr>119</gpxtpx:hr>
          </gpxtpx:TrackPointExtension>
        </extensions>
      </trkpt>
      <trkpt lat="48.60287" lon="1.97042">
        <ele>131.2</ele>
        <time>2025-11-16T11:28:30Z</time>
        <extensions>
          <gpxtpx:TrackPointExtension xmlns:gpxtpx="http://www.garmin.com/xmlschemas/TrackPointExtension/v1">
            <gpxtpx:hr>119</gpxtpx:hr>
          </gpxtpx:TrackPointExtension>
        </extensions>
      </trkpt>
      <trkpt lat="48.60289" lon="1.9704">
        <ele>130.8</ele>
        <time>2025-11-16T11:28:32Z</time>
        <extensions>
          <gpxtpx:TrackPointExtension xmlns:gpxtpx="http://www.garmin.com/xmlschemas/TrackPointExtension/v1">
            <gpxtpx:hr>118</gpxtpx:hr>
          </gpxtpx:TrackPointExtension>
        </extensions>
      </trkpt>
      <trkpt lat="48.60292" lon="1.9704">
        <ele>130.8</ele>
        <time>2025-11-16T11:28:34Z</time>
        <extensions>
          <gpxtpx:TrackPointExtension xmlns:gpxtpx="http://www.garmin.com/xmlschemas/TrackPointExtension/v1">
            <gpxtpx:hr>118</gpxtpx:hr>
          </gpxtpx:TrackPointExtension>
        </extensions>
      </trkpt>
      <trkpt lat="48.60294" lon="1.97042">
        <ele>130.8</ele>
        <time>2025-11-16T11:28:36Z</time>
        <extensions>
          <gpxtpx:TrackPointExtension xmlns:gpxtpx="http://www.garmin.com/xmlschemas/TrackPointExtension/v1">
            <gpxtpx:hr>118</gpxtpx:hr>
          </gpxtpx:TrackPointExtension>
        </extensions>
      </trkpt>
      <trkpt lat="48.60296" lon="1.97044">
        <ele>130.8</ele>
        <time>2025-11-16T11:28:38Z</time>
        <extensions>
          <gpxtpx:TrackPointExtension xmlns:gpxtpx="http://www.garmin.com/xmlschemas/TrackPointExtension/v1">
            <gpxtpx:hr>118</gpxtpx:hr>
          </gpxtpx:TrackPointExtension>
        </extensions>
      </trkpt>
      <trkpt lat="48.60298" lon="1.97047">
        <ele>130.8</ele>
        <time>2025-11-16T11:28:40Z</time>
        <extensions>
          <gpxtpx:TrackPointExtension xmlns:gpxtpx="http://www.garmin.com/xmlschemas/TrackPointExtension/v1">
            <gpxtpx:hr>118</gpxtpx:hr>
          </gpxtpx:TrackPointExtension>
        </extensions>
      </trkpt>
      <trkpt lat="48.60299" lon="1.97051">
        <ele>130.8</ele>
        <time>2025-11-16T11:28:42Z</time>
        <extensions>
          <gpxtpx:TrackPointExtension xmlns:gpxtpx="http://www.garmin.com/xmlschemas/TrackPointExtension/v1">
            <gpxtpx:hr>118</gpxtpx:hr>
          </gpxtpx:TrackPointExtension>
        </extensions>
      </trkpt>
      <trkpt lat="48.603" lon="1.97055">
        <ele>131</ele>
        <time>2025-11-16T11:28:44Z</time>
        <extensions>
          <gpxtpx:TrackPointExtension xmlns:gpxtpx="http://www.garmin.com/xmlschemas/TrackPointExtension/v1">
            <gpxtpx:hr>118</gpxtpx:hr>
          </gpxtpx:TrackPointExtension>
        </extensions>
      </trkpt>
      <trkpt lat="48.60301" lon="1.9706">
        <ele>131</ele>
        <time>2025-11-16T11:28:46Z</time>
        <extensions>
          <gpxtpx:TrackPointExtension xmlns:gpxtpx="http://www.garmin.com/xmlschemas/TrackPointExtension/v1">
            <gpxtpx:hr>118</gpxtpx:hr>
          </gpxtpx:TrackPointExtension>
        </extensions>
      </trkpt>
      <trkpt lat="48.60302" lon="1.97062">
        <ele>131</ele>
        <time>2025-11-16T11:28:47Z</time>
        <extensions>
          <gpxtpx:TrackPointExtension xmlns:gpxtpx="http://www.garmin.com/xmlschemas/TrackPointExtension/v1">
            <gpxtpx:hr>118</gpxtpx:hr>
          </gpxtpx:TrackPointExtension>
        </extensions>
      </trkpt>
      <trkpt lat="48.60304" lon="1.97067">
        <ele>131.2</ele>
        <time>2025-11-16T11:28:49Z</time>
        <extensions>
          <gpxtpx:TrackPointExtension xmlns:gpxtpx="http://www.garmin.com/xmlschemas/TrackPointExtension/v1">
            <gpxtpx:hr>118</gpxtpx:hr>
          </gpxtpx:TrackPointExtension>
        </extensions>
      </trkpt>
      <trkpt lat="48.60305" lon="1.97071">
        <ele>131.2</ele>
        <time>2025-11-16T11:28:51Z</time>
        <extensions>
          <gpxtpx:TrackPointExtension xmlns:gpxtpx="http://www.garmin.com/xmlschemas/TrackPointExtension/v1">
            <gpxtpx:hr>118</gpxtpx:hr>
          </gpxtpx:TrackPointExtension>
        </extensions>
      </trkpt>
      <trkpt lat="48.60306" lon="1.97075">
        <ele>131.4</ele>
        <time>2025-11-16T11:28:53Z</time>
        <extensions>
          <gpxtpx:TrackPointExtension xmlns:gpxtpx="http://www.garmin.com/xmlschemas/TrackPointExtension/v1">
            <gpxtpx:hr>118</gpxtpx:hr>
          </gpxtpx:TrackPointExtension>
        </extensions>
      </trkpt>
      <trkpt lat="48.60307" lon="1.97078">
        <ele>131.4</ele>
        <time>2025-11-16T11:28:55Z</time>
        <extensions>
          <gpxtpx:TrackPointExtension xmlns:gpxtpx="http://www.garmin.com/xmlschemas/TrackPointExtension/v1">
            <gpxtpx:hr>118</gpxtpx:hr>
          </gpxtpx:TrackPointExtension>
        </extensions>
      </trkpt>
      <trkpt lat="48.60308" lon="1.97082">
        <ele>131.6</ele>
        <time>2025-11-16T11:28:57Z</time>
        <extensions>
          <gpxtpx:TrackPointExtension xmlns:gpxtpx="http://www.garmin.com/xmlschemas/TrackPointExtension/v1">
            <gpxtpx:hr>118</gpxtpx:hr>
          </gpxtpx:TrackPointExtension>
        </extensions>
      </trkpt>
      <trkpt lat="48.6031" lon="1.97085">
        <ele>131.8</ele>
        <time>2025-11-16T11:28:59Z</time>
        <extensions>
          <gpxtpx:TrackPointExtension xmlns:gpxtpx="http://www.garmin.com/xmlschemas/TrackPointExtension/v1">
            <gpxtpx:hr>118</gpxtpx:hr>
          </gpxtpx:TrackPointExtension>
        </extensions>
      </trkpt>
      <trkpt lat="48.60311" lon="1.97087">
        <ele>131.8</ele>
        <time>2025-11-16T11:29:01Z</time>
        <extensions>
          <gpxtpx:TrackPointExtension xmlns:gpxtpx="http://www.garmin.com/xmlschemas/TrackPointExtension/v1">
            <gpxtpx:hr>117</gpxtpx:hr>
          </gpxtpx:TrackPointExtension>
        </extensions>
      </trkpt>
      <trkpt lat="48.60313" lon="1.97089">
        <ele>132</ele>
        <time>2025-11-16T11:29:03Z</time>
        <extensions>
          <gpxtpx:TrackPointExtension xmlns:gpxtpx="http://www.garmin.com/xmlschemas/TrackPointExtension/v1">
            <gpxtpx:hr>117</gpxtpx:hr>
          </gpxtpx:TrackPointExtension>
        </extensions>
      </trkpt>
      <trkpt lat="48.60315" lon="1.97092">
        <ele>132</ele>
        <time>2025-11-16T11:29:05Z</time>
        <extensions>
          <gpxtpx:TrackPointExtension xmlns:gpxtpx="http://www.garmin.com/xmlschemas/TrackPointExtension/v1">
            <gpxtpx:hr>117</gpxtpx:hr>
          </gpxtpx:TrackPointExtension>
        </extensions>
      </trkpt>
      <trkpt lat="48.60317" lon="1.97095">
        <ele>132</ele>
        <time>2025-11-16T11:29:07Z</time>
        <extensions>
          <gpxtpx:TrackPointExtension xmlns:gpxtpx="http://www.garmin.com/xmlschemas/TrackPointExtension/v1">
            <gpxtpx:hr>117</gpxtpx:hr>
          </gpxtpx:TrackPointExtension>
        </extensions>
      </trkpt>
      <trkpt lat="48.60319" lon="1.97097">
        <ele>131.8</ele>
        <time>2025-11-16T11:29:09Z</time>
        <extensions>
          <gpxtpx:TrackPointExtension xmlns:gpxtpx="http://www.garmin.com/xmlschemas/TrackPointExtension/v1">
            <gpxtpx:hr>117</gpxtpx:hr>
          </gpxtpx:TrackPointExtension>
        </extensions>
      </trkpt>
      <trkpt lat="48.60321" lon="1.971">
        <ele>131.6</ele>
        <time>2025-11-16T11:29:11Z</time>
        <extensions>
          <gpxtpx:TrackPointExtension xmlns:gpxtpx="http://www.garmin.com/xmlschemas/TrackPointExtension/v1">
            <gpxtpx:hr>117</gpxtpx:hr>
          </gpxtpx:TrackPointExtension>
        </extensions>
      </trkpt>
      <trkpt lat="48.60324" lon="1.97102">
        <ele>131.6</ele>
        <time>2025-11-16T11:29:13Z</time>
        <extensions>
          <gpxtpx:TrackPointExtension xmlns:gpxtpx="http://www.garmin.com/xmlschemas/TrackPointExtension/v1">
            <gpxtpx:hr>117</gpxtpx:hr>
          </gpxtpx:TrackPointExtension>
        </extensions>
      </trkpt>
      <trkpt lat="48.60326" lon="1.97104">
        <ele>131.4</ele>
        <time>2025-11-16T11:29:15Z</time>
        <extensions>
          <gpxtpx:TrackPointExtension xmlns:gpxtpx="http://www.garmin.com/xmlschemas/TrackPointExtension/v1">
            <gpxtpx:hr>117</gpxtpx:hr>
          </gpxtpx:TrackPointExtension>
        </extensions>
      </trkpt>
      <trkpt lat="48.60329" lon="1.97106">
        <ele>131.2</ele>
        <time>2025-11-16T11:29:17Z</time>
        <extensions>
          <gpxtpx:TrackPointExtension xmlns:gpxtpx="http://www.garmin.com/xmlschemas/TrackPointExtension/v1">
            <gpxtpx:hr>117</gpxtpx:hr>
          </gpxtpx:TrackPointExtension>
        </extensions>
      </trkpt>
      <trkpt lat="48.60331" lon="1.97108">
        <ele>131.2</ele>
        <time>2025-11-16T11:29:18Z</time>
        <extensions>
          <gpxtpx:TrackPointExtension xmlns:gpxtpx="http://www.garmin.com/xmlschemas/TrackPointExtension/v1">
            <gpxtpx:hr>117</gpxtpx:hr>
          </gpxtpx:TrackPointExtension>
        </extensions>
      </trkpt>
      <trkpt lat="48.60333" lon="1.97111">
        <ele>131</ele>
        <time>2025-11-16T11:29:20Z</time>
        <extensions>
          <gpxtpx:TrackPointExtension xmlns:gpxtpx="http://www.garmin.com/xmlschemas/TrackPointExtension/v1">
            <gpxtpx:hr>117</gpxtpx:hr>
          </gpxtpx:TrackPointExtension>
        </extensions>
      </trkpt>
      <trkpt lat="48.60335" lon="1.97113">
        <ele>130.8</ele>
        <time>2025-11-16T11:29:21Z</time>
        <extensions>
          <gpxtpx:TrackPointExtension xmlns:gpxtpx="http://www.garmin.com/xmlschemas/TrackPointExtension/v1">
            <gpxtpx:hr>117</gpxtpx:hr>
          </gpxtpx:TrackPointExtension>
        </extensions>
      </trkpt>
      <trkpt lat="48.60338" lon="1.97116">
        <ele>130.6</ele>
        <time>2025-11-16T11:29:23Z</time>
        <extensions>
          <gpxtpx:TrackPointExtension xmlns:gpxtpx="http://www.garmin.com/xmlschemas/TrackPointExtension/v1">
            <gpxtpx:hr>116</gpxtpx:hr>
          </gpxtpx:TrackPointExtension>
        </extensions>
      </trkpt>
      <trkpt lat="48.6034" lon="1.97119">
        <ele>130.6</ele>
        <time>2025-11-16T11:29:25Z</time>
        <extensions>
          <gpxtpx:TrackPointExtension xmlns:gpxtpx="http://www.garmin.com/xmlschemas/TrackPointExtension/v1">
            <gpxtpx:hr>116</gpxtpx:hr>
          </gpxtpx:TrackPointExtension>
        </extensions>
      </trkpt>
      <trkpt lat="48.60342" lon="1.97121">
        <ele>130.4</ele>
        <time>2025-11-16T11:29:27Z</time>
        <extensions>
          <gpxtpx:TrackPointExtension xmlns:gpxtpx="http://www.garmin.com/xmlschemas/TrackPointExtension/v1">
            <gpxtpx:hr>115</gpxtpx:hr>
          </gpxtpx:TrackPointExtension>
        </extensions>
      </trkpt>
      <trkpt lat="48.60344" lon="1.97123">
        <ele>130.2</ele>
        <time>2025-11-16T11:29:28Z</time>
        <extensions>
          <gpxtpx:TrackPointExtension xmlns:gpxtpx="http://www.garmin.com/xmlschemas/TrackPointExtension/v1">
            <gpxtpx:hr>115</gpxtpx:hr>
          </gpxtpx:TrackPointExtension>
        </extensions>
      </trkpt>
      <trkpt lat="48.60346" lon="1.97124">
        <ele>130.2</ele>
        <time>2025-11-16T11:29:29Z</time>
        <extensions>
          <gpxtpx:TrackPointExtension xmlns:gpxtpx="http://www.garmin.com/xmlschemas/TrackPointExtension/v1">
            <gpxtpx:hr>115</gpxtpx:hr>
          </gpxtpx:TrackPointExtension>
        </extensions>
      </trkpt>
      <trkpt lat="48.60348" lon="1.97126">
        <ele>130.2</ele>
        <time>2025-11-16T11:29:30Z</time>
        <extensions>
          <gpxtpx:TrackPointExtension xmlns:gpxtpx="http://www.garmin.com/xmlschemas/TrackPointExtension/v1">
            <gpxtpx:hr>115</gpxtpx:hr>
          </gpxtpx:TrackPointExtension>
        </extensions>
      </trkpt>
      <trkpt lat="48.6035" lon="1.97129">
        <ele>130</ele>
        <time>2025-11-16T11:29:32Z</time>
        <extensions>
          <gpxtpx:TrackPointExtension xmlns:gpxtpx="http://www.garmin.com/xmlschemas/TrackPointExtension/v1">
            <gpxtpx:hr>115</gpxtpx:hr>
          </gpxtpx:TrackPointExtension>
        </extensions>
      </trkpt>
      <trkpt lat="48.60352" lon="1.97131">
        <ele>130</ele>
        <time>2025-11-16T11:29:33Z</time>
        <extensions>
          <gpxtpx:TrackPointExtension xmlns:gpxtpx="http://www.garmin.com/xmlschemas/TrackPointExtension/v1">
            <gpxtpx:hr>115</gpxtpx:hr>
          </gpxtpx:TrackPointExtension>
        </extensions>
      </trkpt>
      <trkpt lat="48.60355" lon="1.97135">
        <ele>129.8</ele>
        <time>2025-11-16T11:29:35Z</time>
        <extensions>
          <gpxtpx:TrackPointExtension xmlns:gpxtpx="http://www.garmin.com/xmlschemas/TrackPointExtension/v1">
            <gpxtpx:hr>115</gpxtpx:hr>
          </gpxtpx:TrackPointExtension>
        </extensions>
      </trkpt>
      <trkpt lat="48.60356" lon="1.97137">
        <ele>129.8</ele>
        <time>2025-11-16T11:29:36Z</time>
        <extensions>
          <gpxtpx:TrackPointExtension xmlns:gpxtpx="http://www.garmin.com/xmlschemas/TrackPointExtension/v1">
            <gpxtpx:hr>115</gpxtpx:hr>
          </gpxtpx:TrackPointExtension>
        </extensions>
      </trkpt>
      <trkpt lat="48.60357" lon="1.97139">
        <ele>129.6</ele>
        <time>2025-11-16T11:29:37Z</time>
        <extensions>
          <gpxtpx:TrackPointExtension xmlns:gpxtpx="http://www.garmin.com/xmlschemas/TrackPointExtension/v1">
            <gpxtpx:hr>115</gpxtpx:hr>
          </gpxtpx:TrackPointExtension>
        </extensions>
      </trkpt>
      <trkpt lat="48.6036" lon="1.97144">
        <ele>129.4</ele>
        <time>2025-11-16T11:29:39Z</time>
        <extensions>
          <gpxtpx:TrackPointExtension xmlns:gpxtpx="http://www.garmin.com/xmlschemas/TrackPointExtension/v1">
            <gpxtpx:hr>116</gpxtpx:hr>
          </gpxtpx:TrackPointExtension>
        </extensions>
      </trkpt>
      <trkpt lat="48.60362" lon="1.97148">
        <ele>129.2</ele>
        <time>2025-11-16T11:29:41Z</time>
        <extensions>
          <gpxtpx:TrackPointExtension xmlns:gpxtpx="http://www.garmin.com/xmlschemas/TrackPointExtension/v1">
            <gpxtpx:hr>116</gpxtpx:hr>
          </gpxtpx:TrackPointExtension>
        </extensions>
      </trkpt>
      <trkpt lat="48.60363" lon="1.97152">
        <ele>129</ele>
        <time>2025-11-16T11:29:43Z</time>
        <extensions>
          <gpxtpx:TrackPointExtension xmlns:gpxtpx="http://www.garmin.com/xmlschemas/TrackPointExtension/v1">
            <gpxtpx:hr>116</gpxtpx:hr>
          </gpxtpx:TrackPointExtension>
        </extensions>
      </trkpt>
      <trkpt lat="48.60364" lon="1.97155">
        <ele>129</ele>
        <time>2025-11-16T11:29:45Z</time>
        <extensions>
          <gpxtpx:TrackPointExtension xmlns:gpxtpx="http://www.garmin.com/xmlschemas/TrackPointExtension/v1">
            <gpxtpx:hr>116</gpxtpx:hr>
          </gpxtpx:TrackPointExtension>
        </extensions>
      </trkpt>
      <trkpt lat="48.60365" lon="1.97159">
        <ele>128.8</ele>
        <time>2025-11-16T11:29:47Z</time>
        <extensions>
          <gpxtpx:TrackPointExtension xmlns:gpxtpx="http://www.garmin.com/xmlschemas/TrackPointExtension/v1">
            <gpxtpx:hr>116</gpxtpx:hr>
          </gpxtpx:TrackPointExtension>
        </extensions>
      </trkpt>
      <trkpt lat="48.60366" lon="1.97162">
        <ele>128.8</ele>
        <time>2025-11-16T11:29:49Z</time>
        <extensions>
          <gpxtpx:TrackPointExtension xmlns:gpxtpx="http://www.garmin.com/xmlschemas/TrackPointExtension/v1">
            <gpxtpx:hr>116</gpxtpx:hr>
          </gpxtpx:TrackPointExtension>
        </extensions>
      </trkpt>
      <trkpt lat="48.60368" lon="1.97165">
        <ele>128.6</ele>
        <time>2025-11-16T11:29:51Z</time>
        <extensions>
          <gpxtpx:TrackPointExtension xmlns:gpxtpx="http://www.garmin.com/xmlschemas/TrackPointExtension/v1">
            <gpxtpx:hr>116</gpxtpx:hr>
          </gpxtpx:TrackPointExtension>
        </extensions>
      </trkpt>
      <trkpt lat="48.6037" lon="1.9717">
        <ele>128.8</ele>
        <time>2025-11-16T11:29:53Z</time>
        <extensions>
          <gpxtpx:TrackPointExtension xmlns:gpxtpx="http://www.garmin.com/xmlschemas/TrackPointExtension/v1">
            <gpxtpx:hr>115</gpxtpx:hr>
          </gpxtpx:TrackPointExtension>
        </extensions>
      </trkpt>
      <trkpt lat="48.60372" lon="1.97172">
        <ele>128.8</ele>
        <time>2025-11-16T11:29:54Z</time>
        <extensions>
          <gpxtpx:TrackPointExtension xmlns:gpxtpx="http://www.garmin.com/xmlschemas/TrackPointExtension/v1">
            <gpxtpx:hr>115</gpxtpx:hr>
          </gpxtpx:TrackPointExtension>
        </extensions>
      </trkpt>
      <trkpt lat="48.60373" lon="1.97175">
        <ele>128.6</ele>
        <time>2025-11-16T11:29:56Z</time>
        <extensions>
          <gpxtpx:TrackPointExtension xmlns:gpxtpx="http://www.garmin.com/xmlschemas/TrackPointExtension/v1">
            <gpxtpx:hr>115</gpxtpx:hr>
          </gpxtpx:TrackPointExtension>
        </extensions>
      </trkpt>
      <trkpt lat="48.60375" lon="1.97179">
        <ele>128.6</ele>
        <time>2025-11-16T11:29:58Z</time>
        <extensions>
          <gpxtpx:TrackPointExtension xmlns:gpxtpx="http://www.garmin.com/xmlschemas/TrackPointExtension/v1">
            <gpxtpx:hr>115</gpxtpx:hr>
          </gpxtpx:TrackPointExtension>
        </extensions>
      </trkpt>
      <trkpt lat="48.60376" lon="1.97182">
        <ele>128.6</ele>
        <time>2025-11-16T11:30:00Z</time>
        <extensions>
          <gpxtpx:TrackPointExtension xmlns:gpxtpx="http://www.garmin.com/xmlschemas/TrackPointExtension/v1">
            <gpxtpx:hr>115</gpxtpx:hr>
          </gpxtpx:TrackPointExtension>
        </extensions>
      </trkpt>
      <trkpt lat="48.60378" lon="1.97185">
        <ele>128.6</ele>
        <time>2025-11-16T11:30:02Z</time>
        <extensions>
          <gpxtpx:TrackPointExtension xmlns:gpxtpx="http://www.garmin.com/xmlschemas/TrackPointExtension/v1">
            <gpxtpx:hr>115</gpxtpx:hr>
          </gpxtpx:TrackPointExtension>
        </extensions>
      </trkpt>
      <trkpt lat="48.6038" lon="1.97188">
        <ele>128.6</ele>
        <time>2025-11-16T11:30:04Z</time>
        <extensions>
          <gpxtpx:TrackPointExtension xmlns:gpxtpx="http://www.garmin.com/xmlschemas/TrackPointExtension/v1">
            <gpxtpx:hr>115</gpxtpx:hr>
          </gpxtpx:TrackPointExtension>
        </extensions>
      </trkpt>
      <trkpt lat="48.60383" lon="1.97192">
        <ele>128.4</ele>
        <time>2025-11-16T11:30:06Z</time>
        <extensions>
          <gpxtpx:TrackPointExtension xmlns:gpxtpx="http://www.garmin.com/xmlschemas/TrackPointExtension/v1">
            <gpxtpx:hr>115</gpxtpx:hr>
          </gpxtpx:TrackPointExtension>
        </extensions>
      </trkpt>
      <trkpt lat="48.60385" lon="1.97195">
        <ele>128.2</ele>
        <time>2025-11-16T11:30:08Z</time>
        <extensions>
          <gpxtpx:TrackPointExtension xmlns:gpxtpx="http://www.garmin.com/xmlschemas/TrackPointExtension/v1">
            <gpxtpx:hr>115</gpxtpx:hr>
          </gpxtpx:TrackPointExtension>
        </extensions>
      </trkpt>
      <trkpt lat="48.60387" lon="1.97198">
        <ele>128</ele>
        <time>2025-11-16T11:30:10Z</time>
        <extensions>
          <gpxtpx:TrackPointExtension xmlns:gpxtpx="http://www.garmin.com/xmlschemas/TrackPointExtension/v1">
            <gpxtpx:hr>115</gpxtpx:hr>
          </gpxtpx:TrackPointExtension>
        </extensions>
      </trkpt>
      <trkpt lat="48.60389" lon="1.97202">
        <ele>127.8</ele>
        <time>2025-11-16T11:30:12Z</time>
        <extensions>
          <gpxtpx:TrackPointExtension xmlns:gpxtpx="http://www.garmin.com/xmlschemas/TrackPointExtension/v1">
            <gpxtpx:hr>115</gpxtpx:hr>
          </gpxtpx:TrackPointExtension>
        </extensions>
      </trkpt>
      <trkpt lat="48.60391" lon="1.97205">
        <ele>127.6</ele>
        <time>2025-11-16T11:30:14Z</time>
        <extensions>
          <gpxtpx:TrackPointExtension xmlns:gpxtpx="http://www.garmin.com/xmlschemas/TrackPointExtension/v1">
            <gpxtpx:hr>115</gpxtpx:hr>
          </gpxtpx:TrackPointExtension>
        </extensions>
      </trkpt>
      <trkpt lat="48.60394" lon="1.97208">
        <ele>127.4</ele>
        <time>2025-11-16T11:30:16Z</time>
        <extensions>
          <gpxtpx:TrackPointExtension xmlns:gpxtpx="http://www.garmin.com/xmlschemas/TrackPointExtension/v1">
            <gpxtpx:hr>115</gpxtpx:hr>
          </gpxtpx:TrackPointExtension>
        </extensions>
      </trkpt>
      <trkpt lat="48.60397" lon="1.97212">
        <ele>127.2</ele>
        <time>2025-11-16T11:30:18Z</time>
        <extensions>
          <gpxtpx:TrackPointExtension xmlns:gpxtpx="http://www.garmin.com/xmlschemas/TrackPointExtension/v1">
            <gpxtpx:hr>115</gpxtpx:hr>
          </gpxtpx:TrackPointExtension>
        </extensions>
      </trkpt>
      <trkpt lat="48.60399" lon="1.97213">
        <ele>127.2</ele>
        <time>2025-11-16T11:30:19Z</time>
        <extensions>
          <gpxtpx:TrackPointExtension xmlns:gpxtpx="http://www.garmin.com/xmlschemas/TrackPointExtension/v1">
            <gpxtpx:hr>115</gpxtpx:hr>
          </gpxtpx:TrackPointExtension>
        </extensions>
      </trkpt>
      <trkpt lat="48.60401" lon="1.97215">
        <ele>127</ele>
        <time>2025-11-16T11:30:20Z</time>
        <extensions>
          <gpxtpx:TrackPointExtension xmlns:gpxtpx="http://www.garmin.com/xmlschemas/TrackPointExtension/v1">
            <gpxtpx:hr>115</gpxtpx:hr>
          </gpxtpx:TrackPointExtension>
        </extensions>
      </trkpt>
      <trkpt lat="48.60403" lon="1.97216">
        <ele>126.8</ele>
        <time>2025-11-16T11:30:21Z</time>
        <extensions>
          <gpxtpx:TrackPointExtension xmlns:gpxtpx="http://www.garmin.com/xmlschemas/TrackPointExtension/v1">
            <gpxtpx:hr>115</gpxtpx:hr>
          </gpxtpx:TrackPointExtension>
        </extensions>
      </trkpt>
      <trkpt lat="48.60404" lon="1.97218">
        <ele>126.6</ele>
        <time>2025-11-16T11:30:22Z</time>
        <extensions>
          <gpxtpx:TrackPointExtension xmlns:gpxtpx="http://www.garmin.com/xmlschemas/TrackPointExtension/v1">
            <gpxtpx:hr>115</gpxtpx:hr>
          </gpxtpx:TrackPointExtension>
        </extensions>
      </trkpt>
      <trkpt lat="48.60406" lon="1.97219">
        <ele>126.4</ele>
        <time>2025-11-16T11:30:23Z</time>
        <extensions>
          <gpxtpx:TrackPointExtension xmlns:gpxtpx="http://www.garmin.com/xmlschemas/TrackPointExtension/v1">
            <gpxtpx:hr>115</gpxtpx:hr>
          </gpxtpx:TrackPointExtension>
        </extensions>
      </trkpt>
      <trkpt lat="48.60408" lon="1.97221">
        <ele>126.4</ele>
        <time>2025-11-16T11:30:24Z</time>
        <extensions>
          <gpxtpx:TrackPointExtension xmlns:gpxtpx="http://www.garmin.com/xmlschemas/TrackPointExtension/v1">
            <gpxtpx:hr>115</gpxtpx:hr>
          </gpxtpx:TrackPointExtension>
        </extensions>
      </trkpt>
      <trkpt lat="48.60409" lon="1.97222">
        <ele>126.2</ele>
        <time>2025-11-16T11:30:25Z</time>
        <extensions>
          <gpxtpx:TrackPointExtension xmlns:gpxtpx="http://www.garmin.com/xmlschemas/TrackPointExtension/v1">
            <gpxtpx:hr>115</gpxtpx:hr>
          </gpxtpx:TrackPointExtension>
        </extensions>
      </trkpt>
      <trkpt lat="48.60412" lon="1.97225">
        <ele>125.8</ele>
        <time>2025-11-16T11:30:27Z</time>
        <extensions>
          <gpxtpx:TrackPointExtension xmlns:gpxtpx="http://www.garmin.com/xmlschemas/TrackPointExtension/v1">
            <gpxtpx:hr>114</gpxtpx:hr>
          </gpxtpx:TrackPointExtension>
        </extensions>
      </trkpt>
      <trkpt lat="48.60414" lon="1.97227">
        <ele>125.6</ele>
        <time>2025-11-16T11:30:28Z</time>
        <extensions>
          <gpxtpx:TrackPointExtension xmlns:gpxtpx="http://www.garmin.com/xmlschemas/TrackPointExtension/v1">
            <gpxtpx:hr>114</gpxtpx:hr>
          </gpxtpx:TrackPointExtension>
        </extensions>
      </trkpt>
      <trkpt lat="48.60415" lon="1.97228">
        <ele>125.6</ele>
        <time>2025-11-16T11:30:29Z</time>
        <extensions>
          <gpxtpx:TrackPointExtension xmlns:gpxtpx="http://www.garmin.com/xmlschemas/TrackPointExtension/v1">
            <gpxtpx:hr>114</gpxtpx:hr>
          </gpxtpx:TrackPointExtension>
        </extensions>
      </trkpt>
      <trkpt lat="48.60418" lon="1.97231">
        <ele>125.4</ele>
        <time>2025-11-16T11:30:31Z</time>
        <extensions>
          <gpxtpx:TrackPointExtension xmlns:gpxtpx="http://www.garmin.com/xmlschemas/TrackPointExtension/v1">
            <gpxtpx:hr>114</gpxtpx:hr>
          </gpxtpx:TrackPointExtension>
        </extensions>
      </trkpt>
      <trkpt lat="48.6042" lon="1.97232">
        <ele>125.2</ele>
        <time>2025-11-16T11:30:32Z</time>
        <extensions>
          <gpxtpx:TrackPointExtension xmlns:gpxtpx="http://www.garmin.com/xmlschemas/TrackPointExtension/v1">
            <gpxtpx:hr>113</gpxtpx:hr>
          </gpxtpx:TrackPointExtension>
        </extensions>
      </trkpt>
      <trkpt lat="48.60422" lon="1.97236">
        <ele>125</ele>
        <time>2025-11-16T11:30:34Z</time>
        <extensions>
          <gpxtpx:TrackPointExtension xmlns:gpxtpx="http://www.garmin.com/xmlschemas/TrackPointExtension/v1">
            <gpxtpx:hr>113</gpxtpx:hr>
          </gpxtpx:TrackPointExtension>
        </extensions>
      </trkpt>
      <trkpt lat="48.60425" lon="1.97239">
        <ele>124.8</ele>
        <time>2025-11-16T11:30:36Z</time>
        <extensions>
          <gpxtpx:TrackPointExtension xmlns:gpxtpx="http://www.garmin.com/xmlschemas/TrackPointExtension/v1">
            <gpxtpx:hr>112</gpxtpx:hr>
          </gpxtpx:TrackPointExtension>
        </extensions>
      </trkpt>
      <trkpt lat="48.60428" lon="1.97242">
        <ele>124.6</ele>
        <time>2025-11-16T11:30:38Z</time>
        <extensions>
          <gpxtpx:TrackPointExtension xmlns:gpxtpx="http://www.garmin.com/xmlschemas/TrackPointExtension/v1">
            <gpxtpx:hr>112</gpxtpx:hr>
          </gpxtpx:TrackPointExtension>
        </extensions>
      </trkpt>
      <trkpt lat="48.60429" lon="1.97243">
        <ele>124.4</ele>
        <time>2025-11-16T11:30:39Z</time>
        <extensions>
          <gpxtpx:TrackPointExtension xmlns:gpxtpx="http://www.garmin.com/xmlschemas/TrackPointExtension/v1">
            <gpxtpx:hr>112</gpxtpx:hr>
          </gpxtpx:TrackPointExtension>
        </extensions>
      </trkpt>
      <trkpt lat="48.60431" lon="1.97245">
        <ele>124.2</ele>
        <time>2025-11-16T11:30:40Z</time>
        <extensions>
          <gpxtpx:TrackPointExtension xmlns:gpxtpx="http://www.garmin.com/xmlschemas/TrackPointExtension/v1">
            <gpxtpx:hr>112</gpxtpx:hr>
          </gpxtpx:TrackPointExtension>
        </extensions>
      </trkpt>
      <trkpt lat="48.60434" lon="1.97248">
        <ele>123.8</ele>
        <time>2025-11-16T11:30:42Z</time>
        <extensions>
          <gpxtpx:TrackPointExtension xmlns:gpxtpx="http://www.garmin.com/xmlschemas/TrackPointExtension/v1">
            <gpxtpx:hr>112</gpxtpx:hr>
          </gpxtpx:TrackPointExtension>
        </extensions>
      </trkpt>
      <trkpt lat="48.60436" lon="1.97249">
        <ele>123.6</ele>
        <time>2025-11-16T11:30:43Z</time>
        <extensions>
          <gpxtpx:TrackPointExtension xmlns:gpxtpx="http://www.garmin.com/xmlschemas/TrackPointExtension/v1">
            <gpxtpx:hr>112</gpxtpx:hr>
          </gpxtpx:TrackPointExtension>
        </extensions>
      </trkpt>
      <trkpt lat="48.60437" lon="1.97251">
        <ele>123.4</ele>
        <time>2025-11-16T11:30:44Z</time>
        <extensions>
          <gpxtpx:TrackPointExtension xmlns:gpxtpx="http://www.garmin.com/xmlschemas/TrackPointExtension/v1">
            <gpxtpx:hr>112</gpxtpx:hr>
          </gpxtpx:TrackPointExtension>
        </extensions>
      </trkpt>
      <trkpt lat="48.6044" lon="1.97253">
        <ele>123.2</ele>
        <time>2025-11-16T11:30:46Z</time>
        <extensions>
          <gpxtpx:TrackPointExtension xmlns:gpxtpx="http://www.garmin.com/xmlschemas/TrackPointExtension/v1">
            <gpxtpx:hr>112</gpxtpx:hr>
          </gpxtpx:TrackPointExtension>
        </extensions>
      </trkpt>
      <trkpt lat="48.60443" lon="1.97255">
        <ele>122.8</ele>
        <time>2025-11-16T11:30:48Z</time>
        <extensions>
          <gpxtpx:TrackPointExtension xmlns:gpxtpx="http://www.garmin.com/xmlschemas/TrackPointExtension/v1">
            <gpxtpx:hr>112</gpxtpx:hr>
          </gpxtpx:TrackPointExtension>
        </extensions>
      </trkpt>
      <trkpt lat="48.60446" lon="1.97258">
        <ele>122.6</ele>
        <time>2025-11-16T11:30:50Z</time>
        <extensions>
          <gpxtpx:TrackPointExtension xmlns:gpxtpx="http://www.garmin.com/xmlschemas/TrackPointExtension/v1">
            <gpxtpx:hr>112</gpxtpx:hr>
          </gpxtpx:TrackPointExtension>
        </extensions>
      </trkpt>
      <trkpt lat="48.60448" lon="1.97259">
        <ele>122.4</ele>
        <time>2025-11-16T11:30:51Z</time>
        <extensions>
          <gpxtpx:TrackPointExtension xmlns:gpxtpx="http://www.garmin.com/xmlschemas/TrackPointExtension/v1">
            <gpxtpx:hr>112</gpxtpx:hr>
          </gpxtpx:TrackPointExtension>
        </extensions>
      </trkpt>
      <trkpt lat="48.60452" lon="1.97261">
        <ele>122</ele>
        <time>2025-11-16T11:30:53Z</time>
        <extensions>
          <gpxtpx:TrackPointExtension xmlns:gpxtpx="http://www.garmin.com/xmlschemas/TrackPointExtension/v1">
            <gpxtpx:hr>112</gpxtpx:hr>
          </gpxtpx:TrackPointExtension>
        </extensions>
      </trkpt>
      <trkpt lat="48.60454" lon="1.97263">
        <ele>121.6</ele>
        <time>2025-11-16T11:30:55Z</time>
        <extensions>
          <gpxtpx:TrackPointExtension xmlns:gpxtpx="http://www.garmin.com/xmlschemas/TrackPointExtension/v1">
            <gpxtpx:hr>112</gpxtpx:hr>
          </gpxtpx:TrackPointExtension>
        </extensions>
      </trkpt>
      <trkpt lat="48.60457" lon="1.97265">
        <ele>121.2</ele>
        <time>2025-11-16T11:30:57Z</time>
        <extensions>
          <gpxtpx:TrackPointExtension xmlns:gpxtpx="http://www.garmin.com/xmlschemas/TrackPointExtension/v1">
            <gpxtpx:hr>112</gpxtpx:hr>
          </gpxtpx:TrackPointExtension>
        </extensions>
      </trkpt>
      <trkpt lat="48.60459" lon="1.97267">
        <ele>121</ele>
        <time>2025-11-16T11:30:59Z</time>
        <extensions>
          <gpxtpx:TrackPointExtension xmlns:gpxtpx="http://www.garmin.com/xmlschemas/TrackPointExtension/v1">
            <gpxtpx:hr>112</gpxtpx:hr>
          </gpxtpx:TrackPointExtension>
        </extensions>
      </trkpt>
      <trkpt lat="48.60462" lon="1.97269">
        <ele>120.8</ele>
        <time>2025-11-16T11:31:01Z</time>
        <extensions>
          <gpxtpx:TrackPointExtension xmlns:gpxtpx="http://www.garmin.com/xmlschemas/TrackPointExtension/v1">
            <gpxtpx:hr>112</gpxtpx:hr>
          </gpxtpx:TrackPointExtension>
        </extensions>
      </trkpt>
      <trkpt lat="48.60465" lon="1.97271">
        <ele>120.6</ele>
        <time>2025-11-16T11:31:03Z</time>
        <extensions>
          <gpxtpx:TrackPointExtension xmlns:gpxtpx="http://www.garmin.com/xmlschemas/TrackPointExtension/v1">
            <gpxtpx:hr>112</gpxtpx:hr>
          </gpxtpx:TrackPointExtension>
        </extensions>
      </trkpt>
      <trkpt lat="48.60468" lon="1.97272">
        <ele>120.4</ele>
        <time>2025-11-16T11:31:05Z</time>
        <extensions>
          <gpxtpx:TrackPointExtension xmlns:gpxtpx="http://www.garmin.com/xmlschemas/TrackPointExtension/v1">
            <gpxtpx:hr>112</gpxtpx:hr>
          </gpxtpx:TrackPointExtension>
        </extensions>
      </trkpt>
      <trkpt lat="48.60471" lon="1.97273">
        <ele>120.2</ele>
        <time>2025-11-16T11:31:07Z</time>
        <extensions>
          <gpxtpx:TrackPointExtension xmlns:gpxtpx="http://www.garmin.com/xmlschemas/TrackPointExtension/v1">
            <gpxtpx:hr>112</gpxtpx:hr>
          </gpxtpx:TrackPointExtension>
        </extensions>
      </trkpt>
      <trkpt lat="48.60474" lon="1.97274">
        <ele>120.2</ele>
        <time>2025-11-16T11:31:09Z</time>
        <extensions>
          <gpxtpx:TrackPointExtension xmlns:gpxtpx="http://www.garmin.com/xmlschemas/TrackPointExtension/v1">
            <gpxtpx:hr>112</gpxtpx:hr>
          </gpxtpx:TrackPointExtension>
        </extensions>
      </trkpt>
      <trkpt lat="48.60477" lon="1.97275">
        <ele>120.2</ele>
        <time>2025-11-16T11:31:11Z</time>
        <extensions>
          <gpxtpx:TrackPointExtension xmlns:gpxtpx="http://www.garmin.com/xmlschemas/TrackPointExtension/v1">
            <gpxtpx:hr>112</gpxtpx:hr>
          </gpxtpx:TrackPointExtension>
        </extensions>
      </trkpt>
      <trkpt lat="48.60479" lon="1.97276">
        <ele>120</ele>
        <time>2025-11-16T11:31:13Z</time>
        <extensions>
          <gpxtpx:TrackPointExtension xmlns:gpxtpx="http://www.garmin.com/xmlschemas/TrackPointExtension/v1">
            <gpxtpx:hr>112</gpxtpx:hr>
          </gpxtpx:TrackPointExtension>
        </extensions>
      </trkpt>
      <trkpt lat="48.60482" lon="1.97276">
        <ele>120</ele>
        <time>2025-11-16T11:31:15Z</time>
        <extensions>
          <gpxtpx:TrackPointExtension xmlns:gpxtpx="http://www.garmin.com/xmlschemas/TrackPointExtension/v1">
            <gpxtpx:hr>112</gpxtpx:hr>
          </gpxtpx:TrackPointExtension>
        </extensions>
      </trkpt>
      <trkpt lat="48.60485" lon="1.97277">
        <ele>119.8</ele>
        <time>2025-11-16T11:31:17Z</time>
        <extensions>
          <gpxtpx:TrackPointExtension xmlns:gpxtpx="http://www.garmin.com/xmlschemas/TrackPointExtension/v1">
            <gpxtpx:hr>112</gpxtpx:hr>
          </gpxtpx:TrackPointExtension>
        </extensions>
      </trkpt>
      <trkpt lat="48.60488" lon="1.97278">
        <ele>119.8</ele>
        <time>2025-11-16T11:31:19Z</time>
        <extensions>
          <gpxtpx:TrackPointExtension xmlns:gpxtpx="http://www.garmin.com/xmlschemas/TrackPointExtension/v1">
            <gpxtpx:hr>112</gpxtpx:hr>
          </gpxtpx:TrackPointExtension>
        </extensions>
      </trkpt>
      <trkpt lat="48.6049" lon="1.97279">
        <ele>119.6</ele>
        <time>2025-11-16T11:31:21Z</time>
        <extensions>
          <gpxtpx:TrackPointExtension xmlns:gpxtpx="http://www.garmin.com/xmlschemas/TrackPointExtension/v1">
            <gpxtpx:hr>112</gpxtpx:hr>
          </gpxtpx:TrackPointExtension>
        </extensions>
      </trkpt>
      <trkpt lat="48.60492" lon="1.9728">
        <ele>119.6</ele>
        <time>2025-11-16T11:31:23Z</time>
        <extensions>
          <gpxtpx:TrackPointExtension xmlns:gpxtpx="http://www.garmin.com/xmlschemas/TrackPointExtension/v1">
            <gpxtpx:hr>113</gpxtpx:hr>
          </gpxtpx:TrackPointExtension>
        </extensions>
      </trkpt>
      <trkpt lat="48.60495" lon="1.97281">
        <ele>119.4</ele>
        <time>2025-11-16T11:31:25Z</time>
        <extensions>
          <gpxtpx:TrackPointExtension xmlns:gpxtpx="http://www.garmin.com/xmlschemas/TrackPointExtension/v1">
            <gpxtpx:hr>113</gpxtpx:hr>
          </gpxtpx:TrackPointExtension>
        </extensions>
      </trkpt>
      <trkpt lat="48.60497" lon="1.97282">
        <ele>119.2</ele>
        <time>2025-11-16T11:31:27Z</time>
        <extensions>
          <gpxtpx:TrackPointExtension xmlns:gpxtpx="http://www.garmin.com/xmlschemas/TrackPointExtension/v1">
            <gpxtpx:hr>113</gpxtpx:hr>
          </gpxtpx:TrackPointExtension>
        </extensions>
      </trkpt>
      <trkpt lat="48.60501" lon="1.97284">
        <ele>119.2</ele>
        <time>2025-11-16T11:31:29Z</time>
        <extensions>
          <gpxtpx:TrackPointExtension xmlns:gpxtpx="http://www.garmin.com/xmlschemas/TrackPointExtension/v1">
            <gpxtpx:hr>113</gpxtpx:hr>
          </gpxtpx:TrackPointExtension>
        </extensions>
      </trkpt>
      <trkpt lat="48.60504" lon="1.97286">
        <ele>119</ele>
        <time>2025-11-16T11:31:31Z</time>
        <extensions>
          <gpxtpx:TrackPointExtension xmlns:gpxtpx="http://www.garmin.com/xmlschemas/TrackPointExtension/v1">
            <gpxtpx:hr>112</gpxtpx:hr>
          </gpxtpx:TrackPointExtension>
        </extensions>
      </trkpt>
      <trkpt lat="48.60507" lon="1.97289">
        <ele>119</ele>
        <time>2025-11-16T11:31:33Z</time>
        <extensions>
          <gpxtpx:TrackPointExtension xmlns:gpxtpx="http://www.garmin.com/xmlschemas/TrackPointExtension/v1">
            <gpxtpx:hr>112</gpxtpx:hr>
          </gpxtpx:TrackPointExtension>
        </extensions>
      </trkpt>
      <trkpt lat="48.60509" lon="1.97291">
        <ele>118.8</ele>
        <time>2025-11-16T11:31:35Z</time>
        <extensions>
          <gpxtpx:TrackPointExtension xmlns:gpxtpx="http://www.garmin.com/xmlschemas/TrackPointExtension/v1">
            <gpxtpx:hr>112</gpxtpx:hr>
          </gpxtpx:TrackPointExtension>
        </extensions>
      </trkpt>
      <trkpt lat="48.60511" lon="1.97292">
        <ele>118.8</ele>
        <time>2025-11-16T11:31:37Z</time>
        <extensions>
          <gpxtpx:TrackPointExtension xmlns:gpxtpx="http://www.garmin.com/xmlschemas/TrackPointExtension/v1">
            <gpxtpx:hr>112</gpxtpx:hr>
          </gpxtpx:TrackPointExtension>
        </extensions>
      </trkpt>
      <trkpt lat="48.60515" lon="1.97294">
        <ele>118.8</ele>
        <time>2025-11-16T11:31:39Z</time>
        <extensions>
          <gpxtpx:TrackPointExtension xmlns:gpxtpx="http://www.garmin.com/xmlschemas/TrackPointExtension/v1">
            <gpxtpx:hr>112</gpxtpx:hr>
          </gpxtpx:TrackPointExtension>
        </extensions>
      </trkpt>
      <trkpt lat="48.60517" lon="1.97295">
        <ele>118.8</ele>
        <time>2025-11-16T11:31:41Z</time>
        <extensions>
          <gpxtpx:TrackPointExtension xmlns:gpxtpx="http://www.garmin.com/xmlschemas/TrackPointExtension/v1">
            <gpxtpx:hr>112</gpxtpx:hr>
          </gpxtpx:TrackPointExtension>
        </extensions>
      </trkpt>
      <trkpt lat="48.60519" lon="1.97297">
        <ele>118.8</ele>
        <time>2025-11-16T11:31:43Z</time>
        <extensions>
          <gpxtpx:TrackPointExtension xmlns:gpxtpx="http://www.garmin.com/xmlschemas/TrackPointExtension/v1">
            <gpxtpx:hr>112</gpxtpx:hr>
          </gpxtpx:TrackPointExtension>
        </extensions>
      </trkpt>
      <trkpt lat="48.60521" lon="1.97299">
        <ele>118.6</ele>
        <time>2025-11-16T11:31:45Z</time>
        <extensions>
          <gpxtpx:TrackPointExtension xmlns:gpxtpx="http://www.garmin.com/xmlschemas/TrackPointExtension/v1">
            <gpxtpx:hr>112</gpxtpx:hr>
          </gpxtpx:TrackPointExtension>
        </extensions>
      </trkpt>
      <trkpt lat="48.60524" lon="1.973">
        <ele>118.6</ele>
        <time>2025-11-16T11:31:47Z</time>
        <extensions>
          <gpxtpx:TrackPointExtension xmlns:gpxtpx="http://www.garmin.com/xmlschemas/TrackPointExtension/v1">
            <gpxtpx:hr>112</gpxtpx:hr>
          </gpxtpx:TrackPointExtension>
        </extensions>
      </trkpt>
      <trkpt lat="48.60525" lon="1.97301">
        <ele>118.6</ele>
        <time>2025-11-16T11:31:48Z</time>
        <extensions>
          <gpxtpx:TrackPointExtension xmlns:gpxtpx="http://www.garmin.com/xmlschemas/TrackPointExtension/v1">
            <gpxtpx:hr>113</gpxtpx:hr>
          </gpxtpx:TrackPointExtension>
        </extensions>
      </trkpt>
      <trkpt lat="48.60528" lon="1.97302">
        <ele>118.6</ele>
        <time>2025-11-16T11:31:49Z</time>
        <extensions>
          <gpxtpx:TrackPointExtension xmlns:gpxtpx="http://www.garmin.com/xmlschemas/TrackPointExtension/v1">
            <gpxtpx:hr>113</gpxtpx:hr>
          </gpxtpx:TrackPointExtension>
        </extensions>
      </trkpt>
      <trkpt lat="48.60531" lon="1.97304">
        <ele>118.6</ele>
        <time>2025-11-16T11:31:50Z</time>
        <extensions>
          <gpxtpx:TrackPointExtension xmlns:gpxtpx="http://www.garmin.com/xmlschemas/TrackPointExtension/v1">
            <gpxtpx:hr>113</gpxtpx:hr>
          </gpxtpx:TrackPointExtension>
        </extensions>
      </trkpt>
      <trkpt lat="48.60535" lon="1.97305">
        <ele>118.6</ele>
        <time>2025-11-16T11:31:51Z</time>
        <extensions>
          <gpxtpx:TrackPointExtension xmlns:gpxtpx="http://www.garmin.com/xmlschemas/TrackPointExtension/v1">
            <gpxtpx:hr>113</gpxtpx:hr>
          </gpxtpx:TrackPointExtension>
        </extensions>
      </trkpt>
      <trkpt lat="48.60539" lon="1.97306">
        <ele>118.6</ele>
        <time>2025-11-16T11:31:52Z</time>
        <extensions>
          <gpxtpx:TrackPointExtension xmlns:gpxtpx="http://www.garmin.com/xmlschemas/TrackPointExtension/v1">
            <gpxtpx:hr>113</gpxtpx:hr>
          </gpxtpx:TrackPointExtension>
        </extensions>
      </trkpt>
      <trkpt lat="48.60542" lon="1.97307">
        <ele>118.6</ele>
        <time>2025-11-16T11:31:53Z</time>
        <extensions>
          <gpxtpx:TrackPointExtension xmlns:gpxtpx="http://www.garmin.com/xmlschemas/TrackPointExtension/v1">
            <gpxtpx:hr>113</gpxtpx:hr>
          </gpxtpx:TrackPointExtension>
        </extensions>
      </trkpt>
      <trkpt lat="48.60545" lon="1.97308">
        <ele>118.6</ele>
        <time>2025-11-16T11:31:54Z</time>
        <extensions>
          <gpxtpx:TrackPointExtension xmlns:gpxtpx="http://www.garmin.com/xmlschemas/TrackPointExtension/v1">
            <gpxtpx:hr>113</gpxtpx:hr>
          </gpxtpx:TrackPointExtension>
        </extensions>
      </trkpt>
      <trkpt lat="48.60548" lon="1.97309">
        <ele>118.6</ele>
        <time>2025-11-16T11:31:55Z</time>
        <extensions>
          <gpxtpx:TrackPointExtension xmlns:gpxtpx="http://www.garmin.com/xmlschemas/TrackPointExtension/v1">
            <gpxtpx:hr>113</gpxtpx:hr>
          </gpxtpx:TrackPointExtension>
        </extensions>
      </trkpt>
      <trkpt lat="48.60551" lon="1.97309">
        <ele>118.6</ele>
        <time>2025-11-16T11:31:56Z</time>
        <extensions>
          <gpxtpx:TrackPointExtension xmlns:gpxtpx="http://www.garmin.com/xmlschemas/TrackPointExtension/v1">
            <gpxtpx:hr>113</gpxtpx:hr>
          </gpxtpx:TrackPointExtension>
        </extensions>
      </trkpt>
      <trkpt lat="48.60553" lon="1.9731">
        <ele>118.6</ele>
        <time>2025-11-16T11:31:57Z</time>
        <extensions>
          <gpxtpx:TrackPointExtension xmlns:gpxtpx="http://www.garmin.com/xmlschemas/TrackPointExtension/v1">
            <gpxtpx:hr>113</gpxtpx:hr>
          </gpxtpx:TrackPointExtension>
        </extensions>
      </trkpt>
      <trkpt lat="48.60556" lon="1.97312">
        <ele>118.8</ele>
        <time>2025-11-16T11:31:59Z</time>
        <extensions>
          <gpxtpx:TrackPointExtension xmlns:gpxtpx="http://www.garmin.com/xmlschemas/TrackPointExtension/v1">
            <gpxtpx:hr>113</gpxtpx:hr>
          </gpxtpx:TrackPointExtension>
        </extensions>
      </trkpt>
      <trkpt lat="48.60558" lon="1.97315">
        <ele>118.8</ele>
        <time>2025-11-16T11:32:01Z</time>
        <extensions>
          <gpxtpx:TrackPointExtension xmlns:gpxtpx="http://www.garmin.com/xmlschemas/TrackPointExtension/v1">
            <gpxtpx:hr>113</gpxtpx:hr>
          </gpxtpx:TrackPointExtension>
        </extensions>
      </trkpt>
      <trkpt lat="48.60559" lon="1.97317">
        <ele>118.6</ele>
        <time>2025-11-16T11:32:03Z</time>
        <extensions>
          <gpxtpx:TrackPointExtension xmlns:gpxtpx="http://www.garmin.com/xmlschemas/TrackPointExtension/v1">
            <gpxtpx:hr>113</gpxtpx:hr>
          </gpxtpx:TrackPointExtension>
        </extensions>
      </trkpt>
      <trkpt lat="48.60561" lon="1.9732">
        <ele>118.6</ele>
        <time>2025-11-16T11:32:05Z</time>
        <extensions>
          <gpxtpx:TrackPointExtension xmlns:gpxtpx="http://www.garmin.com/xmlschemas/TrackPointExtension/v1">
            <gpxtpx:hr>113</gpxtpx:hr>
          </gpxtpx:TrackPointExtension>
        </extensions>
      </trkpt>
      <trkpt lat="48.60562" lon="1.97323">
        <ele>118.8</ele>
        <time>2025-11-16T11:32:07Z</time>
        <extensions>
          <gpxtpx:TrackPointExtension xmlns:gpxtpx="http://www.garmin.com/xmlschemas/TrackPointExtension/v1">
            <gpxtpx:hr>113</gpxtpx:hr>
          </gpxtpx:TrackPointExtension>
        </extensions>
      </trkpt>
      <trkpt lat="48.60564" lon="1.97326">
        <ele>118.8</ele>
        <time>2025-11-16T11:32:09Z</time>
        <extensions>
          <gpxtpx:TrackPointExtension xmlns:gpxtpx="http://www.garmin.com/xmlschemas/TrackPointExtension/v1">
            <gpxtpx:hr>113</gpxtpx:hr>
          </gpxtpx:TrackPointExtension>
        </extensions>
      </trkpt>
      <trkpt lat="48.60566" lon="1.9733">
        <ele>118.6</ele>
        <time>2025-11-16T11:32:11Z</time>
        <extensions>
          <gpxtpx:TrackPointExtension xmlns:gpxtpx="http://www.garmin.com/xmlschemas/TrackPointExtension/v1">
            <gpxtpx:hr>113</gpxtpx:hr>
          </gpxtpx:TrackPointExtension>
        </extensions>
      </trkpt>
      <trkpt lat="48.60568" lon="1.97334">
        <ele>118.6</ele>
        <time>2025-11-16T11:32:13Z</time>
        <extensions>
          <gpxtpx:TrackPointExtension xmlns:gpxtpx="http://www.garmin.com/xmlschemas/TrackPointExtension/v1">
            <gpxtpx:hr>113</gpxtpx:hr>
          </gpxtpx:TrackPointExtension>
        </extensions>
      </trkpt>
      <trkpt lat="48.60571" lon="1.97337">
        <ele>118.6</ele>
        <time>2025-11-16T11:32:15Z</time>
        <extensions>
          <gpxtpx:TrackPointExtension xmlns:gpxtpx="http://www.garmin.com/xmlschemas/TrackPointExtension/v1">
            <gpxtpx:hr>113</gpxtpx:hr>
          </gpxtpx:TrackPointExtension>
        </extensions>
      </trkpt>
      <trkpt lat="48.60572" lon="1.97339">
        <ele>118.6</ele>
        <time>2025-11-16T11:32:16Z</time>
        <extensions>
          <gpxtpx:TrackPointExtension xmlns:gpxtpx="http://www.garmin.com/xmlschemas/TrackPointExtension/v1">
            <gpxtpx:hr>113</gpxtpx:hr>
          </gpxtpx:TrackPointExtension>
        </extensions>
      </trkpt>
      <trkpt lat="48.60574" lon="1.9734">
        <ele>118.6</ele>
        <time>2025-11-16T11:32:17Z</time>
        <extensions>
          <gpxtpx:TrackPointExtension xmlns:gpxtpx="http://www.garmin.com/xmlschemas/TrackPointExtension/v1">
            <gpxtpx:hr>113</gpxtpx:hr>
          </gpxtpx:TrackPointExtension>
        </extensions>
      </trkpt>
      <trkpt lat="48.60577" lon="1.97343">
        <ele>118.6</ele>
        <time>2025-11-16T11:32:19Z</time>
        <extensions>
          <gpxtpx:TrackPointExtension xmlns:gpxtpx="http://www.garmin.com/xmlschemas/TrackPointExtension/v1">
            <gpxtpx:hr>113</gpxtpx:hr>
          </gpxtpx:TrackPointExtension>
        </extensions>
      </trkpt>
      <trkpt lat="48.60579" lon="1.97345">
        <ele>118.6</ele>
        <time>2025-11-16T11:32:21Z</time>
        <extensions>
          <gpxtpx:TrackPointExtension xmlns:gpxtpx="http://www.garmin.com/xmlschemas/TrackPointExtension/v1">
            <gpxtpx:hr>114</gpxtpx:hr>
          </gpxtpx:TrackPointExtension>
        </extensions>
      </trkpt>
      <trkpt lat="48.6058" lon="1.97348">
        <ele>118.6</ele>
        <time>2025-11-16T11:32:23Z</time>
        <extensions>
          <gpxtpx:TrackPointExtension xmlns:gpxtpx="http://www.garmin.com/xmlschemas/TrackPointExtension/v1">
            <gpxtpx:hr>114</gpxtpx:hr>
          </gpxtpx:TrackPointExtension>
        </extensions>
      </trkpt>
      <trkpt lat="48.60581" lon="1.97351">
        <ele>118.4</ele>
        <time>2025-11-16T11:32:25Z</time>
        <extensions>
          <gpxtpx:TrackPointExtension xmlns:gpxtpx="http://www.garmin.com/xmlschemas/TrackPointExtension/v1">
            <gpxtpx:hr>114</gpxtpx:hr>
          </gpxtpx:TrackPointExtension>
        </extensions>
      </trkpt>
      <trkpt lat="48.60582" lon="1.97354">
        <ele>118.4</ele>
        <time>2025-11-16T11:32:27Z</time>
        <extensions>
          <gpxtpx:TrackPointExtension xmlns:gpxtpx="http://www.garmin.com/xmlschemas/TrackPointExtension/v1">
            <gpxtpx:hr>114</gpxtpx:hr>
          </gpxtpx:TrackPointExtension>
        </extensions>
      </trkpt>
      <trkpt lat="48.60584" lon="1.97356">
        <ele>118.4</ele>
        <time>2025-11-16T11:32:29Z</time>
        <extensions>
          <gpxtpx:TrackPointExtension xmlns:gpxtpx="http://www.garmin.com/xmlschemas/TrackPointExtension/v1">
            <gpxtpx:hr>114</gpxtpx:hr>
          </gpxtpx:TrackPointExtension>
        </extensions>
      </trkpt>
      <trkpt lat="48.60587" lon="1.97359">
        <ele>118.2</ele>
        <time>2025-11-16T11:32:31Z</time>
        <extensions>
          <gpxtpx:TrackPointExtension xmlns:gpxtpx="http://www.garmin.com/xmlschemas/TrackPointExtension/v1">
            <gpxtpx:hr>114</gpxtpx:hr>
          </gpxtpx:TrackPointExtension>
        </extensions>
      </trkpt>
      <trkpt lat="48.60588" lon="1.97361">
        <ele>118.2</ele>
        <time>2025-11-16T11:32:33Z</time>
        <extensions>
          <gpxtpx:TrackPointExtension xmlns:gpxtpx="http://www.garmin.com/xmlschemas/TrackPointExtension/v1">
            <gpxtpx:hr>114</gpxtpx:hr>
          </gpxtpx:TrackPointExtension>
        </extensions>
      </trkpt>
      <trkpt lat="48.60589" lon="1.97364">
        <ele>118</ele>
        <time>2025-11-16T11:32:35Z</time>
        <extensions>
          <gpxtpx:TrackPointExtension xmlns:gpxtpx="http://www.garmin.com/xmlschemas/TrackPointExtension/v1">
            <gpxtpx:hr>113</gpxtpx:hr>
          </gpxtpx:TrackPointExtension>
        </extensions>
      </trkpt>
      <trkpt lat="48.60591" lon="1.97367">
        <ele>118</ele>
        <time>2025-11-16T11:32:37Z</time>
        <extensions>
          <gpxtpx:TrackPointExtension xmlns:gpxtpx="http://www.garmin.com/xmlschemas/TrackPointExtension/v1">
            <gpxtpx:hr>113</gpxtpx:hr>
          </gpxtpx:TrackPointExtension>
        </extensions>
      </trkpt>
      <trkpt lat="48.60593" lon="1.97371">
        <ele>117.8</ele>
        <time>2025-11-16T11:32:39Z</time>
        <extensions>
          <gpxtpx:TrackPointExtension xmlns:gpxtpx="http://www.garmin.com/xmlschemas/TrackPointExtension/v1">
            <gpxtpx:hr>113</gpxtpx:hr>
          </gpxtpx:TrackPointExtension>
        </extensions>
      </trkpt>
      <trkpt lat="48.60595" lon="1.97375">
        <ele>117.8</ele>
        <time>2025-11-16T11:32:41Z</time>
        <extensions>
          <gpxtpx:TrackPointExtension xmlns:gpxtpx="http://www.garmin.com/xmlschemas/TrackPointExtension/v1">
            <gpxtpx:hr>113</gpxtpx:hr>
          </gpxtpx:TrackPointExtension>
        </extensions>
      </trkpt>
      <trkpt lat="48.60596" lon="1.97379">
        <ele>117.8</ele>
        <time>2025-11-16T11:32:43Z</time>
        <extensions>
          <gpxtpx:TrackPointExtension xmlns:gpxtpx="http://www.garmin.com/xmlschemas/TrackPointExtension/v1">
            <gpxtpx:hr>114</gpxtpx:hr>
          </gpxtpx:TrackPointExtension>
        </extensions>
      </trkpt>
      <trkpt lat="48.60598" lon="1.97383">
        <ele>117.8</ele>
        <time>2025-11-16T11:32:45Z</time>
        <extensions>
          <gpxtpx:TrackPointExtension xmlns:gpxtpx="http://www.garmin.com/xmlschemas/TrackPointExtension/v1">
            <gpxtpx:hr>114</gpxtpx:hr>
          </gpxtpx:TrackPointExtension>
        </extensions>
      </trkpt>
      <trkpt lat="48.606" lon="1.97386">
        <ele>117.8</ele>
        <time>2025-11-16T11:32:47Z</time>
        <extensions>
          <gpxtpx:TrackPointExtension xmlns:gpxtpx="http://www.garmin.com/xmlschemas/TrackPointExtension/v1">
            <gpxtpx:hr>114</gpxtpx:hr>
          </gpxtpx:TrackPointExtension>
        </extensions>
      </trkpt>
      <trkpt lat="48.60602" lon="1.97388">
        <ele>117.8</ele>
        <time>2025-11-16T11:32:48Z</time>
        <extensions>
          <gpxtpx:TrackPointExtension xmlns:gpxtpx="http://www.garmin.com/xmlschemas/TrackPointExtension/v1">
            <gpxtpx:hr>114</gpxtpx:hr>
          </gpxtpx:TrackPointExtension>
        </extensions>
      </trkpt>
      <trkpt lat="48.60606" lon="1.97392">
        <ele>117.8</ele>
        <time>2025-11-16T11:32:50Z</time>
        <extensions>
          <gpxtpx:TrackPointExtension xmlns:gpxtpx="http://www.garmin.com/xmlschemas/TrackPointExtension/v1">
            <gpxtpx:hr>114</gpxtpx:hr>
          </gpxtpx:TrackPointExtension>
        </extensions>
      </trkpt>
      <trkpt lat="48.60608" lon="1.97393">
        <ele>117.8</ele>
        <time>2025-11-16T11:32:51Z</time>
        <extensions>
          <gpxtpx:TrackPointExtension xmlns:gpxtpx="http://www.garmin.com/xmlschemas/TrackPointExtension/v1">
            <gpxtpx:hr>114</gpxtpx:hr>
          </gpxtpx:TrackPointExtension>
        </extensions>
      </trkpt>
      <trkpt lat="48.60609" lon="1.97395">
        <ele>117.8</ele>
        <time>2025-11-16T11:32:52Z</time>
        <extensions>
          <gpxtpx:TrackPointExtension xmlns:gpxtpx="http://www.garmin.com/xmlschemas/TrackPointExtension/v1">
            <gpxtpx:hr>114</gpxtpx:hr>
          </gpxtpx:TrackPointExtension>
        </extensions>
      </trkpt>
      <trkpt lat="48.60611" lon="1.97397">
        <ele>117.8</ele>
        <time>2025-11-16T11:32:53Z</time>
        <extensions>
          <gpxtpx:TrackPointExtension xmlns:gpxtpx="http://www.garmin.com/xmlschemas/TrackPointExtension/v1">
            <gpxtpx:hr>114</gpxtpx:hr>
          </gpxtpx:TrackPointExtension>
        </extensions>
      </trkpt>
      <trkpt lat="48.60613" lon="1.974">
        <ele>117.8</ele>
        <time>2025-11-16T11:32:54Z</time>
        <extensions>
          <gpxtpx:TrackPointExtension xmlns:gpxtpx="http://www.garmin.com/xmlschemas/TrackPointExtension/v1">
            <gpxtpx:hr>114</gpxtpx:hr>
          </gpxtpx:TrackPointExtension>
        </extensions>
      </trkpt>
      <trkpt lat="48.60614" lon="1.97402">
        <ele>117.8</ele>
        <time>2025-11-16T11:32:55Z</time>
        <extensions>
          <gpxtpx:TrackPointExtension xmlns:gpxtpx="http://www.garmin.com/xmlschemas/TrackPointExtension/v1">
            <gpxtpx:hr>114</gpxtpx:hr>
          </gpxtpx:TrackPointExtension>
        </extensions>
      </trkpt>
      <trkpt lat="48.60616" lon="1.97405">
        <ele>117.8</ele>
        <time>2025-11-16T11:32:56Z</time>
        <extensions>
          <gpxtpx:TrackPointExtension xmlns:gpxtpx="http://www.garmin.com/xmlschemas/TrackPointExtension/v1">
            <gpxtpx:hr>114</gpxtpx:hr>
          </gpxtpx:TrackPointExtension>
        </extensions>
      </trkpt>
      <trkpt lat="48.60618" lon="1.97407">
        <ele>117.8</ele>
        <time>2025-11-16T11:32:57Z</time>
        <extensions>
          <gpxtpx:TrackPointExtension xmlns:gpxtpx="http://www.garmin.com/xmlschemas/TrackPointExtension/v1">
            <gpxtpx:hr>115</gpxtpx:hr>
          </gpxtpx:TrackPointExtension>
        </extensions>
      </trkpt>
      <trkpt lat="48.6062" lon="1.9741">
        <ele>118</ele>
        <time>2025-11-16T11:32:58Z</time>
        <extensions>
          <gpxtpx:TrackPointExtension xmlns:gpxtpx="http://www.garmin.com/xmlschemas/TrackPointExtension/v1">
            <gpxtpx:hr>115</gpxtpx:hr>
          </gpxtpx:TrackPointExtension>
        </extensions>
      </trkpt>
      <trkpt lat="48.60622" lon="1.97413">
        <ele>118</ele>
        <time>2025-11-16T11:32:59Z</time>
        <extensions>
          <gpxtpx:TrackPointExtension xmlns:gpxtpx="http://www.garmin.com/xmlschemas/TrackPointExtension/v1">
            <gpxtpx:hr>115</gpxtpx:hr>
          </gpxtpx:TrackPointExtension>
        </extensions>
      </trkpt>
      <trkpt lat="48.60625" lon="1.97415">
        <ele>118</ele>
        <time>2025-11-16T11:33:00Z</time>
        <extensions>
          <gpxtpx:TrackPointExtension xmlns:gpxtpx="http://www.garmin.com/xmlschemas/TrackPointExtension/v1">
            <gpxtpx:hr>115</gpxtpx:hr>
          </gpxtpx:TrackPointExtension>
        </extensions>
      </trkpt>
      <trkpt lat="48.60628" lon="1.97417">
        <ele>118</ele>
        <time>2025-11-16T11:33:01Z</time>
        <extensions>
          <gpxtpx:TrackPointExtension xmlns:gpxtpx="http://www.garmin.com/xmlschemas/TrackPointExtension/v1">
            <gpxtpx:hr>115</gpxtpx:hr>
          </gpxtpx:TrackPointExtension>
        </extensions>
      </trkpt>
      <trkpt lat="48.60631" lon="1.97419">
        <ele>117.8</ele>
        <time>2025-11-16T11:33:02Z</time>
        <extensions>
          <gpxtpx:TrackPointExtension xmlns:gpxtpx="http://www.garmin.com/xmlschemas/TrackPointExtension/v1">
            <gpxtpx:hr>115</gpxtpx:hr>
          </gpxtpx:TrackPointExtension>
        </extensions>
      </trkpt>
      <trkpt lat="48.60633" lon="1.97421">
        <ele>117.8</ele>
        <time>2025-11-16T11:33:03Z</time>
        <extensions>
          <gpxtpx:TrackPointExtension xmlns:gpxtpx="http://www.garmin.com/xmlschemas/TrackPointExtension/v1">
            <gpxtpx:hr>115</gpxtpx:hr>
          </gpxtpx:TrackPointExtension>
        </extensions>
      </trkpt>
      <trkpt lat="48.60636" lon="1.97422">
        <ele>117.6</ele>
        <time>2025-11-16T11:33:04Z</time>
        <extensions>
          <gpxtpx:TrackPointExtension xmlns:gpxtpx="http://www.garmin.com/xmlschemas/TrackPointExtension/v1">
            <gpxtpx:hr>115</gpxtpx:hr>
          </gpxtpx:TrackPointExtension>
        </extensions>
      </trkpt>
      <trkpt lat="48.60638" lon="1.97424">
        <ele>117.6</ele>
        <time>2025-11-16T11:33:06Z</time>
        <extensions>
          <gpxtpx:TrackPointExtension xmlns:gpxtpx="http://www.garmin.com/xmlschemas/TrackPointExtension/v1">
            <gpxtpx:hr>115</gpxtpx:hr>
          </gpxtpx:TrackPointExtension>
        </extensions>
      </trkpt>
      <trkpt lat="48.60641" lon="1.97426">
        <ele>117.4</ele>
        <time>2025-11-16T11:33:08Z</time>
        <extensions>
          <gpxtpx:TrackPointExtension xmlns:gpxtpx="http://www.garmin.com/xmlschemas/TrackPointExtension/v1">
            <gpxtpx:hr>115</gpxtpx:hr>
          </gpxtpx:TrackPointExtension>
        </extensions>
      </trkpt>
      <trkpt lat="48.60643" lon="1.97427">
        <ele>117.4</ele>
        <time>2025-11-16T11:33:09Z</time>
        <extensions>
          <gpxtpx:TrackPointExtension xmlns:gpxtpx="http://www.garmin.com/xmlschemas/TrackPointExtension/v1">
            <gpxtpx:hr>115</gpxtpx:hr>
          </gpxtpx:TrackPointExtension>
        </extensions>
      </trkpt>
      <trkpt lat="48.60645" lon="1.97428">
        <ele>117.4</ele>
        <time>2025-11-16T11:33:10Z</time>
        <extensions>
          <gpxtpx:TrackPointExtension xmlns:gpxtpx="http://www.garmin.com/xmlschemas/TrackPointExtension/v1">
            <gpxtpx:hr>115</gpxtpx:hr>
          </gpxtpx:TrackPointExtension>
        </extensions>
      </trkpt>
      <trkpt lat="48.60648" lon="1.9743">
        <ele>117.4</ele>
        <time>2025-11-16T11:33:11Z</time>
        <extensions>
          <gpxtpx:TrackPointExtension xmlns:gpxtpx="http://www.garmin.com/xmlschemas/TrackPointExtension/v1">
            <gpxtpx:hr>115</gpxtpx:hr>
          </gpxtpx:TrackPointExtension>
        </extensions>
      </trkpt>
      <trkpt lat="48.6065" lon="1.97432">
        <ele>117.4</ele>
        <time>2025-11-16T11:33:12Z</time>
        <extensions>
          <gpxtpx:TrackPointExtension xmlns:gpxtpx="http://www.garmin.com/xmlschemas/TrackPointExtension/v1">
            <gpxtpx:hr>115</gpxtpx:hr>
          </gpxtpx:TrackPointExtension>
        </extensions>
      </trkpt>
      <trkpt lat="48.60652" lon="1.97434">
        <ele>117.4</ele>
        <time>2025-11-16T11:33:13Z</time>
        <extensions>
          <gpxtpx:TrackPointExtension xmlns:gpxtpx="http://www.garmin.com/xmlschemas/TrackPointExtension/v1">
            <gpxtpx:hr>115</gpxtpx:hr>
          </gpxtpx:TrackPointExtension>
        </extensions>
      </trkpt>
      <trkpt lat="48.60654" lon="1.97438">
        <ele>117.6</ele>
        <time>2025-11-16T11:33:15Z</time>
        <extensions>
          <gpxtpx:TrackPointExtension xmlns:gpxtpx="http://www.garmin.com/xmlschemas/TrackPointExtension/v1">
            <gpxtpx:hr>115</gpxtpx:hr>
          </gpxtpx:TrackPointExtension>
        </extensions>
      </trkpt>
      <trkpt lat="48.60655" lon="1.97442">
        <ele>117.6</ele>
        <time>2025-11-16T11:33:17Z</time>
        <extensions>
          <gpxtpx:TrackPointExtension xmlns:gpxtpx="http://www.garmin.com/xmlschemas/TrackPointExtension/v1">
            <gpxtpx:hr>115</gpxtpx:hr>
          </gpxtpx:TrackPointExtension>
        </extensions>
      </trkpt>
      <trkpt lat="48.60657" lon="1.97446">
        <ele>117.6</ele>
        <time>2025-11-16T11:33:19Z</time>
        <extensions>
          <gpxtpx:TrackPointExtension xmlns:gpxtpx="http://www.garmin.com/xmlschemas/TrackPointExtension/v1">
            <gpxtpx:hr>115</gpxtpx:hr>
          </gpxtpx:TrackPointExtension>
        </extensions>
      </trkpt>
      <trkpt lat="48.60659" lon="1.97447">
        <ele>117.6</ele>
        <time>2025-11-16T11:33:20Z</time>
        <extensions>
          <gpxtpx:TrackPointExtension xmlns:gpxtpx="http://www.garmin.com/xmlschemas/TrackPointExtension/v1">
            <gpxtpx:hr>115</gpxtpx:hr>
          </gpxtpx:TrackPointExtension>
        </extensions>
      </trkpt>
      <trkpt lat="48.6066" lon="1.97448">
        <ele>117.6</ele>
        <time>2025-11-16T11:33:21Z</time>
        <extensions>
          <gpxtpx:TrackPointExtension xmlns:gpxtpx="http://www.garmin.com/xmlschemas/TrackPointExtension/v1">
            <gpxtpx:hr>115</gpxtpx:hr>
          </gpxtpx:TrackPointExtension>
        </extensions>
      </trkpt>
      <trkpt lat="48.60663" lon="1.97451">
        <ele>117.6</ele>
        <time>2025-11-16T11:33:23Z</time>
        <extensions>
          <gpxtpx:TrackPointExtension xmlns:gpxtpx="http://www.garmin.com/xmlschemas/TrackPointExtension/v1">
            <gpxtpx:hr>114</gpxtpx:hr>
          </gpxtpx:TrackPointExtension>
        </extensions>
      </trkpt>
      <trkpt lat="48.60665" lon="1.97452">
        <ele>117.6</ele>
        <time>2025-11-16T11:33:24Z</time>
        <extensions>
          <gpxtpx:TrackPointExtension xmlns:gpxtpx="http://www.garmin.com/xmlschemas/TrackPointExtension/v1">
            <gpxtpx:hr>114</gpxtpx:hr>
          </gpxtpx:TrackPointExtension>
        </extensions>
      </trkpt>
      <trkpt lat="48.60668" lon="1.97453">
        <ele>117.6</ele>
        <time>2025-11-16T11:33:25Z</time>
        <extensions>
          <gpxtpx:TrackPointExtension xmlns:gpxtpx="http://www.garmin.com/xmlschemas/TrackPointExtension/v1">
            <gpxtpx:hr>115</gpxtpx:hr>
          </gpxtpx:TrackPointExtension>
        </extensions>
      </trkpt>
      <trkpt lat="48.6067" lon="1.97455">
        <ele>117.8</ele>
        <time>2025-11-16T11:33:26Z</time>
        <extensions>
          <gpxtpx:TrackPointExtension xmlns:gpxtpx="http://www.garmin.com/xmlschemas/TrackPointExtension/v1">
            <gpxtpx:hr>115</gpxtpx:hr>
          </gpxtpx:TrackPointExtension>
        </extensions>
      </trkpt>
      <trkpt lat="48.60673" lon="1.97457">
        <ele>117.6</ele>
        <time>2025-11-16T11:33:27Z</time>
        <extensions>
          <gpxtpx:TrackPointExtension xmlns:gpxtpx="http://www.garmin.com/xmlschemas/TrackPointExtension/v1">
            <gpxtpx:hr>115</gpxtpx:hr>
          </gpxtpx:TrackPointExtension>
        </extensions>
      </trkpt>
      <trkpt lat="48.60676" lon="1.9746">
        <ele>117.6</ele>
        <time>2025-11-16T11:33:28Z</time>
        <extensions>
          <gpxtpx:TrackPointExtension xmlns:gpxtpx="http://www.garmin.com/xmlschemas/TrackPointExtension/v1">
            <gpxtpx:hr>116</gpxtpx:hr>
          </gpxtpx:TrackPointExtension>
        </extensions>
      </trkpt>
      <trkpt lat="48.60678" lon="1.97462">
        <ele>117.6</ele>
        <time>2025-11-16T11:33:29Z</time>
        <extensions>
          <gpxtpx:TrackPointExtension xmlns:gpxtpx="http://www.garmin.com/xmlschemas/TrackPointExtension/v1">
            <gpxtpx:hr>116</gpxtpx:hr>
          </gpxtpx:TrackPointExtension>
        </extensions>
      </trkpt>
      <trkpt lat="48.6068" lon="1.97464">
        <ele>117.6</ele>
        <time>2025-11-16T11:33:30Z</time>
        <extensions>
          <gpxtpx:TrackPointExtension xmlns:gpxtpx="http://www.garmin.com/xmlschemas/TrackPointExtension/v1">
            <gpxtpx:hr>116</gpxtpx:hr>
          </gpxtpx:TrackPointExtension>
        </extensions>
      </trkpt>
      <trkpt lat="48.60681" lon="1.97466">
        <ele>117.6</ele>
        <time>2025-11-16T11:33:31Z</time>
        <extensions>
          <gpxtpx:TrackPointExtension xmlns:gpxtpx="http://www.garmin.com/xmlschemas/TrackPointExtension/v1">
            <gpxtpx:hr>116</gpxtpx:hr>
          </gpxtpx:TrackPointExtension>
        </extensions>
      </trkpt>
      <trkpt lat="48.60684" lon="1.97469">
        <ele>117.4</ele>
        <time>2025-11-16T11:33:33Z</time>
        <extensions>
          <gpxtpx:TrackPointExtension xmlns:gpxtpx="http://www.garmin.com/xmlschemas/TrackPointExtension/v1">
            <gpxtpx:hr>116</gpxtpx:hr>
          </gpxtpx:TrackPointExtension>
        </extensions>
      </trkpt>
      <trkpt lat="48.60686" lon="1.97471">
        <ele>117.2</ele>
        <time>2025-11-16T11:33:35Z</time>
        <extensions>
          <gpxtpx:TrackPointExtension xmlns:gpxtpx="http://www.garmin.com/xmlschemas/TrackPointExtension/v1">
            <gpxtpx:hr>117</gpxtpx:hr>
          </gpxtpx:TrackPointExtension>
        </extensions>
      </trkpt>
      <trkpt lat="48.60688" lon="1.97472">
        <ele>117</ele>
        <time>2025-11-16T11:33:36Z</time>
        <extensions>
          <gpxtpx:TrackPointExtension xmlns:gpxtpx="http://www.garmin.com/xmlschemas/TrackPointExtension/v1">
            <gpxtpx:hr>117</gpxtpx:hr>
          </gpxtpx:TrackPointExtension>
        </extensions>
      </trkpt>
      <trkpt lat="48.60692" lon="1.97473">
        <ele>117</ele>
        <time>2025-11-16T11:33:38Z</time>
        <extensions>
          <gpxtpx:TrackPointExtension xmlns:gpxtpx="http://www.garmin.com/xmlschemas/TrackPointExtension/v1">
            <gpxtpx:hr>117</gpxtpx:hr>
          </gpxtpx:TrackPointExtension>
        </extensions>
      </trkpt>
      <trkpt lat="48.60694" lon="1.97473">
        <ele>116.8</ele>
        <time>2025-11-16T11:33:39Z</time>
        <extensions>
          <gpxtpx:TrackPointExtension xmlns:gpxtpx="http://www.garmin.com/xmlschemas/TrackPointExtension/v1">
            <gpxtpx:hr>117</gpxtpx:hr>
          </gpxtpx:TrackPointExtension>
        </extensions>
      </trkpt>
      <trkpt lat="48.60696" lon="1.97474">
        <ele>116.8</ele>
        <time>2025-11-16T11:33:40Z</time>
        <extensions>
          <gpxtpx:TrackPointExtension xmlns:gpxtpx="http://www.garmin.com/xmlschemas/TrackPointExtension/v1">
            <gpxtpx:hr>117</gpxtpx:hr>
          </gpxtpx:TrackPointExtension>
        </extensions>
      </trkpt>
      <trkpt lat="48.60698" lon="1.97475">
        <ele>116.6</ele>
        <time>2025-11-16T11:33:41Z</time>
        <extensions>
          <gpxtpx:TrackPointExtension xmlns:gpxtpx="http://www.garmin.com/xmlschemas/TrackPointExtension/v1">
            <gpxtpx:hr>117</gpxtpx:hr>
          </gpxtpx:TrackPointExtension>
        </extensions>
      </trkpt>
      <trkpt lat="48.607" lon="1.97476">
        <ele>116.6</ele>
        <time>2025-11-16T11:33:42Z</time>
        <extensions>
          <gpxtpx:TrackPointExtension xmlns:gpxtpx="http://www.garmin.com/xmlschemas/TrackPointExtension/v1">
            <gpxtpx:hr>117</gpxtpx:hr>
          </gpxtpx:TrackPointExtension>
        </extensions>
      </trkpt>
      <trkpt lat="48.60703" lon="1.97476">
        <ele>116.4</ele>
        <time>2025-11-16T11:33:43Z</time>
        <extensions>
          <gpxtpx:TrackPointExtension xmlns:gpxtpx="http://www.garmin.com/xmlschemas/TrackPointExtension/v1">
            <gpxtpx:hr>118</gpxtpx:hr>
          </gpxtpx:TrackPointExtension>
        </extensions>
      </trkpt>
      <trkpt lat="48.60706" lon="1.97476">
        <ele>116.2</ele>
        <time>2025-11-16T11:33:44Z</time>
        <extensions>
          <gpxtpx:TrackPointExtension xmlns:gpxtpx="http://www.garmin.com/xmlschemas/TrackPointExtension/v1">
            <gpxtpx:hr>118</gpxtpx:hr>
          </gpxtpx:TrackPointExtension>
        </extensions>
      </trkpt>
      <trkpt lat="48.60708" lon="1.97476">
        <ele>116.2</ele>
        <time>2025-11-16T11:33:45Z</time>
        <extensions>
          <gpxtpx:TrackPointExtension xmlns:gpxtpx="http://www.garmin.com/xmlschemas/TrackPointExtension/v1">
            <gpxtpx:hr>118</gpxtpx:hr>
          </gpxtpx:TrackPointExtension>
        </extensions>
      </trkpt>
      <trkpt lat="48.6071" lon="1.97476">
        <ele>116</ele>
        <time>2025-11-16T11:33:46Z</time>
        <extensions>
          <gpxtpx:TrackPointExtension xmlns:gpxtpx="http://www.garmin.com/xmlschemas/TrackPointExtension/v1">
            <gpxtpx:hr>118</gpxtpx:hr>
          </gpxtpx:TrackPointExtension>
        </extensions>
      </trkpt>
      <trkpt lat="48.60713" lon="1.97476">
        <ele>115.8</ele>
        <time>2025-11-16T11:33:47Z</time>
        <extensions>
          <gpxtpx:TrackPointExtension xmlns:gpxtpx="http://www.garmin.com/xmlschemas/TrackPointExtension/v1">
            <gpxtpx:hr>118</gpxtpx:hr>
          </gpxtpx:TrackPointExtension>
        </extensions>
      </trkpt>
      <trkpt lat="48.60716" lon="1.97475">
        <ele>115.6</ele>
        <time>2025-11-16T11:33:48Z</time>
        <extensions>
          <gpxtpx:TrackPointExtension xmlns:gpxtpx="http://www.garmin.com/xmlschemas/TrackPointExtension/v1">
            <gpxtpx:hr>118</gpxtpx:hr>
          </gpxtpx:TrackPointExtension>
        </extensions>
      </trkpt>
      <trkpt lat="48.60718" lon="1.97474">
        <ele>115.4</ele>
        <time>2025-11-16T11:33:49Z</time>
        <extensions>
          <gpxtpx:TrackPointExtension xmlns:gpxtpx="http://www.garmin.com/xmlschemas/TrackPointExtension/v1">
            <gpxtpx:hr>118</gpxtpx:hr>
          </gpxtpx:TrackPointExtension>
        </extensions>
      </trkpt>
      <trkpt lat="48.6072" lon="1.97473">
        <ele>115.2</ele>
        <time>2025-11-16T11:33:50Z</time>
        <extensions>
          <gpxtpx:TrackPointExtension xmlns:gpxtpx="http://www.garmin.com/xmlschemas/TrackPointExtension/v1">
            <gpxtpx:hr>118</gpxtpx:hr>
          </gpxtpx:TrackPointExtension>
        </extensions>
      </trkpt>
      <trkpt lat="48.60723" lon="1.97471">
        <ele>115.2</ele>
        <time>2025-11-16T11:33:51Z</time>
        <extensions>
          <gpxtpx:TrackPointExtension xmlns:gpxtpx="http://www.garmin.com/xmlschemas/TrackPointExtension/v1">
            <gpxtpx:hr>118</gpxtpx:hr>
          </gpxtpx:TrackPointExtension>
        </extensions>
      </trkpt>
      <trkpt lat="48.60725" lon="1.9747">
        <ele>115</ele>
        <time>2025-11-16T11:33:52Z</time>
        <extensions>
          <gpxtpx:TrackPointExtension xmlns:gpxtpx="http://www.garmin.com/xmlschemas/TrackPointExtension/v1">
            <gpxtpx:hr>118</gpxtpx:hr>
          </gpxtpx:TrackPointExtension>
        </extensions>
      </trkpt>
      <trkpt lat="48.60728" lon="1.97468">
        <ele>114.8</ele>
        <time>2025-11-16T11:33:53Z</time>
        <extensions>
          <gpxtpx:TrackPointExtension xmlns:gpxtpx="http://www.garmin.com/xmlschemas/TrackPointExtension/v1">
            <gpxtpx:hr>118</gpxtpx:hr>
          </gpxtpx:TrackPointExtension>
        </extensions>
      </trkpt>
      <trkpt lat="48.60731" lon="1.97466">
        <ele>114.6</ele>
        <time>2025-11-16T11:33:54Z</time>
        <extensions>
          <gpxtpx:TrackPointExtension xmlns:gpxtpx="http://www.garmin.com/xmlschemas/TrackPointExtension/v1">
            <gpxtpx:hr>118</gpxtpx:hr>
          </gpxtpx:TrackPointExtension>
        </extensions>
      </trkpt>
      <trkpt lat="48.60733" lon="1.97464">
        <ele>114.6</ele>
        <time>2025-11-16T11:33:55Z</time>
        <extensions>
          <gpxtpx:TrackPointExtension xmlns:gpxtpx="http://www.garmin.com/xmlschemas/TrackPointExtension/v1">
            <gpxtpx:hr>119</gpxtpx:hr>
          </gpxtpx:TrackPointExtension>
        </extensions>
      </trkpt>
      <trkpt lat="48.60736" lon="1.97462">
        <ele>114.4</ele>
        <time>2025-11-16T11:33:56Z</time>
        <extensions>
          <gpxtpx:TrackPointExtension xmlns:gpxtpx="http://www.garmin.com/xmlschemas/TrackPointExtension/v1">
            <gpxtpx:hr>119</gpxtpx:hr>
          </gpxtpx:TrackPointExtension>
        </extensions>
      </trkpt>
      <trkpt lat="48.60739" lon="1.9746">
        <ele>114.2</ele>
        <time>2025-11-16T11:33:57Z</time>
        <extensions>
          <gpxtpx:TrackPointExtension xmlns:gpxtpx="http://www.garmin.com/xmlschemas/TrackPointExtension/v1">
            <gpxtpx:hr>119</gpxtpx:hr>
          </gpxtpx:TrackPointExtension>
        </extensions>
      </trkpt>
      <trkpt lat="48.60742" lon="1.97458">
        <ele>114.2</ele>
        <time>2025-11-16T11:33:58Z</time>
        <extensions>
          <gpxtpx:TrackPointExtension xmlns:gpxtpx="http://www.garmin.com/xmlschemas/TrackPointExtension/v1">
            <gpxtpx:hr>119</gpxtpx:hr>
          </gpxtpx:TrackPointExtension>
        </extensions>
      </trkpt>
      <trkpt lat="48.60745" lon="1.97456">
        <ele>114.2</ele>
        <time>2025-11-16T11:33:59Z</time>
        <extensions>
          <gpxtpx:TrackPointExtension xmlns:gpxtpx="http://www.garmin.com/xmlschemas/TrackPointExtension/v1">
            <gpxtpx:hr>119</gpxtpx:hr>
          </gpxtpx:TrackPointExtension>
        </extensions>
      </trkpt>
      <trkpt lat="48.60748" lon="1.97454">
        <ele>114.2</ele>
        <time>2025-11-16T11:34:00Z</time>
        <extensions>
          <gpxtpx:TrackPointExtension xmlns:gpxtpx="http://www.garmin.com/xmlschemas/TrackPointExtension/v1">
            <gpxtpx:hr>119</gpxtpx:hr>
          </gpxtpx:TrackPointExtension>
        </extensions>
      </trkpt>
      <trkpt lat="48.6075" lon="1.97452">
        <ele>114</ele>
        <time>2025-11-16T11:34:01Z</time>
        <extensions>
          <gpxtpx:TrackPointExtension xmlns:gpxtpx="http://www.garmin.com/xmlschemas/TrackPointExtension/v1">
            <gpxtpx:hr>119</gpxtpx:hr>
          </gpxtpx:TrackPointExtension>
        </extensions>
      </trkpt>
      <trkpt lat="48.60752" lon="1.9745">
        <ele>114</ele>
        <time>2025-11-16T11:34:02Z</time>
        <extensions>
          <gpxtpx:TrackPointExtension xmlns:gpxtpx="http://www.garmin.com/xmlschemas/TrackPointExtension/v1">
            <gpxtpx:hr>119</gpxtpx:hr>
          </gpxtpx:TrackPointExtension>
        </extensions>
      </trkpt>
      <trkpt lat="48.60754" lon="1.97448">
        <ele>114</ele>
        <time>2025-11-16T11:34:03Z</time>
        <extensions>
          <gpxtpx:TrackPointExtension xmlns:gpxtpx="http://www.garmin.com/xmlschemas/TrackPointExtension/v1">
            <gpxtpx:hr>119</gpxtpx:hr>
          </gpxtpx:TrackPointExtension>
        </extensions>
      </trkpt>
      <trkpt lat="48.60756" lon="1.97447">
        <ele>113.8</ele>
        <time>2025-11-16T11:34:04Z</time>
        <extensions>
          <gpxtpx:TrackPointExtension xmlns:gpxtpx="http://www.garmin.com/xmlschemas/TrackPointExtension/v1">
            <gpxtpx:hr>119</gpxtpx:hr>
          </gpxtpx:TrackPointExtension>
        </extensions>
      </trkpt>
      <trkpt lat="48.60758" lon="1.97445">
        <ele>113.8</ele>
        <time>2025-11-16T11:34:05Z</time>
        <extensions>
          <gpxtpx:TrackPointExtension xmlns:gpxtpx="http://www.garmin.com/xmlschemas/TrackPointExtension/v1">
            <gpxtpx:hr>119</gpxtpx:hr>
          </gpxtpx:TrackPointExtension>
        </extensions>
      </trkpt>
      <trkpt lat="48.60761" lon="1.97444">
        <ele>113.8</ele>
        <time>2025-11-16T11:34:06Z</time>
        <extensions>
          <gpxtpx:TrackPointExtension xmlns:gpxtpx="http://www.garmin.com/xmlschemas/TrackPointExtension/v1">
            <gpxtpx:hr>119</gpxtpx:hr>
          </gpxtpx:TrackPointExtension>
        </extensions>
      </trkpt>
      <trkpt lat="48.60763" lon="1.97444">
        <ele>113.8</ele>
        <time>2025-11-16T11:34:07Z</time>
        <extensions>
          <gpxtpx:TrackPointExtension xmlns:gpxtpx="http://www.garmin.com/xmlschemas/TrackPointExtension/v1">
            <gpxtpx:hr>119</gpxtpx:hr>
          </gpxtpx:TrackPointExtension>
        </extensions>
      </trkpt>
      <trkpt lat="48.60765" lon="1.97443">
        <ele>113.8</ele>
        <time>2025-11-16T11:34:08Z</time>
        <extensions>
          <gpxtpx:TrackPointExtension xmlns:gpxtpx="http://www.garmin.com/xmlschemas/TrackPointExtension/v1">
            <gpxtpx:hr>119</gpxtpx:hr>
          </gpxtpx:TrackPointExtension>
        </extensions>
      </trkpt>
      <trkpt lat="48.60767" lon="1.97442">
        <ele>113.6</ele>
        <time>2025-11-16T11:34:09Z</time>
        <extensions>
          <gpxtpx:TrackPointExtension xmlns:gpxtpx="http://www.garmin.com/xmlschemas/TrackPointExtension/v1">
            <gpxtpx:hr>119</gpxtpx:hr>
          </gpxtpx:TrackPointExtension>
        </extensions>
      </trkpt>
      <trkpt lat="48.60771" lon="1.9744">
        <ele>113.4</ele>
        <time>2025-11-16T11:34:11Z</time>
        <extensions>
          <gpxtpx:TrackPointExtension xmlns:gpxtpx="http://www.garmin.com/xmlschemas/TrackPointExtension/v1">
            <gpxtpx:hr>119</gpxtpx:hr>
          </gpxtpx:TrackPointExtension>
        </extensions>
      </trkpt>
      <trkpt lat="48.60773" lon="1.97439">
        <ele>113</ele>
        <time>2025-11-16T11:34:13Z</time>
        <extensions>
          <gpxtpx:TrackPointExtension xmlns:gpxtpx="http://www.garmin.com/xmlschemas/TrackPointExtension/v1">
            <gpxtpx:hr>119</gpxtpx:hr>
          </gpxtpx:TrackPointExtension>
        </extensions>
      </trkpt>
      <trkpt lat="48.60775" lon="1.97439">
        <ele>112.8</ele>
        <time>2025-11-16T11:34:15Z</time>
        <extensions>
          <gpxtpx:TrackPointExtension xmlns:gpxtpx="http://www.garmin.com/xmlschemas/TrackPointExtension/v1">
            <gpxtpx:hr>119</gpxtpx:hr>
          </gpxtpx:TrackPointExtension>
        </extensions>
      </trkpt>
      <trkpt lat="48.60777" lon="1.97442">
        <ele>112.4</ele>
        <time>2025-11-16T11:34:17Z</time>
        <extensions>
          <gpxtpx:TrackPointExtension xmlns:gpxtpx="http://www.garmin.com/xmlschemas/TrackPointExtension/v1">
            <gpxtpx:hr>120</gpxtpx:hr>
          </gpxtpx:TrackPointExtension>
        </extensions>
      </trkpt>
      <trkpt lat="48.60779" lon="1.97445">
        <ele>112.2</ele>
        <time>2025-11-16T11:34:19Z</time>
        <extensions>
          <gpxtpx:TrackPointExtension xmlns:gpxtpx="http://www.garmin.com/xmlschemas/TrackPointExtension/v1">
            <gpxtpx:hr>119</gpxtpx:hr>
          </gpxtpx:TrackPointExtension>
        </extensions>
      </trkpt>
      <trkpt lat="48.60781" lon="1.97447">
        <ele>112</ele>
        <time>2025-11-16T11:34:21Z</time>
        <extensions>
          <gpxtpx:TrackPointExtension xmlns:gpxtpx="http://www.garmin.com/xmlschemas/TrackPointExtension/v1">
            <gpxtpx:hr>119</gpxtpx:hr>
          </gpxtpx:TrackPointExtension>
        </extensions>
      </trkpt>
      <trkpt lat="48.60783" lon="1.97448">
        <ele>111.8</ele>
        <time>2025-11-16T11:34:23Z</time>
        <extensions>
          <gpxtpx:TrackPointExtension xmlns:gpxtpx="http://www.garmin.com/xmlschemas/TrackPointExtension/v1">
            <gpxtpx:hr>119</gpxtpx:hr>
          </gpxtpx:TrackPointExtension>
        </extensions>
      </trkpt>
      <trkpt lat="48.60785" lon="1.97446">
        <ele>110.8</ele>
        <time>2025-11-16T11:34:34Z</time>
        <extensions>
          <gpxtpx:TrackPointExtension xmlns:gpxtpx="http://www.garmin.com/xmlschemas/TrackPointExtension/v1">
            <gpxtpx:hr>118</gpxtpx:hr>
          </gpxtpx:TrackPointExtension>
        </extensions>
      </trkpt>
      <trkpt lat="48.60787" lon="1.97443">
        <ele>110.8</ele>
        <time>2025-11-16T11:34:36Z</time>
        <extensions>
          <gpxtpx:TrackPointExtension xmlns:gpxtpx="http://www.garmin.com/xmlschemas/TrackPointExtension/v1">
            <gpxtpx:hr>118</gpxtpx:hr>
          </gpxtpx:TrackPointExtension>
        </extensions>
      </trkpt>
      <trkpt lat="48.60789" lon="1.97439">
        <ele>110.8</ele>
        <time>2025-11-16T11:34:38Z</time>
        <extensions>
          <gpxtpx:TrackPointExtension xmlns:gpxtpx="http://www.garmin.com/xmlschemas/TrackPointExtension/v1">
            <gpxtpx:hr>118</gpxtpx:hr>
          </gpxtpx:TrackPointExtension>
        </extensions>
      </trkpt>
      <trkpt lat="48.60791" lon="1.97436">
        <ele>110.6</ele>
        <time>2025-11-16T11:34:40Z</time>
        <extensions>
          <gpxtpx:TrackPointExtension xmlns:gpxtpx="http://www.garmin.com/xmlschemas/TrackPointExtension/v1">
            <gpxtpx:hr>118</gpxtpx:hr>
          </gpxtpx:TrackPointExtension>
        </extensions>
      </trkpt>
      <trkpt lat="48.60794" lon="1.97433">
        <ele>110.4</ele>
        <time>2025-11-16T11:34:42Z</time>
        <extensions>
          <gpxtpx:TrackPointExtension xmlns:gpxtpx="http://www.garmin.com/xmlschemas/TrackPointExtension/v1">
            <gpxtpx:hr>117</gpxtpx:hr>
          </gpxtpx:TrackPointExtension>
        </extensions>
      </trkpt>
      <trkpt lat="48.60796" lon="1.97429">
        <ele>110.2</ele>
        <time>2025-11-16T11:34:44Z</time>
        <extensions>
          <gpxtpx:TrackPointExtension xmlns:gpxtpx="http://www.garmin.com/xmlschemas/TrackPointExtension/v1">
            <gpxtpx:hr>117</gpxtpx:hr>
          </gpxtpx:TrackPointExtension>
        </extensions>
      </trkpt>
      <trkpt lat="48.60798" lon="1.97425">
        <ele>110</ele>
        <time>2025-11-16T11:34:46Z</time>
        <extensions>
          <gpxtpx:TrackPointExtension xmlns:gpxtpx="http://www.garmin.com/xmlschemas/TrackPointExtension/v1">
            <gpxtpx:hr>117</gpxtpx:hr>
          </gpxtpx:TrackPointExtension>
        </extensions>
      </trkpt>
      <trkpt lat="48.608" lon="1.97422">
        <ele>109.8</ele>
        <time>2025-11-16T11:34:48Z</time>
        <extensions>
          <gpxtpx:TrackPointExtension xmlns:gpxtpx="http://www.garmin.com/xmlschemas/TrackPointExtension/v1">
            <gpxtpx:hr>116</gpxtpx:hr>
          </gpxtpx:TrackPointExtension>
        </extensions>
      </trkpt>
      <trkpt lat="48.60803" lon="1.97419">
        <ele>109.6</ele>
        <time>2025-11-16T11:34:50Z</time>
        <extensions>
          <gpxtpx:TrackPointExtension xmlns:gpxtpx="http://www.garmin.com/xmlschemas/TrackPointExtension/v1">
            <gpxtpx:hr>116</gpxtpx:hr>
          </gpxtpx:TrackPointExtension>
        </extensions>
      </trkpt>
      <trkpt lat="48.60804" lon="1.97418">
        <ele>109.4</ele>
        <time>2025-11-16T11:34:51Z</time>
        <extensions>
          <gpxtpx:TrackPointExtension xmlns:gpxtpx="http://www.garmin.com/xmlschemas/TrackPointExtension/v1">
            <gpxtpx:hr>115</gpxtpx:hr>
          </gpxtpx:TrackPointExtension>
        </extensions>
      </trkpt>
      <trkpt lat="48.60807" lon="1.97415">
        <ele>109.2</ele>
        <time>2025-11-16T11:34:53Z</time>
        <extensions>
          <gpxtpx:TrackPointExtension xmlns:gpxtpx="http://www.garmin.com/xmlschemas/TrackPointExtension/v1">
            <gpxtpx:hr>114</gpxtpx:hr>
          </gpxtpx:TrackPointExtension>
        </extensions>
      </trkpt>
      <trkpt lat="48.60809" lon="1.97413">
        <ele>109.2</ele>
        <time>2025-11-16T11:34:54Z</time>
        <extensions>
          <gpxtpx:TrackPointExtension xmlns:gpxtpx="http://www.garmin.com/xmlschemas/TrackPointExtension/v1">
            <gpxtpx:hr>113</gpxtpx:hr>
          </gpxtpx:TrackPointExtension>
        </extensions>
      </trkpt>
      <trkpt lat="48.6081" lon="1.97412">
        <ele>109</ele>
        <time>2025-11-16T11:34:55Z</time>
        <extensions>
          <gpxtpx:TrackPointExtension xmlns:gpxtpx="http://www.garmin.com/xmlschemas/TrackPointExtension/v1">
            <gpxtpx:hr>113</gpxtpx:hr>
          </gpxtpx:TrackPointExtension>
        </extensions>
      </trkpt>
      <trkpt lat="48.60813" lon="1.97408">
        <ele>108.8</ele>
        <time>2025-11-16T11:34:57Z</time>
        <extensions>
          <gpxtpx:TrackPointExtension xmlns:gpxtpx="http://www.garmin.com/xmlschemas/TrackPointExtension/v1">
            <gpxtpx:hr>113</gpxtpx:hr>
          </gpxtpx:TrackPointExtension>
        </extensions>
      </trkpt>
      <trkpt lat="48.60814" lon="1.97407">
        <ele>108.6</ele>
        <time>2025-11-16T11:34:58Z</time>
        <extensions>
          <gpxtpx:TrackPointExtension xmlns:gpxtpx="http://www.garmin.com/xmlschemas/TrackPointExtension/v1">
            <gpxtpx:hr>113</gpxtpx:hr>
          </gpxtpx:TrackPointExtension>
        </extensions>
      </trkpt>
      <trkpt lat="48.60817" lon="1.97403">
        <ele>108.4</ele>
        <time>2025-11-16T11:35:00Z</time>
        <extensions>
          <gpxtpx:TrackPointExtension xmlns:gpxtpx="http://www.garmin.com/xmlschemas/TrackPointExtension/v1">
            <gpxtpx:hr>113</gpxtpx:hr>
          </gpxtpx:TrackPointExtension>
        </extensions>
      </trkpt>
      <trkpt lat="48.6082" lon="1.974">
        <ele>108.2</ele>
        <time>2025-11-16T11:35:02Z</time>
        <extensions>
          <gpxtpx:TrackPointExtension xmlns:gpxtpx="http://www.garmin.com/xmlschemas/TrackPointExtension/v1">
            <gpxtpx:hr>114</gpxtpx:hr>
          </gpxtpx:TrackPointExtension>
        </extensions>
      </trkpt>
      <trkpt lat="48.60821" lon="1.97399">
        <ele>108.2</ele>
        <time>2025-11-16T11:35:03Z</time>
        <extensions>
          <gpxtpx:TrackPointExtension xmlns:gpxtpx="http://www.garmin.com/xmlschemas/TrackPointExtension/v1">
            <gpxtpx:hr>114</gpxtpx:hr>
          </gpxtpx:TrackPointExtension>
        </extensions>
      </trkpt>
      <trkpt lat="48.60823" lon="1.97397">
        <ele>108</ele>
        <time>2025-11-16T11:35:04Z</time>
        <extensions>
          <gpxtpx:TrackPointExtension xmlns:gpxtpx="http://www.garmin.com/xmlschemas/TrackPointExtension/v1">
            <gpxtpx:hr>114</gpxtpx:hr>
          </gpxtpx:TrackPointExtension>
        </extensions>
      </trkpt>
      <trkpt lat="48.60824" lon="1.97395">
        <ele>107.8</ele>
        <time>2025-11-16T11:35:05Z</time>
        <extensions>
          <gpxtpx:TrackPointExtension xmlns:gpxtpx="http://www.garmin.com/xmlschemas/TrackPointExtension/v1">
            <gpxtpx:hr>114</gpxtpx:hr>
          </gpxtpx:TrackPointExtension>
        </extensions>
      </trkpt>
      <trkpt lat="48.60827" lon="1.97392">
        <ele>107.4</ele>
        <time>2025-11-16T11:35:07Z</time>
        <extensions>
          <gpxtpx:TrackPointExtension xmlns:gpxtpx="http://www.garmin.com/xmlschemas/TrackPointExtension/v1">
            <gpxtpx:hr>114</gpxtpx:hr>
          </gpxtpx:TrackPointExtension>
        </extensions>
      </trkpt>
      <trkpt lat="48.60828" lon="1.9739">
        <ele>107.4</ele>
        <time>2025-11-16T11:35:08Z</time>
        <extensions>
          <gpxtpx:TrackPointExtension xmlns:gpxtpx="http://www.garmin.com/xmlschemas/TrackPointExtension/v1">
            <gpxtpx:hr>114</gpxtpx:hr>
          </gpxtpx:TrackPointExtension>
        </extensions>
      </trkpt>
      <trkpt lat="48.60831" lon="1.97387">
        <ele>107</ele>
        <time>2025-11-16T11:35:10Z</time>
        <extensions>
          <gpxtpx:TrackPointExtension xmlns:gpxtpx="http://www.garmin.com/xmlschemas/TrackPointExtension/v1">
            <gpxtpx:hr>114</gpxtpx:hr>
          </gpxtpx:TrackPointExtension>
        </extensions>
      </trkpt>
      <trkpt lat="48.60833" lon="1.97384">
        <ele>106.8</ele>
        <time>2025-11-16T11:35:12Z</time>
        <extensions>
          <gpxtpx:TrackPointExtension xmlns:gpxtpx="http://www.garmin.com/xmlschemas/TrackPointExtension/v1">
            <gpxtpx:hr>114</gpxtpx:hr>
          </gpxtpx:TrackPointExtension>
        </extensions>
      </trkpt>
      <trkpt lat="48.60835" lon="1.97382">
        <ele>106.8</ele>
        <time>2025-11-16T11:35:13Z</time>
        <extensions>
          <gpxtpx:TrackPointExtension xmlns:gpxtpx="http://www.garmin.com/xmlschemas/TrackPointExtension/v1">
            <gpxtpx:hr>114</gpxtpx:hr>
          </gpxtpx:TrackPointExtension>
        </extensions>
      </trkpt>
      <trkpt lat="48.60837" lon="1.97379">
        <ele>106.6</ele>
        <time>2025-11-16T11:35:15Z</time>
        <extensions>
          <gpxtpx:TrackPointExtension xmlns:gpxtpx="http://www.garmin.com/xmlschemas/TrackPointExtension/v1">
            <gpxtpx:hr>114</gpxtpx:hr>
          </gpxtpx:TrackPointExtension>
        </extensions>
      </trkpt>
      <trkpt lat="48.60839" lon="1.97378">
        <ele>106.6</ele>
        <time>2025-11-16T11:35:16Z</time>
        <extensions>
          <gpxtpx:TrackPointExtension xmlns:gpxtpx="http://www.garmin.com/xmlschemas/TrackPointExtension/v1">
            <gpxtpx:hr>114</gpxtpx:hr>
          </gpxtpx:TrackPointExtension>
        </extensions>
      </trkpt>
      <trkpt lat="48.60841" lon="1.97375">
        <ele>106.6</ele>
        <time>2025-11-16T11:35:18Z</time>
        <extensions>
          <gpxtpx:TrackPointExtension xmlns:gpxtpx="http://www.garmin.com/xmlschemas/TrackPointExtension/v1">
            <gpxtpx:hr>114</gpxtpx:hr>
          </gpxtpx:TrackPointExtension>
        </extensions>
      </trkpt>
      <trkpt lat="48.60844" lon="1.97372">
        <ele>106.6</ele>
        <time>2025-11-16T11:35:20Z</time>
        <extensions>
          <gpxtpx:TrackPointExtension xmlns:gpxtpx="http://www.garmin.com/xmlschemas/TrackPointExtension/v1">
            <gpxtpx:hr>114</gpxtpx:hr>
          </gpxtpx:TrackPointExtension>
        </extensions>
      </trkpt>
      <trkpt lat="48.60847" lon="1.9737">
        <ele>106.6</ele>
        <time>2025-11-16T11:35:22Z</time>
        <extensions>
          <gpxtpx:TrackPointExtension xmlns:gpxtpx="http://www.garmin.com/xmlschemas/TrackPointExtension/v1">
            <gpxtpx:hr>114</gpxtpx:hr>
          </gpxtpx:TrackPointExtension>
        </extensions>
      </trkpt>
      <trkpt lat="48.60848" lon="1.97369">
        <ele>106.6</ele>
        <time>2025-11-16T11:35:23Z</time>
        <extensions>
          <gpxtpx:TrackPointExtension xmlns:gpxtpx="http://www.garmin.com/xmlschemas/TrackPointExtension/v1">
            <gpxtpx:hr>114</gpxtpx:hr>
          </gpxtpx:TrackPointExtension>
        </extensions>
      </trkpt>
      <trkpt lat="48.6085" lon="1.97367">
        <ele>106.4</ele>
        <time>2025-11-16T11:35:24Z</time>
        <extensions>
          <gpxtpx:TrackPointExtension xmlns:gpxtpx="http://www.garmin.com/xmlschemas/TrackPointExtension/v1">
            <gpxtpx:hr>114</gpxtpx:hr>
          </gpxtpx:TrackPointExtension>
        </extensions>
      </trkpt>
      <trkpt lat="48.60852" lon="1.97365">
        <ele>106.4</ele>
        <time>2025-11-16T11:35:26Z</time>
        <extensions>
          <gpxtpx:TrackPointExtension xmlns:gpxtpx="http://www.garmin.com/xmlschemas/TrackPointExtension/v1">
            <gpxtpx:hr>114</gpxtpx:hr>
          </gpxtpx:TrackPointExtension>
        </extensions>
      </trkpt>
      <trkpt lat="48.60854" lon="1.97361">
        <ele>106.2</ele>
        <time>2025-11-16T11:35:28Z</time>
        <extensions>
          <gpxtpx:TrackPointExtension xmlns:gpxtpx="http://www.garmin.com/xmlschemas/TrackPointExtension/v1">
            <gpxtpx:hr>114</gpxtpx:hr>
          </gpxtpx:TrackPointExtension>
        </extensions>
      </trkpt>
      <trkpt lat="48.60857" lon="1.97358">
        <ele>106</ele>
        <time>2025-11-16T11:35:30Z</time>
        <extensions>
          <gpxtpx:TrackPointExtension xmlns:gpxtpx="http://www.garmin.com/xmlschemas/TrackPointExtension/v1">
            <gpxtpx:hr>114</gpxtpx:hr>
          </gpxtpx:TrackPointExtension>
        </extensions>
      </trkpt>
      <trkpt lat="48.60859" lon="1.97355">
        <ele>105.8</ele>
        <time>2025-11-16T11:35:32Z</time>
        <extensions>
          <gpxtpx:TrackPointExtension xmlns:gpxtpx="http://www.garmin.com/xmlschemas/TrackPointExtension/v1">
            <gpxtpx:hr>114</gpxtpx:hr>
          </gpxtpx:TrackPointExtension>
        </extensions>
      </trkpt>
      <trkpt lat="48.60861" lon="1.97352">
        <ele>105.6</ele>
        <time>2025-11-16T11:35:34Z</time>
        <extensions>
          <gpxtpx:TrackPointExtension xmlns:gpxtpx="http://www.garmin.com/xmlschemas/TrackPointExtension/v1">
            <gpxtpx:hr>114</gpxtpx:hr>
          </gpxtpx:TrackPointExtension>
        </extensions>
      </trkpt>
      <trkpt lat="48.60863" lon="1.9735">
        <ele>105.4</ele>
        <time>2025-11-16T11:35:35Z</time>
        <extensions>
          <gpxtpx:TrackPointExtension xmlns:gpxtpx="http://www.garmin.com/xmlschemas/TrackPointExtension/v1">
            <gpxtpx:hr>114</gpxtpx:hr>
          </gpxtpx:TrackPointExtension>
        </extensions>
      </trkpt>
      <trkpt lat="48.60865" lon="1.97347">
        <ele>105.2</ele>
        <time>2025-11-16T11:35:37Z</time>
        <extensions>
          <gpxtpx:TrackPointExtension xmlns:gpxtpx="http://www.garmin.com/xmlschemas/TrackPointExtension/v1">
            <gpxtpx:hr>114</gpxtpx:hr>
          </gpxtpx:TrackPointExtension>
        </extensions>
      </trkpt>
      <trkpt lat="48.60867" lon="1.97345">
        <ele>105</ele>
        <time>2025-11-16T11:35:38Z</time>
        <extensions>
          <gpxtpx:TrackPointExtension xmlns:gpxtpx="http://www.garmin.com/xmlschemas/TrackPointExtension/v1">
            <gpxtpx:hr>114</gpxtpx:hr>
          </gpxtpx:TrackPointExtension>
        </extensions>
      </trkpt>
      <trkpt lat="48.60868" lon="1.97343">
        <ele>105</ele>
        <time>2025-11-16T11:35:39Z</time>
        <extensions>
          <gpxtpx:TrackPointExtension xmlns:gpxtpx="http://www.garmin.com/xmlschemas/TrackPointExtension/v1">
            <gpxtpx:hr>114</gpxtpx:hr>
          </gpxtpx:TrackPointExtension>
        </extensions>
      </trkpt>
      <trkpt lat="48.60871" lon="1.9734">
        <ele>104.8</ele>
        <time>2025-11-16T11:35:41Z</time>
        <extensions>
          <gpxtpx:TrackPointExtension xmlns:gpxtpx="http://www.garmin.com/xmlschemas/TrackPointExtension/v1">
            <gpxtpx:hr>114</gpxtpx:hr>
          </gpxtpx:TrackPointExtension>
        </extensions>
      </trkpt>
      <trkpt lat="48.60872" lon="1.97338">
        <ele>105</ele>
        <time>2025-11-16T11:35:42Z</time>
        <extensions>
          <gpxtpx:TrackPointExtension xmlns:gpxtpx="http://www.garmin.com/xmlschemas/TrackPointExtension/v1">
            <gpxtpx:hr>114</gpxtpx:hr>
          </gpxtpx:TrackPointExtension>
        </extensions>
      </trkpt>
      <trkpt lat="48.60874" lon="1.97336">
        <ele>105</ele>
        <time>2025-11-16T11:35:43Z</time>
        <extensions>
          <gpxtpx:TrackPointExtension xmlns:gpxtpx="http://www.garmin.com/xmlschemas/TrackPointExtension/v1">
            <gpxtpx:hr>114</gpxtpx:hr>
          </gpxtpx:TrackPointExtension>
        </extensions>
      </trkpt>
      <trkpt lat="48.60876" lon="1.97332">
        <ele>105</ele>
        <time>2025-11-16T11:35:45Z</time>
        <extensions>
          <gpxtpx:TrackPointExtension xmlns:gpxtpx="http://www.garmin.com/xmlschemas/TrackPointExtension/v1">
            <gpxtpx:hr>114</gpxtpx:hr>
          </gpxtpx:TrackPointExtension>
        </extensions>
      </trkpt>
      <trkpt lat="48.60878" lon="1.97328">
        <ele>105</ele>
        <time>2025-11-16T11:35:47Z</time>
        <extensions>
          <gpxtpx:TrackPointExtension xmlns:gpxtpx="http://www.garmin.com/xmlschemas/TrackPointExtension/v1">
            <gpxtpx:hr>114</gpxtpx:hr>
          </gpxtpx:TrackPointExtension>
        </extensions>
      </trkpt>
      <trkpt lat="48.60881" lon="1.97325">
        <ele>104.8</ele>
        <time>2025-11-16T11:35:49Z</time>
        <extensions>
          <gpxtpx:TrackPointExtension xmlns:gpxtpx="http://www.garmin.com/xmlschemas/TrackPointExtension/v1">
            <gpxtpx:hr>114</gpxtpx:hr>
          </gpxtpx:TrackPointExtension>
        </extensions>
      </trkpt>
      <trkpt lat="48.60883" lon="1.97321">
        <ele>104.8</ele>
        <time>2025-11-16T11:35:51Z</time>
        <extensions>
          <gpxtpx:TrackPointExtension xmlns:gpxtpx="http://www.garmin.com/xmlschemas/TrackPointExtension/v1">
            <gpxtpx:hr>114</gpxtpx:hr>
          </gpxtpx:TrackPointExtension>
        </extensions>
      </trkpt>
      <trkpt lat="48.60885" lon="1.97318">
        <ele>104.6</ele>
        <time>2025-11-16T11:35:53Z</time>
        <extensions>
          <gpxtpx:TrackPointExtension xmlns:gpxtpx="http://www.garmin.com/xmlschemas/TrackPointExtension/v1">
            <gpxtpx:hr>114</gpxtpx:hr>
          </gpxtpx:TrackPointExtension>
        </extensions>
      </trkpt>
      <trkpt lat="48.60886" lon="1.97316">
        <ele>104.8</ele>
        <time>2025-11-16T11:35:54Z</time>
        <extensions>
          <gpxtpx:TrackPointExtension xmlns:gpxtpx="http://www.garmin.com/xmlschemas/TrackPointExtension/v1">
            <gpxtpx:hr>114</gpxtpx:hr>
          </gpxtpx:TrackPointExtension>
        </extensions>
      </trkpt>
      <trkpt lat="48.60888" lon="1.97312">
        <ele>105</ele>
        <time>2025-11-16T11:35:56Z</time>
        <extensions>
          <gpxtpx:TrackPointExtension xmlns:gpxtpx="http://www.garmin.com/xmlschemas/TrackPointExtension/v1">
            <gpxtpx:hr>113</gpxtpx:hr>
          </gpxtpx:TrackPointExtension>
        </extensions>
      </trkpt>
      <trkpt lat="48.6089" lon="1.97308">
        <ele>105</ele>
        <time>2025-11-16T11:35:58Z</time>
        <extensions>
          <gpxtpx:TrackPointExtension xmlns:gpxtpx="http://www.garmin.com/xmlschemas/TrackPointExtension/v1">
            <gpxtpx:hr>113</gpxtpx:hr>
          </gpxtpx:TrackPointExtension>
        </extensions>
      </trkpt>
      <trkpt lat="48.60892" lon="1.97303">
        <ele>105</ele>
        <time>2025-11-16T11:36:00Z</time>
        <extensions>
          <gpxtpx:TrackPointExtension xmlns:gpxtpx="http://www.garmin.com/xmlschemas/TrackPointExtension/v1">
            <gpxtpx:hr>113</gpxtpx:hr>
          </gpxtpx:TrackPointExtension>
        </extensions>
      </trkpt>
      <trkpt lat="48.60894" lon="1.97299">
        <ele>105</ele>
        <time>2025-11-16T11:36:02Z</time>
        <extensions>
          <gpxtpx:TrackPointExtension xmlns:gpxtpx="http://www.garmin.com/xmlschemas/TrackPointExtension/v1">
            <gpxtpx:hr>113</gpxtpx:hr>
          </gpxtpx:TrackPointExtension>
        </extensions>
      </trkpt>
      <trkpt lat="48.60896" lon="1.97295">
        <ele>105</ele>
        <time>2025-11-16T11:36:04Z</time>
        <extensions>
          <gpxtpx:TrackPointExtension xmlns:gpxtpx="http://www.garmin.com/xmlschemas/TrackPointExtension/v1">
            <gpxtpx:hr>113</gpxtpx:hr>
          </gpxtpx:TrackPointExtension>
        </extensions>
      </trkpt>
      <trkpt lat="48.60898" lon="1.97293">
        <ele>105</ele>
        <time>2025-11-16T11:36:05Z</time>
        <extensions>
          <gpxtpx:TrackPointExtension xmlns:gpxtpx="http://www.garmin.com/xmlschemas/TrackPointExtension/v1">
            <gpxtpx:hr>113</gpxtpx:hr>
          </gpxtpx:TrackPointExtension>
        </extensions>
      </trkpt>
      <trkpt lat="48.609" lon="1.9729">
        <ele>105</ele>
        <time>2025-11-16T11:36:07Z</time>
        <extensions>
          <gpxtpx:TrackPointExtension xmlns:gpxtpx="http://www.garmin.com/xmlschemas/TrackPointExtension/v1">
            <gpxtpx:hr>113</gpxtpx:hr>
          </gpxtpx:TrackPointExtension>
        </extensions>
      </trkpt>
      <trkpt lat="48.60903" lon="1.97286">
        <ele>105</ele>
        <time>2025-11-16T11:36:09Z</time>
        <extensions>
          <gpxtpx:TrackPointExtension xmlns:gpxtpx="http://www.garmin.com/xmlschemas/TrackPointExtension/v1">
            <gpxtpx:hr>113</gpxtpx:hr>
          </gpxtpx:TrackPointExtension>
        </extensions>
      </trkpt>
      <trkpt lat="48.60904" lon="1.97284">
        <ele>105</ele>
        <time>2025-11-16T11:36:10Z</time>
        <extensions>
          <gpxtpx:TrackPointExtension xmlns:gpxtpx="http://www.garmin.com/xmlschemas/TrackPointExtension/v1">
            <gpxtpx:hr>113</gpxtpx:hr>
          </gpxtpx:TrackPointExtension>
        </extensions>
      </trkpt>
      <trkpt lat="48.60906" lon="1.9728">
        <ele>105</ele>
        <time>2025-11-16T11:36:12Z</time>
        <extensions>
          <gpxtpx:TrackPointExtension xmlns:gpxtpx="http://www.garmin.com/xmlschemas/TrackPointExtension/v1">
            <gpxtpx:hr>113</gpxtpx:hr>
          </gpxtpx:TrackPointExtension>
        </extensions>
      </trkpt>
      <trkpt lat="48.60908" lon="1.97276">
        <ele>104.8</ele>
        <time>2025-11-16T11:36:14Z</time>
        <extensions>
          <gpxtpx:TrackPointExtension xmlns:gpxtpx="http://www.garmin.com/xmlschemas/TrackPointExtension/v1">
            <gpxtpx:hr>112</gpxtpx:hr>
          </gpxtpx:TrackPointExtension>
        </extensions>
      </trkpt>
      <trkpt lat="48.6091" lon="1.97272">
        <ele>104.8</ele>
        <time>2025-11-16T11:36:16Z</time>
        <extensions>
          <gpxtpx:TrackPointExtension xmlns:gpxtpx="http://www.garmin.com/xmlschemas/TrackPointExtension/v1">
            <gpxtpx:hr>112</gpxtpx:hr>
          </gpxtpx:TrackPointExtension>
        </extensions>
      </trkpt>
      <trkpt lat="48.60913" lon="1.97269">
        <ele>104.8</ele>
        <time>2025-11-16T11:36:18Z</time>
        <extensions>
          <gpxtpx:TrackPointExtension xmlns:gpxtpx="http://www.garmin.com/xmlschemas/TrackPointExtension/v1">
            <gpxtpx:hr>112</gpxtpx:hr>
          </gpxtpx:TrackPointExtension>
        </extensions>
      </trkpt>
      <trkpt lat="48.60914" lon="1.97267">
        <ele>104.6</ele>
        <time>2025-11-16T11:36:19Z</time>
        <extensions>
          <gpxtpx:TrackPointExtension xmlns:gpxtpx="http://www.garmin.com/xmlschemas/TrackPointExtension/v1">
            <gpxtpx:hr>112</gpxtpx:hr>
          </gpxtpx:TrackPointExtension>
        </extensions>
      </trkpt>
      <trkpt lat="48.60916" lon="1.97265">
        <ele>104.6</ele>
        <time>2025-11-16T11:36:20Z</time>
        <extensions>
          <gpxtpx:TrackPointExtension xmlns:gpxtpx="http://www.garmin.com/xmlschemas/TrackPointExtension/v1">
            <gpxtpx:hr>112</gpxtpx:hr>
          </gpxtpx:TrackPointExtension>
        </extensions>
      </trkpt>
      <trkpt lat="48.60918" lon="1.97263">
        <ele>104.4</ele>
        <time>2025-11-16T11:36:22Z</time>
        <extensions>
          <gpxtpx:TrackPointExtension xmlns:gpxtpx="http://www.garmin.com/xmlschemas/TrackPointExtension/v1">
            <gpxtpx:hr>112</gpxtpx:hr>
          </gpxtpx:TrackPointExtension>
        </extensions>
      </trkpt>
      <trkpt lat="48.60922" lon="1.97261">
        <ele>104.2</ele>
        <time>2025-11-16T11:36:24Z</time>
        <extensions>
          <gpxtpx:TrackPointExtension xmlns:gpxtpx="http://www.garmin.com/xmlschemas/TrackPointExtension/v1">
            <gpxtpx:hr>111</gpxtpx:hr>
          </gpxtpx:TrackPointExtension>
        </extensions>
      </trkpt>
      <trkpt lat="48.60924" lon="1.97259">
        <ele>104</ele>
        <time>2025-11-16T11:36:26Z</time>
        <extensions>
          <gpxtpx:TrackPointExtension xmlns:gpxtpx="http://www.garmin.com/xmlschemas/TrackPointExtension/v1">
            <gpxtpx:hr>111</gpxtpx:hr>
          </gpxtpx:TrackPointExtension>
        </extensions>
      </trkpt>
      <trkpt lat="48.60927" lon="1.97257">
        <ele>104</ele>
        <time>2025-11-16T11:36:28Z</time>
        <extensions>
          <gpxtpx:TrackPointExtension xmlns:gpxtpx="http://www.garmin.com/xmlschemas/TrackPointExtension/v1">
            <gpxtpx:hr>111</gpxtpx:hr>
          </gpxtpx:TrackPointExtension>
        </extensions>
      </trkpt>
      <trkpt lat="48.6093" lon="1.97254">
        <ele>103.8</ele>
        <time>2025-11-16T11:36:30Z</time>
        <extensions>
          <gpxtpx:TrackPointExtension xmlns:gpxtpx="http://www.garmin.com/xmlschemas/TrackPointExtension/v1">
            <gpxtpx:hr>111</gpxtpx:hr>
          </gpxtpx:TrackPointExtension>
        </extensions>
      </trkpt>
      <trkpt lat="48.60932" lon="1.97252">
        <ele>103.6</ele>
        <time>2025-11-16T11:36:32Z</time>
        <extensions>
          <gpxtpx:TrackPointExtension xmlns:gpxtpx="http://www.garmin.com/xmlschemas/TrackPointExtension/v1">
            <gpxtpx:hr>111</gpxtpx:hr>
          </gpxtpx:TrackPointExtension>
        </extensions>
      </trkpt>
      <trkpt lat="48.60936" lon="1.97249">
        <ele>103.6</ele>
        <time>2025-11-16T11:36:34Z</time>
        <extensions>
          <gpxtpx:TrackPointExtension xmlns:gpxtpx="http://www.garmin.com/xmlschemas/TrackPointExtension/v1">
            <gpxtpx:hr>111</gpxtpx:hr>
          </gpxtpx:TrackPointExtension>
        </extensions>
      </trkpt>
      <trkpt lat="48.60939" lon="1.97247">
        <ele>103.4</ele>
        <time>2025-11-16T11:36:36Z</time>
        <extensions>
          <gpxtpx:TrackPointExtension xmlns:gpxtpx="http://www.garmin.com/xmlschemas/TrackPointExtension/v1">
            <gpxtpx:hr>111</gpxtpx:hr>
          </gpxtpx:TrackPointExtension>
        </extensions>
      </trkpt>
      <trkpt lat="48.6094" lon="1.97245">
        <ele>103.4</ele>
        <time>2025-11-16T11:36:37Z</time>
        <extensions>
          <gpxtpx:TrackPointExtension xmlns:gpxtpx="http://www.garmin.com/xmlschemas/TrackPointExtension/v1">
            <gpxtpx:hr>111</gpxtpx:hr>
          </gpxtpx:TrackPointExtension>
        </extensions>
      </trkpt>
      <trkpt lat="48.60942" lon="1.97244">
        <ele>103.4</ele>
        <time>2025-11-16T11:36:38Z</time>
        <extensions>
          <gpxtpx:TrackPointExtension xmlns:gpxtpx="http://www.garmin.com/xmlschemas/TrackPointExtension/v1">
            <gpxtpx:hr>111</gpxtpx:hr>
          </gpxtpx:TrackPointExtension>
        </extensions>
      </trkpt>
      <trkpt lat="48.60943" lon="1.97242">
        <ele>103.2</ele>
        <time>2025-11-16T11:36:39Z</time>
        <extensions>
          <gpxtpx:TrackPointExtension xmlns:gpxtpx="http://www.garmin.com/xmlschemas/TrackPointExtension/v1">
            <gpxtpx:hr>111</gpxtpx:hr>
          </gpxtpx:TrackPointExtension>
        </extensions>
      </trkpt>
      <trkpt lat="48.60946" lon="1.9724">
        <ele>103.4</ele>
        <time>2025-11-16T11:36:41Z</time>
        <extensions>
          <gpxtpx:TrackPointExtension xmlns:gpxtpx="http://www.garmin.com/xmlschemas/TrackPointExtension/v1">
            <gpxtpx:hr>111</gpxtpx:hr>
          </gpxtpx:TrackPointExtension>
        </extensions>
      </trkpt>
      <trkpt lat="48.60948" lon="1.97239">
        <ele>103.4</ele>
        <time>2025-11-16T11:36:42Z</time>
        <extensions>
          <gpxtpx:TrackPointExtension xmlns:gpxtpx="http://www.garmin.com/xmlschemas/TrackPointExtension/v1">
            <gpxtpx:hr>111</gpxtpx:hr>
          </gpxtpx:TrackPointExtension>
        </extensions>
      </trkpt>
      <trkpt lat="48.6095" lon="1.97238">
        <ele>103.4</ele>
        <time>2025-11-16T11:36:43Z</time>
        <extensions>
          <gpxtpx:TrackPointExtension xmlns:gpxtpx="http://www.garmin.com/xmlschemas/TrackPointExtension/v1">
            <gpxtpx:hr>111</gpxtpx:hr>
          </gpxtpx:TrackPointExtension>
        </extensions>
      </trkpt>
      <trkpt lat="48.60954" lon="1.97236">
        <ele>103.2</ele>
        <time>2025-11-16T11:36:45Z</time>
        <extensions>
          <gpxtpx:TrackPointExtension xmlns:gpxtpx="http://www.garmin.com/xmlschemas/TrackPointExtension/v1">
            <gpxtpx:hr>111</gpxtpx:hr>
          </gpxtpx:TrackPointExtension>
        </extensions>
      </trkpt>
      <trkpt lat="48.60956" lon="1.97234">
        <ele>103</ele>
        <time>2025-11-16T11:36:47Z</time>
        <extensions>
          <gpxtpx:TrackPointExtension xmlns:gpxtpx="http://www.garmin.com/xmlschemas/TrackPointExtension/v1">
            <gpxtpx:hr>111</gpxtpx:hr>
          </gpxtpx:TrackPointExtension>
        </extensions>
      </trkpt>
      <trkpt lat="48.6096" lon="1.97232">
        <ele>102.8</ele>
        <time>2025-11-16T11:36:49Z</time>
        <extensions>
          <gpxtpx:TrackPointExtension xmlns:gpxtpx="http://www.garmin.com/xmlschemas/TrackPointExtension/v1">
            <gpxtpx:hr>111</gpxtpx:hr>
          </gpxtpx:TrackPointExtension>
        </extensions>
      </trkpt>
      <trkpt lat="48.60963" lon="1.97229">
        <ele>102.4</ele>
        <time>2025-11-16T11:36:51Z</time>
        <extensions>
          <gpxtpx:TrackPointExtension xmlns:gpxtpx="http://www.garmin.com/xmlschemas/TrackPointExtension/v1">
            <gpxtpx:hr>111</gpxtpx:hr>
          </gpxtpx:TrackPointExtension>
        </extensions>
      </trkpt>
      <trkpt lat="48.60965" lon="1.97227">
        <ele>102.4</ele>
        <time>2025-11-16T11:36:53Z</time>
        <extensions>
          <gpxtpx:TrackPointExtension xmlns:gpxtpx="http://www.garmin.com/xmlschemas/TrackPointExtension/v1">
            <gpxtpx:hr>111</gpxtpx:hr>
          </gpxtpx:TrackPointExtension>
        </extensions>
      </trkpt>
      <trkpt lat="48.60968" lon="1.97224">
        <ele>102.2</ele>
        <time>2025-11-16T11:36:55Z</time>
        <extensions>
          <gpxtpx:TrackPointExtension xmlns:gpxtpx="http://www.garmin.com/xmlschemas/TrackPointExtension/v1">
            <gpxtpx:hr>111</gpxtpx:hr>
          </gpxtpx:TrackPointExtension>
        </extensions>
      </trkpt>
      <trkpt lat="48.60971" lon="1.97222">
        <ele>102.2</ele>
        <time>2025-11-16T11:36:57Z</time>
        <extensions>
          <gpxtpx:TrackPointExtension xmlns:gpxtpx="http://www.garmin.com/xmlschemas/TrackPointExtension/v1">
            <gpxtpx:hr>111</gpxtpx:hr>
          </gpxtpx:TrackPointExtension>
        </extensions>
      </trkpt>
      <trkpt lat="48.60973" lon="1.9722">
        <ele>102.2</ele>
        <time>2025-11-16T11:36:59Z</time>
        <extensions>
          <gpxtpx:TrackPointExtension xmlns:gpxtpx="http://www.garmin.com/xmlschemas/TrackPointExtension/v1">
            <gpxtpx:hr>111</gpxtpx:hr>
          </gpxtpx:TrackPointExtension>
        </extensions>
      </trkpt>
      <trkpt lat="48.60976" lon="1.97218">
        <ele>102.2</ele>
        <time>2025-11-16T11:37:01Z</time>
        <extensions>
          <gpxtpx:TrackPointExtension xmlns:gpxtpx="http://www.garmin.com/xmlschemas/TrackPointExtension/v1">
            <gpxtpx:hr>111</gpxtpx:hr>
          </gpxtpx:TrackPointExtension>
        </extensions>
      </trkpt>
      <trkpt lat="48.60978" lon="1.97215">
        <ele>102.2</ele>
        <time>2025-11-16T11:37:03Z</time>
        <extensions>
          <gpxtpx:TrackPointExtension xmlns:gpxtpx="http://www.garmin.com/xmlschemas/TrackPointExtension/v1">
            <gpxtpx:hr>111</gpxtpx:hr>
          </gpxtpx:TrackPointExtension>
        </extensions>
      </trkpt>
      <trkpt lat="48.6098" lon="1.97213">
        <ele>102.2</ele>
        <time>2025-11-16T11:37:05Z</time>
        <extensions>
          <gpxtpx:TrackPointExtension xmlns:gpxtpx="http://www.garmin.com/xmlschemas/TrackPointExtension/v1">
            <gpxtpx:hr>111</gpxtpx:hr>
          </gpxtpx:TrackPointExtension>
        </extensions>
      </trkpt>
      <trkpt lat="48.60982" lon="1.9721">
        <ele>102</ele>
        <time>2025-11-16T11:37:07Z</time>
        <extensions>
          <gpxtpx:TrackPointExtension xmlns:gpxtpx="http://www.garmin.com/xmlschemas/TrackPointExtension/v1">
            <gpxtpx:hr>111</gpxtpx:hr>
          </gpxtpx:TrackPointExtension>
        </extensions>
      </trkpt>
      <trkpt lat="48.60984" lon="1.97207">
        <ele>101.8</ele>
        <time>2025-11-16T11:37:09Z</time>
        <extensions>
          <gpxtpx:TrackPointExtension xmlns:gpxtpx="http://www.garmin.com/xmlschemas/TrackPointExtension/v1">
            <gpxtpx:hr>111</gpxtpx:hr>
          </gpxtpx:TrackPointExtension>
        </extensions>
      </trkpt>
      <trkpt lat="48.60987" lon="1.97204">
        <ele>101.6</ele>
        <time>2025-11-16T11:37:11Z</time>
        <extensions>
          <gpxtpx:TrackPointExtension xmlns:gpxtpx="http://www.garmin.com/xmlschemas/TrackPointExtension/v1">
            <gpxtpx:hr>111</gpxtpx:hr>
          </gpxtpx:TrackPointExtension>
        </extensions>
      </trkpt>
      <trkpt lat="48.60989" lon="1.97202">
        <ele>101.2</ele>
        <time>2025-11-16T11:37:13Z</time>
        <extensions>
          <gpxtpx:TrackPointExtension xmlns:gpxtpx="http://www.garmin.com/xmlschemas/TrackPointExtension/v1">
            <gpxtpx:hr>111</gpxtpx:hr>
          </gpxtpx:TrackPointExtension>
        </extensions>
      </trkpt>
      <trkpt lat="48.60992" lon="1.97199">
        <ele>101</ele>
        <time>2025-11-16T11:37:15Z</time>
        <extensions>
          <gpxtpx:TrackPointExtension xmlns:gpxtpx="http://www.garmin.com/xmlschemas/TrackPointExtension/v1">
            <gpxtpx:hr>111</gpxtpx:hr>
          </gpxtpx:TrackPointExtension>
        </extensions>
      </trkpt>
      <trkpt lat="48.60995" lon="1.97197">
        <ele>101</ele>
        <time>2025-11-16T11:37:17Z</time>
        <extensions>
          <gpxtpx:TrackPointExtension xmlns:gpxtpx="http://www.garmin.com/xmlschemas/TrackPointExtension/v1">
            <gpxtpx:hr>111</gpxtpx:hr>
          </gpxtpx:TrackPointExtension>
        </extensions>
      </trkpt>
      <trkpt lat="48.60998" lon="1.97194">
        <ele>100.8</ele>
        <time>2025-11-16T11:37:19Z</time>
        <extensions>
          <gpxtpx:TrackPointExtension xmlns:gpxtpx="http://www.garmin.com/xmlschemas/TrackPointExtension/v1">
            <gpxtpx:hr>111</gpxtpx:hr>
          </gpxtpx:TrackPointExtension>
        </extensions>
      </trkpt>
      <trkpt lat="48.60999" lon="1.97193">
        <ele>100.8</ele>
        <time>2025-11-16T11:37:20Z</time>
        <extensions>
          <gpxtpx:TrackPointExtension xmlns:gpxtpx="http://www.garmin.com/xmlschemas/TrackPointExtension/v1">
            <gpxtpx:hr>111</gpxtpx:hr>
          </gpxtpx:TrackPointExtension>
        </extensions>
      </trkpt>
      <trkpt lat="48.61002" lon="1.9719">
        <ele>100.6</ele>
        <time>2025-11-16T11:37:22Z</time>
        <extensions>
          <gpxtpx:TrackPointExtension xmlns:gpxtpx="http://www.garmin.com/xmlschemas/TrackPointExtension/v1">
            <gpxtpx:hr>111</gpxtpx:hr>
          </gpxtpx:TrackPointExtension>
        </extensions>
      </trkpt>
      <trkpt lat="48.61004" lon="1.97187">
        <ele>100.4</ele>
        <time>2025-11-16T11:37:24Z</time>
        <extensions>
          <gpxtpx:TrackPointExtension xmlns:gpxtpx="http://www.garmin.com/xmlschemas/TrackPointExtension/v1">
            <gpxtpx:hr>111</gpxtpx:hr>
          </gpxtpx:TrackPointExtension>
        </extensions>
      </trkpt>
      <trkpt lat="48.61006" lon="1.97184">
        <ele>100.2</ele>
        <time>2025-11-16T11:37:26Z</time>
        <extensions>
          <gpxtpx:TrackPointExtension xmlns:gpxtpx="http://www.garmin.com/xmlschemas/TrackPointExtension/v1">
            <gpxtpx:hr>111</gpxtpx:hr>
          </gpxtpx:TrackPointExtension>
        </extensions>
      </trkpt>
      <trkpt lat="48.61008" lon="1.97181">
        <ele>100.2</ele>
        <time>2025-11-16T11:37:28Z</time>
        <extensions>
          <gpxtpx:TrackPointExtension xmlns:gpxtpx="http://www.garmin.com/xmlschemas/TrackPointExtension/v1">
            <gpxtpx:hr>111</gpxtpx:hr>
          </gpxtpx:TrackPointExtension>
        </extensions>
      </trkpt>
      <trkpt lat="48.6101" lon="1.9718">
        <ele>100</ele>
        <time>2025-11-16T11:37:29Z</time>
        <extensions>
          <gpxtpx:TrackPointExtension xmlns:gpxtpx="http://www.garmin.com/xmlschemas/TrackPointExtension/v1">
            <gpxtpx:hr>111</gpxtpx:hr>
          </gpxtpx:TrackPointExtension>
        </extensions>
      </trkpt>
      <trkpt lat="48.61013" lon="1.97178">
        <ele>100</ele>
        <time>2025-11-16T11:37:31Z</time>
        <extensions>
          <gpxtpx:TrackPointExtension xmlns:gpxtpx="http://www.garmin.com/xmlschemas/TrackPointExtension/v1">
            <gpxtpx:hr>111</gpxtpx:hr>
          </gpxtpx:TrackPointExtension>
        </extensions>
      </trkpt>
      <trkpt lat="48.61015" lon="1.97176">
        <ele>100</ele>
        <time>2025-11-16T11:37:33Z</time>
        <extensions>
          <gpxtpx:TrackPointExtension xmlns:gpxtpx="http://www.garmin.com/xmlschemas/TrackPointExtension/v1">
            <gpxtpx:hr>111</gpxtpx:hr>
          </gpxtpx:TrackPointExtension>
        </extensions>
      </trkpt>
      <trkpt lat="48.61018" lon="1.97175">
        <ele>99.8</ele>
        <time>2025-11-16T11:37:35Z</time>
        <extensions>
          <gpxtpx:TrackPointExtension xmlns:gpxtpx="http://www.garmin.com/xmlschemas/TrackPointExtension/v1">
            <gpxtpx:hr>111</gpxtpx:hr>
          </gpxtpx:TrackPointExtension>
        </extensions>
      </trkpt>
      <trkpt lat="48.61021" lon="1.97174">
        <ele>99.8</ele>
        <time>2025-11-16T11:37:37Z</time>
        <extensions>
          <gpxtpx:TrackPointExtension xmlns:gpxtpx="http://www.garmin.com/xmlschemas/TrackPointExtension/v1">
            <gpxtpx:hr>111</gpxtpx:hr>
          </gpxtpx:TrackPointExtension>
        </extensions>
      </trkpt>
      <trkpt lat="48.61023" lon="1.97174">
        <ele>99.8</ele>
        <time>2025-11-16T11:37:39Z</time>
        <extensions>
          <gpxtpx:TrackPointExtension xmlns:gpxtpx="http://www.garmin.com/xmlschemas/TrackPointExtension/v1">
            <gpxtpx:hr>111</gpxtpx:hr>
          </gpxtpx:TrackPointExtension>
        </extensions>
      </trkpt>
      <trkpt lat="48.61026" lon="1.97173">
        <ele>99.6</ele>
        <time>2025-11-16T11:37:41Z</time>
        <extensions>
          <gpxtpx:TrackPointExtension xmlns:gpxtpx="http://www.garmin.com/xmlschemas/TrackPointExtension/v1">
            <gpxtpx:hr>111</gpxtpx:hr>
          </gpxtpx:TrackPointExtension>
        </extensions>
      </trkpt>
      <trkpt lat="48.61029" lon="1.97173">
        <ele>99.6</ele>
        <time>2025-11-16T11:37:43Z</time>
        <extensions>
          <gpxtpx:TrackPointExtension xmlns:gpxtpx="http://www.garmin.com/xmlschemas/TrackPointExtension/v1">
            <gpxtpx:hr>111</gpxtpx:hr>
          </gpxtpx:TrackPointExtension>
        </extensions>
      </trkpt>
      <trkpt lat="48.61032" lon="1.97172">
        <ele>99.6</ele>
        <time>2025-11-16T11:37:45Z</time>
        <extensions>
          <gpxtpx:TrackPointExtension xmlns:gpxtpx="http://www.garmin.com/xmlschemas/TrackPointExtension/v1">
            <gpxtpx:hr>111</gpxtpx:hr>
          </gpxtpx:TrackPointExtension>
        </extensions>
      </trkpt>
      <trkpt lat="48.61035" lon="1.97171">
        <ele>99.6</ele>
        <time>2025-11-16T11:37:47Z</time>
        <extensions>
          <gpxtpx:TrackPointExtension xmlns:gpxtpx="http://www.garmin.com/xmlschemas/TrackPointExtension/v1">
            <gpxtpx:hr>111</gpxtpx:hr>
          </gpxtpx:TrackPointExtension>
        </extensions>
      </trkpt>
      <trkpt lat="48.61038" lon="1.9717">
        <ele>99.4</ele>
        <time>2025-11-16T11:37:49Z</time>
        <extensions>
          <gpxtpx:TrackPointExtension xmlns:gpxtpx="http://www.garmin.com/xmlschemas/TrackPointExtension/v1">
            <gpxtpx:hr>111</gpxtpx:hr>
          </gpxtpx:TrackPointExtension>
        </extensions>
      </trkpt>
      <trkpt lat="48.6104" lon="1.9717">
        <ele>99.4</ele>
        <time>2025-11-16T11:37:50Z</time>
        <extensions>
          <gpxtpx:TrackPointExtension xmlns:gpxtpx="http://www.garmin.com/xmlschemas/TrackPointExtension/v1">
            <gpxtpx:hr>111</gpxtpx:hr>
          </gpxtpx:TrackPointExtension>
        </extensions>
      </trkpt>
      <trkpt lat="48.61043" lon="1.97169">
        <ele>99.4</ele>
        <time>2025-11-16T11:37:52Z</time>
        <extensions>
          <gpxtpx:TrackPointExtension xmlns:gpxtpx="http://www.garmin.com/xmlschemas/TrackPointExtension/v1">
            <gpxtpx:hr>112</gpxtpx:hr>
          </gpxtpx:TrackPointExtension>
        </extensions>
      </trkpt>
      <trkpt lat="48.61046" lon="1.97167">
        <ele>99.6</ele>
        <time>2025-11-16T11:37:54Z</time>
        <extensions>
          <gpxtpx:TrackPointExtension xmlns:gpxtpx="http://www.garmin.com/xmlschemas/TrackPointExtension/v1">
            <gpxtpx:hr>113</gpxtpx:hr>
          </gpxtpx:TrackPointExtension>
        </extensions>
      </trkpt>
      <trkpt lat="48.61049" lon="1.97166">
        <ele>99.6</ele>
        <time>2025-11-16T11:37:56Z</time>
        <extensions>
          <gpxtpx:TrackPointExtension xmlns:gpxtpx="http://www.garmin.com/xmlschemas/TrackPointExtension/v1">
            <gpxtpx:hr>116</gpxtpx:hr>
          </gpxtpx:TrackPointExtension>
        </extensions>
      </trkpt>
      <trkpt lat="48.61053" lon="1.97164">
        <ele>99.6</ele>
        <time>2025-11-16T11:37:58Z</time>
        <extensions>
          <gpxtpx:TrackPointExtension xmlns:gpxtpx="http://www.garmin.com/xmlschemas/TrackPointExtension/v1">
            <gpxtpx:hr>116</gpxtpx:hr>
          </gpxtpx:TrackPointExtension>
        </extensions>
      </trkpt>
      <trkpt lat="48.61056" lon="1.97163">
        <ele>99.6</ele>
        <time>2025-11-16T11:38:00Z</time>
        <extensions>
          <gpxtpx:TrackPointExtension xmlns:gpxtpx="http://www.garmin.com/xmlschemas/TrackPointExtension/v1">
            <gpxtpx:hr>116</gpxtpx:hr>
          </gpxtpx:TrackPointExtension>
        </extensions>
      </trkpt>
      <trkpt lat="48.61059" lon="1.97161">
        <ele>99.6</ele>
        <time>2025-11-16T11:38:02Z</time>
        <extensions>
          <gpxtpx:TrackPointExtension xmlns:gpxtpx="http://www.garmin.com/xmlschemas/TrackPointExtension/v1">
            <gpxtpx:hr>116</gpxtpx:hr>
          </gpxtpx:TrackPointExtension>
        </extensions>
      </trkpt>
      <trkpt lat="48.61061" lon="1.97161">
        <ele>99.6</ele>
        <time>2025-11-16T11:38:03Z</time>
        <extensions>
          <gpxtpx:TrackPointExtension xmlns:gpxtpx="http://www.garmin.com/xmlschemas/TrackPointExtension/v1">
            <gpxtpx:hr>115</gpxtpx:hr>
          </gpxtpx:TrackPointExtension>
        </extensions>
      </trkpt>
      <trkpt lat="48.61064" lon="1.97159">
        <ele>99.6</ele>
        <time>2025-11-16T11:38:05Z</time>
        <extensions>
          <gpxtpx:TrackPointExtension xmlns:gpxtpx="http://www.garmin.com/xmlschemas/TrackPointExtension/v1">
            <gpxtpx:hr>115</gpxtpx:hr>
          </gpxtpx:TrackPointExtension>
        </extensions>
      </trkpt>
      <trkpt lat="48.61067" lon="1.97158">
        <ele>99.4</ele>
        <time>2025-11-16T11:38:07Z</time>
        <extensions>
          <gpxtpx:TrackPointExtension xmlns:gpxtpx="http://www.garmin.com/xmlschemas/TrackPointExtension/v1">
            <gpxtpx:hr>115</gpxtpx:hr>
          </gpxtpx:TrackPointExtension>
        </extensions>
      </trkpt>
      <trkpt lat="48.6107" lon="1.97156">
        <ele>99.4</ele>
        <time>2025-11-16T11:38:09Z</time>
        <extensions>
          <gpxtpx:TrackPointExtension xmlns:gpxtpx="http://www.garmin.com/xmlschemas/TrackPointExtension/v1">
            <gpxtpx:hr>114</gpxtpx:hr>
          </gpxtpx:TrackPointExtension>
        </extensions>
      </trkpt>
      <trkpt lat="48.61073" lon="1.97154">
        <ele>99.4</ele>
        <time>2025-11-16T11:38:11Z</time>
        <extensions>
          <gpxtpx:TrackPointExtension xmlns:gpxtpx="http://www.garmin.com/xmlschemas/TrackPointExtension/v1">
            <gpxtpx:hr>114</gpxtpx:hr>
          </gpxtpx:TrackPointExtension>
        </extensions>
      </trkpt>
      <trkpt lat="48.61076" lon="1.97152">
        <ele>99.4</ele>
        <time>2025-11-16T11:38:13Z</time>
        <extensions>
          <gpxtpx:TrackPointExtension xmlns:gpxtpx="http://www.garmin.com/xmlschemas/TrackPointExtension/v1">
            <gpxtpx:hr>114</gpxtpx:hr>
          </gpxtpx:TrackPointExtension>
        </extensions>
      </trkpt>
      <trkpt lat="48.61079" lon="1.97151">
        <ele>99.2</ele>
        <time>2025-11-16T11:38:15Z</time>
        <extensions>
          <gpxtpx:TrackPointExtension xmlns:gpxtpx="http://www.garmin.com/xmlschemas/TrackPointExtension/v1">
            <gpxtpx:hr>114</gpxtpx:hr>
          </gpxtpx:TrackPointExtension>
        </extensions>
      </trkpt>
      <trkpt lat="48.61082" lon="1.9715">
        <ele>99.4</ele>
        <time>2025-11-16T11:38:17Z</time>
        <extensions>
          <gpxtpx:TrackPointExtension xmlns:gpxtpx="http://www.garmin.com/xmlschemas/TrackPointExtension/v1">
            <gpxtpx:hr>114</gpxtpx:hr>
          </gpxtpx:TrackPointExtension>
        </extensions>
      </trkpt>
      <trkpt lat="48.61084" lon="1.97149">
        <ele>99.4</ele>
        <time>2025-11-16T11:38:19Z</time>
        <extensions>
          <gpxtpx:TrackPointExtension xmlns:gpxtpx="http://www.garmin.com/xmlschemas/TrackPointExtension/v1">
            <gpxtpx:hr>114</gpxtpx:hr>
          </gpxtpx:TrackPointExtension>
        </extensions>
      </trkpt>
      <trkpt lat="48.61086" lon="1.97147">
        <ele>99.6</ele>
        <time>2025-11-16T11:38:22Z</time>
        <extensions>
          <gpxtpx:TrackPointExtension xmlns:gpxtpx="http://www.garmin.com/xmlschemas/TrackPointExtension/v1">
            <gpxtpx:hr>114</gpxtpx:hr>
          </gpxtpx:TrackPointExtension>
        </extensions>
      </trkpt>
      <trkpt lat="48.61088" lon="1.97147">
        <ele>99.4</ele>
        <time>2025-11-16T11:38:25Z</time>
        <extensions>
          <gpxtpx:TrackPointExtension xmlns:gpxtpx="http://www.garmin.com/xmlschemas/TrackPointExtension/v1">
            <gpxtpx:hr>114</gpxtpx:hr>
          </gpxtpx:TrackPointExtension>
        </extensions>
      </trkpt>
      <trkpt lat="48.6109" lon="1.97146">
        <ele>99.2</ele>
        <time>2025-11-16T11:38:27Z</time>
        <extensions>
          <gpxtpx:TrackPointExtension xmlns:gpxtpx="http://www.garmin.com/xmlschemas/TrackPointExtension/v1">
            <gpxtpx:hr>113</gpxtpx:hr>
          </gpxtpx:TrackPointExtension>
        </extensions>
      </trkpt>
      <trkpt lat="48.61092" lon="1.97145">
        <ele>99.2</ele>
        <time>2025-11-16T11:38:29Z</time>
        <extensions>
          <gpxtpx:TrackPointExtension xmlns:gpxtpx="http://www.garmin.com/xmlschemas/TrackPointExtension/v1">
            <gpxtpx:hr>113</gpxtpx:hr>
          </gpxtpx:TrackPointExtension>
        </extensions>
      </trkpt>
      <trkpt lat="48.61095" lon="1.97144">
        <ele>99.6</ele>
        <time>2025-11-16T11:38:31Z</time>
        <extensions>
          <gpxtpx:TrackPointExtension xmlns:gpxtpx="http://www.garmin.com/xmlschemas/TrackPointExtension/v1">
            <gpxtpx:hr>113</gpxtpx:hr>
          </gpxtpx:TrackPointExtension>
        </extensions>
      </trkpt>
      <trkpt lat="48.61097" lon="1.97142">
        <ele>99.8</ele>
        <time>2025-11-16T11:38:33Z</time>
        <extensions>
          <gpxtpx:TrackPointExtension xmlns:gpxtpx="http://www.garmin.com/xmlschemas/TrackPointExtension/v1">
            <gpxtpx:hr>113</gpxtpx:hr>
          </gpxtpx:TrackPointExtension>
        </extensions>
      </trkpt>
      <trkpt lat="48.61099" lon="1.97141">
        <ele>100.2</ele>
        <time>2025-11-16T11:38:35Z</time>
        <extensions>
          <gpxtpx:TrackPointExtension xmlns:gpxtpx="http://www.garmin.com/xmlschemas/TrackPointExtension/v1">
            <gpxtpx:hr>113</gpxtpx:hr>
          </gpxtpx:TrackPointExtension>
        </extensions>
      </trkpt>
      <trkpt lat="48.61102" lon="1.9714">
        <ele>100.4</ele>
        <time>2025-11-16T11:38:37Z</time>
        <extensions>
          <gpxtpx:TrackPointExtension xmlns:gpxtpx="http://www.garmin.com/xmlschemas/TrackPointExtension/v1">
            <gpxtpx:hr>113</gpxtpx:hr>
          </gpxtpx:TrackPointExtension>
        </extensions>
      </trkpt>
      <trkpt lat="48.61105" lon="1.97139">
        <ele>100.6</ele>
        <time>2025-11-16T11:38:39Z</time>
        <extensions>
          <gpxtpx:TrackPointExtension xmlns:gpxtpx="http://www.garmin.com/xmlschemas/TrackPointExtension/v1">
            <gpxtpx:hr>113</gpxtpx:hr>
          </gpxtpx:TrackPointExtension>
        </extensions>
      </trkpt>
      <trkpt lat="48.61108" lon="1.97139">
        <ele>100.8</ele>
        <time>2025-11-16T11:38:41Z</time>
        <extensions>
          <gpxtpx:TrackPointExtension xmlns:gpxtpx="http://www.garmin.com/xmlschemas/TrackPointExtension/v1">
            <gpxtpx:hr>113</gpxtpx:hr>
          </gpxtpx:TrackPointExtension>
        </extensions>
      </trkpt>
      <trkpt lat="48.61109" lon="1.97138">
        <ele>100.6</ele>
        <time>2025-11-16T11:38:42Z</time>
        <extensions>
          <gpxtpx:TrackPointExtension xmlns:gpxtpx="http://www.garmin.com/xmlschemas/TrackPointExtension/v1">
            <gpxtpx:hr>113</gpxtpx:hr>
          </gpxtpx:TrackPointExtension>
        </extensions>
      </trkpt>
      <trkpt lat="48.61113" lon="1.97138">
        <ele>100.6</ele>
        <time>2025-11-16T11:38:44Z</time>
        <extensions>
          <gpxtpx:TrackPointExtension xmlns:gpxtpx="http://www.garmin.com/xmlschemas/TrackPointExtension/v1">
            <gpxtpx:hr>113</gpxtpx:hr>
          </gpxtpx:TrackPointExtension>
        </extensions>
      </trkpt>
      <trkpt lat="48.61115" lon="1.97137">
        <ele>100.4</ele>
        <time>2025-11-16T11:38:45Z</time>
        <extensions>
          <gpxtpx:TrackPointExtension xmlns:gpxtpx="http://www.garmin.com/xmlschemas/TrackPointExtension/v1">
            <gpxtpx:hr>113</gpxtpx:hr>
          </gpxtpx:TrackPointExtension>
        </extensions>
      </trkpt>
      <trkpt lat="48.61117" lon="1.97136">
        <ele>100.2</ele>
        <time>2025-11-16T11:38:47Z</time>
        <extensions>
          <gpxtpx:TrackPointExtension xmlns:gpxtpx="http://www.garmin.com/xmlschemas/TrackPointExtension/v1">
            <gpxtpx:hr>113</gpxtpx:hr>
          </gpxtpx:TrackPointExtension>
        </extensions>
      </trkpt>
      <trkpt lat="48.61121" lon="1.97135">
        <ele>100</ele>
        <time>2025-11-16T11:38:49Z</time>
        <extensions>
          <gpxtpx:TrackPointExtension xmlns:gpxtpx="http://www.garmin.com/xmlschemas/TrackPointExtension/v1">
            <gpxtpx:hr>113</gpxtpx:hr>
          </gpxtpx:TrackPointExtension>
        </extensions>
      </trkpt>
      <trkpt lat="48.61124" lon="1.97134">
        <ele>99.8</ele>
        <time>2025-11-16T11:38:51Z</time>
        <extensions>
          <gpxtpx:TrackPointExtension xmlns:gpxtpx="http://www.garmin.com/xmlschemas/TrackPointExtension/v1">
            <gpxtpx:hr>112</gpxtpx:hr>
          </gpxtpx:TrackPointExtension>
        </extensions>
      </trkpt>
      <trkpt lat="48.61126" lon="1.97134">
        <ele>99.8</ele>
        <time>2025-11-16T11:38:52Z</time>
        <extensions>
          <gpxtpx:TrackPointExtension xmlns:gpxtpx="http://www.garmin.com/xmlschemas/TrackPointExtension/v1">
            <gpxtpx:hr>112</gpxtpx:hr>
          </gpxtpx:TrackPointExtension>
        </extensions>
      </trkpt>
      <trkpt lat="48.61129" lon="1.97133">
        <ele>99.6</ele>
        <time>2025-11-16T11:38:54Z</time>
        <extensions>
          <gpxtpx:TrackPointExtension xmlns:gpxtpx="http://www.garmin.com/xmlschemas/TrackPointExtension/v1">
            <gpxtpx:hr>111</gpxtpx:hr>
          </gpxtpx:TrackPointExtension>
        </extensions>
      </trkpt>
      <trkpt lat="48.61132" lon="1.97133">
        <ele>99.4</ele>
        <time>2025-11-16T11:38:56Z</time>
        <extensions>
          <gpxtpx:TrackPointExtension xmlns:gpxtpx="http://www.garmin.com/xmlschemas/TrackPointExtension/v1">
            <gpxtpx:hr>111</gpxtpx:hr>
          </gpxtpx:TrackPointExtension>
        </extensions>
      </trkpt>
      <trkpt lat="48.61135" lon="1.97133">
        <ele>99.4</ele>
        <time>2025-11-16T11:38:58Z</time>
        <extensions>
          <gpxtpx:TrackPointExtension xmlns:gpxtpx="http://www.garmin.com/xmlschemas/TrackPointExtension/v1">
            <gpxtpx:hr>111</gpxtpx:hr>
          </gpxtpx:TrackPointExtension>
        </extensions>
      </trkpt>
      <trkpt lat="48.61138" lon="1.97133">
        <ele>99.2</ele>
        <time>2025-11-16T11:39:00Z</time>
        <extensions>
          <gpxtpx:TrackPointExtension xmlns:gpxtpx="http://www.garmin.com/xmlschemas/TrackPointExtension/v1">
            <gpxtpx:hr>110</gpxtpx:hr>
          </gpxtpx:TrackPointExtension>
        </extensions>
      </trkpt>
      <trkpt lat="48.6114" lon="1.97133">
        <ele>99.2</ele>
        <time>2025-11-16T11:39:02Z</time>
        <extensions>
          <gpxtpx:TrackPointExtension xmlns:gpxtpx="http://www.garmin.com/xmlschemas/TrackPointExtension/v1">
            <gpxtpx:hr>111</gpxtpx:hr>
          </gpxtpx:TrackPointExtension>
        </extensions>
      </trkpt>
      <trkpt lat="48.61143" lon="1.97133">
        <ele>99.2</ele>
        <time>2025-11-16T11:39:04Z</time>
        <extensions>
          <gpxtpx:TrackPointExtension xmlns:gpxtpx="http://www.garmin.com/xmlschemas/TrackPointExtension/v1">
            <gpxtpx:hr>111</gpxtpx:hr>
          </gpxtpx:TrackPointExtension>
        </extensions>
      </trkpt>
      <trkpt lat="48.61146" lon="1.97134">
        <ele>99</ele>
        <time>2025-11-16T11:39:06Z</time>
        <extensions>
          <gpxtpx:TrackPointExtension xmlns:gpxtpx="http://www.garmin.com/xmlschemas/TrackPointExtension/v1">
            <gpxtpx:hr>112</gpxtpx:hr>
          </gpxtpx:TrackPointExtension>
        </extensions>
      </trkpt>
      <trkpt lat="48.61149" lon="1.97134">
        <ele>99</ele>
        <time>2025-11-16T11:39:08Z</time>
        <extensions>
          <gpxtpx:TrackPointExtension xmlns:gpxtpx="http://www.garmin.com/xmlschemas/TrackPointExtension/v1">
            <gpxtpx:hr>113</gpxtpx:hr>
          </gpxtpx:TrackPointExtension>
        </extensions>
      </trkpt>
      <trkpt lat="48.61152" lon="1.97135">
        <ele>99</ele>
        <time>2025-11-16T11:39:10Z</time>
        <extensions>
          <gpxtpx:TrackPointExtension xmlns:gpxtpx="http://www.garmin.com/xmlschemas/TrackPointExtension/v1">
            <gpxtpx:hr>113</gpxtpx:hr>
          </gpxtpx:TrackPointExtension>
        </extensions>
      </trkpt>
      <trkpt lat="48.61156" lon="1.97136">
        <ele>99</ele>
        <time>2025-11-16T11:39:12Z</time>
        <extensions>
          <gpxtpx:TrackPointExtension xmlns:gpxtpx="http://www.garmin.com/xmlschemas/TrackPointExtension/v1">
            <gpxtpx:hr>113</gpxtpx:hr>
          </gpxtpx:TrackPointExtension>
        </extensions>
      </trkpt>
      <trkpt lat="48.61159" lon="1.97138">
        <ele>99</ele>
        <time>2025-11-16T11:39:14Z</time>
        <extensions>
          <gpxtpx:TrackPointExtension xmlns:gpxtpx="http://www.garmin.com/xmlschemas/TrackPointExtension/v1">
            <gpxtpx:hr>113</gpxtpx:hr>
          </gpxtpx:TrackPointExtension>
        </extensions>
      </trkpt>
      <trkpt lat="48.61163" lon="1.97139">
        <ele>99</ele>
        <time>2025-11-16T11:39:16Z</time>
        <extensions>
          <gpxtpx:TrackPointExtension xmlns:gpxtpx="http://www.garmin.com/xmlschemas/TrackPointExtension/v1">
            <gpxtpx:hr>113</gpxtpx:hr>
          </gpxtpx:TrackPointExtension>
        </extensions>
      </trkpt>
      <trkpt lat="48.61166" lon="1.9714">
        <ele>99</ele>
        <time>2025-11-16T11:39:18Z</time>
        <extensions>
          <gpxtpx:TrackPointExtension xmlns:gpxtpx="http://www.garmin.com/xmlschemas/TrackPointExtension/v1">
            <gpxtpx:hr>113</gpxtpx:hr>
          </gpxtpx:TrackPointExtension>
        </extensions>
      </trkpt>
      <trkpt lat="48.61169" lon="1.97141">
        <ele>99</ele>
        <time>2025-11-16T11:39:20Z</time>
        <extensions>
          <gpxtpx:TrackPointExtension xmlns:gpxtpx="http://www.garmin.com/xmlschemas/TrackPointExtension/v1">
            <gpxtpx:hr>113</gpxtpx:hr>
          </gpxtpx:TrackPointExtension>
        </extensions>
      </trkpt>
      <trkpt lat="48.61172" lon="1.97142">
        <ele>99.2</ele>
        <time>2025-11-16T11:39:22Z</time>
        <extensions>
          <gpxtpx:TrackPointExtension xmlns:gpxtpx="http://www.garmin.com/xmlschemas/TrackPointExtension/v1">
            <gpxtpx:hr>113</gpxtpx:hr>
          </gpxtpx:TrackPointExtension>
        </extensions>
      </trkpt>
      <trkpt lat="48.61175" lon="1.97143">
        <ele>99.4</ele>
        <time>2025-11-16T11:39:24Z</time>
        <extensions>
          <gpxtpx:TrackPointExtension xmlns:gpxtpx="http://www.garmin.com/xmlschemas/TrackPointExtension/v1">
            <gpxtpx:hr>114</gpxtpx:hr>
          </gpxtpx:TrackPointExtension>
        </extensions>
      </trkpt>
      <trkpt lat="48.61178" lon="1.97143">
        <ele>99.4</ele>
        <time>2025-11-16T11:39:26Z</time>
        <extensions>
          <gpxtpx:TrackPointExtension xmlns:gpxtpx="http://www.garmin.com/xmlschemas/TrackPointExtension/v1">
            <gpxtpx:hr>114</gpxtpx:hr>
          </gpxtpx:TrackPointExtension>
        </extensions>
      </trkpt>
      <trkpt lat="48.61181" lon="1.97144">
        <ele>99.6</ele>
        <time>2025-11-16T11:39:28Z</time>
        <extensions>
          <gpxtpx:TrackPointExtension xmlns:gpxtpx="http://www.garmin.com/xmlschemas/TrackPointExtension/v1">
            <gpxtpx:hr>114</gpxtpx:hr>
          </gpxtpx:TrackPointExtension>
        </extensions>
      </trkpt>
      <trkpt lat="48.61184" lon="1.97144">
        <ele>99.6</ele>
        <time>2025-11-16T11:39:30Z</time>
        <extensions>
          <gpxtpx:TrackPointExtension xmlns:gpxtpx="http://www.garmin.com/xmlschemas/TrackPointExtension/v1">
            <gpxtpx:hr>114</gpxtpx:hr>
          </gpxtpx:TrackPointExtension>
        </extensions>
      </trkpt>
      <trkpt lat="48.61188" lon="1.97143">
        <ele>99.6</ele>
        <time>2025-11-16T11:39:32Z</time>
        <extensions>
          <gpxtpx:TrackPointExtension xmlns:gpxtpx="http://www.garmin.com/xmlschemas/TrackPointExtension/v1">
            <gpxtpx:hr>114</gpxtpx:hr>
          </gpxtpx:TrackPointExtension>
        </extensions>
      </trkpt>
      <trkpt lat="48.61191" lon="1.97143">
        <ele>99.6</ele>
        <time>2025-11-16T11:39:34Z</time>
        <extensions>
          <gpxtpx:TrackPointExtension xmlns:gpxtpx="http://www.garmin.com/xmlschemas/TrackPointExtension/v1">
            <gpxtpx:hr>113</gpxtpx:hr>
          </gpxtpx:TrackPointExtension>
        </extensions>
      </trkpt>
      <trkpt lat="48.61193" lon="1.97143">
        <ele>99.6</ele>
        <time>2025-11-16T11:39:35Z</time>
        <extensions>
          <gpxtpx:TrackPointExtension xmlns:gpxtpx="http://www.garmin.com/xmlschemas/TrackPointExtension/v1">
            <gpxtpx:hr>113</gpxtpx:hr>
          </gpxtpx:TrackPointExtension>
        </extensions>
      </trkpt>
      <trkpt lat="48.61196" lon="1.97143">
        <ele>99.6</ele>
        <time>2025-11-16T11:39:37Z</time>
        <extensions>
          <gpxtpx:TrackPointExtension xmlns:gpxtpx="http://www.garmin.com/xmlschemas/TrackPointExtension/v1">
            <gpxtpx:hr>113</gpxtpx:hr>
          </gpxtpx:TrackPointExtension>
        </extensions>
      </trkpt>
      <trkpt lat="48.61198" lon="1.97143">
        <ele>99.6</ele>
        <time>2025-11-16T11:39:39Z</time>
        <extensions>
          <gpxtpx:TrackPointExtension xmlns:gpxtpx="http://www.garmin.com/xmlschemas/TrackPointExtension/v1">
            <gpxtpx:hr>113</gpxtpx:hr>
          </gpxtpx:TrackPointExtension>
        </extensions>
      </trkpt>
      <trkpt lat="48.61202" lon="1.97144">
        <ele>99.8</ele>
        <time>2025-11-16T11:39:41Z</time>
        <extensions>
          <gpxtpx:TrackPointExtension xmlns:gpxtpx="http://www.garmin.com/xmlschemas/TrackPointExtension/v1">
            <gpxtpx:hr>112</gpxtpx:hr>
          </gpxtpx:TrackPointExtension>
        </extensions>
      </trkpt>
      <trkpt lat="48.61204" lon="1.97144">
        <ele>100</ele>
        <time>2025-11-16T11:39:43Z</time>
        <extensions>
          <gpxtpx:TrackPointExtension xmlns:gpxtpx="http://www.garmin.com/xmlschemas/TrackPointExtension/v1">
            <gpxtpx:hr>110</gpxtpx:hr>
          </gpxtpx:TrackPointExtension>
        </extensions>
      </trkpt>
      <trkpt lat="48.61206" lon="1.97144">
        <ele>100.2</ele>
        <time>2025-11-16T11:39:44Z</time>
        <extensions>
          <gpxtpx:TrackPointExtension xmlns:gpxtpx="http://www.garmin.com/xmlschemas/TrackPointExtension/v1">
            <gpxtpx:hr>110</gpxtpx:hr>
          </gpxtpx:TrackPointExtension>
        </extensions>
      </trkpt>
      <trkpt lat="48.6121" lon="1.97144">
        <ele>100.2</ele>
        <time>2025-11-16T11:39:46Z</time>
        <extensions>
          <gpxtpx:TrackPointExtension xmlns:gpxtpx="http://www.garmin.com/xmlschemas/TrackPointExtension/v1">
            <gpxtpx:hr>110</gpxtpx:hr>
          </gpxtpx:TrackPointExtension>
        </extensions>
      </trkpt>
      <trkpt lat="48.61212" lon="1.97144">
        <ele>100.2</ele>
        <time>2025-11-16T11:39:47Z</time>
        <extensions>
          <gpxtpx:TrackPointExtension xmlns:gpxtpx="http://www.garmin.com/xmlschemas/TrackPointExtension/v1">
            <gpxtpx:hr>110</gpxtpx:hr>
          </gpxtpx:TrackPointExtension>
        </extensions>
      </trkpt>
      <trkpt lat="48.61215" lon="1.97143">
        <ele>100.4</ele>
        <time>2025-11-16T11:39:49Z</time>
        <extensions>
          <gpxtpx:TrackPointExtension xmlns:gpxtpx="http://www.garmin.com/xmlschemas/TrackPointExtension/v1">
            <gpxtpx:hr>110</gpxtpx:hr>
          </gpxtpx:TrackPointExtension>
        </extensions>
      </trkpt>
      <trkpt lat="48.61218" lon="1.97143">
        <ele>100.6</ele>
        <time>2025-11-16T11:39:51Z</time>
        <extensions>
          <gpxtpx:TrackPointExtension xmlns:gpxtpx="http://www.garmin.com/xmlschemas/TrackPointExtension/v1">
            <gpxtpx:hr>110</gpxtpx:hr>
          </gpxtpx:TrackPointExtension>
        </extensions>
      </trkpt>
      <trkpt lat="48.6122" lon="1.97143">
        <ele>100.8</ele>
        <time>2025-11-16T11:39:53Z</time>
        <extensions>
          <gpxtpx:TrackPointExtension xmlns:gpxtpx="http://www.garmin.com/xmlschemas/TrackPointExtension/v1">
            <gpxtpx:hr>110</gpxtpx:hr>
          </gpxtpx:TrackPointExtension>
        </extensions>
      </trkpt>
      <trkpt lat="48.61222" lon="1.97144">
        <ele>100.8</ele>
        <time>2025-11-16T11:39:55Z</time>
        <extensions>
          <gpxtpx:TrackPointExtension xmlns:gpxtpx="http://www.garmin.com/xmlschemas/TrackPointExtension/v1">
            <gpxtpx:hr>110</gpxtpx:hr>
          </gpxtpx:TrackPointExtension>
        </extensions>
      </trkpt>
      <trkpt lat="48.61224" lon="1.97144">
        <ele>101</ele>
        <time>2025-11-16T11:39:57Z</time>
        <extensions>
          <gpxtpx:TrackPointExtension xmlns:gpxtpx="http://www.garmin.com/xmlschemas/TrackPointExtension/v1">
            <gpxtpx:hr>110</gpxtpx:hr>
          </gpxtpx:TrackPointExtension>
        </extensions>
      </trkpt>
      <trkpt lat="48.61227" lon="1.97143">
        <ele>101</ele>
        <time>2025-11-16T11:39:59Z</time>
        <extensions>
          <gpxtpx:TrackPointExtension xmlns:gpxtpx="http://www.garmin.com/xmlschemas/TrackPointExtension/v1">
            <gpxtpx:hr>110</gpxtpx:hr>
          </gpxtpx:TrackPointExtension>
        </extensions>
      </trkpt>
      <trkpt lat="48.61229" lon="1.97142">
        <ele>100.8</ele>
        <time>2025-11-16T11:40:01Z</time>
        <extensions>
          <gpxtpx:TrackPointExtension xmlns:gpxtpx="http://www.garmin.com/xmlschemas/TrackPointExtension/v1">
            <gpxtpx:hr>110</gpxtpx:hr>
          </gpxtpx:TrackPointExtension>
        </extensions>
      </trkpt>
      <trkpt lat="48.61232" lon="1.9714">
        <ele>100.8</ele>
        <time>2025-11-16T11:40:03Z</time>
        <extensions>
          <gpxtpx:TrackPointExtension xmlns:gpxtpx="http://www.garmin.com/xmlschemas/TrackPointExtension/v1">
            <gpxtpx:hr>110</gpxtpx:hr>
          </gpxtpx:TrackPointExtension>
        </extensions>
      </trkpt>
      <trkpt lat="48.61234" lon="1.97138">
        <ele>100.6</ele>
        <time>2025-11-16T11:40:05Z</time>
        <extensions>
          <gpxtpx:TrackPointExtension xmlns:gpxtpx="http://www.garmin.com/xmlschemas/TrackPointExtension/v1">
            <gpxtpx:hr>110</gpxtpx:hr>
          </gpxtpx:TrackPointExtension>
        </extensions>
      </trkpt>
      <trkpt lat="48.61237" lon="1.97136">
        <ele>100.6</ele>
        <time>2025-11-16T11:40:07Z</time>
        <extensions>
          <gpxtpx:TrackPointExtension xmlns:gpxtpx="http://www.garmin.com/xmlschemas/TrackPointExtension/v1">
            <gpxtpx:hr>110</gpxtpx:hr>
          </gpxtpx:TrackPointExtension>
        </extensions>
      </trkpt>
      <trkpt lat="48.6124" lon="1.97135">
        <ele>100.6</ele>
        <time>2025-11-16T11:40:09Z</time>
        <extensions>
          <gpxtpx:TrackPointExtension xmlns:gpxtpx="http://www.garmin.com/xmlschemas/TrackPointExtension/v1">
            <gpxtpx:hr>110</gpxtpx:hr>
          </gpxtpx:TrackPointExtension>
        </extensions>
      </trkpt>
      <trkpt lat="48.61242" lon="1.97134">
        <ele>100.8</ele>
        <time>2025-11-16T11:40:11Z</time>
        <extensions>
          <gpxtpx:TrackPointExtension xmlns:gpxtpx="http://www.garmin.com/xmlschemas/TrackPointExtension/v1">
            <gpxtpx:hr>110</gpxtpx:hr>
          </gpxtpx:TrackPointExtension>
        </extensions>
      </trkpt>
      <trkpt lat="48.61244" lon="1.97133">
        <ele>100.8</ele>
        <time>2025-11-16T11:40:13Z</time>
        <extensions>
          <gpxtpx:TrackPointExtension xmlns:gpxtpx="http://www.garmin.com/xmlschemas/TrackPointExtension/v1">
            <gpxtpx:hr>110</gpxtpx:hr>
          </gpxtpx:TrackPointExtension>
        </extensions>
      </trkpt>
      <trkpt lat="48.61247" lon="1.97131">
        <ele>101</ele>
        <time>2025-11-16T11:40:15Z</time>
        <extensions>
          <gpxtpx:TrackPointExtension xmlns:gpxtpx="http://www.garmin.com/xmlschemas/TrackPointExtension/v1">
            <gpxtpx:hr>110</gpxtpx:hr>
          </gpxtpx:TrackPointExtension>
        </extensions>
      </trkpt>
      <trkpt lat="48.61249" lon="1.9713">
        <ele>101.2</ele>
        <time>2025-11-16T11:40:17Z</time>
        <extensions>
          <gpxtpx:TrackPointExtension xmlns:gpxtpx="http://www.garmin.com/xmlschemas/TrackPointExtension/v1">
            <gpxtpx:hr>110</gpxtpx:hr>
          </gpxtpx:TrackPointExtension>
        </extensions>
      </trkpt>
      <trkpt lat="48.61251" lon="1.97129">
        <ele>101.4</ele>
        <time>2025-11-16T11:40:19Z</time>
        <extensions>
          <gpxtpx:TrackPointExtension xmlns:gpxtpx="http://www.garmin.com/xmlschemas/TrackPointExtension/v1">
            <gpxtpx:hr>110</gpxtpx:hr>
          </gpxtpx:TrackPointExtension>
        </extensions>
      </trkpt>
      <trkpt lat="48.61253" lon="1.97127">
        <ele>101.4</ele>
        <time>2025-11-16T11:40:21Z</time>
        <extensions>
          <gpxtpx:TrackPointExtension xmlns:gpxtpx="http://www.garmin.com/xmlschemas/TrackPointExtension/v1">
            <gpxtpx:hr>110</gpxtpx:hr>
          </gpxtpx:TrackPointExtension>
        </extensions>
      </trkpt>
      <trkpt lat="48.61256" lon="1.97126">
        <ele>101.6</ele>
        <time>2025-11-16T11:40:23Z</time>
        <extensions>
          <gpxtpx:TrackPointExtension xmlns:gpxtpx="http://www.garmin.com/xmlschemas/TrackPointExtension/v1">
            <gpxtpx:hr>110</gpxtpx:hr>
          </gpxtpx:TrackPointExtension>
        </extensions>
      </trkpt>
      <trkpt lat="48.61258" lon="1.97125">
        <ele>101.6</ele>
        <time>2025-11-16T11:40:25Z</time>
        <extensions>
          <gpxtpx:TrackPointExtension xmlns:gpxtpx="http://www.garmin.com/xmlschemas/TrackPointExtension/v1">
            <gpxtpx:hr>110</gpxtpx:hr>
          </gpxtpx:TrackPointExtension>
        </extensions>
      </trkpt>
      <trkpt lat="48.61261" lon="1.97125">
        <ele>101.6</ele>
        <time>2025-11-16T11:40:27Z</time>
        <extensions>
          <gpxtpx:TrackPointExtension xmlns:gpxtpx="http://www.garmin.com/xmlschemas/TrackPointExtension/v1">
            <gpxtpx:hr>110</gpxtpx:hr>
          </gpxtpx:TrackPointExtension>
        </extensions>
      </trkpt>
      <trkpt lat="48.61264" lon="1.97125">
        <ele>101.8</ele>
        <time>2025-11-16T11:40:29Z</time>
        <extensions>
          <gpxtpx:TrackPointExtension xmlns:gpxtpx="http://www.garmin.com/xmlschemas/TrackPointExtension/v1">
            <gpxtpx:hr>110</gpxtpx:hr>
          </gpxtpx:TrackPointExtension>
        </extensions>
      </trkpt>
      <trkpt lat="48.61268" lon="1.97126">
        <ele>102</ele>
        <time>2025-11-16T11:40:31Z</time>
        <extensions>
          <gpxtpx:TrackPointExtension xmlns:gpxtpx="http://www.garmin.com/xmlschemas/TrackPointExtension/v1">
            <gpxtpx:hr>110</gpxtpx:hr>
          </gpxtpx:TrackPointExtension>
        </extensions>
      </trkpt>
      <trkpt lat="48.61269" lon="1.97126">
        <ele>102.2</ele>
        <time>2025-11-16T11:40:32Z</time>
        <extensions>
          <gpxtpx:TrackPointExtension xmlns:gpxtpx="http://www.garmin.com/xmlschemas/TrackPointExtension/v1">
            <gpxtpx:hr>110</gpxtpx:hr>
          </gpxtpx:TrackPointExtension>
        </extensions>
      </trkpt>
      <trkpt lat="48.61273" lon="1.97128">
        <ele>102.4</ele>
        <time>2025-11-16T11:40:34Z</time>
        <extensions>
          <gpxtpx:TrackPointExtension xmlns:gpxtpx="http://www.garmin.com/xmlschemas/TrackPointExtension/v1">
            <gpxtpx:hr>110</gpxtpx:hr>
          </gpxtpx:TrackPointExtension>
        </extensions>
      </trkpt>
      <trkpt lat="48.61275" lon="1.97128">
        <ele>102.4</ele>
        <time>2025-11-16T11:40:35Z</time>
        <extensions>
          <gpxtpx:TrackPointExtension xmlns:gpxtpx="http://www.garmin.com/xmlschemas/TrackPointExtension/v1">
            <gpxtpx:hr>110</gpxtpx:hr>
          </gpxtpx:TrackPointExtension>
        </extensions>
      </trkpt>
      <trkpt lat="48.61278" lon="1.97128">
        <ele>102.6</ele>
        <time>2025-11-16T11:40:36Z</time>
        <extensions>
          <gpxtpx:TrackPointExtension xmlns:gpxtpx="http://www.garmin.com/xmlschemas/TrackPointExtension/v1">
            <gpxtpx:hr>110</gpxtpx:hr>
          </gpxtpx:TrackPointExtension>
        </extensions>
      </trkpt>
      <trkpt lat="48.6128" lon="1.97129">
        <ele>102.8</ele>
        <time>2025-11-16T11:40:37Z</time>
        <extensions>
          <gpxtpx:TrackPointExtension xmlns:gpxtpx="http://www.garmin.com/xmlschemas/TrackPointExtension/v1">
            <gpxtpx:hr>111</gpxtpx:hr>
          </gpxtpx:TrackPointExtension>
        </extensions>
      </trkpt>
      <trkpt lat="48.61282" lon="1.97129">
        <ele>102.8</ele>
        <time>2025-11-16T11:40:38Z</time>
        <extensions>
          <gpxtpx:TrackPointExtension xmlns:gpxtpx="http://www.garmin.com/xmlschemas/TrackPointExtension/v1">
            <gpxtpx:hr>111</gpxtpx:hr>
          </gpxtpx:TrackPointExtension>
        </extensions>
      </trkpt>
      <trkpt lat="48.61284" lon="1.97129">
        <ele>103</ele>
        <time>2025-11-16T11:40:39Z</time>
        <extensions>
          <gpxtpx:TrackPointExtension xmlns:gpxtpx="http://www.garmin.com/xmlschemas/TrackPointExtension/v1">
            <gpxtpx:hr>113</gpxtpx:hr>
          </gpxtpx:TrackPointExtension>
        </extensions>
      </trkpt>
      <trkpt lat="48.61286" lon="1.9713">
        <ele>103</ele>
        <time>2025-11-16T11:40:40Z</time>
        <extensions>
          <gpxtpx:TrackPointExtension xmlns:gpxtpx="http://www.garmin.com/xmlschemas/TrackPointExtension/v1">
            <gpxtpx:hr>114</gpxtpx:hr>
          </gpxtpx:TrackPointExtension>
        </extensions>
      </trkpt>
      <trkpt lat="48.6129" lon="1.97131">
        <ele>103.2</ele>
        <time>2025-11-16T11:40:42Z</time>
        <extensions>
          <gpxtpx:TrackPointExtension xmlns:gpxtpx="http://www.garmin.com/xmlschemas/TrackPointExtension/v1">
            <gpxtpx:hr>116</gpxtpx:hr>
          </gpxtpx:TrackPointExtension>
        </extensions>
      </trkpt>
      <trkpt lat="48.61292" lon="1.97132">
        <ele>103.2</ele>
        <time>2025-11-16T11:40:44Z</time>
        <extensions>
          <gpxtpx:TrackPointExtension xmlns:gpxtpx="http://www.garmin.com/xmlschemas/TrackPointExtension/v1">
            <gpxtpx:hr>116</gpxtpx:hr>
          </gpxtpx:TrackPointExtension>
        </extensions>
      </trkpt>
      <trkpt lat="48.61295" lon="1.97133">
        <ele>103.2</ele>
        <time>2025-11-16T11:40:46Z</time>
        <extensions>
          <gpxtpx:TrackPointExtension xmlns:gpxtpx="http://www.garmin.com/xmlschemas/TrackPointExtension/v1">
            <gpxtpx:hr>116</gpxtpx:hr>
          </gpxtpx:TrackPointExtension>
        </extensions>
      </trkpt>
      <trkpt lat="48.61298" lon="1.97133">
        <ele>103.2</ele>
        <time>2025-11-16T11:40:48Z</time>
        <extensions>
          <gpxtpx:TrackPointExtension xmlns:gpxtpx="http://www.garmin.com/xmlschemas/TrackPointExtension/v1">
            <gpxtpx:hr>115</gpxtpx:hr>
          </gpxtpx:TrackPointExtension>
        </extensions>
      </trkpt>
      <trkpt lat="48.61301" lon="1.97134">
        <ele>103.2</ele>
        <time>2025-11-16T11:40:50Z</time>
        <extensions>
          <gpxtpx:TrackPointExtension xmlns:gpxtpx="http://www.garmin.com/xmlschemas/TrackPointExtension/v1">
            <gpxtpx:hr>115</gpxtpx:hr>
          </gpxtpx:TrackPointExtension>
        </extensions>
      </trkpt>
      <trkpt lat="48.61304" lon="1.97134">
        <ele>103</ele>
        <time>2025-11-16T11:40:52Z</time>
        <extensions>
          <gpxtpx:TrackPointExtension xmlns:gpxtpx="http://www.garmin.com/xmlschemas/TrackPointExtension/v1">
            <gpxtpx:hr>115</gpxtpx:hr>
          </gpxtpx:TrackPointExtension>
        </extensions>
      </trkpt>
      <trkpt lat="48.61306" lon="1.97135">
        <ele>103</ele>
        <time>2025-11-16T11:40:53Z</time>
        <extensions>
          <gpxtpx:TrackPointExtension xmlns:gpxtpx="http://www.garmin.com/xmlschemas/TrackPointExtension/v1">
            <gpxtpx:hr>115</gpxtpx:hr>
          </gpxtpx:TrackPointExtension>
        </extensions>
      </trkpt>
      <trkpt lat="48.61309" lon="1.97135">
        <ele>102.8</ele>
        <time>2025-11-16T11:40:55Z</time>
        <extensions>
          <gpxtpx:TrackPointExtension xmlns:gpxtpx="http://www.garmin.com/xmlschemas/TrackPointExtension/v1">
            <gpxtpx:hr>115</gpxtpx:hr>
          </gpxtpx:TrackPointExtension>
        </extensions>
      </trkpt>
      <trkpt lat="48.61312" lon="1.97135">
        <ele>102.8</ele>
        <time>2025-11-16T11:40:57Z</time>
        <extensions>
          <gpxtpx:TrackPointExtension xmlns:gpxtpx="http://www.garmin.com/xmlschemas/TrackPointExtension/v1">
            <gpxtpx:hr>115</gpxtpx:hr>
          </gpxtpx:TrackPointExtension>
        </extensions>
      </trkpt>
      <trkpt lat="48.61314" lon="1.97136">
        <ele>102.6</ele>
        <time>2025-11-16T11:40:59Z</time>
        <extensions>
          <gpxtpx:TrackPointExtension xmlns:gpxtpx="http://www.garmin.com/xmlschemas/TrackPointExtension/v1">
            <gpxtpx:hr>115</gpxtpx:hr>
          </gpxtpx:TrackPointExtension>
        </extensions>
      </trkpt>
      <trkpt lat="48.61317" lon="1.97136">
        <ele>102.4</ele>
        <time>2025-11-16T11:41:01Z</time>
        <extensions>
          <gpxtpx:TrackPointExtension xmlns:gpxtpx="http://www.garmin.com/xmlschemas/TrackPointExtension/v1">
            <gpxtpx:hr>115</gpxtpx:hr>
          </gpxtpx:TrackPointExtension>
        </extensions>
      </trkpt>
      <trkpt lat="48.61321" lon="1.97137">
        <ele>102.2</ele>
        <time>2025-11-16T11:41:03Z</time>
        <extensions>
          <gpxtpx:TrackPointExtension xmlns:gpxtpx="http://www.garmin.com/xmlschemas/TrackPointExtension/v1">
            <gpxtpx:hr>115</gpxtpx:hr>
          </gpxtpx:TrackPointExtension>
        </extensions>
      </trkpt>
      <trkpt lat="48.61323" lon="1.97137">
        <ele>102.2</ele>
        <time>2025-11-16T11:41:04Z</time>
        <extensions>
          <gpxtpx:TrackPointExtension xmlns:gpxtpx="http://www.garmin.com/xmlschemas/TrackPointExtension/v1">
            <gpxtpx:hr>115</gpxtpx:hr>
          </gpxtpx:TrackPointExtension>
        </extensions>
      </trkpt>
      <trkpt lat="48.61326" lon="1.97138">
        <ele>102</ele>
        <time>2025-11-16T11:41:06Z</time>
        <extensions>
          <gpxtpx:TrackPointExtension xmlns:gpxtpx="http://www.garmin.com/xmlschemas/TrackPointExtension/v1">
            <gpxtpx:hr>115</gpxtpx:hr>
          </gpxtpx:TrackPointExtension>
        </extensions>
      </trkpt>
      <trkpt lat="48.61329" lon="1.97139">
        <ele>102</ele>
        <time>2025-11-16T11:41:08Z</time>
        <extensions>
          <gpxtpx:TrackPointExtension xmlns:gpxtpx="http://www.garmin.com/xmlschemas/TrackPointExtension/v1">
            <gpxtpx:hr>115</gpxtpx:hr>
          </gpxtpx:TrackPointExtension>
        </extensions>
      </trkpt>
      <trkpt lat="48.61331" lon="1.97139">
        <ele>101.8</ele>
        <time>2025-11-16T11:41:09Z</time>
        <extensions>
          <gpxtpx:TrackPointExtension xmlns:gpxtpx="http://www.garmin.com/xmlschemas/TrackPointExtension/v1">
            <gpxtpx:hr>115</gpxtpx:hr>
          </gpxtpx:TrackPointExtension>
        </extensions>
      </trkpt>
      <trkpt lat="48.61333" lon="1.97139">
        <ele>101.8</ele>
        <time>2025-11-16T11:41:10Z</time>
        <extensions>
          <gpxtpx:TrackPointExtension xmlns:gpxtpx="http://www.garmin.com/xmlschemas/TrackPointExtension/v1">
            <gpxtpx:hr>115</gpxtpx:hr>
          </gpxtpx:TrackPointExtension>
        </extensions>
      </trkpt>
      <trkpt lat="48.61337" lon="1.9714">
        <ele>101.8</ele>
        <time>2025-11-16T11:41:12Z</time>
        <extensions>
          <gpxtpx:TrackPointExtension xmlns:gpxtpx="http://www.garmin.com/xmlschemas/TrackPointExtension/v1">
            <gpxtpx:hr>115</gpxtpx:hr>
          </gpxtpx:TrackPointExtension>
        </extensions>
      </trkpt>
      <trkpt lat="48.61339" lon="1.97141">
        <ele>101.6</ele>
        <time>2025-11-16T11:41:13Z</time>
        <extensions>
          <gpxtpx:TrackPointExtension xmlns:gpxtpx="http://www.garmin.com/xmlschemas/TrackPointExtension/v1">
            <gpxtpx:hr>115</gpxtpx:hr>
          </gpxtpx:TrackPointExtension>
        </extensions>
      </trkpt>
      <trkpt lat="48.61342" lon="1.97141">
        <ele>101.6</ele>
        <time>2025-11-16T11:41:15Z</time>
        <extensions>
          <gpxtpx:TrackPointExtension xmlns:gpxtpx="http://www.garmin.com/xmlschemas/TrackPointExtension/v1">
            <gpxtpx:hr>115</gpxtpx:hr>
          </gpxtpx:TrackPointExtension>
        </extensions>
      </trkpt>
      <trkpt lat="48.61344" lon="1.97141">
        <ele>101.6</ele>
        <time>2025-11-16T11:41:16Z</time>
        <extensions>
          <gpxtpx:TrackPointExtension xmlns:gpxtpx="http://www.garmin.com/xmlschemas/TrackPointExtension/v1">
            <gpxtpx:hr>115</gpxtpx:hr>
          </gpxtpx:TrackPointExtension>
        </extensions>
      </trkpt>
      <trkpt lat="48.61347" lon="1.97142">
        <ele>101.4</ele>
        <time>2025-11-16T11:41:18Z</time>
        <extensions>
          <gpxtpx:TrackPointExtension xmlns:gpxtpx="http://www.garmin.com/xmlschemas/TrackPointExtension/v1">
            <gpxtpx:hr>115</gpxtpx:hr>
          </gpxtpx:TrackPointExtension>
        </extensions>
      </trkpt>
      <trkpt lat="48.61351" lon="1.97142">
        <ele>101.4</ele>
        <time>2025-11-16T11:41:20Z</time>
        <extensions>
          <gpxtpx:TrackPointExtension xmlns:gpxtpx="http://www.garmin.com/xmlschemas/TrackPointExtension/v1">
            <gpxtpx:hr>115</gpxtpx:hr>
          </gpxtpx:TrackPointExtension>
        </extensions>
      </trkpt>
      <trkpt lat="48.61353" lon="1.97143">
        <ele>101.2</ele>
        <time>2025-11-16T11:41:22Z</time>
        <extensions>
          <gpxtpx:TrackPointExtension xmlns:gpxtpx="http://www.garmin.com/xmlschemas/TrackPointExtension/v1">
            <gpxtpx:hr>116</gpxtpx:hr>
          </gpxtpx:TrackPointExtension>
        </extensions>
      </trkpt>
      <trkpt lat="48.61356" lon="1.97144">
        <ele>101.2</ele>
        <time>2025-11-16T11:41:24Z</time>
        <extensions>
          <gpxtpx:TrackPointExtension xmlns:gpxtpx="http://www.garmin.com/xmlschemas/TrackPointExtension/v1">
            <gpxtpx:hr>116</gpxtpx:hr>
          </gpxtpx:TrackPointExtension>
        </extensions>
      </trkpt>
      <trkpt lat="48.61359" lon="1.97145">
        <ele>101.4</ele>
        <time>2025-11-16T11:41:26Z</time>
        <extensions>
          <gpxtpx:TrackPointExtension xmlns:gpxtpx="http://www.garmin.com/xmlschemas/TrackPointExtension/v1">
            <gpxtpx:hr>116</gpxtpx:hr>
          </gpxtpx:TrackPointExtension>
        </extensions>
      </trkpt>
      <trkpt lat="48.61361" lon="1.97145">
        <ele>101.4</ele>
        <time>2025-11-16T11:41:27Z</time>
        <extensions>
          <gpxtpx:TrackPointExtension xmlns:gpxtpx="http://www.garmin.com/xmlschemas/TrackPointExtension/v1">
            <gpxtpx:hr>116</gpxtpx:hr>
          </gpxtpx:TrackPointExtension>
        </extensions>
      </trkpt>
      <trkpt lat="48.61363" lon="1.97145">
        <ele>101.4</ele>
        <time>2025-11-16T11:41:28Z</time>
        <extensions>
          <gpxtpx:TrackPointExtension xmlns:gpxtpx="http://www.garmin.com/xmlschemas/TrackPointExtension/v1">
            <gpxtpx:hr>116</gpxtpx:hr>
          </gpxtpx:TrackPointExtension>
        </extensions>
      </trkpt>
      <trkpt lat="48.61366" lon="1.97145">
        <ele>101.4</ele>
        <time>2025-11-16T11:41:30Z</time>
        <extensions>
          <gpxtpx:TrackPointExtension xmlns:gpxtpx="http://www.garmin.com/xmlschemas/TrackPointExtension/v1">
            <gpxtpx:hr>116</gpxtpx:hr>
          </gpxtpx:TrackPointExtension>
        </extensions>
      </trkpt>
      <trkpt lat="48.61369" lon="1.97144">
        <ele>101.6</ele>
        <time>2025-11-16T11:41:32Z</time>
        <extensions>
          <gpxtpx:TrackPointExtension xmlns:gpxtpx="http://www.garmin.com/xmlschemas/TrackPointExtension/v1">
            <gpxtpx:hr>116</gpxtpx:hr>
          </gpxtpx:TrackPointExtension>
        </extensions>
      </trkpt>
      <trkpt lat="48.61371" lon="1.97143">
        <ele>101.6</ele>
        <time>2025-11-16T11:41:34Z</time>
        <extensions>
          <gpxtpx:TrackPointExtension xmlns:gpxtpx="http://www.garmin.com/xmlschemas/TrackPointExtension/v1">
            <gpxtpx:hr>116</gpxtpx:hr>
          </gpxtpx:TrackPointExtension>
        </extensions>
      </trkpt>
      <trkpt lat="48.61373" lon="1.97142">
        <ele>101.6</ele>
        <time>2025-11-16T11:41:37Z</time>
        <extensions>
          <gpxtpx:TrackPointExtension xmlns:gpxtpx="http://www.garmin.com/xmlschemas/TrackPointExtension/v1">
            <gpxtpx:hr>116</gpxtpx:hr>
          </gpxtpx:TrackPointExtension>
        </extensions>
      </trkpt>
      <trkpt lat="48.61375" lon="1.97142">
        <ele>101.6</ele>
        <time>2025-11-16T11:41:39Z</time>
        <extensions>
          <gpxtpx:TrackPointExtension xmlns:gpxtpx="http://www.garmin.com/xmlschemas/TrackPointExtension/v1">
            <gpxtpx:hr>116</gpxtpx:hr>
          </gpxtpx:TrackPointExtension>
        </extensions>
      </trkpt>
      <trkpt lat="48.61377" lon="1.97141">
        <ele>101.6</ele>
        <time>2025-11-16T11:41:41Z</time>
        <extensions>
          <gpxtpx:TrackPointExtension xmlns:gpxtpx="http://www.garmin.com/xmlschemas/TrackPointExtension/v1">
            <gpxtpx:hr>116</gpxtpx:hr>
          </gpxtpx:TrackPointExtension>
        </extensions>
      </trkpt>
      <trkpt lat="48.6138" lon="1.9714">
        <ele>101.6</ele>
        <time>2025-11-16T11:41:43Z</time>
        <extensions>
          <gpxtpx:TrackPointExtension xmlns:gpxtpx="http://www.garmin.com/xmlschemas/TrackPointExtension/v1">
            <gpxtpx:hr>116</gpxtpx:hr>
          </gpxtpx:TrackPointExtension>
        </extensions>
      </trkpt>
      <trkpt lat="48.61383" lon="1.97139">
        <ele>101.6</ele>
        <time>2025-11-16T11:41:45Z</time>
        <extensions>
          <gpxtpx:TrackPointExtension xmlns:gpxtpx="http://www.garmin.com/xmlschemas/TrackPointExtension/v1">
            <gpxtpx:hr>116</gpxtpx:hr>
          </gpxtpx:TrackPointExtension>
        </extensions>
      </trkpt>
      <trkpt lat="48.61385" lon="1.97138">
        <ele>101.6</ele>
        <time>2025-11-16T11:41:46Z</time>
        <extensions>
          <gpxtpx:TrackPointExtension xmlns:gpxtpx="http://www.garmin.com/xmlschemas/TrackPointExtension/v1">
            <gpxtpx:hr>116</gpxtpx:hr>
          </gpxtpx:TrackPointExtension>
        </extensions>
      </trkpt>
      <trkpt lat="48.61389" lon="1.97136">
        <ele>101.8</ele>
        <time>2025-11-16T11:41:48Z</time>
        <extensions>
          <gpxtpx:TrackPointExtension xmlns:gpxtpx="http://www.garmin.com/xmlschemas/TrackPointExtension/v1">
            <gpxtpx:hr>116</gpxtpx:hr>
          </gpxtpx:TrackPointExtension>
        </extensions>
      </trkpt>
      <trkpt lat="48.6139" lon="1.97135">
        <ele>101.8</ele>
        <time>2025-11-16T11:41:49Z</time>
        <extensions>
          <gpxtpx:TrackPointExtension xmlns:gpxtpx="http://www.garmin.com/xmlschemas/TrackPointExtension/v1">
            <gpxtpx:hr>116</gpxtpx:hr>
          </gpxtpx:TrackPointExtension>
        </extensions>
      </trkpt>
      <trkpt lat="48.61393" lon="1.97132">
        <ele>102</ele>
        <time>2025-11-16T11:41:51Z</time>
        <extensions>
          <gpxtpx:TrackPointExtension xmlns:gpxtpx="http://www.garmin.com/xmlschemas/TrackPointExtension/v1">
            <gpxtpx:hr>116</gpxtpx:hr>
          </gpxtpx:TrackPointExtension>
        </extensions>
      </trkpt>
      <trkpt lat="48.61395" lon="1.97131">
        <ele>102</ele>
        <time>2025-11-16T11:41:52Z</time>
        <extensions>
          <gpxtpx:TrackPointExtension xmlns:gpxtpx="http://www.garmin.com/xmlschemas/TrackPointExtension/v1">
            <gpxtpx:hr>116</gpxtpx:hr>
          </gpxtpx:TrackPointExtension>
        </extensions>
      </trkpt>
      <trkpt lat="48.61396" lon="1.9713">
        <ele>102</ele>
        <time>2025-11-16T11:41:53Z</time>
        <extensions>
          <gpxtpx:TrackPointExtension xmlns:gpxtpx="http://www.garmin.com/xmlschemas/TrackPointExtension/v1">
            <gpxtpx:hr>116</gpxtpx:hr>
          </gpxtpx:TrackPointExtension>
        </extensions>
      </trkpt>
      <trkpt lat="48.61398" lon="1.97128">
        <ele>102.2</ele>
        <time>2025-11-16T11:41:54Z</time>
        <extensions>
          <gpxtpx:TrackPointExtension xmlns:gpxtpx="http://www.garmin.com/xmlschemas/TrackPointExtension/v1">
            <gpxtpx:hr>116</gpxtpx:hr>
          </gpxtpx:TrackPointExtension>
        </extensions>
      </trkpt>
      <trkpt lat="48.61401" lon="1.97124">
        <ele>102.6</ele>
        <time>2025-11-16T11:41:58Z</time>
        <extensions>
          <gpxtpx:TrackPointExtension xmlns:gpxtpx="http://www.garmin.com/xmlschemas/TrackPointExtension/v1">
            <gpxtpx:hr>116</gpxtpx:hr>
          </gpxtpx:TrackPointExtension>
        </extensions>
      </trkpt>
      <trkpt lat="48.61403" lon="1.97125">
        <ele>105.4</ele>
        <time>2025-11-16T11:42:22Z</time>
        <extensions>
          <gpxtpx:TrackPointExtension xmlns:gpxtpx="http://www.garmin.com/xmlschemas/TrackPointExtension/v1">
            <gpxtpx:hr>113</gpxtpx:hr>
          </gpxtpx:TrackPointExtension>
        </extensions>
      </trkpt>
      <trkpt lat="48.61404" lon="1.97123">
        <ele>105.8</ele>
        <time>2025-11-16T11:42:26Z</time>
        <extensions>
          <gpxtpx:TrackPointExtension xmlns:gpxtpx="http://www.garmin.com/xmlschemas/TrackPointExtension/v1">
            <gpxtpx:hr>113</gpxtpx:hr>
          </gpxtpx:TrackPointExtension>
        </extensions>
      </trkpt>
      <trkpt lat="48.61407" lon="1.9712">
        <ele>105.8</ele>
        <time>2025-11-16T11:42:28Z</time>
        <extensions>
          <gpxtpx:TrackPointExtension xmlns:gpxtpx="http://www.garmin.com/xmlschemas/TrackPointExtension/v1">
            <gpxtpx:hr>113</gpxtpx:hr>
          </gpxtpx:TrackPointExtension>
        </extensions>
      </trkpt>
      <trkpt lat="48.61408" lon="1.97118">
        <ele>105.8</ele>
        <time>2025-11-16T11:42:29Z</time>
        <extensions>
          <gpxtpx:TrackPointExtension xmlns:gpxtpx="http://www.garmin.com/xmlschemas/TrackPointExtension/v1">
            <gpxtpx:hr>113</gpxtpx:hr>
          </gpxtpx:TrackPointExtension>
        </extensions>
      </trkpt>
      <trkpt lat="48.6141" lon="1.97117">
        <ele>105.8</ele>
        <time>2025-11-16T11:42:30Z</time>
        <extensions>
          <gpxtpx:TrackPointExtension xmlns:gpxtpx="http://www.garmin.com/xmlschemas/TrackPointExtension/v1">
            <gpxtpx:hr>113</gpxtpx:hr>
          </gpxtpx:TrackPointExtension>
        </extensions>
      </trkpt>
      <trkpt lat="48.61412" lon="1.97115">
        <ele>105.8</ele>
        <time>2025-11-16T11:42:31Z</time>
        <extensions>
          <gpxtpx:TrackPointExtension xmlns:gpxtpx="http://www.garmin.com/xmlschemas/TrackPointExtension/v1">
            <gpxtpx:hr>113</gpxtpx:hr>
          </gpxtpx:TrackPointExtension>
        </extensions>
      </trkpt>
      <trkpt lat="48.61413" lon="1.97112">
        <ele>105.8</ele>
        <time>2025-11-16T11:42:32Z</time>
        <extensions>
          <gpxtpx:TrackPointExtension xmlns:gpxtpx="http://www.garmin.com/xmlschemas/TrackPointExtension/v1">
            <gpxtpx:hr>113</gpxtpx:hr>
          </gpxtpx:TrackPointExtension>
        </extensions>
      </trkpt>
      <trkpt lat="48.61416" lon="1.97109">
        <ele>105.8</ele>
        <time>2025-11-16T11:42:34Z</time>
        <extensions>
          <gpxtpx:TrackPointExtension xmlns:gpxtpx="http://www.garmin.com/xmlschemas/TrackPointExtension/v1">
            <gpxtpx:hr>113</gpxtpx:hr>
          </gpxtpx:TrackPointExtension>
        </extensions>
      </trkpt>
      <trkpt lat="48.61418" lon="1.97106">
        <ele>106</ele>
        <time>2025-11-16T11:42:36Z</time>
        <extensions>
          <gpxtpx:TrackPointExtension xmlns:gpxtpx="http://www.garmin.com/xmlschemas/TrackPointExtension/v1">
            <gpxtpx:hr>113</gpxtpx:hr>
          </gpxtpx:TrackPointExtension>
        </extensions>
      </trkpt>
      <trkpt lat="48.6142" lon="1.97103">
        <ele>106.2</ele>
        <time>2025-11-16T11:42:38Z</time>
        <extensions>
          <gpxtpx:TrackPointExtension xmlns:gpxtpx="http://www.garmin.com/xmlschemas/TrackPointExtension/v1">
            <gpxtpx:hr>114</gpxtpx:hr>
          </gpxtpx:TrackPointExtension>
        </extensions>
      </trkpt>
      <trkpt lat="48.61422" lon="1.971">
        <ele>106.6</ele>
        <time>2025-11-16T11:42:40Z</time>
        <extensions>
          <gpxtpx:TrackPointExtension xmlns:gpxtpx="http://www.garmin.com/xmlschemas/TrackPointExtension/v1">
            <gpxtpx:hr>115</gpxtpx:hr>
          </gpxtpx:TrackPointExtension>
        </extensions>
      </trkpt>
      <trkpt lat="48.61424" lon="1.97099">
        <ele>106.6</ele>
        <time>2025-11-16T11:42:41Z</time>
        <extensions>
          <gpxtpx:TrackPointExtension xmlns:gpxtpx="http://www.garmin.com/xmlschemas/TrackPointExtension/v1">
            <gpxtpx:hr>115</gpxtpx:hr>
          </gpxtpx:TrackPointExtension>
        </extensions>
      </trkpt>
      <trkpt lat="48.61427" lon="1.97095">
        <ele>106.8</ele>
        <time>2025-11-16T11:42:43Z</time>
        <extensions>
          <gpxtpx:TrackPointExtension xmlns:gpxtpx="http://www.garmin.com/xmlschemas/TrackPointExtension/v1">
            <gpxtpx:hr>115</gpxtpx:hr>
          </gpxtpx:TrackPointExtension>
        </extensions>
      </trkpt>
      <trkpt lat="48.61428" lon="1.97093">
        <ele>106.8</ele>
        <time>2025-11-16T11:42:44Z</time>
        <extensions>
          <gpxtpx:TrackPointExtension xmlns:gpxtpx="http://www.garmin.com/xmlschemas/TrackPointExtension/v1">
            <gpxtpx:hr>115</gpxtpx:hr>
          </gpxtpx:TrackPointExtension>
        </extensions>
      </trkpt>
      <trkpt lat="48.6143" lon="1.97092">
        <ele>106.8</ele>
        <time>2025-11-16T11:42:45Z</time>
        <extensions>
          <gpxtpx:TrackPointExtension xmlns:gpxtpx="http://www.garmin.com/xmlschemas/TrackPointExtension/v1">
            <gpxtpx:hr>116</gpxtpx:hr>
          </gpxtpx:TrackPointExtension>
        </extensions>
      </trkpt>
      <trkpt lat="48.61433" lon="1.97088">
        <ele>106.8</ele>
        <time>2025-11-16T11:42:47Z</time>
        <extensions>
          <gpxtpx:TrackPointExtension xmlns:gpxtpx="http://www.garmin.com/xmlschemas/TrackPointExtension/v1">
            <gpxtpx:hr>117</gpxtpx:hr>
          </gpxtpx:TrackPointExtension>
        </extensions>
      </trkpt>
      <trkpt lat="48.61435" lon="1.97085">
        <ele>107</ele>
        <time>2025-11-16T11:42:49Z</time>
        <extensions>
          <gpxtpx:TrackPointExtension xmlns:gpxtpx="http://www.garmin.com/xmlschemas/TrackPointExtension/v1">
            <gpxtpx:hr>118</gpxtpx:hr>
          </gpxtpx:TrackPointExtension>
        </extensions>
      </trkpt>
      <trkpt lat="48.61436" lon="1.97081">
        <ele>107.2</ele>
        <time>2025-11-16T11:42:51Z</time>
        <extensions>
          <gpxtpx:TrackPointExtension xmlns:gpxtpx="http://www.garmin.com/xmlschemas/TrackPointExtension/v1">
            <gpxtpx:hr>118</gpxtpx:hr>
          </gpxtpx:TrackPointExtension>
        </extensions>
      </trkpt>
      <trkpt lat="48.61438" lon="1.97077">
        <ele>107.4</ele>
        <time>2025-11-16T11:42:53Z</time>
        <extensions>
          <gpxtpx:TrackPointExtension xmlns:gpxtpx="http://www.garmin.com/xmlschemas/TrackPointExtension/v1">
            <gpxtpx:hr>118</gpxtpx:hr>
          </gpxtpx:TrackPointExtension>
        </extensions>
      </trkpt>
      <trkpt lat="48.61439" lon="1.97073">
        <ele>107.4</ele>
        <time>2025-11-16T11:42:55Z</time>
        <extensions>
          <gpxtpx:TrackPointExtension xmlns:gpxtpx="http://www.garmin.com/xmlschemas/TrackPointExtension/v1">
            <gpxtpx:hr>118</gpxtpx:hr>
          </gpxtpx:TrackPointExtension>
        </extensions>
      </trkpt>
      <trkpt lat="48.61441" lon="1.97069">
        <ele>107.6</ele>
        <time>2025-11-16T11:42:57Z</time>
        <extensions>
          <gpxtpx:TrackPointExtension xmlns:gpxtpx="http://www.garmin.com/xmlschemas/TrackPointExtension/v1">
            <gpxtpx:hr>118</gpxtpx:hr>
          </gpxtpx:TrackPointExtension>
        </extensions>
      </trkpt>
      <trkpt lat="48.61443" lon="1.97067">
        <ele>107.6</ele>
        <time>2025-11-16T11:42:58Z</time>
        <extensions>
          <gpxtpx:TrackPointExtension xmlns:gpxtpx="http://www.garmin.com/xmlschemas/TrackPointExtension/v1">
            <gpxtpx:hr>117</gpxtpx:hr>
          </gpxtpx:TrackPointExtension>
        </extensions>
      </trkpt>
      <trkpt lat="48.61444" lon="1.97063">
        <ele>107.6</ele>
        <time>2025-11-16T11:43:00Z</time>
        <extensions>
          <gpxtpx:TrackPointExtension xmlns:gpxtpx="http://www.garmin.com/xmlschemas/TrackPointExtension/v1">
            <gpxtpx:hr>117</gpxtpx:hr>
          </gpxtpx:TrackPointExtension>
        </extensions>
      </trkpt>
      <trkpt lat="48.61446" lon="1.97059">
        <ele>107.8</ele>
        <time>2025-11-16T11:43:02Z</time>
        <extensions>
          <gpxtpx:TrackPointExtension xmlns:gpxtpx="http://www.garmin.com/xmlschemas/TrackPointExtension/v1">
            <gpxtpx:hr>117</gpxtpx:hr>
          </gpxtpx:TrackPointExtension>
        </extensions>
      </trkpt>
      <trkpt lat="48.61448" lon="1.97055">
        <ele>107.8</ele>
        <time>2025-11-16T11:43:04Z</time>
        <extensions>
          <gpxtpx:TrackPointExtension xmlns:gpxtpx="http://www.garmin.com/xmlschemas/TrackPointExtension/v1">
            <gpxtpx:hr>117</gpxtpx:hr>
          </gpxtpx:TrackPointExtension>
        </extensions>
      </trkpt>
      <trkpt lat="48.6145" lon="1.97051">
        <ele>107.8</ele>
        <time>2025-11-16T11:43:06Z</time>
        <extensions>
          <gpxtpx:TrackPointExtension xmlns:gpxtpx="http://www.garmin.com/xmlschemas/TrackPointExtension/v1">
            <gpxtpx:hr>117</gpxtpx:hr>
          </gpxtpx:TrackPointExtension>
        </extensions>
      </trkpt>
      <trkpt lat="48.61452" lon="1.97048">
        <ele>107.8</ele>
        <time>2025-11-16T11:43:08Z</time>
        <extensions>
          <gpxtpx:TrackPointExtension xmlns:gpxtpx="http://www.garmin.com/xmlschemas/TrackPointExtension/v1">
            <gpxtpx:hr>117</gpxtpx:hr>
          </gpxtpx:TrackPointExtension>
        </extensions>
      </trkpt>
      <trkpt lat="48.61454" lon="1.97046">
        <ele>107.8</ele>
        <time>2025-11-16T11:43:09Z</time>
        <extensions>
          <gpxtpx:TrackPointExtension xmlns:gpxtpx="http://www.garmin.com/xmlschemas/TrackPointExtension/v1">
            <gpxtpx:hr>117</gpxtpx:hr>
          </gpxtpx:TrackPointExtension>
        </extensions>
      </trkpt>
      <trkpt lat="48.61457" lon="1.97043">
        <ele>107.8</ele>
        <time>2025-11-16T11:43:11Z</time>
        <extensions>
          <gpxtpx:TrackPointExtension xmlns:gpxtpx="http://www.garmin.com/xmlschemas/TrackPointExtension/v1">
            <gpxtpx:hr>117</gpxtpx:hr>
          </gpxtpx:TrackPointExtension>
        </extensions>
      </trkpt>
      <trkpt lat="48.61458" lon="1.97041">
        <ele>107.8</ele>
        <time>2025-11-16T11:43:12Z</time>
        <extensions>
          <gpxtpx:TrackPointExtension xmlns:gpxtpx="http://www.garmin.com/xmlschemas/TrackPointExtension/v1">
            <gpxtpx:hr>117</gpxtpx:hr>
          </gpxtpx:TrackPointExtension>
        </extensions>
      </trkpt>
      <trkpt lat="48.6146" lon="1.97039">
        <ele>107.8</ele>
        <time>2025-11-16T11:43:13Z</time>
        <extensions>
          <gpxtpx:TrackPointExtension xmlns:gpxtpx="http://www.garmin.com/xmlschemas/TrackPointExtension/v1">
            <gpxtpx:hr>118</gpxtpx:hr>
          </gpxtpx:TrackPointExtension>
        </extensions>
      </trkpt>
      <trkpt lat="48.61462" lon="1.97036">
        <ele>107.8</ele>
        <time>2025-11-16T11:43:15Z</time>
        <extensions>
          <gpxtpx:TrackPointExtension xmlns:gpxtpx="http://www.garmin.com/xmlschemas/TrackPointExtension/v1">
            <gpxtpx:hr>118</gpxtpx:hr>
          </gpxtpx:TrackPointExtension>
        </extensions>
      </trkpt>
      <trkpt lat="48.61464" lon="1.97034">
        <ele>107.8</ele>
        <time>2025-11-16T11:43:16Z</time>
        <extensions>
          <gpxtpx:TrackPointExtension xmlns:gpxtpx="http://www.garmin.com/xmlschemas/TrackPointExtension/v1">
            <gpxtpx:hr>120</gpxtpx:hr>
          </gpxtpx:TrackPointExtension>
        </extensions>
      </trkpt>
      <trkpt lat="48.61466" lon="1.97033">
        <ele>107.8</ele>
        <time>2025-11-16T11:43:17Z</time>
        <extensions>
          <gpxtpx:TrackPointExtension xmlns:gpxtpx="http://www.garmin.com/xmlschemas/TrackPointExtension/v1">
            <gpxtpx:hr>121</gpxtpx:hr>
          </gpxtpx:TrackPointExtension>
        </extensions>
      </trkpt>
      <trkpt lat="48.61468" lon="1.9703">
        <ele>108</ele>
        <time>2025-11-16T11:43:19Z</time>
        <extensions>
          <gpxtpx:TrackPointExtension xmlns:gpxtpx="http://www.garmin.com/xmlschemas/TrackPointExtension/v1">
            <gpxtpx:hr>122</gpxtpx:hr>
          </gpxtpx:TrackPointExtension>
        </extensions>
      </trkpt>
      <trkpt lat="48.6147" lon="1.97028">
        <ele>108.2</ele>
        <time>2025-11-16T11:43:20Z</time>
        <extensions>
          <gpxtpx:TrackPointExtension xmlns:gpxtpx="http://www.garmin.com/xmlschemas/TrackPointExtension/v1">
            <gpxtpx:hr>122</gpxtpx:hr>
          </gpxtpx:TrackPointExtension>
        </extensions>
      </trkpt>
      <trkpt lat="48.61472" lon="1.97025">
        <ele>108.2</ele>
        <time>2025-11-16T11:43:22Z</time>
        <extensions>
          <gpxtpx:TrackPointExtension xmlns:gpxtpx="http://www.garmin.com/xmlschemas/TrackPointExtension/v1">
            <gpxtpx:hr>122</gpxtpx:hr>
          </gpxtpx:TrackPointExtension>
        </extensions>
      </trkpt>
      <trkpt lat="48.61475" lon="1.97022">
        <ele>108.2</ele>
        <time>2025-11-16T11:43:24Z</time>
        <extensions>
          <gpxtpx:TrackPointExtension xmlns:gpxtpx="http://www.garmin.com/xmlschemas/TrackPointExtension/v1">
            <gpxtpx:hr>122</gpxtpx:hr>
          </gpxtpx:TrackPointExtension>
        </extensions>
      </trkpt>
      <trkpt lat="48.61476" lon="1.9702">
        <ele>108.2</ele>
        <time>2025-11-16T11:43:25Z</time>
        <extensions>
          <gpxtpx:TrackPointExtension xmlns:gpxtpx="http://www.garmin.com/xmlschemas/TrackPointExtension/v1">
            <gpxtpx:hr>122</gpxtpx:hr>
          </gpxtpx:TrackPointExtension>
        </extensions>
      </trkpt>
      <trkpt lat="48.61478" lon="1.97018">
        <ele>108</ele>
        <time>2025-11-16T11:43:26Z</time>
        <extensions>
          <gpxtpx:TrackPointExtension xmlns:gpxtpx="http://www.garmin.com/xmlschemas/TrackPointExtension/v1">
            <gpxtpx:hr>122</gpxtpx:hr>
          </gpxtpx:TrackPointExtension>
        </extensions>
      </trkpt>
      <trkpt lat="48.6148" lon="1.97017">
        <ele>108</ele>
        <time>2025-11-16T11:43:27Z</time>
        <extensions>
          <gpxtpx:TrackPointExtension xmlns:gpxtpx="http://www.garmin.com/xmlschemas/TrackPointExtension/v1">
            <gpxtpx:hr>122</gpxtpx:hr>
          </gpxtpx:TrackPointExtension>
        </extensions>
      </trkpt>
      <trkpt lat="48.61482" lon="1.97014">
        <ele>108</ele>
        <time>2025-11-16T11:43:29Z</time>
        <extensions>
          <gpxtpx:TrackPointExtension xmlns:gpxtpx="http://www.garmin.com/xmlschemas/TrackPointExtension/v1">
            <gpxtpx:hr>122</gpxtpx:hr>
          </gpxtpx:TrackPointExtension>
        </extensions>
      </trkpt>
      <trkpt lat="48.61484" lon="1.97012">
        <ele>108</ele>
        <time>2025-11-16T11:43:31Z</time>
        <extensions>
          <gpxtpx:TrackPointExtension xmlns:gpxtpx="http://www.garmin.com/xmlschemas/TrackPointExtension/v1">
            <gpxtpx:hr>122</gpxtpx:hr>
          </gpxtpx:TrackPointExtension>
        </extensions>
      </trkpt>
      <trkpt lat="48.61486" lon="1.97009">
        <ele>108</ele>
        <time>2025-11-16T11:43:33Z</time>
        <extensions>
          <gpxtpx:TrackPointExtension xmlns:gpxtpx="http://www.garmin.com/xmlschemas/TrackPointExtension/v1">
            <gpxtpx:hr>122</gpxtpx:hr>
          </gpxtpx:TrackPointExtension>
        </extensions>
      </trkpt>
      <trkpt lat="48.61488" lon="1.97006">
        <ele>108</ele>
        <time>2025-11-16T11:43:35Z</time>
        <extensions>
          <gpxtpx:TrackPointExtension xmlns:gpxtpx="http://www.garmin.com/xmlschemas/TrackPointExtension/v1">
            <gpxtpx:hr>122</gpxtpx:hr>
          </gpxtpx:TrackPointExtension>
        </extensions>
      </trkpt>
      <trkpt lat="48.61491" lon="1.97003">
        <ele>108</ele>
        <time>2025-11-16T11:43:37Z</time>
        <extensions>
          <gpxtpx:TrackPointExtension xmlns:gpxtpx="http://www.garmin.com/xmlschemas/TrackPointExtension/v1">
            <gpxtpx:hr>122</gpxtpx:hr>
          </gpxtpx:TrackPointExtension>
        </extensions>
      </trkpt>
      <trkpt lat="48.61493" lon="1.97001">
        <ele>108</ele>
        <time>2025-11-16T11:43:39Z</time>
        <extensions>
          <gpxtpx:TrackPointExtension xmlns:gpxtpx="http://www.garmin.com/xmlschemas/TrackPointExtension/v1">
            <gpxtpx:hr>122</gpxtpx:hr>
          </gpxtpx:TrackPointExtension>
        </extensions>
      </trkpt>
      <trkpt lat="48.61496" lon="1.96999">
        <ele>108</ele>
        <time>2025-11-16T11:43:41Z</time>
        <extensions>
          <gpxtpx:TrackPointExtension xmlns:gpxtpx="http://www.garmin.com/xmlschemas/TrackPointExtension/v1">
            <gpxtpx:hr>122</gpxtpx:hr>
          </gpxtpx:TrackPointExtension>
        </extensions>
      </trkpt>
      <trkpt lat="48.61498" lon="1.96998">
        <ele>108</ele>
        <time>2025-11-16T11:43:43Z</time>
        <extensions>
          <gpxtpx:TrackPointExtension xmlns:gpxtpx="http://www.garmin.com/xmlschemas/TrackPointExtension/v1">
            <gpxtpx:hr>122</gpxtpx:hr>
          </gpxtpx:TrackPointExtension>
        </extensions>
      </trkpt>
      <trkpt lat="48.615" lon="1.96997">
        <ele>108.2</ele>
        <time>2025-11-16T11:43:45Z</time>
        <extensions>
          <gpxtpx:TrackPointExtension xmlns:gpxtpx="http://www.garmin.com/xmlschemas/TrackPointExtension/v1">
            <gpxtpx:hr>121</gpxtpx:hr>
          </gpxtpx:TrackPointExtension>
        </extensions>
      </trkpt>
      <trkpt lat="48.61503" lon="1.96996">
        <ele>108.4</ele>
        <time>2025-11-16T11:43:47Z</time>
        <extensions>
          <gpxtpx:TrackPointExtension xmlns:gpxtpx="http://www.garmin.com/xmlschemas/TrackPointExtension/v1">
            <gpxtpx:hr>121</gpxtpx:hr>
          </gpxtpx:TrackPointExtension>
        </extensions>
      </trkpt>
      <trkpt lat="48.61506" lon="1.96994">
        <ele>108.6</ele>
        <time>2025-11-16T11:43:49Z</time>
        <extensions>
          <gpxtpx:TrackPointExtension xmlns:gpxtpx="http://www.garmin.com/xmlschemas/TrackPointExtension/v1">
            <gpxtpx:hr>121</gpxtpx:hr>
          </gpxtpx:TrackPointExtension>
        </extensions>
      </trkpt>
      <trkpt lat="48.61508" lon="1.96993">
        <ele>108.6</ele>
        <time>2025-11-16T11:43:51Z</time>
        <extensions>
          <gpxtpx:TrackPointExtension xmlns:gpxtpx="http://www.garmin.com/xmlschemas/TrackPointExtension/v1">
            <gpxtpx:hr>121</gpxtpx:hr>
          </gpxtpx:TrackPointExtension>
        </extensions>
      </trkpt>
      <trkpt lat="48.61511" lon="1.96992">
        <ele>108.6</ele>
        <time>2025-11-16T11:43:53Z</time>
        <extensions>
          <gpxtpx:TrackPointExtension xmlns:gpxtpx="http://www.garmin.com/xmlschemas/TrackPointExtension/v1">
            <gpxtpx:hr>121</gpxtpx:hr>
          </gpxtpx:TrackPointExtension>
        </extensions>
      </trkpt>
      <trkpt lat="48.61514" lon="1.9699">
        <ele>108.8</ele>
        <time>2025-11-16T11:43:55Z</time>
        <extensions>
          <gpxtpx:TrackPointExtension xmlns:gpxtpx="http://www.garmin.com/xmlschemas/TrackPointExtension/v1">
            <gpxtpx:hr>120</gpxtpx:hr>
          </gpxtpx:TrackPointExtension>
        </extensions>
      </trkpt>
      <trkpt lat="48.61516" lon="1.96989">
        <ele>108.8</ele>
        <time>2025-11-16T11:43:57Z</time>
        <extensions>
          <gpxtpx:TrackPointExtension xmlns:gpxtpx="http://www.garmin.com/xmlschemas/TrackPointExtension/v1">
            <gpxtpx:hr>120</gpxtpx:hr>
          </gpxtpx:TrackPointExtension>
        </extensions>
      </trkpt>
      <trkpt lat="48.61517" lon="1.96987">
        <ele>108.8</ele>
        <time>2025-11-16T11:43:59Z</time>
        <extensions>
          <gpxtpx:TrackPointExtension xmlns:gpxtpx="http://www.garmin.com/xmlschemas/TrackPointExtension/v1">
            <gpxtpx:hr>120</gpxtpx:hr>
          </gpxtpx:TrackPointExtension>
        </extensions>
      </trkpt>
      <trkpt lat="48.6152" lon="1.96985">
        <ele>108.6</ele>
        <time>2025-11-16T11:44:02Z</time>
        <extensions>
          <gpxtpx:TrackPointExtension xmlns:gpxtpx="http://www.garmin.com/xmlschemas/TrackPointExtension/v1">
            <gpxtpx:hr>120</gpxtpx:hr>
          </gpxtpx:TrackPointExtension>
        </extensions>
      </trkpt>
      <trkpt lat="48.61522" lon="1.96985">
        <ele>108.6</ele>
        <time>2025-11-16T11:44:04Z</time>
        <extensions>
          <gpxtpx:TrackPointExtension xmlns:gpxtpx="http://www.garmin.com/xmlschemas/TrackPointExtension/v1">
            <gpxtpx:hr>120</gpxtpx:hr>
          </gpxtpx:TrackPointExtension>
        </extensions>
      </trkpt>
      <trkpt lat="48.61524" lon="1.96984">
        <ele>108.4</ele>
        <time>2025-11-16T11:44:06Z</time>
        <extensions>
          <gpxtpx:TrackPointExtension xmlns:gpxtpx="http://www.garmin.com/xmlschemas/TrackPointExtension/v1">
            <gpxtpx:hr>120</gpxtpx:hr>
          </gpxtpx:TrackPointExtension>
        </extensions>
      </trkpt>
      <trkpt lat="48.61527" lon="1.96984">
        <ele>108.4</ele>
        <time>2025-11-16T11:44:08Z</time>
        <extensions>
          <gpxtpx:TrackPointExtension xmlns:gpxtpx="http://www.garmin.com/xmlschemas/TrackPointExtension/v1">
            <gpxtpx:hr>120</gpxtpx:hr>
          </gpxtpx:TrackPointExtension>
        </extensions>
      </trkpt>
      <trkpt lat="48.6153" lon="1.96983">
        <ele>108.4</ele>
        <time>2025-11-16T11:44:10Z</time>
        <extensions>
          <gpxtpx:TrackPointExtension xmlns:gpxtpx="http://www.garmin.com/xmlschemas/TrackPointExtension/v1">
            <gpxtpx:hr>120</gpxtpx:hr>
          </gpxtpx:TrackPointExtension>
        </extensions>
      </trkpt>
      <trkpt lat="48.61532" lon="1.96982">
        <ele>108.4</ele>
        <time>2025-11-16T11:44:12Z</time>
        <extensions>
          <gpxtpx:TrackPointExtension xmlns:gpxtpx="http://www.garmin.com/xmlschemas/TrackPointExtension/v1">
            <gpxtpx:hr>120</gpxtpx:hr>
          </gpxtpx:TrackPointExtension>
        </extensions>
      </trkpt>
      <trkpt lat="48.61535" lon="1.96981">
        <ele>108.4</ele>
        <time>2025-11-16T11:44:14Z</time>
      </trkpt>
      <trkpt lat="48.61538" lon="1.9698">
        <ele>108.4</ele>
        <time>2025-11-16T11:44:16Z</time>
        <extensions>
          <gpxtpx:TrackPointExtension xmlns:gpxtpx="http://www.garmin.com/xmlschemas/TrackPointExtension/v1">
            <gpxtpx:hr>119</gpxtpx:hr>
          </gpxtpx:TrackPointExtension>
        </extensions>
      </trkpt>
      <trkpt lat="48.61541" lon="1.96979">
        <ele>108.6</ele>
        <time>2025-11-16T11:44:18Z</time>
        <extensions>
          <gpxtpx:TrackPointExtension xmlns:gpxtpx="http://www.garmin.com/xmlschemas/TrackPointExtension/v1">
            <gpxtpx:hr>119</gpxtpx:hr>
          </gpxtpx:TrackPointExtension>
        </extensions>
      </trkpt>
      <trkpt lat="48.61543" lon="1.96978">
        <ele>108.8</ele>
        <time>2025-11-16T11:44:19Z</time>
        <extensions>
          <gpxtpx:TrackPointExtension xmlns:gpxtpx="http://www.garmin.com/xmlschemas/TrackPointExtension/v1">
            <gpxtpx:hr>119</gpxtpx:hr>
          </gpxtpx:TrackPointExtension>
        </extensions>
      </trkpt>
      <trkpt lat="48.61546" lon="1.96978">
        <ele>108.8</ele>
        <time>2025-11-16T11:44:20Z</time>
        <extensions>
          <gpxtpx:TrackPointExtension xmlns:gpxtpx="http://www.garmin.com/xmlschemas/TrackPointExtension/v1">
            <gpxtpx:hr>119</gpxtpx:hr>
          </gpxtpx:TrackPointExtension>
        </extensions>
      </trkpt>
      <trkpt lat="48.61548" lon="1.96978">
        <ele>109</ele>
        <time>2025-11-16T11:44:21Z</time>
        <extensions>
          <gpxtpx:TrackPointExtension xmlns:gpxtpx="http://www.garmin.com/xmlschemas/TrackPointExtension/v1">
            <gpxtpx:hr>119</gpxtpx:hr>
          </gpxtpx:TrackPointExtension>
        </extensions>
      </trkpt>
      <trkpt lat="48.6155" lon="1.96978">
        <ele>109</ele>
        <time>2025-11-16T11:44:22Z</time>
        <extensions>
          <gpxtpx:TrackPointExtension xmlns:gpxtpx="http://www.garmin.com/xmlschemas/TrackPointExtension/v1">
            <gpxtpx:hr>119</gpxtpx:hr>
          </gpxtpx:TrackPointExtension>
        </extensions>
      </trkpt>
      <trkpt lat="48.61552" lon="1.96978">
        <ele>109.2</ele>
        <time>2025-11-16T11:44:23Z</time>
        <extensions>
          <gpxtpx:TrackPointExtension xmlns:gpxtpx="http://www.garmin.com/xmlschemas/TrackPointExtension/v1">
            <gpxtpx:hr>119</gpxtpx:hr>
          </gpxtpx:TrackPointExtension>
        </extensions>
      </trkpt>
      <trkpt lat="48.61554" lon="1.96978">
        <ele>109.2</ele>
        <time>2025-11-16T11:44:24Z</time>
        <extensions>
          <gpxtpx:TrackPointExtension xmlns:gpxtpx="http://www.garmin.com/xmlschemas/TrackPointExtension/v1">
            <gpxtpx:hr>119</gpxtpx:hr>
          </gpxtpx:TrackPointExtension>
        </extensions>
      </trkpt>
      <trkpt lat="48.61557" lon="1.96979">
        <ele>109.2</ele>
        <time>2025-11-16T11:44:26Z</time>
        <extensions>
          <gpxtpx:TrackPointExtension xmlns:gpxtpx="http://www.garmin.com/xmlschemas/TrackPointExtension/v1">
            <gpxtpx:hr>119</gpxtpx:hr>
          </gpxtpx:TrackPointExtension>
        </extensions>
      </trkpt>
      <trkpt lat="48.6156" lon="1.96979">
        <ele>109.4</ele>
        <time>2025-11-16T11:44:28Z</time>
        <extensions>
          <gpxtpx:TrackPointExtension xmlns:gpxtpx="http://www.garmin.com/xmlschemas/TrackPointExtension/v1">
            <gpxtpx:hr>119</gpxtpx:hr>
          </gpxtpx:TrackPointExtension>
        </extensions>
      </trkpt>
      <trkpt lat="48.61562" lon="1.96978">
        <ele>109.4</ele>
        <time>2025-11-16T11:44:30Z</time>
        <extensions>
          <gpxtpx:TrackPointExtension xmlns:gpxtpx="http://www.garmin.com/xmlschemas/TrackPointExtension/v1">
            <gpxtpx:hr>119</gpxtpx:hr>
          </gpxtpx:TrackPointExtension>
        </extensions>
      </trkpt>
      <trkpt lat="48.61565" lon="1.96978">
        <ele>109.6</ele>
        <time>2025-11-16T11:44:32Z</time>
        <extensions>
          <gpxtpx:TrackPointExtension xmlns:gpxtpx="http://www.garmin.com/xmlschemas/TrackPointExtension/v1">
            <gpxtpx:hr>119</gpxtpx:hr>
          </gpxtpx:TrackPointExtension>
        </extensions>
      </trkpt>
      <trkpt lat="48.61568" lon="1.96977">
        <ele>109.8</ele>
        <time>2025-11-16T11:44:34Z</time>
        <extensions>
          <gpxtpx:TrackPointExtension xmlns:gpxtpx="http://www.garmin.com/xmlschemas/TrackPointExtension/v1">
            <gpxtpx:hr>119</gpxtpx:hr>
          </gpxtpx:TrackPointExtension>
        </extensions>
      </trkpt>
      <trkpt lat="48.61572" lon="1.96976">
        <ele>109.8</ele>
        <time>2025-11-16T11:44:36Z</time>
        <extensions>
          <gpxtpx:TrackPointExtension xmlns:gpxtpx="http://www.garmin.com/xmlschemas/TrackPointExtension/v1">
            <gpxtpx:hr>119</gpxtpx:hr>
          </gpxtpx:TrackPointExtension>
        </extensions>
      </trkpt>
      <trkpt lat="48.61574" lon="1.96975">
        <ele>110</ele>
        <time>2025-11-16T11:44:38Z</time>
        <extensions>
          <gpxtpx:TrackPointExtension xmlns:gpxtpx="http://www.garmin.com/xmlschemas/TrackPointExtension/v1">
            <gpxtpx:hr>118</gpxtpx:hr>
          </gpxtpx:TrackPointExtension>
        </extensions>
      </trkpt>
      <trkpt lat="48.61577" lon="1.96974">
        <ele>110</ele>
        <time>2025-11-16T11:44:40Z</time>
        <extensions>
          <gpxtpx:TrackPointExtension xmlns:gpxtpx="http://www.garmin.com/xmlschemas/TrackPointExtension/v1">
            <gpxtpx:hr>118</gpxtpx:hr>
          </gpxtpx:TrackPointExtension>
        </extensions>
      </trkpt>
      <trkpt lat="48.6158" lon="1.96973">
        <ele>110.2</ele>
        <time>2025-11-16T11:44:42Z</time>
        <extensions>
          <gpxtpx:TrackPointExtension xmlns:gpxtpx="http://www.garmin.com/xmlschemas/TrackPointExtension/v1">
            <gpxtpx:hr>118</gpxtpx:hr>
          </gpxtpx:TrackPointExtension>
        </extensions>
      </trkpt>
      <trkpt lat="48.61583" lon="1.96973">
        <ele>110.2</ele>
        <time>2025-11-16T11:44:44Z</time>
        <extensions>
          <gpxtpx:TrackPointExtension xmlns:gpxtpx="http://www.garmin.com/xmlschemas/TrackPointExtension/v1">
            <gpxtpx:hr>118</gpxtpx:hr>
          </gpxtpx:TrackPointExtension>
        </extensions>
      </trkpt>
      <trkpt lat="48.61586" lon="1.96972">
        <ele>110.2</ele>
        <time>2025-11-16T11:44:46Z</time>
        <extensions>
          <gpxtpx:TrackPointExtension xmlns:gpxtpx="http://www.garmin.com/xmlschemas/TrackPointExtension/v1">
            <gpxtpx:hr>118</gpxtpx:hr>
          </gpxtpx:TrackPointExtension>
        </extensions>
      </trkpt>
      <trkpt lat="48.61588" lon="1.96972">
        <ele>110</ele>
        <time>2025-11-16T11:44:48Z</time>
        <extensions>
          <gpxtpx:TrackPointExtension xmlns:gpxtpx="http://www.garmin.com/xmlschemas/TrackPointExtension/v1">
            <gpxtpx:hr>117</gpxtpx:hr>
          </gpxtpx:TrackPointExtension>
        </extensions>
      </trkpt>
      <trkpt lat="48.61591" lon="1.96972">
        <ele>110</ele>
        <time>2025-11-16T11:44:50Z</time>
        <extensions>
          <gpxtpx:TrackPointExtension xmlns:gpxtpx="http://www.garmin.com/xmlschemas/TrackPointExtension/v1">
            <gpxtpx:hr>117</gpxtpx:hr>
          </gpxtpx:TrackPointExtension>
        </extensions>
      </trkpt>
      <trkpt lat="48.61593" lon="1.96972">
        <ele>109.8</ele>
        <time>2025-11-16T11:44:52Z</time>
        <extensions>
          <gpxtpx:TrackPointExtension xmlns:gpxtpx="http://www.garmin.com/xmlschemas/TrackPointExtension/v1">
            <gpxtpx:hr>117</gpxtpx:hr>
          </gpxtpx:TrackPointExtension>
        </extensions>
      </trkpt>
      <trkpt lat="48.61596" lon="1.96973">
        <ele>109.8</ele>
        <time>2025-11-16T11:44:54Z</time>
        <extensions>
          <gpxtpx:TrackPointExtension xmlns:gpxtpx="http://www.garmin.com/xmlschemas/TrackPointExtension/v1">
            <gpxtpx:hr>117</gpxtpx:hr>
          </gpxtpx:TrackPointExtension>
        </extensions>
      </trkpt>
      <trkpt lat="48.61598" lon="1.96973">
        <ele>109.4</ele>
        <time>2025-11-16T11:44:56Z</time>
        <extensions>
          <gpxtpx:TrackPointExtension xmlns:gpxtpx="http://www.garmin.com/xmlschemas/TrackPointExtension/v1">
            <gpxtpx:hr>117</gpxtpx:hr>
          </gpxtpx:TrackPointExtension>
        </extensions>
      </trkpt>
      <trkpt lat="48.616" lon="1.96974">
        <ele>109.4</ele>
        <time>2025-11-16T11:44:58Z</time>
        <extensions>
          <gpxtpx:TrackPointExtension xmlns:gpxtpx="http://www.garmin.com/xmlschemas/TrackPointExtension/v1">
            <gpxtpx:hr>117</gpxtpx:hr>
          </gpxtpx:TrackPointExtension>
        </extensions>
      </trkpt>
      <trkpt lat="48.61602" lon="1.96975">
        <ele>109.2</ele>
        <time>2025-11-16T11:45:00Z</time>
        <extensions>
          <gpxtpx:TrackPointExtension xmlns:gpxtpx="http://www.garmin.com/xmlschemas/TrackPointExtension/v1">
            <gpxtpx:hr>117</gpxtpx:hr>
          </gpxtpx:TrackPointExtension>
        </extensions>
      </trkpt>
      <trkpt lat="48.61605" lon="1.96975">
        <ele>109</ele>
        <time>2025-11-16T11:45:02Z</time>
        <extensions>
          <gpxtpx:TrackPointExtension xmlns:gpxtpx="http://www.garmin.com/xmlschemas/TrackPointExtension/v1">
            <gpxtpx:hr>118</gpxtpx:hr>
          </gpxtpx:TrackPointExtension>
        </extensions>
      </trkpt>
      <trkpt lat="48.61607" lon="1.96975">
        <ele>109</ele>
        <time>2025-11-16T11:45:03Z</time>
        <extensions>
          <gpxtpx:TrackPointExtension xmlns:gpxtpx="http://www.garmin.com/xmlschemas/TrackPointExtension/v1">
            <gpxtpx:hr>118</gpxtpx:hr>
          </gpxtpx:TrackPointExtension>
        </extensions>
      </trkpt>
      <trkpt lat="48.61609" lon="1.96975">
        <ele>109</ele>
        <time>2025-11-16T11:45:04Z</time>
        <extensions>
          <gpxtpx:TrackPointExtension xmlns:gpxtpx="http://www.garmin.com/xmlschemas/TrackPointExtension/v1">
            <gpxtpx:hr>117</gpxtpx:hr>
          </gpxtpx:TrackPointExtension>
        </extensions>
      </trkpt>
      <trkpt lat="48.61612" lon="1.96975">
        <ele>109</ele>
        <time>2025-11-16T11:45:05Z</time>
        <extensions>
          <gpxtpx:TrackPointExtension xmlns:gpxtpx="http://www.garmin.com/xmlschemas/TrackPointExtension/v1">
            <gpxtpx:hr>117</gpxtpx:hr>
          </gpxtpx:TrackPointExtension>
        </extensions>
      </trkpt>
      <trkpt lat="48.61614" lon="1.96975">
        <ele>109</ele>
        <time>2025-11-16T11:45:06Z</time>
        <extensions>
          <gpxtpx:TrackPointExtension xmlns:gpxtpx="http://www.garmin.com/xmlschemas/TrackPointExtension/v1">
            <gpxtpx:hr>118</gpxtpx:hr>
          </gpxtpx:TrackPointExtension>
        </extensions>
      </trkpt>
      <trkpt lat="48.61617" lon="1.96975">
        <ele>109</ele>
        <time>2025-11-16T11:45:07Z</time>
        <extensions>
          <gpxtpx:TrackPointExtension xmlns:gpxtpx="http://www.garmin.com/xmlschemas/TrackPointExtension/v1">
            <gpxtpx:hr>118</gpxtpx:hr>
          </gpxtpx:TrackPointExtension>
        </extensions>
      </trkpt>
      <trkpt lat="48.6162" lon="1.96975">
        <ele>109</ele>
        <time>2025-11-16T11:45:08Z</time>
        <extensions>
          <gpxtpx:TrackPointExtension xmlns:gpxtpx="http://www.garmin.com/xmlschemas/TrackPointExtension/v1">
            <gpxtpx:hr>119</gpxtpx:hr>
          </gpxtpx:TrackPointExtension>
        </extensions>
      </trkpt>
      <trkpt lat="48.61623" lon="1.96975">
        <ele>109</ele>
        <time>2025-11-16T11:45:09Z</time>
        <extensions>
          <gpxtpx:TrackPointExtension xmlns:gpxtpx="http://www.garmin.com/xmlschemas/TrackPointExtension/v1">
            <gpxtpx:hr>119</gpxtpx:hr>
          </gpxtpx:TrackPointExtension>
        </extensions>
      </trkpt>
      <trkpt lat="48.61627" lon="1.96975">
        <ele>109</ele>
        <time>2025-11-16T11:45:10Z</time>
        <extensions>
          <gpxtpx:TrackPointExtension xmlns:gpxtpx="http://www.garmin.com/xmlschemas/TrackPointExtension/v1">
            <gpxtpx:hr>119</gpxtpx:hr>
          </gpxtpx:TrackPointExtension>
        </extensions>
      </trkpt>
      <trkpt lat="48.61631" lon="1.96975">
        <ele>109</ele>
        <time>2025-11-16T11:45:11Z</time>
        <extensions>
          <gpxtpx:TrackPointExtension xmlns:gpxtpx="http://www.garmin.com/xmlschemas/TrackPointExtension/v1">
            <gpxtpx:hr>120</gpxtpx:hr>
          </gpxtpx:TrackPointExtension>
        </extensions>
      </trkpt>
      <trkpt lat="48.61634" lon="1.96975">
        <ele>109</ele>
        <time>2025-11-16T11:45:12Z</time>
        <extensions>
          <gpxtpx:TrackPointExtension xmlns:gpxtpx="http://www.garmin.com/xmlschemas/TrackPointExtension/v1">
            <gpxtpx:hr>120</gpxtpx:hr>
          </gpxtpx:TrackPointExtension>
        </extensions>
      </trkpt>
      <trkpt lat="48.61638" lon="1.96974">
        <ele>109.2</ele>
        <time>2025-11-16T11:45:13Z</time>
        <extensions>
          <gpxtpx:TrackPointExtension xmlns:gpxtpx="http://www.garmin.com/xmlschemas/TrackPointExtension/v1">
            <gpxtpx:hr>120</gpxtpx:hr>
          </gpxtpx:TrackPointExtension>
        </extensions>
      </trkpt>
      <trkpt lat="48.61641" lon="1.96974">
        <ele>109.2</ele>
        <time>2025-11-16T11:45:14Z</time>
        <extensions>
          <gpxtpx:TrackPointExtension xmlns:gpxtpx="http://www.garmin.com/xmlschemas/TrackPointExtension/v1">
            <gpxtpx:hr>120</gpxtpx:hr>
          </gpxtpx:TrackPointExtension>
        </extensions>
      </trkpt>
      <trkpt lat="48.61644" lon="1.96974">
        <ele>109.2</ele>
        <time>2025-11-16T11:45:15Z</time>
        <extensions>
          <gpxtpx:TrackPointExtension xmlns:gpxtpx="http://www.garmin.com/xmlschemas/TrackPointExtension/v1">
            <gpxtpx:hr>120</gpxtpx:hr>
          </gpxtpx:TrackPointExtension>
        </extensions>
      </trkpt>
      <trkpt lat="48.61648" lon="1.96974">
        <ele>109.2</ele>
        <time>2025-11-16T11:45:16Z</time>
        <extensions>
          <gpxtpx:TrackPointExtension xmlns:gpxtpx="http://www.garmin.com/xmlschemas/TrackPointExtension/v1">
            <gpxtpx:hr>120</gpxtpx:hr>
          </gpxtpx:TrackPointExtension>
        </extensions>
      </trkpt>
      <trkpt lat="48.61651" lon="1.96974">
        <ele>109.4</ele>
        <time>2025-11-16T11:45:17Z</time>
        <extensions>
          <gpxtpx:TrackPointExtension xmlns:gpxtpx="http://www.garmin.com/xmlschemas/TrackPointExtension/v1">
            <gpxtpx:hr>120</gpxtpx:hr>
          </gpxtpx:TrackPointExtension>
        </extensions>
      </trkpt>
      <trkpt lat="48.61654" lon="1.96974">
        <ele>109.4</ele>
        <time>2025-11-16T11:45:18Z</time>
        <extensions>
          <gpxtpx:TrackPointExtension xmlns:gpxtpx="http://www.garmin.com/xmlschemas/TrackPointExtension/v1">
            <gpxtpx:hr>120</gpxtpx:hr>
          </gpxtpx:TrackPointExtension>
        </extensions>
      </trkpt>
      <trkpt lat="48.61657" lon="1.96974">
        <ele>109.4</ele>
        <time>2025-11-16T11:45:19Z</time>
        <extensions>
          <gpxtpx:TrackPointExtension xmlns:gpxtpx="http://www.garmin.com/xmlschemas/TrackPointExtension/v1">
            <gpxtpx:hr>120</gpxtpx:hr>
          </gpxtpx:TrackPointExtension>
        </extensions>
      </trkpt>
      <trkpt lat="48.61661" lon="1.96975">
        <ele>109.4</ele>
        <time>2025-11-16T11:45:20Z</time>
        <extensions>
          <gpxtpx:TrackPointExtension xmlns:gpxtpx="http://www.garmin.com/xmlschemas/TrackPointExtension/v1">
            <gpxtpx:hr>119</gpxtpx:hr>
          </gpxtpx:TrackPointExtension>
        </extensions>
      </trkpt>
      <trkpt lat="48.61664" lon="1.96976">
        <ele>109.6</ele>
        <time>2025-11-16T11:45:21Z</time>
        <extensions>
          <gpxtpx:TrackPointExtension xmlns:gpxtpx="http://www.garmin.com/xmlschemas/TrackPointExtension/v1">
            <gpxtpx:hr>119</gpxtpx:hr>
          </gpxtpx:TrackPointExtension>
        </extensions>
      </trkpt>
      <trkpt lat="48.61668" lon="1.96976">
        <ele>109.6</ele>
        <time>2025-11-16T11:45:22Z</time>
        <extensions>
          <gpxtpx:TrackPointExtension xmlns:gpxtpx="http://www.garmin.com/xmlschemas/TrackPointExtension/v1">
            <gpxtpx:hr>119</gpxtpx:hr>
          </gpxtpx:TrackPointExtension>
        </extensions>
      </trkpt>
      <trkpt lat="48.61671" lon="1.96977">
        <ele>109.6</ele>
        <time>2025-11-16T11:45:23Z</time>
        <extensions>
          <gpxtpx:TrackPointExtension xmlns:gpxtpx="http://www.garmin.com/xmlschemas/TrackPointExtension/v1">
            <gpxtpx:hr>120</gpxtpx:hr>
          </gpxtpx:TrackPointExtension>
        </extensions>
      </trkpt>
      <trkpt lat="48.61675" lon="1.96978">
        <ele>109.8</ele>
        <time>2025-11-16T11:45:24Z</time>
        <extensions>
          <gpxtpx:TrackPointExtension xmlns:gpxtpx="http://www.garmin.com/xmlschemas/TrackPointExtension/v1">
            <gpxtpx:hr>120</gpxtpx:hr>
          </gpxtpx:TrackPointExtension>
        </extensions>
      </trkpt>
      <trkpt lat="48.61678" lon="1.9698">
        <ele>109.8</ele>
        <time>2025-11-16T11:45:25Z</time>
        <extensions>
          <gpxtpx:TrackPointExtension xmlns:gpxtpx="http://www.garmin.com/xmlschemas/TrackPointExtension/v1">
            <gpxtpx:hr>120</gpxtpx:hr>
          </gpxtpx:TrackPointExtension>
        </extensions>
      </trkpt>
      <trkpt lat="48.61682" lon="1.96981">
        <ele>110</ele>
        <time>2025-11-16T11:45:26Z</time>
        <extensions>
          <gpxtpx:TrackPointExtension xmlns:gpxtpx="http://www.garmin.com/xmlschemas/TrackPointExtension/v1">
            <gpxtpx:hr>120</gpxtpx:hr>
          </gpxtpx:TrackPointExtension>
        </extensions>
      </trkpt>
      <trkpt lat="48.61685" lon="1.96983">
        <ele>110</ele>
        <time>2025-11-16T11:45:27Z</time>
        <extensions>
          <gpxtpx:TrackPointExtension xmlns:gpxtpx="http://www.garmin.com/xmlschemas/TrackPointExtension/v1">
            <gpxtpx:hr>120</gpxtpx:hr>
          </gpxtpx:TrackPointExtension>
        </extensions>
      </trkpt>
      <trkpt lat="48.61689" lon="1.96984">
        <ele>110</ele>
        <time>2025-11-16T11:45:28Z</time>
        <extensions>
          <gpxtpx:TrackPointExtension xmlns:gpxtpx="http://www.garmin.com/xmlschemas/TrackPointExtension/v1">
            <gpxtpx:hr>120</gpxtpx:hr>
          </gpxtpx:TrackPointExtension>
        </extensions>
      </trkpt>
      <trkpt lat="48.61692" lon="1.96986">
        <ele>110.2</ele>
        <time>2025-11-16T11:45:29Z</time>
        <extensions>
          <gpxtpx:TrackPointExtension xmlns:gpxtpx="http://www.garmin.com/xmlschemas/TrackPointExtension/v1">
            <gpxtpx:hr>121</gpxtpx:hr>
          </gpxtpx:TrackPointExtension>
        </extensions>
      </trkpt>
      <trkpt lat="48.61695" lon="1.96988">
        <ele>110.2</ele>
        <time>2025-11-16T11:45:30Z</time>
        <extensions>
          <gpxtpx:TrackPointExtension xmlns:gpxtpx="http://www.garmin.com/xmlschemas/TrackPointExtension/v1">
            <gpxtpx:hr>121</gpxtpx:hr>
          </gpxtpx:TrackPointExtension>
        </extensions>
      </trkpt>
      <trkpt lat="48.61698" lon="1.96989">
        <ele>110.2</ele>
        <time>2025-11-16T11:45:31Z</time>
        <extensions>
          <gpxtpx:TrackPointExtension xmlns:gpxtpx="http://www.garmin.com/xmlschemas/TrackPointExtension/v1">
            <gpxtpx:hr>121</gpxtpx:hr>
          </gpxtpx:TrackPointExtension>
        </extensions>
      </trkpt>
      <trkpt lat="48.61701" lon="1.96991">
        <ele>110.2</ele>
        <time>2025-11-16T11:45:32Z</time>
        <extensions>
          <gpxtpx:TrackPointExtension xmlns:gpxtpx="http://www.garmin.com/xmlschemas/TrackPointExtension/v1">
            <gpxtpx:hr>121</gpxtpx:hr>
          </gpxtpx:TrackPointExtension>
        </extensions>
      </trkpt>
      <trkpt lat="48.61703" lon="1.96993">
        <ele>110.4</ele>
        <time>2025-11-16T11:45:33Z</time>
        <extensions>
          <gpxtpx:TrackPointExtension xmlns:gpxtpx="http://www.garmin.com/xmlschemas/TrackPointExtension/v1">
            <gpxtpx:hr>122</gpxtpx:hr>
          </gpxtpx:TrackPointExtension>
        </extensions>
      </trkpt>
      <trkpt lat="48.61706" lon="1.96994">
        <ele>110.4</ele>
        <time>2025-11-16T11:45:34Z</time>
        <extensions>
          <gpxtpx:TrackPointExtension xmlns:gpxtpx="http://www.garmin.com/xmlschemas/TrackPointExtension/v1">
            <gpxtpx:hr>122</gpxtpx:hr>
          </gpxtpx:TrackPointExtension>
        </extensions>
      </trkpt>
      <trkpt lat="48.61709" lon="1.96996">
        <ele>110.4</ele>
        <time>2025-11-16T11:45:35Z</time>
        <extensions>
          <gpxtpx:TrackPointExtension xmlns:gpxtpx="http://www.garmin.com/xmlschemas/TrackPointExtension/v1">
            <gpxtpx:hr>122</gpxtpx:hr>
          </gpxtpx:TrackPointExtension>
        </extensions>
      </trkpt>
      <trkpt lat="48.61712" lon="1.96998">
        <ele>110.4</ele>
        <time>2025-11-16T11:45:36Z</time>
        <extensions>
          <gpxtpx:TrackPointExtension xmlns:gpxtpx="http://www.garmin.com/xmlschemas/TrackPointExtension/v1">
            <gpxtpx:hr>122</gpxtpx:hr>
          </gpxtpx:TrackPointExtension>
        </extensions>
      </trkpt>
      <trkpt lat="48.61715" lon="1.96999">
        <ele>110.6</ele>
        <time>2025-11-16T11:45:37Z</time>
        <extensions>
          <gpxtpx:TrackPointExtension xmlns:gpxtpx="http://www.garmin.com/xmlschemas/TrackPointExtension/v1">
            <gpxtpx:hr>122</gpxtpx:hr>
          </gpxtpx:TrackPointExtension>
        </extensions>
      </trkpt>
      <trkpt lat="48.61719" lon="1.97">
        <ele>110.6</ele>
        <time>2025-11-16T11:45:38Z</time>
        <extensions>
          <gpxtpx:TrackPointExtension xmlns:gpxtpx="http://www.garmin.com/xmlschemas/TrackPointExtension/v1">
            <gpxtpx:hr>123</gpxtpx:hr>
          </gpxtpx:TrackPointExtension>
        </extensions>
      </trkpt>
      <trkpt lat="48.61723" lon="1.97001">
        <ele>110.6</ele>
        <time>2025-11-16T11:45:39Z</time>
        <extensions>
          <gpxtpx:TrackPointExtension xmlns:gpxtpx="http://www.garmin.com/xmlschemas/TrackPointExtension/v1">
            <gpxtpx:hr>123</gpxtpx:hr>
          </gpxtpx:TrackPointExtension>
        </extensions>
      </trkpt>
      <trkpt lat="48.61727" lon="1.97002">
        <ele>110.8</ele>
        <time>2025-11-16T11:45:40Z</time>
        <extensions>
          <gpxtpx:TrackPointExtension xmlns:gpxtpx="http://www.garmin.com/xmlschemas/TrackPointExtension/v1">
            <gpxtpx:hr>123</gpxtpx:hr>
          </gpxtpx:TrackPointExtension>
        </extensions>
      </trkpt>
      <trkpt lat="48.61731" lon="1.97002">
        <ele>110.8</ele>
        <time>2025-11-16T11:45:41Z</time>
        <extensions>
          <gpxtpx:TrackPointExtension xmlns:gpxtpx="http://www.garmin.com/xmlschemas/TrackPointExtension/v1">
            <gpxtpx:hr>123</gpxtpx:hr>
          </gpxtpx:TrackPointExtension>
        </extensions>
      </trkpt>
      <trkpt lat="48.61734" lon="1.97002">
        <ele>110.8</ele>
        <time>2025-11-16T11:45:42Z</time>
        <extensions>
          <gpxtpx:TrackPointExtension xmlns:gpxtpx="http://www.garmin.com/xmlschemas/TrackPointExtension/v1">
            <gpxtpx:hr>123</gpxtpx:hr>
          </gpxtpx:TrackPointExtension>
        </extensions>
      </trkpt>
      <trkpt lat="48.61738" lon="1.97002">
        <ele>111</ele>
        <time>2025-11-16T11:45:43Z</time>
        <extensions>
          <gpxtpx:TrackPointExtension xmlns:gpxtpx="http://www.garmin.com/xmlschemas/TrackPointExtension/v1">
            <gpxtpx:hr>123</gpxtpx:hr>
          </gpxtpx:TrackPointExtension>
        </extensions>
      </trkpt>
      <trkpt lat="48.61742" lon="1.97002">
        <ele>111</ele>
        <time>2025-11-16T11:45:44Z</time>
        <extensions>
          <gpxtpx:TrackPointExtension xmlns:gpxtpx="http://www.garmin.com/xmlschemas/TrackPointExtension/v1">
            <gpxtpx:hr>124</gpxtpx:hr>
          </gpxtpx:TrackPointExtension>
        </extensions>
      </trkpt>
      <trkpt lat="48.61745" lon="1.97003">
        <ele>111.2</ele>
        <time>2025-11-16T11:45:45Z</time>
        <extensions>
          <gpxtpx:TrackPointExtension xmlns:gpxtpx="http://www.garmin.com/xmlschemas/TrackPointExtension/v1">
            <gpxtpx:hr>124</gpxtpx:hr>
          </gpxtpx:TrackPointExtension>
        </extensions>
      </trkpt>
      <trkpt lat="48.61748" lon="1.97003">
        <ele>111.2</ele>
        <time>2025-11-16T11:45:46Z</time>
        <extensions>
          <gpxtpx:TrackPointExtension xmlns:gpxtpx="http://www.garmin.com/xmlschemas/TrackPointExtension/v1">
            <gpxtpx:hr>124</gpxtpx:hr>
          </gpxtpx:TrackPointExtension>
        </extensions>
      </trkpt>
      <trkpt lat="48.61751" lon="1.97003">
        <ele>111.4</ele>
        <time>2025-11-16T11:45:47Z</time>
        <extensions>
          <gpxtpx:TrackPointExtension xmlns:gpxtpx="http://www.garmin.com/xmlschemas/TrackPointExtension/v1">
            <gpxtpx:hr>124</gpxtpx:hr>
          </gpxtpx:TrackPointExtension>
        </extensions>
      </trkpt>
      <trkpt lat="48.61754" lon="1.97003">
        <ele>111.4</ele>
        <time>2025-11-16T11:45:48Z</time>
        <extensions>
          <gpxtpx:TrackPointExtension xmlns:gpxtpx="http://www.garmin.com/xmlschemas/TrackPointExtension/v1">
            <gpxtpx:hr>124</gpxtpx:hr>
          </gpxtpx:TrackPointExtension>
        </extensions>
      </trkpt>
      <trkpt lat="48.61756" lon="1.97004">
        <ele>111.6</ele>
        <time>2025-11-16T11:45:49Z</time>
        <extensions>
          <gpxtpx:TrackPointExtension xmlns:gpxtpx="http://www.garmin.com/xmlschemas/TrackPointExtension/v1">
            <gpxtpx:hr>124</gpxtpx:hr>
          </gpxtpx:TrackPointExtension>
        </extensions>
      </trkpt>
      <trkpt lat="48.61759" lon="1.97004">
        <ele>111.6</ele>
        <time>2025-11-16T11:45:50Z</time>
        <extensions>
          <gpxtpx:TrackPointExtension xmlns:gpxtpx="http://www.garmin.com/xmlschemas/TrackPointExtension/v1">
            <gpxtpx:hr>124</gpxtpx:hr>
          </gpxtpx:TrackPointExtension>
        </extensions>
      </trkpt>
      <trkpt lat="48.61762" lon="1.97004">
        <ele>111.8</ele>
        <time>2025-11-16T11:45:51Z</time>
        <extensions>
          <gpxtpx:TrackPointExtension xmlns:gpxtpx="http://www.garmin.com/xmlschemas/TrackPointExtension/v1">
            <gpxtpx:hr>125</gpxtpx:hr>
          </gpxtpx:TrackPointExtension>
        </extensions>
      </trkpt>
      <trkpt lat="48.61765" lon="1.97005">
        <ele>111.8</ele>
        <time>2025-11-16T11:45:52Z</time>
        <extensions>
          <gpxtpx:TrackPointExtension xmlns:gpxtpx="http://www.garmin.com/xmlschemas/TrackPointExtension/v1">
            <gpxtpx:hr>125</gpxtpx:hr>
          </gpxtpx:TrackPointExtension>
        </extensions>
      </trkpt>
      <trkpt lat="48.61769" lon="1.97005">
        <ele>112</ele>
        <time>2025-11-16T11:45:53Z</time>
        <extensions>
          <gpxtpx:TrackPointExtension xmlns:gpxtpx="http://www.garmin.com/xmlschemas/TrackPointExtension/v1">
            <gpxtpx:hr>125</gpxtpx:hr>
          </gpxtpx:TrackPointExtension>
        </extensions>
      </trkpt>
      <trkpt lat="48.61772" lon="1.97005">
        <ele>112</ele>
        <time>2025-11-16T11:45:54Z</time>
        <extensions>
          <gpxtpx:TrackPointExtension xmlns:gpxtpx="http://www.garmin.com/xmlschemas/TrackPointExtension/v1">
            <gpxtpx:hr>125</gpxtpx:hr>
          </gpxtpx:TrackPointExtension>
        </extensions>
      </trkpt>
      <trkpt lat="48.61776" lon="1.97005">
        <ele>112.2</ele>
        <time>2025-11-16T11:45:55Z</time>
        <extensions>
          <gpxtpx:TrackPointExtension xmlns:gpxtpx="http://www.garmin.com/xmlschemas/TrackPointExtension/v1">
            <gpxtpx:hr>125</gpxtpx:hr>
          </gpxtpx:TrackPointExtension>
        </extensions>
      </trkpt>
      <trkpt lat="48.6178" lon="1.97005">
        <ele>112.2</ele>
        <time>2025-11-16T11:45:56Z</time>
        <extensions>
          <gpxtpx:TrackPointExtension xmlns:gpxtpx="http://www.garmin.com/xmlschemas/TrackPointExtension/v1">
            <gpxtpx:hr>126</gpxtpx:hr>
          </gpxtpx:TrackPointExtension>
        </extensions>
      </trkpt>
      <trkpt lat="48.61783" lon="1.97006">
        <ele>112.2</ele>
        <time>2025-11-16T11:45:57Z</time>
        <extensions>
          <gpxtpx:TrackPointExtension xmlns:gpxtpx="http://www.garmin.com/xmlschemas/TrackPointExtension/v1">
            <gpxtpx:hr>125</gpxtpx:hr>
          </gpxtpx:TrackPointExtension>
        </extensions>
      </trkpt>
      <trkpt lat="48.61787" lon="1.97006">
        <ele>112.2</ele>
        <time>2025-11-16T11:45:58Z</time>
        <extensions>
          <gpxtpx:TrackPointExtension xmlns:gpxtpx="http://www.garmin.com/xmlschemas/TrackPointExtension/v1">
            <gpxtpx:hr>125</gpxtpx:hr>
          </gpxtpx:TrackPointExtension>
        </extensions>
      </trkpt>
      <trkpt lat="48.61791" lon="1.97007">
        <ele>112.2</ele>
        <time>2025-11-16T11:45:59Z</time>
        <extensions>
          <gpxtpx:TrackPointExtension xmlns:gpxtpx="http://www.garmin.com/xmlschemas/TrackPointExtension/v1">
            <gpxtpx:hr>125</gpxtpx:hr>
          </gpxtpx:TrackPointExtension>
        </extensions>
      </trkpt>
      <trkpt lat="48.61795" lon="1.97009">
        <ele>112.2</ele>
        <time>2025-11-16T11:46:00Z</time>
        <extensions>
          <gpxtpx:TrackPointExtension xmlns:gpxtpx="http://www.garmin.com/xmlschemas/TrackPointExtension/v1">
            <gpxtpx:hr>125</gpxtpx:hr>
          </gpxtpx:TrackPointExtension>
        </extensions>
      </trkpt>
      <trkpt lat="48.61799" lon="1.97011">
        <ele>112.4</ele>
        <time>2025-11-16T11:46:01Z</time>
        <extensions>
          <gpxtpx:TrackPointExtension xmlns:gpxtpx="http://www.garmin.com/xmlschemas/TrackPointExtension/v1">
            <gpxtpx:hr>125</gpxtpx:hr>
          </gpxtpx:TrackPointExtension>
        </extensions>
      </trkpt>
      <trkpt lat="48.61803" lon="1.97014">
        <ele>112.4</ele>
        <time>2025-11-16T11:46:02Z</time>
        <extensions>
          <gpxtpx:TrackPointExtension xmlns:gpxtpx="http://www.garmin.com/xmlschemas/TrackPointExtension/v1">
            <gpxtpx:hr>125</gpxtpx:hr>
          </gpxtpx:TrackPointExtension>
        </extensions>
      </trkpt>
      <trkpt lat="48.61806" lon="1.97016">
        <ele>112.4</ele>
        <time>2025-11-16T11:46:03Z</time>
        <extensions>
          <gpxtpx:TrackPointExtension xmlns:gpxtpx="http://www.garmin.com/xmlschemas/TrackPointExtension/v1">
            <gpxtpx:hr>126</gpxtpx:hr>
          </gpxtpx:TrackPointExtension>
        </extensions>
      </trkpt>
      <trkpt lat="48.6181" lon="1.97018">
        <ele>112.4</ele>
        <time>2025-11-16T11:46:04Z</time>
        <extensions>
          <gpxtpx:TrackPointExtension xmlns:gpxtpx="http://www.garmin.com/xmlschemas/TrackPointExtension/v1">
            <gpxtpx:hr>126</gpxtpx:hr>
          </gpxtpx:TrackPointExtension>
        </extensions>
      </trkpt>
      <trkpt lat="48.61813" lon="1.97021">
        <ele>112.4</ele>
        <time>2025-11-16T11:46:05Z</time>
        <extensions>
          <gpxtpx:TrackPointExtension xmlns:gpxtpx="http://www.garmin.com/xmlschemas/TrackPointExtension/v1">
            <gpxtpx:hr>126</gpxtpx:hr>
          </gpxtpx:TrackPointExtension>
        </extensions>
      </trkpt>
      <trkpt lat="48.61816" lon="1.97023">
        <ele>112.4</ele>
        <time>2025-11-16T11:46:06Z</time>
        <extensions>
          <gpxtpx:TrackPointExtension xmlns:gpxtpx="http://www.garmin.com/xmlschemas/TrackPointExtension/v1">
            <gpxtpx:hr>126</gpxtpx:hr>
          </gpxtpx:TrackPointExtension>
        </extensions>
      </trkpt>
      <trkpt lat="48.6182" lon="1.97025">
        <ele>112.6</ele>
        <time>2025-11-16T11:46:07Z</time>
        <extensions>
          <gpxtpx:TrackPointExtension xmlns:gpxtpx="http://www.garmin.com/xmlschemas/TrackPointExtension/v1">
            <gpxtpx:hr>126</gpxtpx:hr>
          </gpxtpx:TrackPointExtension>
        </extensions>
      </trkpt>
      <trkpt lat="48.61822" lon="1.97027">
        <ele>112.6</ele>
        <time>2025-11-16T11:46:08Z</time>
        <extensions>
          <gpxtpx:TrackPointExtension xmlns:gpxtpx="http://www.garmin.com/xmlschemas/TrackPointExtension/v1">
            <gpxtpx:hr>126</gpxtpx:hr>
          </gpxtpx:TrackPointExtension>
        </extensions>
      </trkpt>
      <trkpt lat="48.61825" lon="1.97028">
        <ele>112.6</ele>
        <time>2025-11-16T11:46:09Z</time>
        <extensions>
          <gpxtpx:TrackPointExtension xmlns:gpxtpx="http://www.garmin.com/xmlschemas/TrackPointExtension/v1">
            <gpxtpx:hr>126</gpxtpx:hr>
          </gpxtpx:TrackPointExtension>
        </extensions>
      </trkpt>
      <trkpt lat="48.61828" lon="1.9703">
        <ele>112.6</ele>
        <time>2025-11-16T11:46:10Z</time>
        <extensions>
          <gpxtpx:TrackPointExtension xmlns:gpxtpx="http://www.garmin.com/xmlschemas/TrackPointExtension/v1">
            <gpxtpx:hr>126</gpxtpx:hr>
          </gpxtpx:TrackPointExtension>
        </extensions>
      </trkpt>
      <trkpt lat="48.6183" lon="1.97032">
        <ele>112.6</ele>
        <time>2025-11-16T11:46:11Z</time>
        <extensions>
          <gpxtpx:TrackPointExtension xmlns:gpxtpx="http://www.garmin.com/xmlschemas/TrackPointExtension/v1">
            <gpxtpx:hr>126</gpxtpx:hr>
          </gpxtpx:TrackPointExtension>
        </extensions>
      </trkpt>
      <trkpt lat="48.61832" lon="1.97034">
        <ele>112.6</ele>
        <time>2025-11-16T11:46:12Z</time>
        <extensions>
          <gpxtpx:TrackPointExtension xmlns:gpxtpx="http://www.garmin.com/xmlschemas/TrackPointExtension/v1">
            <gpxtpx:hr>126</gpxtpx:hr>
          </gpxtpx:TrackPointExtension>
        </extensions>
      </trkpt>
      <trkpt lat="48.61835" lon="1.97035">
        <ele>112.6</ele>
        <time>2025-11-16T11:46:13Z</time>
        <extensions>
          <gpxtpx:TrackPointExtension xmlns:gpxtpx="http://www.garmin.com/xmlschemas/TrackPointExtension/v1">
            <gpxtpx:hr>126</gpxtpx:hr>
          </gpxtpx:TrackPointExtension>
        </extensions>
      </trkpt>
      <trkpt lat="48.61837" lon="1.97037">
        <ele>112.6</ele>
        <time>2025-11-16T11:46:14Z</time>
        <extensions>
          <gpxtpx:TrackPointExtension xmlns:gpxtpx="http://www.garmin.com/xmlschemas/TrackPointExtension/v1">
            <gpxtpx:hr>126</gpxtpx:hr>
          </gpxtpx:TrackPointExtension>
        </extensions>
      </trkpt>
      <trkpt lat="48.61839" lon="1.97038">
        <ele>112.6</ele>
        <time>2025-11-16T11:46:15Z</time>
        <extensions>
          <gpxtpx:TrackPointExtension xmlns:gpxtpx="http://www.garmin.com/xmlschemas/TrackPointExtension/v1">
            <gpxtpx:hr>126</gpxtpx:hr>
          </gpxtpx:TrackPointExtension>
        </extensions>
      </trkpt>
      <trkpt lat="48.61842" lon="1.9704">
        <ele>112.8</ele>
        <time>2025-11-16T11:46:17Z</time>
        <extensions>
          <gpxtpx:TrackPointExtension xmlns:gpxtpx="http://www.garmin.com/xmlschemas/TrackPointExtension/v1">
            <gpxtpx:hr>127</gpxtpx:hr>
          </gpxtpx:TrackPointExtension>
        </extensions>
      </trkpt>
      <trkpt lat="48.61844" lon="1.97043">
        <ele>112.8</ele>
        <time>2025-11-16T11:46:19Z</time>
        <extensions>
          <gpxtpx:TrackPointExtension xmlns:gpxtpx="http://www.garmin.com/xmlschemas/TrackPointExtension/v1">
            <gpxtpx:hr>127</gpxtpx:hr>
          </gpxtpx:TrackPointExtension>
        </extensions>
      </trkpt>
      <trkpt lat="48.61846" lon="1.97045">
        <ele>112.8</ele>
        <time>2025-11-16T11:46:21Z</time>
        <extensions>
          <gpxtpx:TrackPointExtension xmlns:gpxtpx="http://www.garmin.com/xmlschemas/TrackPointExtension/v1">
            <gpxtpx:hr>127</gpxtpx:hr>
          </gpxtpx:TrackPointExtension>
        </extensions>
      </trkpt>
      <trkpt lat="48.61849" lon="1.97047">
        <ele>112.8</ele>
        <time>2025-11-16T11:46:23Z</time>
        <extensions>
          <gpxtpx:TrackPointExtension xmlns:gpxtpx="http://www.garmin.com/xmlschemas/TrackPointExtension/v1">
            <gpxtpx:hr>127</gpxtpx:hr>
          </gpxtpx:TrackPointExtension>
        </extensions>
      </trkpt>
      <trkpt lat="48.61852" lon="1.97049">
        <ele>112.8</ele>
        <time>2025-11-16T11:46:25Z</time>
        <extensions>
          <gpxtpx:TrackPointExtension xmlns:gpxtpx="http://www.garmin.com/xmlschemas/TrackPointExtension/v1">
            <gpxtpx:hr>127</gpxtpx:hr>
          </gpxtpx:TrackPointExtension>
        </extensions>
      </trkpt>
      <trkpt lat="48.61854" lon="1.97051">
        <ele>113</ele>
        <time>2025-11-16T11:46:27Z</time>
        <extensions>
          <gpxtpx:TrackPointExtension xmlns:gpxtpx="http://www.garmin.com/xmlschemas/TrackPointExtension/v1">
            <gpxtpx:hr>127</gpxtpx:hr>
          </gpxtpx:TrackPointExtension>
        </extensions>
      </trkpt>
      <trkpt lat="48.61857" lon="1.97053">
        <ele>113</ele>
        <time>2025-11-16T11:46:29Z</time>
        <extensions>
          <gpxtpx:TrackPointExtension xmlns:gpxtpx="http://www.garmin.com/xmlschemas/TrackPointExtension/v1">
            <gpxtpx:hr>127</gpxtpx:hr>
          </gpxtpx:TrackPointExtension>
        </extensions>
      </trkpt>
      <trkpt lat="48.6186" lon="1.97055">
        <ele>113</ele>
        <time>2025-11-16T11:46:31Z</time>
        <extensions>
          <gpxtpx:TrackPointExtension xmlns:gpxtpx="http://www.garmin.com/xmlschemas/TrackPointExtension/v1">
            <gpxtpx:hr>127</gpxtpx:hr>
          </gpxtpx:TrackPointExtension>
        </extensions>
      </trkpt>
      <trkpt lat="48.61864" lon="1.97057">
        <ele>113</ele>
        <time>2025-11-16T11:46:33Z</time>
        <extensions>
          <gpxtpx:TrackPointExtension xmlns:gpxtpx="http://www.garmin.com/xmlschemas/TrackPointExtension/v1">
            <gpxtpx:hr>127</gpxtpx:hr>
          </gpxtpx:TrackPointExtension>
        </extensions>
      </trkpt>
      <trkpt lat="48.61866" lon="1.97058">
        <ele>113</ele>
        <time>2025-11-16T11:46:34Z</time>
        <extensions>
          <gpxtpx:TrackPointExtension xmlns:gpxtpx="http://www.garmin.com/xmlschemas/TrackPointExtension/v1">
            <gpxtpx:hr>127</gpxtpx:hr>
          </gpxtpx:TrackPointExtension>
        </extensions>
      </trkpt>
      <trkpt lat="48.61869" lon="1.9706">
        <ele>113.2</ele>
        <time>2025-11-16T11:46:36Z</time>
        <extensions>
          <gpxtpx:TrackPointExtension xmlns:gpxtpx="http://www.garmin.com/xmlschemas/TrackPointExtension/v1">
            <gpxtpx:hr>127</gpxtpx:hr>
          </gpxtpx:TrackPointExtension>
        </extensions>
      </trkpt>
      <trkpt lat="48.61872" lon="1.97062">
        <ele>113.4</ele>
        <time>2025-11-16T11:46:38Z</time>
        <extensions>
          <gpxtpx:TrackPointExtension xmlns:gpxtpx="http://www.garmin.com/xmlschemas/TrackPointExtension/v1">
            <gpxtpx:hr>127</gpxtpx:hr>
          </gpxtpx:TrackPointExtension>
        </extensions>
      </trkpt>
      <trkpt lat="48.61875" lon="1.97064">
        <ele>113.8</ele>
        <time>2025-11-16T11:46:40Z</time>
        <extensions>
          <gpxtpx:TrackPointExtension xmlns:gpxtpx="http://www.garmin.com/xmlschemas/TrackPointExtension/v1">
            <gpxtpx:hr>127</gpxtpx:hr>
          </gpxtpx:TrackPointExtension>
        </extensions>
      </trkpt>
      <trkpt lat="48.61877" lon="1.97066">
        <ele>114</ele>
        <time>2025-11-16T11:46:42Z</time>
        <extensions>
          <gpxtpx:TrackPointExtension xmlns:gpxtpx="http://www.garmin.com/xmlschemas/TrackPointExtension/v1">
            <gpxtpx:hr>127</gpxtpx:hr>
          </gpxtpx:TrackPointExtension>
        </extensions>
      </trkpt>
      <trkpt lat="48.61879" lon="1.97066">
        <ele>114</ele>
        <time>2025-11-16T11:46:43Z</time>
        <extensions>
          <gpxtpx:TrackPointExtension xmlns:gpxtpx="http://www.garmin.com/xmlschemas/TrackPointExtension/v1">
            <gpxtpx:hr>127</gpxtpx:hr>
          </gpxtpx:TrackPointExtension>
        </extensions>
      </trkpt>
      <trkpt lat="48.61883" lon="1.97068">
        <ele>114.2</ele>
        <time>2025-11-16T11:46:45Z</time>
        <extensions>
          <gpxtpx:TrackPointExtension xmlns:gpxtpx="http://www.garmin.com/xmlschemas/TrackPointExtension/v1">
            <gpxtpx:hr>128</gpxtpx:hr>
          </gpxtpx:TrackPointExtension>
        </extensions>
      </trkpt>
      <trkpt lat="48.61886" lon="1.9707">
        <ele>114.2</ele>
        <time>2025-11-16T11:46:47Z</time>
        <extensions>
          <gpxtpx:TrackPointExtension xmlns:gpxtpx="http://www.garmin.com/xmlschemas/TrackPointExtension/v1">
            <gpxtpx:hr>128</gpxtpx:hr>
          </gpxtpx:TrackPointExtension>
        </extensions>
      </trkpt>
      <trkpt lat="48.61888" lon="1.97071">
        <ele>114.4</ele>
        <time>2025-11-16T11:46:48Z</time>
        <extensions>
          <gpxtpx:TrackPointExtension xmlns:gpxtpx="http://www.garmin.com/xmlschemas/TrackPointExtension/v1">
            <gpxtpx:hr>128</gpxtpx:hr>
          </gpxtpx:TrackPointExtension>
        </extensions>
      </trkpt>
      <trkpt lat="48.6189" lon="1.97072">
        <ele>114.4</ele>
        <time>2025-11-16T11:46:49Z</time>
        <extensions>
          <gpxtpx:TrackPointExtension xmlns:gpxtpx="http://www.garmin.com/xmlschemas/TrackPointExtension/v1">
            <gpxtpx:hr>128</gpxtpx:hr>
          </gpxtpx:TrackPointExtension>
        </extensions>
      </trkpt>
      <trkpt lat="48.61892" lon="1.97073">
        <ele>114.4</ele>
        <time>2025-11-16T11:46:50Z</time>
        <extensions>
          <gpxtpx:TrackPointExtension xmlns:gpxtpx="http://www.garmin.com/xmlschemas/TrackPointExtension/v1">
            <gpxtpx:hr>128</gpxtpx:hr>
          </gpxtpx:TrackPointExtension>
        </extensions>
      </trkpt>
      <trkpt lat="48.61894" lon="1.97074">
        <ele>114.6</ele>
        <time>2025-11-16T11:46:51Z</time>
        <extensions>
          <gpxtpx:TrackPointExtension xmlns:gpxtpx="http://www.garmin.com/xmlschemas/TrackPointExtension/v1">
            <gpxtpx:hr>128</gpxtpx:hr>
          </gpxtpx:TrackPointExtension>
        </extensions>
      </trkpt>
      <trkpt lat="48.61896" lon="1.97074">
        <ele>114.8</ele>
        <time>2025-11-16T11:46:52Z</time>
        <extensions>
          <gpxtpx:TrackPointExtension xmlns:gpxtpx="http://www.garmin.com/xmlschemas/TrackPointExtension/v1">
            <gpxtpx:hr>128</gpxtpx:hr>
          </gpxtpx:TrackPointExtension>
        </extensions>
      </trkpt>
      <trkpt lat="48.61899" lon="1.97075">
        <ele>115</ele>
        <time>2025-11-16T11:46:54Z</time>
        <extensions>
          <gpxtpx:TrackPointExtension xmlns:gpxtpx="http://www.garmin.com/xmlschemas/TrackPointExtension/v1">
            <gpxtpx:hr>128</gpxtpx:hr>
          </gpxtpx:TrackPointExtension>
        </extensions>
      </trkpt>
      <trkpt lat="48.61901" lon="1.97076">
        <ele>115.2</ele>
        <time>2025-11-16T11:46:56Z</time>
        <extensions>
          <gpxtpx:TrackPointExtension xmlns:gpxtpx="http://www.garmin.com/xmlschemas/TrackPointExtension/v1">
            <gpxtpx:hr>128</gpxtpx:hr>
          </gpxtpx:TrackPointExtension>
        </extensions>
      </trkpt>
      <trkpt lat="48.61903" lon="1.97077">
        <ele>115.6</ele>
        <time>2025-11-16T11:46:58Z</time>
        <extensions>
          <gpxtpx:TrackPointExtension xmlns:gpxtpx="http://www.garmin.com/xmlschemas/TrackPointExtension/v1">
            <gpxtpx:hr>127</gpxtpx:hr>
          </gpxtpx:TrackPointExtension>
        </extensions>
      </trkpt>
      <trkpt lat="48.61905" lon="1.97078">
        <ele>116</ele>
        <time>2025-11-16T11:47:00Z</time>
        <extensions>
          <gpxtpx:TrackPointExtension xmlns:gpxtpx="http://www.garmin.com/xmlschemas/TrackPointExtension/v1">
            <gpxtpx:hr>127</gpxtpx:hr>
          </gpxtpx:TrackPointExtension>
        </extensions>
      </trkpt>
      <trkpt lat="48.61909" lon="1.97079">
        <ele>116.4</ele>
        <time>2025-11-16T11:47:02Z</time>
        <extensions>
          <gpxtpx:TrackPointExtension xmlns:gpxtpx="http://www.garmin.com/xmlschemas/TrackPointExtension/v1">
            <gpxtpx:hr>127</gpxtpx:hr>
          </gpxtpx:TrackPointExtension>
        </extensions>
      </trkpt>
      <trkpt lat="48.61912" lon="1.9708">
        <ele>116.8</ele>
        <time>2025-11-16T11:47:04Z</time>
        <extensions>
          <gpxtpx:TrackPointExtension xmlns:gpxtpx="http://www.garmin.com/xmlschemas/TrackPointExtension/v1">
            <gpxtpx:hr>127</gpxtpx:hr>
          </gpxtpx:TrackPointExtension>
        </extensions>
      </trkpt>
      <trkpt lat="48.61915" lon="1.97081">
        <ele>117.2</ele>
        <time>2025-11-16T11:47:06Z</time>
        <extensions>
          <gpxtpx:TrackPointExtension xmlns:gpxtpx="http://www.garmin.com/xmlschemas/TrackPointExtension/v1">
            <gpxtpx:hr>126</gpxtpx:hr>
          </gpxtpx:TrackPointExtension>
        </extensions>
      </trkpt>
      <trkpt lat="48.61917" lon="1.97082">
        <ele>117.4</ele>
        <time>2025-11-16T11:47:07Z</time>
        <extensions>
          <gpxtpx:TrackPointExtension xmlns:gpxtpx="http://www.garmin.com/xmlschemas/TrackPointExtension/v1">
            <gpxtpx:hr>126</gpxtpx:hr>
          </gpxtpx:TrackPointExtension>
        </extensions>
      </trkpt>
      <trkpt lat="48.61919" lon="1.97083">
        <ele>117.6</ele>
        <time>2025-11-16T11:47:08Z</time>
        <extensions>
          <gpxtpx:TrackPointExtension xmlns:gpxtpx="http://www.garmin.com/xmlschemas/TrackPointExtension/v1">
            <gpxtpx:hr>126</gpxtpx:hr>
          </gpxtpx:TrackPointExtension>
        </extensions>
      </trkpt>
      <trkpt lat="48.61921" lon="1.97084">
        <ele>117.8</ele>
        <time>2025-11-16T11:47:09Z</time>
        <extensions>
          <gpxtpx:TrackPointExtension xmlns:gpxtpx="http://www.garmin.com/xmlschemas/TrackPointExtension/v1">
            <gpxtpx:hr>126</gpxtpx:hr>
          </gpxtpx:TrackPointExtension>
        </extensions>
      </trkpt>
      <trkpt lat="48.61923" lon="1.97085">
        <ele>118.2</ele>
        <time>2025-11-16T11:47:10Z</time>
        <extensions>
          <gpxtpx:TrackPointExtension xmlns:gpxtpx="http://www.garmin.com/xmlschemas/TrackPointExtension/v1">
            <gpxtpx:hr>125</gpxtpx:hr>
          </gpxtpx:TrackPointExtension>
        </extensions>
      </trkpt>
      <trkpt lat="48.61925" lon="1.97086">
        <ele>118.4</ele>
        <time>2025-11-16T11:47:11Z</time>
        <extensions>
          <gpxtpx:TrackPointExtension xmlns:gpxtpx="http://www.garmin.com/xmlschemas/TrackPointExtension/v1">
            <gpxtpx:hr>125</gpxtpx:hr>
          </gpxtpx:TrackPointExtension>
        </extensions>
      </trkpt>
      <trkpt lat="48.61928" lon="1.97088">
        <ele>118.6</ele>
        <time>2025-11-16T11:47:12Z</time>
        <extensions>
          <gpxtpx:TrackPointExtension xmlns:gpxtpx="http://www.garmin.com/xmlschemas/TrackPointExtension/v1">
            <gpxtpx:hr>125</gpxtpx:hr>
          </gpxtpx:TrackPointExtension>
        </extensions>
      </trkpt>
      <trkpt lat="48.6193" lon="1.97089">
        <ele>118.8</ele>
        <time>2025-11-16T11:47:13Z</time>
        <extensions>
          <gpxtpx:TrackPointExtension xmlns:gpxtpx="http://www.garmin.com/xmlschemas/TrackPointExtension/v1">
            <gpxtpx:hr>125</gpxtpx:hr>
          </gpxtpx:TrackPointExtension>
        </extensions>
      </trkpt>
      <trkpt lat="48.61931" lon="1.9709">
        <ele>119</ele>
        <time>2025-11-16T11:47:14Z</time>
        <extensions>
          <gpxtpx:TrackPointExtension xmlns:gpxtpx="http://www.garmin.com/xmlschemas/TrackPointExtension/v1">
            <gpxtpx:hr>125</gpxtpx:hr>
          </gpxtpx:TrackPointExtension>
        </extensions>
      </trkpt>
      <trkpt lat="48.61933" lon="1.97092">
        <ele>119</ele>
        <time>2025-11-16T11:47:15Z</time>
        <extensions>
          <gpxtpx:TrackPointExtension xmlns:gpxtpx="http://www.garmin.com/xmlschemas/TrackPointExtension/v1">
            <gpxtpx:hr>125</gpxtpx:hr>
          </gpxtpx:TrackPointExtension>
        </extensions>
      </trkpt>
      <trkpt lat="48.61934" lon="1.97093">
        <ele>119.2</ele>
        <time>2025-11-16T11:47:16Z</time>
        <extensions>
          <gpxtpx:TrackPointExtension xmlns:gpxtpx="http://www.garmin.com/xmlschemas/TrackPointExtension/v1">
            <gpxtpx:hr>125</gpxtpx:hr>
          </gpxtpx:TrackPointExtension>
        </extensions>
      </trkpt>
      <trkpt lat="48.61937" lon="1.97096">
        <ele>119.4</ele>
        <time>2025-11-16T11:47:18Z</time>
        <extensions>
          <gpxtpx:TrackPointExtension xmlns:gpxtpx="http://www.garmin.com/xmlschemas/TrackPointExtension/v1">
            <gpxtpx:hr>124</gpxtpx:hr>
          </gpxtpx:TrackPointExtension>
        </extensions>
      </trkpt>
      <trkpt lat="48.6194" lon="1.97098">
        <ele>119.8</ele>
        <time>2025-11-16T11:47:20Z</time>
        <extensions>
          <gpxtpx:TrackPointExtension xmlns:gpxtpx="http://www.garmin.com/xmlschemas/TrackPointExtension/v1">
            <gpxtpx:hr>124</gpxtpx:hr>
          </gpxtpx:TrackPointExtension>
        </extensions>
      </trkpt>
      <trkpt lat="48.61941" lon="1.97099">
        <ele>119.8</ele>
        <time>2025-11-16T11:47:21Z</time>
        <extensions>
          <gpxtpx:TrackPointExtension xmlns:gpxtpx="http://www.garmin.com/xmlschemas/TrackPointExtension/v1">
            <gpxtpx:hr>124</gpxtpx:hr>
          </gpxtpx:TrackPointExtension>
        </extensions>
      </trkpt>
      <trkpt lat="48.61943" lon="1.97101">
        <ele>119.8</ele>
        <time>2025-11-16T11:47:22Z</time>
        <extensions>
          <gpxtpx:TrackPointExtension xmlns:gpxtpx="http://www.garmin.com/xmlschemas/TrackPointExtension/v1">
            <gpxtpx:hr>124</gpxtpx:hr>
          </gpxtpx:TrackPointExtension>
        </extensions>
      </trkpt>
      <trkpt lat="48.61944" lon="1.97102">
        <ele>120</ele>
        <time>2025-11-16T11:47:23Z</time>
        <extensions>
          <gpxtpx:TrackPointExtension xmlns:gpxtpx="http://www.garmin.com/xmlschemas/TrackPointExtension/v1">
            <gpxtpx:hr>123</gpxtpx:hr>
          </gpxtpx:TrackPointExtension>
        </extensions>
      </trkpt>
      <trkpt lat="48.61947" lon="1.97105">
        <ele>120.2</ele>
        <time>2025-11-16T11:47:25Z</time>
        <extensions>
          <gpxtpx:TrackPointExtension xmlns:gpxtpx="http://www.garmin.com/xmlschemas/TrackPointExtension/v1">
            <gpxtpx:hr>124</gpxtpx:hr>
          </gpxtpx:TrackPointExtension>
        </extensions>
      </trkpt>
      <trkpt lat="48.61949" lon="1.97106">
        <ele>120.4</ele>
        <time>2025-11-16T11:47:26Z</time>
        <extensions>
          <gpxtpx:TrackPointExtension xmlns:gpxtpx="http://www.garmin.com/xmlschemas/TrackPointExtension/v1">
            <gpxtpx:hr>124</gpxtpx:hr>
          </gpxtpx:TrackPointExtension>
        </extensions>
      </trkpt>
      <trkpt lat="48.61951" lon="1.97108">
        <ele>120.6</ele>
        <time>2025-11-16T11:47:27Z</time>
        <extensions>
          <gpxtpx:TrackPointExtension xmlns:gpxtpx="http://www.garmin.com/xmlschemas/TrackPointExtension/v1">
            <gpxtpx:hr>124</gpxtpx:hr>
          </gpxtpx:TrackPointExtension>
        </extensions>
      </trkpt>
      <trkpt lat="48.61952" lon="1.9711">
        <ele>120.6</ele>
        <time>2025-11-16T11:47:28Z</time>
        <extensions>
          <gpxtpx:TrackPointExtension xmlns:gpxtpx="http://www.garmin.com/xmlschemas/TrackPointExtension/v1">
            <gpxtpx:hr>124</gpxtpx:hr>
          </gpxtpx:TrackPointExtension>
        </extensions>
      </trkpt>
      <trkpt lat="48.61955" lon="1.97113">
        <ele>120.8</ele>
        <time>2025-11-16T11:47:30Z</time>
        <extensions>
          <gpxtpx:TrackPointExtension xmlns:gpxtpx="http://www.garmin.com/xmlschemas/TrackPointExtension/v1">
            <gpxtpx:hr>123</gpxtpx:hr>
          </gpxtpx:TrackPointExtension>
        </extensions>
      </trkpt>
      <trkpt lat="48.61956" lon="1.97117">
        <ele>120.8</ele>
        <time>2025-11-16T11:47:32Z</time>
        <extensions>
          <gpxtpx:TrackPointExtension xmlns:gpxtpx="http://www.garmin.com/xmlschemas/TrackPointExtension/v1">
            <gpxtpx:hr>123</gpxtpx:hr>
          </gpxtpx:TrackPointExtension>
        </extensions>
      </trkpt>
      <trkpt lat="48.61958" lon="1.97118">
        <ele>120.8</ele>
        <time>2025-11-16T11:47:33Z</time>
        <extensions>
          <gpxtpx:TrackPointExtension xmlns:gpxtpx="http://www.garmin.com/xmlschemas/TrackPointExtension/v1">
            <gpxtpx:hr>123</gpxtpx:hr>
          </gpxtpx:TrackPointExtension>
        </extensions>
      </trkpt>
      <trkpt lat="48.61961" lon="1.97122">
        <ele>121</ele>
        <time>2025-11-16T11:47:35Z</time>
        <extensions>
          <gpxtpx:TrackPointExtension xmlns:gpxtpx="http://www.garmin.com/xmlschemas/TrackPointExtension/v1">
            <gpxtpx:hr>123</gpxtpx:hr>
          </gpxtpx:TrackPointExtension>
        </extensions>
      </trkpt>
      <trkpt lat="48.61962" lon="1.97124">
        <ele>121</ele>
        <time>2025-11-16T11:47:36Z</time>
        <extensions>
          <gpxtpx:TrackPointExtension xmlns:gpxtpx="http://www.garmin.com/xmlschemas/TrackPointExtension/v1">
            <gpxtpx:hr>123</gpxtpx:hr>
          </gpxtpx:TrackPointExtension>
        </extensions>
      </trkpt>
      <trkpt lat="48.61965" lon="1.97127">
        <ele>121</ele>
        <time>2025-11-16T11:47:38Z</time>
        <extensions>
          <gpxtpx:TrackPointExtension xmlns:gpxtpx="http://www.garmin.com/xmlschemas/TrackPointExtension/v1">
            <gpxtpx:hr>123</gpxtpx:hr>
          </gpxtpx:TrackPointExtension>
        </extensions>
      </trkpt>
      <trkpt lat="48.61968" lon="1.9713">
        <ele>121</ele>
        <time>2025-11-16T11:47:40Z</time>
        <extensions>
          <gpxtpx:TrackPointExtension xmlns:gpxtpx="http://www.garmin.com/xmlschemas/TrackPointExtension/v1">
            <gpxtpx:hr>122</gpxtpx:hr>
          </gpxtpx:TrackPointExtension>
        </extensions>
      </trkpt>
      <trkpt lat="48.61971" lon="1.97134">
        <ele>120.8</ele>
        <time>2025-11-16T11:47:42Z</time>
        <extensions>
          <gpxtpx:TrackPointExtension xmlns:gpxtpx="http://www.garmin.com/xmlschemas/TrackPointExtension/v1">
            <gpxtpx:hr>122</gpxtpx:hr>
          </gpxtpx:TrackPointExtension>
        </extensions>
      </trkpt>
      <trkpt lat="48.61972" lon="1.97136">
        <ele>120.6</ele>
        <time>2025-11-16T11:47:43Z</time>
        <extensions>
          <gpxtpx:TrackPointExtension xmlns:gpxtpx="http://www.garmin.com/xmlschemas/TrackPointExtension/v1">
            <gpxtpx:hr>122</gpxtpx:hr>
          </gpxtpx:TrackPointExtension>
        </extensions>
      </trkpt>
      <trkpt lat="48.61975" lon="1.9714">
        <ele>120.6</ele>
        <time>2025-11-16T11:47:45Z</time>
        <extensions>
          <gpxtpx:TrackPointExtension xmlns:gpxtpx="http://www.garmin.com/xmlschemas/TrackPointExtension/v1">
            <gpxtpx:hr>122</gpxtpx:hr>
          </gpxtpx:TrackPointExtension>
        </extensions>
      </trkpt>
      <trkpt lat="48.61976" lon="1.97142">
        <ele>120.6</ele>
        <time>2025-11-16T11:47:46Z</time>
        <extensions>
          <gpxtpx:TrackPointExtension xmlns:gpxtpx="http://www.garmin.com/xmlschemas/TrackPointExtension/v1">
            <gpxtpx:hr>121</gpxtpx:hr>
          </gpxtpx:TrackPointExtension>
        </extensions>
      </trkpt>
      <trkpt lat="48.61978" lon="1.97144">
        <ele>120.6</ele>
        <time>2025-11-16T11:47:47Z</time>
        <extensions>
          <gpxtpx:TrackPointExtension xmlns:gpxtpx="http://www.garmin.com/xmlschemas/TrackPointExtension/v1">
            <gpxtpx:hr>121</gpxtpx:hr>
          </gpxtpx:TrackPointExtension>
        </extensions>
      </trkpt>
      <trkpt lat="48.6198" lon="1.97148">
        <ele>120.6</ele>
        <time>2025-11-16T11:47:49Z</time>
        <extensions>
          <gpxtpx:TrackPointExtension xmlns:gpxtpx="http://www.garmin.com/xmlschemas/TrackPointExtension/v1">
            <gpxtpx:hr>121</gpxtpx:hr>
          </gpxtpx:TrackPointExtension>
        </extensions>
      </trkpt>
      <trkpt lat="48.61983" lon="1.97152">
        <ele>120.6</ele>
        <time>2025-11-16T11:47:51Z</time>
        <extensions>
          <gpxtpx:TrackPointExtension xmlns:gpxtpx="http://www.garmin.com/xmlschemas/TrackPointExtension/v1">
            <gpxtpx:hr>121</gpxtpx:hr>
          </gpxtpx:TrackPointExtension>
        </extensions>
      </trkpt>
      <trkpt lat="48.61984" lon="1.97154">
        <ele>120.6</ele>
        <time>2025-11-16T11:47:52Z</time>
        <extensions>
          <gpxtpx:TrackPointExtension xmlns:gpxtpx="http://www.garmin.com/xmlschemas/TrackPointExtension/v1">
            <gpxtpx:hr>121</gpxtpx:hr>
          </gpxtpx:TrackPointExtension>
        </extensions>
      </trkpt>
      <trkpt lat="48.61986" lon="1.97158">
        <ele>120.6</ele>
        <time>2025-11-16T11:47:54Z</time>
        <extensions>
          <gpxtpx:TrackPointExtension xmlns:gpxtpx="http://www.garmin.com/xmlschemas/TrackPointExtension/v1">
            <gpxtpx:hr>121</gpxtpx:hr>
          </gpxtpx:TrackPointExtension>
        </extensions>
      </trkpt>
      <trkpt lat="48.61988" lon="1.97162">
        <ele>120.8</ele>
        <time>2025-11-16T11:47:56Z</time>
        <extensions>
          <gpxtpx:TrackPointExtension xmlns:gpxtpx="http://www.garmin.com/xmlschemas/TrackPointExtension/v1">
            <gpxtpx:hr>121</gpxtpx:hr>
          </gpxtpx:TrackPointExtension>
        </extensions>
      </trkpt>
      <trkpt lat="48.61991" lon="1.97166">
        <ele>120.8</ele>
        <time>2025-11-16T11:47:58Z</time>
        <extensions>
          <gpxtpx:TrackPointExtension xmlns:gpxtpx="http://www.garmin.com/xmlschemas/TrackPointExtension/v1">
            <gpxtpx:hr>121</gpxtpx:hr>
          </gpxtpx:TrackPointExtension>
        </extensions>
      </trkpt>
      <trkpt lat="48.61993" lon="1.9717">
        <ele>120.8</ele>
        <time>2025-11-16T11:48:00Z</time>
        <extensions>
          <gpxtpx:TrackPointExtension xmlns:gpxtpx="http://www.garmin.com/xmlschemas/TrackPointExtension/v1">
            <gpxtpx:hr>121</gpxtpx:hr>
          </gpxtpx:TrackPointExtension>
        </extensions>
      </trkpt>
      <trkpt lat="48.61995" lon="1.97174">
        <ele>120.6</ele>
        <time>2025-11-16T11:48:02Z</time>
        <extensions>
          <gpxtpx:TrackPointExtension xmlns:gpxtpx="http://www.garmin.com/xmlschemas/TrackPointExtension/v1">
            <gpxtpx:hr>121</gpxtpx:hr>
          </gpxtpx:TrackPointExtension>
        </extensions>
      </trkpt>
      <trkpt lat="48.61996" lon="1.97178">
        <ele>120.4</ele>
        <time>2025-11-16T11:48:04Z</time>
        <extensions>
          <gpxtpx:TrackPointExtension xmlns:gpxtpx="http://www.garmin.com/xmlschemas/TrackPointExtension/v1">
            <gpxtpx:hr>121</gpxtpx:hr>
          </gpxtpx:TrackPointExtension>
        </extensions>
      </trkpt>
      <trkpt lat="48.61998" lon="1.97181">
        <ele>120.4</ele>
        <time>2025-11-16T11:48:06Z</time>
        <extensions>
          <gpxtpx:TrackPointExtension xmlns:gpxtpx="http://www.garmin.com/xmlschemas/TrackPointExtension/v1">
            <gpxtpx:hr>121</gpxtpx:hr>
          </gpxtpx:TrackPointExtension>
        </extensions>
      </trkpt>
      <trkpt lat="48.61999" lon="1.97185">
        <ele>120.2</ele>
        <time>2025-11-16T11:48:08Z</time>
        <extensions>
          <gpxtpx:TrackPointExtension xmlns:gpxtpx="http://www.garmin.com/xmlschemas/TrackPointExtension/v1">
            <gpxtpx:hr>121</gpxtpx:hr>
          </gpxtpx:TrackPointExtension>
        </extensions>
      </trkpt>
      <trkpt lat="48.62" lon="1.97187">
        <ele>120.2</ele>
        <time>2025-11-16T11:48:09Z</time>
        <extensions>
          <gpxtpx:TrackPointExtension xmlns:gpxtpx="http://www.garmin.com/xmlschemas/TrackPointExtension/v1">
            <gpxtpx:hr>121</gpxtpx:hr>
          </gpxtpx:TrackPointExtension>
        </extensions>
      </trkpt>
      <trkpt lat="48.62002" lon="1.97192">
        <ele>120</ele>
        <time>2025-11-16T11:48:11Z</time>
        <extensions>
          <gpxtpx:TrackPointExtension xmlns:gpxtpx="http://www.garmin.com/xmlschemas/TrackPointExtension/v1">
            <gpxtpx:hr>121</gpxtpx:hr>
          </gpxtpx:TrackPointExtension>
        </extensions>
      </trkpt>
      <trkpt lat="48.62004" lon="1.97195">
        <ele>120</ele>
        <time>2025-11-16T11:48:13Z</time>
        <extensions>
          <gpxtpx:TrackPointExtension xmlns:gpxtpx="http://www.garmin.com/xmlschemas/TrackPointExtension/v1">
            <gpxtpx:hr>121</gpxtpx:hr>
          </gpxtpx:TrackPointExtension>
        </extensions>
      </trkpt>
      <trkpt lat="48.62006" lon="1.97199">
        <ele>119.8</ele>
        <time>2025-11-16T11:48:15Z</time>
        <extensions>
          <gpxtpx:TrackPointExtension xmlns:gpxtpx="http://www.garmin.com/xmlschemas/TrackPointExtension/v1">
            <gpxtpx:hr>121</gpxtpx:hr>
          </gpxtpx:TrackPointExtension>
        </extensions>
      </trkpt>
      <trkpt lat="48.62007" lon="1.97202">
        <ele>119.8</ele>
        <time>2025-11-16T11:48:17Z</time>
        <extensions>
          <gpxtpx:TrackPointExtension xmlns:gpxtpx="http://www.garmin.com/xmlschemas/TrackPointExtension/v1">
            <gpxtpx:hr>121</gpxtpx:hr>
          </gpxtpx:TrackPointExtension>
        </extensions>
      </trkpt>
      <trkpt lat="48.62009" lon="1.97206">
        <ele>120</ele>
        <time>2025-11-16T11:48:19Z</time>
        <extensions>
          <gpxtpx:TrackPointExtension xmlns:gpxtpx="http://www.garmin.com/xmlschemas/TrackPointExtension/v1">
            <gpxtpx:hr>120</gpxtpx:hr>
          </gpxtpx:TrackPointExtension>
        </extensions>
      </trkpt>
      <trkpt lat="48.62011" lon="1.97209">
        <ele>120.2</ele>
        <time>2025-11-16T11:48:21Z</time>
        <extensions>
          <gpxtpx:TrackPointExtension xmlns:gpxtpx="http://www.garmin.com/xmlschemas/TrackPointExtension/v1">
            <gpxtpx:hr>120</gpxtpx:hr>
          </gpxtpx:TrackPointExtension>
        </extensions>
      </trkpt>
      <trkpt lat="48.62014" lon="1.97213">
        <ele>120.2</ele>
        <time>2025-11-16T11:48:23Z</time>
        <extensions>
          <gpxtpx:TrackPointExtension xmlns:gpxtpx="http://www.garmin.com/xmlschemas/TrackPointExtension/v1">
            <gpxtpx:hr>120</gpxtpx:hr>
          </gpxtpx:TrackPointExtension>
        </extensions>
      </trkpt>
      <trkpt lat="48.62017" lon="1.97216">
        <ele>120.2</ele>
        <time>2025-11-16T11:48:25Z</time>
        <extensions>
          <gpxtpx:TrackPointExtension xmlns:gpxtpx="http://www.garmin.com/xmlschemas/TrackPointExtension/v1">
            <gpxtpx:hr>119</gpxtpx:hr>
          </gpxtpx:TrackPointExtension>
        </extensions>
      </trkpt>
      <trkpt lat="48.62018" lon="1.97218">
        <ele>120.4</ele>
        <time>2025-11-16T11:48:26Z</time>
        <extensions>
          <gpxtpx:TrackPointExtension xmlns:gpxtpx="http://www.garmin.com/xmlschemas/TrackPointExtension/v1">
            <gpxtpx:hr>119</gpxtpx:hr>
          </gpxtpx:TrackPointExtension>
        </extensions>
      </trkpt>
      <trkpt lat="48.6202" lon="1.97222">
        <ele>120.4</ele>
        <time>2025-11-16T11:48:28Z</time>
        <extensions>
          <gpxtpx:TrackPointExtension xmlns:gpxtpx="http://www.garmin.com/xmlschemas/TrackPointExtension/v1">
            <gpxtpx:hr>119</gpxtpx:hr>
          </gpxtpx:TrackPointExtension>
        </extensions>
      </trkpt>
      <trkpt lat="48.62022" lon="1.97225">
        <ele>120.6</ele>
        <time>2025-11-16T11:48:30Z</time>
        <extensions>
          <gpxtpx:TrackPointExtension xmlns:gpxtpx="http://www.garmin.com/xmlschemas/TrackPointExtension/v1">
            <gpxtpx:hr>119</gpxtpx:hr>
          </gpxtpx:TrackPointExtension>
        </extensions>
      </trkpt>
      <trkpt lat="48.62024" lon="1.97229">
        <ele>120.6</ele>
        <time>2025-11-16T11:48:32Z</time>
        <extensions>
          <gpxtpx:TrackPointExtension xmlns:gpxtpx="http://www.garmin.com/xmlschemas/TrackPointExtension/v1">
            <gpxtpx:hr>118</gpxtpx:hr>
          </gpxtpx:TrackPointExtension>
        </extensions>
      </trkpt>
      <trkpt lat="48.62027" lon="1.97233">
        <ele>120.8</ele>
        <time>2025-11-16T11:48:34Z</time>
        <extensions>
          <gpxtpx:TrackPointExtension xmlns:gpxtpx="http://www.garmin.com/xmlschemas/TrackPointExtension/v1">
            <gpxtpx:hr>118</gpxtpx:hr>
          </gpxtpx:TrackPointExtension>
        </extensions>
      </trkpt>
      <trkpt lat="48.62028" lon="1.97236">
        <ele>121</ele>
        <time>2025-11-16T11:48:36Z</time>
        <extensions>
          <gpxtpx:TrackPointExtension xmlns:gpxtpx="http://www.garmin.com/xmlschemas/TrackPointExtension/v1">
            <gpxtpx:hr>118</gpxtpx:hr>
          </gpxtpx:TrackPointExtension>
        </extensions>
      </trkpt>
      <trkpt lat="48.6203" lon="1.97239">
        <ele>121.2</ele>
        <time>2025-11-16T11:48:38Z</time>
        <extensions>
          <gpxtpx:TrackPointExtension xmlns:gpxtpx="http://www.garmin.com/xmlschemas/TrackPointExtension/v1">
            <gpxtpx:hr>118</gpxtpx:hr>
          </gpxtpx:TrackPointExtension>
        </extensions>
      </trkpt>
      <trkpt lat="48.62032" lon="1.97242">
        <ele>121.6</ele>
        <time>2025-11-16T11:48:40Z</time>
        <extensions>
          <gpxtpx:TrackPointExtension xmlns:gpxtpx="http://www.garmin.com/xmlschemas/TrackPointExtension/v1">
            <gpxtpx:hr>118</gpxtpx:hr>
          </gpxtpx:TrackPointExtension>
        </extensions>
      </trkpt>
      <trkpt lat="48.62034" lon="1.97244">
        <ele>122.2</ele>
        <time>2025-11-16T11:48:42Z</time>
        <extensions>
          <gpxtpx:TrackPointExtension xmlns:gpxtpx="http://www.garmin.com/xmlschemas/TrackPointExtension/v1">
            <gpxtpx:hr>118</gpxtpx:hr>
          </gpxtpx:TrackPointExtension>
        </extensions>
      </trkpt>
      <trkpt lat="48.62036" lon="1.97247">
        <ele>122.8</ele>
        <time>2025-11-16T11:48:44Z</time>
        <extensions>
          <gpxtpx:TrackPointExtension xmlns:gpxtpx="http://www.garmin.com/xmlschemas/TrackPointExtension/v1">
            <gpxtpx:hr>118</gpxtpx:hr>
          </gpxtpx:TrackPointExtension>
        </extensions>
      </trkpt>
      <trkpt lat="48.62039" lon="1.97249">
        <ele>123.2</ele>
        <time>2025-11-16T11:48:46Z</time>
        <extensions>
          <gpxtpx:TrackPointExtension xmlns:gpxtpx="http://www.garmin.com/xmlschemas/TrackPointExtension/v1">
            <gpxtpx:hr>118</gpxtpx:hr>
          </gpxtpx:TrackPointExtension>
        </extensions>
      </trkpt>
      <trkpt lat="48.62042" lon="1.97253">
        <ele>123.6</ele>
        <time>2025-11-16T11:48:48Z</time>
        <extensions>
          <gpxtpx:TrackPointExtension xmlns:gpxtpx="http://www.garmin.com/xmlschemas/TrackPointExtension/v1">
            <gpxtpx:hr>118</gpxtpx:hr>
          </gpxtpx:TrackPointExtension>
        </extensions>
      </trkpt>
      <trkpt lat="48.62044" lon="1.97257">
        <ele>124</ele>
        <time>2025-11-16T11:48:50Z</time>
        <extensions>
          <gpxtpx:TrackPointExtension xmlns:gpxtpx="http://www.garmin.com/xmlschemas/TrackPointExtension/v1">
            <gpxtpx:hr>119</gpxtpx:hr>
          </gpxtpx:TrackPointExtension>
        </extensions>
      </trkpt>
      <trkpt lat="48.62045" lon="1.97261">
        <ele>124.2</ele>
        <time>2025-11-16T11:48:52Z</time>
        <extensions>
          <gpxtpx:TrackPointExtension xmlns:gpxtpx="http://www.garmin.com/xmlschemas/TrackPointExtension/v1">
            <gpxtpx:hr>119</gpxtpx:hr>
          </gpxtpx:TrackPointExtension>
        </extensions>
      </trkpt>
      <trkpt lat="48.62046" lon="1.97265">
        <ele>124.6</ele>
        <time>2025-11-16T11:48:54Z</time>
        <extensions>
          <gpxtpx:TrackPointExtension xmlns:gpxtpx="http://www.garmin.com/xmlschemas/TrackPointExtension/v1">
            <gpxtpx:hr>119</gpxtpx:hr>
          </gpxtpx:TrackPointExtension>
        </extensions>
      </trkpt>
      <trkpt lat="48.62048" lon="1.97269">
        <ele>124.8</ele>
        <time>2025-11-16T11:48:56Z</time>
        <extensions>
          <gpxtpx:TrackPointExtension xmlns:gpxtpx="http://www.garmin.com/xmlschemas/TrackPointExtension/v1">
            <gpxtpx:hr>119</gpxtpx:hr>
          </gpxtpx:TrackPointExtension>
        </extensions>
      </trkpt>
      <trkpt lat="48.6205" lon="1.97273">
        <ele>125</ele>
        <time>2025-11-16T11:48:58Z</time>
        <extensions>
          <gpxtpx:TrackPointExtension xmlns:gpxtpx="http://www.garmin.com/xmlschemas/TrackPointExtension/v1">
            <gpxtpx:hr>119</gpxtpx:hr>
          </gpxtpx:TrackPointExtension>
        </extensions>
      </trkpt>
      <trkpt lat="48.62052" lon="1.97277">
        <ele>125</ele>
        <time>2025-11-16T11:49:00Z</time>
        <extensions>
          <gpxtpx:TrackPointExtension xmlns:gpxtpx="http://www.garmin.com/xmlschemas/TrackPointExtension/v1">
            <gpxtpx:hr>120</gpxtpx:hr>
          </gpxtpx:TrackPointExtension>
        </extensions>
      </trkpt>
      <trkpt lat="48.62054" lon="1.9728">
        <ele>125.2</ele>
        <time>2025-11-16T11:49:02Z</time>
        <extensions>
          <gpxtpx:TrackPointExtension xmlns:gpxtpx="http://www.garmin.com/xmlschemas/TrackPointExtension/v1">
            <gpxtpx:hr>119</gpxtpx:hr>
          </gpxtpx:TrackPointExtension>
        </extensions>
      </trkpt>
      <trkpt lat="48.62056" lon="1.97283">
        <ele>125</ele>
        <time>2025-11-16T11:49:04Z</time>
        <extensions>
          <gpxtpx:TrackPointExtension xmlns:gpxtpx="http://www.garmin.com/xmlschemas/TrackPointExtension/v1">
            <gpxtpx:hr>119</gpxtpx:hr>
          </gpxtpx:TrackPointExtension>
        </extensions>
      </trkpt>
      <trkpt lat="48.62057" lon="1.97287">
        <ele>125</ele>
        <time>2025-11-16T11:49:06Z</time>
        <extensions>
          <gpxtpx:TrackPointExtension xmlns:gpxtpx="http://www.garmin.com/xmlschemas/TrackPointExtension/v1">
            <gpxtpx:hr>119</gpxtpx:hr>
          </gpxtpx:TrackPointExtension>
        </extensions>
      </trkpt>
      <trkpt lat="48.62059" lon="1.9729">
        <ele>124.8</ele>
        <time>2025-11-16T11:49:08Z</time>
        <extensions>
          <gpxtpx:TrackPointExtension xmlns:gpxtpx="http://www.garmin.com/xmlschemas/TrackPointExtension/v1">
            <gpxtpx:hr>119</gpxtpx:hr>
          </gpxtpx:TrackPointExtension>
        </extensions>
      </trkpt>
      <trkpt lat="48.6206" lon="1.97294">
        <ele>125</ele>
        <time>2025-11-16T11:49:10Z</time>
        <extensions>
          <gpxtpx:TrackPointExtension xmlns:gpxtpx="http://www.garmin.com/xmlschemas/TrackPointExtension/v1">
            <gpxtpx:hr>119</gpxtpx:hr>
          </gpxtpx:TrackPointExtension>
        </extensions>
      </trkpt>
      <trkpt lat="48.62061" lon="1.97298">
        <ele>125</ele>
        <time>2025-11-16T11:49:12Z</time>
        <extensions>
          <gpxtpx:TrackPointExtension xmlns:gpxtpx="http://www.garmin.com/xmlschemas/TrackPointExtension/v1">
            <gpxtpx:hr>119</gpxtpx:hr>
          </gpxtpx:TrackPointExtension>
        </extensions>
      </trkpt>
      <trkpt lat="48.62063" lon="1.97301">
        <ele>125</ele>
        <time>2025-11-16T11:49:14Z</time>
        <extensions>
          <gpxtpx:TrackPointExtension xmlns:gpxtpx="http://www.garmin.com/xmlschemas/TrackPointExtension/v1">
            <gpxtpx:hr>119</gpxtpx:hr>
          </gpxtpx:TrackPointExtension>
        </extensions>
      </trkpt>
      <trkpt lat="48.62064" lon="1.97305">
        <ele>125</ele>
        <time>2025-11-16T11:49:16Z</time>
        <extensions>
          <gpxtpx:TrackPointExtension xmlns:gpxtpx="http://www.garmin.com/xmlschemas/TrackPointExtension/v1">
            <gpxtpx:hr>118</gpxtpx:hr>
          </gpxtpx:TrackPointExtension>
        </extensions>
      </trkpt>
      <trkpt lat="48.62066" lon="1.97308">
        <ele>125</ele>
        <time>2025-11-16T11:49:18Z</time>
        <extensions>
          <gpxtpx:TrackPointExtension xmlns:gpxtpx="http://www.garmin.com/xmlschemas/TrackPointExtension/v1">
            <gpxtpx:hr>117</gpxtpx:hr>
          </gpxtpx:TrackPointExtension>
        </extensions>
      </trkpt>
      <trkpt lat="48.62067" lon="1.97312">
        <ele>125</ele>
        <time>2025-11-16T11:49:20Z</time>
        <extensions>
          <gpxtpx:TrackPointExtension xmlns:gpxtpx="http://www.garmin.com/xmlschemas/TrackPointExtension/v1">
            <gpxtpx:hr>116</gpxtpx:hr>
          </gpxtpx:TrackPointExtension>
        </extensions>
      </trkpt>
      <trkpt lat="48.62068" lon="1.97314">
        <ele>125</ele>
        <time>2025-11-16T11:49:21Z</time>
        <extensions>
          <gpxtpx:TrackPointExtension xmlns:gpxtpx="http://www.garmin.com/xmlschemas/TrackPointExtension/v1">
            <gpxtpx:hr>116</gpxtpx:hr>
          </gpxtpx:TrackPointExtension>
        </extensions>
      </trkpt>
      <trkpt lat="48.62069" lon="1.97316">
        <ele>125</ele>
        <time>2025-11-16T11:49:22Z</time>
        <extensions>
          <gpxtpx:TrackPointExtension xmlns:gpxtpx="http://www.garmin.com/xmlschemas/TrackPointExtension/v1">
            <gpxtpx:hr>116</gpxtpx:hr>
          </gpxtpx:TrackPointExtension>
        </extensions>
      </trkpt>
      <trkpt lat="48.62072" lon="1.9732">
        <ele>125.2</ele>
        <time>2025-11-16T11:49:24Z</time>
        <extensions>
          <gpxtpx:TrackPointExtension xmlns:gpxtpx="http://www.garmin.com/xmlschemas/TrackPointExtension/v1">
            <gpxtpx:hr>116</gpxtpx:hr>
          </gpxtpx:TrackPointExtension>
        </extensions>
      </trkpt>
      <trkpt lat="48.62074" lon="1.97324">
        <ele>125.2</ele>
        <time>2025-11-16T11:49:26Z</time>
        <extensions>
          <gpxtpx:TrackPointExtension xmlns:gpxtpx="http://www.garmin.com/xmlschemas/TrackPointExtension/v1">
            <gpxtpx:hr>115</gpxtpx:hr>
          </gpxtpx:TrackPointExtension>
        </extensions>
      </trkpt>
      <trkpt lat="48.62075" lon="1.97328">
        <ele>125.2</ele>
        <time>2025-11-16T11:49:28Z</time>
        <extensions>
          <gpxtpx:TrackPointExtension xmlns:gpxtpx="http://www.garmin.com/xmlschemas/TrackPointExtension/v1">
            <gpxtpx:hr>114</gpxtpx:hr>
          </gpxtpx:TrackPointExtension>
        </extensions>
      </trkpt>
      <trkpt lat="48.62076" lon="1.97332">
        <ele>125.4</ele>
        <time>2025-11-16T11:49:30Z</time>
        <extensions>
          <gpxtpx:TrackPointExtension xmlns:gpxtpx="http://www.garmin.com/xmlschemas/TrackPointExtension/v1">
            <gpxtpx:hr>113</gpxtpx:hr>
          </gpxtpx:TrackPointExtension>
        </extensions>
      </trkpt>
      <trkpt lat="48.62078" lon="1.97336">
        <ele>125.4</ele>
        <time>2025-11-16T11:49:32Z</time>
        <extensions>
          <gpxtpx:TrackPointExtension xmlns:gpxtpx="http://www.garmin.com/xmlschemas/TrackPointExtension/v1">
            <gpxtpx:hr>113</gpxtpx:hr>
          </gpxtpx:TrackPointExtension>
        </extensions>
      </trkpt>
      <trkpt lat="48.6208" lon="1.9734">
        <ele>125.4</ele>
        <time>2025-11-16T11:49:34Z</time>
        <extensions>
          <gpxtpx:TrackPointExtension xmlns:gpxtpx="http://www.garmin.com/xmlschemas/TrackPointExtension/v1">
            <gpxtpx:hr>112</gpxtpx:hr>
          </gpxtpx:TrackPointExtension>
        </extensions>
      </trkpt>
      <trkpt lat="48.62082" lon="1.97344">
        <ele>125.6</ele>
        <time>2025-11-16T11:49:36Z</time>
        <extensions>
          <gpxtpx:TrackPointExtension xmlns:gpxtpx="http://www.garmin.com/xmlschemas/TrackPointExtension/v1">
            <gpxtpx:hr>112</gpxtpx:hr>
          </gpxtpx:TrackPointExtension>
        </extensions>
      </trkpt>
      <trkpt lat="48.62083" lon="1.97347">
        <ele>125.6</ele>
        <time>2025-11-16T11:49:38Z</time>
        <extensions>
          <gpxtpx:TrackPointExtension xmlns:gpxtpx="http://www.garmin.com/xmlschemas/TrackPointExtension/v1">
            <gpxtpx:hr>112</gpxtpx:hr>
          </gpxtpx:TrackPointExtension>
        </extensions>
      </trkpt>
      <trkpt lat="48.62084" lon="1.9735">
        <ele>125.6</ele>
        <time>2025-11-16T11:49:40Z</time>
        <extensions>
          <gpxtpx:TrackPointExtension xmlns:gpxtpx="http://www.garmin.com/xmlschemas/TrackPointExtension/v1">
            <gpxtpx:hr>112</gpxtpx:hr>
          </gpxtpx:TrackPointExtension>
        </extensions>
      </trkpt>
      <trkpt lat="48.62086" lon="1.97354">
        <ele>125.6</ele>
        <time>2025-11-16T11:49:42Z</time>
        <extensions>
          <gpxtpx:TrackPointExtension xmlns:gpxtpx="http://www.garmin.com/xmlschemas/TrackPointExtension/v1">
            <gpxtpx:hr>112</gpxtpx:hr>
          </gpxtpx:TrackPointExtension>
        </extensions>
      </trkpt>
      <trkpt lat="48.62088" lon="1.97357">
        <ele>125.6</ele>
        <time>2025-11-16T11:49:44Z</time>
        <extensions>
          <gpxtpx:TrackPointExtension xmlns:gpxtpx="http://www.garmin.com/xmlschemas/TrackPointExtension/v1">
            <gpxtpx:hr>112</gpxtpx:hr>
          </gpxtpx:TrackPointExtension>
        </extensions>
      </trkpt>
      <trkpt lat="48.6209" lon="1.9736">
        <ele>125.6</ele>
        <time>2025-11-16T11:49:46Z</time>
        <extensions>
          <gpxtpx:TrackPointExtension xmlns:gpxtpx="http://www.garmin.com/xmlschemas/TrackPointExtension/v1">
            <gpxtpx:hr>112</gpxtpx:hr>
          </gpxtpx:TrackPointExtension>
        </extensions>
      </trkpt>
      <trkpt lat="48.62091" lon="1.97362">
        <ele>125.6</ele>
        <time>2025-11-16T11:49:48Z</time>
        <extensions>
          <gpxtpx:TrackPointExtension xmlns:gpxtpx="http://www.garmin.com/xmlschemas/TrackPointExtension/v1">
            <gpxtpx:hr>112</gpxtpx:hr>
          </gpxtpx:TrackPointExtension>
        </extensions>
      </trkpt>
      <trkpt lat="48.62093" lon="1.97364">
        <ele>125.6</ele>
        <time>2025-11-16T11:49:50Z</time>
        <extensions>
          <gpxtpx:TrackPointExtension xmlns:gpxtpx="http://www.garmin.com/xmlschemas/TrackPointExtension/v1">
            <gpxtpx:hr>112</gpxtpx:hr>
          </gpxtpx:TrackPointExtension>
        </extensions>
      </trkpt>
      <trkpt lat="48.62095" lon="1.97367">
        <ele>125.8</ele>
        <time>2025-11-16T11:49:52Z</time>
        <extensions>
          <gpxtpx:TrackPointExtension xmlns:gpxtpx="http://www.garmin.com/xmlschemas/TrackPointExtension/v1">
            <gpxtpx:hr>112</gpxtpx:hr>
          </gpxtpx:TrackPointExtension>
        </extensions>
      </trkpt>
      <trkpt lat="48.62097" lon="1.97369">
        <ele>125.8</ele>
        <time>2025-11-16T11:49:54Z</time>
        <extensions>
          <gpxtpx:TrackPointExtension xmlns:gpxtpx="http://www.garmin.com/xmlschemas/TrackPointExtension/v1">
            <gpxtpx:hr>112</gpxtpx:hr>
          </gpxtpx:TrackPointExtension>
        </extensions>
      </trkpt>
      <trkpt lat="48.62099" lon="1.97372">
        <ele>126</ele>
        <time>2025-11-16T11:49:56Z</time>
        <extensions>
          <gpxtpx:TrackPointExtension xmlns:gpxtpx="http://www.garmin.com/xmlschemas/TrackPointExtension/v1">
            <gpxtpx:hr>112</gpxtpx:hr>
          </gpxtpx:TrackPointExtension>
        </extensions>
      </trkpt>
      <trkpt lat="48.62101" lon="1.97376">
        <ele>126</ele>
        <time>2025-11-16T11:49:58Z</time>
        <extensions>
          <gpxtpx:TrackPointExtension xmlns:gpxtpx="http://www.garmin.com/xmlschemas/TrackPointExtension/v1">
            <gpxtpx:hr>112</gpxtpx:hr>
          </gpxtpx:TrackPointExtension>
        </extensions>
      </trkpt>
      <trkpt lat="48.62102" lon="1.97379">
        <ele>126.2</ele>
        <time>2025-11-16T11:50:00Z</time>
        <extensions>
          <gpxtpx:TrackPointExtension xmlns:gpxtpx="http://www.garmin.com/xmlschemas/TrackPointExtension/v1">
            <gpxtpx:hr>112</gpxtpx:hr>
          </gpxtpx:TrackPointExtension>
        </extensions>
      </trkpt>
      <trkpt lat="48.62103" lon="1.97383">
        <ele>126.4</ele>
        <time>2025-11-16T11:50:02Z</time>
        <extensions>
          <gpxtpx:TrackPointExtension xmlns:gpxtpx="http://www.garmin.com/xmlschemas/TrackPointExtension/v1">
            <gpxtpx:hr>112</gpxtpx:hr>
          </gpxtpx:TrackPointExtension>
        </extensions>
      </trkpt>
      <trkpt lat="48.62104" lon="1.97387">
        <ele>126.6</ele>
        <time>2025-11-16T11:50:04Z</time>
        <extensions>
          <gpxtpx:TrackPointExtension xmlns:gpxtpx="http://www.garmin.com/xmlschemas/TrackPointExtension/v1">
            <gpxtpx:hr>112</gpxtpx:hr>
          </gpxtpx:TrackPointExtension>
        </extensions>
      </trkpt>
      <trkpt lat="48.62107" lon="1.9739">
        <ele>126.8</ele>
        <time>2025-11-16T11:50:06Z</time>
        <extensions>
          <gpxtpx:TrackPointExtension xmlns:gpxtpx="http://www.garmin.com/xmlschemas/TrackPointExtension/v1">
            <gpxtpx:hr>112</gpxtpx:hr>
          </gpxtpx:TrackPointExtension>
        </extensions>
      </trkpt>
      <trkpt lat="48.6211" lon="1.97394">
        <ele>127</ele>
        <time>2025-11-16T11:50:08Z</time>
        <extensions>
          <gpxtpx:TrackPointExtension xmlns:gpxtpx="http://www.garmin.com/xmlschemas/TrackPointExtension/v1">
            <gpxtpx:hr>112</gpxtpx:hr>
          </gpxtpx:TrackPointExtension>
        </extensions>
      </trkpt>
      <trkpt lat="48.62111" lon="1.97396">
        <ele>127</ele>
        <time>2025-11-16T11:50:09Z</time>
        <extensions>
          <gpxtpx:TrackPointExtension xmlns:gpxtpx="http://www.garmin.com/xmlschemas/TrackPointExtension/v1">
            <gpxtpx:hr>113</gpxtpx:hr>
          </gpxtpx:TrackPointExtension>
        </extensions>
      </trkpt>
      <trkpt lat="48.62113" lon="1.97398">
        <ele>127.2</ele>
        <time>2025-11-16T11:50:10Z</time>
        <extensions>
          <gpxtpx:TrackPointExtension xmlns:gpxtpx="http://www.garmin.com/xmlschemas/TrackPointExtension/v1">
            <gpxtpx:hr>113</gpxtpx:hr>
          </gpxtpx:TrackPointExtension>
        </extensions>
      </trkpt>
      <trkpt lat="48.62114" lon="1.97399">
        <ele>127.4</ele>
        <time>2025-11-16T11:50:11Z</time>
        <extensions>
          <gpxtpx:TrackPointExtension xmlns:gpxtpx="http://www.garmin.com/xmlschemas/TrackPointExtension/v1">
            <gpxtpx:hr>113</gpxtpx:hr>
          </gpxtpx:TrackPointExtension>
        </extensions>
      </trkpt>
      <trkpt lat="48.62116" lon="1.97401">
        <ele>127.6</ele>
        <time>2025-11-16T11:50:12Z</time>
        <extensions>
          <gpxtpx:TrackPointExtension xmlns:gpxtpx="http://www.garmin.com/xmlschemas/TrackPointExtension/v1">
            <gpxtpx:hr>113</gpxtpx:hr>
          </gpxtpx:TrackPointExtension>
        </extensions>
      </trkpt>
      <trkpt lat="48.62118" lon="1.97405">
        <ele>127.8</ele>
        <time>2025-11-16T11:50:14Z</time>
        <extensions>
          <gpxtpx:TrackPointExtension xmlns:gpxtpx="http://www.garmin.com/xmlschemas/TrackPointExtension/v1">
            <gpxtpx:hr>113</gpxtpx:hr>
          </gpxtpx:TrackPointExtension>
        </extensions>
      </trkpt>
      <trkpt lat="48.62119" lon="1.97407">
        <ele>128</ele>
        <time>2025-11-16T11:50:15Z</time>
        <extensions>
          <gpxtpx:TrackPointExtension xmlns:gpxtpx="http://www.garmin.com/xmlschemas/TrackPointExtension/v1">
            <gpxtpx:hr>113</gpxtpx:hr>
          </gpxtpx:TrackPointExtension>
        </extensions>
      </trkpt>
      <trkpt lat="48.62121" lon="1.97409">
        <ele>128.2</ele>
        <time>2025-11-16T11:50:16Z</time>
        <extensions>
          <gpxtpx:TrackPointExtension xmlns:gpxtpx="http://www.garmin.com/xmlschemas/TrackPointExtension/v1">
            <gpxtpx:hr>113</gpxtpx:hr>
          </gpxtpx:TrackPointExtension>
        </extensions>
      </trkpt>
      <trkpt lat="48.62124" lon="1.97412">
        <ele>128.4</ele>
        <time>2025-11-16T11:50:18Z</time>
        <extensions>
          <gpxtpx:TrackPointExtension xmlns:gpxtpx="http://www.garmin.com/xmlschemas/TrackPointExtension/v1">
            <gpxtpx:hr>113</gpxtpx:hr>
          </gpxtpx:TrackPointExtension>
        </extensions>
      </trkpt>
      <trkpt lat="48.62126" lon="1.97414">
        <ele>128.6</ele>
        <time>2025-11-16T11:50:20Z</time>
        <extensions>
          <gpxtpx:TrackPointExtension xmlns:gpxtpx="http://www.garmin.com/xmlschemas/TrackPointExtension/v1">
            <gpxtpx:hr>113</gpxtpx:hr>
          </gpxtpx:TrackPointExtension>
        </extensions>
      </trkpt>
      <trkpt lat="48.62127" lon="1.9741">
        <ele>129</ele>
        <time>2025-11-16T11:50:24Z</time>
        <extensions>
          <gpxtpx:TrackPointExtension xmlns:gpxtpx="http://www.garmin.com/xmlschemas/TrackPointExtension/v1">
            <gpxtpx:hr>113</gpxtpx:hr>
          </gpxtpx:TrackPointExtension>
        </extensions>
      </trkpt>
      <trkpt lat="48.62128" lon="1.97407">
        <ele>129</ele>
        <time>2025-11-16T11:50:26Z</time>
        <extensions>
          <gpxtpx:TrackPointExtension xmlns:gpxtpx="http://www.garmin.com/xmlschemas/TrackPointExtension/v1">
            <gpxtpx:hr>113</gpxtpx:hr>
          </gpxtpx:TrackPointExtension>
        </extensions>
      </trkpt>
      <trkpt lat="48.6213" lon="1.97403">
        <ele>129.2</ele>
        <time>2025-11-16T11:50:28Z</time>
        <extensions>
          <gpxtpx:TrackPointExtension xmlns:gpxtpx="http://www.garmin.com/xmlschemas/TrackPointExtension/v1">
            <gpxtpx:hr>113</gpxtpx:hr>
          </gpxtpx:TrackPointExtension>
        </extensions>
      </trkpt>
      <trkpt lat="48.62132" lon="1.974">
        <ele>129.2</ele>
        <time>2025-11-16T11:50:30Z</time>
        <extensions>
          <gpxtpx:TrackPointExtension xmlns:gpxtpx="http://www.garmin.com/xmlschemas/TrackPointExtension/v1">
            <gpxtpx:hr>113</gpxtpx:hr>
          </gpxtpx:TrackPointExtension>
        </extensions>
      </trkpt>
      <trkpt lat="48.62133" lon="1.97396">
        <ele>129.2</ele>
        <time>2025-11-16T11:50:32Z</time>
        <extensions>
          <gpxtpx:TrackPointExtension xmlns:gpxtpx="http://www.garmin.com/xmlschemas/TrackPointExtension/v1">
            <gpxtpx:hr>115</gpxtpx:hr>
          </gpxtpx:TrackPointExtension>
        </extensions>
      </trkpt>
      <trkpt lat="48.62134" lon="1.97392">
        <ele>129.2</ele>
        <time>2025-11-16T11:50:34Z</time>
        <extensions>
          <gpxtpx:TrackPointExtension xmlns:gpxtpx="http://www.garmin.com/xmlschemas/TrackPointExtension/v1">
            <gpxtpx:hr>116</gpxtpx:hr>
          </gpxtpx:TrackPointExtension>
        </extensions>
      </trkpt>
      <trkpt lat="48.62135" lon="1.97389">
        <ele>129.2</ele>
        <time>2025-11-16T11:50:36Z</time>
        <extensions>
          <gpxtpx:TrackPointExtension xmlns:gpxtpx="http://www.garmin.com/xmlschemas/TrackPointExtension/v1">
            <gpxtpx:hr>116</gpxtpx:hr>
          </gpxtpx:TrackPointExtension>
        </extensions>
      </trkpt>
      <trkpt lat="48.62136" lon="1.97385">
        <ele>129.2</ele>
        <time>2025-11-16T11:50:38Z</time>
        <extensions>
          <gpxtpx:TrackPointExtension xmlns:gpxtpx="http://www.garmin.com/xmlschemas/TrackPointExtension/v1">
            <gpxtpx:hr>116</gpxtpx:hr>
          </gpxtpx:TrackPointExtension>
        </extensions>
      </trkpt>
      <trkpt lat="48.62136" lon="1.97381">
        <ele>129.4</ele>
        <time>2025-11-16T11:50:40Z</time>
        <extensions>
          <gpxtpx:TrackPointExtension xmlns:gpxtpx="http://www.garmin.com/xmlschemas/TrackPointExtension/v1">
            <gpxtpx:hr>116</gpxtpx:hr>
          </gpxtpx:TrackPointExtension>
        </extensions>
      </trkpt>
      <trkpt lat="48.62137" lon="1.97377">
        <ele>129.4</ele>
        <time>2025-11-16T11:50:42Z</time>
        <extensions>
          <gpxtpx:TrackPointExtension xmlns:gpxtpx="http://www.garmin.com/xmlschemas/TrackPointExtension/v1">
            <gpxtpx:hr>116</gpxtpx:hr>
          </gpxtpx:TrackPointExtension>
        </extensions>
      </trkpt>
      <trkpt lat="48.62138" lon="1.97373">
        <ele>129.4</ele>
        <time>2025-11-16T11:50:44Z</time>
        <extensions>
          <gpxtpx:TrackPointExtension xmlns:gpxtpx="http://www.garmin.com/xmlschemas/TrackPointExtension/v1">
            <gpxtpx:hr>116</gpxtpx:hr>
          </gpxtpx:TrackPointExtension>
        </extensions>
      </trkpt>
      <trkpt lat="48.6214" lon="1.97368">
        <ele>129.4</ele>
        <time>2025-11-16T11:50:46Z</time>
        <extensions>
          <gpxtpx:TrackPointExtension xmlns:gpxtpx="http://www.garmin.com/xmlschemas/TrackPointExtension/v1">
            <gpxtpx:hr>116</gpxtpx:hr>
          </gpxtpx:TrackPointExtension>
        </extensions>
      </trkpt>
      <trkpt lat="48.62141" lon="1.97364">
        <ele>129.4</ele>
        <time>2025-11-16T11:50:48Z</time>
        <extensions>
          <gpxtpx:TrackPointExtension xmlns:gpxtpx="http://www.garmin.com/xmlschemas/TrackPointExtension/v1">
            <gpxtpx:hr>116</gpxtpx:hr>
          </gpxtpx:TrackPointExtension>
        </extensions>
      </trkpt>
      <trkpt lat="48.62142" lon="1.97361">
        <ele>129.4</ele>
        <time>2025-11-16T11:50:49Z</time>
        <extensions>
          <gpxtpx:TrackPointExtension xmlns:gpxtpx="http://www.garmin.com/xmlschemas/TrackPointExtension/v1">
            <gpxtpx:hr>116</gpxtpx:hr>
          </gpxtpx:TrackPointExtension>
        </extensions>
      </trkpt>
      <trkpt lat="48.62143" lon="1.97359">
        <ele>129.6</ele>
        <time>2025-11-16T11:50:50Z</time>
        <extensions>
          <gpxtpx:TrackPointExtension xmlns:gpxtpx="http://www.garmin.com/xmlschemas/TrackPointExtension/v1">
            <gpxtpx:hr>116</gpxtpx:hr>
          </gpxtpx:TrackPointExtension>
        </extensions>
      </trkpt>
      <trkpt lat="48.62144" lon="1.97355">
        <ele>129.8</ele>
        <time>2025-11-16T11:50:52Z</time>
        <extensions>
          <gpxtpx:TrackPointExtension xmlns:gpxtpx="http://www.garmin.com/xmlschemas/TrackPointExtension/v1">
            <gpxtpx:hr>116</gpxtpx:hr>
          </gpxtpx:TrackPointExtension>
        </extensions>
      </trkpt>
      <trkpt lat="48.62146" lon="1.97351">
        <ele>129.8</ele>
        <time>2025-11-16T11:50:54Z</time>
        <extensions>
          <gpxtpx:TrackPointExtension xmlns:gpxtpx="http://www.garmin.com/xmlschemas/TrackPointExtension/v1">
            <gpxtpx:hr>116</gpxtpx:hr>
          </gpxtpx:TrackPointExtension>
        </extensions>
      </trkpt>
      <trkpt lat="48.62147" lon="1.97348">
        <ele>130</ele>
        <time>2025-11-16T11:50:56Z</time>
        <extensions>
          <gpxtpx:TrackPointExtension xmlns:gpxtpx="http://www.garmin.com/xmlschemas/TrackPointExtension/v1">
            <gpxtpx:hr>117</gpxtpx:hr>
          </gpxtpx:TrackPointExtension>
        </extensions>
      </trkpt>
      <trkpt lat="48.62149" lon="1.97345">
        <ele>130</ele>
        <time>2025-11-16T11:50:58Z</time>
        <extensions>
          <gpxtpx:TrackPointExtension xmlns:gpxtpx="http://www.garmin.com/xmlschemas/TrackPointExtension/v1">
            <gpxtpx:hr>117</gpxtpx:hr>
          </gpxtpx:TrackPointExtension>
        </extensions>
      </trkpt>
      <trkpt lat="48.62151" lon="1.97341">
        <ele>130.2</ele>
        <time>2025-11-16T11:51:00Z</time>
        <extensions>
          <gpxtpx:TrackPointExtension xmlns:gpxtpx="http://www.garmin.com/xmlschemas/TrackPointExtension/v1">
            <gpxtpx:hr>118</gpxtpx:hr>
          </gpxtpx:TrackPointExtension>
        </extensions>
      </trkpt>
      <trkpt lat="48.62153" lon="1.97337">
        <ele>130.2</ele>
        <time>2025-11-16T11:51:02Z</time>
        <extensions>
          <gpxtpx:TrackPointExtension xmlns:gpxtpx="http://www.garmin.com/xmlschemas/TrackPointExtension/v1">
            <gpxtpx:hr>118</gpxtpx:hr>
          </gpxtpx:TrackPointExtension>
        </extensions>
      </trkpt>
      <trkpt lat="48.62156" lon="1.97334">
        <ele>130.2</ele>
        <time>2025-11-16T11:51:04Z</time>
        <extensions>
          <gpxtpx:TrackPointExtension xmlns:gpxtpx="http://www.garmin.com/xmlschemas/TrackPointExtension/v1">
            <gpxtpx:hr>115</gpxtpx:hr>
          </gpxtpx:TrackPointExtension>
        </extensions>
      </trkpt>
      <trkpt lat="48.62157" lon="1.9733">
        <ele>130.4</ele>
        <time>2025-11-16T11:51:06Z</time>
        <extensions>
          <gpxtpx:TrackPointExtension xmlns:gpxtpx="http://www.garmin.com/xmlschemas/TrackPointExtension/v1">
            <gpxtpx:hr>114</gpxtpx:hr>
          </gpxtpx:TrackPointExtension>
        </extensions>
      </trkpt>
      <trkpt lat="48.6216" lon="1.97327">
        <ele>130.6</ele>
        <time>2025-11-16T11:51:08Z</time>
        <extensions>
          <gpxtpx:TrackPointExtension xmlns:gpxtpx="http://www.garmin.com/xmlschemas/TrackPointExtension/v1">
            <gpxtpx:hr>113</gpxtpx:hr>
          </gpxtpx:TrackPointExtension>
        </extensions>
      </trkpt>
      <trkpt lat="48.62163" lon="1.97324">
        <ele>130.8</ele>
        <time>2025-11-16T11:51:10Z</time>
        <extensions>
          <gpxtpx:TrackPointExtension xmlns:gpxtpx="http://www.garmin.com/xmlschemas/TrackPointExtension/v1">
            <gpxtpx:hr>112</gpxtpx:hr>
          </gpxtpx:TrackPointExtension>
        </extensions>
      </trkpt>
      <trkpt lat="48.62165" lon="1.97321">
        <ele>131</ele>
        <time>2025-11-16T11:51:12Z</time>
        <extensions>
          <gpxtpx:TrackPointExtension xmlns:gpxtpx="http://www.garmin.com/xmlschemas/TrackPointExtension/v1">
            <gpxtpx:hr>112</gpxtpx:hr>
          </gpxtpx:TrackPointExtension>
        </extensions>
      </trkpt>
      <trkpt lat="48.62167" lon="1.9732">
        <ele>131</ele>
        <time>2025-11-16T11:51:13Z</time>
        <extensions>
          <gpxtpx:TrackPointExtension xmlns:gpxtpx="http://www.garmin.com/xmlschemas/TrackPointExtension/v1">
            <gpxtpx:hr>112</gpxtpx:hr>
          </gpxtpx:TrackPointExtension>
        </extensions>
      </trkpt>
      <trkpt lat="48.62169" lon="1.97316">
        <ele>131.2</ele>
        <time>2025-11-16T11:51:15Z</time>
        <extensions>
          <gpxtpx:TrackPointExtension xmlns:gpxtpx="http://www.garmin.com/xmlschemas/TrackPointExtension/v1">
            <gpxtpx:hr>112</gpxtpx:hr>
          </gpxtpx:TrackPointExtension>
        </extensions>
      </trkpt>
      <trkpt lat="48.62171" lon="1.97313">
        <ele>131.4</ele>
        <time>2025-11-16T11:51:17Z</time>
        <extensions>
          <gpxtpx:TrackPointExtension xmlns:gpxtpx="http://www.garmin.com/xmlschemas/TrackPointExtension/v1">
            <gpxtpx:hr>112</gpxtpx:hr>
          </gpxtpx:TrackPointExtension>
        </extensions>
      </trkpt>
      <trkpt lat="48.62173" lon="1.9731">
        <ele>131.8</ele>
        <time>2025-11-16T11:51:19Z</time>
        <extensions>
          <gpxtpx:TrackPointExtension xmlns:gpxtpx="http://www.garmin.com/xmlschemas/TrackPointExtension/v1">
            <gpxtpx:hr>112</gpxtpx:hr>
          </gpxtpx:TrackPointExtension>
        </extensions>
      </trkpt>
      <trkpt lat="48.62175" lon="1.97307">
        <ele>132.2</ele>
        <time>2025-11-16T11:51:21Z</time>
        <extensions>
          <gpxtpx:TrackPointExtension xmlns:gpxtpx="http://www.garmin.com/xmlschemas/TrackPointExtension/v1">
            <gpxtpx:hr>112</gpxtpx:hr>
          </gpxtpx:TrackPointExtension>
        </extensions>
      </trkpt>
      <trkpt lat="48.62177" lon="1.97305">
        <ele>132.4</ele>
        <time>2025-11-16T11:51:23Z</time>
        <extensions>
          <gpxtpx:TrackPointExtension xmlns:gpxtpx="http://www.garmin.com/xmlschemas/TrackPointExtension/v1">
            <gpxtpx:hr>112</gpxtpx:hr>
          </gpxtpx:TrackPointExtension>
        </extensions>
      </trkpt>
      <trkpt lat="48.6218" lon="1.97302">
        <ele>132.6</ele>
        <time>2025-11-16T11:51:25Z</time>
        <extensions>
          <gpxtpx:TrackPointExtension xmlns:gpxtpx="http://www.garmin.com/xmlschemas/TrackPointExtension/v1">
            <gpxtpx:hr>112</gpxtpx:hr>
          </gpxtpx:TrackPointExtension>
        </extensions>
      </trkpt>
      <trkpt lat="48.62182" lon="1.97299">
        <ele>132.8</ele>
        <time>2025-11-16T11:51:27Z</time>
        <extensions>
          <gpxtpx:TrackPointExtension xmlns:gpxtpx="http://www.garmin.com/xmlschemas/TrackPointExtension/v1">
            <gpxtpx:hr>112</gpxtpx:hr>
          </gpxtpx:TrackPointExtension>
        </extensions>
      </trkpt>
      <trkpt lat="48.62184" lon="1.97297">
        <ele>133</ele>
        <time>2025-11-16T11:51:28Z</time>
        <extensions>
          <gpxtpx:TrackPointExtension xmlns:gpxtpx="http://www.garmin.com/xmlschemas/TrackPointExtension/v1">
            <gpxtpx:hr>112</gpxtpx:hr>
          </gpxtpx:TrackPointExtension>
        </extensions>
      </trkpt>
      <trkpt lat="48.62187" lon="1.97294">
        <ele>133.2</ele>
        <time>2025-11-16T11:51:30Z</time>
        <extensions>
          <gpxtpx:TrackPointExtension xmlns:gpxtpx="http://www.garmin.com/xmlschemas/TrackPointExtension/v1">
            <gpxtpx:hr>112</gpxtpx:hr>
          </gpxtpx:TrackPointExtension>
        </extensions>
      </trkpt>
      <trkpt lat="48.62189" lon="1.97292">
        <ele>133.4</ele>
        <time>2025-11-16T11:51:32Z</time>
        <extensions>
          <gpxtpx:TrackPointExtension xmlns:gpxtpx="http://www.garmin.com/xmlschemas/TrackPointExtension/v1">
            <gpxtpx:hr>112</gpxtpx:hr>
          </gpxtpx:TrackPointExtension>
        </extensions>
      </trkpt>
      <trkpt lat="48.62191" lon="1.97291">
        <ele>133.4</ele>
        <time>2025-11-16T11:51:33Z</time>
        <extensions>
          <gpxtpx:TrackPointExtension xmlns:gpxtpx="http://www.garmin.com/xmlschemas/TrackPointExtension/v1">
            <gpxtpx:hr>112</gpxtpx:hr>
          </gpxtpx:TrackPointExtension>
        </extensions>
      </trkpt>
      <trkpt lat="48.62193" lon="1.97288">
        <ele>133.4</ele>
        <time>2025-11-16T11:51:35Z</time>
        <extensions>
          <gpxtpx:TrackPointExtension xmlns:gpxtpx="http://www.garmin.com/xmlschemas/TrackPointExtension/v1">
            <gpxtpx:hr>112</gpxtpx:hr>
          </gpxtpx:TrackPointExtension>
        </extensions>
      </trkpt>
      <trkpt lat="48.62196" lon="1.97286">
        <ele>133.4</ele>
        <time>2025-11-16T11:51:37Z</time>
        <extensions>
          <gpxtpx:TrackPointExtension xmlns:gpxtpx="http://www.garmin.com/xmlschemas/TrackPointExtension/v1">
            <gpxtpx:hr>112</gpxtpx:hr>
          </gpxtpx:TrackPointExtension>
        </extensions>
      </trkpt>
      <trkpt lat="48.62199" lon="1.97284">
        <ele>133.2</ele>
        <time>2025-11-16T11:51:39Z</time>
        <extensions>
          <gpxtpx:TrackPointExtension xmlns:gpxtpx="http://www.garmin.com/xmlschemas/TrackPointExtension/v1">
            <gpxtpx:hr>113</gpxtpx:hr>
          </gpxtpx:TrackPointExtension>
        </extensions>
      </trkpt>
      <trkpt lat="48.62201" lon="1.97282">
        <ele>133.2</ele>
        <time>2025-11-16T11:51:41Z</time>
        <extensions>
          <gpxtpx:TrackPointExtension xmlns:gpxtpx="http://www.garmin.com/xmlschemas/TrackPointExtension/v1">
            <gpxtpx:hr>113</gpxtpx:hr>
          </gpxtpx:TrackPointExtension>
        </extensions>
      </trkpt>
      <trkpt lat="48.62204" lon="1.97279">
        <ele>133.2</ele>
        <time>2025-11-16T11:51:43Z</time>
        <extensions>
          <gpxtpx:TrackPointExtension xmlns:gpxtpx="http://www.garmin.com/xmlschemas/TrackPointExtension/v1">
            <gpxtpx:hr>113</gpxtpx:hr>
          </gpxtpx:TrackPointExtension>
        </extensions>
      </trkpt>
      <trkpt lat="48.62206" lon="1.97277">
        <ele>133.4</ele>
        <time>2025-11-16T11:51:45Z</time>
        <extensions>
          <gpxtpx:TrackPointExtension xmlns:gpxtpx="http://www.garmin.com/xmlschemas/TrackPointExtension/v1">
            <gpxtpx:hr>113</gpxtpx:hr>
          </gpxtpx:TrackPointExtension>
        </extensions>
      </trkpt>
      <trkpt lat="48.62208" lon="1.97274">
        <ele>133.4</ele>
        <time>2025-11-16T11:51:47Z</time>
        <extensions>
          <gpxtpx:TrackPointExtension xmlns:gpxtpx="http://www.garmin.com/xmlschemas/TrackPointExtension/v1">
            <gpxtpx:hr>113</gpxtpx:hr>
          </gpxtpx:TrackPointExtension>
        </extensions>
      </trkpt>
      <trkpt lat="48.6221" lon="1.97271">
        <ele>133.6</ele>
        <time>2025-11-16T11:51:49Z</time>
        <extensions>
          <gpxtpx:TrackPointExtension xmlns:gpxtpx="http://www.garmin.com/xmlschemas/TrackPointExtension/v1">
            <gpxtpx:hr>113</gpxtpx:hr>
          </gpxtpx:TrackPointExtension>
        </extensions>
      </trkpt>
      <trkpt lat="48.62212" lon="1.97267">
        <ele>133.8</ele>
        <time>2025-11-16T11:51:51Z</time>
        <extensions>
          <gpxtpx:TrackPointExtension xmlns:gpxtpx="http://www.garmin.com/xmlschemas/TrackPointExtension/v1">
            <gpxtpx:hr>112</gpxtpx:hr>
          </gpxtpx:TrackPointExtension>
        </extensions>
      </trkpt>
      <trkpt lat="48.62215" lon="1.97264">
        <ele>133.8</ele>
        <time>2025-11-16T11:51:53Z</time>
        <extensions>
          <gpxtpx:TrackPointExtension xmlns:gpxtpx="http://www.garmin.com/xmlschemas/TrackPointExtension/v1">
            <gpxtpx:hr>112</gpxtpx:hr>
          </gpxtpx:TrackPointExtension>
        </extensions>
      </trkpt>
      <trkpt lat="48.62217" lon="1.97261">
        <ele>134</ele>
        <time>2025-11-16T11:51:55Z</time>
        <extensions>
          <gpxtpx:TrackPointExtension xmlns:gpxtpx="http://www.garmin.com/xmlschemas/TrackPointExtension/v1">
            <gpxtpx:hr>112</gpxtpx:hr>
          </gpxtpx:TrackPointExtension>
        </extensions>
      </trkpt>
      <trkpt lat="48.62218" lon="1.97257">
        <ele>134</ele>
        <time>2025-11-16T11:51:57Z</time>
        <extensions>
          <gpxtpx:TrackPointExtension xmlns:gpxtpx="http://www.garmin.com/xmlschemas/TrackPointExtension/v1">
            <gpxtpx:hr>112</gpxtpx:hr>
          </gpxtpx:TrackPointExtension>
        </extensions>
      </trkpt>
      <trkpt lat="48.62221" lon="1.97253">
        <ele>134</ele>
        <time>2025-11-16T11:51:59Z</time>
        <extensions>
          <gpxtpx:TrackPointExtension xmlns:gpxtpx="http://www.garmin.com/xmlschemas/TrackPointExtension/v1">
            <gpxtpx:hr>112</gpxtpx:hr>
          </gpxtpx:TrackPointExtension>
        </extensions>
      </trkpt>
      <trkpt lat="48.62222" lon="1.97252">
        <ele>134</ele>
        <time>2025-11-16T11:52:00Z</time>
        <extensions>
          <gpxtpx:TrackPointExtension xmlns:gpxtpx="http://www.garmin.com/xmlschemas/TrackPointExtension/v1">
            <gpxtpx:hr>112</gpxtpx:hr>
          </gpxtpx:TrackPointExtension>
        </extensions>
      </trkpt>
      <trkpt lat="48.62224" lon="1.9725">
        <ele>134</ele>
        <time>2025-11-16T11:52:01Z</time>
        <extensions>
          <gpxtpx:TrackPointExtension xmlns:gpxtpx="http://www.garmin.com/xmlschemas/TrackPointExtension/v1">
            <gpxtpx:hr>112</gpxtpx:hr>
          </gpxtpx:TrackPointExtension>
        </extensions>
      </trkpt>
      <trkpt lat="48.62227" lon="1.97247">
        <ele>134.2</ele>
        <time>2025-11-16T11:52:03Z</time>
        <extensions>
          <gpxtpx:TrackPointExtension xmlns:gpxtpx="http://www.garmin.com/xmlschemas/TrackPointExtension/v1">
            <gpxtpx:hr>112</gpxtpx:hr>
          </gpxtpx:TrackPointExtension>
        </extensions>
      </trkpt>
      <trkpt lat="48.62229" lon="1.97244">
        <ele>134.4</ele>
        <time>2025-11-16T11:52:05Z</time>
        <extensions>
          <gpxtpx:TrackPointExtension xmlns:gpxtpx="http://www.garmin.com/xmlschemas/TrackPointExtension/v1">
            <gpxtpx:hr>112</gpxtpx:hr>
          </gpxtpx:TrackPointExtension>
        </extensions>
      </trkpt>
      <trkpt lat="48.62231" lon="1.97241">
        <ele>134.8</ele>
        <time>2025-11-16T11:52:07Z</time>
        <extensions>
          <gpxtpx:TrackPointExtension xmlns:gpxtpx="http://www.garmin.com/xmlschemas/TrackPointExtension/v1">
            <gpxtpx:hr>112</gpxtpx:hr>
          </gpxtpx:TrackPointExtension>
        </extensions>
      </trkpt>
      <trkpt lat="48.62233" lon="1.97238">
        <ele>135</ele>
        <time>2025-11-16T11:52:09Z</time>
        <extensions>
          <gpxtpx:TrackPointExtension xmlns:gpxtpx="http://www.garmin.com/xmlschemas/TrackPointExtension/v1">
            <gpxtpx:hr>112</gpxtpx:hr>
          </gpxtpx:TrackPointExtension>
        </extensions>
      </trkpt>
      <trkpt lat="48.62236" lon="1.97236">
        <ele>135.4</ele>
        <time>2025-11-16T11:52:11Z</time>
        <extensions>
          <gpxtpx:TrackPointExtension xmlns:gpxtpx="http://www.garmin.com/xmlschemas/TrackPointExtension/v1">
            <gpxtpx:hr>112</gpxtpx:hr>
          </gpxtpx:TrackPointExtension>
        </extensions>
      </trkpt>
      <trkpt lat="48.62239" lon="1.97234">
        <ele>135.6</ele>
        <time>2025-11-16T11:52:13Z</time>
        <extensions>
          <gpxtpx:TrackPointExtension xmlns:gpxtpx="http://www.garmin.com/xmlschemas/TrackPointExtension/v1">
            <gpxtpx:hr>112</gpxtpx:hr>
          </gpxtpx:TrackPointExtension>
        </extensions>
      </trkpt>
      <trkpt lat="48.6224" lon="1.97232">
        <ele>136</ele>
        <time>2025-11-16T11:52:15Z</time>
        <extensions>
          <gpxtpx:TrackPointExtension xmlns:gpxtpx="http://www.garmin.com/xmlschemas/TrackPointExtension/v1">
            <gpxtpx:hr>112</gpxtpx:hr>
          </gpxtpx:TrackPointExtension>
        </extensions>
      </trkpt>
      <trkpt lat="48.62242" lon="1.97229">
        <ele>136.4</ele>
        <time>2025-11-16T11:52:17Z</time>
        <extensions>
          <gpxtpx:TrackPointExtension xmlns:gpxtpx="http://www.garmin.com/xmlschemas/TrackPointExtension/v1">
            <gpxtpx:hr>112</gpxtpx:hr>
          </gpxtpx:TrackPointExtension>
        </extensions>
      </trkpt>
      <trkpt lat="48.62244" lon="1.97226">
        <ele>136.8</ele>
        <time>2025-11-16T11:52:19Z</time>
        <extensions>
          <gpxtpx:TrackPointExtension xmlns:gpxtpx="http://www.garmin.com/xmlschemas/TrackPointExtension/v1">
            <gpxtpx:hr>112</gpxtpx:hr>
          </gpxtpx:TrackPointExtension>
        </extensions>
      </trkpt>
      <trkpt lat="48.62246" lon="1.97224">
        <ele>137</ele>
        <time>2025-11-16T11:52:20Z</time>
        <extensions>
          <gpxtpx:TrackPointExtension xmlns:gpxtpx="http://www.garmin.com/xmlschemas/TrackPointExtension/v1">
            <gpxtpx:hr>112</gpxtpx:hr>
          </gpxtpx:TrackPointExtension>
        </extensions>
      </trkpt>
      <trkpt lat="48.62247" lon="1.97221">
        <ele>137</ele>
        <time>2025-11-16T11:52:21Z</time>
        <extensions>
          <gpxtpx:TrackPointExtension xmlns:gpxtpx="http://www.garmin.com/xmlschemas/TrackPointExtension/v1">
            <gpxtpx:hr>112</gpxtpx:hr>
          </gpxtpx:TrackPointExtension>
        </extensions>
      </trkpt>
      <trkpt lat="48.62249" lon="1.97219">
        <ele>137.2</ele>
        <time>2025-11-16T11:52:22Z</time>
        <extensions>
          <gpxtpx:TrackPointExtension xmlns:gpxtpx="http://www.garmin.com/xmlschemas/TrackPointExtension/v1">
            <gpxtpx:hr>112</gpxtpx:hr>
          </gpxtpx:TrackPointExtension>
        </extensions>
      </trkpt>
      <trkpt lat="48.62251" lon="1.97217">
        <ele>137.6</ele>
        <time>2025-11-16T11:52:23Z</time>
        <extensions>
          <gpxtpx:TrackPointExtension xmlns:gpxtpx="http://www.garmin.com/xmlschemas/TrackPointExtension/v1">
            <gpxtpx:hr>112</gpxtpx:hr>
          </gpxtpx:TrackPointExtension>
        </extensions>
      </trkpt>
      <trkpt lat="48.62253" lon="1.97214">
        <ele>137.8</ele>
        <time>2025-11-16T11:52:25Z</time>
        <extensions>
          <gpxtpx:TrackPointExtension xmlns:gpxtpx="http://www.garmin.com/xmlschemas/TrackPointExtension/v1">
            <gpxtpx:hr>112</gpxtpx:hr>
          </gpxtpx:TrackPointExtension>
        </extensions>
      </trkpt>
      <trkpt lat="48.62255" lon="1.97211">
        <ele>138.2</ele>
        <time>2025-11-16T11:52:27Z</time>
        <extensions>
          <gpxtpx:TrackPointExtension xmlns:gpxtpx="http://www.garmin.com/xmlschemas/TrackPointExtension/v1">
            <gpxtpx:hr>112</gpxtpx:hr>
          </gpxtpx:TrackPointExtension>
        </extensions>
      </trkpt>
      <trkpt lat="48.62258" lon="1.97208">
        <ele>138.4</ele>
        <time>2025-11-16T11:52:29Z</time>
        <extensions>
          <gpxtpx:TrackPointExtension xmlns:gpxtpx="http://www.garmin.com/xmlschemas/TrackPointExtension/v1">
            <gpxtpx:hr>111</gpxtpx:hr>
          </gpxtpx:TrackPointExtension>
        </extensions>
      </trkpt>
      <trkpt lat="48.6226" lon="1.97206">
        <ele>138.6</ele>
        <time>2025-11-16T11:52:31Z</time>
        <extensions>
          <gpxtpx:TrackPointExtension xmlns:gpxtpx="http://www.garmin.com/xmlschemas/TrackPointExtension/v1">
            <gpxtpx:hr>111</gpxtpx:hr>
          </gpxtpx:TrackPointExtension>
        </extensions>
      </trkpt>
      <trkpt lat="48.62262" lon="1.97203">
        <ele>138.8</ele>
        <time>2025-11-16T11:52:33Z</time>
        <extensions>
          <gpxtpx:TrackPointExtension xmlns:gpxtpx="http://www.garmin.com/xmlschemas/TrackPointExtension/v1">
            <gpxtpx:hr>111</gpxtpx:hr>
          </gpxtpx:TrackPointExtension>
        </extensions>
      </trkpt>
      <trkpt lat="48.62264" lon="1.97202">
        <ele>139</ele>
        <time>2025-11-16T11:52:34Z</time>
        <extensions>
          <gpxtpx:TrackPointExtension xmlns:gpxtpx="http://www.garmin.com/xmlschemas/TrackPointExtension/v1">
            <gpxtpx:hr>111</gpxtpx:hr>
          </gpxtpx:TrackPointExtension>
        </extensions>
      </trkpt>
      <trkpt lat="48.62266" lon="1.972">
        <ele>139.2</ele>
        <time>2025-11-16T11:52:35Z</time>
        <extensions>
          <gpxtpx:TrackPointExtension xmlns:gpxtpx="http://www.garmin.com/xmlschemas/TrackPointExtension/v1">
            <gpxtpx:hr>111</gpxtpx:hr>
          </gpxtpx:TrackPointExtension>
        </extensions>
      </trkpt>
      <trkpt lat="48.62268" lon="1.97199">
        <ele>139.2</ele>
        <time>2025-11-16T11:52:36Z</time>
        <extensions>
          <gpxtpx:TrackPointExtension xmlns:gpxtpx="http://www.garmin.com/xmlschemas/TrackPointExtension/v1">
            <gpxtpx:hr>111</gpxtpx:hr>
          </gpxtpx:TrackPointExtension>
        </extensions>
      </trkpt>
      <trkpt lat="48.6227" lon="1.97197">
        <ele>139.4</ele>
        <time>2025-11-16T11:52:37Z</time>
        <extensions>
          <gpxtpx:TrackPointExtension xmlns:gpxtpx="http://www.garmin.com/xmlschemas/TrackPointExtension/v1">
            <gpxtpx:hr>111</gpxtpx:hr>
          </gpxtpx:TrackPointExtension>
        </extensions>
      </trkpt>
      <trkpt lat="48.62273" lon="1.97196">
        <ele>139.4</ele>
        <time>2025-11-16T11:52:38Z</time>
        <extensions>
          <gpxtpx:TrackPointExtension xmlns:gpxtpx="http://www.garmin.com/xmlschemas/TrackPointExtension/v1">
            <gpxtpx:hr>111</gpxtpx:hr>
          </gpxtpx:TrackPointExtension>
        </extensions>
      </trkpt>
      <trkpt lat="48.62276" lon="1.97195">
        <ele>139.6</ele>
        <time>2025-11-16T11:52:39Z</time>
        <extensions>
          <gpxtpx:TrackPointExtension xmlns:gpxtpx="http://www.garmin.com/xmlschemas/TrackPointExtension/v1">
            <gpxtpx:hr>111</gpxtpx:hr>
          </gpxtpx:TrackPointExtension>
        </extensions>
      </trkpt>
      <trkpt lat="48.62278" lon="1.97194">
        <ele>139.6</ele>
        <time>2025-11-16T11:52:40Z</time>
        <extensions>
          <gpxtpx:TrackPointExtension xmlns:gpxtpx="http://www.garmin.com/xmlschemas/TrackPointExtension/v1">
            <gpxtpx:hr>111</gpxtpx:hr>
          </gpxtpx:TrackPointExtension>
        </extensions>
      </trkpt>
      <trkpt lat="48.62281" lon="1.97192">
        <ele>139.8</ele>
        <time>2025-11-16T11:52:41Z</time>
        <extensions>
          <gpxtpx:TrackPointExtension xmlns:gpxtpx="http://www.garmin.com/xmlschemas/TrackPointExtension/v1">
            <gpxtpx:hr>111</gpxtpx:hr>
          </gpxtpx:TrackPointExtension>
        </extensions>
      </trkpt>
      <trkpt lat="48.62282" lon="1.97191">
        <ele>140</ele>
        <time>2025-11-16T11:52:42Z</time>
        <extensions>
          <gpxtpx:TrackPointExtension xmlns:gpxtpx="http://www.garmin.com/xmlschemas/TrackPointExtension/v1">
            <gpxtpx:hr>111</gpxtpx:hr>
          </gpxtpx:TrackPointExtension>
        </extensions>
      </trkpt>
      <trkpt lat="48.62284" lon="1.9719">
        <ele>140</ele>
        <time>2025-11-16T11:52:43Z</time>
        <extensions>
          <gpxtpx:TrackPointExtension xmlns:gpxtpx="http://www.garmin.com/xmlschemas/TrackPointExtension/v1">
            <gpxtpx:hr>111</gpxtpx:hr>
          </gpxtpx:TrackPointExtension>
        </extensions>
      </trkpt>
      <trkpt lat="48.62286" lon="1.97187">
        <ele>140.4</ele>
        <time>2025-11-16T11:52:45Z</time>
        <extensions>
          <gpxtpx:TrackPointExtension xmlns:gpxtpx="http://www.garmin.com/xmlschemas/TrackPointExtension/v1">
            <gpxtpx:hr>111</gpxtpx:hr>
          </gpxtpx:TrackPointExtension>
        </extensions>
      </trkpt>
      <trkpt lat="48.62288" lon="1.97185">
        <ele>140.6</ele>
        <time>2025-11-16T11:52:47Z</time>
        <extensions>
          <gpxtpx:TrackPointExtension xmlns:gpxtpx="http://www.garmin.com/xmlschemas/TrackPointExtension/v1">
            <gpxtpx:hr>111</gpxtpx:hr>
          </gpxtpx:TrackPointExtension>
        </extensions>
      </trkpt>
      <trkpt lat="48.62292" lon="1.97183">
        <ele>140.8</ele>
        <time>2025-11-16T11:52:49Z</time>
        <extensions>
          <gpxtpx:TrackPointExtension xmlns:gpxtpx="http://www.garmin.com/xmlschemas/TrackPointExtension/v1">
            <gpxtpx:hr>111</gpxtpx:hr>
          </gpxtpx:TrackPointExtension>
        </extensions>
      </trkpt>
      <trkpt lat="48.62294" lon="1.97182">
        <ele>141</ele>
        <time>2025-11-16T11:52:50Z</time>
        <extensions>
          <gpxtpx:TrackPointExtension xmlns:gpxtpx="http://www.garmin.com/xmlschemas/TrackPointExtension/v1">
            <gpxtpx:hr>111</gpxtpx:hr>
          </gpxtpx:TrackPointExtension>
        </extensions>
      </trkpt>
      <trkpt lat="48.62296" lon="1.97179">
        <ele>141.2</ele>
        <time>2025-11-16T11:52:51Z</time>
        <extensions>
          <gpxtpx:TrackPointExtension xmlns:gpxtpx="http://www.garmin.com/xmlschemas/TrackPointExtension/v1">
            <gpxtpx:hr>111</gpxtpx:hr>
          </gpxtpx:TrackPointExtension>
        </extensions>
      </trkpt>
      <trkpt lat="48.62298" lon="1.97177">
        <ele>141.2</ele>
        <time>2025-11-16T11:52:52Z</time>
        <extensions>
          <gpxtpx:TrackPointExtension xmlns:gpxtpx="http://www.garmin.com/xmlschemas/TrackPointExtension/v1">
            <gpxtpx:hr>111</gpxtpx:hr>
          </gpxtpx:TrackPointExtension>
        </extensions>
      </trkpt>
      <trkpt lat="48.623" lon="1.97174">
        <ele>141.2</ele>
        <time>2025-11-16T11:52:53Z</time>
        <extensions>
          <gpxtpx:TrackPointExtension xmlns:gpxtpx="http://www.garmin.com/xmlschemas/TrackPointExtension/v1">
            <gpxtpx:hr>111</gpxtpx:hr>
          </gpxtpx:TrackPointExtension>
        </extensions>
      </trkpt>
      <trkpt lat="48.62301" lon="1.97172">
        <ele>141.2</ele>
        <time>2025-11-16T11:52:54Z</time>
        <extensions>
          <gpxtpx:TrackPointExtension xmlns:gpxtpx="http://www.garmin.com/xmlschemas/TrackPointExtension/v1">
            <gpxtpx:hr>111</gpxtpx:hr>
          </gpxtpx:TrackPointExtension>
        </extensions>
      </trkpt>
      <trkpt lat="48.62303" lon="1.9717">
        <ele>141.2</ele>
        <time>2025-11-16T11:52:55Z</time>
        <extensions>
          <gpxtpx:TrackPointExtension xmlns:gpxtpx="http://www.garmin.com/xmlschemas/TrackPointExtension/v1">
            <gpxtpx:hr>111</gpxtpx:hr>
          </gpxtpx:TrackPointExtension>
        </extensions>
      </trkpt>
      <trkpt lat="48.62306" lon="1.97168">
        <ele>141.4</ele>
        <time>2025-11-16T11:52:57Z</time>
        <extensions>
          <gpxtpx:TrackPointExtension xmlns:gpxtpx="http://www.garmin.com/xmlschemas/TrackPointExtension/v1">
            <gpxtpx:hr>111</gpxtpx:hr>
          </gpxtpx:TrackPointExtension>
        </extensions>
      </trkpt>
      <trkpt lat="48.62308" lon="1.97166">
        <ele>141.6</ele>
        <time>2025-11-16T11:52:59Z</time>
        <extensions>
          <gpxtpx:TrackPointExtension xmlns:gpxtpx="http://www.garmin.com/xmlschemas/TrackPointExtension/v1">
            <gpxtpx:hr>111</gpxtpx:hr>
          </gpxtpx:TrackPointExtension>
        </extensions>
      </trkpt>
      <trkpt lat="48.6231" lon="1.97164">
        <ele>141.6</ele>
        <time>2025-11-16T11:53:01Z</time>
        <extensions>
          <gpxtpx:TrackPointExtension xmlns:gpxtpx="http://www.garmin.com/xmlschemas/TrackPointExtension/v1">
            <gpxtpx:hr>111</gpxtpx:hr>
          </gpxtpx:TrackPointExtension>
        </extensions>
      </trkpt>
      <trkpt lat="48.62312" lon="1.97162">
        <ele>141.8</ele>
        <time>2025-11-16T11:53:03Z</time>
        <extensions>
          <gpxtpx:TrackPointExtension xmlns:gpxtpx="http://www.garmin.com/xmlschemas/TrackPointExtension/v1">
            <gpxtpx:hr>111</gpxtpx:hr>
          </gpxtpx:TrackPointExtension>
        </extensions>
      </trkpt>
      <trkpt lat="48.62313" lon="1.9716">
        <ele>142</ele>
        <time>2025-11-16T11:53:05Z</time>
        <extensions>
          <gpxtpx:TrackPointExtension xmlns:gpxtpx="http://www.garmin.com/xmlschemas/TrackPointExtension/v1">
            <gpxtpx:hr>111</gpxtpx:hr>
          </gpxtpx:TrackPointExtension>
        </extensions>
      </trkpt>
      <trkpt lat="48.62315" lon="1.97157">
        <ele>142.2</ele>
        <time>2025-11-16T11:53:07Z</time>
        <extensions>
          <gpxtpx:TrackPointExtension xmlns:gpxtpx="http://www.garmin.com/xmlschemas/TrackPointExtension/v1">
            <gpxtpx:hr>111</gpxtpx:hr>
          </gpxtpx:TrackPointExtension>
        </extensions>
      </trkpt>
      <trkpt lat="48.62317" lon="1.97153">
        <ele>142.4</ele>
        <time>2025-11-16T11:53:09Z</time>
        <extensions>
          <gpxtpx:TrackPointExtension xmlns:gpxtpx="http://www.garmin.com/xmlschemas/TrackPointExtension/v1">
            <gpxtpx:hr>111</gpxtpx:hr>
          </gpxtpx:TrackPointExtension>
        </extensions>
      </trkpt>
      <trkpt lat="48.6232" lon="1.9715">
        <ele>142.4</ele>
        <time>2025-11-16T11:53:11Z</time>
        <extensions>
          <gpxtpx:TrackPointExtension xmlns:gpxtpx="http://www.garmin.com/xmlschemas/TrackPointExtension/v1">
            <gpxtpx:hr>111</gpxtpx:hr>
          </gpxtpx:TrackPointExtension>
        </extensions>
      </trkpt>
      <trkpt lat="48.62322" lon="1.97148">
        <ele>142.6</ele>
        <time>2025-11-16T11:53:13Z</time>
        <extensions>
          <gpxtpx:TrackPointExtension xmlns:gpxtpx="http://www.garmin.com/xmlschemas/TrackPointExtension/v1">
            <gpxtpx:hr>111</gpxtpx:hr>
          </gpxtpx:TrackPointExtension>
        </extensions>
      </trkpt>
      <trkpt lat="48.62324" lon="1.97146">
        <ele>142.4</ele>
        <time>2025-11-16T11:53:15Z</time>
        <extensions>
          <gpxtpx:TrackPointExtension xmlns:gpxtpx="http://www.garmin.com/xmlschemas/TrackPointExtension/v1">
            <gpxtpx:hr>111</gpxtpx:hr>
          </gpxtpx:TrackPointExtension>
        </extensions>
      </trkpt>
      <trkpt lat="48.62326" lon="1.97144">
        <ele>142.4</ele>
        <time>2025-11-16T11:53:17Z</time>
        <extensions>
          <gpxtpx:TrackPointExtension xmlns:gpxtpx="http://www.garmin.com/xmlschemas/TrackPointExtension/v1">
            <gpxtpx:hr>111</gpxtpx:hr>
          </gpxtpx:TrackPointExtension>
        </extensions>
      </trkpt>
      <trkpt lat="48.62329" lon="1.97141">
        <ele>142.4</ele>
        <time>2025-11-16T11:53:19Z</time>
        <extensions>
          <gpxtpx:TrackPointExtension xmlns:gpxtpx="http://www.garmin.com/xmlschemas/TrackPointExtension/v1">
            <gpxtpx:hr>112</gpxtpx:hr>
          </gpxtpx:TrackPointExtension>
        </extensions>
      </trkpt>
      <trkpt lat="48.62331" lon="1.97138">
        <ele>142.6</ele>
        <time>2025-11-16T11:53:21Z</time>
        <extensions>
          <gpxtpx:TrackPointExtension xmlns:gpxtpx="http://www.garmin.com/xmlschemas/TrackPointExtension/v1">
            <gpxtpx:hr>112</gpxtpx:hr>
          </gpxtpx:TrackPointExtension>
        </extensions>
      </trkpt>
      <trkpt lat="48.62333" lon="1.97136">
        <ele>142.6</ele>
        <time>2025-11-16T11:53:23Z</time>
        <extensions>
          <gpxtpx:TrackPointExtension xmlns:gpxtpx="http://www.garmin.com/xmlschemas/TrackPointExtension/v1">
            <gpxtpx:hr>112</gpxtpx:hr>
          </gpxtpx:TrackPointExtension>
        </extensions>
      </trkpt>
      <trkpt lat="48.62335" lon="1.97133">
        <ele>142.4</ele>
        <time>2025-11-16T11:53:25Z</time>
        <extensions>
          <gpxtpx:TrackPointExtension xmlns:gpxtpx="http://www.garmin.com/xmlschemas/TrackPointExtension/v1">
            <gpxtpx:hr>112</gpxtpx:hr>
          </gpxtpx:TrackPointExtension>
        </extensions>
      </trkpt>
      <trkpt lat="48.62337" lon="1.97131">
        <ele>142.4</ele>
        <time>2025-11-16T11:53:27Z</time>
        <extensions>
          <gpxtpx:TrackPointExtension xmlns:gpxtpx="http://www.garmin.com/xmlschemas/TrackPointExtension/v1">
            <gpxtpx:hr>112</gpxtpx:hr>
          </gpxtpx:TrackPointExtension>
        </extensions>
      </trkpt>
      <trkpt lat="48.6234" lon="1.97129">
        <ele>142.4</ele>
        <time>2025-11-16T11:53:29Z</time>
        <extensions>
          <gpxtpx:TrackPointExtension xmlns:gpxtpx="http://www.garmin.com/xmlschemas/TrackPointExtension/v1">
            <gpxtpx:hr>112</gpxtpx:hr>
          </gpxtpx:TrackPointExtension>
        </extensions>
      </trkpt>
      <trkpt lat="48.62342" lon="1.97126">
        <ele>142.6</ele>
        <time>2025-11-16T11:53:31Z</time>
        <extensions>
          <gpxtpx:TrackPointExtension xmlns:gpxtpx="http://www.garmin.com/xmlschemas/TrackPointExtension/v1">
            <gpxtpx:hr>112</gpxtpx:hr>
          </gpxtpx:TrackPointExtension>
        </extensions>
      </trkpt>
      <trkpt lat="48.62344" lon="1.97124">
        <ele>142.6</ele>
        <time>2025-11-16T11:53:33Z</time>
        <extensions>
          <gpxtpx:TrackPointExtension xmlns:gpxtpx="http://www.garmin.com/xmlschemas/TrackPointExtension/v1">
            <gpxtpx:hr>112</gpxtpx:hr>
          </gpxtpx:TrackPointExtension>
        </extensions>
      </trkpt>
      <trkpt lat="48.62346" lon="1.97122">
        <ele>142.8</ele>
        <time>2025-11-16T11:53:35Z</time>
        <extensions>
          <gpxtpx:TrackPointExtension xmlns:gpxtpx="http://www.garmin.com/xmlschemas/TrackPointExtension/v1">
            <gpxtpx:hr>112</gpxtpx:hr>
          </gpxtpx:TrackPointExtension>
        </extensions>
      </trkpt>
      <trkpt lat="48.62348" lon="1.97119">
        <ele>143.2</ele>
        <time>2025-11-16T11:53:37Z</time>
        <extensions>
          <gpxtpx:TrackPointExtension xmlns:gpxtpx="http://www.garmin.com/xmlschemas/TrackPointExtension/v1">
            <gpxtpx:hr>112</gpxtpx:hr>
          </gpxtpx:TrackPointExtension>
        </extensions>
      </trkpt>
      <trkpt lat="48.6235" lon="1.97118">
        <ele>143.4</ele>
        <time>2025-11-16T11:53:39Z</time>
        <extensions>
          <gpxtpx:TrackPointExtension xmlns:gpxtpx="http://www.garmin.com/xmlschemas/TrackPointExtension/v1">
            <gpxtpx:hr>112</gpxtpx:hr>
          </gpxtpx:TrackPointExtension>
        </extensions>
      </trkpt>
      <trkpt lat="48.62353" lon="1.97116">
        <ele>143.6</ele>
        <time>2025-11-16T11:53:41Z</time>
        <extensions>
          <gpxtpx:TrackPointExtension xmlns:gpxtpx="http://www.garmin.com/xmlschemas/TrackPointExtension/v1">
            <gpxtpx:hr>112</gpxtpx:hr>
          </gpxtpx:TrackPointExtension>
        </extensions>
      </trkpt>
      <trkpt lat="48.62355" lon="1.97115">
        <ele>143.8</ele>
        <time>2025-11-16T11:53:43Z</time>
        <extensions>
          <gpxtpx:TrackPointExtension xmlns:gpxtpx="http://www.garmin.com/xmlschemas/TrackPointExtension/v1">
            <gpxtpx:hr>112</gpxtpx:hr>
          </gpxtpx:TrackPointExtension>
        </extensions>
      </trkpt>
      <trkpt lat="48.62358" lon="1.97113">
        <ele>144</ele>
        <time>2025-11-16T11:53:45Z</time>
        <extensions>
          <gpxtpx:TrackPointExtension xmlns:gpxtpx="http://www.garmin.com/xmlschemas/TrackPointExtension/v1">
            <gpxtpx:hr>112</gpxtpx:hr>
          </gpxtpx:TrackPointExtension>
        </extensions>
      </trkpt>
      <trkpt lat="48.62361" lon="1.97112">
        <ele>144.2</ele>
        <time>2025-11-16T11:53:47Z</time>
        <extensions>
          <gpxtpx:TrackPointExtension xmlns:gpxtpx="http://www.garmin.com/xmlschemas/TrackPointExtension/v1">
            <gpxtpx:hr>112</gpxtpx:hr>
          </gpxtpx:TrackPointExtension>
        </extensions>
      </trkpt>
      <trkpt lat="48.62364" lon="1.9711">
        <ele>144.2</ele>
        <time>2025-11-16T11:53:49Z</time>
        <extensions>
          <gpxtpx:TrackPointExtension xmlns:gpxtpx="http://www.garmin.com/xmlschemas/TrackPointExtension/v1">
            <gpxtpx:hr>112</gpxtpx:hr>
          </gpxtpx:TrackPointExtension>
        </extensions>
      </trkpt>
      <trkpt lat="48.62366" lon="1.97108">
        <ele>144.4</ele>
        <time>2025-11-16T11:53:51Z</time>
        <extensions>
          <gpxtpx:TrackPointExtension xmlns:gpxtpx="http://www.garmin.com/xmlschemas/TrackPointExtension/v1">
            <gpxtpx:hr>113</gpxtpx:hr>
          </gpxtpx:TrackPointExtension>
        </extensions>
      </trkpt>
      <trkpt lat="48.62369" lon="1.97106">
        <ele>144.4</ele>
        <time>2025-11-16T11:53:53Z</time>
        <extensions>
          <gpxtpx:TrackPointExtension xmlns:gpxtpx="http://www.garmin.com/xmlschemas/TrackPointExtension/v1">
            <gpxtpx:hr>114</gpxtpx:hr>
          </gpxtpx:TrackPointExtension>
        </extensions>
      </trkpt>
      <trkpt lat="48.62372" lon="1.97104">
        <ele>144.4</ele>
        <time>2025-11-16T11:53:55Z</time>
        <extensions>
          <gpxtpx:TrackPointExtension xmlns:gpxtpx="http://www.garmin.com/xmlschemas/TrackPointExtension/v1">
            <gpxtpx:hr>114</gpxtpx:hr>
          </gpxtpx:TrackPointExtension>
        </extensions>
      </trkpt>
      <trkpt lat="48.62374" lon="1.97103">
        <ele>144.6</ele>
        <time>2025-11-16T11:53:57Z</time>
        <extensions>
          <gpxtpx:TrackPointExtension xmlns:gpxtpx="http://www.garmin.com/xmlschemas/TrackPointExtension/v1">
            <gpxtpx:hr>116</gpxtpx:hr>
          </gpxtpx:TrackPointExtension>
        </extensions>
      </trkpt>
      <trkpt lat="48.62376" lon="1.97102">
        <ele>144.6</ele>
        <time>2025-11-16T11:53:59Z</time>
        <extensions>
          <gpxtpx:TrackPointExtension xmlns:gpxtpx="http://www.garmin.com/xmlschemas/TrackPointExtension/v1">
            <gpxtpx:hr>116</gpxtpx:hr>
          </gpxtpx:TrackPointExtension>
        </extensions>
      </trkpt>
      <trkpt lat="48.62378" lon="1.97101">
        <ele>144.6</ele>
        <time>2025-11-16T11:54:01Z</time>
        <extensions>
          <gpxtpx:TrackPointExtension xmlns:gpxtpx="http://www.garmin.com/xmlschemas/TrackPointExtension/v1">
            <gpxtpx:hr>116</gpxtpx:hr>
          </gpxtpx:TrackPointExtension>
        </extensions>
      </trkpt>
      <trkpt lat="48.6238" lon="1.971">
        <ele>144.8</ele>
        <time>2025-11-16T11:54:03Z</time>
        <extensions>
          <gpxtpx:TrackPointExtension xmlns:gpxtpx="http://www.garmin.com/xmlschemas/TrackPointExtension/v1">
            <gpxtpx:hr>116</gpxtpx:hr>
          </gpxtpx:TrackPointExtension>
        </extensions>
      </trkpt>
      <trkpt lat="48.62384" lon="1.97098">
        <ele>144.8</ele>
        <time>2025-11-16T11:54:05Z</time>
        <extensions>
          <gpxtpx:TrackPointExtension xmlns:gpxtpx="http://www.garmin.com/xmlschemas/TrackPointExtension/v1">
            <gpxtpx:hr>116</gpxtpx:hr>
          </gpxtpx:TrackPointExtension>
        </extensions>
      </trkpt>
      <trkpt lat="48.62386" lon="1.97098">
        <ele>145</ele>
        <time>2025-11-16T11:54:06Z</time>
        <extensions>
          <gpxtpx:TrackPointExtension xmlns:gpxtpx="http://www.garmin.com/xmlschemas/TrackPointExtension/v1">
            <gpxtpx:hr>116</gpxtpx:hr>
          </gpxtpx:TrackPointExtension>
        </extensions>
      </trkpt>
      <trkpt lat="48.62388" lon="1.97096">
        <ele>145</ele>
        <time>2025-11-16T11:54:08Z</time>
        <extensions>
          <gpxtpx:TrackPointExtension xmlns:gpxtpx="http://www.garmin.com/xmlschemas/TrackPointExtension/v1">
            <gpxtpx:hr>116</gpxtpx:hr>
          </gpxtpx:TrackPointExtension>
        </extensions>
      </trkpt>
      <trkpt lat="48.62391" lon="1.97095">
        <ele>145.2</ele>
        <time>2025-11-16T11:54:10Z</time>
        <extensions>
          <gpxtpx:TrackPointExtension xmlns:gpxtpx="http://www.garmin.com/xmlschemas/TrackPointExtension/v1">
            <gpxtpx:hr>116</gpxtpx:hr>
          </gpxtpx:TrackPointExtension>
        </extensions>
      </trkpt>
      <trkpt lat="48.62394" lon="1.97094">
        <ele>145.4</ele>
        <time>2025-11-16T11:54:12Z</time>
        <extensions>
          <gpxtpx:TrackPointExtension xmlns:gpxtpx="http://www.garmin.com/xmlschemas/TrackPointExtension/v1">
            <gpxtpx:hr>116</gpxtpx:hr>
          </gpxtpx:TrackPointExtension>
        </extensions>
      </trkpt>
      <trkpt lat="48.62396" lon="1.97094">
        <ele>145.6</ele>
        <time>2025-11-16T11:54:13Z</time>
        <extensions>
          <gpxtpx:TrackPointExtension xmlns:gpxtpx="http://www.garmin.com/xmlschemas/TrackPointExtension/v1">
            <gpxtpx:hr>117</gpxtpx:hr>
          </gpxtpx:TrackPointExtension>
        </extensions>
      </trkpt>
      <trkpt lat="48.62398" lon="1.97093">
        <ele>145.6</ele>
        <time>2025-11-16T11:54:14Z</time>
        <extensions>
          <gpxtpx:TrackPointExtension xmlns:gpxtpx="http://www.garmin.com/xmlschemas/TrackPointExtension/v1">
            <gpxtpx:hr>117</gpxtpx:hr>
          </gpxtpx:TrackPointExtension>
        </extensions>
      </trkpt>
      <trkpt lat="48.624" lon="1.97093">
        <ele>145.8</ele>
        <time>2025-11-16T11:54:15Z</time>
        <extensions>
          <gpxtpx:TrackPointExtension xmlns:gpxtpx="http://www.garmin.com/xmlschemas/TrackPointExtension/v1">
            <gpxtpx:hr>117</gpxtpx:hr>
          </gpxtpx:TrackPointExtension>
        </extensions>
      </trkpt>
      <trkpt lat="48.62402" lon="1.97092">
        <ele>145.8</ele>
        <time>2025-11-16T11:54:16Z</time>
        <extensions>
          <gpxtpx:TrackPointExtension xmlns:gpxtpx="http://www.garmin.com/xmlschemas/TrackPointExtension/v1">
            <gpxtpx:hr>117</gpxtpx:hr>
          </gpxtpx:TrackPointExtension>
        </extensions>
      </trkpt>
      <trkpt lat="48.62404" lon="1.97092">
        <ele>146</ele>
        <time>2025-11-16T11:54:17Z</time>
        <extensions>
          <gpxtpx:TrackPointExtension xmlns:gpxtpx="http://www.garmin.com/xmlschemas/TrackPointExtension/v1">
            <gpxtpx:hr>117</gpxtpx:hr>
          </gpxtpx:TrackPointExtension>
        </extensions>
      </trkpt>
      <trkpt lat="48.62405" lon="1.97091">
        <ele>146</ele>
        <time>2025-11-16T11:54:18Z</time>
        <extensions>
          <gpxtpx:TrackPointExtension xmlns:gpxtpx="http://www.garmin.com/xmlschemas/TrackPointExtension/v1">
            <gpxtpx:hr>117</gpxtpx:hr>
          </gpxtpx:TrackPointExtension>
        </extensions>
      </trkpt>
      <trkpt lat="48.62408" lon="1.9709">
        <ele>146</ele>
        <time>2025-11-16T11:54:20Z</time>
        <extensions>
          <gpxtpx:TrackPointExtension xmlns:gpxtpx="http://www.garmin.com/xmlschemas/TrackPointExtension/v1">
            <gpxtpx:hr>116</gpxtpx:hr>
          </gpxtpx:TrackPointExtension>
        </extensions>
      </trkpt>
      <trkpt lat="48.62411" lon="1.9709">
        <ele>146</ele>
        <time>2025-11-16T11:54:22Z</time>
        <extensions>
          <gpxtpx:TrackPointExtension xmlns:gpxtpx="http://www.garmin.com/xmlschemas/TrackPointExtension/v1">
            <gpxtpx:hr>116</gpxtpx:hr>
          </gpxtpx:TrackPointExtension>
        </extensions>
      </trkpt>
      <trkpt lat="48.62413" lon="1.97089">
        <ele>146</ele>
        <time>2025-11-16T11:54:24Z</time>
        <extensions>
          <gpxtpx:TrackPointExtension xmlns:gpxtpx="http://www.garmin.com/xmlschemas/TrackPointExtension/v1">
            <gpxtpx:hr>116</gpxtpx:hr>
          </gpxtpx:TrackPointExtension>
        </extensions>
      </trkpt>
      <trkpt lat="48.62416" lon="1.97088">
        <ele>146</ele>
        <time>2025-11-16T11:54:26Z</time>
        <extensions>
          <gpxtpx:TrackPointExtension xmlns:gpxtpx="http://www.garmin.com/xmlschemas/TrackPointExtension/v1">
            <gpxtpx:hr>116</gpxtpx:hr>
          </gpxtpx:TrackPointExtension>
        </extensions>
      </trkpt>
      <trkpt lat="48.6242" lon="1.97086">
        <ele>146.2</ele>
        <time>2025-11-16T11:54:28Z</time>
        <extensions>
          <gpxtpx:TrackPointExtension xmlns:gpxtpx="http://www.garmin.com/xmlschemas/TrackPointExtension/v1">
            <gpxtpx:hr>116</gpxtpx:hr>
          </gpxtpx:TrackPointExtension>
        </extensions>
      </trkpt>
      <trkpt lat="48.62421" lon="1.97085">
        <ele>146.2</ele>
        <time>2025-11-16T11:54:29Z</time>
        <extensions>
          <gpxtpx:TrackPointExtension xmlns:gpxtpx="http://www.garmin.com/xmlschemas/TrackPointExtension/v1">
            <gpxtpx:hr>116</gpxtpx:hr>
          </gpxtpx:TrackPointExtension>
        </extensions>
      </trkpt>
      <trkpt lat="48.62425" lon="1.97083">
        <ele>146.2</ele>
        <time>2025-11-16T11:54:31Z</time>
        <extensions>
          <gpxtpx:TrackPointExtension xmlns:gpxtpx="http://www.garmin.com/xmlschemas/TrackPointExtension/v1">
            <gpxtpx:hr>116</gpxtpx:hr>
          </gpxtpx:TrackPointExtension>
        </extensions>
      </trkpt>
      <trkpt lat="48.62427" lon="1.97082">
        <ele>146.2</ele>
        <time>2025-11-16T11:54:32Z</time>
        <extensions>
          <gpxtpx:TrackPointExtension xmlns:gpxtpx="http://www.garmin.com/xmlschemas/TrackPointExtension/v1">
            <gpxtpx:hr>116</gpxtpx:hr>
          </gpxtpx:TrackPointExtension>
        </extensions>
      </trkpt>
      <trkpt lat="48.62429" lon="1.97081">
        <ele>146.2</ele>
        <time>2025-11-16T11:54:33Z</time>
        <extensions>
          <gpxtpx:TrackPointExtension xmlns:gpxtpx="http://www.garmin.com/xmlschemas/TrackPointExtension/v1">
            <gpxtpx:hr>116</gpxtpx:hr>
          </gpxtpx:TrackPointExtension>
        </extensions>
      </trkpt>
      <trkpt lat="48.62431" lon="1.9708">
        <ele>146.2</ele>
        <time>2025-11-16T11:54:34Z</time>
        <extensions>
          <gpxtpx:TrackPointExtension xmlns:gpxtpx="http://www.garmin.com/xmlschemas/TrackPointExtension/v1">
            <gpxtpx:hr>117</gpxtpx:hr>
          </gpxtpx:TrackPointExtension>
        </extensions>
      </trkpt>
      <trkpt lat="48.62434" lon="1.9708">
        <ele>146.2</ele>
        <time>2025-11-16T11:54:36Z</time>
        <extensions>
          <gpxtpx:TrackPointExtension xmlns:gpxtpx="http://www.garmin.com/xmlschemas/TrackPointExtension/v1">
            <gpxtpx:hr>117</gpxtpx:hr>
          </gpxtpx:TrackPointExtension>
        </extensions>
      </trkpt>
      <trkpt lat="48.62436" lon="1.97079">
        <ele>146.2</ele>
        <time>2025-11-16T11:54:37Z</time>
        <extensions>
          <gpxtpx:TrackPointExtension xmlns:gpxtpx="http://www.garmin.com/xmlschemas/TrackPointExtension/v1">
            <gpxtpx:hr>117</gpxtpx:hr>
          </gpxtpx:TrackPointExtension>
        </extensions>
      </trkpt>
      <trkpt lat="48.62439" lon="1.97079">
        <ele>146</ele>
        <time>2025-11-16T11:54:39Z</time>
        <extensions>
          <gpxtpx:TrackPointExtension xmlns:gpxtpx="http://www.garmin.com/xmlschemas/TrackPointExtension/v1">
            <gpxtpx:hr>117</gpxtpx:hr>
          </gpxtpx:TrackPointExtension>
        </extensions>
      </trkpt>
      <trkpt lat="48.62441" lon="1.97079">
        <ele>146</ele>
        <time>2025-11-16T11:54:41Z</time>
        <extensions>
          <gpxtpx:TrackPointExtension xmlns:gpxtpx="http://www.garmin.com/xmlschemas/TrackPointExtension/v1">
            <gpxtpx:hr>117</gpxtpx:hr>
          </gpxtpx:TrackPointExtension>
        </extensions>
      </trkpt>
      <trkpt lat="48.62444" lon="1.97078">
        <ele>146</ele>
        <time>2025-11-16T11:54:43Z</time>
        <extensions>
          <gpxtpx:TrackPointExtension xmlns:gpxtpx="http://www.garmin.com/xmlschemas/TrackPointExtension/v1">
            <gpxtpx:hr>117</gpxtpx:hr>
          </gpxtpx:TrackPointExtension>
        </extensions>
      </trkpt>
      <trkpt lat="48.62447" lon="1.97077">
        <ele>146</ele>
        <time>2025-11-16T11:54:44Z</time>
        <extensions>
          <gpxtpx:TrackPointExtension xmlns:gpxtpx="http://www.garmin.com/xmlschemas/TrackPointExtension/v1">
            <gpxtpx:hr>117</gpxtpx:hr>
          </gpxtpx:TrackPointExtension>
        </extensions>
      </trkpt>
      <trkpt lat="48.62449" lon="1.97077">
        <ele>146.2</ele>
        <time>2025-11-16T11:54:45Z</time>
        <extensions>
          <gpxtpx:TrackPointExtension xmlns:gpxtpx="http://www.garmin.com/xmlschemas/TrackPointExtension/v1">
            <gpxtpx:hr>117</gpxtpx:hr>
          </gpxtpx:TrackPointExtension>
        </extensions>
      </trkpt>
      <trkpt lat="48.62451" lon="1.97076">
        <ele>146.2</ele>
        <time>2025-11-16T11:54:46Z</time>
        <extensions>
          <gpxtpx:TrackPointExtension xmlns:gpxtpx="http://www.garmin.com/xmlschemas/TrackPointExtension/v1">
            <gpxtpx:hr>117</gpxtpx:hr>
          </gpxtpx:TrackPointExtension>
        </extensions>
      </trkpt>
      <trkpt lat="48.62454" lon="1.97076">
        <ele>146.2</ele>
        <time>2025-11-16T11:54:47Z</time>
        <extensions>
          <gpxtpx:TrackPointExtension xmlns:gpxtpx="http://www.garmin.com/xmlschemas/TrackPointExtension/v1">
            <gpxtpx:hr>117</gpxtpx:hr>
          </gpxtpx:TrackPointExtension>
        </extensions>
      </trkpt>
      <trkpt lat="48.62456" lon="1.97076">
        <ele>146.4</ele>
        <time>2025-11-16T11:54:48Z</time>
        <extensions>
          <gpxtpx:TrackPointExtension xmlns:gpxtpx="http://www.garmin.com/xmlschemas/TrackPointExtension/v1">
            <gpxtpx:hr>117</gpxtpx:hr>
          </gpxtpx:TrackPointExtension>
        </extensions>
      </trkpt>
      <trkpt lat="48.62459" lon="1.97075">
        <ele>146.4</ele>
        <time>2025-11-16T11:54:49Z</time>
        <extensions>
          <gpxtpx:TrackPointExtension xmlns:gpxtpx="http://www.garmin.com/xmlschemas/TrackPointExtension/v1">
            <gpxtpx:hr>117</gpxtpx:hr>
          </gpxtpx:TrackPointExtension>
        </extensions>
      </trkpt>
      <trkpt lat="48.62461" lon="1.97075">
        <ele>146.4</ele>
        <time>2025-11-16T11:54:50Z</time>
        <extensions>
          <gpxtpx:TrackPointExtension xmlns:gpxtpx="http://www.garmin.com/xmlschemas/TrackPointExtension/v1">
            <gpxtpx:hr>117</gpxtpx:hr>
          </gpxtpx:TrackPointExtension>
        </extensions>
      </trkpt>
      <trkpt lat="48.62463" lon="1.97075">
        <ele>146.6</ele>
        <time>2025-11-16T11:54:51Z</time>
        <extensions>
          <gpxtpx:TrackPointExtension xmlns:gpxtpx="http://www.garmin.com/xmlschemas/TrackPointExtension/v1">
            <gpxtpx:hr>117</gpxtpx:hr>
          </gpxtpx:TrackPointExtension>
        </extensions>
      </trkpt>
      <trkpt lat="48.62465" lon="1.97076">
        <ele>146.6</ele>
        <time>2025-11-16T11:54:52Z</time>
        <extensions>
          <gpxtpx:TrackPointExtension xmlns:gpxtpx="http://www.garmin.com/xmlschemas/TrackPointExtension/v1">
            <gpxtpx:hr>117</gpxtpx:hr>
          </gpxtpx:TrackPointExtension>
        </extensions>
      </trkpt>
      <trkpt lat="48.62468" lon="1.97076">
        <ele>146.6</ele>
        <time>2025-11-16T11:54:54Z</time>
        <extensions>
          <gpxtpx:TrackPointExtension xmlns:gpxtpx="http://www.garmin.com/xmlschemas/TrackPointExtension/v1">
            <gpxtpx:hr>117</gpxtpx:hr>
          </gpxtpx:TrackPointExtension>
        </extensions>
      </trkpt>
      <trkpt lat="48.62471" lon="1.97077">
        <ele>146.8</ele>
        <time>2025-11-16T11:54:56Z</time>
        <extensions>
          <gpxtpx:TrackPointExtension xmlns:gpxtpx="http://www.garmin.com/xmlschemas/TrackPointExtension/v1">
            <gpxtpx:hr>117</gpxtpx:hr>
          </gpxtpx:TrackPointExtension>
        </extensions>
      </trkpt>
      <trkpt lat="48.62474" lon="1.97077">
        <ele>146.8</ele>
        <time>2025-11-16T11:54:58Z</time>
        <extensions>
          <gpxtpx:TrackPointExtension xmlns:gpxtpx="http://www.garmin.com/xmlschemas/TrackPointExtension/v1">
            <gpxtpx:hr>117</gpxtpx:hr>
          </gpxtpx:TrackPointExtension>
        </extensions>
      </trkpt>
      <trkpt lat="48.62477" lon="1.97077">
        <ele>147</ele>
        <time>2025-11-16T11:55:00Z</time>
        <extensions>
          <gpxtpx:TrackPointExtension xmlns:gpxtpx="http://www.garmin.com/xmlschemas/TrackPointExtension/v1">
            <gpxtpx:hr>117</gpxtpx:hr>
          </gpxtpx:TrackPointExtension>
        </extensions>
      </trkpt>
      <trkpt lat="48.62479" lon="1.97078">
        <ele>147.2</ele>
        <time>2025-11-16T11:55:02Z</time>
        <extensions>
          <gpxtpx:TrackPointExtension xmlns:gpxtpx="http://www.garmin.com/xmlschemas/TrackPointExtension/v1">
            <gpxtpx:hr>117</gpxtpx:hr>
          </gpxtpx:TrackPointExtension>
        </extensions>
      </trkpt>
      <trkpt lat="48.62482" lon="1.97079">
        <ele>147.2</ele>
        <time>2025-11-16T11:55:04Z</time>
        <extensions>
          <gpxtpx:TrackPointExtension xmlns:gpxtpx="http://www.garmin.com/xmlschemas/TrackPointExtension/v1">
            <gpxtpx:hr>117</gpxtpx:hr>
          </gpxtpx:TrackPointExtension>
        </extensions>
      </trkpt>
      <trkpt lat="48.62485" lon="1.97079">
        <ele>147.4</ele>
        <time>2025-11-16T11:55:06Z</time>
        <extensions>
          <gpxtpx:TrackPointExtension xmlns:gpxtpx="http://www.garmin.com/xmlschemas/TrackPointExtension/v1">
            <gpxtpx:hr>117</gpxtpx:hr>
          </gpxtpx:TrackPointExtension>
        </extensions>
      </trkpt>
      <trkpt lat="48.62488" lon="1.9708">
        <ele>147.8</ele>
        <time>2025-11-16T11:55:08Z</time>
        <extensions>
          <gpxtpx:TrackPointExtension xmlns:gpxtpx="http://www.garmin.com/xmlschemas/TrackPointExtension/v1">
            <gpxtpx:hr>117</gpxtpx:hr>
          </gpxtpx:TrackPointExtension>
        </extensions>
      </trkpt>
      <trkpt lat="48.62491" lon="1.9708">
        <ele>147.8</ele>
        <time>2025-11-16T11:55:10Z</time>
        <extensions>
          <gpxtpx:TrackPointExtension xmlns:gpxtpx="http://www.garmin.com/xmlschemas/TrackPointExtension/v1">
            <gpxtpx:hr>117</gpxtpx:hr>
          </gpxtpx:TrackPointExtension>
        </extensions>
      </trkpt>
      <trkpt lat="48.62494" lon="1.9708">
        <ele>148</ele>
        <time>2025-11-16T11:55:12Z</time>
        <extensions>
          <gpxtpx:TrackPointExtension xmlns:gpxtpx="http://www.garmin.com/xmlschemas/TrackPointExtension/v1">
            <gpxtpx:hr>117</gpxtpx:hr>
          </gpxtpx:TrackPointExtension>
        </extensions>
      </trkpt>
      <trkpt lat="48.62496" lon="1.97079">
        <ele>148.2</ele>
        <time>2025-11-16T11:55:14Z</time>
        <extensions>
          <gpxtpx:TrackPointExtension xmlns:gpxtpx="http://www.garmin.com/xmlschemas/TrackPointExtension/v1">
            <gpxtpx:hr>118</gpxtpx:hr>
          </gpxtpx:TrackPointExtension>
        </extensions>
      </trkpt>
      <trkpt lat="48.62498" lon="1.9708">
        <ele>148.6</ele>
        <time>2025-11-16T11:55:17Z</time>
        <extensions>
          <gpxtpx:TrackPointExtension xmlns:gpxtpx="http://www.garmin.com/xmlschemas/TrackPointExtension/v1">
            <gpxtpx:hr>119</gpxtpx:hr>
          </gpxtpx:TrackPointExtension>
        </extensions>
      </trkpt>
      <trkpt lat="48.625" lon="1.9708">
        <ele>148.8</ele>
        <time>2025-11-16T11:55:19Z</time>
        <extensions>
          <gpxtpx:TrackPointExtension xmlns:gpxtpx="http://www.garmin.com/xmlschemas/TrackPointExtension/v1">
            <gpxtpx:hr>119</gpxtpx:hr>
          </gpxtpx:TrackPointExtension>
        </extensions>
      </trkpt>
      <trkpt lat="48.62503" lon="1.97082">
        <ele>148.8</ele>
        <time>2025-11-16T11:55:21Z</time>
        <extensions>
          <gpxtpx:TrackPointExtension xmlns:gpxtpx="http://www.garmin.com/xmlschemas/TrackPointExtension/v1">
            <gpxtpx:hr>119</gpxtpx:hr>
          </gpxtpx:TrackPointExtension>
        </extensions>
      </trkpt>
      <trkpt lat="48.62506" lon="1.97083">
        <ele>148.8</ele>
        <time>2025-11-16T11:55:23Z</time>
        <extensions>
          <gpxtpx:TrackPointExtension xmlns:gpxtpx="http://www.garmin.com/xmlschemas/TrackPointExtension/v1">
            <gpxtpx:hr>119</gpxtpx:hr>
          </gpxtpx:TrackPointExtension>
        </extensions>
      </trkpt>
      <trkpt lat="48.62509" lon="1.97085">
        <ele>149</ele>
        <time>2025-11-16T11:55:25Z</time>
        <extensions>
          <gpxtpx:TrackPointExtension xmlns:gpxtpx="http://www.garmin.com/xmlschemas/TrackPointExtension/v1">
            <gpxtpx:hr>119</gpxtpx:hr>
          </gpxtpx:TrackPointExtension>
        </extensions>
      </trkpt>
      <trkpt lat="48.62512" lon="1.97086">
        <ele>149</ele>
        <time>2025-11-16T11:55:27Z</time>
        <extensions>
          <gpxtpx:TrackPointExtension xmlns:gpxtpx="http://www.garmin.com/xmlschemas/TrackPointExtension/v1">
            <gpxtpx:hr>119</gpxtpx:hr>
          </gpxtpx:TrackPointExtension>
        </extensions>
      </trkpt>
      <trkpt lat="48.62514" lon="1.97087">
        <ele>149</ele>
        <time>2025-11-16T11:55:28Z</time>
        <extensions>
          <gpxtpx:TrackPointExtension xmlns:gpxtpx="http://www.garmin.com/xmlschemas/TrackPointExtension/v1">
            <gpxtpx:hr>119</gpxtpx:hr>
          </gpxtpx:TrackPointExtension>
        </extensions>
      </trkpt>
      <trkpt lat="48.62517" lon="1.97089">
        <ele>149.2</ele>
        <time>2025-11-16T11:55:30Z</time>
        <extensions>
          <gpxtpx:TrackPointExtension xmlns:gpxtpx="http://www.garmin.com/xmlschemas/TrackPointExtension/v1">
            <gpxtpx:hr>119</gpxtpx:hr>
          </gpxtpx:TrackPointExtension>
        </extensions>
      </trkpt>
      <trkpt lat="48.62519" lon="1.9709">
        <ele>149.2</ele>
        <time>2025-11-16T11:55:31Z</time>
        <extensions>
          <gpxtpx:TrackPointExtension xmlns:gpxtpx="http://www.garmin.com/xmlschemas/TrackPointExtension/v1">
            <gpxtpx:hr>119</gpxtpx:hr>
          </gpxtpx:TrackPointExtension>
        </extensions>
      </trkpt>
      <trkpt lat="48.62521" lon="1.9709">
        <ele>149.2</ele>
        <time>2025-11-16T11:55:32Z</time>
        <extensions>
          <gpxtpx:TrackPointExtension xmlns:gpxtpx="http://www.garmin.com/xmlschemas/TrackPointExtension/v1">
            <gpxtpx:hr>119</gpxtpx:hr>
          </gpxtpx:TrackPointExtension>
        </extensions>
      </trkpt>
      <trkpt lat="48.62524" lon="1.97091">
        <ele>149.4</ele>
        <time>2025-11-16T11:55:34Z</time>
        <extensions>
          <gpxtpx:TrackPointExtension xmlns:gpxtpx="http://www.garmin.com/xmlschemas/TrackPointExtension/v1">
            <gpxtpx:hr>118</gpxtpx:hr>
          </gpxtpx:TrackPointExtension>
        </extensions>
      </trkpt>
      <trkpt lat="48.62528" lon="1.97093">
        <ele>149.4</ele>
        <time>2025-11-16T11:55:36Z</time>
        <extensions>
          <gpxtpx:TrackPointExtension xmlns:gpxtpx="http://www.garmin.com/xmlschemas/TrackPointExtension/v1">
            <gpxtpx:hr>118</gpxtpx:hr>
          </gpxtpx:TrackPointExtension>
        </extensions>
      </trkpt>
      <trkpt lat="48.62531" lon="1.97094">
        <ele>149.4</ele>
        <time>2025-11-16T11:55:38Z</time>
        <extensions>
          <gpxtpx:TrackPointExtension xmlns:gpxtpx="http://www.garmin.com/xmlschemas/TrackPointExtension/v1">
            <gpxtpx:hr>118</gpxtpx:hr>
          </gpxtpx:TrackPointExtension>
        </extensions>
      </trkpt>
      <trkpt lat="48.62533" lon="1.97094">
        <ele>149.6</ele>
        <time>2025-11-16T11:55:40Z</time>
        <extensions>
          <gpxtpx:TrackPointExtension xmlns:gpxtpx="http://www.garmin.com/xmlschemas/TrackPointExtension/v1">
            <gpxtpx:hr>118</gpxtpx:hr>
          </gpxtpx:TrackPointExtension>
        </extensions>
      </trkpt>
      <trkpt lat="48.62536" lon="1.97094">
        <ele>149.8</ele>
        <time>2025-11-16T11:55:42Z</time>
        <extensions>
          <gpxtpx:TrackPointExtension xmlns:gpxtpx="http://www.garmin.com/xmlschemas/TrackPointExtension/v1">
            <gpxtpx:hr>118</gpxtpx:hr>
          </gpxtpx:TrackPointExtension>
        </extensions>
      </trkpt>
      <trkpt lat="48.62539" lon="1.97094">
        <ele>149.6</ele>
        <time>2025-11-16T11:55:44Z</time>
        <extensions>
          <gpxtpx:TrackPointExtension xmlns:gpxtpx="http://www.garmin.com/xmlschemas/TrackPointExtension/v1">
            <gpxtpx:hr>118</gpxtpx:hr>
          </gpxtpx:TrackPointExtension>
        </extensions>
      </trkpt>
      <trkpt lat="48.62542" lon="1.97095">
        <ele>149.8</ele>
        <time>2025-11-16T11:55:46Z</time>
        <extensions>
          <gpxtpx:TrackPointExtension xmlns:gpxtpx="http://www.garmin.com/xmlschemas/TrackPointExtension/v1">
            <gpxtpx:hr>117</gpxtpx:hr>
          </gpxtpx:TrackPointExtension>
        </extensions>
      </trkpt>
      <trkpt lat="48.62545" lon="1.97095">
        <ele>149.8</ele>
        <time>2025-11-16T11:55:48Z</time>
        <extensions>
          <gpxtpx:TrackPointExtension xmlns:gpxtpx="http://www.garmin.com/xmlschemas/TrackPointExtension/v1">
            <gpxtpx:hr>117</gpxtpx:hr>
          </gpxtpx:TrackPointExtension>
        </extensions>
      </trkpt>
      <trkpt lat="48.62548" lon="1.97097">
        <ele>149.8</ele>
        <time>2025-11-16T11:55:50Z</time>
        <extensions>
          <gpxtpx:TrackPointExtension xmlns:gpxtpx="http://www.garmin.com/xmlschemas/TrackPointExtension/v1">
            <gpxtpx:hr>117</gpxtpx:hr>
          </gpxtpx:TrackPointExtension>
        </extensions>
      </trkpt>
      <trkpt lat="48.6255" lon="1.97098">
        <ele>149.8</ele>
        <time>2025-11-16T11:55:52Z</time>
        <extensions>
          <gpxtpx:TrackPointExtension xmlns:gpxtpx="http://www.garmin.com/xmlschemas/TrackPointExtension/v1">
            <gpxtpx:hr>116</gpxtpx:hr>
          </gpxtpx:TrackPointExtension>
        </extensions>
      </trkpt>
      <trkpt lat="48.62553" lon="1.97099">
        <ele>149.8</ele>
        <time>2025-11-16T11:55:54Z</time>
        <extensions>
          <gpxtpx:TrackPointExtension xmlns:gpxtpx="http://www.garmin.com/xmlschemas/TrackPointExtension/v1">
            <gpxtpx:hr>115</gpxtpx:hr>
          </gpxtpx:TrackPointExtension>
        </extensions>
      </trkpt>
      <trkpt lat="48.62557" lon="1.971">
        <ele>149.8</ele>
        <time>2025-11-16T11:55:56Z</time>
        <extensions>
          <gpxtpx:TrackPointExtension xmlns:gpxtpx="http://www.garmin.com/xmlschemas/TrackPointExtension/v1">
            <gpxtpx:hr>115</gpxtpx:hr>
          </gpxtpx:TrackPointExtension>
        </extensions>
      </trkpt>
      <trkpt lat="48.62559" lon="1.97101">
        <ele>149.8</ele>
        <time>2025-11-16T11:55:57Z</time>
        <extensions>
          <gpxtpx:TrackPointExtension xmlns:gpxtpx="http://www.garmin.com/xmlschemas/TrackPointExtension/v1">
            <gpxtpx:hr>115</gpxtpx:hr>
          </gpxtpx:TrackPointExtension>
        </extensions>
      </trkpt>
      <trkpt lat="48.62561" lon="1.97101">
        <ele>149.8</ele>
        <time>2025-11-16T11:55:58Z</time>
        <extensions>
          <gpxtpx:TrackPointExtension xmlns:gpxtpx="http://www.garmin.com/xmlschemas/TrackPointExtension/v1">
            <gpxtpx:hr>115</gpxtpx:hr>
          </gpxtpx:TrackPointExtension>
        </extensions>
      </trkpt>
      <trkpt lat="48.62563" lon="1.97102">
        <ele>149.8</ele>
        <time>2025-11-16T11:55:59Z</time>
        <extensions>
          <gpxtpx:TrackPointExtension xmlns:gpxtpx="http://www.garmin.com/xmlschemas/TrackPointExtension/v1">
            <gpxtpx:hr>115</gpxtpx:hr>
          </gpxtpx:TrackPointExtension>
        </extensions>
      </trkpt>
      <trkpt lat="48.62564" lon="1.97103">
        <ele>149.8</ele>
        <time>2025-11-16T11:56:00Z</time>
        <extensions>
          <gpxtpx:TrackPointExtension xmlns:gpxtpx="http://www.garmin.com/xmlschemas/TrackPointExtension/v1">
            <gpxtpx:hr>115</gpxtpx:hr>
          </gpxtpx:TrackPointExtension>
        </extensions>
      </trkpt>
      <trkpt lat="48.62566" lon="1.97103">
        <ele>149.8</ele>
        <time>2025-11-16T11:56:01Z</time>
        <extensions>
          <gpxtpx:TrackPointExtension xmlns:gpxtpx="http://www.garmin.com/xmlschemas/TrackPointExtension/v1">
            <gpxtpx:hr>115</gpxtpx:hr>
          </gpxtpx:TrackPointExtension>
        </extensions>
      </trkpt>
      <trkpt lat="48.62568" lon="1.97103">
        <ele>150</ele>
        <time>2025-11-16T11:56:02Z</time>
        <extensions>
          <gpxtpx:TrackPointExtension xmlns:gpxtpx="http://www.garmin.com/xmlschemas/TrackPointExtension/v1">
            <gpxtpx:hr>115</gpxtpx:hr>
          </gpxtpx:TrackPointExtension>
        </extensions>
      </trkpt>
      <trkpt lat="48.62572" lon="1.97104">
        <ele>150</ele>
        <time>2025-11-16T11:56:04Z</time>
        <extensions>
          <gpxtpx:TrackPointExtension xmlns:gpxtpx="http://www.garmin.com/xmlschemas/TrackPointExtension/v1">
            <gpxtpx:hr>115</gpxtpx:hr>
          </gpxtpx:TrackPointExtension>
        </extensions>
      </trkpt>
      <trkpt lat="48.62574" lon="1.97104">
        <ele>149.8</ele>
        <time>2025-11-16T11:56:06Z</time>
        <extensions>
          <gpxtpx:TrackPointExtension xmlns:gpxtpx="http://www.garmin.com/xmlschemas/TrackPointExtension/v1">
            <gpxtpx:hr>115</gpxtpx:hr>
          </gpxtpx:TrackPointExtension>
        </extensions>
      </trkpt>
      <trkpt lat="48.62577" lon="1.97105">
        <ele>149.8</ele>
        <time>2025-11-16T11:56:08Z</time>
        <extensions>
          <gpxtpx:TrackPointExtension xmlns:gpxtpx="http://www.garmin.com/xmlschemas/TrackPointExtension/v1">
            <gpxtpx:hr>115</gpxtpx:hr>
          </gpxtpx:TrackPointExtension>
        </extensions>
      </trkpt>
      <trkpt lat="48.62579" lon="1.97106">
        <ele>150</ele>
        <time>2025-11-16T11:56:09Z</time>
        <extensions>
          <gpxtpx:TrackPointExtension xmlns:gpxtpx="http://www.garmin.com/xmlschemas/TrackPointExtension/v1">
            <gpxtpx:hr>115</gpxtpx:hr>
          </gpxtpx:TrackPointExtension>
        </extensions>
      </trkpt>
      <trkpt lat="48.62581" lon="1.97107">
        <ele>150</ele>
        <time>2025-11-16T11:56:10Z</time>
        <extensions>
          <gpxtpx:TrackPointExtension xmlns:gpxtpx="http://www.garmin.com/xmlschemas/TrackPointExtension/v1">
            <gpxtpx:hr>115</gpxtpx:hr>
          </gpxtpx:TrackPointExtension>
        </extensions>
      </trkpt>
      <trkpt lat="48.62583" lon="1.97107">
        <ele>150</ele>
        <time>2025-11-16T11:56:11Z</time>
        <extensions>
          <gpxtpx:TrackPointExtension xmlns:gpxtpx="http://www.garmin.com/xmlschemas/TrackPointExtension/v1">
            <gpxtpx:hr>115</gpxtpx:hr>
          </gpxtpx:TrackPointExtension>
        </extensions>
      </trkpt>
      <trkpt lat="48.62586" lon="1.97108">
        <ele>150</ele>
        <time>2025-11-16T11:56:12Z</time>
        <extensions>
          <gpxtpx:TrackPointExtension xmlns:gpxtpx="http://www.garmin.com/xmlschemas/TrackPointExtension/v1">
            <gpxtpx:hr>115</gpxtpx:hr>
          </gpxtpx:TrackPointExtension>
        </extensions>
      </trkpt>
      <trkpt lat="48.62589" lon="1.97109">
        <ele>150.2</ele>
        <time>2025-11-16T11:56:14Z</time>
        <extensions>
          <gpxtpx:TrackPointExtension xmlns:gpxtpx="http://www.garmin.com/xmlschemas/TrackPointExtension/v1">
            <gpxtpx:hr>115</gpxtpx:hr>
          </gpxtpx:TrackPointExtension>
        </extensions>
      </trkpt>
      <trkpt lat="48.62591" lon="1.9711">
        <ele>150.2</ele>
        <time>2025-11-16T11:56:15Z</time>
        <extensions>
          <gpxtpx:TrackPointExtension xmlns:gpxtpx="http://www.garmin.com/xmlschemas/TrackPointExtension/v1">
            <gpxtpx:hr>115</gpxtpx:hr>
          </gpxtpx:TrackPointExtension>
        </extensions>
      </trkpt>
      <trkpt lat="48.62593" lon="1.9711">
        <ele>150.2</ele>
        <time>2025-11-16T11:56:16Z</time>
        <extensions>
          <gpxtpx:TrackPointExtension xmlns:gpxtpx="http://www.garmin.com/xmlschemas/TrackPointExtension/v1">
            <gpxtpx:hr>115</gpxtpx:hr>
          </gpxtpx:TrackPointExtension>
        </extensions>
      </trkpt>
      <trkpt lat="48.62595" lon="1.97111">
        <ele>150.2</ele>
        <time>2025-11-16T11:56:17Z</time>
        <extensions>
          <gpxtpx:TrackPointExtension xmlns:gpxtpx="http://www.garmin.com/xmlschemas/TrackPointExtension/v1">
            <gpxtpx:hr>115</gpxtpx:hr>
          </gpxtpx:TrackPointExtension>
        </extensions>
      </trkpt>
      <trkpt lat="48.62597" lon="1.97111">
        <ele>150.2</ele>
        <time>2025-11-16T11:56:18Z</time>
        <extensions>
          <gpxtpx:TrackPointExtension xmlns:gpxtpx="http://www.garmin.com/xmlschemas/TrackPointExtension/v1">
            <gpxtpx:hr>115</gpxtpx:hr>
          </gpxtpx:TrackPointExtension>
        </extensions>
      </trkpt>
      <trkpt lat="48.626" lon="1.97112">
        <ele>150.2</ele>
        <time>2025-11-16T11:56:20Z</time>
        <extensions>
          <gpxtpx:TrackPointExtension xmlns:gpxtpx="http://www.garmin.com/xmlschemas/TrackPointExtension/v1">
            <gpxtpx:hr>115</gpxtpx:hr>
          </gpxtpx:TrackPointExtension>
        </extensions>
      </trkpt>
      <trkpt lat="48.62603" lon="1.97113">
        <ele>150.4</ele>
        <time>2025-11-16T11:56:22Z</time>
        <extensions>
          <gpxtpx:TrackPointExtension xmlns:gpxtpx="http://www.garmin.com/xmlschemas/TrackPointExtension/v1">
            <gpxtpx:hr>115</gpxtpx:hr>
          </gpxtpx:TrackPointExtension>
        </extensions>
      </trkpt>
      <trkpt lat="48.62606" lon="1.97114">
        <ele>150.6</ele>
        <time>2025-11-16T11:56:24Z</time>
        <extensions>
          <gpxtpx:TrackPointExtension xmlns:gpxtpx="http://www.garmin.com/xmlschemas/TrackPointExtension/v1">
            <gpxtpx:hr>116</gpxtpx:hr>
          </gpxtpx:TrackPointExtension>
        </extensions>
      </trkpt>
      <trkpt lat="48.62609" lon="1.97115">
        <ele>150.6</ele>
        <time>2025-11-16T11:56:26Z</time>
        <extensions>
          <gpxtpx:TrackPointExtension xmlns:gpxtpx="http://www.garmin.com/xmlschemas/TrackPointExtension/v1">
            <gpxtpx:hr>119</gpxtpx:hr>
          </gpxtpx:TrackPointExtension>
        </extensions>
      </trkpt>
      <trkpt lat="48.62612" lon="1.97116">
        <ele>150.8</ele>
        <time>2025-11-16T11:56:28Z</time>
        <extensions>
          <gpxtpx:TrackPointExtension xmlns:gpxtpx="http://www.garmin.com/xmlschemas/TrackPointExtension/v1">
            <gpxtpx:hr>123</gpxtpx:hr>
          </gpxtpx:TrackPointExtension>
        </extensions>
      </trkpt>
      <trkpt lat="48.62614" lon="1.97116">
        <ele>150.8</ele>
        <time>2025-11-16T11:56:29Z</time>
        <extensions>
          <gpxtpx:TrackPointExtension xmlns:gpxtpx="http://www.garmin.com/xmlschemas/TrackPointExtension/v1">
            <gpxtpx:hr>124</gpxtpx:hr>
          </gpxtpx:TrackPointExtension>
        </extensions>
      </trkpt>
      <trkpt lat="48.62618" lon="1.97117">
        <ele>151</ele>
        <time>2025-11-16T11:56:31Z</time>
        <extensions>
          <gpxtpx:TrackPointExtension xmlns:gpxtpx="http://www.garmin.com/xmlschemas/TrackPointExtension/v1">
            <gpxtpx:hr>127</gpxtpx:hr>
          </gpxtpx:TrackPointExtension>
        </extensions>
      </trkpt>
      <trkpt lat="48.6262" lon="1.97117">
        <ele>151</ele>
        <time>2025-11-16T11:56:32Z</time>
        <extensions>
          <gpxtpx:TrackPointExtension xmlns:gpxtpx="http://www.garmin.com/xmlschemas/TrackPointExtension/v1">
            <gpxtpx:hr>127</gpxtpx:hr>
          </gpxtpx:TrackPointExtension>
        </extensions>
      </trkpt>
      <trkpt lat="48.62622" lon="1.97117">
        <ele>151.2</ele>
        <time>2025-11-16T11:56:34Z</time>
        <extensions>
          <gpxtpx:TrackPointExtension xmlns:gpxtpx="http://www.garmin.com/xmlschemas/TrackPointExtension/v1">
            <gpxtpx:hr>127</gpxtpx:hr>
          </gpxtpx:TrackPointExtension>
        </extensions>
      </trkpt>
      <trkpt lat="48.62626" lon="1.97118">
        <ele>151.4</ele>
        <time>2025-11-16T11:56:36Z</time>
        <extensions>
          <gpxtpx:TrackPointExtension xmlns:gpxtpx="http://www.garmin.com/xmlschemas/TrackPointExtension/v1">
            <gpxtpx:hr>126</gpxtpx:hr>
          </gpxtpx:TrackPointExtension>
        </extensions>
      </trkpt>
      <trkpt lat="48.62628" lon="1.97119">
        <ele>151.4</ele>
        <time>2025-11-16T11:56:38Z</time>
        <extensions>
          <gpxtpx:TrackPointExtension xmlns:gpxtpx="http://www.garmin.com/xmlschemas/TrackPointExtension/v1">
            <gpxtpx:hr>126</gpxtpx:hr>
          </gpxtpx:TrackPointExtension>
        </extensions>
      </trkpt>
      <trkpt lat="48.62631" lon="1.9712">
        <ele>151.4</ele>
        <time>2025-11-16T11:56:40Z</time>
        <extensions>
          <gpxtpx:TrackPointExtension xmlns:gpxtpx="http://www.garmin.com/xmlschemas/TrackPointExtension/v1">
            <gpxtpx:hr>126</gpxtpx:hr>
          </gpxtpx:TrackPointExtension>
        </extensions>
      </trkpt>
      <trkpt lat="48.62634" lon="1.97121">
        <ele>151.4</ele>
        <time>2025-11-16T11:56:42Z</time>
        <extensions>
          <gpxtpx:TrackPointExtension xmlns:gpxtpx="http://www.garmin.com/xmlschemas/TrackPointExtension/v1">
            <gpxtpx:hr>127</gpxtpx:hr>
          </gpxtpx:TrackPointExtension>
        </extensions>
      </trkpt>
      <trkpt lat="48.62636" lon="1.97123">
        <ele>151.4</ele>
        <time>2025-11-16T11:56:44Z</time>
        <extensions>
          <gpxtpx:TrackPointExtension xmlns:gpxtpx="http://www.garmin.com/xmlschemas/TrackPointExtension/v1">
            <gpxtpx:hr>127</gpxtpx:hr>
          </gpxtpx:TrackPointExtension>
        </extensions>
      </trkpt>
      <trkpt lat="48.62639" lon="1.97124">
        <ele>151.4</ele>
        <time>2025-11-16T11:56:46Z</time>
        <extensions>
          <gpxtpx:TrackPointExtension xmlns:gpxtpx="http://www.garmin.com/xmlschemas/TrackPointExtension/v1">
            <gpxtpx:hr>127</gpxtpx:hr>
          </gpxtpx:TrackPointExtension>
        </extensions>
      </trkpt>
      <trkpt lat="48.62641" lon="1.97124">
        <ele>151.4</ele>
        <time>2025-11-16T11:56:47Z</time>
        <extensions>
          <gpxtpx:TrackPointExtension xmlns:gpxtpx="http://www.garmin.com/xmlschemas/TrackPointExtension/v1">
            <gpxtpx:hr>127</gpxtpx:hr>
          </gpxtpx:TrackPointExtension>
        </extensions>
      </trkpt>
      <trkpt lat="48.62643" lon="1.97125">
        <ele>151.4</ele>
        <time>2025-11-16T11:56:48Z</time>
        <extensions>
          <gpxtpx:TrackPointExtension xmlns:gpxtpx="http://www.garmin.com/xmlschemas/TrackPointExtension/v1">
            <gpxtpx:hr>127</gpxtpx:hr>
          </gpxtpx:TrackPointExtension>
        </extensions>
      </trkpt>
      <trkpt lat="48.62646" lon="1.97126">
        <ele>151.4</ele>
        <time>2025-11-16T11:56:50Z</time>
        <extensions>
          <gpxtpx:TrackPointExtension xmlns:gpxtpx="http://www.garmin.com/xmlschemas/TrackPointExtension/v1">
            <gpxtpx:hr>127</gpxtpx:hr>
          </gpxtpx:TrackPointExtension>
        </extensions>
      </trkpt>
      <trkpt lat="48.62648" lon="1.97126">
        <ele>151.4</ele>
        <time>2025-11-16T11:56:51Z</time>
        <extensions>
          <gpxtpx:TrackPointExtension xmlns:gpxtpx="http://www.garmin.com/xmlschemas/TrackPointExtension/v1">
            <gpxtpx:hr>127</gpxtpx:hr>
          </gpxtpx:TrackPointExtension>
        </extensions>
      </trkpt>
      <trkpt lat="48.62651" lon="1.97127">
        <ele>151.4</ele>
        <time>2025-11-16T11:56:53Z</time>
        <extensions>
          <gpxtpx:TrackPointExtension xmlns:gpxtpx="http://www.garmin.com/xmlschemas/TrackPointExtension/v1">
            <gpxtpx:hr>127</gpxtpx:hr>
          </gpxtpx:TrackPointExtension>
        </extensions>
      </trkpt>
      <trkpt lat="48.62653" lon="1.97128">
        <ele>151.6</ele>
        <time>2025-11-16T11:56:55Z</time>
        <extensions>
          <gpxtpx:TrackPointExtension xmlns:gpxtpx="http://www.garmin.com/xmlschemas/TrackPointExtension/v1">
            <gpxtpx:hr>127</gpxtpx:hr>
          </gpxtpx:TrackPointExtension>
        </extensions>
      </trkpt>
      <trkpt lat="48.62655" lon="1.97129">
        <ele>151.8</ele>
        <time>2025-11-16T11:56:58Z</time>
        <extensions>
          <gpxtpx:TrackPointExtension xmlns:gpxtpx="http://www.garmin.com/xmlschemas/TrackPointExtension/v1">
            <gpxtpx:hr>127</gpxtpx:hr>
          </gpxtpx:TrackPointExtension>
        </extensions>
      </trkpt>
      <trkpt lat="48.62658" lon="1.9713">
        <ele>152</ele>
        <time>2025-11-16T11:57:02Z</time>
        <extensions>
          <gpxtpx:TrackPointExtension xmlns:gpxtpx="http://www.garmin.com/xmlschemas/TrackPointExtension/v1">
            <gpxtpx:hr>126</gpxtpx:hr>
          </gpxtpx:TrackPointExtension>
        </extensions>
      </trkpt>
      <trkpt lat="48.6266" lon="1.9713">
        <ele>151.8</ele>
        <time>2025-11-16T11:57:04Z</time>
        <extensions>
          <gpxtpx:TrackPointExtension xmlns:gpxtpx="http://www.garmin.com/xmlschemas/TrackPointExtension/v1">
            <gpxtpx:hr>125</gpxtpx:hr>
          </gpxtpx:TrackPointExtension>
        </extensions>
      </trkpt>
      <trkpt lat="48.62661" lon="1.97131">
        <ele>151.8</ele>
        <time>2025-11-16T11:57:06Z</time>
        <extensions>
          <gpxtpx:TrackPointExtension xmlns:gpxtpx="http://www.garmin.com/xmlschemas/TrackPointExtension/v1">
            <gpxtpx:hr>125</gpxtpx:hr>
          </gpxtpx:TrackPointExtension>
        </extensions>
      </trkpt>
      <trkpt lat="48.62665" lon="1.9713">
        <ele>151.8</ele>
        <time>2025-11-16T11:57:08Z</time>
        <extensions>
          <gpxtpx:TrackPointExtension xmlns:gpxtpx="http://www.garmin.com/xmlschemas/TrackPointExtension/v1">
            <gpxtpx:hr>125</gpxtpx:hr>
          </gpxtpx:TrackPointExtension>
        </extensions>
      </trkpt>
      <trkpt lat="48.62668" lon="1.97131">
        <ele>151.8</ele>
        <time>2025-11-16T11:57:10Z</time>
        <extensions>
          <gpxtpx:TrackPointExtension xmlns:gpxtpx="http://www.garmin.com/xmlschemas/TrackPointExtension/v1">
            <gpxtpx:hr>125</gpxtpx:hr>
          </gpxtpx:TrackPointExtension>
        </extensions>
      </trkpt>
      <trkpt lat="48.6267" lon="1.97131">
        <ele>151.6</ele>
        <time>2025-11-16T11:57:11Z</time>
        <extensions>
          <gpxtpx:TrackPointExtension xmlns:gpxtpx="http://www.garmin.com/xmlschemas/TrackPointExtension/v1">
            <gpxtpx:hr>125</gpxtpx:hr>
          </gpxtpx:TrackPointExtension>
        </extensions>
      </trkpt>
      <trkpt lat="48.62672" lon="1.97131">
        <ele>151.6</ele>
        <time>2025-11-16T11:57:12Z</time>
        <extensions>
          <gpxtpx:TrackPointExtension xmlns:gpxtpx="http://www.garmin.com/xmlschemas/TrackPointExtension/v1">
            <gpxtpx:hr>125</gpxtpx:hr>
          </gpxtpx:TrackPointExtension>
        </extensions>
      </trkpt>
      <trkpt lat="48.62674" lon="1.97131">
        <ele>151.4</ele>
        <time>2025-11-16T11:57:13Z</time>
        <extensions>
          <gpxtpx:TrackPointExtension xmlns:gpxtpx="http://www.garmin.com/xmlschemas/TrackPointExtension/v1">
            <gpxtpx:hr>125</gpxtpx:hr>
          </gpxtpx:TrackPointExtension>
        </extensions>
      </trkpt>
      <trkpt lat="48.62678" lon="1.97132">
        <ele>151.4</ele>
        <time>2025-11-16T11:57:16Z</time>
        <extensions>
          <gpxtpx:TrackPointExtension xmlns:gpxtpx="http://www.garmin.com/xmlschemas/TrackPointExtension/v1">
            <gpxtpx:hr>125</gpxtpx:hr>
          </gpxtpx:TrackPointExtension>
        </extensions>
      </trkpt>
      <trkpt lat="48.6268" lon="1.97132">
        <ele>151.2</ele>
        <time>2025-11-16T11:57:19Z</time>
        <extensions>
          <gpxtpx:TrackPointExtension xmlns:gpxtpx="http://www.garmin.com/xmlschemas/TrackPointExtension/v1">
            <gpxtpx:hr>125</gpxtpx:hr>
          </gpxtpx:TrackPointExtension>
        </extensions>
      </trkpt>
      <trkpt lat="48.62682" lon="1.97131">
        <ele>151</ele>
        <time>2025-11-16T11:57:25Z</time>
        <extensions>
          <gpxtpx:TrackPointExtension xmlns:gpxtpx="http://www.garmin.com/xmlschemas/TrackPointExtension/v1">
            <gpxtpx:hr>124</gpxtpx:hr>
          </gpxtpx:TrackPointExtension>
        </extensions>
      </trkpt>
      <trkpt lat="48.62684" lon="1.97132">
        <ele>151</ele>
        <time>2025-11-16T11:57:28Z</time>
        <extensions>
          <gpxtpx:TrackPointExtension xmlns:gpxtpx="http://www.garmin.com/xmlschemas/TrackPointExtension/v1">
            <gpxtpx:hr>124</gpxtpx:hr>
          </gpxtpx:TrackPointExtension>
        </extensions>
      </trkpt>
      <trkpt lat="48.62687" lon="1.97134">
        <ele>151</ele>
        <time>2025-11-16T11:57:30Z</time>
        <extensions>
          <gpxtpx:TrackPointExtension xmlns:gpxtpx="http://www.garmin.com/xmlschemas/TrackPointExtension/v1">
            <gpxtpx:hr>124</gpxtpx:hr>
          </gpxtpx:TrackPointExtension>
        </extensions>
      </trkpt>
      <trkpt lat="48.6269" lon="1.97135">
        <ele>151</ele>
        <time>2025-11-16T11:57:32Z</time>
        <extensions>
          <gpxtpx:TrackPointExtension xmlns:gpxtpx="http://www.garmin.com/xmlschemas/TrackPointExtension/v1">
            <gpxtpx:hr>124</gpxtpx:hr>
          </gpxtpx:TrackPointExtension>
        </extensions>
      </trkpt>
      <trkpt lat="48.62693" lon="1.97137">
        <ele>151</ele>
        <time>2025-11-16T11:57:34Z</time>
        <extensions>
          <gpxtpx:TrackPointExtension xmlns:gpxtpx="http://www.garmin.com/xmlschemas/TrackPointExtension/v1">
            <gpxtpx:hr>124</gpxtpx:hr>
          </gpxtpx:TrackPointExtension>
        </extensions>
      </trkpt>
      <trkpt lat="48.62696" lon="1.97139">
        <ele>151</ele>
        <time>2025-11-16T11:57:36Z</time>
        <extensions>
          <gpxtpx:TrackPointExtension xmlns:gpxtpx="http://www.garmin.com/xmlschemas/TrackPointExtension/v1">
            <gpxtpx:hr>124</gpxtpx:hr>
          </gpxtpx:TrackPointExtension>
        </extensions>
      </trkpt>
      <trkpt lat="48.62699" lon="1.97141">
        <ele>151</ele>
        <time>2025-11-16T11:57:38Z</time>
        <extensions>
          <gpxtpx:TrackPointExtension xmlns:gpxtpx="http://www.garmin.com/xmlschemas/TrackPointExtension/v1">
            <gpxtpx:hr>124</gpxtpx:hr>
          </gpxtpx:TrackPointExtension>
        </extensions>
      </trkpt>
      <trkpt lat="48.62701" lon="1.97141">
        <ele>150.6</ele>
        <time>2025-11-16T11:57:41Z</time>
        <extensions>
          <gpxtpx:TrackPointExtension xmlns:gpxtpx="http://www.garmin.com/xmlschemas/TrackPointExtension/v1">
            <gpxtpx:hr>123</gpxtpx:hr>
          </gpxtpx:TrackPointExtension>
        </extensions>
      </trkpt>
      <trkpt lat="48.62702" lon="1.97145">
        <ele>150</ele>
        <time>2025-11-16T11:57:50Z</time>
        <extensions>
          <gpxtpx:TrackPointExtension xmlns:gpxtpx="http://www.garmin.com/xmlschemas/TrackPointExtension/v1">
            <gpxtpx:hr>122</gpxtpx:hr>
          </gpxtpx:TrackPointExtension>
        </extensions>
      </trkpt>
      <trkpt lat="48.62704" lon="1.97144">
        <ele>149.2</ele>
        <time>2025-11-16T11:58:03Z</time>
        <extensions>
          <gpxtpx:TrackPointExtension xmlns:gpxtpx="http://www.garmin.com/xmlschemas/TrackPointExtension/v1">
            <gpxtpx:hr>117</gpxtpx:hr>
          </gpxtpx:TrackPointExtension>
        </extensions>
      </trkpt>
      <trkpt lat="48.62706" lon="1.97143">
        <ele>149.4</ele>
        <time>2025-11-16T11:58:05Z</time>
        <extensions>
          <gpxtpx:TrackPointExtension xmlns:gpxtpx="http://www.garmin.com/xmlschemas/TrackPointExtension/v1">
            <gpxtpx:hr>117</gpxtpx:hr>
          </gpxtpx:TrackPointExtension>
        </extensions>
      </trkpt>
      <trkpt lat="48.62708" lon="1.97141">
        <ele>149.4</ele>
        <time>2025-11-16T11:58:07Z</time>
        <extensions>
          <gpxtpx:TrackPointExtension xmlns:gpxtpx="http://www.garmin.com/xmlschemas/TrackPointExtension/v1">
            <gpxtpx:hr>117</gpxtpx:hr>
          </gpxtpx:TrackPointExtension>
        </extensions>
      </trkpt>
      <trkpt lat="48.62711" lon="1.9714">
        <ele>149.4</ele>
        <time>2025-11-16T11:58:09Z</time>
        <extensions>
          <gpxtpx:TrackPointExtension xmlns:gpxtpx="http://www.garmin.com/xmlschemas/TrackPointExtension/v1">
            <gpxtpx:hr>117</gpxtpx:hr>
          </gpxtpx:TrackPointExtension>
        </extensions>
      </trkpt>
      <trkpt lat="48.62714" lon="1.97139">
        <ele>149.4</ele>
        <time>2025-11-16T11:58:11Z</time>
        <extensions>
          <gpxtpx:TrackPointExtension xmlns:gpxtpx="http://www.garmin.com/xmlschemas/TrackPointExtension/v1">
            <gpxtpx:hr>117</gpxtpx:hr>
          </gpxtpx:TrackPointExtension>
        </extensions>
      </trkpt>
      <trkpt lat="48.62717" lon="1.97138">
        <ele>149.4</ele>
        <time>2025-11-16T11:58:13Z</time>
        <extensions>
          <gpxtpx:TrackPointExtension xmlns:gpxtpx="http://www.garmin.com/xmlschemas/TrackPointExtension/v1">
            <gpxtpx:hr>117</gpxtpx:hr>
          </gpxtpx:TrackPointExtension>
        </extensions>
      </trkpt>
      <trkpt lat="48.62719" lon="1.97137">
        <ele>149.4</ele>
        <time>2025-11-16T11:58:15Z</time>
        <extensions>
          <gpxtpx:TrackPointExtension xmlns:gpxtpx="http://www.garmin.com/xmlschemas/TrackPointExtension/v1">
            <gpxtpx:hr>117</gpxtpx:hr>
          </gpxtpx:TrackPointExtension>
        </extensions>
      </trkpt>
      <trkpt lat="48.62721" lon="1.97136">
        <ele>149.6</ele>
        <time>2025-11-16T11:58:17Z</time>
        <extensions>
          <gpxtpx:TrackPointExtension xmlns:gpxtpx="http://www.garmin.com/xmlschemas/TrackPointExtension/v1">
            <gpxtpx:hr>117</gpxtpx:hr>
          </gpxtpx:TrackPointExtension>
        </extensions>
      </trkpt>
      <trkpt lat="48.62723" lon="1.97136">
        <ele>149.4</ele>
        <time>2025-11-16T11:58:19Z</time>
        <extensions>
          <gpxtpx:TrackPointExtension xmlns:gpxtpx="http://www.garmin.com/xmlschemas/TrackPointExtension/v1">
            <gpxtpx:hr>117</gpxtpx:hr>
          </gpxtpx:TrackPointExtension>
        </extensions>
      </trkpt>
      <trkpt lat="48.62725" lon="1.97136">
        <ele>149.4</ele>
        <time>2025-11-16T11:58:21Z</time>
        <extensions>
          <gpxtpx:TrackPointExtension xmlns:gpxtpx="http://www.garmin.com/xmlschemas/TrackPointExtension/v1">
            <gpxtpx:hr>117</gpxtpx:hr>
          </gpxtpx:TrackPointExtension>
        </extensions>
      </trkpt>
      <trkpt lat="48.62728" lon="1.97137">
        <ele>149.2</ele>
        <time>2025-11-16T11:58:23Z</time>
        <extensions>
          <gpxtpx:TrackPointExtension xmlns:gpxtpx="http://www.garmin.com/xmlschemas/TrackPointExtension/v1">
            <gpxtpx:hr>117</gpxtpx:hr>
          </gpxtpx:TrackPointExtension>
        </extensions>
      </trkpt>
      <trkpt lat="48.62731" lon="1.97138">
        <ele>149.2</ele>
        <time>2025-11-16T11:58:25Z</time>
        <extensions>
          <gpxtpx:TrackPointExtension xmlns:gpxtpx="http://www.garmin.com/xmlschemas/TrackPointExtension/v1">
            <gpxtpx:hr>117</gpxtpx:hr>
          </gpxtpx:TrackPointExtension>
        </extensions>
      </trkpt>
      <trkpt lat="48.62733" lon="1.97138">
        <ele>149.2</ele>
        <time>2025-11-16T11:58:27Z</time>
        <extensions>
          <gpxtpx:TrackPointExtension xmlns:gpxtpx="http://www.garmin.com/xmlschemas/TrackPointExtension/v1">
            <gpxtpx:hr>117</gpxtpx:hr>
          </gpxtpx:TrackPointExtension>
        </extensions>
      </trkpt>
      <trkpt lat="48.62735" lon="1.97138">
        <ele>149.4</ele>
        <time>2025-11-16T11:58:29Z</time>
        <extensions>
          <gpxtpx:TrackPointExtension xmlns:gpxtpx="http://www.garmin.com/xmlschemas/TrackPointExtension/v1">
            <gpxtpx:hr>117</gpxtpx:hr>
          </gpxtpx:TrackPointExtension>
        </extensions>
      </trkpt>
      <trkpt lat="48.62739" lon="1.97137">
        <ele>149.6</ele>
        <time>2025-11-16T11:58:31Z</time>
        <extensions>
          <gpxtpx:TrackPointExtension xmlns:gpxtpx="http://www.garmin.com/xmlschemas/TrackPointExtension/v1">
            <gpxtpx:hr>117</gpxtpx:hr>
          </gpxtpx:TrackPointExtension>
        </extensions>
      </trkpt>
      <trkpt lat="48.62742" lon="1.97137">
        <ele>149.6</ele>
        <time>2025-11-16T11:58:33Z</time>
        <extensions>
          <gpxtpx:TrackPointExtension xmlns:gpxtpx="http://www.garmin.com/xmlschemas/TrackPointExtension/v1">
            <gpxtpx:hr>117</gpxtpx:hr>
          </gpxtpx:TrackPointExtension>
        </extensions>
      </trkpt>
      <trkpt lat="48.62744" lon="1.97136">
        <ele>149.6</ele>
        <time>2025-11-16T11:58:34Z</time>
        <extensions>
          <gpxtpx:TrackPointExtension xmlns:gpxtpx="http://www.garmin.com/xmlschemas/TrackPointExtension/v1">
            <gpxtpx:hr>117</gpxtpx:hr>
          </gpxtpx:TrackPointExtension>
        </extensions>
      </trkpt>
      <trkpt lat="48.62747" lon="1.97136">
        <ele>149.6</ele>
        <time>2025-11-16T11:58:36Z</time>
        <extensions>
          <gpxtpx:TrackPointExtension xmlns:gpxtpx="http://www.garmin.com/xmlschemas/TrackPointExtension/v1">
            <gpxtpx:hr>117</gpxtpx:hr>
          </gpxtpx:TrackPointExtension>
        </extensions>
      </trkpt>
      <trkpt lat="48.6275" lon="1.97136">
        <ele>149.8</ele>
        <time>2025-11-16T11:58:38Z</time>
        <extensions>
          <gpxtpx:TrackPointExtension xmlns:gpxtpx="http://www.garmin.com/xmlschemas/TrackPointExtension/v1">
            <gpxtpx:hr>117</gpxtpx:hr>
          </gpxtpx:TrackPointExtension>
        </extensions>
      </trkpt>
      <trkpt lat="48.62753" lon="1.97137">
        <ele>150</ele>
        <time>2025-11-16T11:58:40Z</time>
        <extensions>
          <gpxtpx:TrackPointExtension xmlns:gpxtpx="http://www.garmin.com/xmlschemas/TrackPointExtension/v1">
            <gpxtpx:hr>117</gpxtpx:hr>
          </gpxtpx:TrackPointExtension>
        </extensions>
      </trkpt>
      <trkpt lat="48.62755" lon="1.97137">
        <ele>150</ele>
        <time>2025-11-16T11:58:42Z</time>
        <extensions>
          <gpxtpx:TrackPointExtension xmlns:gpxtpx="http://www.garmin.com/xmlschemas/TrackPointExtension/v1">
            <gpxtpx:hr>117</gpxtpx:hr>
          </gpxtpx:TrackPointExtension>
        </extensions>
      </trkpt>
      <trkpt lat="48.62758" lon="1.97138">
        <ele>150</ele>
        <time>2025-11-16T11:58:44Z</time>
        <extensions>
          <gpxtpx:TrackPointExtension xmlns:gpxtpx="http://www.garmin.com/xmlschemas/TrackPointExtension/v1">
            <gpxtpx:hr>117</gpxtpx:hr>
          </gpxtpx:TrackPointExtension>
        </extensions>
      </trkpt>
      <trkpt lat="48.62761" lon="1.97139">
        <ele>149.8</ele>
        <time>2025-11-16T11:58:46Z</time>
        <extensions>
          <gpxtpx:TrackPointExtension xmlns:gpxtpx="http://www.garmin.com/xmlschemas/TrackPointExtension/v1">
            <gpxtpx:hr>117</gpxtpx:hr>
          </gpxtpx:TrackPointExtension>
        </extensions>
      </trkpt>
      <trkpt lat="48.62763" lon="1.97141">
        <ele>149.8</ele>
        <time>2025-11-16T11:58:48Z</time>
        <extensions>
          <gpxtpx:TrackPointExtension xmlns:gpxtpx="http://www.garmin.com/xmlschemas/TrackPointExtension/v1">
            <gpxtpx:hr>117</gpxtpx:hr>
          </gpxtpx:TrackPointExtension>
        </extensions>
      </trkpt>
      <trkpt lat="48.62765" lon="1.97142">
        <ele>149.8</ele>
        <time>2025-11-16T11:58:50Z</time>
        <extensions>
          <gpxtpx:TrackPointExtension xmlns:gpxtpx="http://www.garmin.com/xmlschemas/TrackPointExtension/v1">
            <gpxtpx:hr>117</gpxtpx:hr>
          </gpxtpx:TrackPointExtension>
        </extensions>
      </trkpt>
      <trkpt lat="48.62767" lon="1.97144">
        <ele>149.8</ele>
        <time>2025-11-16T11:58:52Z</time>
        <extensions>
          <gpxtpx:TrackPointExtension xmlns:gpxtpx="http://www.garmin.com/xmlschemas/TrackPointExtension/v1">
            <gpxtpx:hr>117</gpxtpx:hr>
          </gpxtpx:TrackPointExtension>
        </extensions>
      </trkpt>
      <trkpt lat="48.62769" lon="1.97145">
        <ele>149.8</ele>
        <time>2025-11-16T11:58:54Z</time>
        <extensions>
          <gpxtpx:TrackPointExtension xmlns:gpxtpx="http://www.garmin.com/xmlschemas/TrackPointExtension/v1">
            <gpxtpx:hr>118</gpxtpx:hr>
          </gpxtpx:TrackPointExtension>
        </extensions>
      </trkpt>
      <trkpt lat="48.62771" lon="1.97147">
        <ele>149.8</ele>
        <time>2025-11-16T11:58:56Z</time>
        <extensions>
          <gpxtpx:TrackPointExtension xmlns:gpxtpx="http://www.garmin.com/xmlschemas/TrackPointExtension/v1">
            <gpxtpx:hr>117</gpxtpx:hr>
          </gpxtpx:TrackPointExtension>
        </extensions>
      </trkpt>
      <trkpt lat="48.62774" lon="1.97148">
        <ele>149.8</ele>
        <time>2025-11-16T11:58:58Z</time>
        <extensions>
          <gpxtpx:TrackPointExtension xmlns:gpxtpx="http://www.garmin.com/xmlschemas/TrackPointExtension/v1">
            <gpxtpx:hr>117</gpxtpx:hr>
          </gpxtpx:TrackPointExtension>
        </extensions>
      </trkpt>
      <trkpt lat="48.62777" lon="1.9715">
        <ele>149.8</ele>
        <time>2025-11-16T11:59:00Z</time>
        <extensions>
          <gpxtpx:TrackPointExtension xmlns:gpxtpx="http://www.garmin.com/xmlschemas/TrackPointExtension/v1">
            <gpxtpx:hr>117</gpxtpx:hr>
          </gpxtpx:TrackPointExtension>
        </extensions>
      </trkpt>
      <trkpt lat="48.62779" lon="1.97152">
        <ele>149.6</ele>
        <time>2025-11-16T11:59:02Z</time>
        <extensions>
          <gpxtpx:TrackPointExtension xmlns:gpxtpx="http://www.garmin.com/xmlschemas/TrackPointExtension/v1">
            <gpxtpx:hr>117</gpxtpx:hr>
          </gpxtpx:TrackPointExtension>
        </extensions>
      </trkpt>
      <trkpt lat="48.62781" lon="1.97154">
        <ele>149.4</ele>
        <time>2025-11-16T11:59:04Z</time>
        <extensions>
          <gpxtpx:TrackPointExtension xmlns:gpxtpx="http://www.garmin.com/xmlschemas/TrackPointExtension/v1">
            <gpxtpx:hr>117</gpxtpx:hr>
          </gpxtpx:TrackPointExtension>
        </extensions>
      </trkpt>
      <trkpt lat="48.62784" lon="1.97156">
        <ele>149.2</ele>
        <time>2025-11-16T11:59:06Z</time>
        <extensions>
          <gpxtpx:TrackPointExtension xmlns:gpxtpx="http://www.garmin.com/xmlschemas/TrackPointExtension/v1">
            <gpxtpx:hr>117</gpxtpx:hr>
          </gpxtpx:TrackPointExtension>
        </extensions>
      </trkpt>
      <trkpt lat="48.62787" lon="1.97158">
        <ele>149</ele>
        <time>2025-11-16T11:59:08Z</time>
        <extensions>
          <gpxtpx:TrackPointExtension xmlns:gpxtpx="http://www.garmin.com/xmlschemas/TrackPointExtension/v1">
            <gpxtpx:hr>117</gpxtpx:hr>
          </gpxtpx:TrackPointExtension>
        </extensions>
      </trkpt>
      <trkpt lat="48.6279" lon="1.97161">
        <ele>148.6</ele>
        <time>2025-11-16T11:59:10Z</time>
        <extensions>
          <gpxtpx:TrackPointExtension xmlns:gpxtpx="http://www.garmin.com/xmlschemas/TrackPointExtension/v1">
            <gpxtpx:hr>117</gpxtpx:hr>
          </gpxtpx:TrackPointExtension>
        </extensions>
      </trkpt>
      <trkpt lat="48.62791" lon="1.97162">
        <ele>148.6</ele>
        <time>2025-11-16T11:59:11Z</time>
        <extensions>
          <gpxtpx:TrackPointExtension xmlns:gpxtpx="http://www.garmin.com/xmlschemas/TrackPointExtension/v1">
            <gpxtpx:hr>117</gpxtpx:hr>
          </gpxtpx:TrackPointExtension>
        </extensions>
      </trkpt>
      <trkpt lat="48.62793" lon="1.97163">
        <ele>148.6</ele>
        <time>2025-11-16T11:59:12Z</time>
        <extensions>
          <gpxtpx:TrackPointExtension xmlns:gpxtpx="http://www.garmin.com/xmlschemas/TrackPointExtension/v1">
            <gpxtpx:hr>117</gpxtpx:hr>
          </gpxtpx:TrackPointExtension>
        </extensions>
      </trkpt>
      <trkpt lat="48.62795" lon="1.97164">
        <ele>148.6</ele>
        <time>2025-11-16T11:59:13Z</time>
        <extensions>
          <gpxtpx:TrackPointExtension xmlns:gpxtpx="http://www.garmin.com/xmlschemas/TrackPointExtension/v1">
            <gpxtpx:hr>117</gpxtpx:hr>
          </gpxtpx:TrackPointExtension>
        </extensions>
      </trkpt>
      <trkpt lat="48.62796" lon="1.97166">
        <ele>148.4</ele>
        <time>2025-11-16T11:59:14Z</time>
        <extensions>
          <gpxtpx:TrackPointExtension xmlns:gpxtpx="http://www.garmin.com/xmlschemas/TrackPointExtension/v1">
            <gpxtpx:hr>117</gpxtpx:hr>
          </gpxtpx:TrackPointExtension>
        </extensions>
      </trkpt>
      <trkpt lat="48.62798" lon="1.97167">
        <ele>148.4</ele>
        <time>2025-11-16T11:59:15Z</time>
        <extensions>
          <gpxtpx:TrackPointExtension xmlns:gpxtpx="http://www.garmin.com/xmlschemas/TrackPointExtension/v1">
            <gpxtpx:hr>117</gpxtpx:hr>
          </gpxtpx:TrackPointExtension>
        </extensions>
      </trkpt>
      <trkpt lat="48.62801" lon="1.9717">
        <ele>148.4</ele>
        <time>2025-11-16T11:59:17Z</time>
        <extensions>
          <gpxtpx:TrackPointExtension xmlns:gpxtpx="http://www.garmin.com/xmlschemas/TrackPointExtension/v1">
            <gpxtpx:hr>116</gpxtpx:hr>
          </gpxtpx:TrackPointExtension>
        </extensions>
      </trkpt>
      <trkpt lat="48.62803" lon="1.97173">
        <ele>148</ele>
        <time>2025-11-16T11:59:19Z</time>
        <extensions>
          <gpxtpx:TrackPointExtension xmlns:gpxtpx="http://www.garmin.com/xmlschemas/TrackPointExtension/v1">
            <gpxtpx:hr>116</gpxtpx:hr>
          </gpxtpx:TrackPointExtension>
        </extensions>
      </trkpt>
      <trkpt lat="48.62805" lon="1.97176">
        <ele>147.8</ele>
        <time>2025-11-16T11:59:21Z</time>
        <extensions>
          <gpxtpx:TrackPointExtension xmlns:gpxtpx="http://www.garmin.com/xmlschemas/TrackPointExtension/v1">
            <gpxtpx:hr>115</gpxtpx:hr>
          </gpxtpx:TrackPointExtension>
        </extensions>
      </trkpt>
      <trkpt lat="48.62808" lon="1.97179">
        <ele>147.8</ele>
        <time>2025-11-16T11:59:23Z</time>
        <extensions>
          <gpxtpx:TrackPointExtension xmlns:gpxtpx="http://www.garmin.com/xmlschemas/TrackPointExtension/v1">
            <gpxtpx:hr>115</gpxtpx:hr>
          </gpxtpx:TrackPointExtension>
        </extensions>
      </trkpt>
      <trkpt lat="48.62811" lon="1.97182">
        <ele>147.6</ele>
        <time>2025-11-16T11:59:25Z</time>
        <extensions>
          <gpxtpx:TrackPointExtension xmlns:gpxtpx="http://www.garmin.com/xmlschemas/TrackPointExtension/v1">
            <gpxtpx:hr>115</gpxtpx:hr>
          </gpxtpx:TrackPointExtension>
        </extensions>
      </trkpt>
      <trkpt lat="48.62813" lon="1.97184">
        <ele>147.4</ele>
        <time>2025-11-16T11:59:26Z</time>
        <extensions>
          <gpxtpx:TrackPointExtension xmlns:gpxtpx="http://www.garmin.com/xmlschemas/TrackPointExtension/v1">
            <gpxtpx:hr>114</gpxtpx:hr>
          </gpxtpx:TrackPointExtension>
        </extensions>
      </trkpt>
      <trkpt lat="48.62815" lon="1.97185">
        <ele>147.4</ele>
        <time>2025-11-16T11:59:27Z</time>
        <extensions>
          <gpxtpx:TrackPointExtension xmlns:gpxtpx="http://www.garmin.com/xmlschemas/TrackPointExtension/v1">
            <gpxtpx:hr>113</gpxtpx:hr>
          </gpxtpx:TrackPointExtension>
        </extensions>
      </trkpt>
      <trkpt lat="48.62817" lon="1.97186">
        <ele>147.4</ele>
        <time>2025-11-16T11:59:28Z</time>
        <extensions>
          <gpxtpx:TrackPointExtension xmlns:gpxtpx="http://www.garmin.com/xmlschemas/TrackPointExtension/v1">
            <gpxtpx:hr>113</gpxtpx:hr>
          </gpxtpx:TrackPointExtension>
        </extensions>
      </trkpt>
      <trkpt lat="48.62819" lon="1.97188">
        <ele>147.2</ele>
        <time>2025-11-16T11:59:29Z</time>
        <extensions>
          <gpxtpx:TrackPointExtension xmlns:gpxtpx="http://www.garmin.com/xmlschemas/TrackPointExtension/v1">
            <gpxtpx:hr>112</gpxtpx:hr>
          </gpxtpx:TrackPointExtension>
        </extensions>
      </trkpt>
      <trkpt lat="48.6282" lon="1.97189">
        <ele>147.2</ele>
        <time>2025-11-16T11:59:30Z</time>
        <extensions>
          <gpxtpx:TrackPointExtension xmlns:gpxtpx="http://www.garmin.com/xmlschemas/TrackPointExtension/v1">
            <gpxtpx:hr>111</gpxtpx:hr>
          </gpxtpx:TrackPointExtension>
        </extensions>
      </trkpt>
      <trkpt lat="48.62822" lon="1.9719">
        <ele>147</ele>
        <time>2025-11-16T11:59:31Z</time>
        <extensions>
          <gpxtpx:TrackPointExtension xmlns:gpxtpx="http://www.garmin.com/xmlschemas/TrackPointExtension/v1">
            <gpxtpx:hr>111</gpxtpx:hr>
          </gpxtpx:TrackPointExtension>
        </extensions>
      </trkpt>
      <trkpt lat="48.62825" lon="1.97193">
        <ele>147</ele>
        <time>2025-11-16T11:59:33Z</time>
        <extensions>
          <gpxtpx:TrackPointExtension xmlns:gpxtpx="http://www.garmin.com/xmlschemas/TrackPointExtension/v1">
            <gpxtpx:hr>111</gpxtpx:hr>
          </gpxtpx:TrackPointExtension>
        </extensions>
      </trkpt>
      <trkpt lat="48.62827" lon="1.97195">
        <ele>146.6</ele>
        <time>2025-11-16T11:59:35Z</time>
        <extensions>
          <gpxtpx:TrackPointExtension xmlns:gpxtpx="http://www.garmin.com/xmlschemas/TrackPointExtension/v1">
            <gpxtpx:hr>111</gpxtpx:hr>
          </gpxtpx:TrackPointExtension>
        </extensions>
      </trkpt>
      <trkpt lat="48.62829" lon="1.97197">
        <ele>146.4</ele>
        <time>2025-11-16T11:59:37Z</time>
        <extensions>
          <gpxtpx:TrackPointExtension xmlns:gpxtpx="http://www.garmin.com/xmlschemas/TrackPointExtension/v1">
            <gpxtpx:hr>111</gpxtpx:hr>
          </gpxtpx:TrackPointExtension>
        </extensions>
      </trkpt>
      <trkpt lat="48.62833" lon="1.97198">
        <ele>146.2</ele>
        <time>2025-11-16T11:59:39Z</time>
        <extensions>
          <gpxtpx:TrackPointExtension xmlns:gpxtpx="http://www.garmin.com/xmlschemas/TrackPointExtension/v1">
            <gpxtpx:hr>111</gpxtpx:hr>
          </gpxtpx:TrackPointExtension>
        </extensions>
      </trkpt>
      <trkpt lat="48.62836" lon="1.97199">
        <ele>146</ele>
        <time>2025-11-16T11:59:41Z</time>
        <extensions>
          <gpxtpx:TrackPointExtension xmlns:gpxtpx="http://www.garmin.com/xmlschemas/TrackPointExtension/v1">
            <gpxtpx:hr>111</gpxtpx:hr>
          </gpxtpx:TrackPointExtension>
        </extensions>
      </trkpt>
      <trkpt lat="48.62839" lon="1.97199">
        <ele>146</ele>
        <time>2025-11-16T11:59:43Z</time>
        <extensions>
          <gpxtpx:TrackPointExtension xmlns:gpxtpx="http://www.garmin.com/xmlschemas/TrackPointExtension/v1">
            <gpxtpx:hr>111</gpxtpx:hr>
          </gpxtpx:TrackPointExtension>
        </extensions>
      </trkpt>
      <trkpt lat="48.62841" lon="1.972">
        <ele>146</ele>
        <time>2025-11-16T11:59:45Z</time>
        <extensions>
          <gpxtpx:TrackPointExtension xmlns:gpxtpx="http://www.garmin.com/xmlschemas/TrackPointExtension/v1">
            <gpxtpx:hr>111</gpxtpx:hr>
          </gpxtpx:TrackPointExtension>
        </extensions>
      </trkpt>
      <trkpt lat="48.62844" lon="1.972">
        <ele>146</ele>
        <time>2025-11-16T11:59:47Z</time>
        <extensions>
          <gpxtpx:TrackPointExtension xmlns:gpxtpx="http://www.garmin.com/xmlschemas/TrackPointExtension/v1">
            <gpxtpx:hr>111</gpxtpx:hr>
          </gpxtpx:TrackPointExtension>
        </extensions>
      </trkpt>
      <trkpt lat="48.62847" lon="1.97201">
        <ele>145.8</ele>
        <time>2025-11-16T11:59:49Z</time>
        <extensions>
          <gpxtpx:TrackPointExtension xmlns:gpxtpx="http://www.garmin.com/xmlschemas/TrackPointExtension/v1">
            <gpxtpx:hr>111</gpxtpx:hr>
          </gpxtpx:TrackPointExtension>
        </extensions>
      </trkpt>
      <trkpt lat="48.6285" lon="1.97202">
        <ele>145.6</ele>
        <time>2025-11-16T11:59:51Z</time>
        <extensions>
          <gpxtpx:TrackPointExtension xmlns:gpxtpx="http://www.garmin.com/xmlschemas/TrackPointExtension/v1">
            <gpxtpx:hr>112</gpxtpx:hr>
          </gpxtpx:TrackPointExtension>
        </extensions>
      </trkpt>
      <trkpt lat="48.62852" lon="1.97202">
        <ele>145.4</ele>
        <time>2025-11-16T11:59:53Z</time>
        <extensions>
          <gpxtpx:TrackPointExtension xmlns:gpxtpx="http://www.garmin.com/xmlschemas/TrackPointExtension/v1">
            <gpxtpx:hr>112</gpxtpx:hr>
          </gpxtpx:TrackPointExtension>
        </extensions>
      </trkpt>
      <trkpt lat="48.62854" lon="1.97203">
        <ele>145.2</ele>
        <time>2025-11-16T11:59:55Z</time>
        <extensions>
          <gpxtpx:TrackPointExtension xmlns:gpxtpx="http://www.garmin.com/xmlschemas/TrackPointExtension/v1">
            <gpxtpx:hr>112</gpxtpx:hr>
          </gpxtpx:TrackPointExtension>
        </extensions>
      </trkpt>
      <trkpt lat="48.62857" lon="1.97204">
        <ele>145</ele>
        <time>2025-11-16T11:59:57Z</time>
        <extensions>
          <gpxtpx:TrackPointExtension xmlns:gpxtpx="http://www.garmin.com/xmlschemas/TrackPointExtension/v1">
            <gpxtpx:hr>112</gpxtpx:hr>
          </gpxtpx:TrackPointExtension>
        </extensions>
      </trkpt>
      <trkpt lat="48.6286" lon="1.97205">
        <ele>144.8</ele>
        <time>2025-11-16T11:59:59Z</time>
        <extensions>
          <gpxtpx:TrackPointExtension xmlns:gpxtpx="http://www.garmin.com/xmlschemas/TrackPointExtension/v1">
            <gpxtpx:hr>112</gpxtpx:hr>
          </gpxtpx:TrackPointExtension>
        </extensions>
      </trkpt>
      <trkpt lat="48.62863" lon="1.97205">
        <ele>144.6</ele>
        <time>2025-11-16T12:00:01Z</time>
        <extensions>
          <gpxtpx:TrackPointExtension xmlns:gpxtpx="http://www.garmin.com/xmlschemas/TrackPointExtension/v1">
            <gpxtpx:hr>112</gpxtpx:hr>
          </gpxtpx:TrackPointExtension>
        </extensions>
      </trkpt>
      <trkpt lat="48.62866" lon="1.97205">
        <ele>144.4</ele>
        <time>2025-11-16T12:00:03Z</time>
        <extensions>
          <gpxtpx:TrackPointExtension xmlns:gpxtpx="http://www.garmin.com/xmlschemas/TrackPointExtension/v1">
            <gpxtpx:hr>112</gpxtpx:hr>
          </gpxtpx:TrackPointExtension>
        </extensions>
      </trkpt>
      <trkpt lat="48.62868" lon="1.97205">
        <ele>144.2</ele>
        <time>2025-11-16T12:00:05Z</time>
        <extensions>
          <gpxtpx:TrackPointExtension xmlns:gpxtpx="http://www.garmin.com/xmlschemas/TrackPointExtension/v1">
            <gpxtpx:hr>112</gpxtpx:hr>
          </gpxtpx:TrackPointExtension>
        </extensions>
      </trkpt>
      <trkpt lat="48.6287" lon="1.97205">
        <ele>144.2</ele>
        <time>2025-11-16T12:00:07Z</time>
        <extensions>
          <gpxtpx:TrackPointExtension xmlns:gpxtpx="http://www.garmin.com/xmlschemas/TrackPointExtension/v1">
            <gpxtpx:hr>112</gpxtpx:hr>
          </gpxtpx:TrackPointExtension>
        </extensions>
      </trkpt>
      <trkpt lat="48.62872" lon="1.97205">
        <ele>144</ele>
        <time>2025-11-16T12:00:09Z</time>
        <extensions>
          <gpxtpx:TrackPointExtension xmlns:gpxtpx="http://www.garmin.com/xmlschemas/TrackPointExtension/v1">
            <gpxtpx:hr>112</gpxtpx:hr>
          </gpxtpx:TrackPointExtension>
        </extensions>
      </trkpt>
      <trkpt lat="48.62874" lon="1.97205">
        <ele>143.8</ele>
        <time>2025-11-16T12:00:11Z</time>
        <extensions>
          <gpxtpx:TrackPointExtension xmlns:gpxtpx="http://www.garmin.com/xmlschemas/TrackPointExtension/v1">
            <gpxtpx:hr>112</gpxtpx:hr>
          </gpxtpx:TrackPointExtension>
        </extensions>
      </trkpt>
      <trkpt lat="48.62876" lon="1.97205">
        <ele>143.6</ele>
        <time>2025-11-16T12:00:13Z</time>
        <extensions>
          <gpxtpx:TrackPointExtension xmlns:gpxtpx="http://www.garmin.com/xmlschemas/TrackPointExtension/v1">
            <gpxtpx:hr>112</gpxtpx:hr>
          </gpxtpx:TrackPointExtension>
        </extensions>
      </trkpt>
      <trkpt lat="48.62878" lon="1.97205">
        <ele>143.4</ele>
        <time>2025-11-16T12:00:15Z</time>
        <extensions>
          <gpxtpx:TrackPointExtension xmlns:gpxtpx="http://www.garmin.com/xmlschemas/TrackPointExtension/v1">
            <gpxtpx:hr>112</gpxtpx:hr>
          </gpxtpx:TrackPointExtension>
        </extensions>
      </trkpt>
      <trkpt lat="48.6288" lon="1.97205">
        <ele>143.2</ele>
        <time>2025-11-16T12:00:17Z</time>
        <extensions>
          <gpxtpx:TrackPointExtension xmlns:gpxtpx="http://www.garmin.com/xmlschemas/TrackPointExtension/v1">
            <gpxtpx:hr>112</gpxtpx:hr>
          </gpxtpx:TrackPointExtension>
        </extensions>
      </trkpt>
      <trkpt lat="48.62883" lon="1.97206">
        <ele>142.8</ele>
        <time>2025-11-16T12:00:19Z</time>
        <extensions>
          <gpxtpx:TrackPointExtension xmlns:gpxtpx="http://www.garmin.com/xmlschemas/TrackPointExtension/v1">
            <gpxtpx:hr>112</gpxtpx:hr>
          </gpxtpx:TrackPointExtension>
        </extensions>
      </trkpt>
      <trkpt lat="48.62886" lon="1.97206">
        <ele>142.6</ele>
        <time>2025-11-16T12:00:21Z</time>
        <extensions>
          <gpxtpx:TrackPointExtension xmlns:gpxtpx="http://www.garmin.com/xmlschemas/TrackPointExtension/v1">
            <gpxtpx:hr>112</gpxtpx:hr>
          </gpxtpx:TrackPointExtension>
        </extensions>
      </trkpt>
      <trkpt lat="48.62889" lon="1.97206">
        <ele>142.4</ele>
        <time>2025-11-16T12:00:23Z</time>
        <extensions>
          <gpxtpx:TrackPointExtension xmlns:gpxtpx="http://www.garmin.com/xmlschemas/TrackPointExtension/v1">
            <gpxtpx:hr>112</gpxtpx:hr>
          </gpxtpx:TrackPointExtension>
        </extensions>
      </trkpt>
      <trkpt lat="48.62891" lon="1.97206">
        <ele>142.2</ele>
        <time>2025-11-16T12:00:24Z</time>
        <extensions>
          <gpxtpx:TrackPointExtension xmlns:gpxtpx="http://www.garmin.com/xmlschemas/TrackPointExtension/v1">
            <gpxtpx:hr>112</gpxtpx:hr>
          </gpxtpx:TrackPointExtension>
        </extensions>
      </trkpt>
      <trkpt lat="48.62893" lon="1.97207">
        <ele>142.2</ele>
        <time>2025-11-16T12:00:25Z</time>
        <extensions>
          <gpxtpx:TrackPointExtension xmlns:gpxtpx="http://www.garmin.com/xmlschemas/TrackPointExtension/v1">
            <gpxtpx:hr>112</gpxtpx:hr>
          </gpxtpx:TrackPointExtension>
        </extensions>
      </trkpt>
      <trkpt lat="48.62895" lon="1.97206">
        <ele>142</ele>
        <time>2025-11-16T12:00:26Z</time>
        <extensions>
          <gpxtpx:TrackPointExtension xmlns:gpxtpx="http://www.garmin.com/xmlschemas/TrackPointExtension/v1">
            <gpxtpx:hr>112</gpxtpx:hr>
          </gpxtpx:TrackPointExtension>
        </extensions>
      </trkpt>
      <trkpt lat="48.62897" lon="1.97206">
        <ele>142</ele>
        <time>2025-11-16T12:00:27Z</time>
        <extensions>
          <gpxtpx:TrackPointExtension xmlns:gpxtpx="http://www.garmin.com/xmlschemas/TrackPointExtension/v1">
            <gpxtpx:hr>112</gpxtpx:hr>
          </gpxtpx:TrackPointExtension>
        </extensions>
      </trkpt>
      <trkpt lat="48.62899" lon="1.97206">
        <ele>141.8</ele>
        <time>2025-11-16T12:00:28Z</time>
        <extensions>
          <gpxtpx:TrackPointExtension xmlns:gpxtpx="http://www.garmin.com/xmlschemas/TrackPointExtension/v1">
            <gpxtpx:hr>112</gpxtpx:hr>
          </gpxtpx:TrackPointExtension>
        </extensions>
      </trkpt>
      <trkpt lat="48.629" lon="1.97206">
        <ele>141.8</ele>
        <time>2025-11-16T12:00:29Z</time>
        <extensions>
          <gpxtpx:TrackPointExtension xmlns:gpxtpx="http://www.garmin.com/xmlschemas/TrackPointExtension/v1">
            <gpxtpx:hr>112</gpxtpx:hr>
          </gpxtpx:TrackPointExtension>
        </extensions>
      </trkpt>
      <trkpt lat="48.62902" lon="1.97205">
        <ele>141.6</ele>
        <time>2025-11-16T12:00:30Z</time>
        <extensions>
          <gpxtpx:TrackPointExtension xmlns:gpxtpx="http://www.garmin.com/xmlschemas/TrackPointExtension/v1">
            <gpxtpx:hr>112</gpxtpx:hr>
          </gpxtpx:TrackPointExtension>
        </extensions>
      </trkpt>
      <trkpt lat="48.62906" lon="1.97204">
        <ele>141.4</ele>
        <time>2025-11-16T12:00:32Z</time>
        <extensions>
          <gpxtpx:TrackPointExtension xmlns:gpxtpx="http://www.garmin.com/xmlschemas/TrackPointExtension/v1">
            <gpxtpx:hr>112</gpxtpx:hr>
          </gpxtpx:TrackPointExtension>
        </extensions>
      </trkpt>
      <trkpt lat="48.62908" lon="1.97204">
        <ele>141.2</ele>
        <time>2025-11-16T12:00:34Z</time>
        <extensions>
          <gpxtpx:TrackPointExtension xmlns:gpxtpx="http://www.garmin.com/xmlschemas/TrackPointExtension/v1">
            <gpxtpx:hr>113</gpxtpx:hr>
          </gpxtpx:TrackPointExtension>
        </extensions>
      </trkpt>
      <trkpt lat="48.62911" lon="1.97203">
        <ele>141</ele>
        <time>2025-11-16T12:00:36Z</time>
        <extensions>
          <gpxtpx:TrackPointExtension xmlns:gpxtpx="http://www.garmin.com/xmlschemas/TrackPointExtension/v1">
            <gpxtpx:hr>113</gpxtpx:hr>
          </gpxtpx:TrackPointExtension>
        </extensions>
      </trkpt>
      <trkpt lat="48.62914" lon="1.97202">
        <ele>140.6</ele>
        <time>2025-11-16T12:00:38Z</time>
        <extensions>
          <gpxtpx:TrackPointExtension xmlns:gpxtpx="http://www.garmin.com/xmlschemas/TrackPointExtension/v1">
            <gpxtpx:hr>114</gpxtpx:hr>
          </gpxtpx:TrackPointExtension>
        </extensions>
      </trkpt>
      <trkpt lat="48.62916" lon="1.97201">
        <ele>140.2</ele>
        <time>2025-11-16T12:00:40Z</time>
        <extensions>
          <gpxtpx:TrackPointExtension xmlns:gpxtpx="http://www.garmin.com/xmlschemas/TrackPointExtension/v1">
            <gpxtpx:hr>114</gpxtpx:hr>
          </gpxtpx:TrackPointExtension>
        </extensions>
      </trkpt>
      <trkpt lat="48.62918" lon="1.972">
        <ele>140</ele>
        <time>2025-11-16T12:00:42Z</time>
        <extensions>
          <gpxtpx:TrackPointExtension xmlns:gpxtpx="http://www.garmin.com/xmlschemas/TrackPointExtension/v1">
            <gpxtpx:hr>115</gpxtpx:hr>
          </gpxtpx:TrackPointExtension>
        </extensions>
      </trkpt>
      <trkpt lat="48.62921" lon="1.97199">
        <ele>139.6</ele>
        <time>2025-11-16T12:00:44Z</time>
        <extensions>
          <gpxtpx:TrackPointExtension xmlns:gpxtpx="http://www.garmin.com/xmlschemas/TrackPointExtension/v1">
            <gpxtpx:hr>115</gpxtpx:hr>
          </gpxtpx:TrackPointExtension>
        </extensions>
      </trkpt>
      <trkpt lat="48.62924" lon="1.97198">
        <ele>139.4</ele>
        <time>2025-11-16T12:00:46Z</time>
        <extensions>
          <gpxtpx:TrackPointExtension xmlns:gpxtpx="http://www.garmin.com/xmlschemas/TrackPointExtension/v1">
            <gpxtpx:hr>115</gpxtpx:hr>
          </gpxtpx:TrackPointExtension>
        </extensions>
      </trkpt>
      <trkpt lat="48.62926" lon="1.97197">
        <ele>139</ele>
        <time>2025-11-16T12:00:48Z</time>
        <extensions>
          <gpxtpx:TrackPointExtension xmlns:gpxtpx="http://www.garmin.com/xmlschemas/TrackPointExtension/v1">
            <gpxtpx:hr>115</gpxtpx:hr>
          </gpxtpx:TrackPointExtension>
        </extensions>
      </trkpt>
      <trkpt lat="48.62929" lon="1.97195">
        <ele>138.8</ele>
        <time>2025-11-16T12:00:50Z</time>
        <extensions>
          <gpxtpx:TrackPointExtension xmlns:gpxtpx="http://www.garmin.com/xmlschemas/TrackPointExtension/v1">
            <gpxtpx:hr>114</gpxtpx:hr>
          </gpxtpx:TrackPointExtension>
        </extensions>
      </trkpt>
      <trkpt lat="48.62932" lon="1.97194">
        <ele>138.4</ele>
        <time>2025-11-16T12:00:52Z</time>
        <extensions>
          <gpxtpx:TrackPointExtension xmlns:gpxtpx="http://www.garmin.com/xmlschemas/TrackPointExtension/v1">
            <gpxtpx:hr>114</gpxtpx:hr>
          </gpxtpx:TrackPointExtension>
        </extensions>
      </trkpt>
      <trkpt lat="48.62934" lon="1.97192">
        <ele>138.2</ele>
        <time>2025-11-16T12:00:54Z</time>
        <extensions>
          <gpxtpx:TrackPointExtension xmlns:gpxtpx="http://www.garmin.com/xmlschemas/TrackPointExtension/v1">
            <gpxtpx:hr>114</gpxtpx:hr>
          </gpxtpx:TrackPointExtension>
        </extensions>
      </trkpt>
      <trkpt lat="48.62937" lon="1.9719">
        <ele>138</ele>
        <time>2025-11-16T12:00:56Z</time>
        <extensions>
          <gpxtpx:TrackPointExtension xmlns:gpxtpx="http://www.garmin.com/xmlschemas/TrackPointExtension/v1">
            <gpxtpx:hr>114</gpxtpx:hr>
          </gpxtpx:TrackPointExtension>
        </extensions>
      </trkpt>
      <trkpt lat="48.62941" lon="1.97188">
        <ele>137.6</ele>
        <time>2025-11-16T12:00:59Z</time>
        <extensions>
          <gpxtpx:TrackPointExtension xmlns:gpxtpx="http://www.garmin.com/xmlschemas/TrackPointExtension/v1">
            <gpxtpx:hr>114</gpxtpx:hr>
          </gpxtpx:TrackPointExtension>
        </extensions>
      </trkpt>
      <trkpt lat="48.62944" lon="1.97187">
        <ele>137.4</ele>
        <time>2025-11-16T12:01:02Z</time>
        <extensions>
          <gpxtpx:TrackPointExtension xmlns:gpxtpx="http://www.garmin.com/xmlschemas/TrackPointExtension/v1">
            <gpxtpx:hr>114</gpxtpx:hr>
          </gpxtpx:TrackPointExtension>
        </extensions>
      </trkpt>
      <trkpt lat="48.62946" lon="1.97186">
        <ele>137.4</ele>
        <time>2025-11-16T12:01:04Z</time>
        <extensions>
          <gpxtpx:TrackPointExtension xmlns:gpxtpx="http://www.garmin.com/xmlschemas/TrackPointExtension/v1">
            <gpxtpx:hr>113</gpxtpx:hr>
          </gpxtpx:TrackPointExtension>
        </extensions>
      </trkpt>
      <trkpt lat="48.62948" lon="1.97186">
        <ele>137.2</ele>
        <time>2025-11-16T12:01:06Z</time>
        <extensions>
          <gpxtpx:TrackPointExtension xmlns:gpxtpx="http://www.garmin.com/xmlschemas/TrackPointExtension/v1">
            <gpxtpx:hr>113</gpxtpx:hr>
          </gpxtpx:TrackPointExtension>
        </extensions>
      </trkpt>
      <trkpt lat="48.62951" lon="1.97185">
        <ele>137</ele>
        <time>2025-11-16T12:01:08Z</time>
        <extensions>
          <gpxtpx:TrackPointExtension xmlns:gpxtpx="http://www.garmin.com/xmlschemas/TrackPointExtension/v1">
            <gpxtpx:hr>113</gpxtpx:hr>
          </gpxtpx:TrackPointExtension>
        </extensions>
      </trkpt>
      <trkpt lat="48.62954" lon="1.97185">
        <ele>136.8</ele>
        <time>2025-11-16T12:01:10Z</time>
        <extensions>
          <gpxtpx:TrackPointExtension xmlns:gpxtpx="http://www.garmin.com/xmlschemas/TrackPointExtension/v1">
            <gpxtpx:hr>114</gpxtpx:hr>
          </gpxtpx:TrackPointExtension>
        </extensions>
      </trkpt>
      <trkpt lat="48.62956" lon="1.97184">
        <ele>136.6</ele>
        <time>2025-11-16T12:01:12Z</time>
        <extensions>
          <gpxtpx:TrackPointExtension xmlns:gpxtpx="http://www.garmin.com/xmlschemas/TrackPointExtension/v1">
            <gpxtpx:hr>114</gpxtpx:hr>
          </gpxtpx:TrackPointExtension>
        </extensions>
      </trkpt>
      <trkpt lat="48.6296" lon="1.97184">
        <ele>136.6</ele>
        <time>2025-11-16T12:01:14Z</time>
        <extensions>
          <gpxtpx:TrackPointExtension xmlns:gpxtpx="http://www.garmin.com/xmlschemas/TrackPointExtension/v1">
            <gpxtpx:hr>114</gpxtpx:hr>
          </gpxtpx:TrackPointExtension>
        </extensions>
      </trkpt>
      <trkpt lat="48.62964" lon="1.97184">
        <ele>136.4</ele>
        <time>2025-11-16T12:01:16Z</time>
        <extensions>
          <gpxtpx:TrackPointExtension xmlns:gpxtpx="http://www.garmin.com/xmlschemas/TrackPointExtension/v1">
            <gpxtpx:hr>114</gpxtpx:hr>
          </gpxtpx:TrackPointExtension>
        </extensions>
      </trkpt>
      <trkpt lat="48.62965" lon="1.97185">
        <ele>136.4</ele>
        <time>2025-11-16T12:01:17Z</time>
        <extensions>
          <gpxtpx:TrackPointExtension xmlns:gpxtpx="http://www.garmin.com/xmlschemas/TrackPointExtension/v1">
            <gpxtpx:hr>114</gpxtpx:hr>
          </gpxtpx:TrackPointExtension>
        </extensions>
      </trkpt>
      <trkpt lat="48.62967" lon="1.97185">
        <ele>136.2</ele>
        <time>2025-11-16T12:01:18Z</time>
        <extensions>
          <gpxtpx:TrackPointExtension xmlns:gpxtpx="http://www.garmin.com/xmlschemas/TrackPointExtension/v1">
            <gpxtpx:hr>114</gpxtpx:hr>
          </gpxtpx:TrackPointExtension>
        </extensions>
      </trkpt>
      <trkpt lat="48.6297" lon="1.97186">
        <ele>136.2</ele>
        <time>2025-11-16T12:01:19Z</time>
        <extensions>
          <gpxtpx:TrackPointExtension xmlns:gpxtpx="http://www.garmin.com/xmlschemas/TrackPointExtension/v1">
            <gpxtpx:hr>114</gpxtpx:hr>
          </gpxtpx:TrackPointExtension>
        </extensions>
      </trkpt>
      <trkpt lat="48.62973" lon="1.97186">
        <ele>136</ele>
        <time>2025-11-16T12:01:21Z</time>
        <extensions>
          <gpxtpx:TrackPointExtension xmlns:gpxtpx="http://www.garmin.com/xmlschemas/TrackPointExtension/v1">
            <gpxtpx:hr>114</gpxtpx:hr>
          </gpxtpx:TrackPointExtension>
        </extensions>
      </trkpt>
      <trkpt lat="48.62976" lon="1.97186">
        <ele>135.8</ele>
        <time>2025-11-16T12:01:23Z</time>
        <extensions>
          <gpxtpx:TrackPointExtension xmlns:gpxtpx="http://www.garmin.com/xmlschemas/TrackPointExtension/v1">
            <gpxtpx:hr>114</gpxtpx:hr>
          </gpxtpx:TrackPointExtension>
        </extensions>
      </trkpt>
      <trkpt lat="48.62978" lon="1.97186">
        <ele>135.6</ele>
        <time>2025-11-16T12:01:25Z</time>
        <extensions>
          <gpxtpx:TrackPointExtension xmlns:gpxtpx="http://www.garmin.com/xmlschemas/TrackPointExtension/v1">
            <gpxtpx:hr>114</gpxtpx:hr>
          </gpxtpx:TrackPointExtension>
        </extensions>
      </trkpt>
      <trkpt lat="48.62981" lon="1.97186">
        <ele>135.4</ele>
        <time>2025-11-16T12:01:27Z</time>
        <extensions>
          <gpxtpx:TrackPointExtension xmlns:gpxtpx="http://www.garmin.com/xmlschemas/TrackPointExtension/v1">
            <gpxtpx:hr>114</gpxtpx:hr>
          </gpxtpx:TrackPointExtension>
        </extensions>
      </trkpt>
      <trkpt lat="48.62984" lon="1.97185">
        <ele>135.2</ele>
        <time>2025-11-16T12:01:29Z</time>
        <extensions>
          <gpxtpx:TrackPointExtension xmlns:gpxtpx="http://www.garmin.com/xmlschemas/TrackPointExtension/v1">
            <gpxtpx:hr>114</gpxtpx:hr>
          </gpxtpx:TrackPointExtension>
        </extensions>
      </trkpt>
      <trkpt lat="48.62988" lon="1.97184">
        <ele>135</ele>
        <time>2025-11-16T12:01:31Z</time>
        <extensions>
          <gpxtpx:TrackPointExtension xmlns:gpxtpx="http://www.garmin.com/xmlschemas/TrackPointExtension/v1">
            <gpxtpx:hr>114</gpxtpx:hr>
          </gpxtpx:TrackPointExtension>
        </extensions>
      </trkpt>
      <trkpt lat="48.6299" lon="1.97184">
        <ele>135</ele>
        <time>2025-11-16T12:01:32Z</time>
        <extensions>
          <gpxtpx:TrackPointExtension xmlns:gpxtpx="http://www.garmin.com/xmlschemas/TrackPointExtension/v1">
            <gpxtpx:hr>114</gpxtpx:hr>
          </gpxtpx:TrackPointExtension>
        </extensions>
      </trkpt>
      <trkpt lat="48.62993" lon="1.97184">
        <ele>135</ele>
        <time>2025-11-16T12:01:33Z</time>
        <extensions>
          <gpxtpx:TrackPointExtension xmlns:gpxtpx="http://www.garmin.com/xmlschemas/TrackPointExtension/v1">
            <gpxtpx:hr>114</gpxtpx:hr>
          </gpxtpx:TrackPointExtension>
        </extensions>
      </trkpt>
      <trkpt lat="48.62997" lon="1.97185">
        <ele>134.8</ele>
        <time>2025-11-16T12:01:34Z</time>
        <extensions>
          <gpxtpx:TrackPointExtension xmlns:gpxtpx="http://www.garmin.com/xmlschemas/TrackPointExtension/v1">
            <gpxtpx:hr>114</gpxtpx:hr>
          </gpxtpx:TrackPointExtension>
        </extensions>
      </trkpt>
      <trkpt lat="48.63" lon="1.97185">
        <ele>134.8</ele>
        <time>2025-11-16T12:01:35Z</time>
        <extensions>
          <gpxtpx:TrackPointExtension xmlns:gpxtpx="http://www.garmin.com/xmlschemas/TrackPointExtension/v1">
            <gpxtpx:hr>114</gpxtpx:hr>
          </gpxtpx:TrackPointExtension>
        </extensions>
      </trkpt>
      <trkpt lat="48.63003" lon="1.97186">
        <ele>134.6</ele>
        <time>2025-11-16T12:01:36Z</time>
        <extensions>
          <gpxtpx:TrackPointExtension xmlns:gpxtpx="http://www.garmin.com/xmlschemas/TrackPointExtension/v1">
            <gpxtpx:hr>114</gpxtpx:hr>
          </gpxtpx:TrackPointExtension>
        </extensions>
      </trkpt>
      <trkpt lat="48.63006" lon="1.97187">
        <ele>134.6</ele>
        <time>2025-11-16T12:01:37Z</time>
        <extensions>
          <gpxtpx:TrackPointExtension xmlns:gpxtpx="http://www.garmin.com/xmlschemas/TrackPointExtension/v1">
            <gpxtpx:hr>114</gpxtpx:hr>
          </gpxtpx:TrackPointExtension>
        </extensions>
      </trkpt>
      <trkpt lat="48.63009" lon="1.97187">
        <ele>134.4</ele>
        <time>2025-11-16T12:01:38Z</time>
        <extensions>
          <gpxtpx:TrackPointExtension xmlns:gpxtpx="http://www.garmin.com/xmlschemas/TrackPointExtension/v1">
            <gpxtpx:hr>114</gpxtpx:hr>
          </gpxtpx:TrackPointExtension>
        </extensions>
      </trkpt>
      <trkpt lat="48.63011" lon="1.97188">
        <ele>134.2</ele>
        <time>2025-11-16T12:01:39Z</time>
        <extensions>
          <gpxtpx:TrackPointExtension xmlns:gpxtpx="http://www.garmin.com/xmlschemas/TrackPointExtension/v1">
            <gpxtpx:hr>114</gpxtpx:hr>
          </gpxtpx:TrackPointExtension>
        </extensions>
      </trkpt>
      <trkpt lat="48.63013" lon="1.97188">
        <ele>134</ele>
        <time>2025-11-16T12:01:40Z</time>
        <extensions>
          <gpxtpx:TrackPointExtension xmlns:gpxtpx="http://www.garmin.com/xmlschemas/TrackPointExtension/v1">
            <gpxtpx:hr>114</gpxtpx:hr>
          </gpxtpx:TrackPointExtension>
        </extensions>
      </trkpt>
      <trkpt lat="48.63015" lon="1.97188">
        <ele>133.8</ele>
        <time>2025-11-16T12:01:41Z</time>
        <extensions>
          <gpxtpx:TrackPointExtension xmlns:gpxtpx="http://www.garmin.com/xmlschemas/TrackPointExtension/v1">
            <gpxtpx:hr>114</gpxtpx:hr>
          </gpxtpx:TrackPointExtension>
        </extensions>
      </trkpt>
      <trkpt lat="48.63018" lon="1.97189">
        <ele>133.6</ele>
        <time>2025-11-16T12:01:42Z</time>
        <extensions>
          <gpxtpx:TrackPointExtension xmlns:gpxtpx="http://www.garmin.com/xmlschemas/TrackPointExtension/v1">
            <gpxtpx:hr>114</gpxtpx:hr>
          </gpxtpx:TrackPointExtension>
        </extensions>
      </trkpt>
      <trkpt lat="48.6302" lon="1.97189">
        <ele>133.4</ele>
        <time>2025-11-16T12:01:43Z</time>
        <extensions>
          <gpxtpx:TrackPointExtension xmlns:gpxtpx="http://www.garmin.com/xmlschemas/TrackPointExtension/v1">
            <gpxtpx:hr>114</gpxtpx:hr>
          </gpxtpx:TrackPointExtension>
        </extensions>
      </trkpt>
      <trkpt lat="48.63023" lon="1.97188">
        <ele>133</ele>
        <time>2025-11-16T12:01:45Z</time>
        <extensions>
          <gpxtpx:TrackPointExtension xmlns:gpxtpx="http://www.garmin.com/xmlschemas/TrackPointExtension/v1">
            <gpxtpx:hr>114</gpxtpx:hr>
          </gpxtpx:TrackPointExtension>
        </extensions>
      </trkpt>
      <trkpt lat="48.63025" lon="1.97188">
        <ele>132.8</ele>
        <time>2025-11-16T12:01:47Z</time>
        <extensions>
          <gpxtpx:TrackPointExtension xmlns:gpxtpx="http://www.garmin.com/xmlschemas/TrackPointExtension/v1">
            <gpxtpx:hr>114</gpxtpx:hr>
          </gpxtpx:TrackPointExtension>
        </extensions>
      </trkpt>
      <trkpt lat="48.63027" lon="1.97188">
        <ele>132.4</ele>
        <time>2025-11-16T12:01:49Z</time>
        <extensions>
          <gpxtpx:TrackPointExtension xmlns:gpxtpx="http://www.garmin.com/xmlschemas/TrackPointExtension/v1">
            <gpxtpx:hr>114</gpxtpx:hr>
          </gpxtpx:TrackPointExtension>
        </extensions>
      </trkpt>
      <trkpt lat="48.63029" lon="1.97189">
        <ele>131.8</ele>
        <time>2025-11-16T12:01:51Z</time>
        <extensions>
          <gpxtpx:TrackPointExtension xmlns:gpxtpx="http://www.garmin.com/xmlschemas/TrackPointExtension/v1">
            <gpxtpx:hr>114</gpxtpx:hr>
          </gpxtpx:TrackPointExtension>
        </extensions>
      </trkpt>
      <trkpt lat="48.63031" lon="1.97192">
        <ele>131.4</ele>
        <time>2025-11-16T12:01:53Z</time>
        <extensions>
          <gpxtpx:TrackPointExtension xmlns:gpxtpx="http://www.garmin.com/xmlschemas/TrackPointExtension/v1">
            <gpxtpx:hr>115</gpxtpx:hr>
          </gpxtpx:TrackPointExtension>
        </extensions>
      </trkpt>
      <trkpt lat="48.63033" lon="1.97195">
        <ele>131</ele>
        <time>2025-11-16T12:01:55Z</time>
        <extensions>
          <gpxtpx:TrackPointExtension xmlns:gpxtpx="http://www.garmin.com/xmlschemas/TrackPointExtension/v1">
            <gpxtpx:hr>115</gpxtpx:hr>
          </gpxtpx:TrackPointExtension>
        </extensions>
      </trkpt>
      <trkpt lat="48.63035" lon="1.97199">
        <ele>130.6</ele>
        <time>2025-11-16T12:01:57Z</time>
        <extensions>
          <gpxtpx:TrackPointExtension xmlns:gpxtpx="http://www.garmin.com/xmlschemas/TrackPointExtension/v1">
            <gpxtpx:hr>115</gpxtpx:hr>
          </gpxtpx:TrackPointExtension>
        </extensions>
      </trkpt>
      <trkpt lat="48.63036" lon="1.97203">
        <ele>130.2</ele>
        <time>2025-11-16T12:01:59Z</time>
        <extensions>
          <gpxtpx:TrackPointExtension xmlns:gpxtpx="http://www.garmin.com/xmlschemas/TrackPointExtension/v1">
            <gpxtpx:hr>115</gpxtpx:hr>
          </gpxtpx:TrackPointExtension>
        </extensions>
      </trkpt>
      <trkpt lat="48.63039" lon="1.97207">
        <ele>129.8</ele>
        <time>2025-11-16T12:02:01Z</time>
        <extensions>
          <gpxtpx:TrackPointExtension xmlns:gpxtpx="http://www.garmin.com/xmlschemas/TrackPointExtension/v1">
            <gpxtpx:hr>115</gpxtpx:hr>
          </gpxtpx:TrackPointExtension>
        </extensions>
      </trkpt>
      <trkpt lat="48.63041" lon="1.97212">
        <ele>129.4</ele>
        <time>2025-11-16T12:02:03Z</time>
        <extensions>
          <gpxtpx:TrackPointExtension xmlns:gpxtpx="http://www.garmin.com/xmlschemas/TrackPointExtension/v1">
            <gpxtpx:hr>115</gpxtpx:hr>
          </gpxtpx:TrackPointExtension>
        </extensions>
      </trkpt>
      <trkpt lat="48.63042" lon="1.97214">
        <ele>129.2</ele>
        <time>2025-11-16T12:02:04Z</time>
        <extensions>
          <gpxtpx:TrackPointExtension xmlns:gpxtpx="http://www.garmin.com/xmlschemas/TrackPointExtension/v1">
            <gpxtpx:hr>115</gpxtpx:hr>
          </gpxtpx:TrackPointExtension>
        </extensions>
      </trkpt>
      <trkpt lat="48.63043" lon="1.97219">
        <ele>128.6</ele>
        <time>2025-11-16T12:02:06Z</time>
        <extensions>
          <gpxtpx:TrackPointExtension xmlns:gpxtpx="http://www.garmin.com/xmlschemas/TrackPointExtension/v1">
            <gpxtpx:hr>115</gpxtpx:hr>
          </gpxtpx:TrackPointExtension>
        </extensions>
      </trkpt>
      <trkpt lat="48.63043" lon="1.97223">
        <ele>128.2</ele>
        <time>2025-11-16T12:02:08Z</time>
        <extensions>
          <gpxtpx:TrackPointExtension xmlns:gpxtpx="http://www.garmin.com/xmlschemas/TrackPointExtension/v1">
            <gpxtpx:hr>115</gpxtpx:hr>
          </gpxtpx:TrackPointExtension>
        </extensions>
      </trkpt>
      <trkpt lat="48.63044" lon="1.97227">
        <ele>128</ele>
        <time>2025-11-16T12:02:10Z</time>
        <extensions>
          <gpxtpx:TrackPointExtension xmlns:gpxtpx="http://www.garmin.com/xmlschemas/TrackPointExtension/v1">
            <gpxtpx:hr>115</gpxtpx:hr>
          </gpxtpx:TrackPointExtension>
        </extensions>
      </trkpt>
      <trkpt lat="48.63046" lon="1.97231">
        <ele>127.6</ele>
        <time>2025-11-16T12:02:12Z</time>
        <extensions>
          <gpxtpx:TrackPointExtension xmlns:gpxtpx="http://www.garmin.com/xmlschemas/TrackPointExtension/v1">
            <gpxtpx:hr>114</gpxtpx:hr>
          </gpxtpx:TrackPointExtension>
        </extensions>
      </trkpt>
      <trkpt lat="48.63048" lon="1.97236">
        <ele>127.2</ele>
        <time>2025-11-16T12:02:14Z</time>
        <extensions>
          <gpxtpx:TrackPointExtension xmlns:gpxtpx="http://www.garmin.com/xmlschemas/TrackPointExtension/v1">
            <gpxtpx:hr>114</gpxtpx:hr>
          </gpxtpx:TrackPointExtension>
        </extensions>
      </trkpt>
      <trkpt lat="48.63049" lon="1.97239">
        <ele>127</ele>
        <time>2025-11-16T12:02:15Z</time>
        <extensions>
          <gpxtpx:TrackPointExtension xmlns:gpxtpx="http://www.garmin.com/xmlschemas/TrackPointExtension/v1">
            <gpxtpx:hr>114</gpxtpx:hr>
          </gpxtpx:TrackPointExtension>
        </extensions>
      </trkpt>
      <trkpt lat="48.6305" lon="1.97241">
        <ele>127</ele>
        <time>2025-11-16T12:02:16Z</time>
        <extensions>
          <gpxtpx:TrackPointExtension xmlns:gpxtpx="http://www.garmin.com/xmlschemas/TrackPointExtension/v1">
            <gpxtpx:hr>114</gpxtpx:hr>
          </gpxtpx:TrackPointExtension>
        </extensions>
      </trkpt>
      <trkpt lat="48.63051" lon="1.97244">
        <ele>126.8</ele>
        <time>2025-11-16T12:02:17Z</time>
        <extensions>
          <gpxtpx:TrackPointExtension xmlns:gpxtpx="http://www.garmin.com/xmlschemas/TrackPointExtension/v1">
            <gpxtpx:hr>114</gpxtpx:hr>
          </gpxtpx:TrackPointExtension>
        </extensions>
      </trkpt>
      <trkpt lat="48.63052" lon="1.97247">
        <ele>126.8</ele>
        <time>2025-11-16T12:02:18Z</time>
        <extensions>
          <gpxtpx:TrackPointExtension xmlns:gpxtpx="http://www.garmin.com/xmlschemas/TrackPointExtension/v1">
            <gpxtpx:hr>114</gpxtpx:hr>
          </gpxtpx:TrackPointExtension>
        </extensions>
      </trkpt>
      <trkpt lat="48.63053" lon="1.97249">
        <ele>126.6</ele>
        <time>2025-11-16T12:02:19Z</time>
        <extensions>
          <gpxtpx:TrackPointExtension xmlns:gpxtpx="http://www.garmin.com/xmlschemas/TrackPointExtension/v1">
            <gpxtpx:hr>114</gpxtpx:hr>
          </gpxtpx:TrackPointExtension>
        </extensions>
      </trkpt>
      <trkpt lat="48.63054" lon="1.97252">
        <ele>126.6</ele>
        <time>2025-11-16T12:02:20Z</time>
        <extensions>
          <gpxtpx:TrackPointExtension xmlns:gpxtpx="http://www.garmin.com/xmlschemas/TrackPointExtension/v1">
            <gpxtpx:hr>114</gpxtpx:hr>
          </gpxtpx:TrackPointExtension>
        </extensions>
      </trkpt>
      <trkpt lat="48.63055" lon="1.97255">
        <ele>126.4</ele>
        <time>2025-11-16T12:02:21Z</time>
        <extensions>
          <gpxtpx:TrackPointExtension xmlns:gpxtpx="http://www.garmin.com/xmlschemas/TrackPointExtension/v1">
            <gpxtpx:hr>114</gpxtpx:hr>
          </gpxtpx:TrackPointExtension>
        </extensions>
      </trkpt>
      <trkpt lat="48.63055" lon="1.97257">
        <ele>126.2</ele>
        <time>2025-11-16T12:02:22Z</time>
        <extensions>
          <gpxtpx:TrackPointExtension xmlns:gpxtpx="http://www.garmin.com/xmlschemas/TrackPointExtension/v1">
            <gpxtpx:hr>114</gpxtpx:hr>
          </gpxtpx:TrackPointExtension>
        </extensions>
      </trkpt>
      <trkpt lat="48.63055" lon="1.9726">
        <ele>126.2</ele>
        <time>2025-11-16T12:02:23Z</time>
        <extensions>
          <gpxtpx:TrackPointExtension xmlns:gpxtpx="http://www.garmin.com/xmlschemas/TrackPointExtension/v1">
            <gpxtpx:hr>114</gpxtpx:hr>
          </gpxtpx:TrackPointExtension>
        </extensions>
      </trkpt>
      <trkpt lat="48.63055" lon="1.97265">
        <ele>126</ele>
        <time>2025-11-16T12:02:25Z</time>
        <extensions>
          <gpxtpx:TrackPointExtension xmlns:gpxtpx="http://www.garmin.com/xmlschemas/TrackPointExtension/v1">
            <gpxtpx:hr>114</gpxtpx:hr>
          </gpxtpx:TrackPointExtension>
        </extensions>
      </trkpt>
      <trkpt lat="48.63055" lon="1.9727">
        <ele>125.8</ele>
        <time>2025-11-16T12:02:27Z</time>
        <extensions>
          <gpxtpx:TrackPointExtension xmlns:gpxtpx="http://www.garmin.com/xmlschemas/TrackPointExtension/v1">
            <gpxtpx:hr>114</gpxtpx:hr>
          </gpxtpx:TrackPointExtension>
        </extensions>
      </trkpt>
      <trkpt lat="48.63054" lon="1.97274">
        <ele>125.6</ele>
        <time>2025-11-16T12:02:29Z</time>
        <extensions>
          <gpxtpx:TrackPointExtension xmlns:gpxtpx="http://www.garmin.com/xmlschemas/TrackPointExtension/v1">
            <gpxtpx:hr>114</gpxtpx:hr>
          </gpxtpx:TrackPointExtension>
        </extensions>
      </trkpt>
      <trkpt lat="48.63054" lon="1.97278">
        <ele>125.4</ele>
        <time>2025-11-16T12:02:31Z</time>
        <extensions>
          <gpxtpx:TrackPointExtension xmlns:gpxtpx="http://www.garmin.com/xmlschemas/TrackPointExtension/v1">
            <gpxtpx:hr>114</gpxtpx:hr>
          </gpxtpx:TrackPointExtension>
        </extensions>
      </trkpt>
      <trkpt lat="48.63054" lon="1.97282">
        <ele>125.4</ele>
        <time>2025-11-16T12:02:33Z</time>
        <extensions>
          <gpxtpx:TrackPointExtension xmlns:gpxtpx="http://www.garmin.com/xmlschemas/TrackPointExtension/v1">
            <gpxtpx:hr>114</gpxtpx:hr>
          </gpxtpx:TrackPointExtension>
        </extensions>
      </trkpt>
      <trkpt lat="48.63053" lon="1.97286">
        <ele>125.2</ele>
        <time>2025-11-16T12:02:35Z</time>
        <extensions>
          <gpxtpx:TrackPointExtension xmlns:gpxtpx="http://www.garmin.com/xmlschemas/TrackPointExtension/v1">
            <gpxtpx:hr>114</gpxtpx:hr>
          </gpxtpx:TrackPointExtension>
        </extensions>
      </trkpt>
      <trkpt lat="48.63052" lon="1.97289">
        <ele>125.2</ele>
        <time>2025-11-16T12:02:37Z</time>
        <extensions>
          <gpxtpx:TrackPointExtension xmlns:gpxtpx="http://www.garmin.com/xmlschemas/TrackPointExtension/v1">
            <gpxtpx:hr>114</gpxtpx:hr>
          </gpxtpx:TrackPointExtension>
        </extensions>
      </trkpt>
      <trkpt lat="48.63052" lon="1.97292">
        <ele>125.2</ele>
        <time>2025-11-16T12:02:39Z</time>
        <extensions>
          <gpxtpx:TrackPointExtension xmlns:gpxtpx="http://www.garmin.com/xmlschemas/TrackPointExtension/v1">
            <gpxtpx:hr>114</gpxtpx:hr>
          </gpxtpx:TrackPointExtension>
        </extensions>
      </trkpt>
      <trkpt lat="48.63051" lon="1.97294">
        <ele>125.2</ele>
        <time>2025-11-16T12:02:41Z</time>
        <extensions>
          <gpxtpx:TrackPointExtension xmlns:gpxtpx="http://www.garmin.com/xmlschemas/TrackPointExtension/v1">
            <gpxtpx:hr>114</gpxtpx:hr>
          </gpxtpx:TrackPointExtension>
        </extensions>
      </trkpt>
      <trkpt lat="48.6305" lon="1.97297">
        <ele>125.2</ele>
        <time>2025-11-16T12:02:43Z</time>
        <extensions>
          <gpxtpx:TrackPointExtension xmlns:gpxtpx="http://www.garmin.com/xmlschemas/TrackPointExtension/v1">
            <gpxtpx:hr>114</gpxtpx:hr>
          </gpxtpx:TrackPointExtension>
        </extensions>
      </trkpt>
      <trkpt lat="48.63049" lon="1.973">
        <ele>125.2</ele>
        <time>2025-11-16T12:02:45Z</time>
        <extensions>
          <gpxtpx:TrackPointExtension xmlns:gpxtpx="http://www.garmin.com/xmlschemas/TrackPointExtension/v1">
            <gpxtpx:hr>114</gpxtpx:hr>
          </gpxtpx:TrackPointExtension>
        </extensions>
      </trkpt>
      <trkpt lat="48.63047" lon="1.97303">
        <ele>125</ele>
        <time>2025-11-16T12:02:47Z</time>
        <extensions>
          <gpxtpx:TrackPointExtension xmlns:gpxtpx="http://www.garmin.com/xmlschemas/TrackPointExtension/v1">
            <gpxtpx:hr>115</gpxtpx:hr>
          </gpxtpx:TrackPointExtension>
        </extensions>
      </trkpt>
      <trkpt lat="48.63044" lon="1.97307">
        <ele>125</ele>
        <time>2025-11-16T12:02:49Z</time>
        <extensions>
          <gpxtpx:TrackPointExtension xmlns:gpxtpx="http://www.garmin.com/xmlschemas/TrackPointExtension/v1">
            <gpxtpx:hr>115</gpxtpx:hr>
          </gpxtpx:TrackPointExtension>
        </extensions>
      </trkpt>
      <trkpt lat="48.63043" lon="1.97309">
        <ele>125</ele>
        <time>2025-11-16T12:02:50Z</time>
        <extensions>
          <gpxtpx:TrackPointExtension xmlns:gpxtpx="http://www.garmin.com/xmlschemas/TrackPointExtension/v1">
            <gpxtpx:hr>115</gpxtpx:hr>
          </gpxtpx:TrackPointExtension>
        </extensions>
      </trkpt>
      <trkpt lat="48.63042" lon="1.97311">
        <ele>125</ele>
        <time>2025-11-16T12:02:51Z</time>
        <extensions>
          <gpxtpx:TrackPointExtension xmlns:gpxtpx="http://www.garmin.com/xmlschemas/TrackPointExtension/v1">
            <gpxtpx:hr>114</gpxtpx:hr>
          </gpxtpx:TrackPointExtension>
        </extensions>
      </trkpt>
      <trkpt lat="48.6304" lon="1.97313">
        <ele>125.2</ele>
        <time>2025-11-16T12:02:52Z</time>
        <extensions>
          <gpxtpx:TrackPointExtension xmlns:gpxtpx="http://www.garmin.com/xmlschemas/TrackPointExtension/v1">
            <gpxtpx:hr>114</gpxtpx:hr>
          </gpxtpx:TrackPointExtension>
        </extensions>
      </trkpt>
      <trkpt lat="48.63039" lon="1.97316">
        <ele>125.2</ele>
        <time>2025-11-16T12:02:53Z</time>
        <extensions>
          <gpxtpx:TrackPointExtension xmlns:gpxtpx="http://www.garmin.com/xmlschemas/TrackPointExtension/v1">
            <gpxtpx:hr>114</gpxtpx:hr>
          </gpxtpx:TrackPointExtension>
        </extensions>
      </trkpt>
      <trkpt lat="48.63038" lon="1.97318">
        <ele>125.2</ele>
        <time>2025-11-16T12:02:54Z</time>
        <extensions>
          <gpxtpx:TrackPointExtension xmlns:gpxtpx="http://www.garmin.com/xmlschemas/TrackPointExtension/v1">
            <gpxtpx:hr>114</gpxtpx:hr>
          </gpxtpx:TrackPointExtension>
        </extensions>
      </trkpt>
      <trkpt lat="48.63036" lon="1.97321">
        <ele>125.2</ele>
        <time>2025-11-16T12:02:55Z</time>
        <extensions>
          <gpxtpx:TrackPointExtension xmlns:gpxtpx="http://www.garmin.com/xmlschemas/TrackPointExtension/v1">
            <gpxtpx:hr>114</gpxtpx:hr>
          </gpxtpx:TrackPointExtension>
        </extensions>
      </trkpt>
      <trkpt lat="48.63035" lon="1.97324">
        <ele>125.2</ele>
        <time>2025-11-16T12:02:56Z</time>
        <extensions>
          <gpxtpx:TrackPointExtension xmlns:gpxtpx="http://www.garmin.com/xmlschemas/TrackPointExtension/v1">
            <gpxtpx:hr>114</gpxtpx:hr>
          </gpxtpx:TrackPointExtension>
        </extensions>
      </trkpt>
      <trkpt lat="48.63034" lon="1.97326">
        <ele>125.2</ele>
        <time>2025-11-16T12:02:57Z</time>
        <extensions>
          <gpxtpx:TrackPointExtension xmlns:gpxtpx="http://www.garmin.com/xmlschemas/TrackPointExtension/v1">
            <gpxtpx:hr>114</gpxtpx:hr>
          </gpxtpx:TrackPointExtension>
        </extensions>
      </trkpt>
      <trkpt lat="48.63033" lon="1.97329">
        <ele>125.2</ele>
        <time>2025-11-16T12:02:58Z</time>
        <extensions>
          <gpxtpx:TrackPointExtension xmlns:gpxtpx="http://www.garmin.com/xmlschemas/TrackPointExtension/v1">
            <gpxtpx:hr>114</gpxtpx:hr>
          </gpxtpx:TrackPointExtension>
        </extensions>
      </trkpt>
      <trkpt lat="48.63031" lon="1.97332">
        <ele>125.2</ele>
        <time>2025-11-16T12:02:59Z</time>
        <extensions>
          <gpxtpx:TrackPointExtension xmlns:gpxtpx="http://www.garmin.com/xmlschemas/TrackPointExtension/v1">
            <gpxtpx:hr>114</gpxtpx:hr>
          </gpxtpx:TrackPointExtension>
        </extensions>
      </trkpt>
      <trkpt lat="48.6303" lon="1.97335">
        <ele>125.2</ele>
        <time>2025-11-16T12:03:00Z</time>
        <extensions>
          <gpxtpx:TrackPointExtension xmlns:gpxtpx="http://www.garmin.com/xmlschemas/TrackPointExtension/v1">
            <gpxtpx:hr>114</gpxtpx:hr>
          </gpxtpx:TrackPointExtension>
        </extensions>
      </trkpt>
      <trkpt lat="48.63029" lon="1.97337">
        <ele>125.2</ele>
        <time>2025-11-16T12:03:01Z</time>
        <extensions>
          <gpxtpx:TrackPointExtension xmlns:gpxtpx="http://www.garmin.com/xmlschemas/TrackPointExtension/v1">
            <gpxtpx:hr>114</gpxtpx:hr>
          </gpxtpx:TrackPointExtension>
        </extensions>
      </trkpt>
      <trkpt lat="48.63027" lon="1.9734">
        <ele>125.2</ele>
        <time>2025-11-16T12:03:02Z</time>
        <extensions>
          <gpxtpx:TrackPointExtension xmlns:gpxtpx="http://www.garmin.com/xmlschemas/TrackPointExtension/v1">
            <gpxtpx:hr>114</gpxtpx:hr>
          </gpxtpx:TrackPointExtension>
        </extensions>
      </trkpt>
      <trkpt lat="48.63025" lon="1.97343">
        <ele>125</ele>
        <time>2025-11-16T12:03:03Z</time>
        <extensions>
          <gpxtpx:TrackPointExtension xmlns:gpxtpx="http://www.garmin.com/xmlschemas/TrackPointExtension/v1">
            <gpxtpx:hr>114</gpxtpx:hr>
          </gpxtpx:TrackPointExtension>
        </extensions>
      </trkpt>
      <trkpt lat="48.63023" lon="1.97346">
        <ele>125</ele>
        <time>2025-11-16T12:03:04Z</time>
        <extensions>
          <gpxtpx:TrackPointExtension xmlns:gpxtpx="http://www.garmin.com/xmlschemas/TrackPointExtension/v1">
            <gpxtpx:hr>114</gpxtpx:hr>
          </gpxtpx:TrackPointExtension>
        </extensions>
      </trkpt>
      <trkpt lat="48.63022" lon="1.9735">
        <ele>125</ele>
        <time>2025-11-16T12:03:05Z</time>
        <extensions>
          <gpxtpx:TrackPointExtension xmlns:gpxtpx="http://www.garmin.com/xmlschemas/TrackPointExtension/v1">
            <gpxtpx:hr>114</gpxtpx:hr>
          </gpxtpx:TrackPointExtension>
        </extensions>
      </trkpt>
      <trkpt lat="48.6302" lon="1.97354">
        <ele>125</ele>
        <time>2025-11-16T12:03:06Z</time>
        <extensions>
          <gpxtpx:TrackPointExtension xmlns:gpxtpx="http://www.garmin.com/xmlschemas/TrackPointExtension/v1">
            <gpxtpx:hr>114</gpxtpx:hr>
          </gpxtpx:TrackPointExtension>
        </extensions>
      </trkpt>
      <trkpt lat="48.63019" lon="1.97358">
        <ele>125</ele>
        <time>2025-11-16T12:03:07Z</time>
        <extensions>
          <gpxtpx:TrackPointExtension xmlns:gpxtpx="http://www.garmin.com/xmlschemas/TrackPointExtension/v1">
            <gpxtpx:hr>114</gpxtpx:hr>
          </gpxtpx:TrackPointExtension>
        </extensions>
      </trkpt>
      <trkpt lat="48.63018" lon="1.97362">
        <ele>125</ele>
        <time>2025-11-16T12:03:08Z</time>
        <extensions>
          <gpxtpx:TrackPointExtension xmlns:gpxtpx="http://www.garmin.com/xmlschemas/TrackPointExtension/v1">
            <gpxtpx:hr>114</gpxtpx:hr>
          </gpxtpx:TrackPointExtension>
        </extensions>
      </trkpt>
      <trkpt lat="48.63017" lon="1.97366">
        <ele>125</ele>
        <time>2025-11-16T12:03:09Z</time>
        <extensions>
          <gpxtpx:TrackPointExtension xmlns:gpxtpx="http://www.garmin.com/xmlschemas/TrackPointExtension/v1">
            <gpxtpx:hr>114</gpxtpx:hr>
          </gpxtpx:TrackPointExtension>
        </extensions>
      </trkpt>
      <trkpt lat="48.63016" lon="1.97369">
        <ele>125</ele>
        <time>2025-11-16T12:03:10Z</time>
        <extensions>
          <gpxtpx:TrackPointExtension xmlns:gpxtpx="http://www.garmin.com/xmlschemas/TrackPointExtension/v1">
            <gpxtpx:hr>114</gpxtpx:hr>
          </gpxtpx:TrackPointExtension>
        </extensions>
      </trkpt>
      <trkpt lat="48.63015" lon="1.97373">
        <ele>125</ele>
        <time>2025-11-16T12:03:11Z</time>
        <extensions>
          <gpxtpx:TrackPointExtension xmlns:gpxtpx="http://www.garmin.com/xmlschemas/TrackPointExtension/v1">
            <gpxtpx:hr>113</gpxtpx:hr>
          </gpxtpx:TrackPointExtension>
        </extensions>
      </trkpt>
      <trkpt lat="48.63014" lon="1.97375">
        <ele>124.8</ele>
        <time>2025-11-16T12:03:12Z</time>
        <extensions>
          <gpxtpx:TrackPointExtension xmlns:gpxtpx="http://www.garmin.com/xmlschemas/TrackPointExtension/v1">
            <gpxtpx:hr>113</gpxtpx:hr>
          </gpxtpx:TrackPointExtension>
        </extensions>
      </trkpt>
      <trkpt lat="48.63012" lon="1.97378">
        <ele>124.8</ele>
        <time>2025-11-16T12:03:14Z</time>
        <extensions>
          <gpxtpx:TrackPointExtension xmlns:gpxtpx="http://www.garmin.com/xmlschemas/TrackPointExtension/v1">
            <gpxtpx:hr>113</gpxtpx:hr>
          </gpxtpx:TrackPointExtension>
        </extensions>
      </trkpt>
      <trkpt lat="48.6301" lon="1.97377">
        <ele>124.6</ele>
        <time>2025-11-16T12:03:16Z</time>
        <extensions>
          <gpxtpx:TrackPointExtension xmlns:gpxtpx="http://www.garmin.com/xmlschemas/TrackPointExtension/v1">
            <gpxtpx:hr>113</gpxtpx:hr>
          </gpxtpx:TrackPointExtension>
        </extensions>
      </trkpt>
      <trkpt lat="48.63008" lon="1.97376">
        <ele>124.4</ele>
        <time>2025-11-16T12:03:18Z</time>
        <extensions>
          <gpxtpx:TrackPointExtension xmlns:gpxtpx="http://www.garmin.com/xmlschemas/TrackPointExtension/v1">
            <gpxtpx:hr>113</gpxtpx:hr>
          </gpxtpx:TrackPointExtension>
        </extensions>
      </trkpt>
      <trkpt lat="48.63005" lon="1.97376">
        <ele>124.4</ele>
        <time>2025-11-16T12:03:20Z</time>
        <extensions>
          <gpxtpx:TrackPointExtension xmlns:gpxtpx="http://www.garmin.com/xmlschemas/TrackPointExtension/v1">
            <gpxtpx:hr>113</gpxtpx:hr>
          </gpxtpx:TrackPointExtension>
        </extensions>
      </trkpt>
      <trkpt lat="48.63003" lon="1.97376">
        <ele>124.4</ele>
        <time>2025-11-16T12:03:22Z</time>
        <extensions>
          <gpxtpx:TrackPointExtension xmlns:gpxtpx="http://www.garmin.com/xmlschemas/TrackPointExtension/v1">
            <gpxtpx:hr>113</gpxtpx:hr>
          </gpxtpx:TrackPointExtension>
        </extensions>
      </trkpt>
      <trkpt lat="48.63001" lon="1.97378">
        <ele>124.2</ele>
        <time>2025-11-16T12:03:25Z</time>
        <extensions>
          <gpxtpx:TrackPointExtension xmlns:gpxtpx="http://www.garmin.com/xmlschemas/TrackPointExtension/v1">
            <gpxtpx:hr>114</gpxtpx:hr>
          </gpxtpx:TrackPointExtension>
        </extensions>
      </trkpt>
      <trkpt lat="48.62999" lon="1.9738">
        <ele>124</ele>
        <time>2025-11-16T12:03:27Z</time>
        <extensions>
          <gpxtpx:TrackPointExtension xmlns:gpxtpx="http://www.garmin.com/xmlschemas/TrackPointExtension/v1">
            <gpxtpx:hr>114</gpxtpx:hr>
          </gpxtpx:TrackPointExtension>
        </extensions>
      </trkpt>
      <trkpt lat="48.62997" lon="1.97383">
        <ele>124</ele>
        <time>2025-11-16T12:03:29Z</time>
        <extensions>
          <gpxtpx:TrackPointExtension xmlns:gpxtpx="http://www.garmin.com/xmlschemas/TrackPointExtension/v1">
            <gpxtpx:hr>114</gpxtpx:hr>
          </gpxtpx:TrackPointExtension>
        </extensions>
      </trkpt>
      <trkpt lat="48.62994" lon="1.97385">
        <ele>123.8</ele>
        <time>2025-11-16T12:03:31Z</time>
        <extensions>
          <gpxtpx:TrackPointExtension xmlns:gpxtpx="http://www.garmin.com/xmlschemas/TrackPointExtension/v1">
            <gpxtpx:hr>114</gpxtpx:hr>
          </gpxtpx:TrackPointExtension>
        </extensions>
      </trkpt>
      <trkpt lat="48.62992" lon="1.97386">
        <ele>123.6</ele>
        <time>2025-11-16T12:03:33Z</time>
        <extensions>
          <gpxtpx:TrackPointExtension xmlns:gpxtpx="http://www.garmin.com/xmlschemas/TrackPointExtension/v1">
            <gpxtpx:hr>114</gpxtpx:hr>
          </gpxtpx:TrackPointExtension>
        </extensions>
      </trkpt>
      <trkpt lat="48.6299" lon="1.97388">
        <ele>123.2</ele>
        <time>2025-11-16T12:03:35Z</time>
        <extensions>
          <gpxtpx:TrackPointExtension xmlns:gpxtpx="http://www.garmin.com/xmlschemas/TrackPointExtension/v1">
            <gpxtpx:hr>114</gpxtpx:hr>
          </gpxtpx:TrackPointExtension>
        </extensions>
      </trkpt>
      <trkpt lat="48.62988" lon="1.97389">
        <ele>123</ele>
        <time>2025-11-16T12:03:37Z</time>
        <extensions>
          <gpxtpx:TrackPointExtension xmlns:gpxtpx="http://www.garmin.com/xmlschemas/TrackPointExtension/v1">
            <gpxtpx:hr>113</gpxtpx:hr>
          </gpxtpx:TrackPointExtension>
        </extensions>
      </trkpt>
      <trkpt lat="48.62985" lon="1.9739">
        <ele>123</ele>
        <time>2025-11-16T12:03:39Z</time>
        <extensions>
          <gpxtpx:TrackPointExtension xmlns:gpxtpx="http://www.garmin.com/xmlschemas/TrackPointExtension/v1">
            <gpxtpx:hr>113</gpxtpx:hr>
          </gpxtpx:TrackPointExtension>
        </extensions>
      </trkpt>
      <trkpt lat="48.62982" lon="1.9739">
        <ele>122.8</ele>
        <time>2025-11-16T12:03:41Z</time>
        <extensions>
          <gpxtpx:TrackPointExtension xmlns:gpxtpx="http://www.garmin.com/xmlschemas/TrackPointExtension/v1">
            <gpxtpx:hr>113</gpxtpx:hr>
          </gpxtpx:TrackPointExtension>
        </extensions>
      </trkpt>
      <trkpt lat="48.6298" lon="1.97391">
        <ele>122.6</ele>
        <time>2025-11-16T12:03:43Z</time>
        <extensions>
          <gpxtpx:TrackPointExtension xmlns:gpxtpx="http://www.garmin.com/xmlschemas/TrackPointExtension/v1">
            <gpxtpx:hr>113</gpxtpx:hr>
          </gpxtpx:TrackPointExtension>
        </extensions>
      </trkpt>
      <trkpt lat="48.62976" lon="1.97393">
        <ele>122.6</ele>
        <time>2025-11-16T12:03:45Z</time>
        <extensions>
          <gpxtpx:TrackPointExtension xmlns:gpxtpx="http://www.garmin.com/xmlschemas/TrackPointExtension/v1">
            <gpxtpx:hr>113</gpxtpx:hr>
          </gpxtpx:TrackPointExtension>
        </extensions>
      </trkpt>
      <trkpt lat="48.62974" lon="1.97394">
        <ele>122.6</ele>
        <time>2025-11-16T12:03:46Z</time>
        <extensions>
          <gpxtpx:TrackPointExtension xmlns:gpxtpx="http://www.garmin.com/xmlschemas/TrackPointExtension/v1">
            <gpxtpx:hr>113</gpxtpx:hr>
          </gpxtpx:TrackPointExtension>
        </extensions>
      </trkpt>
      <trkpt lat="48.62972" lon="1.97397">
        <ele>122.6</ele>
        <time>2025-11-16T12:03:48Z</time>
        <extensions>
          <gpxtpx:TrackPointExtension xmlns:gpxtpx="http://www.garmin.com/xmlschemas/TrackPointExtension/v1">
            <gpxtpx:hr>113</gpxtpx:hr>
          </gpxtpx:TrackPointExtension>
        </extensions>
      </trkpt>
      <trkpt lat="48.6297" lon="1.97399">
        <ele>122.4</ele>
        <time>2025-11-16T12:03:50Z</time>
        <extensions>
          <gpxtpx:TrackPointExtension xmlns:gpxtpx="http://www.garmin.com/xmlschemas/TrackPointExtension/v1">
            <gpxtpx:hr>113</gpxtpx:hr>
          </gpxtpx:TrackPointExtension>
        </extensions>
      </trkpt>
      <trkpt lat="48.62968" lon="1.97402">
        <ele>122.4</ele>
        <time>2025-11-16T12:03:52Z</time>
        <extensions>
          <gpxtpx:TrackPointExtension xmlns:gpxtpx="http://www.garmin.com/xmlschemas/TrackPointExtension/v1">
            <gpxtpx:hr>113</gpxtpx:hr>
          </gpxtpx:TrackPointExtension>
        </extensions>
      </trkpt>
      <trkpt lat="48.62968" lon="1.97405">
        <ele>122.2</ele>
        <time>2025-11-16T12:03:54Z</time>
        <extensions>
          <gpxtpx:TrackPointExtension xmlns:gpxtpx="http://www.garmin.com/xmlschemas/TrackPointExtension/v1">
            <gpxtpx:hr>112</gpxtpx:hr>
          </gpxtpx:TrackPointExtension>
        </extensions>
      </trkpt>
      <trkpt lat="48.62967" lon="1.97408">
        <ele>122.2</ele>
        <time>2025-11-16T12:03:56Z</time>
        <extensions>
          <gpxtpx:TrackPointExtension xmlns:gpxtpx="http://www.garmin.com/xmlschemas/TrackPointExtension/v1">
            <gpxtpx:hr>112</gpxtpx:hr>
          </gpxtpx:TrackPointExtension>
        </extensions>
      </trkpt>
      <trkpt lat="48.62966" lon="1.97412">
        <ele>122</ele>
        <time>2025-11-16T12:03:58Z</time>
        <extensions>
          <gpxtpx:TrackPointExtension xmlns:gpxtpx="http://www.garmin.com/xmlschemas/TrackPointExtension/v1">
            <gpxtpx:hr>112</gpxtpx:hr>
          </gpxtpx:TrackPointExtension>
        </extensions>
      </trkpt>
      <trkpt lat="48.62965" lon="1.97416">
        <ele>121.8</ele>
        <time>2025-11-16T12:04:00Z</time>
        <extensions>
          <gpxtpx:TrackPointExtension xmlns:gpxtpx="http://www.garmin.com/xmlschemas/TrackPointExtension/v1">
            <gpxtpx:hr>112</gpxtpx:hr>
          </gpxtpx:TrackPointExtension>
        </extensions>
      </trkpt>
      <trkpt lat="48.62964" lon="1.9742">
        <ele>121.8</ele>
        <time>2025-11-16T12:04:02Z</time>
        <extensions>
          <gpxtpx:TrackPointExtension xmlns:gpxtpx="http://www.garmin.com/xmlschemas/TrackPointExtension/v1">
            <gpxtpx:hr>112</gpxtpx:hr>
          </gpxtpx:TrackPointExtension>
        </extensions>
      </trkpt>
      <trkpt lat="48.62963" lon="1.97425">
        <ele>121.6</ele>
        <time>2025-11-16T12:04:04Z</time>
        <extensions>
          <gpxtpx:TrackPointExtension xmlns:gpxtpx="http://www.garmin.com/xmlschemas/TrackPointExtension/v1">
            <gpxtpx:hr>112</gpxtpx:hr>
          </gpxtpx:TrackPointExtension>
        </extensions>
      </trkpt>
      <trkpt lat="48.62963" lon="1.9743">
        <ele>121.4</ele>
        <time>2025-11-16T12:04:06Z</time>
        <extensions>
          <gpxtpx:TrackPointExtension xmlns:gpxtpx="http://www.garmin.com/xmlschemas/TrackPointExtension/v1">
            <gpxtpx:hr>112</gpxtpx:hr>
          </gpxtpx:TrackPointExtension>
        </extensions>
      </trkpt>
      <trkpt lat="48.62962" lon="1.97435">
        <ele>121.4</ele>
        <time>2025-11-16T12:04:08Z</time>
        <extensions>
          <gpxtpx:TrackPointExtension xmlns:gpxtpx="http://www.garmin.com/xmlschemas/TrackPointExtension/v1">
            <gpxtpx:hr>112</gpxtpx:hr>
          </gpxtpx:TrackPointExtension>
        </extensions>
      </trkpt>
      <trkpt lat="48.62963" lon="1.9744">
        <ele>121.2</ele>
        <time>2025-11-16T12:04:10Z</time>
        <extensions>
          <gpxtpx:TrackPointExtension xmlns:gpxtpx="http://www.garmin.com/xmlschemas/TrackPointExtension/v1">
            <gpxtpx:hr>112</gpxtpx:hr>
          </gpxtpx:TrackPointExtension>
        </extensions>
      </trkpt>
      <trkpt lat="48.62963" lon="1.97445">
        <ele>121</ele>
        <time>2025-11-16T12:04:12Z</time>
        <extensions>
          <gpxtpx:TrackPointExtension xmlns:gpxtpx="http://www.garmin.com/xmlschemas/TrackPointExtension/v1">
            <gpxtpx:hr>112</gpxtpx:hr>
          </gpxtpx:TrackPointExtension>
        </extensions>
      </trkpt>
      <trkpt lat="48.62962" lon="1.97449">
        <ele>121</ele>
        <time>2025-11-16T12:04:14Z</time>
        <extensions>
          <gpxtpx:TrackPointExtension xmlns:gpxtpx="http://www.garmin.com/xmlschemas/TrackPointExtension/v1">
            <gpxtpx:hr>112</gpxtpx:hr>
          </gpxtpx:TrackPointExtension>
        </extensions>
      </trkpt>
      <trkpt lat="48.62963" lon="1.97453">
        <ele>120.8</ele>
        <time>2025-11-16T12:04:16Z</time>
        <extensions>
          <gpxtpx:TrackPointExtension xmlns:gpxtpx="http://www.garmin.com/xmlschemas/TrackPointExtension/v1">
            <gpxtpx:hr>112</gpxtpx:hr>
          </gpxtpx:TrackPointExtension>
        </extensions>
      </trkpt>
      <trkpt lat="48.62963" lon="1.97458">
        <ele>120.8</ele>
        <time>2025-11-16T12:04:18Z</time>
        <extensions>
          <gpxtpx:TrackPointExtension xmlns:gpxtpx="http://www.garmin.com/xmlschemas/TrackPointExtension/v1">
            <gpxtpx:hr>112</gpxtpx:hr>
          </gpxtpx:TrackPointExtension>
        </extensions>
      </trkpt>
      <trkpt lat="48.62963" lon="1.97463">
        <ele>120.6</ele>
        <time>2025-11-16T12:04:20Z</time>
        <extensions>
          <gpxtpx:TrackPointExtension xmlns:gpxtpx="http://www.garmin.com/xmlschemas/TrackPointExtension/v1">
            <gpxtpx:hr>112</gpxtpx:hr>
          </gpxtpx:TrackPointExtension>
        </extensions>
      </trkpt>
      <trkpt lat="48.62962" lon="1.97468">
        <ele>120.6</ele>
        <time>2025-11-16T12:04:22Z</time>
        <extensions>
          <gpxtpx:TrackPointExtension xmlns:gpxtpx="http://www.garmin.com/xmlschemas/TrackPointExtension/v1">
            <gpxtpx:hr>112</gpxtpx:hr>
          </gpxtpx:TrackPointExtension>
        </extensions>
      </trkpt>
      <trkpt lat="48.62962" lon="1.97473">
        <ele>120.6</ele>
        <time>2025-11-16T12:04:24Z</time>
        <extensions>
          <gpxtpx:TrackPointExtension xmlns:gpxtpx="http://www.garmin.com/xmlschemas/TrackPointExtension/v1">
            <gpxtpx:hr>112</gpxtpx:hr>
          </gpxtpx:TrackPointExtension>
        </extensions>
      </trkpt>
      <trkpt lat="48.62962" lon="1.97476">
        <ele>120.6</ele>
        <time>2025-11-16T12:04:25Z</time>
        <extensions>
          <gpxtpx:TrackPointExtension xmlns:gpxtpx="http://www.garmin.com/xmlschemas/TrackPointExtension/v1">
            <gpxtpx:hr>112</gpxtpx:hr>
          </gpxtpx:TrackPointExtension>
        </extensions>
      </trkpt>
      <trkpt lat="48.62961" lon="1.97478">
        <ele>120.4</ele>
        <time>2025-11-16T12:04:26Z</time>
        <extensions>
          <gpxtpx:TrackPointExtension xmlns:gpxtpx="http://www.garmin.com/xmlschemas/TrackPointExtension/v1">
            <gpxtpx:hr>112</gpxtpx:hr>
          </gpxtpx:TrackPointExtension>
        </extensions>
      </trkpt>
      <trkpt lat="48.62961" lon="1.97481">
        <ele>120.4</ele>
        <time>2025-11-16T12:04:27Z</time>
        <extensions>
          <gpxtpx:TrackPointExtension xmlns:gpxtpx="http://www.garmin.com/xmlschemas/TrackPointExtension/v1">
            <gpxtpx:hr>112</gpxtpx:hr>
          </gpxtpx:TrackPointExtension>
        </extensions>
      </trkpt>
      <trkpt lat="48.6296" lon="1.97484">
        <ele>120.4</ele>
        <time>2025-11-16T12:04:28Z</time>
        <extensions>
          <gpxtpx:TrackPointExtension xmlns:gpxtpx="http://www.garmin.com/xmlschemas/TrackPointExtension/v1">
            <gpxtpx:hr>112</gpxtpx:hr>
          </gpxtpx:TrackPointExtension>
        </extensions>
      </trkpt>
      <trkpt lat="48.6296" lon="1.97489">
        <ele>120.4</ele>
        <time>2025-11-16T12:04:30Z</time>
        <extensions>
          <gpxtpx:TrackPointExtension xmlns:gpxtpx="http://www.garmin.com/xmlschemas/TrackPointExtension/v1">
            <gpxtpx:hr>113</gpxtpx:hr>
          </gpxtpx:TrackPointExtension>
        </extensions>
      </trkpt>
      <trkpt lat="48.62959" lon="1.97494">
        <ele>120.2</ele>
        <time>2025-11-16T12:04:32Z</time>
        <extensions>
          <gpxtpx:TrackPointExtension xmlns:gpxtpx="http://www.garmin.com/xmlschemas/TrackPointExtension/v1">
            <gpxtpx:hr>113</gpxtpx:hr>
          </gpxtpx:TrackPointExtension>
        </extensions>
      </trkpt>
      <trkpt lat="48.62958" lon="1.97499">
        <ele>120</ele>
        <time>2025-11-16T12:04:34Z</time>
        <extensions>
          <gpxtpx:TrackPointExtension xmlns:gpxtpx="http://www.garmin.com/xmlschemas/TrackPointExtension/v1">
            <gpxtpx:hr>113</gpxtpx:hr>
          </gpxtpx:TrackPointExtension>
        </extensions>
      </trkpt>
      <trkpt lat="48.62958" lon="1.97504">
        <ele>120</ele>
        <time>2025-11-16T12:04:36Z</time>
        <extensions>
          <gpxtpx:TrackPointExtension xmlns:gpxtpx="http://www.garmin.com/xmlschemas/TrackPointExtension/v1">
            <gpxtpx:hr>113</gpxtpx:hr>
          </gpxtpx:TrackPointExtension>
        </extensions>
      </trkpt>
      <trkpt lat="48.62958" lon="1.97509">
        <ele>120</ele>
        <time>2025-11-16T12:04:38Z</time>
        <extensions>
          <gpxtpx:TrackPointExtension xmlns:gpxtpx="http://www.garmin.com/xmlschemas/TrackPointExtension/v1">
            <gpxtpx:hr>113</gpxtpx:hr>
          </gpxtpx:TrackPointExtension>
        </extensions>
      </trkpt>
      <trkpt lat="48.62958" lon="1.97514">
        <ele>120</ele>
        <time>2025-11-16T12:04:40Z</time>
        <extensions>
          <gpxtpx:TrackPointExtension xmlns:gpxtpx="http://www.garmin.com/xmlschemas/TrackPointExtension/v1">
            <gpxtpx:hr>113</gpxtpx:hr>
          </gpxtpx:TrackPointExtension>
        </extensions>
      </trkpt>
      <trkpt lat="48.62959" lon="1.97519">
        <ele>119.8</ele>
        <time>2025-11-16T12:04:42Z</time>
        <extensions>
          <gpxtpx:TrackPointExtension xmlns:gpxtpx="http://www.garmin.com/xmlschemas/TrackPointExtension/v1">
            <gpxtpx:hr>113</gpxtpx:hr>
          </gpxtpx:TrackPointExtension>
        </extensions>
      </trkpt>
      <trkpt lat="48.62959" lon="1.97523">
        <ele>119.6</ele>
        <time>2025-11-16T12:04:44Z</time>
        <extensions>
          <gpxtpx:TrackPointExtension xmlns:gpxtpx="http://www.garmin.com/xmlschemas/TrackPointExtension/v1">
            <gpxtpx:hr>113</gpxtpx:hr>
          </gpxtpx:TrackPointExtension>
        </extensions>
      </trkpt>
      <trkpt lat="48.62959" lon="1.97527">
        <ele>119.4</ele>
        <time>2025-11-16T12:04:46Z</time>
        <extensions>
          <gpxtpx:TrackPointExtension xmlns:gpxtpx="http://www.garmin.com/xmlschemas/TrackPointExtension/v1">
            <gpxtpx:hr>113</gpxtpx:hr>
          </gpxtpx:TrackPointExtension>
        </extensions>
      </trkpt>
      <trkpt lat="48.62959" lon="1.97532">
        <ele>119.4</ele>
        <time>2025-11-16T12:04:48Z</time>
        <extensions>
          <gpxtpx:TrackPointExtension xmlns:gpxtpx="http://www.garmin.com/xmlschemas/TrackPointExtension/v1">
            <gpxtpx:hr>114</gpxtpx:hr>
          </gpxtpx:TrackPointExtension>
        </extensions>
      </trkpt>
      <trkpt lat="48.62958" lon="1.97536">
        <ele>119.2</ele>
        <time>2025-11-16T12:04:50Z</time>
        <extensions>
          <gpxtpx:TrackPointExtension xmlns:gpxtpx="http://www.garmin.com/xmlschemas/TrackPointExtension/v1">
            <gpxtpx:hr>115</gpxtpx:hr>
          </gpxtpx:TrackPointExtension>
        </extensions>
      </trkpt>
      <trkpt lat="48.62959" lon="1.97541">
        <ele>119</ele>
        <time>2025-11-16T12:04:52Z</time>
        <extensions>
          <gpxtpx:TrackPointExtension xmlns:gpxtpx="http://www.garmin.com/xmlschemas/TrackPointExtension/v1">
            <gpxtpx:hr>116</gpxtpx:hr>
          </gpxtpx:TrackPointExtension>
        </extensions>
      </trkpt>
      <trkpt lat="48.62959" lon="1.97545">
        <ele>118.8</ele>
        <time>2025-11-16T12:04:54Z</time>
        <extensions>
          <gpxtpx:TrackPointExtension xmlns:gpxtpx="http://www.garmin.com/xmlschemas/TrackPointExtension/v1">
            <gpxtpx:hr>117</gpxtpx:hr>
          </gpxtpx:TrackPointExtension>
        </extensions>
      </trkpt>
      <trkpt lat="48.62959" lon="1.9755">
        <ele>118.6</ele>
        <time>2025-11-16T12:04:56Z</time>
        <extensions>
          <gpxtpx:TrackPointExtension xmlns:gpxtpx="http://www.garmin.com/xmlschemas/TrackPointExtension/v1">
            <gpxtpx:hr>118</gpxtpx:hr>
          </gpxtpx:TrackPointExtension>
        </extensions>
      </trkpt>
      <trkpt lat="48.62959" lon="1.97555">
        <ele>118.6</ele>
        <time>2025-11-16T12:04:58Z</time>
        <extensions>
          <gpxtpx:TrackPointExtension xmlns:gpxtpx="http://www.garmin.com/xmlschemas/TrackPointExtension/v1">
            <gpxtpx:hr>118</gpxtpx:hr>
          </gpxtpx:TrackPointExtension>
        </extensions>
      </trkpt>
      <trkpt lat="48.62958" lon="1.97559">
        <ele>118.6</ele>
        <time>2025-11-16T12:05:00Z</time>
        <extensions>
          <gpxtpx:TrackPointExtension xmlns:gpxtpx="http://www.garmin.com/xmlschemas/TrackPointExtension/v1">
            <gpxtpx:hr>119</gpxtpx:hr>
          </gpxtpx:TrackPointExtension>
        </extensions>
      </trkpt>
      <trkpt lat="48.62958" lon="1.97564">
        <ele>118.8</ele>
        <time>2025-11-16T12:05:02Z</time>
        <extensions>
          <gpxtpx:TrackPointExtension xmlns:gpxtpx="http://www.garmin.com/xmlschemas/TrackPointExtension/v1">
            <gpxtpx:hr>119</gpxtpx:hr>
          </gpxtpx:TrackPointExtension>
        </extensions>
      </trkpt>
      <trkpt lat="48.62958" lon="1.97569">
        <ele>118.8</ele>
        <time>2025-11-16T12:05:04Z</time>
        <extensions>
          <gpxtpx:TrackPointExtension xmlns:gpxtpx="http://www.garmin.com/xmlschemas/TrackPointExtension/v1">
            <gpxtpx:hr>120</gpxtpx:hr>
          </gpxtpx:TrackPointExtension>
        </extensions>
      </trkpt>
      <trkpt lat="48.62957" lon="1.97573">
        <ele>119</ele>
        <time>2025-11-16T12:05:06Z</time>
        <extensions>
          <gpxtpx:TrackPointExtension xmlns:gpxtpx="http://www.garmin.com/xmlschemas/TrackPointExtension/v1">
            <gpxtpx:hr>119</gpxtpx:hr>
          </gpxtpx:TrackPointExtension>
        </extensions>
      </trkpt>
      <trkpt lat="48.62957" lon="1.97577">
        <ele>119</ele>
        <time>2025-11-16T12:05:08Z</time>
        <extensions>
          <gpxtpx:TrackPointExtension xmlns:gpxtpx="http://www.garmin.com/xmlschemas/TrackPointExtension/v1">
            <gpxtpx:hr>119</gpxtpx:hr>
          </gpxtpx:TrackPointExtension>
        </extensions>
      </trkpt>
      <trkpt lat="48.62957" lon="1.97581">
        <ele>119</ele>
        <time>2025-11-16T12:05:10Z</time>
        <extensions>
          <gpxtpx:TrackPointExtension xmlns:gpxtpx="http://www.garmin.com/xmlschemas/TrackPointExtension/v1">
            <gpxtpx:hr>119</gpxtpx:hr>
          </gpxtpx:TrackPointExtension>
        </extensions>
      </trkpt>
      <trkpt lat="48.62957" lon="1.97585">
        <ele>119</ele>
        <time>2025-11-16T12:05:12Z</time>
        <extensions>
          <gpxtpx:TrackPointExtension xmlns:gpxtpx="http://www.garmin.com/xmlschemas/TrackPointExtension/v1">
            <gpxtpx:hr>119</gpxtpx:hr>
          </gpxtpx:TrackPointExtension>
        </extensions>
      </trkpt>
      <trkpt lat="48.62957" lon="1.97589">
        <ele>119</ele>
        <time>2025-11-16T12:05:14Z</time>
        <extensions>
          <gpxtpx:TrackPointExtension xmlns:gpxtpx="http://www.garmin.com/xmlschemas/TrackPointExtension/v1">
            <gpxtpx:hr>119</gpxtpx:hr>
          </gpxtpx:TrackPointExtension>
        </extensions>
      </trkpt>
      <trkpt lat="48.62957" lon="1.97592">
        <ele>119.2</ele>
        <time>2025-11-16T12:05:16Z</time>
        <extensions>
          <gpxtpx:TrackPointExtension xmlns:gpxtpx="http://www.garmin.com/xmlschemas/TrackPointExtension/v1">
            <gpxtpx:hr>120</gpxtpx:hr>
          </gpxtpx:TrackPointExtension>
        </extensions>
      </trkpt>
      <trkpt lat="48.62957" lon="1.97596">
        <ele>119.2</ele>
        <time>2025-11-16T12:05:18Z</time>
        <extensions>
          <gpxtpx:TrackPointExtension xmlns:gpxtpx="http://www.garmin.com/xmlschemas/TrackPointExtension/v1">
            <gpxtpx:hr>120</gpxtpx:hr>
          </gpxtpx:TrackPointExtension>
        </extensions>
      </trkpt>
      <trkpt lat="48.62956" lon="1.976">
        <ele>119.4</ele>
        <time>2025-11-16T12:05:20Z</time>
        <extensions>
          <gpxtpx:TrackPointExtension xmlns:gpxtpx="http://www.garmin.com/xmlschemas/TrackPointExtension/v1">
            <gpxtpx:hr>120</gpxtpx:hr>
          </gpxtpx:TrackPointExtension>
        </extensions>
      </trkpt>
      <trkpt lat="48.62956" lon="1.97604">
        <ele>119.4</ele>
        <time>2025-11-16T12:05:22Z</time>
        <extensions>
          <gpxtpx:TrackPointExtension xmlns:gpxtpx="http://www.garmin.com/xmlschemas/TrackPointExtension/v1">
            <gpxtpx:hr>120</gpxtpx:hr>
          </gpxtpx:TrackPointExtension>
        </extensions>
      </trkpt>
      <trkpt lat="48.62956" lon="1.97608">
        <ele>119.6</ele>
        <time>2025-11-16T12:05:24Z</time>
        <extensions>
          <gpxtpx:TrackPointExtension xmlns:gpxtpx="http://www.garmin.com/xmlschemas/TrackPointExtension/v1">
            <gpxtpx:hr>120</gpxtpx:hr>
          </gpxtpx:TrackPointExtension>
        </extensions>
      </trkpt>
      <trkpt lat="48.62956" lon="1.97612">
        <ele>119.6</ele>
        <time>2025-11-16T12:05:26Z</time>
        <extensions>
          <gpxtpx:TrackPointExtension xmlns:gpxtpx="http://www.garmin.com/xmlschemas/TrackPointExtension/v1">
            <gpxtpx:hr>120</gpxtpx:hr>
          </gpxtpx:TrackPointExtension>
        </extensions>
      </trkpt>
      <trkpt lat="48.62956" lon="1.97615">
        <ele>119.8</ele>
        <time>2025-11-16T12:05:28Z</time>
        <extensions>
          <gpxtpx:TrackPointExtension xmlns:gpxtpx="http://www.garmin.com/xmlschemas/TrackPointExtension/v1">
            <gpxtpx:hr>120</gpxtpx:hr>
          </gpxtpx:TrackPointExtension>
        </extensions>
      </trkpt>
      <trkpt lat="48.62956" lon="1.9762">
        <ele>119.8</ele>
        <time>2025-11-16T12:05:30Z</time>
        <extensions>
          <gpxtpx:TrackPointExtension xmlns:gpxtpx="http://www.garmin.com/xmlschemas/TrackPointExtension/v1">
            <gpxtpx:hr>120</gpxtpx:hr>
          </gpxtpx:TrackPointExtension>
        </extensions>
      </trkpt>
      <trkpt lat="48.62955" lon="1.97625">
        <ele>120</ele>
        <time>2025-11-16T12:05:32Z</time>
        <extensions>
          <gpxtpx:TrackPointExtension xmlns:gpxtpx="http://www.garmin.com/xmlschemas/TrackPointExtension/v1">
            <gpxtpx:hr>120</gpxtpx:hr>
          </gpxtpx:TrackPointExtension>
        </extensions>
      </trkpt>
      <trkpt lat="48.62955" lon="1.9763">
        <ele>119.8</ele>
        <time>2025-11-16T12:05:34Z</time>
        <extensions>
          <gpxtpx:TrackPointExtension xmlns:gpxtpx="http://www.garmin.com/xmlschemas/TrackPointExtension/v1">
            <gpxtpx:hr>120</gpxtpx:hr>
          </gpxtpx:TrackPointExtension>
        </extensions>
      </trkpt>
      <trkpt lat="48.62954" lon="1.97635">
        <ele>120</ele>
        <time>2025-11-16T12:05:36Z</time>
        <extensions>
          <gpxtpx:TrackPointExtension xmlns:gpxtpx="http://www.garmin.com/xmlschemas/TrackPointExtension/v1">
            <gpxtpx:hr>120</gpxtpx:hr>
          </gpxtpx:TrackPointExtension>
        </extensions>
      </trkpt>
      <trkpt lat="48.62953" lon="1.9764">
        <ele>120.2</ele>
        <time>2025-11-16T12:05:38Z</time>
        <extensions>
          <gpxtpx:TrackPointExtension xmlns:gpxtpx="http://www.garmin.com/xmlschemas/TrackPointExtension/v1">
            <gpxtpx:hr>120</gpxtpx:hr>
          </gpxtpx:TrackPointExtension>
        </extensions>
      </trkpt>
      <trkpt lat="48.62952" lon="1.97645">
        <ele>120.4</ele>
        <time>2025-11-16T12:05:40Z</time>
        <extensions>
          <gpxtpx:TrackPointExtension xmlns:gpxtpx="http://www.garmin.com/xmlschemas/TrackPointExtension/v1">
            <gpxtpx:hr>120</gpxtpx:hr>
          </gpxtpx:TrackPointExtension>
        </extensions>
      </trkpt>
      <trkpt lat="48.62952" lon="1.97649">
        <ele>120.6</ele>
        <time>2025-11-16T12:05:42Z</time>
        <extensions>
          <gpxtpx:TrackPointExtension xmlns:gpxtpx="http://www.garmin.com/xmlschemas/TrackPointExtension/v1">
            <gpxtpx:hr>120</gpxtpx:hr>
          </gpxtpx:TrackPointExtension>
        </extensions>
      </trkpt>
      <trkpt lat="48.62951" lon="1.97654">
        <ele>120.6</ele>
        <time>2025-11-16T12:05:44Z</time>
        <extensions>
          <gpxtpx:TrackPointExtension xmlns:gpxtpx="http://www.garmin.com/xmlschemas/TrackPointExtension/v1">
            <gpxtpx:hr>120</gpxtpx:hr>
          </gpxtpx:TrackPointExtension>
        </extensions>
      </trkpt>
      <trkpt lat="48.62951" lon="1.97659">
        <ele>120.6</ele>
        <time>2025-11-16T12:05:46Z</time>
        <extensions>
          <gpxtpx:TrackPointExtension xmlns:gpxtpx="http://www.garmin.com/xmlschemas/TrackPointExtension/v1">
            <gpxtpx:hr>120</gpxtpx:hr>
          </gpxtpx:TrackPointExtension>
        </extensions>
      </trkpt>
      <trkpt lat="48.6295" lon="1.97664">
        <ele>120.8</ele>
        <time>2025-11-16T12:05:48Z</time>
        <extensions>
          <gpxtpx:TrackPointExtension xmlns:gpxtpx="http://www.garmin.com/xmlschemas/TrackPointExtension/v1">
            <gpxtpx:hr>120</gpxtpx:hr>
          </gpxtpx:TrackPointExtension>
        </extensions>
      </trkpt>
      <trkpt lat="48.6295" lon="1.97669">
        <ele>121</ele>
        <time>2025-11-16T12:05:50Z</time>
        <extensions>
          <gpxtpx:TrackPointExtension xmlns:gpxtpx="http://www.garmin.com/xmlschemas/TrackPointExtension/v1">
            <gpxtpx:hr>119</gpxtpx:hr>
          </gpxtpx:TrackPointExtension>
        </extensions>
      </trkpt>
      <trkpt lat="48.62949" lon="1.97673">
        <ele>121.2</ele>
        <time>2025-11-16T12:05:52Z</time>
        <extensions>
          <gpxtpx:TrackPointExtension xmlns:gpxtpx="http://www.garmin.com/xmlschemas/TrackPointExtension/v1">
            <gpxtpx:hr>119</gpxtpx:hr>
          </gpxtpx:TrackPointExtension>
        </extensions>
      </trkpt>
      <trkpt lat="48.62948" lon="1.97678">
        <ele>121.6</ele>
        <time>2025-11-16T12:05:54Z</time>
        <extensions>
          <gpxtpx:TrackPointExtension xmlns:gpxtpx="http://www.garmin.com/xmlschemas/TrackPointExtension/v1">
            <gpxtpx:hr>119</gpxtpx:hr>
          </gpxtpx:TrackPointExtension>
        </extensions>
      </trkpt>
      <trkpt lat="48.62947" lon="1.97682">
        <ele>122</ele>
        <time>2025-11-16T12:05:56Z</time>
        <extensions>
          <gpxtpx:TrackPointExtension xmlns:gpxtpx="http://www.garmin.com/xmlschemas/TrackPointExtension/v1">
            <gpxtpx:hr>119</gpxtpx:hr>
          </gpxtpx:TrackPointExtension>
        </extensions>
      </trkpt>
      <trkpt lat="48.62946" lon="1.97687">
        <ele>122.2</ele>
        <time>2025-11-16T12:05:58Z</time>
        <extensions>
          <gpxtpx:TrackPointExtension xmlns:gpxtpx="http://www.garmin.com/xmlschemas/TrackPointExtension/v1">
            <gpxtpx:hr>119</gpxtpx:hr>
          </gpxtpx:TrackPointExtension>
        </extensions>
      </trkpt>
      <trkpt lat="48.62945" lon="1.97692">
        <ele>122.4</ele>
        <time>2025-11-16T12:06:00Z</time>
        <extensions>
          <gpxtpx:TrackPointExtension xmlns:gpxtpx="http://www.garmin.com/xmlschemas/TrackPointExtension/v1">
            <gpxtpx:hr>119</gpxtpx:hr>
          </gpxtpx:TrackPointExtension>
        </extensions>
      </trkpt>
      <trkpt lat="48.62945" lon="1.97697">
        <ele>122.6</ele>
        <time>2025-11-16T12:06:02Z</time>
        <extensions>
          <gpxtpx:TrackPointExtension xmlns:gpxtpx="http://www.garmin.com/xmlschemas/TrackPointExtension/v1">
            <gpxtpx:hr>119</gpxtpx:hr>
          </gpxtpx:TrackPointExtension>
        </extensions>
      </trkpt>
      <trkpt lat="48.62944" lon="1.97701">
        <ele>122.8</ele>
        <time>2025-11-16T12:06:04Z</time>
        <extensions>
          <gpxtpx:TrackPointExtension xmlns:gpxtpx="http://www.garmin.com/xmlschemas/TrackPointExtension/v1">
            <gpxtpx:hr>119</gpxtpx:hr>
          </gpxtpx:TrackPointExtension>
        </extensions>
      </trkpt>
      <trkpt lat="48.62944" lon="1.97705">
        <ele>123</ele>
        <time>2025-11-16T12:06:06Z</time>
        <extensions>
          <gpxtpx:TrackPointExtension xmlns:gpxtpx="http://www.garmin.com/xmlschemas/TrackPointExtension/v1">
            <gpxtpx:hr>119</gpxtpx:hr>
          </gpxtpx:TrackPointExtension>
        </extensions>
      </trkpt>
      <trkpt lat="48.62944" lon="1.97709">
        <ele>123.2</ele>
        <time>2025-11-16T12:06:08Z</time>
        <extensions>
          <gpxtpx:TrackPointExtension xmlns:gpxtpx="http://www.garmin.com/xmlschemas/TrackPointExtension/v1">
            <gpxtpx:hr>118</gpxtpx:hr>
          </gpxtpx:TrackPointExtension>
        </extensions>
      </trkpt>
      <trkpt lat="48.62943" lon="1.97714">
        <ele>123.4</ele>
        <time>2025-11-16T12:06:10Z</time>
        <extensions>
          <gpxtpx:TrackPointExtension xmlns:gpxtpx="http://www.garmin.com/xmlschemas/TrackPointExtension/v1">
            <gpxtpx:hr>118</gpxtpx:hr>
          </gpxtpx:TrackPointExtension>
        </extensions>
      </trkpt>
      <trkpt lat="48.62942" lon="1.97716">
        <ele>123.6</ele>
        <time>2025-11-16T12:06:11Z</time>
        <extensions>
          <gpxtpx:TrackPointExtension xmlns:gpxtpx="http://www.garmin.com/xmlschemas/TrackPointExtension/v1">
            <gpxtpx:hr>118</gpxtpx:hr>
          </gpxtpx:TrackPointExtension>
        </extensions>
      </trkpt>
      <trkpt lat="48.62941" lon="1.97721">
        <ele>123.8</ele>
        <time>2025-11-16T12:06:13Z</time>
        <extensions>
          <gpxtpx:TrackPointExtension xmlns:gpxtpx="http://www.garmin.com/xmlschemas/TrackPointExtension/v1">
            <gpxtpx:hr>118</gpxtpx:hr>
          </gpxtpx:TrackPointExtension>
        </extensions>
      </trkpt>
      <trkpt lat="48.6294" lon="1.97726">
        <ele>124.2</ele>
        <time>2025-11-16T12:06:15Z</time>
        <extensions>
          <gpxtpx:TrackPointExtension xmlns:gpxtpx="http://www.garmin.com/xmlschemas/TrackPointExtension/v1">
            <gpxtpx:hr>117</gpxtpx:hr>
          </gpxtpx:TrackPointExtension>
        </extensions>
      </trkpt>
      <trkpt lat="48.6294" lon="1.9773">
        <ele>124.4</ele>
        <time>2025-11-16T12:06:17Z</time>
        <extensions>
          <gpxtpx:TrackPointExtension xmlns:gpxtpx="http://www.garmin.com/xmlschemas/TrackPointExtension/v1">
            <gpxtpx:hr>117</gpxtpx:hr>
          </gpxtpx:TrackPointExtension>
        </extensions>
      </trkpt>
      <trkpt lat="48.62939" lon="1.97735">
        <ele>124.8</ele>
        <time>2025-11-16T12:06:19Z</time>
        <extensions>
          <gpxtpx:TrackPointExtension xmlns:gpxtpx="http://www.garmin.com/xmlschemas/TrackPointExtension/v1">
            <gpxtpx:hr>117</gpxtpx:hr>
          </gpxtpx:TrackPointExtension>
        </extensions>
      </trkpt>
      <trkpt lat="48.62939" lon="1.9774">
        <ele>125</ele>
        <time>2025-11-16T12:06:21Z</time>
        <extensions>
          <gpxtpx:TrackPointExtension xmlns:gpxtpx="http://www.garmin.com/xmlschemas/TrackPointExtension/v1">
            <gpxtpx:hr>117</gpxtpx:hr>
          </gpxtpx:TrackPointExtension>
        </extensions>
      </trkpt>
      <trkpt lat="48.62939" lon="1.97743">
        <ele>125.2</ele>
        <time>2025-11-16T12:06:22Z</time>
        <extensions>
          <gpxtpx:TrackPointExtension xmlns:gpxtpx="http://www.garmin.com/xmlschemas/TrackPointExtension/v1">
            <gpxtpx:hr>117</gpxtpx:hr>
          </gpxtpx:TrackPointExtension>
        </extensions>
      </trkpt>
      <trkpt lat="48.62938" lon="1.97746">
        <ele>125.2</ele>
        <time>2025-11-16T12:06:23Z</time>
        <extensions>
          <gpxtpx:TrackPointExtension xmlns:gpxtpx="http://www.garmin.com/xmlschemas/TrackPointExtension/v1">
            <gpxtpx:hr>117</gpxtpx:hr>
          </gpxtpx:TrackPointExtension>
        </extensions>
      </trkpt>
      <trkpt lat="48.62938" lon="1.97749">
        <ele>125.4</ele>
        <time>2025-11-16T12:06:24Z</time>
        <extensions>
          <gpxtpx:TrackPointExtension xmlns:gpxtpx="http://www.garmin.com/xmlschemas/TrackPointExtension/v1">
            <gpxtpx:hr>117</gpxtpx:hr>
          </gpxtpx:TrackPointExtension>
        </extensions>
      </trkpt>
      <trkpt lat="48.62938" lon="1.97752">
        <ele>125.4</ele>
        <time>2025-11-16T12:06:25Z</time>
        <extensions>
          <gpxtpx:TrackPointExtension xmlns:gpxtpx="http://www.garmin.com/xmlschemas/TrackPointExtension/v1">
            <gpxtpx:hr>117</gpxtpx:hr>
          </gpxtpx:TrackPointExtension>
        </extensions>
      </trkpt>
      <trkpt lat="48.62938" lon="1.97757">
        <ele>125.6</ele>
        <time>2025-11-16T12:06:27Z</time>
        <extensions>
          <gpxtpx:TrackPointExtension xmlns:gpxtpx="http://www.garmin.com/xmlschemas/TrackPointExtension/v1">
            <gpxtpx:hr>117</gpxtpx:hr>
          </gpxtpx:TrackPointExtension>
        </extensions>
      </trkpt>
      <trkpt lat="48.62937" lon="1.97762">
        <ele>125.8</ele>
        <time>2025-11-16T12:06:29Z</time>
        <extensions>
          <gpxtpx:TrackPointExtension xmlns:gpxtpx="http://www.garmin.com/xmlschemas/TrackPointExtension/v1">
            <gpxtpx:hr>117</gpxtpx:hr>
          </gpxtpx:TrackPointExtension>
        </extensions>
      </trkpt>
      <trkpt lat="48.62936" lon="1.97766">
        <ele>126</ele>
        <time>2025-11-16T12:06:31Z</time>
        <extensions>
          <gpxtpx:TrackPointExtension xmlns:gpxtpx="http://www.garmin.com/xmlschemas/TrackPointExtension/v1">
            <gpxtpx:hr>117</gpxtpx:hr>
          </gpxtpx:TrackPointExtension>
        </extensions>
      </trkpt>
      <trkpt lat="48.62936" lon="1.97771">
        <ele>126.2</ele>
        <time>2025-11-16T12:06:33Z</time>
        <extensions>
          <gpxtpx:TrackPointExtension xmlns:gpxtpx="http://www.garmin.com/xmlschemas/TrackPointExtension/v1">
            <gpxtpx:hr>117</gpxtpx:hr>
          </gpxtpx:TrackPointExtension>
        </extensions>
      </trkpt>
      <trkpt lat="48.62936" lon="1.97775">
        <ele>126.6</ele>
        <time>2025-11-16T12:06:35Z</time>
        <extensions>
          <gpxtpx:TrackPointExtension xmlns:gpxtpx="http://www.garmin.com/xmlschemas/TrackPointExtension/v1">
            <gpxtpx:hr>117</gpxtpx:hr>
          </gpxtpx:TrackPointExtension>
        </extensions>
      </trkpt>
      <trkpt lat="48.62935" lon="1.97779">
        <ele>126.6</ele>
        <time>2025-11-16T12:06:37Z</time>
        <extensions>
          <gpxtpx:TrackPointExtension xmlns:gpxtpx="http://www.garmin.com/xmlschemas/TrackPointExtension/v1">
            <gpxtpx:hr>117</gpxtpx:hr>
          </gpxtpx:TrackPointExtension>
        </extensions>
      </trkpt>
      <trkpt lat="48.62934" lon="1.97783">
        <ele>126.6</ele>
        <time>2025-11-16T12:06:39Z</time>
        <extensions>
          <gpxtpx:TrackPointExtension xmlns:gpxtpx="http://www.garmin.com/xmlschemas/TrackPointExtension/v1">
            <gpxtpx:hr>117</gpxtpx:hr>
          </gpxtpx:TrackPointExtension>
        </extensions>
      </trkpt>
      <trkpt lat="48.62934" lon="1.97787">
        <ele>126.6</ele>
        <time>2025-11-16T12:06:41Z</time>
        <extensions>
          <gpxtpx:TrackPointExtension xmlns:gpxtpx="http://www.garmin.com/xmlschemas/TrackPointExtension/v1">
            <gpxtpx:hr>116</gpxtpx:hr>
          </gpxtpx:TrackPointExtension>
        </extensions>
      </trkpt>
      <trkpt lat="48.62933" lon="1.9779">
        <ele>126.6</ele>
        <time>2025-11-16T12:06:43Z</time>
        <extensions>
          <gpxtpx:TrackPointExtension xmlns:gpxtpx="http://www.garmin.com/xmlschemas/TrackPointExtension/v1">
            <gpxtpx:hr>115</gpxtpx:hr>
          </gpxtpx:TrackPointExtension>
        </extensions>
      </trkpt>
      <trkpt lat="48.62932" lon="1.97794">
        <ele>126.6</ele>
        <time>2025-11-16T12:06:45Z</time>
        <extensions>
          <gpxtpx:TrackPointExtension xmlns:gpxtpx="http://www.garmin.com/xmlschemas/TrackPointExtension/v1">
            <gpxtpx:hr>115</gpxtpx:hr>
          </gpxtpx:TrackPointExtension>
        </extensions>
      </trkpt>
      <trkpt lat="48.62932" lon="1.97798">
        <ele>126.6</ele>
        <time>2025-11-16T12:06:47Z</time>
        <extensions>
          <gpxtpx:TrackPointExtension xmlns:gpxtpx="http://www.garmin.com/xmlschemas/TrackPointExtension/v1">
            <gpxtpx:hr>115</gpxtpx:hr>
          </gpxtpx:TrackPointExtension>
        </extensions>
      </trkpt>
      <trkpt lat="48.62931" lon="1.97803">
        <ele>126.6</ele>
        <time>2025-11-16T12:06:49Z</time>
        <extensions>
          <gpxtpx:TrackPointExtension xmlns:gpxtpx="http://www.garmin.com/xmlschemas/TrackPointExtension/v1">
            <gpxtpx:hr>115</gpxtpx:hr>
          </gpxtpx:TrackPointExtension>
        </extensions>
      </trkpt>
      <trkpt lat="48.6293" lon="1.97807">
        <ele>126.6</ele>
        <time>2025-11-16T12:06:51Z</time>
        <extensions>
          <gpxtpx:TrackPointExtension xmlns:gpxtpx="http://www.garmin.com/xmlschemas/TrackPointExtension/v1">
            <gpxtpx:hr>115</gpxtpx:hr>
          </gpxtpx:TrackPointExtension>
        </extensions>
      </trkpt>
      <trkpt lat="48.62929" lon="1.97811">
        <ele>126.6</ele>
        <time>2025-11-16T12:06:53Z</time>
        <extensions>
          <gpxtpx:TrackPointExtension xmlns:gpxtpx="http://www.garmin.com/xmlschemas/TrackPointExtension/v1">
            <gpxtpx:hr>114</gpxtpx:hr>
          </gpxtpx:TrackPointExtension>
        </extensions>
      </trkpt>
      <trkpt lat="48.62928" lon="1.97816">
        <ele>126.6</ele>
        <time>2025-11-16T12:06:55Z</time>
        <extensions>
          <gpxtpx:TrackPointExtension xmlns:gpxtpx="http://www.garmin.com/xmlschemas/TrackPointExtension/v1">
            <gpxtpx:hr>114</gpxtpx:hr>
          </gpxtpx:TrackPointExtension>
        </extensions>
      </trkpt>
      <trkpt lat="48.62927" lon="1.97822">
        <ele>126.6</ele>
        <time>2025-11-16T12:06:57Z</time>
        <extensions>
          <gpxtpx:TrackPointExtension xmlns:gpxtpx="http://www.garmin.com/xmlschemas/TrackPointExtension/v1">
            <gpxtpx:hr>115</gpxtpx:hr>
          </gpxtpx:TrackPointExtension>
        </extensions>
      </trkpt>
      <trkpt lat="48.62926" lon="1.97825">
        <ele>126.6</ele>
        <time>2025-11-16T12:06:58Z</time>
        <extensions>
          <gpxtpx:TrackPointExtension xmlns:gpxtpx="http://www.garmin.com/xmlschemas/TrackPointExtension/v1">
            <gpxtpx:hr>115</gpxtpx:hr>
          </gpxtpx:TrackPointExtension>
        </extensions>
      </trkpt>
      <trkpt lat="48.62926" lon="1.97828">
        <ele>126.6</ele>
        <time>2025-11-16T12:06:59Z</time>
        <extensions>
          <gpxtpx:TrackPointExtension xmlns:gpxtpx="http://www.garmin.com/xmlschemas/TrackPointExtension/v1">
            <gpxtpx:hr>115</gpxtpx:hr>
          </gpxtpx:TrackPointExtension>
        </extensions>
      </trkpt>
      <trkpt lat="48.62925" lon="1.97831">
        <ele>126.6</ele>
        <time>2025-11-16T12:07:00Z</time>
        <extensions>
          <gpxtpx:TrackPointExtension xmlns:gpxtpx="http://www.garmin.com/xmlschemas/TrackPointExtension/v1">
            <gpxtpx:hr>115</gpxtpx:hr>
          </gpxtpx:TrackPointExtension>
        </extensions>
      </trkpt>
      <trkpt lat="48.62924" lon="1.97834">
        <ele>126.6</ele>
        <time>2025-11-16T12:07:01Z</time>
        <extensions>
          <gpxtpx:TrackPointExtension xmlns:gpxtpx="http://www.garmin.com/xmlschemas/TrackPointExtension/v1">
            <gpxtpx:hr>115</gpxtpx:hr>
          </gpxtpx:TrackPointExtension>
        </extensions>
      </trkpt>
      <trkpt lat="48.62924" lon="1.97836">
        <ele>126.6</ele>
        <time>2025-11-16T12:07:02Z</time>
        <extensions>
          <gpxtpx:TrackPointExtension xmlns:gpxtpx="http://www.garmin.com/xmlschemas/TrackPointExtension/v1">
            <gpxtpx:hr>115</gpxtpx:hr>
          </gpxtpx:TrackPointExtension>
        </extensions>
      </trkpt>
      <trkpt lat="48.62922" lon="1.97841">
        <ele>126.4</ele>
        <time>2025-11-16T12:07:04Z</time>
        <extensions>
          <gpxtpx:TrackPointExtension xmlns:gpxtpx="http://www.garmin.com/xmlschemas/TrackPointExtension/v1">
            <gpxtpx:hr>115</gpxtpx:hr>
          </gpxtpx:TrackPointExtension>
        </extensions>
      </trkpt>
      <trkpt lat="48.62921" lon="1.97846">
        <ele>126.4</ele>
        <time>2025-11-16T12:07:06Z</time>
        <extensions>
          <gpxtpx:TrackPointExtension xmlns:gpxtpx="http://www.garmin.com/xmlschemas/TrackPointExtension/v1">
            <gpxtpx:hr>115</gpxtpx:hr>
          </gpxtpx:TrackPointExtension>
        </extensions>
      </trkpt>
      <trkpt lat="48.62921" lon="1.9785">
        <ele>126.4</ele>
        <time>2025-11-16T12:07:08Z</time>
        <extensions>
          <gpxtpx:TrackPointExtension xmlns:gpxtpx="http://www.garmin.com/xmlschemas/TrackPointExtension/v1">
            <gpxtpx:hr>115</gpxtpx:hr>
          </gpxtpx:TrackPointExtension>
        </extensions>
      </trkpt>
      <trkpt lat="48.6292" lon="1.97854">
        <ele>126.4</ele>
        <time>2025-11-16T12:07:10Z</time>
        <extensions>
          <gpxtpx:TrackPointExtension xmlns:gpxtpx="http://www.garmin.com/xmlschemas/TrackPointExtension/v1">
            <gpxtpx:hr>115</gpxtpx:hr>
          </gpxtpx:TrackPointExtension>
        </extensions>
      </trkpt>
      <trkpt lat="48.6292" lon="1.97859">
        <ele>126.2</ele>
        <time>2025-11-16T12:07:12Z</time>
        <extensions>
          <gpxtpx:TrackPointExtension xmlns:gpxtpx="http://www.garmin.com/xmlschemas/TrackPointExtension/v1">
            <gpxtpx:hr>116</gpxtpx:hr>
          </gpxtpx:TrackPointExtension>
        </extensions>
      </trkpt>
      <trkpt lat="48.62919" lon="1.97864">
        <ele>126.2</ele>
        <time>2025-11-16T12:07:14Z</time>
        <extensions>
          <gpxtpx:TrackPointExtension xmlns:gpxtpx="http://www.garmin.com/xmlschemas/TrackPointExtension/v1">
            <gpxtpx:hr>116</gpxtpx:hr>
          </gpxtpx:TrackPointExtension>
        </extensions>
      </trkpt>
      <trkpt lat="48.62918" lon="1.97867">
        <ele>126</ele>
        <time>2025-11-16T12:07:15Z</time>
        <extensions>
          <gpxtpx:TrackPointExtension xmlns:gpxtpx="http://www.garmin.com/xmlschemas/TrackPointExtension/v1">
            <gpxtpx:hr>116</gpxtpx:hr>
          </gpxtpx:TrackPointExtension>
        </extensions>
      </trkpt>
      <trkpt lat="48.62917" lon="1.97872">
        <ele>125.8</ele>
        <time>2025-11-16T12:07:17Z</time>
        <extensions>
          <gpxtpx:TrackPointExtension xmlns:gpxtpx="http://www.garmin.com/xmlschemas/TrackPointExtension/v1">
            <gpxtpx:hr>116</gpxtpx:hr>
          </gpxtpx:TrackPointExtension>
        </extensions>
      </trkpt>
      <trkpt lat="48.62916" lon="1.97876">
        <ele>125.8</ele>
        <time>2025-11-16T12:07:19Z</time>
        <extensions>
          <gpxtpx:TrackPointExtension xmlns:gpxtpx="http://www.garmin.com/xmlschemas/TrackPointExtension/v1">
            <gpxtpx:hr>116</gpxtpx:hr>
          </gpxtpx:TrackPointExtension>
        </extensions>
      </trkpt>
      <trkpt lat="48.62916" lon="1.97881">
        <ele>125.8</ele>
        <time>2025-11-16T12:07:21Z</time>
        <extensions>
          <gpxtpx:TrackPointExtension xmlns:gpxtpx="http://www.garmin.com/xmlschemas/TrackPointExtension/v1">
            <gpxtpx:hr>116</gpxtpx:hr>
          </gpxtpx:TrackPointExtension>
        </extensions>
      </trkpt>
      <trkpt lat="48.62916" lon="1.97886">
        <ele>125.6</ele>
        <time>2025-11-16T12:07:23Z</time>
        <extensions>
          <gpxtpx:TrackPointExtension xmlns:gpxtpx="http://www.garmin.com/xmlschemas/TrackPointExtension/v1">
            <gpxtpx:hr>116</gpxtpx:hr>
          </gpxtpx:TrackPointExtension>
        </extensions>
      </trkpt>
      <trkpt lat="48.62915" lon="1.97889">
        <ele>125.6</ele>
        <time>2025-11-16T12:07:24Z</time>
        <extensions>
          <gpxtpx:TrackPointExtension xmlns:gpxtpx="http://www.garmin.com/xmlschemas/TrackPointExtension/v1">
            <gpxtpx:hr>116</gpxtpx:hr>
          </gpxtpx:TrackPointExtension>
        </extensions>
      </trkpt>
      <trkpt lat="48.62914" lon="1.97894">
        <ele>125.6</ele>
        <time>2025-11-16T12:07:26Z</time>
        <extensions>
          <gpxtpx:TrackPointExtension xmlns:gpxtpx="http://www.garmin.com/xmlschemas/TrackPointExtension/v1">
            <gpxtpx:hr>116</gpxtpx:hr>
          </gpxtpx:TrackPointExtension>
        </extensions>
      </trkpt>
      <trkpt lat="48.62914" lon="1.97899">
        <ele>125.6</ele>
        <time>2025-11-16T12:07:28Z</time>
        <extensions>
          <gpxtpx:TrackPointExtension xmlns:gpxtpx="http://www.garmin.com/xmlschemas/TrackPointExtension/v1">
            <gpxtpx:hr>116</gpxtpx:hr>
          </gpxtpx:TrackPointExtension>
        </extensions>
      </trkpt>
      <trkpt lat="48.62912" lon="1.97904">
        <ele>125.4</ele>
        <time>2025-11-16T12:07:30Z</time>
        <extensions>
          <gpxtpx:TrackPointExtension xmlns:gpxtpx="http://www.garmin.com/xmlschemas/TrackPointExtension/v1">
            <gpxtpx:hr>116</gpxtpx:hr>
          </gpxtpx:TrackPointExtension>
        </extensions>
      </trkpt>
      <trkpt lat="48.62912" lon="1.97909">
        <ele>125.2</ele>
        <time>2025-11-16T12:07:32Z</time>
        <extensions>
          <gpxtpx:TrackPointExtension xmlns:gpxtpx="http://www.garmin.com/xmlschemas/TrackPointExtension/v1">
            <gpxtpx:hr>116</gpxtpx:hr>
          </gpxtpx:TrackPointExtension>
        </extensions>
      </trkpt>
      <trkpt lat="48.62911" lon="1.97912">
        <ele>125.2</ele>
        <time>2025-11-16T12:07:33Z</time>
        <extensions>
          <gpxtpx:TrackPointExtension xmlns:gpxtpx="http://www.garmin.com/xmlschemas/TrackPointExtension/v1">
            <gpxtpx:hr>116</gpxtpx:hr>
          </gpxtpx:TrackPointExtension>
        </extensions>
      </trkpt>
      <trkpt lat="48.6291" lon="1.97917">
        <ele>125</ele>
        <time>2025-11-16T12:07:35Z</time>
        <extensions>
          <gpxtpx:TrackPointExtension xmlns:gpxtpx="http://www.garmin.com/xmlschemas/TrackPointExtension/v1">
            <gpxtpx:hr>116</gpxtpx:hr>
          </gpxtpx:TrackPointExtension>
        </extensions>
      </trkpt>
      <trkpt lat="48.62908" lon="1.97922">
        <ele>124.8</ele>
        <time>2025-11-16T12:07:37Z</time>
        <extensions>
          <gpxtpx:TrackPointExtension xmlns:gpxtpx="http://www.garmin.com/xmlschemas/TrackPointExtension/v1">
            <gpxtpx:hr>116</gpxtpx:hr>
          </gpxtpx:TrackPointExtension>
        </extensions>
      </trkpt>
      <trkpt lat="48.62908" lon="1.97924">
        <ele>124.8</ele>
        <time>2025-11-16T12:07:38Z</time>
        <extensions>
          <gpxtpx:TrackPointExtension xmlns:gpxtpx="http://www.garmin.com/xmlschemas/TrackPointExtension/v1">
            <gpxtpx:hr>116</gpxtpx:hr>
          </gpxtpx:TrackPointExtension>
        </extensions>
      </trkpt>
      <trkpt lat="48.62907" lon="1.9793">
        <ele>124.6</ele>
        <time>2025-11-16T12:07:40Z</time>
        <extensions>
          <gpxtpx:TrackPointExtension xmlns:gpxtpx="http://www.garmin.com/xmlschemas/TrackPointExtension/v1">
            <gpxtpx:hr>116</gpxtpx:hr>
          </gpxtpx:TrackPointExtension>
        </extensions>
      </trkpt>
      <trkpt lat="48.62906" lon="1.97934">
        <ele>124.4</ele>
        <time>2025-11-16T12:07:42Z</time>
        <extensions>
          <gpxtpx:TrackPointExtension xmlns:gpxtpx="http://www.garmin.com/xmlschemas/TrackPointExtension/v1">
            <gpxtpx:hr>116</gpxtpx:hr>
          </gpxtpx:TrackPointExtension>
        </extensions>
      </trkpt>
      <trkpt lat="48.62906" lon="1.97939">
        <ele>124</ele>
        <time>2025-11-16T12:07:44Z</time>
        <extensions>
          <gpxtpx:TrackPointExtension xmlns:gpxtpx="http://www.garmin.com/xmlschemas/TrackPointExtension/v1">
            <gpxtpx:hr>115</gpxtpx:hr>
          </gpxtpx:TrackPointExtension>
        </extensions>
      </trkpt>
      <trkpt lat="48.62905" lon="1.97944">
        <ele>123.8</ele>
        <time>2025-11-16T12:07:46Z</time>
        <extensions>
          <gpxtpx:TrackPointExtension xmlns:gpxtpx="http://www.garmin.com/xmlschemas/TrackPointExtension/v1">
            <gpxtpx:hr>115</gpxtpx:hr>
          </gpxtpx:TrackPointExtension>
        </extensions>
      </trkpt>
      <trkpt lat="48.62904" lon="1.97949">
        <ele>123.6</ele>
        <time>2025-11-16T12:07:48Z</time>
        <extensions>
          <gpxtpx:TrackPointExtension xmlns:gpxtpx="http://www.garmin.com/xmlschemas/TrackPointExtension/v1">
            <gpxtpx:hr>114</gpxtpx:hr>
          </gpxtpx:TrackPointExtension>
        </extensions>
      </trkpt>
      <trkpt lat="48.62904" lon="1.97953">
        <ele>123.4</ele>
        <time>2025-11-16T12:07:50Z</time>
        <extensions>
          <gpxtpx:TrackPointExtension xmlns:gpxtpx="http://www.garmin.com/xmlschemas/TrackPointExtension/v1">
            <gpxtpx:hr>114</gpxtpx:hr>
          </gpxtpx:TrackPointExtension>
        </extensions>
      </trkpt>
      <trkpt lat="48.62903" lon="1.97958">
        <ele>123.2</ele>
        <time>2025-11-16T12:07:52Z</time>
        <extensions>
          <gpxtpx:TrackPointExtension xmlns:gpxtpx="http://www.garmin.com/xmlschemas/TrackPointExtension/v1">
            <gpxtpx:hr>114</gpxtpx:hr>
          </gpxtpx:TrackPointExtension>
        </extensions>
      </trkpt>
      <trkpt lat="48.62902" lon="1.97962">
        <ele>123</ele>
        <time>2025-11-16T12:07:54Z</time>
        <extensions>
          <gpxtpx:TrackPointExtension xmlns:gpxtpx="http://www.garmin.com/xmlschemas/TrackPointExtension/v1">
            <gpxtpx:hr>114</gpxtpx:hr>
          </gpxtpx:TrackPointExtension>
        </extensions>
      </trkpt>
      <trkpt lat="48.62901" lon="1.97966">
        <ele>122.8</ele>
        <time>2025-11-16T12:07:56Z</time>
        <extensions>
          <gpxtpx:TrackPointExtension xmlns:gpxtpx="http://www.garmin.com/xmlschemas/TrackPointExtension/v1">
            <gpxtpx:hr>114</gpxtpx:hr>
          </gpxtpx:TrackPointExtension>
        </extensions>
      </trkpt>
      <trkpt lat="48.629" lon="1.9797">
        <ele>122.8</ele>
        <time>2025-11-16T12:07:58Z</time>
        <extensions>
          <gpxtpx:TrackPointExtension xmlns:gpxtpx="http://www.garmin.com/xmlschemas/TrackPointExtension/v1">
            <gpxtpx:hr>114</gpxtpx:hr>
          </gpxtpx:TrackPointExtension>
        </extensions>
      </trkpt>
      <trkpt lat="48.629" lon="1.97974">
        <ele>122.6</ele>
        <time>2025-11-16T12:08:00Z</time>
        <extensions>
          <gpxtpx:TrackPointExtension xmlns:gpxtpx="http://www.garmin.com/xmlschemas/TrackPointExtension/v1">
            <gpxtpx:hr>114</gpxtpx:hr>
          </gpxtpx:TrackPointExtension>
        </extensions>
      </trkpt>
      <trkpt lat="48.62899" lon="1.97978">
        <ele>122.4</ele>
        <time>2025-11-16T12:08:02Z</time>
        <extensions>
          <gpxtpx:TrackPointExtension xmlns:gpxtpx="http://www.garmin.com/xmlschemas/TrackPointExtension/v1">
            <gpxtpx:hr>114</gpxtpx:hr>
          </gpxtpx:TrackPointExtension>
        </extensions>
      </trkpt>
      <trkpt lat="48.62898" lon="1.97982">
        <ele>122.2</ele>
        <time>2025-11-16T12:08:04Z</time>
        <extensions>
          <gpxtpx:TrackPointExtension xmlns:gpxtpx="http://www.garmin.com/xmlschemas/TrackPointExtension/v1">
            <gpxtpx:hr>114</gpxtpx:hr>
          </gpxtpx:TrackPointExtension>
        </extensions>
      </trkpt>
      <trkpt lat="48.62898" lon="1.97986">
        <ele>122</ele>
        <time>2025-11-16T12:08:06Z</time>
        <extensions>
          <gpxtpx:TrackPointExtension xmlns:gpxtpx="http://www.garmin.com/xmlschemas/TrackPointExtension/v1">
            <gpxtpx:hr>114</gpxtpx:hr>
          </gpxtpx:TrackPointExtension>
        </extensions>
      </trkpt>
      <trkpt lat="48.62898" lon="1.9799">
        <ele>122</ele>
        <time>2025-11-16T12:08:08Z</time>
        <extensions>
          <gpxtpx:TrackPointExtension xmlns:gpxtpx="http://www.garmin.com/xmlschemas/TrackPointExtension/v1">
            <gpxtpx:hr>114</gpxtpx:hr>
          </gpxtpx:TrackPointExtension>
        </extensions>
      </trkpt>
      <trkpt lat="48.62898" lon="1.97995">
        <ele>122</ele>
        <time>2025-11-16T12:08:10Z</time>
        <extensions>
          <gpxtpx:TrackPointExtension xmlns:gpxtpx="http://www.garmin.com/xmlschemas/TrackPointExtension/v1">
            <gpxtpx:hr>114</gpxtpx:hr>
          </gpxtpx:TrackPointExtension>
        </extensions>
      </trkpt>
      <trkpt lat="48.62897" lon="1.97999">
        <ele>122</ele>
        <time>2025-11-16T12:08:12Z</time>
        <extensions>
          <gpxtpx:TrackPointExtension xmlns:gpxtpx="http://www.garmin.com/xmlschemas/TrackPointExtension/v1">
            <gpxtpx:hr>114</gpxtpx:hr>
          </gpxtpx:TrackPointExtension>
        </extensions>
      </trkpt>
      <trkpt lat="48.62896" lon="1.98004">
        <ele>122</ele>
        <time>2025-11-16T12:08:14Z</time>
        <extensions>
          <gpxtpx:TrackPointExtension xmlns:gpxtpx="http://www.garmin.com/xmlschemas/TrackPointExtension/v1">
            <gpxtpx:hr>113</gpxtpx:hr>
          </gpxtpx:TrackPointExtension>
        </extensions>
      </trkpt>
      <trkpt lat="48.62895" lon="1.98008">
        <ele>121.8</ele>
        <time>2025-11-16T12:08:16Z</time>
        <extensions>
          <gpxtpx:TrackPointExtension xmlns:gpxtpx="http://www.garmin.com/xmlschemas/TrackPointExtension/v1">
            <gpxtpx:hr>113</gpxtpx:hr>
          </gpxtpx:TrackPointExtension>
        </extensions>
      </trkpt>
      <trkpt lat="48.62895" lon="1.98013">
        <ele>121.6</ele>
        <time>2025-11-16T12:08:18Z</time>
        <extensions>
          <gpxtpx:TrackPointExtension xmlns:gpxtpx="http://www.garmin.com/xmlschemas/TrackPointExtension/v1">
            <gpxtpx:hr>113</gpxtpx:hr>
          </gpxtpx:TrackPointExtension>
        </extensions>
      </trkpt>
      <trkpt lat="48.62895" lon="1.98018">
        <ele>121.4</ele>
        <time>2025-11-16T12:08:20Z</time>
        <extensions>
          <gpxtpx:TrackPointExtension xmlns:gpxtpx="http://www.garmin.com/xmlschemas/TrackPointExtension/v1">
            <gpxtpx:hr>113</gpxtpx:hr>
          </gpxtpx:TrackPointExtension>
        </extensions>
      </trkpt>
      <trkpt lat="48.62895" lon="1.98023">
        <ele>121.2</ele>
        <time>2025-11-16T12:08:22Z</time>
        <extensions>
          <gpxtpx:TrackPointExtension xmlns:gpxtpx="http://www.garmin.com/xmlschemas/TrackPointExtension/v1">
            <gpxtpx:hr>113</gpxtpx:hr>
          </gpxtpx:TrackPointExtension>
        </extensions>
      </trkpt>
      <trkpt lat="48.62896" lon="1.98026">
        <ele>121.2</ele>
        <time>2025-11-16T12:08:24Z</time>
        <extensions>
          <gpxtpx:TrackPointExtension xmlns:gpxtpx="http://www.garmin.com/xmlschemas/TrackPointExtension/v1">
            <gpxtpx:hr>113</gpxtpx:hr>
          </gpxtpx:TrackPointExtension>
        </extensions>
      </trkpt>
      <trkpt lat="48.62897" lon="1.98029">
        <ele>121.2</ele>
        <time>2025-11-16T12:08:26Z</time>
        <extensions>
          <gpxtpx:TrackPointExtension xmlns:gpxtpx="http://www.garmin.com/xmlschemas/TrackPointExtension/v1">
            <gpxtpx:hr>113</gpxtpx:hr>
          </gpxtpx:TrackPointExtension>
        </extensions>
      </trkpt>
      <trkpt lat="48.62899" lon="1.98031">
        <ele>121.2</ele>
        <time>2025-11-16T12:08:28Z</time>
        <extensions>
          <gpxtpx:TrackPointExtension xmlns:gpxtpx="http://www.garmin.com/xmlschemas/TrackPointExtension/v1">
            <gpxtpx:hr>112</gpxtpx:hr>
          </gpxtpx:TrackPointExtension>
        </extensions>
      </trkpt>
      <trkpt lat="48.629" lon="1.98033">
        <ele>121</ele>
        <time>2025-11-16T12:08:30Z</time>
        <extensions>
          <gpxtpx:TrackPointExtension xmlns:gpxtpx="http://www.garmin.com/xmlschemas/TrackPointExtension/v1">
            <gpxtpx:hr>112</gpxtpx:hr>
          </gpxtpx:TrackPointExtension>
        </extensions>
      </trkpt>
      <trkpt lat="48.62902" lon="1.98034">
        <ele>121</ele>
        <time>2025-11-16T12:08:32Z</time>
        <extensions>
          <gpxtpx:TrackPointExtension xmlns:gpxtpx="http://www.garmin.com/xmlschemas/TrackPointExtension/v1">
            <gpxtpx:hr>112</gpxtpx:hr>
          </gpxtpx:TrackPointExtension>
        </extensions>
      </trkpt>
      <trkpt lat="48.62905" lon="1.98035">
        <ele>121.2</ele>
        <time>2025-11-16T12:08:34Z</time>
        <extensions>
          <gpxtpx:TrackPointExtension xmlns:gpxtpx="http://www.garmin.com/xmlschemas/TrackPointExtension/v1">
            <gpxtpx:hr>112</gpxtpx:hr>
          </gpxtpx:TrackPointExtension>
        </extensions>
      </trkpt>
      <trkpt lat="48.62908" lon="1.98036">
        <ele>121</ele>
        <time>2025-11-16T12:08:36Z</time>
        <extensions>
          <gpxtpx:TrackPointExtension xmlns:gpxtpx="http://www.garmin.com/xmlschemas/TrackPointExtension/v1">
            <gpxtpx:hr>112</gpxtpx:hr>
          </gpxtpx:TrackPointExtension>
        </extensions>
      </trkpt>
      <trkpt lat="48.6291" lon="1.98037">
        <ele>121</ele>
        <time>2025-11-16T12:08:38Z</time>
        <extensions>
          <gpxtpx:TrackPointExtension xmlns:gpxtpx="http://www.garmin.com/xmlschemas/TrackPointExtension/v1">
            <gpxtpx:hr>112</gpxtpx:hr>
          </gpxtpx:TrackPointExtension>
        </extensions>
      </trkpt>
      <trkpt lat="48.62913" lon="1.98039">
        <ele>121</ele>
        <time>2025-11-16T12:08:40Z</time>
        <extensions>
          <gpxtpx:TrackPointExtension xmlns:gpxtpx="http://www.garmin.com/xmlschemas/TrackPointExtension/v1">
            <gpxtpx:hr>112</gpxtpx:hr>
          </gpxtpx:TrackPointExtension>
        </extensions>
      </trkpt>
      <trkpt lat="48.62916" lon="1.9804">
        <ele>120.8</ele>
        <time>2025-11-16T12:08:42Z</time>
        <extensions>
          <gpxtpx:TrackPointExtension xmlns:gpxtpx="http://www.garmin.com/xmlschemas/TrackPointExtension/v1">
            <gpxtpx:hr>112</gpxtpx:hr>
          </gpxtpx:TrackPointExtension>
        </extensions>
      </trkpt>
      <trkpt lat="48.62919" lon="1.9804">
        <ele>120.8</ele>
        <time>2025-11-16T12:08:44Z</time>
        <extensions>
          <gpxtpx:TrackPointExtension xmlns:gpxtpx="http://www.garmin.com/xmlschemas/TrackPointExtension/v1">
            <gpxtpx:hr>112</gpxtpx:hr>
          </gpxtpx:TrackPointExtension>
        </extensions>
      </trkpt>
      <trkpt lat="48.62921" lon="1.98041">
        <ele>120.6</ele>
        <time>2025-11-16T12:08:45Z</time>
        <extensions>
          <gpxtpx:TrackPointExtension xmlns:gpxtpx="http://www.garmin.com/xmlschemas/TrackPointExtension/v1">
            <gpxtpx:hr>112</gpxtpx:hr>
          </gpxtpx:TrackPointExtension>
        </extensions>
      </trkpt>
      <trkpt lat="48.62924" lon="1.98042">
        <ele>120.6</ele>
        <time>2025-11-16T12:08:47Z</time>
        <extensions>
          <gpxtpx:TrackPointExtension xmlns:gpxtpx="http://www.garmin.com/xmlschemas/TrackPointExtension/v1">
            <gpxtpx:hr>112</gpxtpx:hr>
          </gpxtpx:TrackPointExtension>
        </extensions>
      </trkpt>
      <trkpt lat="48.62927" lon="1.98042">
        <ele>120.4</ele>
        <time>2025-11-16T12:08:49Z</time>
        <extensions>
          <gpxtpx:TrackPointExtension xmlns:gpxtpx="http://www.garmin.com/xmlschemas/TrackPointExtension/v1">
            <gpxtpx:hr>113</gpxtpx:hr>
          </gpxtpx:TrackPointExtension>
        </extensions>
      </trkpt>
      <trkpt lat="48.62931" lon="1.98042">
        <ele>120.2</ele>
        <time>2025-11-16T12:08:51Z</time>
        <extensions>
          <gpxtpx:TrackPointExtension xmlns:gpxtpx="http://www.garmin.com/xmlschemas/TrackPointExtension/v1">
            <gpxtpx:hr>113</gpxtpx:hr>
          </gpxtpx:TrackPointExtension>
        </extensions>
      </trkpt>
      <trkpt lat="48.62934" lon="1.98043">
        <ele>120.2</ele>
        <time>2025-11-16T12:08:53Z</time>
        <extensions>
          <gpxtpx:TrackPointExtension xmlns:gpxtpx="http://www.garmin.com/xmlschemas/TrackPointExtension/v1">
            <gpxtpx:hr>113</gpxtpx:hr>
          </gpxtpx:TrackPointExtension>
        </extensions>
      </trkpt>
      <trkpt lat="48.62938" lon="1.98043">
        <ele>120</ele>
        <time>2025-11-16T12:08:55Z</time>
        <extensions>
          <gpxtpx:TrackPointExtension xmlns:gpxtpx="http://www.garmin.com/xmlschemas/TrackPointExtension/v1">
            <gpxtpx:hr>112</gpxtpx:hr>
          </gpxtpx:TrackPointExtension>
        </extensions>
      </trkpt>
      <trkpt lat="48.6294" lon="1.98044">
        <ele>120</ele>
        <time>2025-11-16T12:08:57Z</time>
        <extensions>
          <gpxtpx:TrackPointExtension xmlns:gpxtpx="http://www.garmin.com/xmlschemas/TrackPointExtension/v1">
            <gpxtpx:hr>112</gpxtpx:hr>
          </gpxtpx:TrackPointExtension>
        </extensions>
      </trkpt>
      <trkpt lat="48.62943" lon="1.98045">
        <ele>119.8</ele>
        <time>2025-11-16T12:08:59Z</time>
        <extensions>
          <gpxtpx:TrackPointExtension xmlns:gpxtpx="http://www.garmin.com/xmlschemas/TrackPointExtension/v1">
            <gpxtpx:hr>112</gpxtpx:hr>
          </gpxtpx:TrackPointExtension>
        </extensions>
      </trkpt>
      <trkpt lat="48.62946" lon="1.98046">
        <ele>119.8</ele>
        <time>2025-11-16T12:09:01Z</time>
        <extensions>
          <gpxtpx:TrackPointExtension xmlns:gpxtpx="http://www.garmin.com/xmlschemas/TrackPointExtension/v1">
            <gpxtpx:hr>112</gpxtpx:hr>
          </gpxtpx:TrackPointExtension>
        </extensions>
      </trkpt>
      <trkpt lat="48.62949" lon="1.98046">
        <ele>119.6</ele>
        <time>2025-11-16T12:09:03Z</time>
        <extensions>
          <gpxtpx:TrackPointExtension xmlns:gpxtpx="http://www.garmin.com/xmlschemas/TrackPointExtension/v1">
            <gpxtpx:hr>112</gpxtpx:hr>
          </gpxtpx:TrackPointExtension>
        </extensions>
      </trkpt>
      <trkpt lat="48.62952" lon="1.98047">
        <ele>119.4</ele>
        <time>2025-11-16T12:09:05Z</time>
        <extensions>
          <gpxtpx:TrackPointExtension xmlns:gpxtpx="http://www.garmin.com/xmlschemas/TrackPointExtension/v1">
            <gpxtpx:hr>112</gpxtpx:hr>
          </gpxtpx:TrackPointExtension>
        </extensions>
      </trkpt>
      <trkpt lat="48.62954" lon="1.98048">
        <ele>119.2</ele>
        <time>2025-11-16T12:09:07Z</time>
        <extensions>
          <gpxtpx:TrackPointExtension xmlns:gpxtpx="http://www.garmin.com/xmlschemas/TrackPointExtension/v1">
            <gpxtpx:hr>112</gpxtpx:hr>
          </gpxtpx:TrackPointExtension>
        </extensions>
      </trkpt>
      <trkpt lat="48.62957" lon="1.9805">
        <ele>119</ele>
        <time>2025-11-16T12:09:09Z</time>
        <extensions>
          <gpxtpx:TrackPointExtension xmlns:gpxtpx="http://www.garmin.com/xmlschemas/TrackPointExtension/v1">
            <gpxtpx:hr>112</gpxtpx:hr>
          </gpxtpx:TrackPointExtension>
        </extensions>
      </trkpt>
      <trkpt lat="48.6296" lon="1.98052">
        <ele>118.6</ele>
        <time>2025-11-16T12:09:11Z</time>
        <extensions>
          <gpxtpx:TrackPointExtension xmlns:gpxtpx="http://www.garmin.com/xmlschemas/TrackPointExtension/v1">
            <gpxtpx:hr>112</gpxtpx:hr>
          </gpxtpx:TrackPointExtension>
        </extensions>
      </trkpt>
      <trkpt lat="48.62963" lon="1.98053">
        <ele>118.4</ele>
        <time>2025-11-16T12:09:13Z</time>
        <extensions>
          <gpxtpx:TrackPointExtension xmlns:gpxtpx="http://www.garmin.com/xmlschemas/TrackPointExtension/v1">
            <gpxtpx:hr>112</gpxtpx:hr>
          </gpxtpx:TrackPointExtension>
        </extensions>
      </trkpt>
      <trkpt lat="48.62965" lon="1.98056">
        <ele>118.4</ele>
        <time>2025-11-16T12:09:15Z</time>
        <extensions>
          <gpxtpx:TrackPointExtension xmlns:gpxtpx="http://www.garmin.com/xmlschemas/TrackPointExtension/v1">
            <gpxtpx:hr>112</gpxtpx:hr>
          </gpxtpx:TrackPointExtension>
        </extensions>
      </trkpt>
      <trkpt lat="48.62967" lon="1.98058">
        <ele>118.2</ele>
        <time>2025-11-16T12:09:17Z</time>
        <extensions>
          <gpxtpx:TrackPointExtension xmlns:gpxtpx="http://www.garmin.com/xmlschemas/TrackPointExtension/v1">
            <gpxtpx:hr>112</gpxtpx:hr>
          </gpxtpx:TrackPointExtension>
        </extensions>
      </trkpt>
      <trkpt lat="48.62969" lon="1.98061">
        <ele>118</ele>
        <time>2025-11-16T12:09:19Z</time>
        <extensions>
          <gpxtpx:TrackPointExtension xmlns:gpxtpx="http://www.garmin.com/xmlschemas/TrackPointExtension/v1">
            <gpxtpx:hr>112</gpxtpx:hr>
          </gpxtpx:TrackPointExtension>
        </extensions>
      </trkpt>
      <trkpt lat="48.62971" lon="1.98064">
        <ele>118</ele>
        <time>2025-11-16T12:09:21Z</time>
        <extensions>
          <gpxtpx:TrackPointExtension xmlns:gpxtpx="http://www.garmin.com/xmlschemas/TrackPointExtension/v1">
            <gpxtpx:hr>112</gpxtpx:hr>
          </gpxtpx:TrackPointExtension>
        </extensions>
      </trkpt>
      <trkpt lat="48.62973" lon="1.98068">
        <ele>118</ele>
        <time>2025-11-16T12:09:23Z</time>
        <extensions>
          <gpxtpx:TrackPointExtension xmlns:gpxtpx="http://www.garmin.com/xmlschemas/TrackPointExtension/v1">
            <gpxtpx:hr>112</gpxtpx:hr>
          </gpxtpx:TrackPointExtension>
        </extensions>
      </trkpt>
      <trkpt lat="48.62974" lon="1.98071">
        <ele>118</ele>
        <time>2025-11-16T12:09:25Z</time>
        <extensions>
          <gpxtpx:TrackPointExtension xmlns:gpxtpx="http://www.garmin.com/xmlschemas/TrackPointExtension/v1">
            <gpxtpx:hr>111</gpxtpx:hr>
          </gpxtpx:TrackPointExtension>
        </extensions>
      </trkpt>
      <trkpt lat="48.62974" lon="1.98074">
        <ele>117.8</ele>
        <time>2025-11-16T12:09:27Z</time>
        <extensions>
          <gpxtpx:TrackPointExtension xmlns:gpxtpx="http://www.garmin.com/xmlschemas/TrackPointExtension/v1">
            <gpxtpx:hr>111</gpxtpx:hr>
          </gpxtpx:TrackPointExtension>
        </extensions>
      </trkpt>
      <trkpt lat="48.62975" lon="1.98077">
        <ele>117.6</ele>
        <time>2025-11-16T12:09:29Z</time>
        <extensions>
          <gpxtpx:TrackPointExtension xmlns:gpxtpx="http://www.garmin.com/xmlschemas/TrackPointExtension/v1">
            <gpxtpx:hr>111</gpxtpx:hr>
          </gpxtpx:TrackPointExtension>
        </extensions>
      </trkpt>
      <trkpt lat="48.62976" lon="1.98081">
        <ele>117.6</ele>
        <time>2025-11-16T12:09:31Z</time>
        <extensions>
          <gpxtpx:TrackPointExtension xmlns:gpxtpx="http://www.garmin.com/xmlschemas/TrackPointExtension/v1">
            <gpxtpx:hr>111</gpxtpx:hr>
          </gpxtpx:TrackPointExtension>
        </extensions>
      </trkpt>
      <trkpt lat="48.62977" lon="1.98085">
        <ele>117.6</ele>
        <time>2025-11-16T12:09:33Z</time>
        <extensions>
          <gpxtpx:TrackPointExtension xmlns:gpxtpx="http://www.garmin.com/xmlschemas/TrackPointExtension/v1">
            <gpxtpx:hr>111</gpxtpx:hr>
          </gpxtpx:TrackPointExtension>
        </extensions>
      </trkpt>
      <trkpt lat="48.62978" lon="1.98087">
        <ele>117.6</ele>
        <time>2025-11-16T12:09:34Z</time>
        <extensions>
          <gpxtpx:TrackPointExtension xmlns:gpxtpx="http://www.garmin.com/xmlschemas/TrackPointExtension/v1">
            <gpxtpx:hr>111</gpxtpx:hr>
          </gpxtpx:TrackPointExtension>
        </extensions>
      </trkpt>
      <trkpt lat="48.62978" lon="1.9809">
        <ele>117.6</ele>
        <time>2025-11-16T12:09:35Z</time>
        <extensions>
          <gpxtpx:TrackPointExtension xmlns:gpxtpx="http://www.garmin.com/xmlschemas/TrackPointExtension/v1">
            <gpxtpx:hr>111</gpxtpx:hr>
          </gpxtpx:TrackPointExtension>
        </extensions>
      </trkpt>
      <trkpt lat="48.62979" lon="1.98093">
        <ele>117.4</ele>
        <time>2025-11-16T12:09:36Z</time>
        <extensions>
          <gpxtpx:TrackPointExtension xmlns:gpxtpx="http://www.garmin.com/xmlschemas/TrackPointExtension/v1">
            <gpxtpx:hr>111</gpxtpx:hr>
          </gpxtpx:TrackPointExtension>
        </extensions>
      </trkpt>
      <trkpt lat="48.6298" lon="1.98096">
        <ele>117.4</ele>
        <time>2025-11-16T12:09:37Z</time>
        <extensions>
          <gpxtpx:TrackPointExtension xmlns:gpxtpx="http://www.garmin.com/xmlschemas/TrackPointExtension/v1">
            <gpxtpx:hr>111</gpxtpx:hr>
          </gpxtpx:TrackPointExtension>
        </extensions>
      </trkpt>
      <trkpt lat="48.62981" lon="1.98099">
        <ele>117.4</ele>
        <time>2025-11-16T12:09:38Z</time>
        <extensions>
          <gpxtpx:TrackPointExtension xmlns:gpxtpx="http://www.garmin.com/xmlschemas/TrackPointExtension/v1">
            <gpxtpx:hr>111</gpxtpx:hr>
          </gpxtpx:TrackPointExtension>
        </extensions>
      </trkpt>
      <trkpt lat="48.62981" lon="1.98102">
        <ele>117.4</ele>
        <time>2025-11-16T12:09:39Z</time>
        <extensions>
          <gpxtpx:TrackPointExtension xmlns:gpxtpx="http://www.garmin.com/xmlschemas/TrackPointExtension/v1">
            <gpxtpx:hr>111</gpxtpx:hr>
          </gpxtpx:TrackPointExtension>
        </extensions>
      </trkpt>
      <trkpt lat="48.62983" lon="1.98106">
        <ele>117.2</ele>
        <time>2025-11-16T12:09:41Z</time>
        <extensions>
          <gpxtpx:TrackPointExtension xmlns:gpxtpx="http://www.garmin.com/xmlschemas/TrackPointExtension/v1">
            <gpxtpx:hr>111</gpxtpx:hr>
          </gpxtpx:TrackPointExtension>
        </extensions>
      </trkpt>
      <trkpt lat="48.62984" lon="1.9811">
        <ele>116.8</ele>
        <time>2025-11-16T12:09:43Z</time>
        <extensions>
          <gpxtpx:TrackPointExtension xmlns:gpxtpx="http://www.garmin.com/xmlschemas/TrackPointExtension/v1">
            <gpxtpx:hr>111</gpxtpx:hr>
          </gpxtpx:TrackPointExtension>
        </extensions>
      </trkpt>
      <trkpt lat="48.62986" lon="1.98114">
        <ele>116.6</ele>
        <time>2025-11-16T12:09:45Z</time>
        <extensions>
          <gpxtpx:TrackPointExtension xmlns:gpxtpx="http://www.garmin.com/xmlschemas/TrackPointExtension/v1">
            <gpxtpx:hr>111</gpxtpx:hr>
          </gpxtpx:TrackPointExtension>
        </extensions>
      </trkpt>
      <trkpt lat="48.62987" lon="1.98119">
        <ele>116.4</ele>
        <time>2025-11-16T12:09:47Z</time>
        <extensions>
          <gpxtpx:TrackPointExtension xmlns:gpxtpx="http://www.garmin.com/xmlschemas/TrackPointExtension/v1">
            <gpxtpx:hr>112</gpxtpx:hr>
          </gpxtpx:TrackPointExtension>
        </extensions>
      </trkpt>
      <trkpt lat="48.62988" lon="1.98123">
        <ele>116.2</ele>
        <time>2025-11-16T12:09:49Z</time>
        <extensions>
          <gpxtpx:TrackPointExtension xmlns:gpxtpx="http://www.garmin.com/xmlschemas/TrackPointExtension/v1">
            <gpxtpx:hr>112</gpxtpx:hr>
          </gpxtpx:TrackPointExtension>
        </extensions>
      </trkpt>
      <trkpt lat="48.62989" lon="1.98128">
        <ele>116</ele>
        <time>2025-11-16T12:09:51Z</time>
        <extensions>
          <gpxtpx:TrackPointExtension xmlns:gpxtpx="http://www.garmin.com/xmlschemas/TrackPointExtension/v1">
            <gpxtpx:hr>112</gpxtpx:hr>
          </gpxtpx:TrackPointExtension>
        </extensions>
      </trkpt>
      <trkpt lat="48.6299" lon="1.98133">
        <ele>115.8</ele>
        <time>2025-11-16T12:09:53Z</time>
        <extensions>
          <gpxtpx:TrackPointExtension xmlns:gpxtpx="http://www.garmin.com/xmlschemas/TrackPointExtension/v1">
            <gpxtpx:hr>112</gpxtpx:hr>
          </gpxtpx:TrackPointExtension>
        </extensions>
      </trkpt>
      <trkpt lat="48.62991" lon="1.98137">
        <ele>115.4</ele>
        <time>2025-11-16T12:09:55Z</time>
        <extensions>
          <gpxtpx:TrackPointExtension xmlns:gpxtpx="http://www.garmin.com/xmlschemas/TrackPointExtension/v1">
            <gpxtpx:hr>112</gpxtpx:hr>
          </gpxtpx:TrackPointExtension>
        </extensions>
      </trkpt>
      <trkpt lat="48.62992" lon="1.98141">
        <ele>115.2</ele>
        <time>2025-11-16T12:09:57Z</time>
        <extensions>
          <gpxtpx:TrackPointExtension xmlns:gpxtpx="http://www.garmin.com/xmlschemas/TrackPointExtension/v1">
            <gpxtpx:hr>112</gpxtpx:hr>
          </gpxtpx:TrackPointExtension>
        </extensions>
      </trkpt>
      <trkpt lat="48.62993" lon="1.98145">
        <ele>114.8</ele>
        <time>2025-11-16T12:09:59Z</time>
        <extensions>
          <gpxtpx:TrackPointExtension xmlns:gpxtpx="http://www.garmin.com/xmlschemas/TrackPointExtension/v1">
            <gpxtpx:hr>112</gpxtpx:hr>
          </gpxtpx:TrackPointExtension>
        </extensions>
      </trkpt>
      <trkpt lat="48.62995" lon="1.98149">
        <ele>114.4</ele>
        <time>2025-11-16T12:10:01Z</time>
        <extensions>
          <gpxtpx:TrackPointExtension xmlns:gpxtpx="http://www.garmin.com/xmlschemas/TrackPointExtension/v1">
            <gpxtpx:hr>112</gpxtpx:hr>
          </gpxtpx:TrackPointExtension>
        </extensions>
      </trkpt>
      <trkpt lat="48.62997" lon="1.98153">
        <ele>114.2</ele>
        <time>2025-11-16T12:10:03Z</time>
        <extensions>
          <gpxtpx:TrackPointExtension xmlns:gpxtpx="http://www.garmin.com/xmlschemas/TrackPointExtension/v1">
            <gpxtpx:hr>112</gpxtpx:hr>
          </gpxtpx:TrackPointExtension>
        </extensions>
      </trkpt>
      <trkpt lat="48.62999" lon="1.98157">
        <ele>114</ele>
        <time>2025-11-16T12:10:05Z</time>
        <extensions>
          <gpxtpx:TrackPointExtension xmlns:gpxtpx="http://www.garmin.com/xmlschemas/TrackPointExtension/v1">
            <gpxtpx:hr>112</gpxtpx:hr>
          </gpxtpx:TrackPointExtension>
        </extensions>
      </trkpt>
      <trkpt lat="48.63001" lon="1.98159">
        <ele>114</ele>
        <time>2025-11-16T12:10:07Z</time>
        <extensions>
          <gpxtpx:TrackPointExtension xmlns:gpxtpx="http://www.garmin.com/xmlschemas/TrackPointExtension/v1">
            <gpxtpx:hr>112</gpxtpx:hr>
          </gpxtpx:TrackPointExtension>
        </extensions>
      </trkpt>
      <trkpt lat="48.63004" lon="1.98162">
        <ele>113.8</ele>
        <time>2025-11-16T12:10:09Z</time>
        <extensions>
          <gpxtpx:TrackPointExtension xmlns:gpxtpx="http://www.garmin.com/xmlschemas/TrackPointExtension/v1">
            <gpxtpx:hr>112</gpxtpx:hr>
          </gpxtpx:TrackPointExtension>
        </extensions>
      </trkpt>
      <trkpt lat="48.63006" lon="1.98164">
        <ele>113.6</ele>
        <time>2025-11-16T12:10:11Z</time>
        <extensions>
          <gpxtpx:TrackPointExtension xmlns:gpxtpx="http://www.garmin.com/xmlschemas/TrackPointExtension/v1">
            <gpxtpx:hr>112</gpxtpx:hr>
          </gpxtpx:TrackPointExtension>
        </extensions>
      </trkpt>
      <trkpt lat="48.63009" lon="1.98166">
        <ele>113.6</ele>
        <time>2025-11-16T12:10:13Z</time>
        <extensions>
          <gpxtpx:TrackPointExtension xmlns:gpxtpx="http://www.garmin.com/xmlschemas/TrackPointExtension/v1">
            <gpxtpx:hr>112</gpxtpx:hr>
          </gpxtpx:TrackPointExtension>
        </extensions>
      </trkpt>
      <trkpt lat="48.6301" lon="1.98168">
        <ele>113.4</ele>
        <time>2025-11-16T12:10:15Z</time>
        <extensions>
          <gpxtpx:TrackPointExtension xmlns:gpxtpx="http://www.garmin.com/xmlschemas/TrackPointExtension/v1">
            <gpxtpx:hr>113</gpxtpx:hr>
          </gpxtpx:TrackPointExtension>
        </extensions>
      </trkpt>
      <trkpt lat="48.63012" lon="1.9817">
        <ele>113.2</ele>
        <time>2025-11-16T12:10:17Z</time>
        <extensions>
          <gpxtpx:TrackPointExtension xmlns:gpxtpx="http://www.garmin.com/xmlschemas/TrackPointExtension/v1">
            <gpxtpx:hr>114</gpxtpx:hr>
          </gpxtpx:TrackPointExtension>
        </extensions>
      </trkpt>
      <trkpt lat="48.63013" lon="1.98172">
        <ele>113</ele>
        <time>2025-11-16T12:10:19Z</time>
        <extensions>
          <gpxtpx:TrackPointExtension xmlns:gpxtpx="http://www.garmin.com/xmlschemas/TrackPointExtension/v1">
            <gpxtpx:hr>116</gpxtpx:hr>
          </gpxtpx:TrackPointExtension>
        </extensions>
      </trkpt>
      <trkpt lat="48.63015" lon="1.98174">
        <ele>112.8</ele>
        <time>2025-11-16T12:10:21Z</time>
        <extensions>
          <gpxtpx:TrackPointExtension xmlns:gpxtpx="http://www.garmin.com/xmlschemas/TrackPointExtension/v1">
            <gpxtpx:hr>116</gpxtpx:hr>
          </gpxtpx:TrackPointExtension>
        </extensions>
      </trkpt>
      <trkpt lat="48.63017" lon="1.98177">
        <ele>112.6</ele>
        <time>2025-11-16T12:10:23Z</time>
        <extensions>
          <gpxtpx:TrackPointExtension xmlns:gpxtpx="http://www.garmin.com/xmlschemas/TrackPointExtension/v1">
            <gpxtpx:hr>112</gpxtpx:hr>
          </gpxtpx:TrackPointExtension>
        </extensions>
      </trkpt>
      <trkpt lat="48.63018" lon="1.9818">
        <ele>112.6</ele>
        <time>2025-11-16T12:10:25Z</time>
        <extensions>
          <gpxtpx:TrackPointExtension xmlns:gpxtpx="http://www.garmin.com/xmlschemas/TrackPointExtension/v1">
            <gpxtpx:hr>112</gpxtpx:hr>
          </gpxtpx:TrackPointExtension>
        </extensions>
      </trkpt>
      <trkpt lat="48.63018" lon="1.98183">
        <ele>112.8</ele>
        <time>2025-11-16T12:10:27Z</time>
        <extensions>
          <gpxtpx:TrackPointExtension xmlns:gpxtpx="http://www.garmin.com/xmlschemas/TrackPointExtension/v1">
            <gpxtpx:hr>112</gpxtpx:hr>
          </gpxtpx:TrackPointExtension>
        </extensions>
      </trkpt>
      <trkpt lat="48.63019" lon="1.98186">
        <ele>112.8</ele>
        <time>2025-11-16T12:10:29Z</time>
        <extensions>
          <gpxtpx:TrackPointExtension xmlns:gpxtpx="http://www.garmin.com/xmlschemas/TrackPointExtension/v1">
            <gpxtpx:hr>112</gpxtpx:hr>
          </gpxtpx:TrackPointExtension>
        </extensions>
      </trkpt>
      <trkpt lat="48.63019" lon="1.98189">
        <ele>112.8</ele>
        <time>2025-11-16T12:10:31Z</time>
        <extensions>
          <gpxtpx:TrackPointExtension xmlns:gpxtpx="http://www.garmin.com/xmlschemas/TrackPointExtension/v1">
            <gpxtpx:hr>112</gpxtpx:hr>
          </gpxtpx:TrackPointExtension>
        </extensions>
      </trkpt>
      <trkpt lat="48.63019" lon="1.98193">
        <ele>113</ele>
        <time>2025-11-16T12:10:33Z</time>
        <extensions>
          <gpxtpx:TrackPointExtension xmlns:gpxtpx="http://www.garmin.com/xmlschemas/TrackPointExtension/v1">
            <gpxtpx:hr>112</gpxtpx:hr>
          </gpxtpx:TrackPointExtension>
        </extensions>
      </trkpt>
      <trkpt lat="48.6302" lon="1.98197">
        <ele>113</ele>
        <time>2025-11-16T12:10:35Z</time>
        <extensions>
          <gpxtpx:TrackPointExtension xmlns:gpxtpx="http://www.garmin.com/xmlschemas/TrackPointExtension/v1">
            <gpxtpx:hr>112</gpxtpx:hr>
          </gpxtpx:TrackPointExtension>
        </extensions>
      </trkpt>
      <trkpt lat="48.6302" lon="1.98201">
        <ele>113</ele>
        <time>2025-11-16T12:10:37Z</time>
        <extensions>
          <gpxtpx:TrackPointExtension xmlns:gpxtpx="http://www.garmin.com/xmlschemas/TrackPointExtension/v1">
            <gpxtpx:hr>112</gpxtpx:hr>
          </gpxtpx:TrackPointExtension>
        </extensions>
      </trkpt>
      <trkpt lat="48.6302" lon="1.98206">
        <ele>113</ele>
        <time>2025-11-16T12:10:39Z</time>
        <extensions>
          <gpxtpx:TrackPointExtension xmlns:gpxtpx="http://www.garmin.com/xmlschemas/TrackPointExtension/v1">
            <gpxtpx:hr>112</gpxtpx:hr>
          </gpxtpx:TrackPointExtension>
        </extensions>
      </trkpt>
      <trkpt lat="48.63021" lon="1.9821">
        <ele>112.8</ele>
        <time>2025-11-16T12:10:41Z</time>
        <extensions>
          <gpxtpx:TrackPointExtension xmlns:gpxtpx="http://www.garmin.com/xmlschemas/TrackPointExtension/v1">
            <gpxtpx:hr>112</gpxtpx:hr>
          </gpxtpx:TrackPointExtension>
        </extensions>
      </trkpt>
      <trkpt lat="48.63021" lon="1.98215">
        <ele>112.8</ele>
        <time>2025-11-16T12:10:43Z</time>
        <extensions>
          <gpxtpx:TrackPointExtension xmlns:gpxtpx="http://www.garmin.com/xmlschemas/TrackPointExtension/v1">
            <gpxtpx:hr>112</gpxtpx:hr>
          </gpxtpx:TrackPointExtension>
        </extensions>
      </trkpt>
      <trkpt lat="48.6302" lon="1.9822">
        <ele>112.6</ele>
        <time>2025-11-16T12:10:45Z</time>
        <extensions>
          <gpxtpx:TrackPointExtension xmlns:gpxtpx="http://www.garmin.com/xmlschemas/TrackPointExtension/v1">
            <gpxtpx:hr>112</gpxtpx:hr>
          </gpxtpx:TrackPointExtension>
        </extensions>
      </trkpt>
      <trkpt lat="48.6302" lon="1.98225">
        <ele>112.4</ele>
        <time>2025-11-16T12:10:47Z</time>
        <extensions>
          <gpxtpx:TrackPointExtension xmlns:gpxtpx="http://www.garmin.com/xmlschemas/TrackPointExtension/v1">
            <gpxtpx:hr>112</gpxtpx:hr>
          </gpxtpx:TrackPointExtension>
        </extensions>
      </trkpt>
      <trkpt lat="48.6302" lon="1.9823">
        <ele>112.4</ele>
        <time>2025-11-16T12:10:49Z</time>
        <extensions>
          <gpxtpx:TrackPointExtension xmlns:gpxtpx="http://www.garmin.com/xmlschemas/TrackPointExtension/v1">
            <gpxtpx:hr>112</gpxtpx:hr>
          </gpxtpx:TrackPointExtension>
        </extensions>
      </trkpt>
      <trkpt lat="48.6302" lon="1.98235">
        <ele>112.2</ele>
        <time>2025-11-16T12:10:51Z</time>
        <extensions>
          <gpxtpx:TrackPointExtension xmlns:gpxtpx="http://www.garmin.com/xmlschemas/TrackPointExtension/v1">
            <gpxtpx:hr>112</gpxtpx:hr>
          </gpxtpx:TrackPointExtension>
        </extensions>
      </trkpt>
      <trkpt lat="48.6302" lon="1.9824">
        <ele>111.8</ele>
        <time>2025-11-16T12:10:53Z</time>
        <extensions>
          <gpxtpx:TrackPointExtension xmlns:gpxtpx="http://www.garmin.com/xmlschemas/TrackPointExtension/v1">
            <gpxtpx:hr>111</gpxtpx:hr>
          </gpxtpx:TrackPointExtension>
        </extensions>
      </trkpt>
      <trkpt lat="48.6302" lon="1.98244">
        <ele>111.6</ele>
        <time>2025-11-16T12:10:55Z</time>
        <extensions>
          <gpxtpx:TrackPointExtension xmlns:gpxtpx="http://www.garmin.com/xmlschemas/TrackPointExtension/v1">
            <gpxtpx:hr>111</gpxtpx:hr>
          </gpxtpx:TrackPointExtension>
        </extensions>
      </trkpt>
      <trkpt lat="48.6302" lon="1.98249">
        <ele>111.4</ele>
        <time>2025-11-16T12:10:57Z</time>
        <extensions>
          <gpxtpx:TrackPointExtension xmlns:gpxtpx="http://www.garmin.com/xmlschemas/TrackPointExtension/v1">
            <gpxtpx:hr>111</gpxtpx:hr>
          </gpxtpx:TrackPointExtension>
        </extensions>
      </trkpt>
      <trkpt lat="48.6302" lon="1.98254">
        <ele>111.2</ele>
        <time>2025-11-16T12:10:59Z</time>
        <extensions>
          <gpxtpx:TrackPointExtension xmlns:gpxtpx="http://www.garmin.com/xmlschemas/TrackPointExtension/v1">
            <gpxtpx:hr>111</gpxtpx:hr>
          </gpxtpx:TrackPointExtension>
        </extensions>
      </trkpt>
      <trkpt lat="48.63019" lon="1.98257">
        <ele>111.2</ele>
        <time>2025-11-16T12:11:00Z</time>
        <extensions>
          <gpxtpx:TrackPointExtension xmlns:gpxtpx="http://www.garmin.com/xmlschemas/TrackPointExtension/v1">
            <gpxtpx:hr>111</gpxtpx:hr>
          </gpxtpx:TrackPointExtension>
        </extensions>
      </trkpt>
      <trkpt lat="48.63019" lon="1.9826">
        <ele>111.2</ele>
        <time>2025-11-16T12:11:01Z</time>
        <extensions>
          <gpxtpx:TrackPointExtension xmlns:gpxtpx="http://www.garmin.com/xmlschemas/TrackPointExtension/v1">
            <gpxtpx:hr>111</gpxtpx:hr>
          </gpxtpx:TrackPointExtension>
        </extensions>
      </trkpt>
      <trkpt lat="48.63019" lon="1.98263">
        <ele>111.2</ele>
        <time>2025-11-16T12:11:02Z</time>
        <extensions>
          <gpxtpx:TrackPointExtension xmlns:gpxtpx="http://www.garmin.com/xmlschemas/TrackPointExtension/v1">
            <gpxtpx:hr>111</gpxtpx:hr>
          </gpxtpx:TrackPointExtension>
        </extensions>
      </trkpt>
      <trkpt lat="48.6302" lon="1.98266">
        <ele>111.2</ele>
        <time>2025-11-16T12:11:03Z</time>
        <extensions>
          <gpxtpx:TrackPointExtension xmlns:gpxtpx="http://www.garmin.com/xmlschemas/TrackPointExtension/v1">
            <gpxtpx:hr>111</gpxtpx:hr>
          </gpxtpx:TrackPointExtension>
        </extensions>
      </trkpt>
      <trkpt lat="48.6302" lon="1.98269">
        <ele>111.2</ele>
        <time>2025-11-16T12:11:04Z</time>
        <extensions>
          <gpxtpx:TrackPointExtension xmlns:gpxtpx="http://www.garmin.com/xmlschemas/TrackPointExtension/v1">
            <gpxtpx:hr>111</gpxtpx:hr>
          </gpxtpx:TrackPointExtension>
        </extensions>
      </trkpt>
      <trkpt lat="48.6302" lon="1.98272">
        <ele>111.2</ele>
        <time>2025-11-16T12:11:05Z</time>
        <extensions>
          <gpxtpx:TrackPointExtension xmlns:gpxtpx="http://www.garmin.com/xmlschemas/TrackPointExtension/v1">
            <gpxtpx:hr>111</gpxtpx:hr>
          </gpxtpx:TrackPointExtension>
        </extensions>
      </trkpt>
      <trkpt lat="48.63019" lon="1.98274">
        <ele>111.2</ele>
        <time>2025-11-16T12:11:06Z</time>
        <extensions>
          <gpxtpx:TrackPointExtension xmlns:gpxtpx="http://www.garmin.com/xmlschemas/TrackPointExtension/v1">
            <gpxtpx:hr>111</gpxtpx:hr>
          </gpxtpx:TrackPointExtension>
        </extensions>
      </trkpt>
      <trkpt lat="48.63019" lon="1.98279">
        <ele>111.2</ele>
        <time>2025-11-16T12:11:08Z</time>
        <extensions>
          <gpxtpx:TrackPointExtension xmlns:gpxtpx="http://www.garmin.com/xmlschemas/TrackPointExtension/v1">
            <gpxtpx:hr>111</gpxtpx:hr>
          </gpxtpx:TrackPointExtension>
        </extensions>
      </trkpt>
      <trkpt lat="48.63019" lon="1.98284">
        <ele>111.2</ele>
        <time>2025-11-16T12:11:10Z</time>
        <extensions>
          <gpxtpx:TrackPointExtension xmlns:gpxtpx="http://www.garmin.com/xmlschemas/TrackPointExtension/v1">
            <gpxtpx:hr>111</gpxtpx:hr>
          </gpxtpx:TrackPointExtension>
        </extensions>
      </trkpt>
      <trkpt lat="48.63018" lon="1.98288">
        <ele>111.2</ele>
        <time>2025-11-16T12:11:12Z</time>
        <extensions>
          <gpxtpx:TrackPointExtension xmlns:gpxtpx="http://www.garmin.com/xmlschemas/TrackPointExtension/v1">
            <gpxtpx:hr>111</gpxtpx:hr>
          </gpxtpx:TrackPointExtension>
        </extensions>
      </trkpt>
      <trkpt lat="48.63018" lon="1.98293">
        <ele>111.2</ele>
        <time>2025-11-16T12:11:14Z</time>
        <extensions>
          <gpxtpx:TrackPointExtension xmlns:gpxtpx="http://www.garmin.com/xmlschemas/TrackPointExtension/v1">
            <gpxtpx:hr>111</gpxtpx:hr>
          </gpxtpx:TrackPointExtension>
        </extensions>
      </trkpt>
      <trkpt lat="48.63018" lon="1.98298">
        <ele>111</ele>
        <time>2025-11-16T12:11:16Z</time>
        <extensions>
          <gpxtpx:TrackPointExtension xmlns:gpxtpx="http://www.garmin.com/xmlschemas/TrackPointExtension/v1">
            <gpxtpx:hr>111</gpxtpx:hr>
          </gpxtpx:TrackPointExtension>
        </extensions>
      </trkpt>
      <trkpt lat="48.63018" lon="1.98302">
        <ele>110.8</ele>
        <time>2025-11-16T12:11:18Z</time>
        <extensions>
          <gpxtpx:TrackPointExtension xmlns:gpxtpx="http://www.garmin.com/xmlschemas/TrackPointExtension/v1">
            <gpxtpx:hr>111</gpxtpx:hr>
          </gpxtpx:TrackPointExtension>
        </extensions>
      </trkpt>
      <trkpt lat="48.63018" lon="1.98307">
        <ele>110.8</ele>
        <time>2025-11-16T12:11:20Z</time>
        <extensions>
          <gpxtpx:TrackPointExtension xmlns:gpxtpx="http://www.garmin.com/xmlschemas/TrackPointExtension/v1">
            <gpxtpx:hr>111</gpxtpx:hr>
          </gpxtpx:TrackPointExtension>
        </extensions>
      </trkpt>
      <trkpt lat="48.63018" lon="1.98312">
        <ele>110.8</ele>
        <time>2025-11-16T12:11:22Z</time>
        <extensions>
          <gpxtpx:TrackPointExtension xmlns:gpxtpx="http://www.garmin.com/xmlschemas/TrackPointExtension/v1">
            <gpxtpx:hr>111</gpxtpx:hr>
          </gpxtpx:TrackPointExtension>
        </extensions>
      </trkpt>
      <trkpt lat="48.63018" lon="1.98316">
        <ele>111</ele>
        <time>2025-11-16T12:11:24Z</time>
        <extensions>
          <gpxtpx:TrackPointExtension xmlns:gpxtpx="http://www.garmin.com/xmlschemas/TrackPointExtension/v1">
            <gpxtpx:hr>111</gpxtpx:hr>
          </gpxtpx:TrackPointExtension>
        </extensions>
      </trkpt>
      <trkpt lat="48.63018" lon="1.9832">
        <ele>111</ele>
        <time>2025-11-16T12:11:26Z</time>
        <extensions>
          <gpxtpx:TrackPointExtension xmlns:gpxtpx="http://www.garmin.com/xmlschemas/TrackPointExtension/v1">
            <gpxtpx:hr>111</gpxtpx:hr>
          </gpxtpx:TrackPointExtension>
        </extensions>
      </trkpt>
      <trkpt lat="48.63018" lon="1.98324">
        <ele>110.8</ele>
        <time>2025-11-16T12:11:28Z</time>
        <extensions>
          <gpxtpx:TrackPointExtension xmlns:gpxtpx="http://www.garmin.com/xmlschemas/TrackPointExtension/v1">
            <gpxtpx:hr>111</gpxtpx:hr>
          </gpxtpx:TrackPointExtension>
        </extensions>
      </trkpt>
      <trkpt lat="48.63018" lon="1.98328">
        <ele>110.8</ele>
        <time>2025-11-16T12:11:30Z</time>
        <extensions>
          <gpxtpx:TrackPointExtension xmlns:gpxtpx="http://www.garmin.com/xmlschemas/TrackPointExtension/v1">
            <gpxtpx:hr>111</gpxtpx:hr>
          </gpxtpx:TrackPointExtension>
        </extensions>
      </trkpt>
      <trkpt lat="48.63017" lon="1.98333">
        <ele>110.6</ele>
        <time>2025-11-16T12:11:32Z</time>
        <extensions>
          <gpxtpx:TrackPointExtension xmlns:gpxtpx="http://www.garmin.com/xmlschemas/TrackPointExtension/v1">
            <gpxtpx:hr>111</gpxtpx:hr>
          </gpxtpx:TrackPointExtension>
        </extensions>
      </trkpt>
      <trkpt lat="48.63017" lon="1.98337">
        <ele>110.6</ele>
        <time>2025-11-16T12:11:34Z</time>
        <extensions>
          <gpxtpx:TrackPointExtension xmlns:gpxtpx="http://www.garmin.com/xmlschemas/TrackPointExtension/v1">
            <gpxtpx:hr>111</gpxtpx:hr>
          </gpxtpx:TrackPointExtension>
        </extensions>
      </trkpt>
      <trkpt lat="48.63018" lon="1.98342">
        <ele>110.4</ele>
        <time>2025-11-16T12:11:36Z</time>
        <extensions>
          <gpxtpx:TrackPointExtension xmlns:gpxtpx="http://www.garmin.com/xmlschemas/TrackPointExtension/v1">
            <gpxtpx:hr>111</gpxtpx:hr>
          </gpxtpx:TrackPointExtension>
        </extensions>
      </trkpt>
      <trkpt lat="48.63018" lon="1.98348">
        <ele>110.6</ele>
        <time>2025-11-16T12:11:38Z</time>
        <extensions>
          <gpxtpx:TrackPointExtension xmlns:gpxtpx="http://www.garmin.com/xmlschemas/TrackPointExtension/v1">
            <gpxtpx:hr>111</gpxtpx:hr>
          </gpxtpx:TrackPointExtension>
        </extensions>
      </trkpt>
      <trkpt lat="48.63019" lon="1.9835">
        <ele>110.6</ele>
        <time>2025-11-16T12:11:39Z</time>
        <extensions>
          <gpxtpx:TrackPointExtension xmlns:gpxtpx="http://www.garmin.com/xmlschemas/TrackPointExtension/v1">
            <gpxtpx:hr>111</gpxtpx:hr>
          </gpxtpx:TrackPointExtension>
        </extensions>
      </trkpt>
      <trkpt lat="48.63019" lon="1.98353">
        <ele>110.6</ele>
        <time>2025-11-16T12:11:40Z</time>
        <extensions>
          <gpxtpx:TrackPointExtension xmlns:gpxtpx="http://www.garmin.com/xmlschemas/TrackPointExtension/v1">
            <gpxtpx:hr>111</gpxtpx:hr>
          </gpxtpx:TrackPointExtension>
        </extensions>
      </trkpt>
      <trkpt lat="48.63019" lon="1.98356">
        <ele>110.4</ele>
        <time>2025-11-16T12:11:41Z</time>
        <extensions>
          <gpxtpx:TrackPointExtension xmlns:gpxtpx="http://www.garmin.com/xmlschemas/TrackPointExtension/v1">
            <gpxtpx:hr>111</gpxtpx:hr>
          </gpxtpx:TrackPointExtension>
        </extensions>
      </trkpt>
      <trkpt lat="48.6302" lon="1.98359">
        <ele>110.4</ele>
        <time>2025-11-16T12:11:42Z</time>
        <extensions>
          <gpxtpx:TrackPointExtension xmlns:gpxtpx="http://www.garmin.com/xmlschemas/TrackPointExtension/v1">
            <gpxtpx:hr>111</gpxtpx:hr>
          </gpxtpx:TrackPointExtension>
        </extensions>
      </trkpt>
      <trkpt lat="48.6302" lon="1.98364">
        <ele>110.4</ele>
        <time>2025-11-16T12:11:44Z</time>
        <extensions>
          <gpxtpx:TrackPointExtension xmlns:gpxtpx="http://www.garmin.com/xmlschemas/TrackPointExtension/v1">
            <gpxtpx:hr>111</gpxtpx:hr>
          </gpxtpx:TrackPointExtension>
        </extensions>
      </trkpt>
      <trkpt lat="48.6302" lon="1.98369">
        <ele>110.2</ele>
        <time>2025-11-16T12:11:46Z</time>
        <extensions>
          <gpxtpx:TrackPointExtension xmlns:gpxtpx="http://www.garmin.com/xmlschemas/TrackPointExtension/v1">
            <gpxtpx:hr>111</gpxtpx:hr>
          </gpxtpx:TrackPointExtension>
        </extensions>
      </trkpt>
      <trkpt lat="48.63021" lon="1.98373">
        <ele>110.2</ele>
        <time>2025-11-16T12:11:48Z</time>
        <extensions>
          <gpxtpx:TrackPointExtension xmlns:gpxtpx="http://www.garmin.com/xmlschemas/TrackPointExtension/v1">
            <gpxtpx:hr>111</gpxtpx:hr>
          </gpxtpx:TrackPointExtension>
        </extensions>
      </trkpt>
      <trkpt lat="48.63021" lon="1.98378">
        <ele>110</ele>
        <time>2025-11-16T12:11:50Z</time>
        <extensions>
          <gpxtpx:TrackPointExtension xmlns:gpxtpx="http://www.garmin.com/xmlschemas/TrackPointExtension/v1">
            <gpxtpx:hr>111</gpxtpx:hr>
          </gpxtpx:TrackPointExtension>
        </extensions>
      </trkpt>
      <trkpt lat="48.63021" lon="1.98382">
        <ele>110</ele>
        <time>2025-11-16T12:11:52Z</time>
        <extensions>
          <gpxtpx:TrackPointExtension xmlns:gpxtpx="http://www.garmin.com/xmlschemas/TrackPointExtension/v1">
            <gpxtpx:hr>111</gpxtpx:hr>
          </gpxtpx:TrackPointExtension>
        </extensions>
      </trkpt>
      <trkpt lat="48.63022" lon="1.98387">
        <ele>110</ele>
        <time>2025-11-16T12:11:54Z</time>
        <extensions>
          <gpxtpx:TrackPointExtension xmlns:gpxtpx="http://www.garmin.com/xmlschemas/TrackPointExtension/v1">
            <gpxtpx:hr>111</gpxtpx:hr>
          </gpxtpx:TrackPointExtension>
        </extensions>
      </trkpt>
      <trkpt lat="48.63023" lon="1.9839">
        <ele>109.8</ele>
        <time>2025-11-16T12:11:56Z</time>
        <extensions>
          <gpxtpx:TrackPointExtension xmlns:gpxtpx="http://www.garmin.com/xmlschemas/TrackPointExtension/v1">
            <gpxtpx:hr>110</gpxtpx:hr>
          </gpxtpx:TrackPointExtension>
        </extensions>
      </trkpt>
      <trkpt lat="48.63023" lon="1.98394">
        <ele>109.8</ele>
        <time>2025-11-16T12:11:58Z</time>
        <extensions>
          <gpxtpx:TrackPointExtension xmlns:gpxtpx="http://www.garmin.com/xmlschemas/TrackPointExtension/v1">
            <gpxtpx:hr>110</gpxtpx:hr>
          </gpxtpx:TrackPointExtension>
        </extensions>
      </trkpt>
      <trkpt lat="48.63024" lon="1.98396">
        <ele>109.8</ele>
        <time>2025-11-16T12:12:00Z</time>
        <extensions>
          <gpxtpx:TrackPointExtension xmlns:gpxtpx="http://www.garmin.com/xmlschemas/TrackPointExtension/v1">
            <gpxtpx:hr>110</gpxtpx:hr>
          </gpxtpx:TrackPointExtension>
        </extensions>
      </trkpt>
      <trkpt lat="48.63025" lon="1.98399">
        <ele>109.8</ele>
        <time>2025-11-16T12:12:02Z</time>
        <extensions>
          <gpxtpx:TrackPointExtension xmlns:gpxtpx="http://www.garmin.com/xmlschemas/TrackPointExtension/v1">
            <gpxtpx:hr>110</gpxtpx:hr>
          </gpxtpx:TrackPointExtension>
        </extensions>
      </trkpt>
      <trkpt lat="48.63025" lon="1.98403">
        <ele>109.8</ele>
        <time>2025-11-16T12:12:04Z</time>
        <extensions>
          <gpxtpx:TrackPointExtension xmlns:gpxtpx="http://www.garmin.com/xmlschemas/TrackPointExtension/v1">
            <gpxtpx:hr>111</gpxtpx:hr>
          </gpxtpx:TrackPointExtension>
        </extensions>
      </trkpt>
      <trkpt lat="48.63025" lon="1.98406">
        <ele>109.6</ele>
        <time>2025-11-16T12:12:06Z</time>
        <extensions>
          <gpxtpx:TrackPointExtension xmlns:gpxtpx="http://www.garmin.com/xmlschemas/TrackPointExtension/v1">
            <gpxtpx:hr>111</gpxtpx:hr>
          </gpxtpx:TrackPointExtension>
        </extensions>
      </trkpt>
      <trkpt lat="48.63026" lon="1.9841">
        <ele>109.6</ele>
        <time>2025-11-16T12:12:08Z</time>
        <extensions>
          <gpxtpx:TrackPointExtension xmlns:gpxtpx="http://www.garmin.com/xmlschemas/TrackPointExtension/v1">
            <gpxtpx:hr>111</gpxtpx:hr>
          </gpxtpx:TrackPointExtension>
        </extensions>
      </trkpt>
      <trkpt lat="48.63026" lon="1.98413">
        <ele>109.4</ele>
        <time>2025-11-16T12:12:10Z</time>
        <extensions>
          <gpxtpx:TrackPointExtension xmlns:gpxtpx="http://www.garmin.com/xmlschemas/TrackPointExtension/v1">
            <gpxtpx:hr>111</gpxtpx:hr>
          </gpxtpx:TrackPointExtension>
        </extensions>
      </trkpt>
      <trkpt lat="48.63026" lon="1.98416">
        <ele>109.2</ele>
        <time>2025-11-16T12:12:12Z</time>
        <extensions>
          <gpxtpx:TrackPointExtension xmlns:gpxtpx="http://www.garmin.com/xmlschemas/TrackPointExtension/v1">
            <gpxtpx:hr>111</gpxtpx:hr>
          </gpxtpx:TrackPointExtension>
        </extensions>
      </trkpt>
      <trkpt lat="48.63026" lon="1.98419">
        <ele>109.2</ele>
        <time>2025-11-16T12:12:14Z</time>
        <extensions>
          <gpxtpx:TrackPointExtension xmlns:gpxtpx="http://www.garmin.com/xmlschemas/TrackPointExtension/v1">
            <gpxtpx:hr>110</gpxtpx:hr>
          </gpxtpx:TrackPointExtension>
        </extensions>
      </trkpt>
      <trkpt lat="48.63026" lon="1.98423">
        <ele>109</ele>
        <time>2025-11-16T12:12:16Z</time>
        <extensions>
          <gpxtpx:TrackPointExtension xmlns:gpxtpx="http://www.garmin.com/xmlschemas/TrackPointExtension/v1">
            <gpxtpx:hr>110</gpxtpx:hr>
          </gpxtpx:TrackPointExtension>
        </extensions>
      </trkpt>
      <trkpt lat="48.63027" lon="1.98426">
        <ele>109</ele>
        <time>2025-11-16T12:12:18Z</time>
        <extensions>
          <gpxtpx:TrackPointExtension xmlns:gpxtpx="http://www.garmin.com/xmlschemas/TrackPointExtension/v1">
            <gpxtpx:hr>110</gpxtpx:hr>
          </gpxtpx:TrackPointExtension>
        </extensions>
      </trkpt>
      <trkpt lat="48.63026" lon="1.98429">
        <ele>109</ele>
        <time>2025-11-16T12:12:21Z</time>
        <extensions>
          <gpxtpx:TrackPointExtension xmlns:gpxtpx="http://www.garmin.com/xmlschemas/TrackPointExtension/v1">
            <gpxtpx:hr>110</gpxtpx:hr>
          </gpxtpx:TrackPointExtension>
        </extensions>
      </trkpt>
      <trkpt lat="48.63027" lon="1.98431">
        <ele>108.6</ele>
        <time>2025-11-16T12:13:03Z</time>
        <extensions>
          <gpxtpx:TrackPointExtension xmlns:gpxtpx="http://www.garmin.com/xmlschemas/TrackPointExtension/v1">
            <gpxtpx:hr>100</gpxtpx:hr>
          </gpxtpx:TrackPointExtension>
        </extensions>
      </trkpt>
      <trkpt lat="48.63028" lon="1.98434">
        <ele>108.6</ele>
        <time>2025-11-16T12:13:09Z</time>
        <extensions>
          <gpxtpx:TrackPointExtension xmlns:gpxtpx="http://www.garmin.com/xmlschemas/TrackPointExtension/v1">
            <gpxtpx:hr>99</gpxtpx:hr>
          </gpxtpx:TrackPointExtension>
        </extensions>
      </trkpt>
      <trkpt lat="48.63029" lon="1.98437">
        <ele>108.6</ele>
        <time>2025-11-16T12:13:12Z</time>
        <extensions>
          <gpxtpx:TrackPointExtension xmlns:gpxtpx="http://www.garmin.com/xmlschemas/TrackPointExtension/v1">
            <gpxtpx:hr>98</gpxtpx:hr>
          </gpxtpx:TrackPointExtension>
        </extensions>
      </trkpt>
      <trkpt lat="48.6303" lon="1.9844">
        <ele>108.6</ele>
        <time>2025-11-16T12:13:16Z</time>
        <extensions>
          <gpxtpx:TrackPointExtension xmlns:gpxtpx="http://www.garmin.com/xmlschemas/TrackPointExtension/v1">
            <gpxtpx:hr>98</gpxtpx:hr>
          </gpxtpx:TrackPointExtension>
        </extensions>
      </trkpt>
      <trkpt lat="48.6303" lon="1.98443">
        <ele>108.8</ele>
        <time>2025-11-16T12:13:39Z</time>
        <extensions>
          <gpxtpx:TrackPointExtension xmlns:gpxtpx="http://www.garmin.com/xmlschemas/TrackPointExtension/v1">
            <gpxtpx:hr>97</gpxtpx:hr>
          </gpxtpx:TrackPointExtension>
        </extensions>
      </trkpt>
      <trkpt lat="48.6303" lon="1.98446">
        <ele>109</ele>
        <time>2025-11-16T12:13:42Z</time>
        <extensions>
          <gpxtpx:TrackPointExtension xmlns:gpxtpx="http://www.garmin.com/xmlschemas/TrackPointExtension/v1">
            <gpxtpx:hr>97</gpxtpx:hr>
          </gpxtpx:TrackPointExtension>
        </extensions>
      </trkpt>
      <trkpt lat="48.63031" lon="1.98451">
        <ele>109</ele>
        <time>2025-11-16T12:13:44Z</time>
        <extensions>
          <gpxtpx:TrackPointExtension xmlns:gpxtpx="http://www.garmin.com/xmlschemas/TrackPointExtension/v1">
            <gpxtpx:hr>97</gpxtpx:hr>
          </gpxtpx:TrackPointExtension>
        </extensions>
      </trkpt>
      <trkpt lat="48.63031" lon="1.98454">
        <ele>109.2</ele>
        <time>2025-11-16T12:13:45Z</time>
        <extensions>
          <gpxtpx:TrackPointExtension xmlns:gpxtpx="http://www.garmin.com/xmlschemas/TrackPointExtension/v1">
            <gpxtpx:hr>97</gpxtpx:hr>
          </gpxtpx:TrackPointExtension>
        </extensions>
      </trkpt>
      <trkpt lat="48.63031" lon="1.98457">
        <ele>109.2</ele>
        <time>2025-11-16T12:13:46Z</time>
        <extensions>
          <gpxtpx:TrackPointExtension xmlns:gpxtpx="http://www.garmin.com/xmlschemas/TrackPointExtension/v1">
            <gpxtpx:hr>98</gpxtpx:hr>
          </gpxtpx:TrackPointExtension>
        </extensions>
      </trkpt>
      <trkpt lat="48.63031" lon="1.9846">
        <ele>109.2</ele>
        <time>2025-11-16T12:13:47Z</time>
        <extensions>
          <gpxtpx:TrackPointExtension xmlns:gpxtpx="http://www.garmin.com/xmlschemas/TrackPointExtension/v1">
            <gpxtpx:hr>98</gpxtpx:hr>
          </gpxtpx:TrackPointExtension>
        </extensions>
      </trkpt>
      <trkpt lat="48.63031" lon="1.98463">
        <ele>109.4</ele>
        <time>2025-11-16T12:13:48Z</time>
        <extensions>
          <gpxtpx:TrackPointExtension xmlns:gpxtpx="http://www.garmin.com/xmlschemas/TrackPointExtension/v1">
            <gpxtpx:hr>98</gpxtpx:hr>
          </gpxtpx:TrackPointExtension>
        </extensions>
      </trkpt>
      <trkpt lat="48.63031" lon="1.98467">
        <ele>109.4</ele>
        <time>2025-11-16T12:13:49Z</time>
        <extensions>
          <gpxtpx:TrackPointExtension xmlns:gpxtpx="http://www.garmin.com/xmlschemas/TrackPointExtension/v1">
            <gpxtpx:hr>98</gpxtpx:hr>
          </gpxtpx:TrackPointExtension>
        </extensions>
      </trkpt>
      <trkpt lat="48.63031" lon="1.9847">
        <ele>109.6</ele>
        <time>2025-11-16T12:13:50Z</time>
        <extensions>
          <gpxtpx:TrackPointExtension xmlns:gpxtpx="http://www.garmin.com/xmlschemas/TrackPointExtension/v1">
            <gpxtpx:hr>99</gpxtpx:hr>
          </gpxtpx:TrackPointExtension>
        </extensions>
      </trkpt>
      <trkpt lat="48.63031" lon="1.98473">
        <ele>109.6</ele>
        <time>2025-11-16T12:13:51Z</time>
        <extensions>
          <gpxtpx:TrackPointExtension xmlns:gpxtpx="http://www.garmin.com/xmlschemas/TrackPointExtension/v1">
            <gpxtpx:hr>99</gpxtpx:hr>
          </gpxtpx:TrackPointExtension>
        </extensions>
      </trkpt>
      <trkpt lat="48.63031" lon="1.98476">
        <ele>109.6</ele>
        <time>2025-11-16T12:13:52Z</time>
        <extensions>
          <gpxtpx:TrackPointExtension xmlns:gpxtpx="http://www.garmin.com/xmlschemas/TrackPointExtension/v1">
            <gpxtpx:hr>100</gpxtpx:hr>
          </gpxtpx:TrackPointExtension>
        </extensions>
      </trkpt>
      <trkpt lat="48.63031" lon="1.98481">
        <ele>109.8</ele>
        <time>2025-11-16T12:13:54Z</time>
        <extensions>
          <gpxtpx:TrackPointExtension xmlns:gpxtpx="http://www.garmin.com/xmlschemas/TrackPointExtension/v1">
            <gpxtpx:hr>100</gpxtpx:hr>
          </gpxtpx:TrackPointExtension>
        </extensions>
      </trkpt>
      <trkpt lat="48.63031" lon="1.98486">
        <ele>109.8</ele>
        <time>2025-11-16T12:13:56Z</time>
        <extensions>
          <gpxtpx:TrackPointExtension xmlns:gpxtpx="http://www.garmin.com/xmlschemas/TrackPointExtension/v1">
            <gpxtpx:hr>100</gpxtpx:hr>
          </gpxtpx:TrackPointExtension>
        </extensions>
      </trkpt>
      <trkpt lat="48.63031" lon="1.9849">
        <ele>110</ele>
        <time>2025-11-16T12:13:58Z</time>
        <extensions>
          <gpxtpx:TrackPointExtension xmlns:gpxtpx="http://www.garmin.com/xmlschemas/TrackPointExtension/v1">
            <gpxtpx:hr>100</gpxtpx:hr>
          </gpxtpx:TrackPointExtension>
        </extensions>
      </trkpt>
      <trkpt lat="48.6303" lon="1.98495">
        <ele>110.2</ele>
        <time>2025-11-16T12:14:00Z</time>
        <extensions>
          <gpxtpx:TrackPointExtension xmlns:gpxtpx="http://www.garmin.com/xmlschemas/TrackPointExtension/v1">
            <gpxtpx:hr>101</gpxtpx:hr>
          </gpxtpx:TrackPointExtension>
        </extensions>
      </trkpt>
      <trkpt lat="48.63029" lon="1.985">
        <ele>110.6</ele>
        <time>2025-11-16T12:14:02Z</time>
        <extensions>
          <gpxtpx:TrackPointExtension xmlns:gpxtpx="http://www.garmin.com/xmlschemas/TrackPointExtension/v1">
            <gpxtpx:hr>101</gpxtpx:hr>
          </gpxtpx:TrackPointExtension>
        </extensions>
      </trkpt>
      <trkpt lat="48.63029" lon="1.98505">
        <ele>110.8</ele>
        <time>2025-11-16T12:14:04Z</time>
        <extensions>
          <gpxtpx:TrackPointExtension xmlns:gpxtpx="http://www.garmin.com/xmlschemas/TrackPointExtension/v1">
            <gpxtpx:hr>101</gpxtpx:hr>
          </gpxtpx:TrackPointExtension>
        </extensions>
      </trkpt>
      <trkpt lat="48.63029" lon="1.9851">
        <ele>110.8</ele>
        <time>2025-11-16T12:14:06Z</time>
        <extensions>
          <gpxtpx:TrackPointExtension xmlns:gpxtpx="http://www.garmin.com/xmlschemas/TrackPointExtension/v1">
            <gpxtpx:hr>101</gpxtpx:hr>
          </gpxtpx:TrackPointExtension>
        </extensions>
      </trkpt>
      <trkpt lat="48.63028" lon="1.98515">
        <ele>110.8</ele>
        <time>2025-11-16T12:14:08Z</time>
        <extensions>
          <gpxtpx:TrackPointExtension xmlns:gpxtpx="http://www.garmin.com/xmlschemas/TrackPointExtension/v1">
            <gpxtpx:hr>102</gpxtpx:hr>
          </gpxtpx:TrackPointExtension>
        </extensions>
      </trkpt>
      <trkpt lat="48.63027" lon="1.9852">
        <ele>111</ele>
        <time>2025-11-16T12:14:10Z</time>
        <extensions>
          <gpxtpx:TrackPointExtension xmlns:gpxtpx="http://www.garmin.com/xmlschemas/TrackPointExtension/v1">
            <gpxtpx:hr>102</gpxtpx:hr>
          </gpxtpx:TrackPointExtension>
        </extensions>
      </trkpt>
      <trkpt lat="48.63026" lon="1.98524">
        <ele>111</ele>
        <time>2025-11-16T12:14:12Z</time>
        <extensions>
          <gpxtpx:TrackPointExtension xmlns:gpxtpx="http://www.garmin.com/xmlschemas/TrackPointExtension/v1">
            <gpxtpx:hr>102</gpxtpx:hr>
          </gpxtpx:TrackPointExtension>
        </extensions>
      </trkpt>
      <trkpt lat="48.63025" lon="1.98528">
        <ele>111</ele>
        <time>2025-11-16T12:14:14Z</time>
        <extensions>
          <gpxtpx:TrackPointExtension xmlns:gpxtpx="http://www.garmin.com/xmlschemas/TrackPointExtension/v1">
            <gpxtpx:hr>102</gpxtpx:hr>
          </gpxtpx:TrackPointExtension>
        </extensions>
      </trkpt>
      <trkpt lat="48.63025" lon="1.98531">
        <ele>111</ele>
        <time>2025-11-16T12:14:16Z</time>
        <extensions>
          <gpxtpx:TrackPointExtension xmlns:gpxtpx="http://www.garmin.com/xmlschemas/TrackPointExtension/v1">
            <gpxtpx:hr>102</gpxtpx:hr>
          </gpxtpx:TrackPointExtension>
        </extensions>
      </trkpt>
      <trkpt lat="48.63024" lon="1.98535">
        <ele>111</ele>
        <time>2025-11-16T12:14:18Z</time>
        <extensions>
          <gpxtpx:TrackPointExtension xmlns:gpxtpx="http://www.garmin.com/xmlschemas/TrackPointExtension/v1">
            <gpxtpx:hr>102</gpxtpx:hr>
          </gpxtpx:TrackPointExtension>
        </extensions>
      </trkpt>
      <trkpt lat="48.63023" lon="1.98538">
        <ele>111</ele>
        <time>2025-11-16T12:14:20Z</time>
        <extensions>
          <gpxtpx:TrackPointExtension xmlns:gpxtpx="http://www.garmin.com/xmlschemas/TrackPointExtension/v1">
            <gpxtpx:hr>102</gpxtpx:hr>
          </gpxtpx:TrackPointExtension>
        </extensions>
      </trkpt>
      <trkpt lat="48.63023" lon="1.98542">
        <ele>111</ele>
        <time>2025-11-16T12:14:22Z</time>
        <extensions>
          <gpxtpx:TrackPointExtension xmlns:gpxtpx="http://www.garmin.com/xmlschemas/TrackPointExtension/v1">
            <gpxtpx:hr>102</gpxtpx:hr>
          </gpxtpx:TrackPointExtension>
        </extensions>
      </trkpt>
      <trkpt lat="48.63021" lon="1.98546">
        <ele>110.8</ele>
        <time>2025-11-16T12:14:24Z</time>
        <extensions>
          <gpxtpx:TrackPointExtension xmlns:gpxtpx="http://www.garmin.com/xmlschemas/TrackPointExtension/v1">
            <gpxtpx:hr>102</gpxtpx:hr>
          </gpxtpx:TrackPointExtension>
        </extensions>
      </trkpt>
      <trkpt lat="48.63021" lon="1.9855">
        <ele>110.8</ele>
        <time>2025-11-16T12:14:26Z</time>
        <extensions>
          <gpxtpx:TrackPointExtension xmlns:gpxtpx="http://www.garmin.com/xmlschemas/TrackPointExtension/v1">
            <gpxtpx:hr>102</gpxtpx:hr>
          </gpxtpx:TrackPointExtension>
        </extensions>
      </trkpt>
      <trkpt lat="48.6302" lon="1.98554">
        <ele>110.8</ele>
        <time>2025-11-16T12:14:28Z</time>
        <extensions>
          <gpxtpx:TrackPointExtension xmlns:gpxtpx="http://www.garmin.com/xmlschemas/TrackPointExtension/v1">
            <gpxtpx:hr>102</gpxtpx:hr>
          </gpxtpx:TrackPointExtension>
        </extensions>
      </trkpt>
      <trkpt lat="48.6302" lon="1.98557">
        <ele>111</ele>
        <time>2025-11-16T12:14:30Z</time>
        <extensions>
          <gpxtpx:TrackPointExtension xmlns:gpxtpx="http://www.garmin.com/xmlschemas/TrackPointExtension/v1">
            <gpxtpx:hr>103</gpxtpx:hr>
          </gpxtpx:TrackPointExtension>
        </extensions>
      </trkpt>
      <trkpt lat="48.63019" lon="1.98561">
        <ele>111</ele>
        <time>2025-11-16T12:14:32Z</time>
        <extensions>
          <gpxtpx:TrackPointExtension xmlns:gpxtpx="http://www.garmin.com/xmlschemas/TrackPointExtension/v1">
            <gpxtpx:hr>103</gpxtpx:hr>
          </gpxtpx:TrackPointExtension>
        </extensions>
      </trkpt>
      <trkpt lat="48.63018" lon="1.98565">
        <ele>111</ele>
        <time>2025-11-16T12:14:34Z</time>
        <extensions>
          <gpxtpx:TrackPointExtension xmlns:gpxtpx="http://www.garmin.com/xmlschemas/TrackPointExtension/v1">
            <gpxtpx:hr>103</gpxtpx:hr>
          </gpxtpx:TrackPointExtension>
        </extensions>
      </trkpt>
      <trkpt lat="48.63017" lon="1.98569">
        <ele>111</ele>
        <time>2025-11-16T12:14:36Z</time>
        <extensions>
          <gpxtpx:TrackPointExtension xmlns:gpxtpx="http://www.garmin.com/xmlschemas/TrackPointExtension/v1">
            <gpxtpx:hr>104</gpxtpx:hr>
          </gpxtpx:TrackPointExtension>
        </extensions>
      </trkpt>
      <trkpt lat="48.63015" lon="1.98574">
        <ele>111</ele>
        <time>2025-11-16T12:14:38Z</time>
        <extensions>
          <gpxtpx:TrackPointExtension xmlns:gpxtpx="http://www.garmin.com/xmlschemas/TrackPointExtension/v1">
            <gpxtpx:hr>104</gpxtpx:hr>
          </gpxtpx:TrackPointExtension>
        </extensions>
      </trkpt>
      <trkpt lat="48.63015" lon="1.98577">
        <ele>111</ele>
        <time>2025-11-16T12:14:39Z</time>
        <extensions>
          <gpxtpx:TrackPointExtension xmlns:gpxtpx="http://www.garmin.com/xmlschemas/TrackPointExtension/v1">
            <gpxtpx:hr>104</gpxtpx:hr>
          </gpxtpx:TrackPointExtension>
        </extensions>
      </trkpt>
      <trkpt lat="48.63015" lon="1.9858">
        <ele>111</ele>
        <time>2025-11-16T12:14:40Z</time>
        <extensions>
          <gpxtpx:TrackPointExtension xmlns:gpxtpx="http://www.garmin.com/xmlschemas/TrackPointExtension/v1">
            <gpxtpx:hr>104</gpxtpx:hr>
          </gpxtpx:TrackPointExtension>
        </extensions>
      </trkpt>
      <trkpt lat="48.63014" lon="1.98583">
        <ele>111.2</ele>
        <time>2025-11-16T12:14:41Z</time>
        <extensions>
          <gpxtpx:TrackPointExtension xmlns:gpxtpx="http://www.garmin.com/xmlschemas/TrackPointExtension/v1">
            <gpxtpx:hr>104</gpxtpx:hr>
          </gpxtpx:TrackPointExtension>
        </extensions>
      </trkpt>
      <trkpt lat="48.63014" lon="1.98586">
        <ele>111.2</ele>
        <time>2025-11-16T12:14:42Z</time>
        <extensions>
          <gpxtpx:TrackPointExtension xmlns:gpxtpx="http://www.garmin.com/xmlschemas/TrackPointExtension/v1">
            <gpxtpx:hr>104</gpxtpx:hr>
          </gpxtpx:TrackPointExtension>
        </extensions>
      </trkpt>
      <trkpt lat="48.63013" lon="1.98588">
        <ele>111.2</ele>
        <time>2025-11-16T12:14:43Z</time>
        <extensions>
          <gpxtpx:TrackPointExtension xmlns:gpxtpx="http://www.garmin.com/xmlschemas/TrackPointExtension/v1">
            <gpxtpx:hr>104</gpxtpx:hr>
          </gpxtpx:TrackPointExtension>
        </extensions>
      </trkpt>
      <trkpt lat="48.63012" lon="1.98591">
        <ele>111.2</ele>
        <time>2025-11-16T12:14:44Z</time>
        <extensions>
          <gpxtpx:TrackPointExtension xmlns:gpxtpx="http://www.garmin.com/xmlschemas/TrackPointExtension/v1">
            <gpxtpx:hr>104</gpxtpx:hr>
          </gpxtpx:TrackPointExtension>
        </extensions>
      </trkpt>
      <trkpt lat="48.63012" lon="1.98594">
        <ele>111.2</ele>
        <time>2025-11-16T12:14:45Z</time>
        <extensions>
          <gpxtpx:TrackPointExtension xmlns:gpxtpx="http://www.garmin.com/xmlschemas/TrackPointExtension/v1">
            <gpxtpx:hr>104</gpxtpx:hr>
          </gpxtpx:TrackPointExtension>
        </extensions>
      </trkpt>
      <trkpt lat="48.63011" lon="1.98597">
        <ele>111.4</ele>
        <time>2025-11-16T12:14:46Z</time>
        <extensions>
          <gpxtpx:TrackPointExtension xmlns:gpxtpx="http://www.garmin.com/xmlschemas/TrackPointExtension/v1">
            <gpxtpx:hr>104</gpxtpx:hr>
          </gpxtpx:TrackPointExtension>
        </extensions>
      </trkpt>
      <trkpt lat="48.63011" lon="1.98599">
        <ele>111.4</ele>
        <time>2025-11-16T12:14:47Z</time>
        <extensions>
          <gpxtpx:TrackPointExtension xmlns:gpxtpx="http://www.garmin.com/xmlschemas/TrackPointExtension/v1">
            <gpxtpx:hr>104</gpxtpx:hr>
          </gpxtpx:TrackPointExtension>
        </extensions>
      </trkpt>
      <trkpt lat="48.6301" lon="1.98602">
        <ele>111.4</ele>
        <time>2025-11-16T12:14:48Z</time>
        <extensions>
          <gpxtpx:TrackPointExtension xmlns:gpxtpx="http://www.garmin.com/xmlschemas/TrackPointExtension/v1">
            <gpxtpx:hr>104</gpxtpx:hr>
          </gpxtpx:TrackPointExtension>
        </extensions>
      </trkpt>
      <trkpt lat="48.63009" lon="1.98607">
        <ele>111.4</ele>
        <time>2025-11-16T12:14:50Z</time>
        <extensions>
          <gpxtpx:TrackPointExtension xmlns:gpxtpx="http://www.garmin.com/xmlschemas/TrackPointExtension/v1">
            <gpxtpx:hr>104</gpxtpx:hr>
          </gpxtpx:TrackPointExtension>
        </extensions>
      </trkpt>
      <trkpt lat="48.63008" lon="1.9861">
        <ele>111.4</ele>
        <time>2025-11-16T12:14:51Z</time>
        <extensions>
          <gpxtpx:TrackPointExtension xmlns:gpxtpx="http://www.garmin.com/xmlschemas/TrackPointExtension/v1">
            <gpxtpx:hr>104</gpxtpx:hr>
          </gpxtpx:TrackPointExtension>
        </extensions>
      </trkpt>
      <trkpt lat="48.63007" lon="1.98613">
        <ele>111.4</ele>
        <time>2025-11-16T12:14:52Z</time>
        <extensions>
          <gpxtpx:TrackPointExtension xmlns:gpxtpx="http://www.garmin.com/xmlschemas/TrackPointExtension/v1">
            <gpxtpx:hr>104</gpxtpx:hr>
          </gpxtpx:TrackPointExtension>
        </extensions>
      </trkpt>
      <trkpt lat="48.63007" lon="1.98616">
        <ele>111.4</ele>
        <time>2025-11-16T12:14:53Z</time>
        <extensions>
          <gpxtpx:TrackPointExtension xmlns:gpxtpx="http://www.garmin.com/xmlschemas/TrackPointExtension/v1">
            <gpxtpx:hr>104</gpxtpx:hr>
          </gpxtpx:TrackPointExtension>
        </extensions>
      </trkpt>
      <trkpt lat="48.63006" lon="1.98619">
        <ele>111.4</ele>
        <time>2025-11-16T12:14:54Z</time>
        <extensions>
          <gpxtpx:TrackPointExtension xmlns:gpxtpx="http://www.garmin.com/xmlschemas/TrackPointExtension/v1">
            <gpxtpx:hr>104</gpxtpx:hr>
          </gpxtpx:TrackPointExtension>
        </extensions>
      </trkpt>
      <trkpt lat="48.63005" lon="1.98622">
        <ele>111.4</ele>
        <time>2025-11-16T12:14:55Z</time>
        <extensions>
          <gpxtpx:TrackPointExtension xmlns:gpxtpx="http://www.garmin.com/xmlschemas/TrackPointExtension/v1">
            <gpxtpx:hr>104</gpxtpx:hr>
          </gpxtpx:TrackPointExtension>
        </extensions>
      </trkpt>
      <trkpt lat="48.63005" lon="1.98625">
        <ele>111.2</ele>
        <time>2025-11-16T12:14:56Z</time>
        <extensions>
          <gpxtpx:TrackPointExtension xmlns:gpxtpx="http://www.garmin.com/xmlschemas/TrackPointExtension/v1">
            <gpxtpx:hr>104</gpxtpx:hr>
          </gpxtpx:TrackPointExtension>
        </extensions>
      </trkpt>
      <trkpt lat="48.63004" lon="1.98628">
        <ele>111.2</ele>
        <time>2025-11-16T12:14:57Z</time>
        <extensions>
          <gpxtpx:TrackPointExtension xmlns:gpxtpx="http://www.garmin.com/xmlschemas/TrackPointExtension/v1">
            <gpxtpx:hr>104</gpxtpx:hr>
          </gpxtpx:TrackPointExtension>
        </extensions>
      </trkpt>
      <trkpt lat="48.63003" lon="1.9863">
        <ele>111.2</ele>
        <time>2025-11-16T12:14:58Z</time>
        <extensions>
          <gpxtpx:TrackPointExtension xmlns:gpxtpx="http://www.garmin.com/xmlschemas/TrackPointExtension/v1">
            <gpxtpx:hr>104</gpxtpx:hr>
          </gpxtpx:TrackPointExtension>
        </extensions>
      </trkpt>
      <trkpt lat="48.63002" lon="1.98635">
        <ele>111</ele>
        <time>2025-11-16T12:15:00Z</time>
        <extensions>
          <gpxtpx:TrackPointExtension xmlns:gpxtpx="http://www.garmin.com/xmlschemas/TrackPointExtension/v1">
            <gpxtpx:hr>104</gpxtpx:hr>
          </gpxtpx:TrackPointExtension>
        </extensions>
      </trkpt>
      <trkpt lat="48.63001" lon="1.9864">
        <ele>110.8</ele>
        <time>2025-11-16T12:15:02Z</time>
        <extensions>
          <gpxtpx:TrackPointExtension xmlns:gpxtpx="http://www.garmin.com/xmlschemas/TrackPointExtension/v1">
            <gpxtpx:hr>104</gpxtpx:hr>
          </gpxtpx:TrackPointExtension>
        </extensions>
      </trkpt>
      <trkpt lat="48.62999" lon="1.98644">
        <ele>110.8</ele>
        <time>2025-11-16T12:15:04Z</time>
        <extensions>
          <gpxtpx:TrackPointExtension xmlns:gpxtpx="http://www.garmin.com/xmlschemas/TrackPointExtension/v1">
            <gpxtpx:hr>104</gpxtpx:hr>
          </gpxtpx:TrackPointExtension>
        </extensions>
      </trkpt>
      <trkpt lat="48.62998" lon="1.98648">
        <ele>110.8</ele>
        <time>2025-11-16T12:15:06Z</time>
        <extensions>
          <gpxtpx:TrackPointExtension xmlns:gpxtpx="http://www.garmin.com/xmlschemas/TrackPointExtension/v1">
            <gpxtpx:hr>104</gpxtpx:hr>
          </gpxtpx:TrackPointExtension>
        </extensions>
      </trkpt>
      <trkpt lat="48.62997" lon="1.98652">
        <ele>110.8</ele>
        <time>2025-11-16T12:15:08Z</time>
        <extensions>
          <gpxtpx:TrackPointExtension xmlns:gpxtpx="http://www.garmin.com/xmlschemas/TrackPointExtension/v1">
            <gpxtpx:hr>104</gpxtpx:hr>
          </gpxtpx:TrackPointExtension>
        </extensions>
      </trkpt>
      <trkpt lat="48.62995" lon="1.98656">
        <ele>110.8</ele>
        <time>2025-11-16T12:15:10Z</time>
        <extensions>
          <gpxtpx:TrackPointExtension xmlns:gpxtpx="http://www.garmin.com/xmlschemas/TrackPointExtension/v1">
            <gpxtpx:hr>104</gpxtpx:hr>
          </gpxtpx:TrackPointExtension>
        </extensions>
      </trkpt>
      <trkpt lat="48.62994" lon="1.98659">
        <ele>110.8</ele>
        <time>2025-11-16T12:15:11Z</time>
        <extensions>
          <gpxtpx:TrackPointExtension xmlns:gpxtpx="http://www.garmin.com/xmlschemas/TrackPointExtension/v1">
            <gpxtpx:hr>104</gpxtpx:hr>
          </gpxtpx:TrackPointExtension>
        </extensions>
      </trkpt>
      <trkpt lat="48.62992" lon="1.98664">
        <ele>110.8</ele>
        <time>2025-11-16T12:15:13Z</time>
        <extensions>
          <gpxtpx:TrackPointExtension xmlns:gpxtpx="http://www.garmin.com/xmlschemas/TrackPointExtension/v1">
            <gpxtpx:hr>105</gpxtpx:hr>
          </gpxtpx:TrackPointExtension>
        </extensions>
      </trkpt>
      <trkpt lat="48.62991" lon="1.98669">
        <ele>110.6</ele>
        <time>2025-11-16T12:15:15Z</time>
        <extensions>
          <gpxtpx:TrackPointExtension xmlns:gpxtpx="http://www.garmin.com/xmlschemas/TrackPointExtension/v1">
            <gpxtpx:hr>105</gpxtpx:hr>
          </gpxtpx:TrackPointExtension>
        </extensions>
      </trkpt>
      <trkpt lat="48.6299" lon="1.98671">
        <ele>110.6</ele>
        <time>2025-11-16T12:15:16Z</time>
        <extensions>
          <gpxtpx:TrackPointExtension xmlns:gpxtpx="http://www.garmin.com/xmlschemas/TrackPointExtension/v1">
            <gpxtpx:hr>105</gpxtpx:hr>
          </gpxtpx:TrackPointExtension>
        </extensions>
      </trkpt>
      <trkpt lat="48.62989" lon="1.98674">
        <ele>110.4</ele>
        <time>2025-11-16T12:15:17Z</time>
        <extensions>
          <gpxtpx:TrackPointExtension xmlns:gpxtpx="http://www.garmin.com/xmlschemas/TrackPointExtension/v1">
            <gpxtpx:hr>105</gpxtpx:hr>
          </gpxtpx:TrackPointExtension>
        </extensions>
      </trkpt>
      <trkpt lat="48.62988" lon="1.98676">
        <ele>110.4</ele>
        <time>2025-11-16T12:15:18Z</time>
        <extensions>
          <gpxtpx:TrackPointExtension xmlns:gpxtpx="http://www.garmin.com/xmlschemas/TrackPointExtension/v1">
            <gpxtpx:hr>106</gpxtpx:hr>
          </gpxtpx:TrackPointExtension>
        </extensions>
      </trkpt>
      <trkpt lat="48.62986" lon="1.98678">
        <ele>110.4</ele>
        <time>2025-11-16T12:15:19Z</time>
        <extensions>
          <gpxtpx:TrackPointExtension xmlns:gpxtpx="http://www.garmin.com/xmlschemas/TrackPointExtension/v1">
            <gpxtpx:hr>106</gpxtpx:hr>
          </gpxtpx:TrackPointExtension>
        </extensions>
      </trkpt>
      <trkpt lat="48.62984" lon="1.98683">
        <ele>110.2</ele>
        <time>2025-11-16T12:15:21Z</time>
        <extensions>
          <gpxtpx:TrackPointExtension xmlns:gpxtpx="http://www.garmin.com/xmlschemas/TrackPointExtension/v1">
            <gpxtpx:hr>105</gpxtpx:hr>
          </gpxtpx:TrackPointExtension>
        </extensions>
      </trkpt>
      <trkpt lat="48.62982" lon="1.98686">
        <ele>110</ele>
        <time>2025-11-16T12:15:23Z</time>
        <extensions>
          <gpxtpx:TrackPointExtension xmlns:gpxtpx="http://www.garmin.com/xmlschemas/TrackPointExtension/v1">
            <gpxtpx:hr>106</gpxtpx:hr>
          </gpxtpx:TrackPointExtension>
        </extensions>
      </trkpt>
      <trkpt lat="48.62981" lon="1.98691">
        <ele>110</ele>
        <time>2025-11-16T12:15:25Z</time>
        <extensions>
          <gpxtpx:TrackPointExtension xmlns:gpxtpx="http://www.garmin.com/xmlschemas/TrackPointExtension/v1">
            <gpxtpx:hr>106</gpxtpx:hr>
          </gpxtpx:TrackPointExtension>
        </extensions>
      </trkpt>
      <trkpt lat="48.6298" lon="1.98695">
        <ele>110</ele>
        <time>2025-11-16T12:15:27Z</time>
        <extensions>
          <gpxtpx:TrackPointExtension xmlns:gpxtpx="http://www.garmin.com/xmlschemas/TrackPointExtension/v1">
            <gpxtpx:hr>106</gpxtpx:hr>
          </gpxtpx:TrackPointExtension>
        </extensions>
      </trkpt>
      <trkpt lat="48.62979" lon="1.98699">
        <ele>109.8</ele>
        <time>2025-11-16T12:15:29Z</time>
        <extensions>
          <gpxtpx:TrackPointExtension xmlns:gpxtpx="http://www.garmin.com/xmlschemas/TrackPointExtension/v1">
            <gpxtpx:hr>106</gpxtpx:hr>
          </gpxtpx:TrackPointExtension>
        </extensions>
      </trkpt>
      <trkpt lat="48.62978" lon="1.98703">
        <ele>109.8</ele>
        <time>2025-11-16T12:15:31Z</time>
        <extensions>
          <gpxtpx:TrackPointExtension xmlns:gpxtpx="http://www.garmin.com/xmlschemas/TrackPointExtension/v1">
            <gpxtpx:hr>106</gpxtpx:hr>
          </gpxtpx:TrackPointExtension>
        </extensions>
      </trkpt>
      <trkpt lat="48.62976" lon="1.98707">
        <ele>109.6</ele>
        <time>2025-11-16T12:15:33Z</time>
        <extensions>
          <gpxtpx:TrackPointExtension xmlns:gpxtpx="http://www.garmin.com/xmlschemas/TrackPointExtension/v1">
            <gpxtpx:hr>106</gpxtpx:hr>
          </gpxtpx:TrackPointExtension>
        </extensions>
      </trkpt>
      <trkpt lat="48.62975" lon="1.9871">
        <ele>109.6</ele>
        <time>2025-11-16T12:15:35Z</time>
        <extensions>
          <gpxtpx:TrackPointExtension xmlns:gpxtpx="http://www.garmin.com/xmlschemas/TrackPointExtension/v1">
            <gpxtpx:hr>106</gpxtpx:hr>
          </gpxtpx:TrackPointExtension>
        </extensions>
      </trkpt>
      <trkpt lat="48.62974" lon="1.98714">
        <ele>109.4</ele>
        <time>2025-11-16T12:15:37Z</time>
        <extensions>
          <gpxtpx:TrackPointExtension xmlns:gpxtpx="http://www.garmin.com/xmlschemas/TrackPointExtension/v1">
            <gpxtpx:hr>106</gpxtpx:hr>
          </gpxtpx:TrackPointExtension>
        </extensions>
      </trkpt>
      <trkpt lat="48.62973" lon="1.98718">
        <ele>109.4</ele>
        <time>2025-11-16T12:15:39Z</time>
        <extensions>
          <gpxtpx:TrackPointExtension xmlns:gpxtpx="http://www.garmin.com/xmlschemas/TrackPointExtension/v1">
            <gpxtpx:hr>106</gpxtpx:hr>
          </gpxtpx:TrackPointExtension>
        </extensions>
      </trkpt>
      <trkpt lat="48.62972" lon="1.98721">
        <ele>109.4</ele>
        <time>2025-11-16T12:15:40Z</time>
        <extensions>
          <gpxtpx:TrackPointExtension xmlns:gpxtpx="http://www.garmin.com/xmlschemas/TrackPointExtension/v1">
            <gpxtpx:hr>106</gpxtpx:hr>
          </gpxtpx:TrackPointExtension>
        </extensions>
      </trkpt>
      <trkpt lat="48.62971" lon="1.98725">
        <ele>109.2</ele>
        <time>2025-11-16T12:15:42Z</time>
        <extensions>
          <gpxtpx:TrackPointExtension xmlns:gpxtpx="http://www.garmin.com/xmlschemas/TrackPointExtension/v1">
            <gpxtpx:hr>106</gpxtpx:hr>
          </gpxtpx:TrackPointExtension>
        </extensions>
      </trkpt>
      <trkpt lat="48.6297" lon="1.98728">
        <ele>109.2</ele>
        <time>2025-11-16T12:15:43Z</time>
        <extensions>
          <gpxtpx:TrackPointExtension xmlns:gpxtpx="http://www.garmin.com/xmlschemas/TrackPointExtension/v1">
            <gpxtpx:hr>106</gpxtpx:hr>
          </gpxtpx:TrackPointExtension>
        </extensions>
      </trkpt>
      <trkpt lat="48.62969" lon="1.98732">
        <ele>109.2</ele>
        <time>2025-11-16T12:15:45Z</time>
        <extensions>
          <gpxtpx:TrackPointExtension xmlns:gpxtpx="http://www.garmin.com/xmlschemas/TrackPointExtension/v1">
            <gpxtpx:hr>106</gpxtpx:hr>
          </gpxtpx:TrackPointExtension>
        </extensions>
      </trkpt>
      <trkpt lat="48.62968" lon="1.98735">
        <ele>109.2</ele>
        <time>2025-11-16T12:15:46Z</time>
        <extensions>
          <gpxtpx:TrackPointExtension xmlns:gpxtpx="http://www.garmin.com/xmlschemas/TrackPointExtension/v1">
            <gpxtpx:hr>106</gpxtpx:hr>
          </gpxtpx:TrackPointExtension>
        </extensions>
      </trkpt>
      <trkpt lat="48.62966" lon="1.98739">
        <ele>109.2</ele>
        <time>2025-11-16T12:15:48Z</time>
        <extensions>
          <gpxtpx:TrackPointExtension xmlns:gpxtpx="http://www.garmin.com/xmlschemas/TrackPointExtension/v1">
            <gpxtpx:hr>106</gpxtpx:hr>
          </gpxtpx:TrackPointExtension>
        </extensions>
      </trkpt>
      <trkpt lat="48.62965" lon="1.98743">
        <ele>109.4</ele>
        <time>2025-11-16T12:15:50Z</time>
        <extensions>
          <gpxtpx:TrackPointExtension xmlns:gpxtpx="http://www.garmin.com/xmlschemas/TrackPointExtension/v1">
            <gpxtpx:hr>106</gpxtpx:hr>
          </gpxtpx:TrackPointExtension>
        </extensions>
      </trkpt>
      <trkpt lat="48.62964" lon="1.98747">
        <ele>109.2</ele>
        <time>2025-11-16T12:15:52Z</time>
        <extensions>
          <gpxtpx:TrackPointExtension xmlns:gpxtpx="http://www.garmin.com/xmlschemas/TrackPointExtension/v1">
            <gpxtpx:hr>106</gpxtpx:hr>
          </gpxtpx:TrackPointExtension>
        </extensions>
      </trkpt>
      <trkpt lat="48.62962" lon="1.98751">
        <ele>109.2</ele>
        <time>2025-11-16T12:15:54Z</time>
        <extensions>
          <gpxtpx:TrackPointExtension xmlns:gpxtpx="http://www.garmin.com/xmlschemas/TrackPointExtension/v1">
            <gpxtpx:hr>106</gpxtpx:hr>
          </gpxtpx:TrackPointExtension>
        </extensions>
      </trkpt>
      <trkpt lat="48.6296" lon="1.98756">
        <ele>109.2</ele>
        <time>2025-11-16T12:15:56Z</time>
        <extensions>
          <gpxtpx:TrackPointExtension xmlns:gpxtpx="http://www.garmin.com/xmlschemas/TrackPointExtension/v1">
            <gpxtpx:hr>106</gpxtpx:hr>
          </gpxtpx:TrackPointExtension>
        </extensions>
      </trkpt>
      <trkpt lat="48.62959" lon="1.9876">
        <ele>109</ele>
        <time>2025-11-16T12:15:58Z</time>
        <extensions>
          <gpxtpx:TrackPointExtension xmlns:gpxtpx="http://www.garmin.com/xmlschemas/TrackPointExtension/v1">
            <gpxtpx:hr>107</gpxtpx:hr>
          </gpxtpx:TrackPointExtension>
        </extensions>
      </trkpt>
      <trkpt lat="48.62958" lon="1.98763">
        <ele>109</ele>
        <time>2025-11-16T12:16:00Z</time>
        <extensions>
          <gpxtpx:TrackPointExtension xmlns:gpxtpx="http://www.garmin.com/xmlschemas/TrackPointExtension/v1">
            <gpxtpx:hr>106</gpxtpx:hr>
          </gpxtpx:TrackPointExtension>
        </extensions>
      </trkpt>
      <trkpt lat="48.62956" lon="1.98767">
        <ele>108.8</ele>
        <time>2025-11-16T12:16:02Z</time>
        <extensions>
          <gpxtpx:TrackPointExtension xmlns:gpxtpx="http://www.garmin.com/xmlschemas/TrackPointExtension/v1">
            <gpxtpx:hr>106</gpxtpx:hr>
          </gpxtpx:TrackPointExtension>
        </extensions>
      </trkpt>
      <trkpt lat="48.62955" lon="1.98771">
        <ele>108.8</ele>
        <time>2025-11-16T12:16:04Z</time>
        <extensions>
          <gpxtpx:TrackPointExtension xmlns:gpxtpx="http://www.garmin.com/xmlschemas/TrackPointExtension/v1">
            <gpxtpx:hr>106</gpxtpx:hr>
          </gpxtpx:TrackPointExtension>
        </extensions>
      </trkpt>
      <trkpt lat="48.62953" lon="1.98774">
        <ele>108.8</ele>
        <time>2025-11-16T12:16:06Z</time>
        <extensions>
          <gpxtpx:TrackPointExtension xmlns:gpxtpx="http://www.garmin.com/xmlschemas/TrackPointExtension/v1">
            <gpxtpx:hr>106</gpxtpx:hr>
          </gpxtpx:TrackPointExtension>
        </extensions>
      </trkpt>
      <trkpt lat="48.62952" lon="1.98777">
        <ele>108.8</ele>
        <time>2025-11-16T12:16:08Z</time>
        <extensions>
          <gpxtpx:TrackPointExtension xmlns:gpxtpx="http://www.garmin.com/xmlschemas/TrackPointExtension/v1">
            <gpxtpx:hr>106</gpxtpx:hr>
          </gpxtpx:TrackPointExtension>
        </extensions>
      </trkpt>
      <trkpt lat="48.62949" lon="1.98781">
        <ele>108.8</ele>
        <time>2025-11-16T12:16:10Z</time>
        <extensions>
          <gpxtpx:TrackPointExtension xmlns:gpxtpx="http://www.garmin.com/xmlschemas/TrackPointExtension/v1">
            <gpxtpx:hr>106</gpxtpx:hr>
          </gpxtpx:TrackPointExtension>
        </extensions>
      </trkpt>
      <trkpt lat="48.62947" lon="1.98784">
        <ele>108.8</ele>
        <time>2025-11-16T12:16:12Z</time>
        <extensions>
          <gpxtpx:TrackPointExtension xmlns:gpxtpx="http://www.garmin.com/xmlschemas/TrackPointExtension/v1">
            <gpxtpx:hr>107</gpxtpx:hr>
          </gpxtpx:TrackPointExtension>
        </extensions>
      </trkpt>
      <trkpt lat="48.62944" lon="1.98787">
        <ele>108.8</ele>
        <time>2025-11-16T12:16:14Z</time>
        <extensions>
          <gpxtpx:TrackPointExtension xmlns:gpxtpx="http://www.garmin.com/xmlschemas/TrackPointExtension/v1">
            <gpxtpx:hr>107</gpxtpx:hr>
          </gpxtpx:TrackPointExtension>
        </extensions>
      </trkpt>
      <trkpt lat="48.62941" lon="1.9879">
        <ele>108.8</ele>
        <time>2025-11-16T12:16:16Z</time>
        <extensions>
          <gpxtpx:TrackPointExtension xmlns:gpxtpx="http://www.garmin.com/xmlschemas/TrackPointExtension/v1">
            <gpxtpx:hr>107</gpxtpx:hr>
          </gpxtpx:TrackPointExtension>
        </extensions>
      </trkpt>
      <trkpt lat="48.62939" lon="1.98793">
        <ele>108.8</ele>
        <time>2025-11-16T12:16:18Z</time>
        <extensions>
          <gpxtpx:TrackPointExtension xmlns:gpxtpx="http://www.garmin.com/xmlschemas/TrackPointExtension/v1">
            <gpxtpx:hr>107</gpxtpx:hr>
          </gpxtpx:TrackPointExtension>
        </extensions>
      </trkpt>
      <trkpt lat="48.62936" lon="1.98796">
        <ele>108.8</ele>
        <time>2025-11-16T12:16:20Z</time>
        <extensions>
          <gpxtpx:TrackPointExtension xmlns:gpxtpx="http://www.garmin.com/xmlschemas/TrackPointExtension/v1">
            <gpxtpx:hr>107</gpxtpx:hr>
          </gpxtpx:TrackPointExtension>
        </extensions>
      </trkpt>
      <trkpt lat="48.62934" lon="1.98797">
        <ele>108.8</ele>
        <time>2025-11-16T12:16:21Z</time>
        <extensions>
          <gpxtpx:TrackPointExtension xmlns:gpxtpx="http://www.garmin.com/xmlschemas/TrackPointExtension/v1">
            <gpxtpx:hr>107</gpxtpx:hr>
          </gpxtpx:TrackPointExtension>
        </extensions>
      </trkpt>
      <trkpt lat="48.62932" lon="1.988">
        <ele>108.8</ele>
        <time>2025-11-16T12:16:23Z</time>
        <extensions>
          <gpxtpx:TrackPointExtension xmlns:gpxtpx="http://www.garmin.com/xmlschemas/TrackPointExtension/v1">
            <gpxtpx:hr>107</gpxtpx:hr>
          </gpxtpx:TrackPointExtension>
        </extensions>
      </trkpt>
      <trkpt lat="48.6293" lon="1.98802">
        <ele>108.6</ele>
        <time>2025-11-16T12:16:24Z</time>
        <extensions>
          <gpxtpx:TrackPointExtension xmlns:gpxtpx="http://www.garmin.com/xmlschemas/TrackPointExtension/v1">
            <gpxtpx:hr>108</gpxtpx:hr>
          </gpxtpx:TrackPointExtension>
        </extensions>
      </trkpt>
      <trkpt lat="48.62928" lon="1.98805">
        <ele>108.6</ele>
        <time>2025-11-16T12:16:26Z</time>
        <extensions>
          <gpxtpx:TrackPointExtension xmlns:gpxtpx="http://www.garmin.com/xmlschemas/TrackPointExtension/v1">
            <gpxtpx:hr>108</gpxtpx:hr>
          </gpxtpx:TrackPointExtension>
        </extensions>
      </trkpt>
      <trkpt lat="48.62926" lon="1.98807">
        <ele>108.6</ele>
        <time>2025-11-16T12:16:27Z</time>
        <extensions>
          <gpxtpx:TrackPointExtension xmlns:gpxtpx="http://www.garmin.com/xmlschemas/TrackPointExtension/v1">
            <gpxtpx:hr>108</gpxtpx:hr>
          </gpxtpx:TrackPointExtension>
        </extensions>
      </trkpt>
      <trkpt lat="48.62924" lon="1.98809">
        <ele>108.4</ele>
        <time>2025-11-16T12:16:28Z</time>
        <extensions>
          <gpxtpx:TrackPointExtension xmlns:gpxtpx="http://www.garmin.com/xmlschemas/TrackPointExtension/v1">
            <gpxtpx:hr>108</gpxtpx:hr>
          </gpxtpx:TrackPointExtension>
        </extensions>
      </trkpt>
      <trkpt lat="48.62922" lon="1.98811">
        <ele>108.4</ele>
        <time>2025-11-16T12:16:29Z</time>
        <extensions>
          <gpxtpx:TrackPointExtension xmlns:gpxtpx="http://www.garmin.com/xmlschemas/TrackPointExtension/v1">
            <gpxtpx:hr>108</gpxtpx:hr>
          </gpxtpx:TrackPointExtension>
        </extensions>
      </trkpt>
      <trkpt lat="48.62921" lon="1.98813">
        <ele>108.4</ele>
        <time>2025-11-16T12:16:30Z</time>
        <extensions>
          <gpxtpx:TrackPointExtension xmlns:gpxtpx="http://www.garmin.com/xmlschemas/TrackPointExtension/v1">
            <gpxtpx:hr>108</gpxtpx:hr>
          </gpxtpx:TrackPointExtension>
        </extensions>
      </trkpt>
      <trkpt lat="48.62919" lon="1.98815">
        <ele>108.4</ele>
        <time>2025-11-16T12:16:31Z</time>
        <extensions>
          <gpxtpx:TrackPointExtension xmlns:gpxtpx="http://www.garmin.com/xmlschemas/TrackPointExtension/v1">
            <gpxtpx:hr>108</gpxtpx:hr>
          </gpxtpx:TrackPointExtension>
        </extensions>
      </trkpt>
      <trkpt lat="48.62918" lon="1.98817">
        <ele>108.4</ele>
        <time>2025-11-16T12:16:32Z</time>
        <extensions>
          <gpxtpx:TrackPointExtension xmlns:gpxtpx="http://www.garmin.com/xmlschemas/TrackPointExtension/v1">
            <gpxtpx:hr>108</gpxtpx:hr>
          </gpxtpx:TrackPointExtension>
        </extensions>
      </trkpt>
      <trkpt lat="48.62917" lon="1.98819">
        <ele>108.4</ele>
        <time>2025-11-16T12:16:33Z</time>
        <extensions>
          <gpxtpx:TrackPointExtension xmlns:gpxtpx="http://www.garmin.com/xmlschemas/TrackPointExtension/v1">
            <gpxtpx:hr>108</gpxtpx:hr>
          </gpxtpx:TrackPointExtension>
        </extensions>
      </trkpt>
      <trkpt lat="48.62915" lon="1.98822">
        <ele>108.4</ele>
        <time>2025-11-16T12:16:35Z</time>
        <extensions>
          <gpxtpx:TrackPointExtension xmlns:gpxtpx="http://www.garmin.com/xmlschemas/TrackPointExtension/v1">
            <gpxtpx:hr>108</gpxtpx:hr>
          </gpxtpx:TrackPointExtension>
        </extensions>
      </trkpt>
      <trkpt lat="48.62912" lon="1.98826">
        <ele>108.4</ele>
        <time>2025-11-16T12:16:37Z</time>
        <extensions>
          <gpxtpx:TrackPointExtension xmlns:gpxtpx="http://www.garmin.com/xmlschemas/TrackPointExtension/v1">
            <gpxtpx:hr>108</gpxtpx:hr>
          </gpxtpx:TrackPointExtension>
        </extensions>
      </trkpt>
      <trkpt lat="48.6291" lon="1.9883">
        <ele>108.4</ele>
        <time>2025-11-16T12:16:39Z</time>
        <extensions>
          <gpxtpx:TrackPointExtension xmlns:gpxtpx="http://www.garmin.com/xmlschemas/TrackPointExtension/v1">
            <gpxtpx:hr>108</gpxtpx:hr>
          </gpxtpx:TrackPointExtension>
        </extensions>
      </trkpt>
      <trkpt lat="48.62909" lon="1.98834">
        <ele>108.4</ele>
        <time>2025-11-16T12:16:41Z</time>
        <extensions>
          <gpxtpx:TrackPointExtension xmlns:gpxtpx="http://www.garmin.com/xmlschemas/TrackPointExtension/v1">
            <gpxtpx:hr>108</gpxtpx:hr>
          </gpxtpx:TrackPointExtension>
        </extensions>
      </trkpt>
      <trkpt lat="48.62908" lon="1.98837">
        <ele>108.2</ele>
        <time>2025-11-16T12:16:43Z</time>
        <extensions>
          <gpxtpx:TrackPointExtension xmlns:gpxtpx="http://www.garmin.com/xmlschemas/TrackPointExtension/v1">
            <gpxtpx:hr>108</gpxtpx:hr>
          </gpxtpx:TrackPointExtension>
        </extensions>
      </trkpt>
      <trkpt lat="48.62906" lon="1.9884">
        <ele>108.2</ele>
        <time>2025-11-16T12:16:45Z</time>
        <extensions>
          <gpxtpx:TrackPointExtension xmlns:gpxtpx="http://www.garmin.com/xmlschemas/TrackPointExtension/v1">
            <gpxtpx:hr>108</gpxtpx:hr>
          </gpxtpx:TrackPointExtension>
        </extensions>
      </trkpt>
      <trkpt lat="48.62905" lon="1.98844">
        <ele>108</ele>
        <time>2025-11-16T12:16:47Z</time>
        <extensions>
          <gpxtpx:TrackPointExtension xmlns:gpxtpx="http://www.garmin.com/xmlschemas/TrackPointExtension/v1">
            <gpxtpx:hr>108</gpxtpx:hr>
          </gpxtpx:TrackPointExtension>
        </extensions>
      </trkpt>
      <trkpt lat="48.62904" lon="1.98847">
        <ele>108</ele>
        <time>2025-11-16T12:16:49Z</time>
        <extensions>
          <gpxtpx:TrackPointExtension xmlns:gpxtpx="http://www.garmin.com/xmlschemas/TrackPointExtension/v1">
            <gpxtpx:hr>108</gpxtpx:hr>
          </gpxtpx:TrackPointExtension>
        </extensions>
      </trkpt>
      <trkpt lat="48.62902" lon="1.9885">
        <ele>108</ele>
        <time>2025-11-16T12:16:51Z</time>
        <extensions>
          <gpxtpx:TrackPointExtension xmlns:gpxtpx="http://www.garmin.com/xmlschemas/TrackPointExtension/v1">
            <gpxtpx:hr>108</gpxtpx:hr>
          </gpxtpx:TrackPointExtension>
        </extensions>
      </trkpt>
      <trkpt lat="48.62902" lon="1.98854">
        <ele>108</ele>
        <time>2025-11-16T12:16:53Z</time>
        <extensions>
          <gpxtpx:TrackPointExtension xmlns:gpxtpx="http://www.garmin.com/xmlschemas/TrackPointExtension/v1">
            <gpxtpx:hr>109</gpxtpx:hr>
          </gpxtpx:TrackPointExtension>
        </extensions>
      </trkpt>
      <trkpt lat="48.62901" lon="1.98858">
        <ele>108</ele>
        <time>2025-11-16T12:16:55Z</time>
        <extensions>
          <gpxtpx:TrackPointExtension xmlns:gpxtpx="http://www.garmin.com/xmlschemas/TrackPointExtension/v1">
            <gpxtpx:hr>109</gpxtpx:hr>
          </gpxtpx:TrackPointExtension>
        </extensions>
      </trkpt>
      <trkpt lat="48.62902" lon="1.98861">
        <ele>108.2</ele>
        <time>2025-11-16T12:16:57Z</time>
        <extensions>
          <gpxtpx:TrackPointExtension xmlns:gpxtpx="http://www.garmin.com/xmlschemas/TrackPointExtension/v1">
            <gpxtpx:hr>109</gpxtpx:hr>
          </gpxtpx:TrackPointExtension>
        </extensions>
      </trkpt>
      <trkpt lat="48.62904" lon="1.98863">
        <ele>108.4</ele>
        <time>2025-11-16T12:16:59Z</time>
        <extensions>
          <gpxtpx:TrackPointExtension xmlns:gpxtpx="http://www.garmin.com/xmlschemas/TrackPointExtension/v1">
            <gpxtpx:hr>109</gpxtpx:hr>
          </gpxtpx:TrackPointExtension>
        </extensions>
      </trkpt>
      <trkpt lat="48.62906" lon="1.98865">
        <ele>108.4</ele>
        <time>2025-11-16T12:17:01Z</time>
        <extensions>
          <gpxtpx:TrackPointExtension xmlns:gpxtpx="http://www.garmin.com/xmlschemas/TrackPointExtension/v1">
            <gpxtpx:hr>110</gpxtpx:hr>
          </gpxtpx:TrackPointExtension>
        </extensions>
      </trkpt>
      <trkpt lat="48.62908" lon="1.98867">
        <ele>108.4</ele>
        <time>2025-11-16T12:17:02Z</time>
        <extensions>
          <gpxtpx:TrackPointExtension xmlns:gpxtpx="http://www.garmin.com/xmlschemas/TrackPointExtension/v1">
            <gpxtpx:hr>111</gpxtpx:hr>
          </gpxtpx:TrackPointExtension>
        </extensions>
      </trkpt>
      <trkpt lat="48.62911" lon="1.98869">
        <ele>108.6</ele>
        <time>2025-11-16T12:17:04Z</time>
        <extensions>
          <gpxtpx:TrackPointExtension xmlns:gpxtpx="http://www.garmin.com/xmlschemas/TrackPointExtension/v1">
            <gpxtpx:hr>110</gpxtpx:hr>
          </gpxtpx:TrackPointExtension>
        </extensions>
      </trkpt>
      <trkpt lat="48.62914" lon="1.9887">
        <ele>108.8</ele>
        <time>2025-11-16T12:17:06Z</time>
        <extensions>
          <gpxtpx:TrackPointExtension xmlns:gpxtpx="http://www.garmin.com/xmlschemas/TrackPointExtension/v1">
            <gpxtpx:hr>110</gpxtpx:hr>
          </gpxtpx:TrackPointExtension>
        </extensions>
      </trkpt>
      <trkpt lat="48.62916" lon="1.98871">
        <ele>109</ele>
        <time>2025-11-16T12:17:08Z</time>
        <extensions>
          <gpxtpx:TrackPointExtension xmlns:gpxtpx="http://www.garmin.com/xmlschemas/TrackPointExtension/v1">
            <gpxtpx:hr>110</gpxtpx:hr>
          </gpxtpx:TrackPointExtension>
        </extensions>
      </trkpt>
      <trkpt lat="48.62919" lon="1.98873">
        <ele>109.4</ele>
        <time>2025-11-16T12:17:10Z</time>
        <extensions>
          <gpxtpx:TrackPointExtension xmlns:gpxtpx="http://www.garmin.com/xmlschemas/TrackPointExtension/v1">
            <gpxtpx:hr>110</gpxtpx:hr>
          </gpxtpx:TrackPointExtension>
        </extensions>
      </trkpt>
      <trkpt lat="48.62922" lon="1.98876">
        <ele>109.8</ele>
        <time>2025-11-16T12:17:12Z</time>
        <extensions>
          <gpxtpx:TrackPointExtension xmlns:gpxtpx="http://www.garmin.com/xmlschemas/TrackPointExtension/v1">
            <gpxtpx:hr>110</gpxtpx:hr>
          </gpxtpx:TrackPointExtension>
        </extensions>
      </trkpt>
      <trkpt lat="48.62924" lon="1.98879">
        <ele>110.2</ele>
        <time>2025-11-16T12:17:14Z</time>
        <extensions>
          <gpxtpx:TrackPointExtension xmlns:gpxtpx="http://www.garmin.com/xmlschemas/TrackPointExtension/v1">
            <gpxtpx:hr>111</gpxtpx:hr>
          </gpxtpx:TrackPointExtension>
        </extensions>
      </trkpt>
      <trkpt lat="48.62927" lon="1.98883">
        <ele>110.6</ele>
        <time>2025-11-16T12:17:16Z</time>
        <extensions>
          <gpxtpx:TrackPointExtension xmlns:gpxtpx="http://www.garmin.com/xmlschemas/TrackPointExtension/v1">
            <gpxtpx:hr>111</gpxtpx:hr>
          </gpxtpx:TrackPointExtension>
        </extensions>
      </trkpt>
      <trkpt lat="48.6293" lon="1.98886">
        <ele>111</ele>
        <time>2025-11-16T12:17:18Z</time>
        <extensions>
          <gpxtpx:TrackPointExtension xmlns:gpxtpx="http://www.garmin.com/xmlschemas/TrackPointExtension/v1">
            <gpxtpx:hr>111</gpxtpx:hr>
          </gpxtpx:TrackPointExtension>
        </extensions>
      </trkpt>
      <trkpt lat="48.62932" lon="1.98889">
        <ele>111.4</ele>
        <time>2025-11-16T12:17:20Z</time>
        <extensions>
          <gpxtpx:TrackPointExtension xmlns:gpxtpx="http://www.garmin.com/xmlschemas/TrackPointExtension/v1">
            <gpxtpx:hr>111</gpxtpx:hr>
          </gpxtpx:TrackPointExtension>
        </extensions>
      </trkpt>
      <trkpt lat="48.62935" lon="1.98892">
        <ele>111.6</ele>
        <time>2025-11-16T12:17:22Z</time>
        <extensions>
          <gpxtpx:TrackPointExtension xmlns:gpxtpx="http://www.garmin.com/xmlschemas/TrackPointExtension/v1">
            <gpxtpx:hr>111</gpxtpx:hr>
          </gpxtpx:TrackPointExtension>
        </extensions>
      </trkpt>
      <trkpt lat="48.62936" lon="1.98894">
        <ele>111.6</ele>
        <time>2025-11-16T12:17:23Z</time>
        <extensions>
          <gpxtpx:TrackPointExtension xmlns:gpxtpx="http://www.garmin.com/xmlschemas/TrackPointExtension/v1">
            <gpxtpx:hr>111</gpxtpx:hr>
          </gpxtpx:TrackPointExtension>
        </extensions>
      </trkpt>
      <trkpt lat="48.62938" lon="1.98895">
        <ele>111.6</ele>
        <time>2025-11-16T12:17:24Z</time>
        <extensions>
          <gpxtpx:TrackPointExtension xmlns:gpxtpx="http://www.garmin.com/xmlschemas/TrackPointExtension/v1">
            <gpxtpx:hr>111</gpxtpx:hr>
          </gpxtpx:TrackPointExtension>
        </extensions>
      </trkpt>
      <trkpt lat="48.6294" lon="1.98897">
        <ele>111.8</ele>
        <time>2025-11-16T12:17:25Z</time>
        <extensions>
          <gpxtpx:TrackPointExtension xmlns:gpxtpx="http://www.garmin.com/xmlschemas/TrackPointExtension/v1">
            <gpxtpx:hr>111</gpxtpx:hr>
          </gpxtpx:TrackPointExtension>
        </extensions>
      </trkpt>
      <trkpt lat="48.62941" lon="1.98898">
        <ele>111.8</ele>
        <time>2025-11-16T12:17:26Z</time>
        <extensions>
          <gpxtpx:TrackPointExtension xmlns:gpxtpx="http://www.garmin.com/xmlschemas/TrackPointExtension/v1">
            <gpxtpx:hr>111</gpxtpx:hr>
          </gpxtpx:TrackPointExtension>
        </extensions>
      </trkpt>
      <trkpt lat="48.62944" lon="1.98901">
        <ele>111.8</ele>
        <time>2025-11-16T12:17:28Z</time>
        <extensions>
          <gpxtpx:TrackPointExtension xmlns:gpxtpx="http://www.garmin.com/xmlschemas/TrackPointExtension/v1">
            <gpxtpx:hr>111</gpxtpx:hr>
          </gpxtpx:TrackPointExtension>
        </extensions>
      </trkpt>
      <trkpt lat="48.62946" lon="1.98904">
        <ele>111.8</ele>
        <time>2025-11-16T12:17:30Z</time>
        <extensions>
          <gpxtpx:TrackPointExtension xmlns:gpxtpx="http://www.garmin.com/xmlschemas/TrackPointExtension/v1">
            <gpxtpx:hr>111</gpxtpx:hr>
          </gpxtpx:TrackPointExtension>
        </extensions>
      </trkpt>
      <trkpt lat="48.62948" lon="1.98906">
        <ele>111.8</ele>
        <time>2025-11-16T12:17:31Z</time>
        <extensions>
          <gpxtpx:TrackPointExtension xmlns:gpxtpx="http://www.garmin.com/xmlschemas/TrackPointExtension/v1">
            <gpxtpx:hr>110</gpxtpx:hr>
          </gpxtpx:TrackPointExtension>
        </extensions>
      </trkpt>
      <trkpt lat="48.6295" lon="1.98909">
        <ele>111.8</ele>
        <time>2025-11-16T12:17:33Z</time>
        <extensions>
          <gpxtpx:TrackPointExtension xmlns:gpxtpx="http://www.garmin.com/xmlschemas/TrackPointExtension/v1">
            <gpxtpx:hr>110</gpxtpx:hr>
          </gpxtpx:TrackPointExtension>
        </extensions>
      </trkpt>
      <trkpt lat="48.62952" lon="1.9891">
        <ele>111.8</ele>
        <time>2025-11-16T12:17:34Z</time>
        <extensions>
          <gpxtpx:TrackPointExtension xmlns:gpxtpx="http://www.garmin.com/xmlschemas/TrackPointExtension/v1">
            <gpxtpx:hr>110</gpxtpx:hr>
          </gpxtpx:TrackPointExtension>
        </extensions>
      </trkpt>
      <trkpt lat="48.62954" lon="1.98914">
        <ele>111.6</ele>
        <time>2025-11-16T12:17:36Z</time>
        <extensions>
          <gpxtpx:TrackPointExtension xmlns:gpxtpx="http://www.garmin.com/xmlschemas/TrackPointExtension/v1">
            <gpxtpx:hr>110</gpxtpx:hr>
          </gpxtpx:TrackPointExtension>
        </extensions>
      </trkpt>
      <trkpt lat="48.62956" lon="1.98915">
        <ele>111.6</ele>
        <time>2025-11-16T12:17:37Z</time>
        <extensions>
          <gpxtpx:TrackPointExtension xmlns:gpxtpx="http://www.garmin.com/xmlschemas/TrackPointExtension/v1">
            <gpxtpx:hr>110</gpxtpx:hr>
          </gpxtpx:TrackPointExtension>
        </extensions>
      </trkpt>
      <trkpt lat="48.62958" lon="1.98919">
        <ele>111.4</ele>
        <time>2025-11-16T12:17:39Z</time>
        <extensions>
          <gpxtpx:TrackPointExtension xmlns:gpxtpx="http://www.garmin.com/xmlschemas/TrackPointExtension/v1">
            <gpxtpx:hr>110</gpxtpx:hr>
          </gpxtpx:TrackPointExtension>
        </extensions>
      </trkpt>
      <trkpt lat="48.6296" lon="1.9892">
        <ele>111.4</ele>
        <time>2025-11-16T12:17:40Z</time>
        <extensions>
          <gpxtpx:TrackPointExtension xmlns:gpxtpx="http://www.garmin.com/xmlschemas/TrackPointExtension/v1">
            <gpxtpx:hr>110</gpxtpx:hr>
          </gpxtpx:TrackPointExtension>
        </extensions>
      </trkpt>
      <trkpt lat="48.62962" lon="1.98922">
        <ele>111.2</ele>
        <time>2025-11-16T12:17:41Z</time>
        <extensions>
          <gpxtpx:TrackPointExtension xmlns:gpxtpx="http://www.garmin.com/xmlschemas/TrackPointExtension/v1">
            <gpxtpx:hr>110</gpxtpx:hr>
          </gpxtpx:TrackPointExtension>
        </extensions>
      </trkpt>
      <trkpt lat="48.62964" lon="1.98924">
        <ele>111.2</ele>
        <time>2025-11-16T12:17:43Z</time>
        <extensions>
          <gpxtpx:TrackPointExtension xmlns:gpxtpx="http://www.garmin.com/xmlschemas/TrackPointExtension/v1">
            <gpxtpx:hr>110</gpxtpx:hr>
          </gpxtpx:TrackPointExtension>
        </extensions>
      </trkpt>
      <trkpt lat="48.62966" lon="1.98926">
        <ele>111</ele>
        <time>2025-11-16T12:17:44Z</time>
        <extensions>
          <gpxtpx:TrackPointExtension xmlns:gpxtpx="http://www.garmin.com/xmlschemas/TrackPointExtension/v1">
            <gpxtpx:hr>111</gpxtpx:hr>
          </gpxtpx:TrackPointExtension>
        </extensions>
      </trkpt>
      <trkpt lat="48.62968" lon="1.98929">
        <ele>110.8</ele>
        <time>2025-11-16T12:17:46Z</time>
        <extensions>
          <gpxtpx:TrackPointExtension xmlns:gpxtpx="http://www.garmin.com/xmlschemas/TrackPointExtension/v1">
            <gpxtpx:hr>111</gpxtpx:hr>
          </gpxtpx:TrackPointExtension>
        </extensions>
      </trkpt>
      <trkpt lat="48.6297" lon="1.9893">
        <ele>110.6</ele>
        <time>2025-11-16T12:17:47Z</time>
        <extensions>
          <gpxtpx:TrackPointExtension xmlns:gpxtpx="http://www.garmin.com/xmlschemas/TrackPointExtension/v1">
            <gpxtpx:hr>111</gpxtpx:hr>
          </gpxtpx:TrackPointExtension>
        </extensions>
      </trkpt>
      <trkpt lat="48.62972" lon="1.98933">
        <ele>110.4</ele>
        <time>2025-11-16T12:17:49Z</time>
        <extensions>
          <gpxtpx:TrackPointExtension xmlns:gpxtpx="http://www.garmin.com/xmlschemas/TrackPointExtension/v1">
            <gpxtpx:hr>111</gpxtpx:hr>
          </gpxtpx:TrackPointExtension>
        </extensions>
      </trkpt>
      <trkpt lat="48.62974" lon="1.98936">
        <ele>110.2</ele>
        <time>2025-11-16T12:17:51Z</time>
        <extensions>
          <gpxtpx:TrackPointExtension xmlns:gpxtpx="http://www.garmin.com/xmlschemas/TrackPointExtension/v1">
            <gpxtpx:hr>111</gpxtpx:hr>
          </gpxtpx:TrackPointExtension>
        </extensions>
      </trkpt>
      <trkpt lat="48.62977" lon="1.98939">
        <ele>110</ele>
        <time>2025-11-16T12:17:53Z</time>
        <extensions>
          <gpxtpx:TrackPointExtension xmlns:gpxtpx="http://www.garmin.com/xmlschemas/TrackPointExtension/v1">
            <gpxtpx:hr>111</gpxtpx:hr>
          </gpxtpx:TrackPointExtension>
        </extensions>
      </trkpt>
      <trkpt lat="48.6298" lon="1.98942">
        <ele>109.8</ele>
        <time>2025-11-16T12:17:55Z</time>
        <extensions>
          <gpxtpx:TrackPointExtension xmlns:gpxtpx="http://www.garmin.com/xmlschemas/TrackPointExtension/v1">
            <gpxtpx:hr>111</gpxtpx:hr>
          </gpxtpx:TrackPointExtension>
        </extensions>
      </trkpt>
      <trkpt lat="48.62982" lon="1.98944">
        <ele>109.6</ele>
        <time>2025-11-16T12:17:57Z</time>
        <extensions>
          <gpxtpx:TrackPointExtension xmlns:gpxtpx="http://www.garmin.com/xmlschemas/TrackPointExtension/v1">
            <gpxtpx:hr>111</gpxtpx:hr>
          </gpxtpx:TrackPointExtension>
        </extensions>
      </trkpt>
      <trkpt lat="48.62985" lon="1.98945">
        <ele>109.4</ele>
        <time>2025-11-16T12:17:59Z</time>
        <extensions>
          <gpxtpx:TrackPointExtension xmlns:gpxtpx="http://www.garmin.com/xmlschemas/TrackPointExtension/v1">
            <gpxtpx:hr>111</gpxtpx:hr>
          </gpxtpx:TrackPointExtension>
        </extensions>
      </trkpt>
      <trkpt lat="48.62988" lon="1.98947">
        <ele>109.4</ele>
        <time>2025-11-16T12:18:01Z</time>
        <extensions>
          <gpxtpx:TrackPointExtension xmlns:gpxtpx="http://www.garmin.com/xmlschemas/TrackPointExtension/v1">
            <gpxtpx:hr>111</gpxtpx:hr>
          </gpxtpx:TrackPointExtension>
        </extensions>
      </trkpt>
      <trkpt lat="48.6299" lon="1.9895">
        <ele>109.4</ele>
        <time>2025-11-16T12:18:03Z</time>
        <extensions>
          <gpxtpx:TrackPointExtension xmlns:gpxtpx="http://www.garmin.com/xmlschemas/TrackPointExtension/v1">
            <gpxtpx:hr>111</gpxtpx:hr>
          </gpxtpx:TrackPointExtension>
        </extensions>
      </trkpt>
      <trkpt lat="48.62992" lon="1.98951">
        <ele>109.4</ele>
        <time>2025-11-16T12:18:04Z</time>
        <extensions>
          <gpxtpx:TrackPointExtension xmlns:gpxtpx="http://www.garmin.com/xmlschemas/TrackPointExtension/v1">
            <gpxtpx:hr>111</gpxtpx:hr>
          </gpxtpx:TrackPointExtension>
        </extensions>
      </trkpt>
      <trkpt lat="48.62993" lon="1.98952">
        <ele>109.4</ele>
        <time>2025-11-16T12:18:05Z</time>
        <extensions>
          <gpxtpx:TrackPointExtension xmlns:gpxtpx="http://www.garmin.com/xmlschemas/TrackPointExtension/v1">
            <gpxtpx:hr>111</gpxtpx:hr>
          </gpxtpx:TrackPointExtension>
        </extensions>
      </trkpt>
      <trkpt lat="48.62995" lon="1.98954">
        <ele>109.4</ele>
        <time>2025-11-16T12:18:06Z</time>
        <extensions>
          <gpxtpx:TrackPointExtension xmlns:gpxtpx="http://www.garmin.com/xmlschemas/TrackPointExtension/v1">
            <gpxtpx:hr>111</gpxtpx:hr>
          </gpxtpx:TrackPointExtension>
        </extensions>
      </trkpt>
      <trkpt lat="48.62997" lon="1.98956">
        <ele>109.4</ele>
        <time>2025-11-16T12:18:08Z</time>
        <extensions>
          <gpxtpx:TrackPointExtension xmlns:gpxtpx="http://www.garmin.com/xmlschemas/TrackPointExtension/v1">
            <gpxtpx:hr>111</gpxtpx:hr>
          </gpxtpx:TrackPointExtension>
        </extensions>
      </trkpt>
      <trkpt lat="48.63" lon="1.98958">
        <ele>109.4</ele>
        <time>2025-11-16T12:18:10Z</time>
        <extensions>
          <gpxtpx:TrackPointExtension xmlns:gpxtpx="http://www.garmin.com/xmlschemas/TrackPointExtension/v1">
            <gpxtpx:hr>111</gpxtpx:hr>
          </gpxtpx:TrackPointExtension>
        </extensions>
      </trkpt>
      <trkpt lat="48.63002" lon="1.98961">
        <ele>109.4</ele>
        <time>2025-11-16T12:18:12Z</time>
        <extensions>
          <gpxtpx:TrackPointExtension xmlns:gpxtpx="http://www.garmin.com/xmlschemas/TrackPointExtension/v1">
            <gpxtpx:hr>111</gpxtpx:hr>
          </gpxtpx:TrackPointExtension>
        </extensions>
      </trkpt>
      <trkpt lat="48.63005" lon="1.98963">
        <ele>109.4</ele>
        <time>2025-11-16T12:18:14Z</time>
        <extensions>
          <gpxtpx:TrackPointExtension xmlns:gpxtpx="http://www.garmin.com/xmlschemas/TrackPointExtension/v1">
            <gpxtpx:hr>111</gpxtpx:hr>
          </gpxtpx:TrackPointExtension>
        </extensions>
      </trkpt>
      <trkpt lat="48.63008" lon="1.98965">
        <ele>109.4</ele>
        <time>2025-11-16T12:18:16Z</time>
        <extensions>
          <gpxtpx:TrackPointExtension xmlns:gpxtpx="http://www.garmin.com/xmlschemas/TrackPointExtension/v1">
            <gpxtpx:hr>111</gpxtpx:hr>
          </gpxtpx:TrackPointExtension>
        </extensions>
      </trkpt>
      <trkpt lat="48.63011" lon="1.98967">
        <ele>109.6</ele>
        <time>2025-11-16T12:18:18Z</time>
        <extensions>
          <gpxtpx:TrackPointExtension xmlns:gpxtpx="http://www.garmin.com/xmlschemas/TrackPointExtension/v1">
            <gpxtpx:hr>111</gpxtpx:hr>
          </gpxtpx:TrackPointExtension>
        </extensions>
      </trkpt>
      <trkpt lat="48.63013" lon="1.98968">
        <ele>109.8</ele>
        <time>2025-11-16T12:18:20Z</time>
        <extensions>
          <gpxtpx:TrackPointExtension xmlns:gpxtpx="http://www.garmin.com/xmlschemas/TrackPointExtension/v1">
            <gpxtpx:hr>111</gpxtpx:hr>
          </gpxtpx:TrackPointExtension>
        </extensions>
      </trkpt>
      <trkpt lat="48.63015" lon="1.98968">
        <ele>110</ele>
        <time>2025-11-16T12:18:22Z</time>
        <extensions>
          <gpxtpx:TrackPointExtension xmlns:gpxtpx="http://www.garmin.com/xmlschemas/TrackPointExtension/v1">
            <gpxtpx:hr>111</gpxtpx:hr>
          </gpxtpx:TrackPointExtension>
        </extensions>
      </trkpt>
      <trkpt lat="48.63018" lon="1.98969">
        <ele>110.4</ele>
        <time>2025-11-16T12:18:24Z</time>
        <extensions>
          <gpxtpx:TrackPointExtension xmlns:gpxtpx="http://www.garmin.com/xmlschemas/TrackPointExtension/v1">
            <gpxtpx:hr>111</gpxtpx:hr>
          </gpxtpx:TrackPointExtension>
        </extensions>
      </trkpt>
      <trkpt lat="48.63021" lon="1.9897">
        <ele>110.6</ele>
        <time>2025-11-16T12:18:26Z</time>
        <extensions>
          <gpxtpx:TrackPointExtension xmlns:gpxtpx="http://www.garmin.com/xmlschemas/TrackPointExtension/v1">
            <gpxtpx:hr>111</gpxtpx:hr>
          </gpxtpx:TrackPointExtension>
        </extensions>
      </trkpt>
      <trkpt lat="48.63023" lon="1.9897">
        <ele>110.8</ele>
        <time>2025-11-16T12:18:28Z</time>
        <extensions>
          <gpxtpx:TrackPointExtension xmlns:gpxtpx="http://www.garmin.com/xmlschemas/TrackPointExtension/v1">
            <gpxtpx:hr>111</gpxtpx:hr>
          </gpxtpx:TrackPointExtension>
        </extensions>
      </trkpt>
      <trkpt lat="48.63026" lon="1.98972">
        <ele>111</ele>
        <time>2025-11-16T12:18:30Z</time>
        <extensions>
          <gpxtpx:TrackPointExtension xmlns:gpxtpx="http://www.garmin.com/xmlschemas/TrackPointExtension/v1">
            <gpxtpx:hr>111</gpxtpx:hr>
          </gpxtpx:TrackPointExtension>
        </extensions>
      </trkpt>
      <trkpt lat="48.63029" lon="1.98974">
        <ele>111.2</ele>
        <time>2025-11-16T12:18:32Z</time>
        <extensions>
          <gpxtpx:TrackPointExtension xmlns:gpxtpx="http://www.garmin.com/xmlschemas/TrackPointExtension/v1">
            <gpxtpx:hr>111</gpxtpx:hr>
          </gpxtpx:TrackPointExtension>
        </extensions>
      </trkpt>
      <trkpt lat="48.63031" lon="1.98975">
        <ele>111.4</ele>
        <time>2025-11-16T12:18:33Z</time>
        <extensions>
          <gpxtpx:TrackPointExtension xmlns:gpxtpx="http://www.garmin.com/xmlschemas/TrackPointExtension/v1">
            <gpxtpx:hr>111</gpxtpx:hr>
          </gpxtpx:TrackPointExtension>
        </extensions>
      </trkpt>
      <trkpt lat="48.63034" lon="1.98978">
        <ele>111.6</ele>
        <time>2025-11-16T12:18:35Z</time>
        <extensions>
          <gpxtpx:TrackPointExtension xmlns:gpxtpx="http://www.garmin.com/xmlschemas/TrackPointExtension/v1">
            <gpxtpx:hr>111</gpxtpx:hr>
          </gpxtpx:TrackPointExtension>
        </extensions>
      </trkpt>
      <trkpt lat="48.63036" lon="1.98979">
        <ele>111.6</ele>
        <time>2025-11-16T12:18:36Z</time>
        <extensions>
          <gpxtpx:TrackPointExtension xmlns:gpxtpx="http://www.garmin.com/xmlschemas/TrackPointExtension/v1">
            <gpxtpx:hr>111</gpxtpx:hr>
          </gpxtpx:TrackPointExtension>
        </extensions>
      </trkpt>
      <trkpt lat="48.63037" lon="1.9898">
        <ele>111.8</ele>
        <time>2025-11-16T12:18:37Z</time>
        <extensions>
          <gpxtpx:TrackPointExtension xmlns:gpxtpx="http://www.garmin.com/xmlschemas/TrackPointExtension/v1">
            <gpxtpx:hr>111</gpxtpx:hr>
          </gpxtpx:TrackPointExtension>
        </extensions>
      </trkpt>
      <trkpt lat="48.63041" lon="1.98982">
        <ele>111.8</ele>
        <time>2025-11-16T12:18:39Z</time>
        <extensions>
          <gpxtpx:TrackPointExtension xmlns:gpxtpx="http://www.garmin.com/xmlschemas/TrackPointExtension/v1">
            <gpxtpx:hr>111</gpxtpx:hr>
          </gpxtpx:TrackPointExtension>
        </extensions>
      </trkpt>
      <trkpt lat="48.63044" lon="1.98983">
        <ele>112</ele>
        <time>2025-11-16T12:18:41Z</time>
        <extensions>
          <gpxtpx:TrackPointExtension xmlns:gpxtpx="http://www.garmin.com/xmlschemas/TrackPointExtension/v1">
            <gpxtpx:hr>111</gpxtpx:hr>
          </gpxtpx:TrackPointExtension>
        </extensions>
      </trkpt>
      <trkpt lat="48.63047" lon="1.98984">
        <ele>112.2</ele>
        <time>2025-11-16T12:18:43Z</time>
        <extensions>
          <gpxtpx:TrackPointExtension xmlns:gpxtpx="http://www.garmin.com/xmlschemas/TrackPointExtension/v1">
            <gpxtpx:hr>111</gpxtpx:hr>
          </gpxtpx:TrackPointExtension>
        </extensions>
      </trkpt>
      <trkpt lat="48.63049" lon="1.98985">
        <ele>112.4</ele>
        <time>2025-11-16T12:18:45Z</time>
        <extensions>
          <gpxtpx:TrackPointExtension xmlns:gpxtpx="http://www.garmin.com/xmlschemas/TrackPointExtension/v1">
            <gpxtpx:hr>111</gpxtpx:hr>
          </gpxtpx:TrackPointExtension>
        </extensions>
      </trkpt>
      <trkpt lat="48.63052" lon="1.98985">
        <ele>112.6</ele>
        <time>2025-11-16T12:18:47Z</time>
        <extensions>
          <gpxtpx:TrackPointExtension xmlns:gpxtpx="http://www.garmin.com/xmlschemas/TrackPointExtension/v1">
            <gpxtpx:hr>111</gpxtpx:hr>
          </gpxtpx:TrackPointExtension>
        </extensions>
      </trkpt>
      <trkpt lat="48.63055" lon="1.98986">
        <ele>112.8</ele>
        <time>2025-11-16T12:18:49Z</time>
        <extensions>
          <gpxtpx:TrackPointExtension xmlns:gpxtpx="http://www.garmin.com/xmlschemas/TrackPointExtension/v1">
            <gpxtpx:hr>111</gpxtpx:hr>
          </gpxtpx:TrackPointExtension>
        </extensions>
      </trkpt>
      <trkpt lat="48.63058" lon="1.98988">
        <ele>113</ele>
        <time>2025-11-16T12:18:51Z</time>
        <extensions>
          <gpxtpx:TrackPointExtension xmlns:gpxtpx="http://www.garmin.com/xmlschemas/TrackPointExtension/v1">
            <gpxtpx:hr>111</gpxtpx:hr>
          </gpxtpx:TrackPointExtension>
        </extensions>
      </trkpt>
      <trkpt lat="48.63061" lon="1.98989">
        <ele>113.2</ele>
        <time>2025-11-16T12:18:53Z</time>
        <extensions>
          <gpxtpx:TrackPointExtension xmlns:gpxtpx="http://www.garmin.com/xmlschemas/TrackPointExtension/v1">
            <gpxtpx:hr>111</gpxtpx:hr>
          </gpxtpx:TrackPointExtension>
        </extensions>
      </trkpt>
      <trkpt lat="48.63063" lon="1.9899">
        <ele>113.2</ele>
        <time>2025-11-16T12:18:54Z</time>
        <extensions>
          <gpxtpx:TrackPointExtension xmlns:gpxtpx="http://www.garmin.com/xmlschemas/TrackPointExtension/v1">
            <gpxtpx:hr>111</gpxtpx:hr>
          </gpxtpx:TrackPointExtension>
        </extensions>
      </trkpt>
      <trkpt lat="48.63065" lon="1.98991">
        <ele>113.2</ele>
        <time>2025-11-16T12:18:55Z</time>
        <extensions>
          <gpxtpx:TrackPointExtension xmlns:gpxtpx="http://www.garmin.com/xmlschemas/TrackPointExtension/v1">
            <gpxtpx:hr>111</gpxtpx:hr>
          </gpxtpx:TrackPointExtension>
        </extensions>
      </trkpt>
      <trkpt lat="48.63068" lon="1.98993">
        <ele>113.2</ele>
        <time>2025-11-16T12:18:57Z</time>
        <extensions>
          <gpxtpx:TrackPointExtension xmlns:gpxtpx="http://www.garmin.com/xmlschemas/TrackPointExtension/v1">
            <gpxtpx:hr>111</gpxtpx:hr>
          </gpxtpx:TrackPointExtension>
        </extensions>
      </trkpt>
      <trkpt lat="48.63071" lon="1.98995">
        <ele>113.2</ele>
        <time>2025-11-16T12:18:59Z</time>
        <extensions>
          <gpxtpx:TrackPointExtension xmlns:gpxtpx="http://www.garmin.com/xmlschemas/TrackPointExtension/v1">
            <gpxtpx:hr>110</gpxtpx:hr>
          </gpxtpx:TrackPointExtension>
        </extensions>
      </trkpt>
      <trkpt lat="48.63074" lon="1.98996">
        <ele>113.2</ele>
        <time>2025-11-16T12:19:01Z</time>
        <extensions>
          <gpxtpx:TrackPointExtension xmlns:gpxtpx="http://www.garmin.com/xmlschemas/TrackPointExtension/v1">
            <gpxtpx:hr>110</gpxtpx:hr>
          </gpxtpx:TrackPointExtension>
        </extensions>
      </trkpt>
      <trkpt lat="48.63076" lon="1.98997">
        <ele>113.2</ele>
        <time>2025-11-16T12:19:03Z</time>
        <extensions>
          <gpxtpx:TrackPointExtension xmlns:gpxtpx="http://www.garmin.com/xmlschemas/TrackPointExtension/v1">
            <gpxtpx:hr>110</gpxtpx:hr>
          </gpxtpx:TrackPointExtension>
        </extensions>
      </trkpt>
      <trkpt lat="48.63078" lon="1.98998">
        <ele>113.2</ele>
        <time>2025-11-16T12:19:05Z</time>
        <extensions>
          <gpxtpx:TrackPointExtension xmlns:gpxtpx="http://www.garmin.com/xmlschemas/TrackPointExtension/v1">
            <gpxtpx:hr>111</gpxtpx:hr>
          </gpxtpx:TrackPointExtension>
        </extensions>
      </trkpt>
      <trkpt lat="48.63081" lon="1.98999">
        <ele>113.2</ele>
        <time>2025-11-16T12:19:07Z</time>
        <extensions>
          <gpxtpx:TrackPointExtension xmlns:gpxtpx="http://www.garmin.com/xmlschemas/TrackPointExtension/v1">
            <gpxtpx:hr>111</gpxtpx:hr>
          </gpxtpx:TrackPointExtension>
        </extensions>
      </trkpt>
      <trkpt lat="48.63084" lon="1.99001">
        <ele>113.2</ele>
        <time>2025-11-16T12:19:09Z</time>
        <extensions>
          <gpxtpx:TrackPointExtension xmlns:gpxtpx="http://www.garmin.com/xmlschemas/TrackPointExtension/v1">
            <gpxtpx:hr>111</gpxtpx:hr>
          </gpxtpx:TrackPointExtension>
        </extensions>
      </trkpt>
      <trkpt lat="48.63085" lon="1.99002">
        <ele>113.2</ele>
        <time>2025-11-16T12:19:10Z</time>
        <extensions>
          <gpxtpx:TrackPointExtension xmlns:gpxtpx="http://www.garmin.com/xmlschemas/TrackPointExtension/v1">
            <gpxtpx:hr>111</gpxtpx:hr>
          </gpxtpx:TrackPointExtension>
        </extensions>
      </trkpt>
      <trkpt lat="48.63087" lon="1.99003">
        <ele>113.2</ele>
        <time>2025-11-16T12:19:11Z</time>
        <extensions>
          <gpxtpx:TrackPointExtension xmlns:gpxtpx="http://www.garmin.com/xmlschemas/TrackPointExtension/v1">
            <gpxtpx:hr>111</gpxtpx:hr>
          </gpxtpx:TrackPointExtension>
        </extensions>
      </trkpt>
      <trkpt lat="48.63089" lon="1.99004">
        <ele>113.2</ele>
        <time>2025-11-16T12:19:12Z</time>
        <extensions>
          <gpxtpx:TrackPointExtension xmlns:gpxtpx="http://www.garmin.com/xmlschemas/TrackPointExtension/v1">
            <gpxtpx:hr>111</gpxtpx:hr>
          </gpxtpx:TrackPointExtension>
        </extensions>
      </trkpt>
      <trkpt lat="48.63091" lon="1.99005">
        <ele>113.2</ele>
        <time>2025-11-16T12:19:13Z</time>
        <extensions>
          <gpxtpx:TrackPointExtension xmlns:gpxtpx="http://www.garmin.com/xmlschemas/TrackPointExtension/v1">
            <gpxtpx:hr>111</gpxtpx:hr>
          </gpxtpx:TrackPointExtension>
        </extensions>
      </trkpt>
      <trkpt lat="48.63093" lon="1.99006">
        <ele>113.2</ele>
        <time>2025-11-16T12:19:14Z</time>
        <extensions>
          <gpxtpx:TrackPointExtension xmlns:gpxtpx="http://www.garmin.com/xmlschemas/TrackPointExtension/v1">
            <gpxtpx:hr>111</gpxtpx:hr>
          </gpxtpx:TrackPointExtension>
        </extensions>
      </trkpt>
      <trkpt lat="48.63097" lon="1.99008">
        <ele>113.2</ele>
        <time>2025-11-16T12:19:16Z</time>
        <extensions>
          <gpxtpx:TrackPointExtension xmlns:gpxtpx="http://www.garmin.com/xmlschemas/TrackPointExtension/v1">
            <gpxtpx:hr>110</gpxtpx:hr>
          </gpxtpx:TrackPointExtension>
        </extensions>
      </trkpt>
      <trkpt lat="48.631" lon="1.99009">
        <ele>113.2</ele>
        <time>2025-11-16T12:19:18Z</time>
        <extensions>
          <gpxtpx:TrackPointExtension xmlns:gpxtpx="http://www.garmin.com/xmlschemas/TrackPointExtension/v1">
            <gpxtpx:hr>110</gpxtpx:hr>
          </gpxtpx:TrackPointExtension>
        </extensions>
      </trkpt>
      <trkpt lat="48.63103" lon="1.99011">
        <ele>113.2</ele>
        <time>2025-11-16T12:19:20Z</time>
        <extensions>
          <gpxtpx:TrackPointExtension xmlns:gpxtpx="http://www.garmin.com/xmlschemas/TrackPointExtension/v1">
            <gpxtpx:hr>110</gpxtpx:hr>
          </gpxtpx:TrackPointExtension>
        </extensions>
      </trkpt>
      <trkpt lat="48.63106" lon="1.99013">
        <ele>113.2</ele>
        <time>2025-11-16T12:19:22Z</time>
        <extensions>
          <gpxtpx:TrackPointExtension xmlns:gpxtpx="http://www.garmin.com/xmlschemas/TrackPointExtension/v1">
            <gpxtpx:hr>110</gpxtpx:hr>
          </gpxtpx:TrackPointExtension>
        </extensions>
      </trkpt>
      <trkpt lat="48.63108" lon="1.99014">
        <ele>113.2</ele>
        <time>2025-11-16T12:19:24Z</time>
        <extensions>
          <gpxtpx:TrackPointExtension xmlns:gpxtpx="http://www.garmin.com/xmlschemas/TrackPointExtension/v1">
            <gpxtpx:hr>110</gpxtpx:hr>
          </gpxtpx:TrackPointExtension>
        </extensions>
      </trkpt>
      <trkpt lat="48.63111" lon="1.99016">
        <ele>113.4</ele>
        <time>2025-11-16T12:19:26Z</time>
        <extensions>
          <gpxtpx:TrackPointExtension xmlns:gpxtpx="http://www.garmin.com/xmlschemas/TrackPointExtension/v1">
            <gpxtpx:hr>110</gpxtpx:hr>
          </gpxtpx:TrackPointExtension>
        </extensions>
      </trkpt>
      <trkpt lat="48.63115" lon="1.99017">
        <ele>113.4</ele>
        <time>2025-11-16T12:19:28Z</time>
        <extensions>
          <gpxtpx:TrackPointExtension xmlns:gpxtpx="http://www.garmin.com/xmlschemas/TrackPointExtension/v1">
            <gpxtpx:hr>110</gpxtpx:hr>
          </gpxtpx:TrackPointExtension>
        </extensions>
      </trkpt>
      <trkpt lat="48.63117" lon="1.99018">
        <ele>113.4</ele>
        <time>2025-11-16T12:19:30Z</time>
        <extensions>
          <gpxtpx:TrackPointExtension xmlns:gpxtpx="http://www.garmin.com/xmlschemas/TrackPointExtension/v1">
            <gpxtpx:hr>109</gpxtpx:hr>
          </gpxtpx:TrackPointExtension>
        </extensions>
      </trkpt>
      <trkpt lat="48.63119" lon="1.99019">
        <ele>113.4</ele>
        <time>2025-11-16T12:19:32Z</time>
        <extensions>
          <gpxtpx:TrackPointExtension xmlns:gpxtpx="http://www.garmin.com/xmlschemas/TrackPointExtension/v1">
            <gpxtpx:hr>109</gpxtpx:hr>
          </gpxtpx:TrackPointExtension>
        </extensions>
      </trkpt>
      <trkpt lat="48.63123" lon="1.99021">
        <ele>113.4</ele>
        <time>2025-11-16T12:19:34Z</time>
        <extensions>
          <gpxtpx:TrackPointExtension xmlns:gpxtpx="http://www.garmin.com/xmlschemas/TrackPointExtension/v1">
            <gpxtpx:hr>109</gpxtpx:hr>
          </gpxtpx:TrackPointExtension>
        </extensions>
      </trkpt>
      <trkpt lat="48.63124" lon="1.99022">
        <ele>113.4</ele>
        <time>2025-11-16T12:19:35Z</time>
        <extensions>
          <gpxtpx:TrackPointExtension xmlns:gpxtpx="http://www.garmin.com/xmlschemas/TrackPointExtension/v1">
            <gpxtpx:hr>109</gpxtpx:hr>
          </gpxtpx:TrackPointExtension>
        </extensions>
      </trkpt>
      <trkpt lat="48.63126" lon="1.99024">
        <ele>113.4</ele>
        <time>2025-11-16T12:19:36Z</time>
        <extensions>
          <gpxtpx:TrackPointExtension xmlns:gpxtpx="http://www.garmin.com/xmlschemas/TrackPointExtension/v1">
            <gpxtpx:hr>109</gpxtpx:hr>
          </gpxtpx:TrackPointExtension>
        </extensions>
      </trkpt>
      <trkpt lat="48.63129" lon="1.99027">
        <ele>113.6</ele>
        <time>2025-11-16T12:19:38Z</time>
        <extensions>
          <gpxtpx:TrackPointExtension xmlns:gpxtpx="http://www.garmin.com/xmlschemas/TrackPointExtension/v1">
            <gpxtpx:hr>109</gpxtpx:hr>
          </gpxtpx:TrackPointExtension>
        </extensions>
      </trkpt>
      <trkpt lat="48.6313" lon="1.99029">
        <ele>113.6</ele>
        <time>2025-11-16T12:19:39Z</time>
        <extensions>
          <gpxtpx:TrackPointExtension xmlns:gpxtpx="http://www.garmin.com/xmlschemas/TrackPointExtension/v1">
            <gpxtpx:hr>109</gpxtpx:hr>
          </gpxtpx:TrackPointExtension>
        </extensions>
      </trkpt>
      <trkpt lat="48.63132" lon="1.99034">
        <ele>113.6</ele>
        <time>2025-11-16T12:19:41Z</time>
        <extensions>
          <gpxtpx:TrackPointExtension xmlns:gpxtpx="http://www.garmin.com/xmlschemas/TrackPointExtension/v1">
            <gpxtpx:hr>109</gpxtpx:hr>
          </gpxtpx:TrackPointExtension>
        </extensions>
      </trkpt>
      <trkpt lat="48.63134" lon="1.99038">
        <ele>113.6</ele>
        <time>2025-11-16T12:19:43Z</time>
        <extensions>
          <gpxtpx:TrackPointExtension xmlns:gpxtpx="http://www.garmin.com/xmlschemas/TrackPointExtension/v1">
            <gpxtpx:hr>108</gpxtpx:hr>
          </gpxtpx:TrackPointExtension>
        </extensions>
      </trkpt>
      <trkpt lat="48.63135" lon="1.99042">
        <ele>113.8</ele>
        <time>2025-11-16T12:19:45Z</time>
        <extensions>
          <gpxtpx:TrackPointExtension xmlns:gpxtpx="http://www.garmin.com/xmlschemas/TrackPointExtension/v1">
            <gpxtpx:hr>108</gpxtpx:hr>
          </gpxtpx:TrackPointExtension>
        </extensions>
      </trkpt>
      <trkpt lat="48.63137" lon="1.99046">
        <ele>113.8</ele>
        <time>2025-11-16T12:19:47Z</time>
        <extensions>
          <gpxtpx:TrackPointExtension xmlns:gpxtpx="http://www.garmin.com/xmlschemas/TrackPointExtension/v1">
            <gpxtpx:hr>108</gpxtpx:hr>
          </gpxtpx:TrackPointExtension>
        </extensions>
      </trkpt>
      <trkpt lat="48.63138" lon="1.9905">
        <ele>114</ele>
        <time>2025-11-16T12:19:49Z</time>
        <extensions>
          <gpxtpx:TrackPointExtension xmlns:gpxtpx="http://www.garmin.com/xmlschemas/TrackPointExtension/v1">
            <gpxtpx:hr>108</gpxtpx:hr>
          </gpxtpx:TrackPointExtension>
        </extensions>
      </trkpt>
      <trkpt lat="48.63139" lon="1.99055">
        <ele>114.2</ele>
        <time>2025-11-16T12:19:51Z</time>
        <extensions>
          <gpxtpx:TrackPointExtension xmlns:gpxtpx="http://www.garmin.com/xmlschemas/TrackPointExtension/v1">
            <gpxtpx:hr>108</gpxtpx:hr>
          </gpxtpx:TrackPointExtension>
        </extensions>
      </trkpt>
      <trkpt lat="48.6314" lon="1.99059">
        <ele>114.4</ele>
        <time>2025-11-16T12:19:53Z</time>
        <extensions>
          <gpxtpx:TrackPointExtension xmlns:gpxtpx="http://www.garmin.com/xmlschemas/TrackPointExtension/v1">
            <gpxtpx:hr>108</gpxtpx:hr>
          </gpxtpx:TrackPointExtension>
        </extensions>
      </trkpt>
      <trkpt lat="48.63141" lon="1.99064">
        <ele>114.6</ele>
        <time>2025-11-16T12:19:55Z</time>
        <extensions>
          <gpxtpx:TrackPointExtension xmlns:gpxtpx="http://www.garmin.com/xmlschemas/TrackPointExtension/v1">
            <gpxtpx:hr>108</gpxtpx:hr>
          </gpxtpx:TrackPointExtension>
        </extensions>
      </trkpt>
      <trkpt lat="48.63142" lon="1.99068">
        <ele>114.8</ele>
        <time>2025-11-16T12:19:57Z</time>
        <extensions>
          <gpxtpx:TrackPointExtension xmlns:gpxtpx="http://www.garmin.com/xmlschemas/TrackPointExtension/v1">
            <gpxtpx:hr>108</gpxtpx:hr>
          </gpxtpx:TrackPointExtension>
        </extensions>
      </trkpt>
      <trkpt lat="48.63142" lon="1.99073">
        <ele>115</ele>
        <time>2025-11-16T12:19:59Z</time>
        <extensions>
          <gpxtpx:TrackPointExtension xmlns:gpxtpx="http://www.garmin.com/xmlschemas/TrackPointExtension/v1">
            <gpxtpx:hr>108</gpxtpx:hr>
          </gpxtpx:TrackPointExtension>
        </extensions>
      </trkpt>
      <trkpt lat="48.63142" lon="1.99079">
        <ele>115.2</ele>
        <time>2025-11-16T12:20:01Z</time>
        <extensions>
          <gpxtpx:TrackPointExtension xmlns:gpxtpx="http://www.garmin.com/xmlschemas/TrackPointExtension/v1">
            <gpxtpx:hr>109</gpxtpx:hr>
          </gpxtpx:TrackPointExtension>
        </extensions>
      </trkpt>
      <trkpt lat="48.63141" lon="1.99084">
        <ele>115.4</ele>
        <time>2025-11-16T12:20:03Z</time>
        <extensions>
          <gpxtpx:TrackPointExtension xmlns:gpxtpx="http://www.garmin.com/xmlschemas/TrackPointExtension/v1">
            <gpxtpx:hr>109</gpxtpx:hr>
          </gpxtpx:TrackPointExtension>
        </extensions>
      </trkpt>
      <trkpt lat="48.63139" lon="1.99088">
        <ele>115.6</ele>
        <time>2025-11-16T12:20:05Z</time>
        <extensions>
          <gpxtpx:TrackPointExtension xmlns:gpxtpx="http://www.garmin.com/xmlschemas/TrackPointExtension/v1">
            <gpxtpx:hr>109</gpxtpx:hr>
          </gpxtpx:TrackPointExtension>
        </extensions>
      </trkpt>
      <trkpt lat="48.63137" lon="1.99092">
        <ele>115.6</ele>
        <time>2025-11-16T12:20:07Z</time>
        <extensions>
          <gpxtpx:TrackPointExtension xmlns:gpxtpx="http://www.garmin.com/xmlschemas/TrackPointExtension/v1">
            <gpxtpx:hr>109</gpxtpx:hr>
          </gpxtpx:TrackPointExtension>
        </extensions>
      </trkpt>
      <trkpt lat="48.63135" lon="1.99097">
        <ele>116</ele>
        <time>2025-11-16T12:20:09Z</time>
        <extensions>
          <gpxtpx:TrackPointExtension xmlns:gpxtpx="http://www.garmin.com/xmlschemas/TrackPointExtension/v1">
            <gpxtpx:hr>109</gpxtpx:hr>
          </gpxtpx:TrackPointExtension>
        </extensions>
      </trkpt>
      <trkpt lat="48.63133" lon="1.99099">
        <ele>116</ele>
        <time>2025-11-16T12:20:10Z</time>
        <extensions>
          <gpxtpx:TrackPointExtension xmlns:gpxtpx="http://www.garmin.com/xmlschemas/TrackPointExtension/v1">
            <gpxtpx:hr>109</gpxtpx:hr>
          </gpxtpx:TrackPointExtension>
        </extensions>
      </trkpt>
      <trkpt lat="48.63132" lon="1.99102">
        <ele>116.2</ele>
        <time>2025-11-16T12:20:11Z</time>
        <extensions>
          <gpxtpx:TrackPointExtension xmlns:gpxtpx="http://www.garmin.com/xmlschemas/TrackPointExtension/v1">
            <gpxtpx:hr>109</gpxtpx:hr>
          </gpxtpx:TrackPointExtension>
        </extensions>
      </trkpt>
      <trkpt lat="48.63131" lon="1.99104">
        <ele>116.2</ele>
        <time>2025-11-16T12:20:12Z</time>
        <extensions>
          <gpxtpx:TrackPointExtension xmlns:gpxtpx="http://www.garmin.com/xmlschemas/TrackPointExtension/v1">
            <gpxtpx:hr>109</gpxtpx:hr>
          </gpxtpx:TrackPointExtension>
        </extensions>
      </trkpt>
      <trkpt lat="48.63129" lon="1.99108">
        <ele>116.6</ele>
        <time>2025-11-16T12:20:14Z</time>
        <extensions>
          <gpxtpx:TrackPointExtension xmlns:gpxtpx="http://www.garmin.com/xmlschemas/TrackPointExtension/v1">
            <gpxtpx:hr>109</gpxtpx:hr>
          </gpxtpx:TrackPointExtension>
        </extensions>
      </trkpt>
      <trkpt lat="48.63127" lon="1.99112">
        <ele>116.8</ele>
        <time>2025-11-16T12:20:16Z</time>
        <extensions>
          <gpxtpx:TrackPointExtension xmlns:gpxtpx="http://www.garmin.com/xmlschemas/TrackPointExtension/v1">
            <gpxtpx:hr>109</gpxtpx:hr>
          </gpxtpx:TrackPointExtension>
        </extensions>
      </trkpt>
      <trkpt lat="48.63126" lon="1.99116">
        <ele>117</ele>
        <time>2025-11-16T12:20:18Z</time>
        <extensions>
          <gpxtpx:TrackPointExtension xmlns:gpxtpx="http://www.garmin.com/xmlschemas/TrackPointExtension/v1">
            <gpxtpx:hr>109</gpxtpx:hr>
          </gpxtpx:TrackPointExtension>
        </extensions>
      </trkpt>
      <trkpt lat="48.63124" lon="1.99119">
        <ele>117.2</ele>
        <time>2025-11-16T12:20:20Z</time>
        <extensions>
          <gpxtpx:TrackPointExtension xmlns:gpxtpx="http://www.garmin.com/xmlschemas/TrackPointExtension/v1">
            <gpxtpx:hr>109</gpxtpx:hr>
          </gpxtpx:TrackPointExtension>
        </extensions>
      </trkpt>
      <trkpt lat="48.63122" lon="1.99122">
        <ele>117.4</ele>
        <time>2025-11-16T12:20:22Z</time>
        <extensions>
          <gpxtpx:TrackPointExtension xmlns:gpxtpx="http://www.garmin.com/xmlschemas/TrackPointExtension/v1">
            <gpxtpx:hr>109</gpxtpx:hr>
          </gpxtpx:TrackPointExtension>
        </extensions>
      </trkpt>
      <trkpt lat="48.63119" lon="1.99125">
        <ele>117.6</ele>
        <time>2025-11-16T12:20:24Z</time>
        <extensions>
          <gpxtpx:TrackPointExtension xmlns:gpxtpx="http://www.garmin.com/xmlschemas/TrackPointExtension/v1">
            <gpxtpx:hr>109</gpxtpx:hr>
          </gpxtpx:TrackPointExtension>
        </extensions>
      </trkpt>
      <trkpt lat="48.63117" lon="1.99128">
        <ele>117.8</ele>
        <time>2025-11-16T12:20:26Z</time>
        <extensions>
          <gpxtpx:TrackPointExtension xmlns:gpxtpx="http://www.garmin.com/xmlschemas/TrackPointExtension/v1">
            <gpxtpx:hr>109</gpxtpx:hr>
          </gpxtpx:TrackPointExtension>
        </extensions>
      </trkpt>
      <trkpt lat="48.63115" lon="1.99131">
        <ele>118</ele>
        <time>2025-11-16T12:20:28Z</time>
        <extensions>
          <gpxtpx:TrackPointExtension xmlns:gpxtpx="http://www.garmin.com/xmlschemas/TrackPointExtension/v1">
            <gpxtpx:hr>109</gpxtpx:hr>
          </gpxtpx:TrackPointExtension>
        </extensions>
      </trkpt>
      <trkpt lat="48.63113" lon="1.99134">
        <ele>118.4</ele>
        <time>2025-11-16T12:20:30Z</time>
        <extensions>
          <gpxtpx:TrackPointExtension xmlns:gpxtpx="http://www.garmin.com/xmlschemas/TrackPointExtension/v1">
            <gpxtpx:hr>109</gpxtpx:hr>
          </gpxtpx:TrackPointExtension>
        </extensions>
      </trkpt>
      <trkpt lat="48.63111" lon="1.99137">
        <ele>118.6</ele>
        <time>2025-11-16T12:20:32Z</time>
        <extensions>
          <gpxtpx:TrackPointExtension xmlns:gpxtpx="http://www.garmin.com/xmlschemas/TrackPointExtension/v1">
            <gpxtpx:hr>109</gpxtpx:hr>
          </gpxtpx:TrackPointExtension>
        </extensions>
      </trkpt>
      <trkpt lat="48.63109" lon="1.99141">
        <ele>119</ele>
        <time>2025-11-16T12:20:34Z</time>
        <extensions>
          <gpxtpx:TrackPointExtension xmlns:gpxtpx="http://www.garmin.com/xmlschemas/TrackPointExtension/v1">
            <gpxtpx:hr>109</gpxtpx:hr>
          </gpxtpx:TrackPointExtension>
        </extensions>
      </trkpt>
      <trkpt lat="48.63107" lon="1.99145">
        <ele>119.6</ele>
        <time>2025-11-16T12:20:36Z</time>
        <extensions>
          <gpxtpx:TrackPointExtension xmlns:gpxtpx="http://www.garmin.com/xmlschemas/TrackPointExtension/v1">
            <gpxtpx:hr>109</gpxtpx:hr>
          </gpxtpx:TrackPointExtension>
        </extensions>
      </trkpt>
      <trkpt lat="48.63105" lon="1.99149">
        <ele>119.8</ele>
        <time>2025-11-16T12:20:38Z</time>
        <extensions>
          <gpxtpx:TrackPointExtension xmlns:gpxtpx="http://www.garmin.com/xmlschemas/TrackPointExtension/v1">
            <gpxtpx:hr>109</gpxtpx:hr>
          </gpxtpx:TrackPointExtension>
        </extensions>
      </trkpt>
      <trkpt lat="48.63103" lon="1.99153">
        <ele>120.2</ele>
        <time>2025-11-16T12:20:40Z</time>
        <extensions>
          <gpxtpx:TrackPointExtension xmlns:gpxtpx="http://www.garmin.com/xmlschemas/TrackPointExtension/v1">
            <gpxtpx:hr>109</gpxtpx:hr>
          </gpxtpx:TrackPointExtension>
        </extensions>
      </trkpt>
      <trkpt lat="48.63101" lon="1.99157">
        <ele>120.6</ele>
        <time>2025-11-16T12:20:42Z</time>
        <extensions>
          <gpxtpx:TrackPointExtension xmlns:gpxtpx="http://www.garmin.com/xmlschemas/TrackPointExtension/v1">
            <gpxtpx:hr>109</gpxtpx:hr>
          </gpxtpx:TrackPointExtension>
        </extensions>
      </trkpt>
      <trkpt lat="48.631" lon="1.99162">
        <ele>121</ele>
        <time>2025-11-16T12:20:44Z</time>
        <extensions>
          <gpxtpx:TrackPointExtension xmlns:gpxtpx="http://www.garmin.com/xmlschemas/TrackPointExtension/v1">
            <gpxtpx:hr>109</gpxtpx:hr>
          </gpxtpx:TrackPointExtension>
        </extensions>
      </trkpt>
      <trkpt lat="48.63098" lon="1.99167">
        <ele>121.2</ele>
        <time>2025-11-16T12:20:46Z</time>
        <extensions>
          <gpxtpx:TrackPointExtension xmlns:gpxtpx="http://www.garmin.com/xmlschemas/TrackPointExtension/v1">
            <gpxtpx:hr>109</gpxtpx:hr>
          </gpxtpx:TrackPointExtension>
        </extensions>
      </trkpt>
      <trkpt lat="48.63097" lon="1.99169">
        <ele>121.2</ele>
        <time>2025-11-16T12:20:47Z</time>
        <extensions>
          <gpxtpx:TrackPointExtension xmlns:gpxtpx="http://www.garmin.com/xmlschemas/TrackPointExtension/v1">
            <gpxtpx:hr>109</gpxtpx:hr>
          </gpxtpx:TrackPointExtension>
        </extensions>
      </trkpt>
      <trkpt lat="48.63096" lon="1.99174">
        <ele>121.4</ele>
        <time>2025-11-16T12:20:49Z</time>
        <extensions>
          <gpxtpx:TrackPointExtension xmlns:gpxtpx="http://www.garmin.com/xmlschemas/TrackPointExtension/v1">
            <gpxtpx:hr>109</gpxtpx:hr>
          </gpxtpx:TrackPointExtension>
        </extensions>
      </trkpt>
      <trkpt lat="48.63094" lon="1.99178">
        <ele>121.6</ele>
        <time>2025-11-16T12:20:51Z</time>
        <extensions>
          <gpxtpx:TrackPointExtension xmlns:gpxtpx="http://www.garmin.com/xmlschemas/TrackPointExtension/v1">
            <gpxtpx:hr>109</gpxtpx:hr>
          </gpxtpx:TrackPointExtension>
        </extensions>
      </trkpt>
      <trkpt lat="48.63093" lon="1.99181">
        <ele>121.6</ele>
        <time>2025-11-16T12:20:52Z</time>
        <extensions>
          <gpxtpx:TrackPointExtension xmlns:gpxtpx="http://www.garmin.com/xmlschemas/TrackPointExtension/v1">
            <gpxtpx:hr>109</gpxtpx:hr>
          </gpxtpx:TrackPointExtension>
        </extensions>
      </trkpt>
      <trkpt lat="48.63093" lon="1.99184">
        <ele>121.8</ele>
        <time>2025-11-16T12:20:53Z</time>
        <extensions>
          <gpxtpx:TrackPointExtension xmlns:gpxtpx="http://www.garmin.com/xmlschemas/TrackPointExtension/v1">
            <gpxtpx:hr>110</gpxtpx:hr>
          </gpxtpx:TrackPointExtension>
        </extensions>
      </trkpt>
      <trkpt lat="48.63092" lon="1.99188">
        <ele>121.8</ele>
        <time>2025-11-16T12:20:54Z</time>
        <extensions>
          <gpxtpx:TrackPointExtension xmlns:gpxtpx="http://www.garmin.com/xmlschemas/TrackPointExtension/v1">
            <gpxtpx:hr>110</gpxtpx:hr>
          </gpxtpx:TrackPointExtension>
        </extensions>
      </trkpt>
      <trkpt lat="48.63092" lon="1.99192">
        <ele>121.8</ele>
        <time>2025-11-16T12:20:55Z</time>
        <extensions>
          <gpxtpx:TrackPointExtension xmlns:gpxtpx="http://www.garmin.com/xmlschemas/TrackPointExtension/v1">
            <gpxtpx:hr>110</gpxtpx:hr>
          </gpxtpx:TrackPointExtension>
        </extensions>
      </trkpt>
      <trkpt lat="48.63091" lon="1.99196">
        <ele>122</ele>
        <time>2025-11-16T12:20:56Z</time>
        <extensions>
          <gpxtpx:TrackPointExtension xmlns:gpxtpx="http://www.garmin.com/xmlschemas/TrackPointExtension/v1">
            <gpxtpx:hr>111</gpxtpx:hr>
          </gpxtpx:TrackPointExtension>
        </extensions>
      </trkpt>
      <trkpt lat="48.6309" lon="1.992">
        <ele>122</ele>
        <time>2025-11-16T12:20:57Z</time>
        <extensions>
          <gpxtpx:TrackPointExtension xmlns:gpxtpx="http://www.garmin.com/xmlschemas/TrackPointExtension/v1">
            <gpxtpx:hr>112</gpxtpx:hr>
          </gpxtpx:TrackPointExtension>
        </extensions>
      </trkpt>
      <trkpt lat="48.63089" lon="1.99205">
        <ele>122</ele>
        <time>2025-11-16T12:20:58Z</time>
        <extensions>
          <gpxtpx:TrackPointExtension xmlns:gpxtpx="http://www.garmin.com/xmlschemas/TrackPointExtension/v1">
            <gpxtpx:hr>112</gpxtpx:hr>
          </gpxtpx:TrackPointExtension>
        </extensions>
      </trkpt>
      <trkpt lat="48.63088" lon="1.99209">
        <ele>122</ele>
        <time>2025-11-16T12:20:59Z</time>
        <extensions>
          <gpxtpx:TrackPointExtension xmlns:gpxtpx="http://www.garmin.com/xmlschemas/TrackPointExtension/v1">
            <gpxtpx:hr>113</gpxtpx:hr>
          </gpxtpx:TrackPointExtension>
        </extensions>
      </trkpt>
      <trkpt lat="48.63087" lon="1.99214">
        <ele>122</ele>
        <time>2025-11-16T12:21:00Z</time>
        <extensions>
          <gpxtpx:TrackPointExtension xmlns:gpxtpx="http://www.garmin.com/xmlschemas/TrackPointExtension/v1">
            <gpxtpx:hr>114</gpxtpx:hr>
          </gpxtpx:TrackPointExtension>
        </extensions>
      </trkpt>
      <trkpt lat="48.63085" lon="1.99219">
        <ele>122</ele>
        <time>2025-11-16T12:21:01Z</time>
        <extensions>
          <gpxtpx:TrackPointExtension xmlns:gpxtpx="http://www.garmin.com/xmlschemas/TrackPointExtension/v1">
            <gpxtpx:hr>115</gpxtpx:hr>
          </gpxtpx:TrackPointExtension>
        </extensions>
      </trkpt>
      <trkpt lat="48.63084" lon="1.99225">
        <ele>122</ele>
        <time>2025-11-16T12:21:02Z</time>
        <extensions>
          <gpxtpx:TrackPointExtension xmlns:gpxtpx="http://www.garmin.com/xmlschemas/TrackPointExtension/v1">
            <gpxtpx:hr>116</gpxtpx:hr>
          </gpxtpx:TrackPointExtension>
        </extensions>
      </trkpt>
      <trkpt lat="48.63082" lon="1.99231">
        <ele>122</ele>
        <time>2025-11-16T12:21:03Z</time>
        <extensions>
          <gpxtpx:TrackPointExtension xmlns:gpxtpx="http://www.garmin.com/xmlschemas/TrackPointExtension/v1">
            <gpxtpx:hr>117</gpxtpx:hr>
          </gpxtpx:TrackPointExtension>
        </extensions>
      </trkpt>
      <trkpt lat="48.63081" lon="1.99236">
        <ele>122.2</ele>
        <time>2025-11-16T12:21:04Z</time>
        <extensions>
          <gpxtpx:TrackPointExtension xmlns:gpxtpx="http://www.garmin.com/xmlschemas/TrackPointExtension/v1">
            <gpxtpx:hr>117</gpxtpx:hr>
          </gpxtpx:TrackPointExtension>
        </extensions>
      </trkpt>
      <trkpt lat="48.63079" lon="1.99242">
        <ele>122.2</ele>
        <time>2025-11-16T12:21:05Z</time>
        <extensions>
          <gpxtpx:TrackPointExtension xmlns:gpxtpx="http://www.garmin.com/xmlschemas/TrackPointExtension/v1">
            <gpxtpx:hr>117</gpxtpx:hr>
          </gpxtpx:TrackPointExtension>
        </extensions>
      </trkpt>
      <trkpt lat="48.63077" lon="1.99247">
        <ele>122.2</ele>
        <time>2025-11-16T12:21:06Z</time>
        <extensions>
          <gpxtpx:TrackPointExtension xmlns:gpxtpx="http://www.garmin.com/xmlschemas/TrackPointExtension/v1">
            <gpxtpx:hr>117</gpxtpx:hr>
          </gpxtpx:TrackPointExtension>
        </extensions>
      </trkpt>
      <trkpt lat="48.63076" lon="1.99252">
        <ele>122.2</ele>
        <time>2025-11-16T12:21:07Z</time>
        <extensions>
          <gpxtpx:TrackPointExtension xmlns:gpxtpx="http://www.garmin.com/xmlschemas/TrackPointExtension/v1">
            <gpxtpx:hr>117</gpxtpx:hr>
          </gpxtpx:TrackPointExtension>
        </extensions>
      </trkpt>
      <trkpt lat="48.63075" lon="1.99257">
        <ele>122.4</ele>
        <time>2025-11-16T12:21:08Z</time>
        <extensions>
          <gpxtpx:TrackPointExtension xmlns:gpxtpx="http://www.garmin.com/xmlschemas/TrackPointExtension/v1">
            <gpxtpx:hr>118</gpxtpx:hr>
          </gpxtpx:TrackPointExtension>
        </extensions>
      </trkpt>
      <trkpt lat="48.63073" lon="1.99262">
        <ele>122.4</ele>
        <time>2025-11-16T12:21:09Z</time>
        <extensions>
          <gpxtpx:TrackPointExtension xmlns:gpxtpx="http://www.garmin.com/xmlschemas/TrackPointExtension/v1">
            <gpxtpx:hr>118</gpxtpx:hr>
          </gpxtpx:TrackPointExtension>
        </extensions>
      </trkpt>
      <trkpt lat="48.63072" lon="1.99267">
        <ele>122.4</ele>
        <time>2025-11-16T12:21:10Z</time>
        <extensions>
          <gpxtpx:TrackPointExtension xmlns:gpxtpx="http://www.garmin.com/xmlschemas/TrackPointExtension/v1">
            <gpxtpx:hr>118</gpxtpx:hr>
          </gpxtpx:TrackPointExtension>
        </extensions>
      </trkpt>
      <trkpt lat="48.63071" lon="1.99272">
        <ele>122.4</ele>
        <time>2025-11-16T12:21:11Z</time>
        <extensions>
          <gpxtpx:TrackPointExtension xmlns:gpxtpx="http://www.garmin.com/xmlschemas/TrackPointExtension/v1">
            <gpxtpx:hr>118</gpxtpx:hr>
          </gpxtpx:TrackPointExtension>
        </extensions>
      </trkpt>
      <trkpt lat="48.6307" lon="1.99277">
        <ele>122.6</ele>
        <time>2025-11-16T12:21:12Z</time>
        <extensions>
          <gpxtpx:TrackPointExtension xmlns:gpxtpx="http://www.garmin.com/xmlschemas/TrackPointExtension/v1">
            <gpxtpx:hr>118</gpxtpx:hr>
          </gpxtpx:TrackPointExtension>
        </extensions>
      </trkpt>
      <trkpt lat="48.63069" lon="1.99282">
        <ele>122.6</ele>
        <time>2025-11-16T12:21:13Z</time>
        <extensions>
          <gpxtpx:TrackPointExtension xmlns:gpxtpx="http://www.garmin.com/xmlschemas/TrackPointExtension/v1">
            <gpxtpx:hr>119</gpxtpx:hr>
          </gpxtpx:TrackPointExtension>
        </extensions>
      </trkpt>
      <trkpt lat="48.63068" lon="1.99286">
        <ele>122.6</ele>
        <time>2025-11-16T12:21:14Z</time>
        <extensions>
          <gpxtpx:TrackPointExtension xmlns:gpxtpx="http://www.garmin.com/xmlschemas/TrackPointExtension/v1">
            <gpxtpx:hr>119</gpxtpx:hr>
          </gpxtpx:TrackPointExtension>
        </extensions>
      </trkpt>
      <trkpt lat="48.63067" lon="1.99291">
        <ele>122.8</ele>
        <time>2025-11-16T12:21:15Z</time>
        <extensions>
          <gpxtpx:TrackPointExtension xmlns:gpxtpx="http://www.garmin.com/xmlschemas/TrackPointExtension/v1">
            <gpxtpx:hr>119</gpxtpx:hr>
          </gpxtpx:TrackPointExtension>
        </extensions>
      </trkpt>
      <trkpt lat="48.63066" lon="1.99295">
        <ele>122.8</ele>
        <time>2025-11-16T12:21:16Z</time>
        <extensions>
          <gpxtpx:TrackPointExtension xmlns:gpxtpx="http://www.garmin.com/xmlschemas/TrackPointExtension/v1">
            <gpxtpx:hr>119</gpxtpx:hr>
          </gpxtpx:TrackPointExtension>
        </extensions>
      </trkpt>
      <trkpt lat="48.63065" lon="1.99299">
        <ele>122.8</ele>
        <time>2025-11-16T12:21:17Z</time>
        <extensions>
          <gpxtpx:TrackPointExtension xmlns:gpxtpx="http://www.garmin.com/xmlschemas/TrackPointExtension/v1">
            <gpxtpx:hr>119</gpxtpx:hr>
          </gpxtpx:TrackPointExtension>
        </extensions>
      </trkpt>
      <trkpt lat="48.63064" lon="1.99303">
        <ele>122.8</ele>
        <time>2025-11-16T12:21:18Z</time>
        <extensions>
          <gpxtpx:TrackPointExtension xmlns:gpxtpx="http://www.garmin.com/xmlschemas/TrackPointExtension/v1">
            <gpxtpx:hr>120</gpxtpx:hr>
          </gpxtpx:TrackPointExtension>
        </extensions>
      </trkpt>
      <trkpt lat="48.63063" lon="1.99307">
        <ele>122.6</ele>
        <time>2025-11-16T12:21:19Z</time>
        <extensions>
          <gpxtpx:TrackPointExtension xmlns:gpxtpx="http://www.garmin.com/xmlschemas/TrackPointExtension/v1">
            <gpxtpx:hr>120</gpxtpx:hr>
          </gpxtpx:TrackPointExtension>
        </extensions>
      </trkpt>
      <trkpt lat="48.63061" lon="1.99312">
        <ele>122.6</ele>
        <time>2025-11-16T12:21:20Z</time>
        <extensions>
          <gpxtpx:TrackPointExtension xmlns:gpxtpx="http://www.garmin.com/xmlschemas/TrackPointExtension/v1">
            <gpxtpx:hr>120</gpxtpx:hr>
          </gpxtpx:TrackPointExtension>
        </extensions>
      </trkpt>
      <trkpt lat="48.6306" lon="1.99316">
        <ele>122.6</ele>
        <time>2025-11-16T12:21:21Z</time>
        <extensions>
          <gpxtpx:TrackPointExtension xmlns:gpxtpx="http://www.garmin.com/xmlschemas/TrackPointExtension/v1">
            <gpxtpx:hr>120</gpxtpx:hr>
          </gpxtpx:TrackPointExtension>
        </extensions>
      </trkpt>
      <trkpt lat="48.63059" lon="1.99321">
        <ele>122.6</ele>
        <time>2025-11-16T12:21:22Z</time>
        <extensions>
          <gpxtpx:TrackPointExtension xmlns:gpxtpx="http://www.garmin.com/xmlschemas/TrackPointExtension/v1">
            <gpxtpx:hr>120</gpxtpx:hr>
          </gpxtpx:TrackPointExtension>
        </extensions>
      </trkpt>
      <trkpt lat="48.63057" lon="1.99326">
        <ele>122.6</ele>
        <time>2025-11-16T12:21:23Z</time>
        <extensions>
          <gpxtpx:TrackPointExtension xmlns:gpxtpx="http://www.garmin.com/xmlschemas/TrackPointExtension/v1">
            <gpxtpx:hr>120</gpxtpx:hr>
          </gpxtpx:TrackPointExtension>
        </extensions>
      </trkpt>
      <trkpt lat="48.63055" lon="1.99331">
        <ele>122.6</ele>
        <time>2025-11-16T12:21:24Z</time>
        <extensions>
          <gpxtpx:TrackPointExtension xmlns:gpxtpx="http://www.garmin.com/xmlschemas/TrackPointExtension/v1">
            <gpxtpx:hr>121</gpxtpx:hr>
          </gpxtpx:TrackPointExtension>
        </extensions>
      </trkpt>
      <trkpt lat="48.63053" lon="1.99336">
        <ele>122.6</ele>
        <time>2025-11-16T12:21:25Z</time>
        <extensions>
          <gpxtpx:TrackPointExtension xmlns:gpxtpx="http://www.garmin.com/xmlschemas/TrackPointExtension/v1">
            <gpxtpx:hr>121</gpxtpx:hr>
          </gpxtpx:TrackPointExtension>
        </extensions>
      </trkpt>
      <trkpt lat="48.63051" lon="1.99341">
        <ele>122.6</ele>
        <time>2025-11-16T12:21:26Z</time>
        <extensions>
          <gpxtpx:TrackPointExtension xmlns:gpxtpx="http://www.garmin.com/xmlschemas/TrackPointExtension/v1">
            <gpxtpx:hr>121</gpxtpx:hr>
          </gpxtpx:TrackPointExtension>
        </extensions>
      </trkpt>
      <trkpt lat="48.6305" lon="1.99346">
        <ele>122.4</ele>
        <time>2025-11-16T12:21:27Z</time>
        <extensions>
          <gpxtpx:TrackPointExtension xmlns:gpxtpx="http://www.garmin.com/xmlschemas/TrackPointExtension/v1">
            <gpxtpx:hr>121</gpxtpx:hr>
          </gpxtpx:TrackPointExtension>
        </extensions>
      </trkpt>
      <trkpt lat="48.63048" lon="1.99351">
        <ele>122.4</ele>
        <time>2025-11-16T12:21:28Z</time>
        <extensions>
          <gpxtpx:TrackPointExtension xmlns:gpxtpx="http://www.garmin.com/xmlschemas/TrackPointExtension/v1">
            <gpxtpx:hr>121</gpxtpx:hr>
          </gpxtpx:TrackPointExtension>
        </extensions>
      </trkpt>
      <trkpt lat="48.63046" lon="1.99356">
        <ele>122.6</ele>
        <time>2025-11-16T12:21:29Z</time>
        <extensions>
          <gpxtpx:TrackPointExtension xmlns:gpxtpx="http://www.garmin.com/xmlschemas/TrackPointExtension/v1">
            <gpxtpx:hr>121</gpxtpx:hr>
          </gpxtpx:TrackPointExtension>
        </extensions>
      </trkpt>
      <trkpt lat="48.63045" lon="1.99361">
        <ele>122.6</ele>
        <time>2025-11-16T12:21:30Z</time>
        <extensions>
          <gpxtpx:TrackPointExtension xmlns:gpxtpx="http://www.garmin.com/xmlschemas/TrackPointExtension/v1">
            <gpxtpx:hr>121</gpxtpx:hr>
          </gpxtpx:TrackPointExtension>
        </extensions>
      </trkpt>
      <trkpt lat="48.63043" lon="1.99366">
        <ele>122.6</ele>
        <time>2025-11-16T12:21:31Z</time>
        <extensions>
          <gpxtpx:TrackPointExtension xmlns:gpxtpx="http://www.garmin.com/xmlschemas/TrackPointExtension/v1">
            <gpxtpx:hr>121</gpxtpx:hr>
          </gpxtpx:TrackPointExtension>
        </extensions>
      </trkpt>
      <trkpt lat="48.63041" lon="1.9937">
        <ele>122.8</ele>
        <time>2025-11-16T12:21:32Z</time>
        <extensions>
          <gpxtpx:TrackPointExtension xmlns:gpxtpx="http://www.garmin.com/xmlschemas/TrackPointExtension/v1">
            <gpxtpx:hr>122</gpxtpx:hr>
          </gpxtpx:TrackPointExtension>
        </extensions>
      </trkpt>
      <trkpt lat="48.63039" lon="1.99375">
        <ele>122.8</ele>
        <time>2025-11-16T12:21:33Z</time>
        <extensions>
          <gpxtpx:TrackPointExtension xmlns:gpxtpx="http://www.garmin.com/xmlschemas/TrackPointExtension/v1">
            <gpxtpx:hr>122</gpxtpx:hr>
          </gpxtpx:TrackPointExtension>
        </extensions>
      </trkpt>
      <trkpt lat="48.63037" lon="1.9938">
        <ele>122.8</ele>
        <time>2025-11-16T12:21:34Z</time>
        <extensions>
          <gpxtpx:TrackPointExtension xmlns:gpxtpx="http://www.garmin.com/xmlschemas/TrackPointExtension/v1">
            <gpxtpx:hr>122</gpxtpx:hr>
          </gpxtpx:TrackPointExtension>
        </extensions>
      </trkpt>
      <trkpt lat="48.63036" lon="1.99384">
        <ele>122.8</ele>
        <time>2025-11-16T12:21:35Z</time>
        <extensions>
          <gpxtpx:TrackPointExtension xmlns:gpxtpx="http://www.garmin.com/xmlschemas/TrackPointExtension/v1">
            <gpxtpx:hr>122</gpxtpx:hr>
          </gpxtpx:TrackPointExtension>
        </extensions>
      </trkpt>
      <trkpt lat="48.63033" lon="1.99389">
        <ele>122.8</ele>
        <time>2025-11-16T12:21:36Z</time>
        <extensions>
          <gpxtpx:TrackPointExtension xmlns:gpxtpx="http://www.garmin.com/xmlschemas/TrackPointExtension/v1">
            <gpxtpx:hr>122</gpxtpx:hr>
          </gpxtpx:TrackPointExtension>
        </extensions>
      </trkpt>
      <trkpt lat="48.63031" lon="1.99393">
        <ele>123</ele>
        <time>2025-11-16T12:21:37Z</time>
        <extensions>
          <gpxtpx:TrackPointExtension xmlns:gpxtpx="http://www.garmin.com/xmlschemas/TrackPointExtension/v1">
            <gpxtpx:hr>122</gpxtpx:hr>
          </gpxtpx:TrackPointExtension>
        </extensions>
      </trkpt>
      <trkpt lat="48.63029" lon="1.99397">
        <ele>123</ele>
        <time>2025-11-16T12:21:38Z</time>
        <extensions>
          <gpxtpx:TrackPointExtension xmlns:gpxtpx="http://www.garmin.com/xmlschemas/TrackPointExtension/v1">
            <gpxtpx:hr>123</gpxtpx:hr>
          </gpxtpx:TrackPointExtension>
        </extensions>
      </trkpt>
      <trkpt lat="48.63027" lon="1.99401">
        <ele>123</ele>
        <time>2025-11-16T12:21:39Z</time>
        <extensions>
          <gpxtpx:TrackPointExtension xmlns:gpxtpx="http://www.garmin.com/xmlschemas/TrackPointExtension/v1">
            <gpxtpx:hr>123</gpxtpx:hr>
          </gpxtpx:TrackPointExtension>
        </extensions>
      </trkpt>
      <trkpt lat="48.63025" lon="1.99405">
        <ele>123.2</ele>
        <time>2025-11-16T12:21:40Z</time>
        <extensions>
          <gpxtpx:TrackPointExtension xmlns:gpxtpx="http://www.garmin.com/xmlschemas/TrackPointExtension/v1">
            <gpxtpx:hr>123</gpxtpx:hr>
          </gpxtpx:TrackPointExtension>
        </extensions>
      </trkpt>
      <trkpt lat="48.63022" lon="1.99409">
        <ele>123.2</ele>
        <time>2025-11-16T12:21:41Z</time>
        <extensions>
          <gpxtpx:TrackPointExtension xmlns:gpxtpx="http://www.garmin.com/xmlschemas/TrackPointExtension/v1">
            <gpxtpx:hr>123</gpxtpx:hr>
          </gpxtpx:TrackPointExtension>
        </extensions>
      </trkpt>
      <trkpt lat="48.6302" lon="1.99412">
        <ele>123.2</ele>
        <time>2025-11-16T12:21:42Z</time>
        <extensions>
          <gpxtpx:TrackPointExtension xmlns:gpxtpx="http://www.garmin.com/xmlschemas/TrackPointExtension/v1">
            <gpxtpx:hr>123</gpxtpx:hr>
          </gpxtpx:TrackPointExtension>
        </extensions>
      </trkpt>
      <trkpt lat="48.63018" lon="1.99416">
        <ele>123.2</ele>
        <time>2025-11-16T12:21:43Z</time>
        <extensions>
          <gpxtpx:TrackPointExtension xmlns:gpxtpx="http://www.garmin.com/xmlschemas/TrackPointExtension/v1">
            <gpxtpx:hr>123</gpxtpx:hr>
          </gpxtpx:TrackPointExtension>
        </extensions>
      </trkpt>
      <trkpt lat="48.63016" lon="1.99419">
        <ele>123.2</ele>
        <time>2025-11-16T12:21:44Z</time>
        <extensions>
          <gpxtpx:TrackPointExtension xmlns:gpxtpx="http://www.garmin.com/xmlschemas/TrackPointExtension/v1">
            <gpxtpx:hr>124</gpxtpx:hr>
          </gpxtpx:TrackPointExtension>
        </extensions>
      </trkpt>
      <trkpt lat="48.63015" lon="1.99423">
        <ele>123.2</ele>
        <time>2025-11-16T12:21:45Z</time>
        <extensions>
          <gpxtpx:TrackPointExtension xmlns:gpxtpx="http://www.garmin.com/xmlschemas/TrackPointExtension/v1">
            <gpxtpx:hr>124</gpxtpx:hr>
          </gpxtpx:TrackPointExtension>
        </extensions>
      </trkpt>
      <trkpt lat="48.63013" lon="1.99426">
        <ele>123.2</ele>
        <time>2025-11-16T12:21:46Z</time>
        <extensions>
          <gpxtpx:TrackPointExtension xmlns:gpxtpx="http://www.garmin.com/xmlschemas/TrackPointExtension/v1">
            <gpxtpx:hr>124</gpxtpx:hr>
          </gpxtpx:TrackPointExtension>
        </extensions>
      </trkpt>
      <trkpt lat="48.63011" lon="1.9943">
        <ele>123.2</ele>
        <time>2025-11-16T12:21:47Z</time>
        <extensions>
          <gpxtpx:TrackPointExtension xmlns:gpxtpx="http://www.garmin.com/xmlschemas/TrackPointExtension/v1">
            <gpxtpx:hr>124</gpxtpx:hr>
          </gpxtpx:TrackPointExtension>
        </extensions>
      </trkpt>
      <trkpt lat="48.63009" lon="1.99435">
        <ele>123.2</ele>
        <time>2025-11-16T12:21:48Z</time>
        <extensions>
          <gpxtpx:TrackPointExtension xmlns:gpxtpx="http://www.garmin.com/xmlschemas/TrackPointExtension/v1">
            <gpxtpx:hr>124</gpxtpx:hr>
          </gpxtpx:TrackPointExtension>
        </extensions>
      </trkpt>
      <trkpt lat="48.63007" lon="1.99439">
        <ele>123.2</ele>
        <time>2025-11-16T12:21:49Z</time>
        <extensions>
          <gpxtpx:TrackPointExtension xmlns:gpxtpx="http://www.garmin.com/xmlschemas/TrackPointExtension/v1">
            <gpxtpx:hr>124</gpxtpx:hr>
          </gpxtpx:TrackPointExtension>
        </extensions>
      </trkpt>
      <trkpt lat="48.63005" lon="1.99444">
        <ele>123.2</ele>
        <time>2025-11-16T12:21:50Z</time>
        <extensions>
          <gpxtpx:TrackPointExtension xmlns:gpxtpx="http://www.garmin.com/xmlschemas/TrackPointExtension/v1">
            <gpxtpx:hr>124</gpxtpx:hr>
          </gpxtpx:TrackPointExtension>
        </extensions>
      </trkpt>
      <trkpt lat="48.63002" lon="1.99449">
        <ele>123.2</ele>
        <time>2025-11-16T12:21:51Z</time>
        <extensions>
          <gpxtpx:TrackPointExtension xmlns:gpxtpx="http://www.garmin.com/xmlschemas/TrackPointExtension/v1">
            <gpxtpx:hr>124</gpxtpx:hr>
          </gpxtpx:TrackPointExtension>
        </extensions>
      </trkpt>
      <trkpt lat="48.63" lon="1.99454">
        <ele>123.2</ele>
        <time>2025-11-16T12:21:52Z</time>
        <extensions>
          <gpxtpx:TrackPointExtension xmlns:gpxtpx="http://www.garmin.com/xmlschemas/TrackPointExtension/v1">
            <gpxtpx:hr>124</gpxtpx:hr>
          </gpxtpx:TrackPointExtension>
        </extensions>
      </trkpt>
      <trkpt lat="48.62998" lon="1.99459">
        <ele>123.2</ele>
        <time>2025-11-16T12:21:53Z</time>
        <extensions>
          <gpxtpx:TrackPointExtension xmlns:gpxtpx="http://www.garmin.com/xmlschemas/TrackPointExtension/v1">
            <gpxtpx:hr>124</gpxtpx:hr>
          </gpxtpx:TrackPointExtension>
        </extensions>
      </trkpt>
      <trkpt lat="48.62996" lon="1.99464">
        <ele>123.2</ele>
        <time>2025-11-16T12:21:54Z</time>
        <extensions>
          <gpxtpx:TrackPointExtension xmlns:gpxtpx="http://www.garmin.com/xmlschemas/TrackPointExtension/v1">
            <gpxtpx:hr>124</gpxtpx:hr>
          </gpxtpx:TrackPointExtension>
        </extensions>
      </trkpt>
      <trkpt lat="48.62993" lon="1.99468">
        <ele>123.2</ele>
        <time>2025-11-16T12:21:55Z</time>
        <extensions>
          <gpxtpx:TrackPointExtension xmlns:gpxtpx="http://www.garmin.com/xmlschemas/TrackPointExtension/v1">
            <gpxtpx:hr>124</gpxtpx:hr>
          </gpxtpx:TrackPointExtension>
        </extensions>
      </trkpt>
      <trkpt lat="48.62991" lon="1.99472">
        <ele>123.2</ele>
        <time>2025-11-16T12:21:56Z</time>
        <extensions>
          <gpxtpx:TrackPointExtension xmlns:gpxtpx="http://www.garmin.com/xmlschemas/TrackPointExtension/v1">
            <gpxtpx:hr>124</gpxtpx:hr>
          </gpxtpx:TrackPointExtension>
        </extensions>
      </trkpt>
      <trkpt lat="48.62989" lon="1.99477">
        <ele>123.2</ele>
        <time>2025-11-16T12:21:57Z</time>
        <extensions>
          <gpxtpx:TrackPointExtension xmlns:gpxtpx="http://www.garmin.com/xmlschemas/TrackPointExtension/v1">
            <gpxtpx:hr>124</gpxtpx:hr>
          </gpxtpx:TrackPointExtension>
        </extensions>
      </trkpt>
      <trkpt lat="48.62986" lon="1.99481">
        <ele>123.2</ele>
        <time>2025-11-16T12:21:58Z</time>
        <extensions>
          <gpxtpx:TrackPointExtension xmlns:gpxtpx="http://www.garmin.com/xmlschemas/TrackPointExtension/v1">
            <gpxtpx:hr>125</gpxtpx:hr>
          </gpxtpx:TrackPointExtension>
        </extensions>
      </trkpt>
      <trkpt lat="48.62984" lon="1.99486">
        <ele>123.2</ele>
        <time>2025-11-16T12:21:59Z</time>
        <extensions>
          <gpxtpx:TrackPointExtension xmlns:gpxtpx="http://www.garmin.com/xmlschemas/TrackPointExtension/v1">
            <gpxtpx:hr>125</gpxtpx:hr>
          </gpxtpx:TrackPointExtension>
        </extensions>
      </trkpt>
      <trkpt lat="48.62981" lon="1.9949">
        <ele>123.2</ele>
        <time>2025-11-16T12:22:00Z</time>
        <extensions>
          <gpxtpx:TrackPointExtension xmlns:gpxtpx="http://www.garmin.com/xmlschemas/TrackPointExtension/v1">
            <gpxtpx:hr>125</gpxtpx:hr>
          </gpxtpx:TrackPointExtension>
        </extensions>
      </trkpt>
      <trkpt lat="48.62979" lon="1.99495">
        <ele>123.2</ele>
        <time>2025-11-16T12:22:01Z</time>
        <extensions>
          <gpxtpx:TrackPointExtension xmlns:gpxtpx="http://www.garmin.com/xmlschemas/TrackPointExtension/v1">
            <gpxtpx:hr>125</gpxtpx:hr>
          </gpxtpx:TrackPointExtension>
        </extensions>
      </trkpt>
      <trkpt lat="48.62976" lon="1.99499">
        <ele>123.2</ele>
        <time>2025-11-16T12:22:02Z</time>
        <extensions>
          <gpxtpx:TrackPointExtension xmlns:gpxtpx="http://www.garmin.com/xmlschemas/TrackPointExtension/v1">
            <gpxtpx:hr>125</gpxtpx:hr>
          </gpxtpx:TrackPointExtension>
        </extensions>
      </trkpt>
      <trkpt lat="48.62974" lon="1.99504">
        <ele>123.2</ele>
        <time>2025-11-16T12:22:03Z</time>
        <extensions>
          <gpxtpx:TrackPointExtension xmlns:gpxtpx="http://www.garmin.com/xmlschemas/TrackPointExtension/v1">
            <gpxtpx:hr>125</gpxtpx:hr>
          </gpxtpx:TrackPointExtension>
        </extensions>
      </trkpt>
      <trkpt lat="48.62972" lon="1.99509">
        <ele>123.2</ele>
        <time>2025-11-16T12:22:04Z</time>
        <extensions>
          <gpxtpx:TrackPointExtension xmlns:gpxtpx="http://www.garmin.com/xmlschemas/TrackPointExtension/v1">
            <gpxtpx:hr>125</gpxtpx:hr>
          </gpxtpx:TrackPointExtension>
        </extensions>
      </trkpt>
      <trkpt lat="48.62969" lon="1.99514">
        <ele>123</ele>
        <time>2025-11-16T12:22:05Z</time>
        <extensions>
          <gpxtpx:TrackPointExtension xmlns:gpxtpx="http://www.garmin.com/xmlschemas/TrackPointExtension/v1">
            <gpxtpx:hr>125</gpxtpx:hr>
          </gpxtpx:TrackPointExtension>
        </extensions>
      </trkpt>
      <trkpt lat="48.62967" lon="1.99519">
        <ele>123</ele>
        <time>2025-11-16T12:22:06Z</time>
        <extensions>
          <gpxtpx:TrackPointExtension xmlns:gpxtpx="http://www.garmin.com/xmlschemas/TrackPointExtension/v1">
            <gpxtpx:hr>125</gpxtpx:hr>
          </gpxtpx:TrackPointExtension>
        </extensions>
      </trkpt>
      <trkpt lat="48.62964" lon="1.99524">
        <ele>123</ele>
        <time>2025-11-16T12:22:07Z</time>
        <extensions>
          <gpxtpx:TrackPointExtension xmlns:gpxtpx="http://www.garmin.com/xmlschemas/TrackPointExtension/v1">
            <gpxtpx:hr>125</gpxtpx:hr>
          </gpxtpx:TrackPointExtension>
        </extensions>
      </trkpt>
      <trkpt lat="48.62962" lon="1.99529">
        <ele>123</ele>
        <time>2025-11-16T12:22:08Z</time>
        <extensions>
          <gpxtpx:TrackPointExtension xmlns:gpxtpx="http://www.garmin.com/xmlschemas/TrackPointExtension/v1">
            <gpxtpx:hr>125</gpxtpx:hr>
          </gpxtpx:TrackPointExtension>
        </extensions>
      </trkpt>
      <trkpt lat="48.6296" lon="1.99534">
        <ele>123</ele>
        <time>2025-11-16T12:22:09Z</time>
        <extensions>
          <gpxtpx:TrackPointExtension xmlns:gpxtpx="http://www.garmin.com/xmlschemas/TrackPointExtension/v1">
            <gpxtpx:hr>125</gpxtpx:hr>
          </gpxtpx:TrackPointExtension>
        </extensions>
      </trkpt>
      <trkpt lat="48.62957" lon="1.99539">
        <ele>123</ele>
        <time>2025-11-16T12:22:10Z</time>
        <extensions>
          <gpxtpx:TrackPointExtension xmlns:gpxtpx="http://www.garmin.com/xmlschemas/TrackPointExtension/v1">
            <gpxtpx:hr>125</gpxtpx:hr>
          </gpxtpx:TrackPointExtension>
        </extensions>
      </trkpt>
      <trkpt lat="48.62955" lon="1.99544">
        <ele>123</ele>
        <time>2025-11-16T12:22:11Z</time>
        <extensions>
          <gpxtpx:TrackPointExtension xmlns:gpxtpx="http://www.garmin.com/xmlschemas/TrackPointExtension/v1">
            <gpxtpx:hr>125</gpxtpx:hr>
          </gpxtpx:TrackPointExtension>
        </extensions>
      </trkpt>
      <trkpt lat="48.62952" lon="1.99548">
        <ele>122.8</ele>
        <time>2025-11-16T12:22:12Z</time>
      </trkpt>
      <trkpt lat="48.6295" lon="1.99552">
        <ele>122.8</ele>
        <time>2025-11-16T12:22:13Z</time>
        <extensions>
          <gpxtpx:TrackPointExtension xmlns:gpxtpx="http://www.garmin.com/xmlschemas/TrackPointExtension/v1">
            <gpxtpx:hr>125</gpxtpx:hr>
          </gpxtpx:TrackPointExtension>
        </extensions>
      </trkpt>
      <trkpt lat="48.62948" lon="1.99556">
        <ele>122.8</ele>
        <time>2025-11-16T12:22:14Z</time>
        <extensions>
          <gpxtpx:TrackPointExtension xmlns:gpxtpx="http://www.garmin.com/xmlschemas/TrackPointExtension/v1">
            <gpxtpx:hr>125</gpxtpx:hr>
          </gpxtpx:TrackPointExtension>
        </extensions>
      </trkpt>
      <trkpt lat="48.62945" lon="1.99559">
        <ele>122.8</ele>
        <time>2025-11-16T12:22:15Z</time>
        <extensions>
          <gpxtpx:TrackPointExtension xmlns:gpxtpx="http://www.garmin.com/xmlschemas/TrackPointExtension/v1">
            <gpxtpx:hr>125</gpxtpx:hr>
          </gpxtpx:TrackPointExtension>
        </extensions>
      </trkpt>
      <trkpt lat="48.62942" lon="1.99561">
        <ele>122.6</ele>
        <time>2025-11-16T12:22:16Z</time>
        <extensions>
          <gpxtpx:TrackPointExtension xmlns:gpxtpx="http://www.garmin.com/xmlschemas/TrackPointExtension/v1">
            <gpxtpx:hr>125</gpxtpx:hr>
          </gpxtpx:TrackPointExtension>
        </extensions>
      </trkpt>
      <trkpt lat="48.6294" lon="1.99563">
        <ele>122.6</ele>
        <time>2025-11-16T12:22:17Z</time>
        <extensions>
          <gpxtpx:TrackPointExtension xmlns:gpxtpx="http://www.garmin.com/xmlschemas/TrackPointExtension/v1">
            <gpxtpx:hr>125</gpxtpx:hr>
          </gpxtpx:TrackPointExtension>
        </extensions>
      </trkpt>
      <trkpt lat="48.62936" lon="1.99564">
        <ele>122.6</ele>
        <time>2025-11-16T12:22:18Z</time>
        <extensions>
          <gpxtpx:TrackPointExtension xmlns:gpxtpx="http://www.garmin.com/xmlschemas/TrackPointExtension/v1">
            <gpxtpx:hr>125</gpxtpx:hr>
          </gpxtpx:TrackPointExtension>
        </extensions>
      </trkpt>
      <trkpt lat="48.62933" lon="1.99565">
        <ele>122.4</ele>
        <time>2025-11-16T12:22:19Z</time>
        <extensions>
          <gpxtpx:TrackPointExtension xmlns:gpxtpx="http://www.garmin.com/xmlschemas/TrackPointExtension/v1">
            <gpxtpx:hr>125</gpxtpx:hr>
          </gpxtpx:TrackPointExtension>
        </extensions>
      </trkpt>
      <trkpt lat="48.6293" lon="1.99566">
        <ele>122.4</ele>
        <time>2025-11-16T12:22:20Z</time>
        <extensions>
          <gpxtpx:TrackPointExtension xmlns:gpxtpx="http://www.garmin.com/xmlschemas/TrackPointExtension/v1">
            <gpxtpx:hr>125</gpxtpx:hr>
          </gpxtpx:TrackPointExtension>
        </extensions>
      </trkpt>
      <trkpt lat="48.62926" lon="1.99567">
        <ele>122.4</ele>
        <time>2025-11-16T12:22:21Z</time>
        <extensions>
          <gpxtpx:TrackPointExtension xmlns:gpxtpx="http://www.garmin.com/xmlschemas/TrackPointExtension/v1">
            <gpxtpx:hr>125</gpxtpx:hr>
          </gpxtpx:TrackPointExtension>
        </extensions>
      </trkpt>
      <trkpt lat="48.62922" lon="1.99567">
        <ele>122.4</ele>
        <time>2025-11-16T12:22:22Z</time>
        <extensions>
          <gpxtpx:TrackPointExtension xmlns:gpxtpx="http://www.garmin.com/xmlschemas/TrackPointExtension/v1">
            <gpxtpx:hr>125</gpxtpx:hr>
          </gpxtpx:TrackPointExtension>
        </extensions>
      </trkpt>
      <trkpt lat="48.62919" lon="1.99567">
        <ele>122.2</ele>
        <time>2025-11-16T12:22:23Z</time>
        <extensions>
          <gpxtpx:TrackPointExtension xmlns:gpxtpx="http://www.garmin.com/xmlschemas/TrackPointExtension/v1">
            <gpxtpx:hr>125</gpxtpx:hr>
          </gpxtpx:TrackPointExtension>
        </extensions>
      </trkpt>
      <trkpt lat="48.62915" lon="1.99566">
        <ele>122.2</ele>
        <time>2025-11-16T12:22:24Z</time>
        <extensions>
          <gpxtpx:TrackPointExtension xmlns:gpxtpx="http://www.garmin.com/xmlschemas/TrackPointExtension/v1">
            <gpxtpx:hr>125</gpxtpx:hr>
          </gpxtpx:TrackPointExtension>
        </extensions>
      </trkpt>
      <trkpt lat="48.62911" lon="1.99565">
        <ele>122</ele>
        <time>2025-11-16T12:22:25Z</time>
        <extensions>
          <gpxtpx:TrackPointExtension xmlns:gpxtpx="http://www.garmin.com/xmlschemas/TrackPointExtension/v1">
            <gpxtpx:hr>125</gpxtpx:hr>
          </gpxtpx:TrackPointExtension>
        </extensions>
      </trkpt>
      <trkpt lat="48.62907" lon="1.99564">
        <ele>121.8</ele>
        <time>2025-11-16T12:22:26Z</time>
        <extensions>
          <gpxtpx:TrackPointExtension xmlns:gpxtpx="http://www.garmin.com/xmlschemas/TrackPointExtension/v1">
            <gpxtpx:hr>125</gpxtpx:hr>
          </gpxtpx:TrackPointExtension>
        </extensions>
      </trkpt>
      <trkpt lat="48.62903" lon="1.99562">
        <ele>121.8</ele>
        <time>2025-11-16T12:22:27Z</time>
        <extensions>
          <gpxtpx:TrackPointExtension xmlns:gpxtpx="http://www.garmin.com/xmlschemas/TrackPointExtension/v1">
            <gpxtpx:hr>125</gpxtpx:hr>
          </gpxtpx:TrackPointExtension>
        </extensions>
      </trkpt>
      <trkpt lat="48.62899" lon="1.99561">
        <ele>121.6</ele>
        <time>2025-11-16T12:22:28Z</time>
        <extensions>
          <gpxtpx:TrackPointExtension xmlns:gpxtpx="http://www.garmin.com/xmlschemas/TrackPointExtension/v1">
            <gpxtpx:hr>125</gpxtpx:hr>
          </gpxtpx:TrackPointExtension>
        </extensions>
      </trkpt>
      <trkpt lat="48.62895" lon="1.9956">
        <ele>121.6</ele>
        <time>2025-11-16T12:22:29Z</time>
        <extensions>
          <gpxtpx:TrackPointExtension xmlns:gpxtpx="http://www.garmin.com/xmlschemas/TrackPointExtension/v1">
            <gpxtpx:hr>125</gpxtpx:hr>
          </gpxtpx:TrackPointExtension>
        </extensions>
      </trkpt>
      <trkpt lat="48.62892" lon="1.99559">
        <ele>121.6</ele>
        <time>2025-11-16T12:22:30Z</time>
        <extensions>
          <gpxtpx:TrackPointExtension xmlns:gpxtpx="http://www.garmin.com/xmlschemas/TrackPointExtension/v1">
            <gpxtpx:hr>125</gpxtpx:hr>
          </gpxtpx:TrackPointExtension>
        </extensions>
      </trkpt>
      <trkpt lat="48.62888" lon="1.99558">
        <ele>121.4</ele>
        <time>2025-11-16T12:22:31Z</time>
        <extensions>
          <gpxtpx:TrackPointExtension xmlns:gpxtpx="http://www.garmin.com/xmlschemas/TrackPointExtension/v1">
            <gpxtpx:hr>125</gpxtpx:hr>
          </gpxtpx:TrackPointExtension>
        </extensions>
      </trkpt>
      <trkpt lat="48.62884" lon="1.99558">
        <ele>121.4</ele>
        <time>2025-11-16T12:22:32Z</time>
        <extensions>
          <gpxtpx:TrackPointExtension xmlns:gpxtpx="http://www.garmin.com/xmlschemas/TrackPointExtension/v1">
            <gpxtpx:hr>125</gpxtpx:hr>
          </gpxtpx:TrackPointExtension>
        </extensions>
      </trkpt>
      <trkpt lat="48.6288" lon="1.99557">
        <ele>121.4</ele>
        <time>2025-11-16T12:22:33Z</time>
        <extensions>
          <gpxtpx:TrackPointExtension xmlns:gpxtpx="http://www.garmin.com/xmlschemas/TrackPointExtension/v1">
            <gpxtpx:hr>125</gpxtpx:hr>
          </gpxtpx:TrackPointExtension>
        </extensions>
      </trkpt>
      <trkpt lat="48.62876" lon="1.99556">
        <ele>121.2</ele>
        <time>2025-11-16T12:22:34Z</time>
        <extensions>
          <gpxtpx:TrackPointExtension xmlns:gpxtpx="http://www.garmin.com/xmlschemas/TrackPointExtension/v1">
            <gpxtpx:hr>126</gpxtpx:hr>
          </gpxtpx:TrackPointExtension>
        </extensions>
      </trkpt>
      <trkpt lat="48.62873" lon="1.99555">
        <ele>121.2</ele>
        <time>2025-11-16T12:22:35Z</time>
        <extensions>
          <gpxtpx:TrackPointExtension xmlns:gpxtpx="http://www.garmin.com/xmlschemas/TrackPointExtension/v1">
            <gpxtpx:hr>126</gpxtpx:hr>
          </gpxtpx:TrackPointExtension>
        </extensions>
      </trkpt>
      <trkpt lat="48.6287" lon="1.99555">
        <ele>121</ele>
        <time>2025-11-16T12:22:36Z</time>
        <extensions>
          <gpxtpx:TrackPointExtension xmlns:gpxtpx="http://www.garmin.com/xmlschemas/TrackPointExtension/v1">
            <gpxtpx:hr>126</gpxtpx:hr>
          </gpxtpx:TrackPointExtension>
        </extensions>
      </trkpt>
      <trkpt lat="48.62866" lon="1.99554">
        <ele>121</ele>
        <time>2025-11-16T12:22:37Z</time>
        <extensions>
          <gpxtpx:TrackPointExtension xmlns:gpxtpx="http://www.garmin.com/xmlschemas/TrackPointExtension/v1">
            <gpxtpx:hr>126</gpxtpx:hr>
          </gpxtpx:TrackPointExtension>
        </extensions>
      </trkpt>
      <trkpt lat="48.62862" lon="1.99554">
        <ele>121</ele>
        <time>2025-11-16T12:22:38Z</time>
        <extensions>
          <gpxtpx:TrackPointExtension xmlns:gpxtpx="http://www.garmin.com/xmlschemas/TrackPointExtension/v1">
            <gpxtpx:hr>126</gpxtpx:hr>
          </gpxtpx:TrackPointExtension>
        </extensions>
      </trkpt>
      <trkpt lat="48.62859" lon="1.99553">
        <ele>121</ele>
        <time>2025-11-16T12:22:39Z</time>
        <extensions>
          <gpxtpx:TrackPointExtension xmlns:gpxtpx="http://www.garmin.com/xmlschemas/TrackPointExtension/v1">
            <gpxtpx:hr>126</gpxtpx:hr>
          </gpxtpx:TrackPointExtension>
        </extensions>
      </trkpt>
      <trkpt lat="48.62856" lon="1.99553">
        <ele>120.8</ele>
        <time>2025-11-16T12:22:40Z</time>
        <extensions>
          <gpxtpx:TrackPointExtension xmlns:gpxtpx="http://www.garmin.com/xmlschemas/TrackPointExtension/v1">
            <gpxtpx:hr>126</gpxtpx:hr>
          </gpxtpx:TrackPointExtension>
        </extensions>
      </trkpt>
      <trkpt lat="48.62852" lon="1.99553">
        <ele>120.8</ele>
        <time>2025-11-16T12:22:41Z</time>
        <extensions>
          <gpxtpx:TrackPointExtension xmlns:gpxtpx="http://www.garmin.com/xmlschemas/TrackPointExtension/v1">
            <gpxtpx:hr>126</gpxtpx:hr>
          </gpxtpx:TrackPointExtension>
        </extensions>
      </trkpt>
      <trkpt lat="48.62848" lon="1.99553">
        <ele>120.8</ele>
        <time>2025-11-16T12:22:42Z</time>
        <extensions>
          <gpxtpx:TrackPointExtension xmlns:gpxtpx="http://www.garmin.com/xmlschemas/TrackPointExtension/v1">
            <gpxtpx:hr>126</gpxtpx:hr>
          </gpxtpx:TrackPointExtension>
        </extensions>
      </trkpt>
      <trkpt lat="48.62844" lon="1.99553">
        <ele>120.8</ele>
        <time>2025-11-16T12:22:43Z</time>
        <extensions>
          <gpxtpx:TrackPointExtension xmlns:gpxtpx="http://www.garmin.com/xmlschemas/TrackPointExtension/v1">
            <gpxtpx:hr>126</gpxtpx:hr>
          </gpxtpx:TrackPointExtension>
        </extensions>
      </trkpt>
      <trkpt lat="48.62841" lon="1.99552">
        <ele>120.8</ele>
        <time>2025-11-16T12:22:44Z</time>
        <extensions>
          <gpxtpx:TrackPointExtension xmlns:gpxtpx="http://www.garmin.com/xmlschemas/TrackPointExtension/v1">
            <gpxtpx:hr>126</gpxtpx:hr>
          </gpxtpx:TrackPointExtension>
        </extensions>
      </trkpt>
      <trkpt lat="48.62837" lon="1.99552">
        <ele>120.8</ele>
        <time>2025-11-16T12:22:45Z</time>
        <extensions>
          <gpxtpx:TrackPointExtension xmlns:gpxtpx="http://www.garmin.com/xmlschemas/TrackPointExtension/v1">
            <gpxtpx:hr>126</gpxtpx:hr>
          </gpxtpx:TrackPointExtension>
        </extensions>
      </trkpt>
      <trkpt lat="48.62834" lon="1.99551">
        <ele>120.8</ele>
        <time>2025-11-16T12:22:46Z</time>
        <extensions>
          <gpxtpx:TrackPointExtension xmlns:gpxtpx="http://www.garmin.com/xmlschemas/TrackPointExtension/v1">
            <gpxtpx:hr>126</gpxtpx:hr>
          </gpxtpx:TrackPointExtension>
        </extensions>
      </trkpt>
      <trkpt lat="48.6283" lon="1.99551">
        <ele>120.8</ele>
        <time>2025-11-16T12:22:47Z</time>
        <extensions>
          <gpxtpx:TrackPointExtension xmlns:gpxtpx="http://www.garmin.com/xmlschemas/TrackPointExtension/v1">
            <gpxtpx:hr>126</gpxtpx:hr>
          </gpxtpx:TrackPointExtension>
        </extensions>
      </trkpt>
      <trkpt lat="48.62827" lon="1.9955">
        <ele>121</ele>
        <time>2025-11-16T12:22:48Z</time>
        <extensions>
          <gpxtpx:TrackPointExtension xmlns:gpxtpx="http://www.garmin.com/xmlschemas/TrackPointExtension/v1">
            <gpxtpx:hr>126</gpxtpx:hr>
          </gpxtpx:TrackPointExtension>
        </extensions>
      </trkpt>
      <trkpt lat="48.62823" lon="1.9955">
        <ele>121</ele>
        <time>2025-11-16T12:22:49Z</time>
        <extensions>
          <gpxtpx:TrackPointExtension xmlns:gpxtpx="http://www.garmin.com/xmlschemas/TrackPointExtension/v1">
            <gpxtpx:hr>126</gpxtpx:hr>
          </gpxtpx:TrackPointExtension>
        </extensions>
      </trkpt>
      <trkpt lat="48.6282" lon="1.99549">
        <ele>121</ele>
        <time>2025-11-16T12:22:50Z</time>
        <extensions>
          <gpxtpx:TrackPointExtension xmlns:gpxtpx="http://www.garmin.com/xmlschemas/TrackPointExtension/v1">
            <gpxtpx:hr>126</gpxtpx:hr>
          </gpxtpx:TrackPointExtension>
        </extensions>
      </trkpt>
      <trkpt lat="48.62816" lon="1.99549">
        <ele>121.2</ele>
        <time>2025-11-16T12:22:51Z</time>
        <extensions>
          <gpxtpx:TrackPointExtension xmlns:gpxtpx="http://www.garmin.com/xmlschemas/TrackPointExtension/v1">
            <gpxtpx:hr>126</gpxtpx:hr>
          </gpxtpx:TrackPointExtension>
        </extensions>
      </trkpt>
      <trkpt lat="48.62813" lon="1.99549">
        <ele>121.2</ele>
        <time>2025-11-16T12:22:52Z</time>
        <extensions>
          <gpxtpx:TrackPointExtension xmlns:gpxtpx="http://www.garmin.com/xmlschemas/TrackPointExtension/v1">
            <gpxtpx:hr>126</gpxtpx:hr>
          </gpxtpx:TrackPointExtension>
        </extensions>
      </trkpt>
      <trkpt lat="48.62809" lon="1.99548">
        <ele>121.2</ele>
        <time>2025-11-16T12:22:53Z</time>
        <extensions>
          <gpxtpx:TrackPointExtension xmlns:gpxtpx="http://www.garmin.com/xmlschemas/TrackPointExtension/v1">
            <gpxtpx:hr>126</gpxtpx:hr>
          </gpxtpx:TrackPointExtension>
        </extensions>
      </trkpt>
      <trkpt lat="48.62806" lon="1.99547">
        <ele>121.4</ele>
        <time>2025-11-16T12:22:54Z</time>
        <extensions>
          <gpxtpx:TrackPointExtension xmlns:gpxtpx="http://www.garmin.com/xmlschemas/TrackPointExtension/v1">
            <gpxtpx:hr>126</gpxtpx:hr>
          </gpxtpx:TrackPointExtension>
        </extensions>
      </trkpt>
      <trkpt lat="48.62803" lon="1.99546">
        <ele>121.4</ele>
        <time>2025-11-16T12:22:55Z</time>
        <extensions>
          <gpxtpx:TrackPointExtension xmlns:gpxtpx="http://www.garmin.com/xmlschemas/TrackPointExtension/v1">
            <gpxtpx:hr>126</gpxtpx:hr>
          </gpxtpx:TrackPointExtension>
        </extensions>
      </trkpt>
      <trkpt lat="48.62799" lon="1.99545">
        <ele>121.4</ele>
        <time>2025-11-16T12:22:56Z</time>
        <extensions>
          <gpxtpx:TrackPointExtension xmlns:gpxtpx="http://www.garmin.com/xmlschemas/TrackPointExtension/v1">
            <gpxtpx:hr>126</gpxtpx:hr>
          </gpxtpx:TrackPointExtension>
        </extensions>
      </trkpt>
      <trkpt lat="48.62796" lon="1.99544">
        <ele>121.4</ele>
        <time>2025-11-16T12:22:57Z</time>
        <extensions>
          <gpxtpx:TrackPointExtension xmlns:gpxtpx="http://www.garmin.com/xmlschemas/TrackPointExtension/v1">
            <gpxtpx:hr>126</gpxtpx:hr>
          </gpxtpx:TrackPointExtension>
        </extensions>
      </trkpt>
      <trkpt lat="48.62792" lon="1.99543">
        <ele>121.4</ele>
        <time>2025-11-16T12:22:58Z</time>
        <extensions>
          <gpxtpx:TrackPointExtension xmlns:gpxtpx="http://www.garmin.com/xmlschemas/TrackPointExtension/v1">
            <gpxtpx:hr>126</gpxtpx:hr>
          </gpxtpx:TrackPointExtension>
        </extensions>
      </trkpt>
      <trkpt lat="48.62789" lon="1.99542">
        <ele>121.4</ele>
        <time>2025-11-16T12:22:59Z</time>
        <extensions>
          <gpxtpx:TrackPointExtension xmlns:gpxtpx="http://www.garmin.com/xmlschemas/TrackPointExtension/v1">
            <gpxtpx:hr>126</gpxtpx:hr>
          </gpxtpx:TrackPointExtension>
        </extensions>
      </trkpt>
      <trkpt lat="48.62785" lon="1.99541">
        <ele>121.6</ele>
        <time>2025-11-16T12:23:00Z</time>
        <extensions>
          <gpxtpx:TrackPointExtension xmlns:gpxtpx="http://www.garmin.com/xmlschemas/TrackPointExtension/v1">
            <gpxtpx:hr>126</gpxtpx:hr>
          </gpxtpx:TrackPointExtension>
        </extensions>
      </trkpt>
      <trkpt lat="48.62781" lon="1.99541">
        <ele>121.6</ele>
        <time>2025-11-16T12:23:01Z</time>
        <extensions>
          <gpxtpx:TrackPointExtension xmlns:gpxtpx="http://www.garmin.com/xmlschemas/TrackPointExtension/v1">
            <gpxtpx:hr>126</gpxtpx:hr>
          </gpxtpx:TrackPointExtension>
        </extensions>
      </trkpt>
      <trkpt lat="48.62778" lon="1.9954">
        <ele>121.6</ele>
        <time>2025-11-16T12:23:02Z</time>
        <extensions>
          <gpxtpx:TrackPointExtension xmlns:gpxtpx="http://www.garmin.com/xmlschemas/TrackPointExtension/v1">
            <gpxtpx:hr>126</gpxtpx:hr>
          </gpxtpx:TrackPointExtension>
        </extensions>
      </trkpt>
      <trkpt lat="48.62775" lon="1.99539">
        <ele>121.6</ele>
        <time>2025-11-16T12:23:03Z</time>
        <extensions>
          <gpxtpx:TrackPointExtension xmlns:gpxtpx="http://www.garmin.com/xmlschemas/TrackPointExtension/v1">
            <gpxtpx:hr>127</gpxtpx:hr>
          </gpxtpx:TrackPointExtension>
        </extensions>
      </trkpt>
      <trkpt lat="48.62772" lon="1.99538">
        <ele>121.6</ele>
        <time>2025-11-16T12:23:04Z</time>
        <extensions>
          <gpxtpx:TrackPointExtension xmlns:gpxtpx="http://www.garmin.com/xmlschemas/TrackPointExtension/v1">
            <gpxtpx:hr>127</gpxtpx:hr>
          </gpxtpx:TrackPointExtension>
        </extensions>
      </trkpt>
      <trkpt lat="48.62769" lon="1.99538">
        <ele>121.6</ele>
        <time>2025-11-16T12:23:05Z</time>
        <extensions>
          <gpxtpx:TrackPointExtension xmlns:gpxtpx="http://www.garmin.com/xmlschemas/TrackPointExtension/v1">
            <gpxtpx:hr>127</gpxtpx:hr>
          </gpxtpx:TrackPointExtension>
        </extensions>
      </trkpt>
      <trkpt lat="48.62765" lon="1.99537">
        <ele>121.6</ele>
        <time>2025-11-16T12:23:06Z</time>
        <extensions>
          <gpxtpx:TrackPointExtension xmlns:gpxtpx="http://www.garmin.com/xmlschemas/TrackPointExtension/v1">
            <gpxtpx:hr>127</gpxtpx:hr>
          </gpxtpx:TrackPointExtension>
        </extensions>
      </trkpt>
      <trkpt lat="48.62762" lon="1.99536">
        <ele>121.6</ele>
        <time>2025-11-16T12:23:07Z</time>
        <extensions>
          <gpxtpx:TrackPointExtension xmlns:gpxtpx="http://www.garmin.com/xmlschemas/TrackPointExtension/v1">
            <gpxtpx:hr>127</gpxtpx:hr>
          </gpxtpx:TrackPointExtension>
        </extensions>
      </trkpt>
      <trkpt lat="48.62758" lon="1.99536">
        <ele>121.8</ele>
        <time>2025-11-16T12:23:08Z</time>
        <extensions>
          <gpxtpx:TrackPointExtension xmlns:gpxtpx="http://www.garmin.com/xmlschemas/TrackPointExtension/v1">
            <gpxtpx:hr>127</gpxtpx:hr>
          </gpxtpx:TrackPointExtension>
        </extensions>
      </trkpt>
      <trkpt lat="48.62755" lon="1.99535">
        <ele>121.8</ele>
        <time>2025-11-16T12:23:09Z</time>
        <extensions>
          <gpxtpx:TrackPointExtension xmlns:gpxtpx="http://www.garmin.com/xmlschemas/TrackPointExtension/v1">
            <gpxtpx:hr>128</gpxtpx:hr>
          </gpxtpx:TrackPointExtension>
        </extensions>
      </trkpt>
      <trkpt lat="48.62752" lon="1.99535">
        <ele>121.8</ele>
        <time>2025-11-16T12:23:10Z</time>
        <extensions>
          <gpxtpx:TrackPointExtension xmlns:gpxtpx="http://www.garmin.com/xmlschemas/TrackPointExtension/v1">
            <gpxtpx:hr>128</gpxtpx:hr>
          </gpxtpx:TrackPointExtension>
        </extensions>
      </trkpt>
      <trkpt lat="48.62748" lon="1.99534">
        <ele>121.8</ele>
        <time>2025-11-16T12:23:11Z</time>
        <extensions>
          <gpxtpx:TrackPointExtension xmlns:gpxtpx="http://www.garmin.com/xmlschemas/TrackPointExtension/v1">
            <gpxtpx:hr>128</gpxtpx:hr>
          </gpxtpx:TrackPointExtension>
        </extensions>
      </trkpt>
      <trkpt lat="48.62745" lon="1.99534">
        <ele>121.8</ele>
        <time>2025-11-16T12:23:12Z</time>
        <extensions>
          <gpxtpx:TrackPointExtension xmlns:gpxtpx="http://www.garmin.com/xmlschemas/TrackPointExtension/v1">
            <gpxtpx:hr>128</gpxtpx:hr>
          </gpxtpx:TrackPointExtension>
        </extensions>
      </trkpt>
      <trkpt lat="48.62741" lon="1.99533">
        <ele>122</ele>
        <time>2025-11-16T12:23:13Z</time>
        <extensions>
          <gpxtpx:TrackPointExtension xmlns:gpxtpx="http://www.garmin.com/xmlschemas/TrackPointExtension/v1">
            <gpxtpx:hr>128</gpxtpx:hr>
          </gpxtpx:TrackPointExtension>
        </extensions>
      </trkpt>
      <trkpt lat="48.62738" lon="1.99533">
        <ele>122</ele>
        <time>2025-11-16T12:23:14Z</time>
        <extensions>
          <gpxtpx:TrackPointExtension xmlns:gpxtpx="http://www.garmin.com/xmlschemas/TrackPointExtension/v1">
            <gpxtpx:hr>128</gpxtpx:hr>
          </gpxtpx:TrackPointExtension>
        </extensions>
      </trkpt>
      <trkpt lat="48.62735" lon="1.99533">
        <ele>122</ele>
        <time>2025-11-16T12:23:15Z</time>
        <extensions>
          <gpxtpx:TrackPointExtension xmlns:gpxtpx="http://www.garmin.com/xmlschemas/TrackPointExtension/v1">
            <gpxtpx:hr>128</gpxtpx:hr>
          </gpxtpx:TrackPointExtension>
        </extensions>
      </trkpt>
      <trkpt lat="48.62731" lon="1.99533">
        <ele>122</ele>
        <time>2025-11-16T12:23:16Z</time>
        <extensions>
          <gpxtpx:TrackPointExtension xmlns:gpxtpx="http://www.garmin.com/xmlschemas/TrackPointExtension/v1">
            <gpxtpx:hr>128</gpxtpx:hr>
          </gpxtpx:TrackPointExtension>
        </extensions>
      </trkpt>
      <trkpt lat="48.62728" lon="1.99533">
        <ele>122</ele>
        <time>2025-11-16T12:23:17Z</time>
        <extensions>
          <gpxtpx:TrackPointExtension xmlns:gpxtpx="http://www.garmin.com/xmlschemas/TrackPointExtension/v1">
            <gpxtpx:hr>129</gpxtpx:hr>
          </gpxtpx:TrackPointExtension>
        </extensions>
      </trkpt>
      <trkpt lat="48.62724" lon="1.99533">
        <ele>122</ele>
        <time>2025-11-16T12:23:18Z</time>
        <extensions>
          <gpxtpx:TrackPointExtension xmlns:gpxtpx="http://www.garmin.com/xmlschemas/TrackPointExtension/v1">
            <gpxtpx:hr>129</gpxtpx:hr>
          </gpxtpx:TrackPointExtension>
        </extensions>
      </trkpt>
      <trkpt lat="48.62721" lon="1.99533">
        <ele>122</ele>
        <time>2025-11-16T12:23:19Z</time>
        <extensions>
          <gpxtpx:TrackPointExtension xmlns:gpxtpx="http://www.garmin.com/xmlschemas/TrackPointExtension/v1">
            <gpxtpx:hr>129</gpxtpx:hr>
          </gpxtpx:TrackPointExtension>
        </extensions>
      </trkpt>
      <trkpt lat="48.62717" lon="1.99534">
        <ele>122</ele>
        <time>2025-11-16T12:23:20Z</time>
        <extensions>
          <gpxtpx:TrackPointExtension xmlns:gpxtpx="http://www.garmin.com/xmlschemas/TrackPointExtension/v1">
            <gpxtpx:hr>129</gpxtpx:hr>
          </gpxtpx:TrackPointExtension>
        </extensions>
      </trkpt>
      <trkpt lat="48.62712" lon="1.99534">
        <ele>121.8</ele>
        <time>2025-11-16T12:23:21Z</time>
        <extensions>
          <gpxtpx:TrackPointExtension xmlns:gpxtpx="http://www.garmin.com/xmlschemas/TrackPointExtension/v1">
            <gpxtpx:hr>129</gpxtpx:hr>
          </gpxtpx:TrackPointExtension>
        </extensions>
      </trkpt>
      <trkpt lat="48.62709" lon="1.99535">
        <ele>121.8</ele>
        <time>2025-11-16T12:23:22Z</time>
        <extensions>
          <gpxtpx:TrackPointExtension xmlns:gpxtpx="http://www.garmin.com/xmlschemas/TrackPointExtension/v1">
            <gpxtpx:hr>129</gpxtpx:hr>
          </gpxtpx:TrackPointExtension>
        </extensions>
      </trkpt>
      <trkpt lat="48.62705" lon="1.99535">
        <ele>121.8</ele>
        <time>2025-11-16T12:23:23Z</time>
        <extensions>
          <gpxtpx:TrackPointExtension xmlns:gpxtpx="http://www.garmin.com/xmlschemas/TrackPointExtension/v1">
            <gpxtpx:hr>129</gpxtpx:hr>
          </gpxtpx:TrackPointExtension>
        </extensions>
      </trkpt>
      <trkpt lat="48.62701" lon="1.99536">
        <ele>121.8</ele>
        <time>2025-11-16T12:23:24Z</time>
        <extensions>
          <gpxtpx:TrackPointExtension xmlns:gpxtpx="http://www.garmin.com/xmlschemas/TrackPointExtension/v1">
            <gpxtpx:hr>129</gpxtpx:hr>
          </gpxtpx:TrackPointExtension>
        </extensions>
      </trkpt>
      <trkpt lat="48.62698" lon="1.99537">
        <ele>121.8</ele>
        <time>2025-11-16T12:23:25Z</time>
        <extensions>
          <gpxtpx:TrackPointExtension xmlns:gpxtpx="http://www.garmin.com/xmlschemas/TrackPointExtension/v1">
            <gpxtpx:hr>129</gpxtpx:hr>
          </gpxtpx:TrackPointExtension>
        </extensions>
      </trkpt>
      <trkpt lat="48.62694" lon="1.99538">
        <ele>121.8</ele>
        <time>2025-11-16T12:23:26Z</time>
        <extensions>
          <gpxtpx:TrackPointExtension xmlns:gpxtpx="http://www.garmin.com/xmlschemas/TrackPointExtension/v1">
            <gpxtpx:hr>129</gpxtpx:hr>
          </gpxtpx:TrackPointExtension>
        </extensions>
      </trkpt>
      <trkpt lat="48.6269" lon="1.99539">
        <ele>121.8</ele>
        <time>2025-11-16T12:23:27Z</time>
        <extensions>
          <gpxtpx:TrackPointExtension xmlns:gpxtpx="http://www.garmin.com/xmlschemas/TrackPointExtension/v1">
            <gpxtpx:hr>129</gpxtpx:hr>
          </gpxtpx:TrackPointExtension>
        </extensions>
      </trkpt>
      <trkpt lat="48.62686" lon="1.9954">
        <ele>121.8</ele>
        <time>2025-11-16T12:23:28Z</time>
        <extensions>
          <gpxtpx:TrackPointExtension xmlns:gpxtpx="http://www.garmin.com/xmlschemas/TrackPointExtension/v1">
            <gpxtpx:hr>129</gpxtpx:hr>
          </gpxtpx:TrackPointExtension>
        </extensions>
      </trkpt>
      <trkpt lat="48.62683" lon="1.99541">
        <ele>121.8</ele>
        <time>2025-11-16T12:23:29Z</time>
        <extensions>
          <gpxtpx:TrackPointExtension xmlns:gpxtpx="http://www.garmin.com/xmlschemas/TrackPointExtension/v1">
            <gpxtpx:hr>129</gpxtpx:hr>
          </gpxtpx:TrackPointExtension>
        </extensions>
      </trkpt>
      <trkpt lat="48.62679" lon="1.99542">
        <ele>121.8</ele>
        <time>2025-11-16T12:23:30Z</time>
        <extensions>
          <gpxtpx:TrackPointExtension xmlns:gpxtpx="http://www.garmin.com/xmlschemas/TrackPointExtension/v1">
            <gpxtpx:hr>129</gpxtpx:hr>
          </gpxtpx:TrackPointExtension>
        </extensions>
      </trkpt>
      <trkpt lat="48.62675" lon="1.99543">
        <ele>121.8</ele>
        <time>2025-11-16T12:23:31Z</time>
        <extensions>
          <gpxtpx:TrackPointExtension xmlns:gpxtpx="http://www.garmin.com/xmlschemas/TrackPointExtension/v1">
            <gpxtpx:hr>130</gpxtpx:hr>
          </gpxtpx:TrackPointExtension>
        </extensions>
      </trkpt>
      <trkpt lat="48.62672" lon="1.99544">
        <ele>121.8</ele>
        <time>2025-11-16T12:23:32Z</time>
        <extensions>
          <gpxtpx:TrackPointExtension xmlns:gpxtpx="http://www.garmin.com/xmlschemas/TrackPointExtension/v1">
            <gpxtpx:hr>130</gpxtpx:hr>
          </gpxtpx:TrackPointExtension>
        </extensions>
      </trkpt>
      <trkpt lat="48.62668" lon="1.99545">
        <ele>121.8</ele>
        <time>2025-11-16T12:23:33Z</time>
        <extensions>
          <gpxtpx:TrackPointExtension xmlns:gpxtpx="http://www.garmin.com/xmlschemas/TrackPointExtension/v1">
            <gpxtpx:hr>130</gpxtpx:hr>
          </gpxtpx:TrackPointExtension>
        </extensions>
      </trkpt>
      <trkpt lat="48.62666" lon="1.99545">
        <ele>121.8</ele>
        <time>2025-11-16T12:23:34Z</time>
        <extensions>
          <gpxtpx:TrackPointExtension xmlns:gpxtpx="http://www.garmin.com/xmlschemas/TrackPointExtension/v1">
            <gpxtpx:hr>130</gpxtpx:hr>
          </gpxtpx:TrackPointExtension>
        </extensions>
      </trkpt>
      <trkpt lat="48.62663" lon="1.99546">
        <ele>121.8</ele>
        <time>2025-11-16T12:23:35Z</time>
        <extensions>
          <gpxtpx:TrackPointExtension xmlns:gpxtpx="http://www.garmin.com/xmlschemas/TrackPointExtension/v1">
            <gpxtpx:hr>130</gpxtpx:hr>
          </gpxtpx:TrackPointExtension>
        </extensions>
      </trkpt>
      <trkpt lat="48.6266" lon="1.99546">
        <ele>121.8</ele>
        <time>2025-11-16T12:23:36Z</time>
        <extensions>
          <gpxtpx:TrackPointExtension xmlns:gpxtpx="http://www.garmin.com/xmlschemas/TrackPointExtension/v1">
            <gpxtpx:hr>130</gpxtpx:hr>
          </gpxtpx:TrackPointExtension>
        </extensions>
      </trkpt>
      <trkpt lat="48.62658" lon="1.99546">
        <ele>121.8</ele>
        <time>2025-11-16T12:23:37Z</time>
        <extensions>
          <gpxtpx:TrackPointExtension xmlns:gpxtpx="http://www.garmin.com/xmlschemas/TrackPointExtension/v1">
            <gpxtpx:hr>130</gpxtpx:hr>
          </gpxtpx:TrackPointExtension>
        </extensions>
      </trkpt>
      <trkpt lat="48.62654" lon="1.99547">
        <ele>121.8</ele>
        <time>2025-11-16T12:23:38Z</time>
        <extensions>
          <gpxtpx:TrackPointExtension xmlns:gpxtpx="http://www.garmin.com/xmlschemas/TrackPointExtension/v1">
            <gpxtpx:hr>130</gpxtpx:hr>
          </gpxtpx:TrackPointExtension>
        </extensions>
      </trkpt>
      <trkpt lat="48.62652" lon="1.99547">
        <ele>121.8</ele>
        <time>2025-11-16T12:23:39Z</time>
        <extensions>
          <gpxtpx:TrackPointExtension xmlns:gpxtpx="http://www.garmin.com/xmlschemas/TrackPointExtension/v1">
            <gpxtpx:hr>130</gpxtpx:hr>
          </gpxtpx:TrackPointExtension>
        </extensions>
      </trkpt>
      <trkpt lat="48.62648" lon="1.99546">
        <ele>121.8</ele>
        <time>2025-11-16T12:23:40Z</time>
        <extensions>
          <gpxtpx:TrackPointExtension xmlns:gpxtpx="http://www.garmin.com/xmlschemas/TrackPointExtension/v1">
            <gpxtpx:hr>130</gpxtpx:hr>
          </gpxtpx:TrackPointExtension>
        </extensions>
      </trkpt>
      <trkpt lat="48.62644" lon="1.99546">
        <ele>121.8</ele>
        <time>2025-11-16T12:23:41Z</time>
        <extensions>
          <gpxtpx:TrackPointExtension xmlns:gpxtpx="http://www.garmin.com/xmlschemas/TrackPointExtension/v1">
            <gpxtpx:hr>130</gpxtpx:hr>
          </gpxtpx:TrackPointExtension>
        </extensions>
      </trkpt>
      <trkpt lat="48.62641" lon="1.99546">
        <ele>121.6</ele>
        <time>2025-11-16T12:23:42Z</time>
        <extensions>
          <gpxtpx:TrackPointExtension xmlns:gpxtpx="http://www.garmin.com/xmlschemas/TrackPointExtension/v1">
            <gpxtpx:hr>130</gpxtpx:hr>
          </gpxtpx:TrackPointExtension>
        </extensions>
      </trkpt>
      <trkpt lat="48.62638" lon="1.99546">
        <ele>121.6</ele>
        <time>2025-11-16T12:23:43Z</time>
        <extensions>
          <gpxtpx:TrackPointExtension xmlns:gpxtpx="http://www.garmin.com/xmlschemas/TrackPointExtension/v1">
            <gpxtpx:hr>130</gpxtpx:hr>
          </gpxtpx:TrackPointExtension>
        </extensions>
      </trkpt>
      <trkpt lat="48.62634" lon="1.99546">
        <ele>121.6</ele>
        <time>2025-11-16T12:23:44Z</time>
        <extensions>
          <gpxtpx:TrackPointExtension xmlns:gpxtpx="http://www.garmin.com/xmlschemas/TrackPointExtension/v1">
            <gpxtpx:hr>130</gpxtpx:hr>
          </gpxtpx:TrackPointExtension>
        </extensions>
      </trkpt>
      <trkpt lat="48.62631" lon="1.99547">
        <ele>121.6</ele>
        <time>2025-11-16T12:23:45Z</time>
        <extensions>
          <gpxtpx:TrackPointExtension xmlns:gpxtpx="http://www.garmin.com/xmlschemas/TrackPointExtension/v1">
            <gpxtpx:hr>131</gpxtpx:hr>
          </gpxtpx:TrackPointExtension>
        </extensions>
      </trkpt>
      <trkpt lat="48.62628" lon="1.99547">
        <ele>121.6</ele>
        <time>2025-11-16T12:23:46Z</time>
        <extensions>
          <gpxtpx:TrackPointExtension xmlns:gpxtpx="http://www.garmin.com/xmlschemas/TrackPointExtension/v1">
            <gpxtpx:hr>131</gpxtpx:hr>
          </gpxtpx:TrackPointExtension>
        </extensions>
      </trkpt>
      <trkpt lat="48.62625" lon="1.99547">
        <ele>121.4</ele>
        <time>2025-11-16T12:23:47Z</time>
        <extensions>
          <gpxtpx:TrackPointExtension xmlns:gpxtpx="http://www.garmin.com/xmlschemas/TrackPointExtension/v1">
            <gpxtpx:hr>131</gpxtpx:hr>
          </gpxtpx:TrackPointExtension>
        </extensions>
      </trkpt>
      <trkpt lat="48.62622" lon="1.99547">
        <ele>121.4</ele>
        <time>2025-11-16T12:23:48Z</time>
        <extensions>
          <gpxtpx:TrackPointExtension xmlns:gpxtpx="http://www.garmin.com/xmlschemas/TrackPointExtension/v1">
            <gpxtpx:hr>131</gpxtpx:hr>
          </gpxtpx:TrackPointExtension>
        </extensions>
      </trkpt>
      <trkpt lat="48.62619" lon="1.99548">
        <ele>121.4</ele>
        <time>2025-11-16T12:23:49Z</time>
        <extensions>
          <gpxtpx:TrackPointExtension xmlns:gpxtpx="http://www.garmin.com/xmlschemas/TrackPointExtension/v1">
            <gpxtpx:hr>131</gpxtpx:hr>
          </gpxtpx:TrackPointExtension>
        </extensions>
      </trkpt>
      <trkpt lat="48.62616" lon="1.99548">
        <ele>121.4</ele>
        <time>2025-11-16T12:23:50Z</time>
        <extensions>
          <gpxtpx:TrackPointExtension xmlns:gpxtpx="http://www.garmin.com/xmlschemas/TrackPointExtension/v1">
            <gpxtpx:hr>131</gpxtpx:hr>
          </gpxtpx:TrackPointExtension>
        </extensions>
      </trkpt>
      <trkpt lat="48.62613" lon="1.99548">
        <ele>121.2</ele>
        <time>2025-11-16T12:23:51Z</time>
        <extensions>
          <gpxtpx:TrackPointExtension xmlns:gpxtpx="http://www.garmin.com/xmlschemas/TrackPointExtension/v1">
            <gpxtpx:hr>131</gpxtpx:hr>
          </gpxtpx:TrackPointExtension>
        </extensions>
      </trkpt>
      <trkpt lat="48.6261" lon="1.99548">
        <ele>121.2</ele>
        <time>2025-11-16T12:23:52Z</time>
        <extensions>
          <gpxtpx:TrackPointExtension xmlns:gpxtpx="http://www.garmin.com/xmlschemas/TrackPointExtension/v1">
            <gpxtpx:hr>131</gpxtpx:hr>
          </gpxtpx:TrackPointExtension>
        </extensions>
      </trkpt>
      <trkpt lat="48.62607" lon="1.99547">
        <ele>121</ele>
        <time>2025-11-16T12:23:53Z</time>
        <extensions>
          <gpxtpx:TrackPointExtension xmlns:gpxtpx="http://www.garmin.com/xmlschemas/TrackPointExtension/v1">
            <gpxtpx:hr>132</gpxtpx:hr>
          </gpxtpx:TrackPointExtension>
        </extensions>
      </trkpt>
      <trkpt lat="48.62605" lon="1.99547">
        <ele>121</ele>
        <time>2025-11-16T12:23:54Z</time>
        <extensions>
          <gpxtpx:TrackPointExtension xmlns:gpxtpx="http://www.garmin.com/xmlschemas/TrackPointExtension/v1">
            <gpxtpx:hr>132</gpxtpx:hr>
          </gpxtpx:TrackPointExtension>
        </extensions>
      </trkpt>
      <trkpt lat="48.62602" lon="1.99547">
        <ele>120.8</ele>
        <time>2025-11-16T12:23:55Z</time>
        <extensions>
          <gpxtpx:TrackPointExtension xmlns:gpxtpx="http://www.garmin.com/xmlschemas/TrackPointExtension/v1">
            <gpxtpx:hr>132</gpxtpx:hr>
          </gpxtpx:TrackPointExtension>
        </extensions>
      </trkpt>
      <trkpt lat="48.626" lon="1.99547">
        <ele>120.8</ele>
        <time>2025-11-16T12:23:56Z</time>
        <extensions>
          <gpxtpx:TrackPointExtension xmlns:gpxtpx="http://www.garmin.com/xmlschemas/TrackPointExtension/v1">
            <gpxtpx:hr>132</gpxtpx:hr>
          </gpxtpx:TrackPointExtension>
        </extensions>
      </trkpt>
      <trkpt lat="48.62597" lon="1.99547">
        <ele>120.6</ele>
        <time>2025-11-16T12:23:57Z</time>
        <extensions>
          <gpxtpx:TrackPointExtension xmlns:gpxtpx="http://www.garmin.com/xmlschemas/TrackPointExtension/v1">
            <gpxtpx:hr>132</gpxtpx:hr>
          </gpxtpx:TrackPointExtension>
        </extensions>
      </trkpt>
      <trkpt lat="48.62595" lon="1.99546">
        <ele>120.6</ele>
        <time>2025-11-16T12:23:58Z</time>
        <extensions>
          <gpxtpx:TrackPointExtension xmlns:gpxtpx="http://www.garmin.com/xmlschemas/TrackPointExtension/v1">
            <gpxtpx:hr>132</gpxtpx:hr>
          </gpxtpx:TrackPointExtension>
        </extensions>
      </trkpt>
      <trkpt lat="48.62592" lon="1.99546">
        <ele>120.4</ele>
        <time>2025-11-16T12:23:59Z</time>
        <extensions>
          <gpxtpx:TrackPointExtension xmlns:gpxtpx="http://www.garmin.com/xmlschemas/TrackPointExtension/v1">
            <gpxtpx:hr>133</gpxtpx:hr>
          </gpxtpx:TrackPointExtension>
        </extensions>
      </trkpt>
      <trkpt lat="48.6259" lon="1.99546">
        <ele>120.4</ele>
        <time>2025-11-16T12:24:00Z</time>
        <extensions>
          <gpxtpx:TrackPointExtension xmlns:gpxtpx="http://www.garmin.com/xmlschemas/TrackPointExtension/v1">
            <gpxtpx:hr>133</gpxtpx:hr>
          </gpxtpx:TrackPointExtension>
        </extensions>
      </trkpt>
      <trkpt lat="48.62588" lon="1.99546">
        <ele>120.4</ele>
        <time>2025-11-16T12:24:01Z</time>
        <extensions>
          <gpxtpx:TrackPointExtension xmlns:gpxtpx="http://www.garmin.com/xmlschemas/TrackPointExtension/v1">
            <gpxtpx:hr>133</gpxtpx:hr>
          </gpxtpx:TrackPointExtension>
        </extensions>
      </trkpt>
      <trkpt lat="48.62586" lon="1.99546">
        <ele>120.2</ele>
        <time>2025-11-16T12:24:02Z</time>
        <extensions>
          <gpxtpx:TrackPointExtension xmlns:gpxtpx="http://www.garmin.com/xmlschemas/TrackPointExtension/v1">
            <gpxtpx:hr>133</gpxtpx:hr>
          </gpxtpx:TrackPointExtension>
        </extensions>
      </trkpt>
      <trkpt lat="48.62583" lon="1.99545">
        <ele>120.2</ele>
        <time>2025-11-16T12:24:03Z</time>
        <extensions>
          <gpxtpx:TrackPointExtension xmlns:gpxtpx="http://www.garmin.com/xmlschemas/TrackPointExtension/v1">
            <gpxtpx:hr>133</gpxtpx:hr>
          </gpxtpx:TrackPointExtension>
        </extensions>
      </trkpt>
      <trkpt lat="48.6258" lon="1.99545">
        <ele>120</ele>
        <time>2025-11-16T12:24:04Z</time>
        <extensions>
          <gpxtpx:TrackPointExtension xmlns:gpxtpx="http://www.garmin.com/xmlschemas/TrackPointExtension/v1">
            <gpxtpx:hr>133</gpxtpx:hr>
          </gpxtpx:TrackPointExtension>
        </extensions>
      </trkpt>
      <trkpt lat="48.62578" lon="1.99545">
        <ele>120</ele>
        <time>2025-11-16T12:24:05Z</time>
        <extensions>
          <gpxtpx:TrackPointExtension xmlns:gpxtpx="http://www.garmin.com/xmlschemas/TrackPointExtension/v1">
            <gpxtpx:hr>133</gpxtpx:hr>
          </gpxtpx:TrackPointExtension>
        </extensions>
      </trkpt>
      <trkpt lat="48.62576" lon="1.99545">
        <ele>119.8</ele>
        <time>2025-11-16T12:24:06Z</time>
        <extensions>
          <gpxtpx:TrackPointExtension xmlns:gpxtpx="http://www.garmin.com/xmlschemas/TrackPointExtension/v1">
            <gpxtpx:hr>133</gpxtpx:hr>
          </gpxtpx:TrackPointExtension>
        </extensions>
      </trkpt>
      <trkpt lat="48.62574" lon="1.99545">
        <ele>119.8</ele>
        <time>2025-11-16T12:24:07Z</time>
        <extensions>
          <gpxtpx:TrackPointExtension xmlns:gpxtpx="http://www.garmin.com/xmlschemas/TrackPointExtension/v1">
            <gpxtpx:hr>133</gpxtpx:hr>
          </gpxtpx:TrackPointExtension>
        </extensions>
      </trkpt>
      <trkpt lat="48.62571" lon="1.99545">
        <ele>119.8</ele>
        <time>2025-11-16T12:24:08Z</time>
        <extensions>
          <gpxtpx:TrackPointExtension xmlns:gpxtpx="http://www.garmin.com/xmlschemas/TrackPointExtension/v1">
            <gpxtpx:hr>133</gpxtpx:hr>
          </gpxtpx:TrackPointExtension>
        </extensions>
      </trkpt>
      <trkpt lat="48.62569" lon="1.99545">
        <ele>119.6</ele>
        <time>2025-11-16T12:24:09Z</time>
        <extensions>
          <gpxtpx:TrackPointExtension xmlns:gpxtpx="http://www.garmin.com/xmlschemas/TrackPointExtension/v1">
            <gpxtpx:hr>133</gpxtpx:hr>
          </gpxtpx:TrackPointExtension>
        </extensions>
      </trkpt>
      <trkpt lat="48.62567" lon="1.99545">
        <ele>119.6</ele>
        <time>2025-11-16T12:24:10Z</time>
        <extensions>
          <gpxtpx:TrackPointExtension xmlns:gpxtpx="http://www.garmin.com/xmlschemas/TrackPointExtension/v1">
            <gpxtpx:hr>133</gpxtpx:hr>
          </gpxtpx:TrackPointExtension>
        </extensions>
      </trkpt>
      <trkpt lat="48.62565" lon="1.99545">
        <ele>119.4</ele>
        <time>2025-11-16T12:24:11Z</time>
        <extensions>
          <gpxtpx:TrackPointExtension xmlns:gpxtpx="http://www.garmin.com/xmlschemas/TrackPointExtension/v1">
            <gpxtpx:hr>133</gpxtpx:hr>
          </gpxtpx:TrackPointExtension>
        </extensions>
      </trkpt>
      <trkpt lat="48.62563" lon="1.99545">
        <ele>119.4</ele>
        <time>2025-11-16T12:24:12Z</time>
        <extensions>
          <gpxtpx:TrackPointExtension xmlns:gpxtpx="http://www.garmin.com/xmlschemas/TrackPointExtension/v1">
            <gpxtpx:hr>133</gpxtpx:hr>
          </gpxtpx:TrackPointExtension>
        </extensions>
      </trkpt>
      <trkpt lat="48.62561" lon="1.99545">
        <ele>119.2</ele>
        <time>2025-11-16T12:24:13Z</time>
        <extensions>
          <gpxtpx:TrackPointExtension xmlns:gpxtpx="http://www.garmin.com/xmlschemas/TrackPointExtension/v1">
            <gpxtpx:hr>133</gpxtpx:hr>
          </gpxtpx:TrackPointExtension>
        </extensions>
      </trkpt>
      <trkpt lat="48.62559" lon="1.99546">
        <ele>119.2</ele>
        <time>2025-11-16T12:24:14Z</time>
        <extensions>
          <gpxtpx:TrackPointExtension xmlns:gpxtpx="http://www.garmin.com/xmlschemas/TrackPointExtension/v1">
            <gpxtpx:hr>132</gpxtpx:hr>
          </gpxtpx:TrackPointExtension>
        </extensions>
      </trkpt>
      <trkpt lat="48.62556" lon="1.99547">
        <ele>119</ele>
        <time>2025-11-16T12:24:16Z</time>
        <extensions>
          <gpxtpx:TrackPointExtension xmlns:gpxtpx="http://www.garmin.com/xmlschemas/TrackPointExtension/v1">
            <gpxtpx:hr>132</gpxtpx:hr>
          </gpxtpx:TrackPointExtension>
        </extensions>
      </trkpt>
      <trkpt lat="48.62554" lon="1.99548">
        <ele>118.8</ele>
        <time>2025-11-16T12:24:17Z</time>
        <extensions>
          <gpxtpx:TrackPointExtension xmlns:gpxtpx="http://www.garmin.com/xmlschemas/TrackPointExtension/v1">
            <gpxtpx:hr>132</gpxtpx:hr>
          </gpxtpx:TrackPointExtension>
        </extensions>
      </trkpt>
      <trkpt lat="48.62551" lon="1.99549">
        <ele>118.6</ele>
        <time>2025-11-16T12:24:19Z</time>
        <extensions>
          <gpxtpx:TrackPointExtension xmlns:gpxtpx="http://www.garmin.com/xmlschemas/TrackPointExtension/v1">
            <gpxtpx:hr>132</gpxtpx:hr>
          </gpxtpx:TrackPointExtension>
        </extensions>
      </trkpt>
      <trkpt lat="48.62548" lon="1.99549">
        <ele>118.4</ele>
        <time>2025-11-16T12:24:20Z</time>
        <extensions>
          <gpxtpx:TrackPointExtension xmlns:gpxtpx="http://www.garmin.com/xmlschemas/TrackPointExtension/v1">
            <gpxtpx:hr>132</gpxtpx:hr>
          </gpxtpx:TrackPointExtension>
        </extensions>
      </trkpt>
      <trkpt lat="48.62546" lon="1.99549">
        <ele>118.4</ele>
        <time>2025-11-16T12:24:21Z</time>
        <extensions>
          <gpxtpx:TrackPointExtension xmlns:gpxtpx="http://www.garmin.com/xmlschemas/TrackPointExtension/v1">
            <gpxtpx:hr>132</gpxtpx:hr>
          </gpxtpx:TrackPointExtension>
        </extensions>
      </trkpt>
      <trkpt lat="48.62544" lon="1.9955">
        <ele>118.2</ele>
        <time>2025-11-16T12:24:22Z</time>
        <extensions>
          <gpxtpx:TrackPointExtension xmlns:gpxtpx="http://www.garmin.com/xmlschemas/TrackPointExtension/v1">
            <gpxtpx:hr>132</gpxtpx:hr>
          </gpxtpx:TrackPointExtension>
        </extensions>
      </trkpt>
      <trkpt lat="48.62541" lon="1.9955">
        <ele>118</ele>
        <time>2025-11-16T12:24:23Z</time>
        <extensions>
          <gpxtpx:TrackPointExtension xmlns:gpxtpx="http://www.garmin.com/xmlschemas/TrackPointExtension/v1">
            <gpxtpx:hr>132</gpxtpx:hr>
          </gpxtpx:TrackPointExtension>
        </extensions>
      </trkpt>
      <trkpt lat="48.62539" lon="1.9955">
        <ele>117.8</ele>
        <time>2025-11-16T12:24:24Z</time>
        <extensions>
          <gpxtpx:TrackPointExtension xmlns:gpxtpx="http://www.garmin.com/xmlschemas/TrackPointExtension/v1">
            <gpxtpx:hr>132</gpxtpx:hr>
          </gpxtpx:TrackPointExtension>
        </extensions>
      </trkpt>
      <trkpt lat="48.62537" lon="1.99551">
        <ele>117.6</ele>
        <time>2025-11-16T12:24:25Z</time>
        <extensions>
          <gpxtpx:TrackPointExtension xmlns:gpxtpx="http://www.garmin.com/xmlschemas/TrackPointExtension/v1">
            <gpxtpx:hr>132</gpxtpx:hr>
          </gpxtpx:TrackPointExtension>
        </extensions>
      </trkpt>
      <trkpt lat="48.62534" lon="1.9955">
        <ele>117.4</ele>
        <time>2025-11-16T12:24:26Z</time>
        <extensions>
          <gpxtpx:TrackPointExtension xmlns:gpxtpx="http://www.garmin.com/xmlschemas/TrackPointExtension/v1">
            <gpxtpx:hr>132</gpxtpx:hr>
          </gpxtpx:TrackPointExtension>
        </extensions>
      </trkpt>
      <trkpt lat="48.62532" lon="1.9955">
        <ele>117.2</ele>
        <time>2025-11-16T12:24:27Z</time>
        <extensions>
          <gpxtpx:TrackPointExtension xmlns:gpxtpx="http://www.garmin.com/xmlschemas/TrackPointExtension/v1">
            <gpxtpx:hr>132</gpxtpx:hr>
          </gpxtpx:TrackPointExtension>
        </extensions>
      </trkpt>
      <trkpt lat="48.6253" lon="1.9955">
        <ele>117</ele>
        <time>2025-11-16T12:24:28Z</time>
        <extensions>
          <gpxtpx:TrackPointExtension xmlns:gpxtpx="http://www.garmin.com/xmlschemas/TrackPointExtension/v1">
            <gpxtpx:hr>132</gpxtpx:hr>
          </gpxtpx:TrackPointExtension>
        </extensions>
      </trkpt>
      <trkpt lat="48.62526" lon="1.99549">
        <ele>116.6</ele>
        <time>2025-11-16T12:24:30Z</time>
        <extensions>
          <gpxtpx:TrackPointExtension xmlns:gpxtpx="http://www.garmin.com/xmlschemas/TrackPointExtension/v1">
            <gpxtpx:hr>132</gpxtpx:hr>
          </gpxtpx:TrackPointExtension>
        </extensions>
      </trkpt>
      <trkpt lat="48.62524" lon="1.99548">
        <ele>116.2</ele>
        <time>2025-11-16T12:24:32Z</time>
        <extensions>
          <gpxtpx:TrackPointExtension xmlns:gpxtpx="http://www.garmin.com/xmlschemas/TrackPointExtension/v1">
            <gpxtpx:hr>132</gpxtpx:hr>
          </gpxtpx:TrackPointExtension>
        </extensions>
      </trkpt>
      <trkpt lat="48.62521" lon="1.99548">
        <ele>115.8</ele>
        <time>2025-11-16T12:24:34Z</time>
        <extensions>
          <gpxtpx:TrackPointExtension xmlns:gpxtpx="http://www.garmin.com/xmlschemas/TrackPointExtension/v1">
            <gpxtpx:hr>131</gpxtpx:hr>
          </gpxtpx:TrackPointExtension>
        </extensions>
      </trkpt>
      <trkpt lat="48.62518" lon="1.99547">
        <ele>115.6</ele>
        <time>2025-11-16T12:24:36Z</time>
        <extensions>
          <gpxtpx:TrackPointExtension xmlns:gpxtpx="http://www.garmin.com/xmlschemas/TrackPointExtension/v1">
            <gpxtpx:hr>130</gpxtpx:hr>
          </gpxtpx:TrackPointExtension>
        </extensions>
      </trkpt>
      <trkpt lat="48.62516" lon="1.99547">
        <ele>115.4</ele>
        <time>2025-11-16T12:24:37Z</time>
        <extensions>
          <gpxtpx:TrackPointExtension xmlns:gpxtpx="http://www.garmin.com/xmlschemas/TrackPointExtension/v1">
            <gpxtpx:hr>130</gpxtpx:hr>
          </gpxtpx:TrackPointExtension>
        </extensions>
      </trkpt>
      <trkpt lat="48.62515" lon="1.99548">
        <ele>115.2</ele>
        <time>2025-11-16T12:24:38Z</time>
        <extensions>
          <gpxtpx:TrackPointExtension xmlns:gpxtpx="http://www.garmin.com/xmlschemas/TrackPointExtension/v1">
            <gpxtpx:hr>130</gpxtpx:hr>
          </gpxtpx:TrackPointExtension>
        </extensions>
      </trkpt>
      <trkpt lat="48.62513" lon="1.99548">
        <ele>115.2</ele>
        <time>2025-11-16T12:24:39Z</time>
        <extensions>
          <gpxtpx:TrackPointExtension xmlns:gpxtpx="http://www.garmin.com/xmlschemas/TrackPointExtension/v1">
            <gpxtpx:hr>130</gpxtpx:hr>
          </gpxtpx:TrackPointExtension>
        </extensions>
      </trkpt>
      <trkpt lat="48.6251" lon="1.99548">
        <ele>115</ele>
        <time>2025-11-16T12:24:40Z</time>
        <extensions>
          <gpxtpx:TrackPointExtension xmlns:gpxtpx="http://www.garmin.com/xmlschemas/TrackPointExtension/v1">
            <gpxtpx:hr>130</gpxtpx:hr>
          </gpxtpx:TrackPointExtension>
        </extensions>
      </trkpt>
      <trkpt lat="48.62508" lon="1.99549">
        <ele>114.8</ele>
        <time>2025-11-16T12:24:41Z</time>
        <extensions>
          <gpxtpx:TrackPointExtension xmlns:gpxtpx="http://www.garmin.com/xmlschemas/TrackPointExtension/v1">
            <gpxtpx:hr>130</gpxtpx:hr>
          </gpxtpx:TrackPointExtension>
        </extensions>
      </trkpt>
      <trkpt lat="48.62507" lon="1.99549">
        <ele>114.8</ele>
        <time>2025-11-16T12:24:42Z</time>
        <extensions>
          <gpxtpx:TrackPointExtension xmlns:gpxtpx="http://www.garmin.com/xmlschemas/TrackPointExtension/v1">
            <gpxtpx:hr>130</gpxtpx:hr>
          </gpxtpx:TrackPointExtension>
        </extensions>
      </trkpt>
      <trkpt lat="48.62503" lon="1.99549">
        <ele>114.6</ele>
        <time>2025-11-16T12:24:44Z</time>
        <extensions>
          <gpxtpx:TrackPointExtension xmlns:gpxtpx="http://www.garmin.com/xmlschemas/TrackPointExtension/v1">
            <gpxtpx:hr>130</gpxtpx:hr>
          </gpxtpx:TrackPointExtension>
        </extensions>
      </trkpt>
      <trkpt lat="48.625" lon="1.99549">
        <ele>114.6</ele>
        <time>2025-11-16T12:24:46Z</time>
        <extensions>
          <gpxtpx:TrackPointExtension xmlns:gpxtpx="http://www.garmin.com/xmlschemas/TrackPointExtension/v1">
            <gpxtpx:hr>130</gpxtpx:hr>
          </gpxtpx:TrackPointExtension>
        </extensions>
      </trkpt>
      <trkpt lat="48.62497" lon="1.99549">
        <ele>114.4</ele>
        <time>2025-11-16T12:24:48Z</time>
        <extensions>
          <gpxtpx:TrackPointExtension xmlns:gpxtpx="http://www.garmin.com/xmlschemas/TrackPointExtension/v1">
            <gpxtpx:hr>129</gpxtpx:hr>
          </gpxtpx:TrackPointExtension>
        </extensions>
      </trkpt>
      <trkpt lat="48.62493" lon="1.99548">
        <ele>114.2</ele>
        <time>2025-11-16T12:24:50Z</time>
        <extensions>
          <gpxtpx:TrackPointExtension xmlns:gpxtpx="http://www.garmin.com/xmlschemas/TrackPointExtension/v1">
            <gpxtpx:hr>129</gpxtpx:hr>
          </gpxtpx:TrackPointExtension>
        </extensions>
      </trkpt>
      <trkpt lat="48.62491" lon="1.99548">
        <ele>114</ele>
        <time>2025-11-16T12:24:51Z</time>
        <extensions>
          <gpxtpx:TrackPointExtension xmlns:gpxtpx="http://www.garmin.com/xmlschemas/TrackPointExtension/v1">
            <gpxtpx:hr>130</gpxtpx:hr>
          </gpxtpx:TrackPointExtension>
        </extensions>
      </trkpt>
      <trkpt lat="48.62489" lon="1.99548">
        <ele>114</ele>
        <time>2025-11-16T12:24:52Z</time>
        <extensions>
          <gpxtpx:TrackPointExtension xmlns:gpxtpx="http://www.garmin.com/xmlschemas/TrackPointExtension/v1">
            <gpxtpx:hr>130</gpxtpx:hr>
          </gpxtpx:TrackPointExtension>
        </extensions>
      </trkpt>
      <trkpt lat="48.62487" lon="1.99548">
        <ele>113.8</ele>
        <time>2025-11-16T12:24:53Z</time>
        <extensions>
          <gpxtpx:TrackPointExtension xmlns:gpxtpx="http://www.garmin.com/xmlschemas/TrackPointExtension/v1">
            <gpxtpx:hr>130</gpxtpx:hr>
          </gpxtpx:TrackPointExtension>
        </extensions>
      </trkpt>
      <trkpt lat="48.62485" lon="1.99548">
        <ele>113.8</ele>
        <time>2025-11-16T12:24:54Z</time>
        <extensions>
          <gpxtpx:TrackPointExtension xmlns:gpxtpx="http://www.garmin.com/xmlschemas/TrackPointExtension/v1">
            <gpxtpx:hr>129</gpxtpx:hr>
          </gpxtpx:TrackPointExtension>
        </extensions>
      </trkpt>
      <trkpt lat="48.62484" lon="1.99548">
        <ele>113.8</ele>
        <time>2025-11-16T12:24:55Z</time>
        <extensions>
          <gpxtpx:TrackPointExtension xmlns:gpxtpx="http://www.garmin.com/xmlschemas/TrackPointExtension/v1">
            <gpxtpx:hr>129</gpxtpx:hr>
          </gpxtpx:TrackPointExtension>
        </extensions>
      </trkpt>
      <trkpt lat="48.6248" lon="1.99548">
        <ele>113.6</ele>
        <time>2025-11-16T12:24:57Z</time>
        <extensions>
          <gpxtpx:TrackPointExtension xmlns:gpxtpx="http://www.garmin.com/xmlschemas/TrackPointExtension/v1">
            <gpxtpx:hr>128</gpxtpx:hr>
          </gpxtpx:TrackPointExtension>
        </extensions>
      </trkpt>
      <trkpt lat="48.62477" lon="1.99548">
        <ele>113.2</ele>
        <time>2025-11-16T12:24:59Z</time>
        <extensions>
          <gpxtpx:TrackPointExtension xmlns:gpxtpx="http://www.garmin.com/xmlschemas/TrackPointExtension/v1">
            <gpxtpx:hr>128</gpxtpx:hr>
          </gpxtpx:TrackPointExtension>
        </extensions>
      </trkpt>
      <trkpt lat="48.62474" lon="1.99547">
        <ele>112.8</ele>
        <time>2025-11-16T12:25:01Z</time>
        <extensions>
          <gpxtpx:TrackPointExtension xmlns:gpxtpx="http://www.garmin.com/xmlschemas/TrackPointExtension/v1">
            <gpxtpx:hr>127</gpxtpx:hr>
          </gpxtpx:TrackPointExtension>
        </extensions>
      </trkpt>
      <trkpt lat="48.62471" lon="1.99548">
        <ele>112.6</ele>
        <time>2025-11-16T12:25:03Z</time>
        <extensions>
          <gpxtpx:TrackPointExtension xmlns:gpxtpx="http://www.garmin.com/xmlschemas/TrackPointExtension/v1">
            <gpxtpx:hr>128</gpxtpx:hr>
          </gpxtpx:TrackPointExtension>
        </extensions>
      </trkpt>
      <trkpt lat="48.62468" lon="1.99548">
        <ele>112.4</ele>
        <time>2025-11-16T12:25:05Z</time>
        <extensions>
          <gpxtpx:TrackPointExtension xmlns:gpxtpx="http://www.garmin.com/xmlschemas/TrackPointExtension/v1">
            <gpxtpx:hr>127</gpxtpx:hr>
          </gpxtpx:TrackPointExtension>
        </extensions>
      </trkpt>
      <trkpt lat="48.62465" lon="1.99548">
        <ele>112.2</ele>
        <time>2025-11-16T12:25:07Z</time>
        <extensions>
          <gpxtpx:TrackPointExtension xmlns:gpxtpx="http://www.garmin.com/xmlschemas/TrackPointExtension/v1">
            <gpxtpx:hr>126</gpxtpx:hr>
          </gpxtpx:TrackPointExtension>
        </extensions>
      </trkpt>
      <trkpt lat="48.62462" lon="1.99548">
        <ele>111.8</ele>
        <time>2025-11-16T12:25:09Z</time>
        <extensions>
          <gpxtpx:TrackPointExtension xmlns:gpxtpx="http://www.garmin.com/xmlschemas/TrackPointExtension/v1">
            <gpxtpx:hr>126</gpxtpx:hr>
          </gpxtpx:TrackPointExtension>
        </extensions>
      </trkpt>
      <trkpt lat="48.62459" lon="1.99547">
        <ele>111.6</ele>
        <time>2025-11-16T12:25:11Z</time>
        <extensions>
          <gpxtpx:TrackPointExtension xmlns:gpxtpx="http://www.garmin.com/xmlschemas/TrackPointExtension/v1">
            <gpxtpx:hr>126</gpxtpx:hr>
          </gpxtpx:TrackPointExtension>
        </extensions>
      </trkpt>
      <trkpt lat="48.62456" lon="1.99545">
        <ele>111.2</ele>
        <time>2025-11-16T12:25:13Z</time>
        <extensions>
          <gpxtpx:TrackPointExtension xmlns:gpxtpx="http://www.garmin.com/xmlschemas/TrackPointExtension/v1">
            <gpxtpx:hr>128</gpxtpx:hr>
          </gpxtpx:TrackPointExtension>
        </extensions>
      </trkpt>
      <trkpt lat="48.62453" lon="1.99543">
        <ele>111</ele>
        <time>2025-11-16T12:25:15Z</time>
        <extensions>
          <gpxtpx:TrackPointExtension xmlns:gpxtpx="http://www.garmin.com/xmlschemas/TrackPointExtension/v1">
            <gpxtpx:hr>128</gpxtpx:hr>
          </gpxtpx:TrackPointExtension>
        </extensions>
      </trkpt>
      <trkpt lat="48.62451" lon="1.99542">
        <ele>110.8</ele>
        <time>2025-11-16T12:25:16Z</time>
        <extensions>
          <gpxtpx:TrackPointExtension xmlns:gpxtpx="http://www.garmin.com/xmlschemas/TrackPointExtension/v1">
            <gpxtpx:hr>129</gpxtpx:hr>
          </gpxtpx:TrackPointExtension>
        </extensions>
      </trkpt>
      <trkpt lat="48.62448" lon="1.9954">
        <ele>110.6</ele>
        <time>2025-11-16T12:25:18Z</time>
        <extensions>
          <gpxtpx:TrackPointExtension xmlns:gpxtpx="http://www.garmin.com/xmlschemas/TrackPointExtension/v1">
            <gpxtpx:hr>129</gpxtpx:hr>
          </gpxtpx:TrackPointExtension>
        </extensions>
      </trkpt>
      <trkpt lat="48.62445" lon="1.99538">
        <ele>110.4</ele>
        <time>2025-11-16T12:25:20Z</time>
        <extensions>
          <gpxtpx:TrackPointExtension xmlns:gpxtpx="http://www.garmin.com/xmlschemas/TrackPointExtension/v1">
            <gpxtpx:hr>129</gpxtpx:hr>
          </gpxtpx:TrackPointExtension>
        </extensions>
      </trkpt>
      <trkpt lat="48.62442" lon="1.99537">
        <ele>110.4</ele>
        <time>2025-11-16T12:25:22Z</time>
        <extensions>
          <gpxtpx:TrackPointExtension xmlns:gpxtpx="http://www.garmin.com/xmlschemas/TrackPointExtension/v1">
            <gpxtpx:hr>128</gpxtpx:hr>
          </gpxtpx:TrackPointExtension>
        </extensions>
      </trkpt>
      <trkpt lat="48.6244" lon="1.99536">
        <ele>110.2</ele>
        <time>2025-11-16T12:25:23Z</time>
        <extensions>
          <gpxtpx:TrackPointExtension xmlns:gpxtpx="http://www.garmin.com/xmlschemas/TrackPointExtension/v1">
            <gpxtpx:hr>128</gpxtpx:hr>
          </gpxtpx:TrackPointExtension>
        </extensions>
      </trkpt>
      <trkpt lat="48.62437" lon="1.99535">
        <ele>110.2</ele>
        <time>2025-11-16T12:25:25Z</time>
        <extensions>
          <gpxtpx:TrackPointExtension xmlns:gpxtpx="http://www.garmin.com/xmlschemas/TrackPointExtension/v1">
            <gpxtpx:hr>128</gpxtpx:hr>
          </gpxtpx:TrackPointExtension>
        </extensions>
      </trkpt>
      <trkpt lat="48.62435" lon="1.99534">
        <ele>110</ele>
        <time>2025-11-16T12:25:26Z</time>
        <extensions>
          <gpxtpx:TrackPointExtension xmlns:gpxtpx="http://www.garmin.com/xmlschemas/TrackPointExtension/v1">
            <gpxtpx:hr>128</gpxtpx:hr>
          </gpxtpx:TrackPointExtension>
        </extensions>
      </trkpt>
      <trkpt lat="48.62432" lon="1.99533">
        <ele>109.8</ele>
        <time>2025-11-16T12:25:28Z</time>
        <extensions>
          <gpxtpx:TrackPointExtension xmlns:gpxtpx="http://www.garmin.com/xmlschemas/TrackPointExtension/v1">
            <gpxtpx:hr>128</gpxtpx:hr>
          </gpxtpx:TrackPointExtension>
        </extensions>
      </trkpt>
      <trkpt lat="48.62429" lon="1.99532">
        <ele>109.4</ele>
        <time>2025-11-16T12:25:30Z</time>
        <extensions>
          <gpxtpx:TrackPointExtension xmlns:gpxtpx="http://www.garmin.com/xmlschemas/TrackPointExtension/v1">
            <gpxtpx:hr>128</gpxtpx:hr>
          </gpxtpx:TrackPointExtension>
        </extensions>
      </trkpt>
      <trkpt lat="48.62426" lon="1.99531">
        <ele>109.2</ele>
        <time>2025-11-16T12:25:32Z</time>
        <extensions>
          <gpxtpx:TrackPointExtension xmlns:gpxtpx="http://www.garmin.com/xmlschemas/TrackPointExtension/v1">
            <gpxtpx:hr>128</gpxtpx:hr>
          </gpxtpx:TrackPointExtension>
        </extensions>
      </trkpt>
      <trkpt lat="48.62424" lon="1.99531">
        <ele>109</ele>
        <time>2025-11-16T12:25:33Z</time>
        <extensions>
          <gpxtpx:TrackPointExtension xmlns:gpxtpx="http://www.garmin.com/xmlschemas/TrackPointExtension/v1">
            <gpxtpx:hr>128</gpxtpx:hr>
          </gpxtpx:TrackPointExtension>
        </extensions>
      </trkpt>
      <trkpt lat="48.62421" lon="1.9953">
        <ele>108.8</ele>
        <time>2025-11-16T12:25:35Z</time>
        <extensions>
          <gpxtpx:TrackPointExtension xmlns:gpxtpx="http://www.garmin.com/xmlschemas/TrackPointExtension/v1">
            <gpxtpx:hr>127</gpxtpx:hr>
          </gpxtpx:TrackPointExtension>
        </extensions>
      </trkpt>
      <trkpt lat="48.62418" lon="1.9953">
        <ele>108.6</ele>
        <time>2025-11-16T12:25:37Z</time>
        <extensions>
          <gpxtpx:TrackPointExtension xmlns:gpxtpx="http://www.garmin.com/xmlschemas/TrackPointExtension/v1">
            <gpxtpx:hr>126</gpxtpx:hr>
          </gpxtpx:TrackPointExtension>
        </extensions>
      </trkpt>
      <trkpt lat="48.62414" lon="1.9953">
        <ele>108.4</ele>
        <time>2025-11-16T12:25:39Z</time>
        <extensions>
          <gpxtpx:TrackPointExtension xmlns:gpxtpx="http://www.garmin.com/xmlschemas/TrackPointExtension/v1">
            <gpxtpx:hr>126</gpxtpx:hr>
          </gpxtpx:TrackPointExtension>
        </extensions>
      </trkpt>
      <trkpt lat="48.62411" lon="1.99531">
        <ele>108.2</ele>
        <time>2025-11-16T12:25:41Z</time>
        <extensions>
          <gpxtpx:TrackPointExtension xmlns:gpxtpx="http://www.garmin.com/xmlschemas/TrackPointExtension/v1">
            <gpxtpx:hr>126</gpxtpx:hr>
          </gpxtpx:TrackPointExtension>
        </extensions>
      </trkpt>
      <trkpt lat="48.62409" lon="1.99531">
        <ele>108.2</ele>
        <time>2025-11-16T12:25:42Z</time>
        <extensions>
          <gpxtpx:TrackPointExtension xmlns:gpxtpx="http://www.garmin.com/xmlschemas/TrackPointExtension/v1">
            <gpxtpx:hr>126</gpxtpx:hr>
          </gpxtpx:TrackPointExtension>
        </extensions>
      </trkpt>
      <trkpt lat="48.62406" lon="1.99532">
        <ele>108.2</ele>
        <time>2025-11-16T12:25:44Z</time>
        <extensions>
          <gpxtpx:TrackPointExtension xmlns:gpxtpx="http://www.garmin.com/xmlschemas/TrackPointExtension/v1">
            <gpxtpx:hr>126</gpxtpx:hr>
          </gpxtpx:TrackPointExtension>
        </extensions>
      </trkpt>
      <trkpt lat="48.62403" lon="1.99533">
        <ele>108.2</ele>
        <time>2025-11-16T12:25:46Z</time>
        <extensions>
          <gpxtpx:TrackPointExtension xmlns:gpxtpx="http://www.garmin.com/xmlschemas/TrackPointExtension/v1">
            <gpxtpx:hr>126</gpxtpx:hr>
          </gpxtpx:TrackPointExtension>
        </extensions>
      </trkpt>
      <trkpt lat="48.624" lon="1.99534">
        <ele>108</ele>
        <time>2025-11-16T12:25:48Z</time>
        <extensions>
          <gpxtpx:TrackPointExtension xmlns:gpxtpx="http://www.garmin.com/xmlschemas/TrackPointExtension/v1">
            <gpxtpx:hr>126</gpxtpx:hr>
          </gpxtpx:TrackPointExtension>
        </extensions>
      </trkpt>
      <trkpt lat="48.62397" lon="1.99536">
        <ele>107.8</ele>
        <time>2025-11-16T12:25:50Z</time>
        <extensions>
          <gpxtpx:TrackPointExtension xmlns:gpxtpx="http://www.garmin.com/xmlschemas/TrackPointExtension/v1">
            <gpxtpx:hr>126</gpxtpx:hr>
          </gpxtpx:TrackPointExtension>
        </extensions>
      </trkpt>
      <trkpt lat="48.62394" lon="1.99537">
        <ele>107.6</ele>
        <time>2025-11-16T12:25:52Z</time>
        <extensions>
          <gpxtpx:TrackPointExtension xmlns:gpxtpx="http://www.garmin.com/xmlschemas/TrackPointExtension/v1">
            <gpxtpx:hr>126</gpxtpx:hr>
          </gpxtpx:TrackPointExtension>
        </extensions>
      </trkpt>
      <trkpt lat="48.62391" lon="1.99539">
        <ele>107.4</ele>
        <time>2025-11-16T12:25:54Z</time>
        <extensions>
          <gpxtpx:TrackPointExtension xmlns:gpxtpx="http://www.garmin.com/xmlschemas/TrackPointExtension/v1">
            <gpxtpx:hr>126</gpxtpx:hr>
          </gpxtpx:TrackPointExtension>
        </extensions>
      </trkpt>
      <trkpt lat="48.62388" lon="1.99541">
        <ele>107</ele>
        <time>2025-11-16T12:25:56Z</time>
        <extensions>
          <gpxtpx:TrackPointExtension xmlns:gpxtpx="http://www.garmin.com/xmlschemas/TrackPointExtension/v1">
            <gpxtpx:hr>126</gpxtpx:hr>
          </gpxtpx:TrackPointExtension>
        </extensions>
      </trkpt>
      <trkpt lat="48.62385" lon="1.99543">
        <ele>106.8</ele>
        <time>2025-11-16T12:25:58Z</time>
        <extensions>
          <gpxtpx:TrackPointExtension xmlns:gpxtpx="http://www.garmin.com/xmlschemas/TrackPointExtension/v1">
            <gpxtpx:hr>126</gpxtpx:hr>
          </gpxtpx:TrackPointExtension>
        </extensions>
      </trkpt>
      <trkpt lat="48.62382" lon="1.99546">
        <ele>106.8</ele>
        <time>2025-11-16T12:26:00Z</time>
        <extensions>
          <gpxtpx:TrackPointExtension xmlns:gpxtpx="http://www.garmin.com/xmlschemas/TrackPointExtension/v1">
            <gpxtpx:hr>126</gpxtpx:hr>
          </gpxtpx:TrackPointExtension>
        </extensions>
      </trkpt>
      <trkpt lat="48.62379" lon="1.99548">
        <ele>106.8</ele>
        <time>2025-11-16T12:26:02Z</time>
        <extensions>
          <gpxtpx:TrackPointExtension xmlns:gpxtpx="http://www.garmin.com/xmlschemas/TrackPointExtension/v1">
            <gpxtpx:hr>125</gpxtpx:hr>
          </gpxtpx:TrackPointExtension>
        </extensions>
      </trkpt>
      <trkpt lat="48.62378" lon="1.99549">
        <ele>106.8</ele>
        <time>2025-11-16T12:26:03Z</time>
        <extensions>
          <gpxtpx:TrackPointExtension xmlns:gpxtpx="http://www.garmin.com/xmlschemas/TrackPointExtension/v1">
            <gpxtpx:hr>124</gpxtpx:hr>
          </gpxtpx:TrackPointExtension>
        </extensions>
      </trkpt>
      <trkpt lat="48.62375" lon="1.99552">
        <ele>106.8</ele>
        <time>2025-11-16T12:26:05Z</time>
        <extensions>
          <gpxtpx:TrackPointExtension xmlns:gpxtpx="http://www.garmin.com/xmlschemas/TrackPointExtension/v1">
            <gpxtpx:hr>123</gpxtpx:hr>
          </gpxtpx:TrackPointExtension>
        </extensions>
      </trkpt>
      <trkpt lat="48.62373" lon="1.99555">
        <ele>106.8</ele>
        <time>2025-11-16T12:26:07Z</time>
        <extensions>
          <gpxtpx:TrackPointExtension xmlns:gpxtpx="http://www.garmin.com/xmlschemas/TrackPointExtension/v1">
            <gpxtpx:hr>123</gpxtpx:hr>
          </gpxtpx:TrackPointExtension>
        </extensions>
      </trkpt>
      <trkpt lat="48.62371" lon="1.99558">
        <ele>106.8</ele>
        <time>2025-11-16T12:26:09Z</time>
        <extensions>
          <gpxtpx:TrackPointExtension xmlns:gpxtpx="http://www.garmin.com/xmlschemas/TrackPointExtension/v1">
            <gpxtpx:hr>123</gpxtpx:hr>
          </gpxtpx:TrackPointExtension>
        </extensions>
      </trkpt>
      <trkpt lat="48.62369" lon="1.99561">
        <ele>106.6</ele>
        <time>2025-11-16T12:26:11Z</time>
        <extensions>
          <gpxtpx:TrackPointExtension xmlns:gpxtpx="http://www.garmin.com/xmlschemas/TrackPointExtension/v1">
            <gpxtpx:hr>123</gpxtpx:hr>
          </gpxtpx:TrackPointExtension>
        </extensions>
      </trkpt>
      <trkpt lat="48.62367" lon="1.99564">
        <ele>106.4</ele>
        <time>2025-11-16T12:26:13Z</time>
        <extensions>
          <gpxtpx:TrackPointExtension xmlns:gpxtpx="http://www.garmin.com/xmlschemas/TrackPointExtension/v1">
            <gpxtpx:hr>124</gpxtpx:hr>
          </gpxtpx:TrackPointExtension>
        </extensions>
      </trkpt>
      <trkpt lat="48.62365" lon="1.99568">
        <ele>106.2</ele>
        <time>2025-11-16T12:26:15Z</time>
        <extensions>
          <gpxtpx:TrackPointExtension xmlns:gpxtpx="http://www.garmin.com/xmlschemas/TrackPointExtension/v1">
            <gpxtpx:hr>124</gpxtpx:hr>
          </gpxtpx:TrackPointExtension>
        </extensions>
      </trkpt>
      <trkpt lat="48.62363" lon="1.99572">
        <ele>106.2</ele>
        <time>2025-11-16T12:26:17Z</time>
        <extensions>
          <gpxtpx:TrackPointExtension xmlns:gpxtpx="http://www.garmin.com/xmlschemas/TrackPointExtension/v1">
            <gpxtpx:hr>123</gpxtpx:hr>
          </gpxtpx:TrackPointExtension>
        </extensions>
      </trkpt>
      <trkpt lat="48.62361" lon="1.99576">
        <ele>106</ele>
        <time>2025-11-16T12:26:19Z</time>
        <extensions>
          <gpxtpx:TrackPointExtension xmlns:gpxtpx="http://www.garmin.com/xmlschemas/TrackPointExtension/v1">
            <gpxtpx:hr>123</gpxtpx:hr>
          </gpxtpx:TrackPointExtension>
        </extensions>
      </trkpt>
      <trkpt lat="48.6236" lon="1.9958">
        <ele>105.8</ele>
        <time>2025-11-16T12:26:21Z</time>
        <extensions>
          <gpxtpx:TrackPointExtension xmlns:gpxtpx="http://www.garmin.com/xmlschemas/TrackPointExtension/v1">
            <gpxtpx:hr>123</gpxtpx:hr>
          </gpxtpx:TrackPointExtension>
        </extensions>
      </trkpt>
      <trkpt lat="48.62358" lon="1.99585">
        <ele>105.8</ele>
        <time>2025-11-16T12:26:23Z</time>
        <extensions>
          <gpxtpx:TrackPointExtension xmlns:gpxtpx="http://www.garmin.com/xmlschemas/TrackPointExtension/v1">
            <gpxtpx:hr>123</gpxtpx:hr>
          </gpxtpx:TrackPointExtension>
        </extensions>
      </trkpt>
      <trkpt lat="48.62356" lon="1.99589">
        <ele>105.6</ele>
        <time>2025-11-16T12:26:25Z</time>
        <extensions>
          <gpxtpx:TrackPointExtension xmlns:gpxtpx="http://www.garmin.com/xmlschemas/TrackPointExtension/v1">
            <gpxtpx:hr>123</gpxtpx:hr>
          </gpxtpx:TrackPointExtension>
        </extensions>
      </trkpt>
      <trkpt lat="48.62355" lon="1.99593">
        <ele>105.6</ele>
        <time>2025-11-16T12:26:27Z</time>
        <extensions>
          <gpxtpx:TrackPointExtension xmlns:gpxtpx="http://www.garmin.com/xmlschemas/TrackPointExtension/v1">
            <gpxtpx:hr>122</gpxtpx:hr>
          </gpxtpx:TrackPointExtension>
        </extensions>
      </trkpt>
      <trkpt lat="48.62354" lon="1.99597">
        <ele>105.4</ele>
        <time>2025-11-16T12:26:29Z</time>
        <extensions>
          <gpxtpx:TrackPointExtension xmlns:gpxtpx="http://www.garmin.com/xmlschemas/TrackPointExtension/v1">
            <gpxtpx:hr>122</gpxtpx:hr>
          </gpxtpx:TrackPointExtension>
        </extensions>
      </trkpt>
      <trkpt lat="48.62352" lon="1.99602">
        <ele>105.6</ele>
        <time>2025-11-16T12:26:31Z</time>
        <extensions>
          <gpxtpx:TrackPointExtension xmlns:gpxtpx="http://www.garmin.com/xmlschemas/TrackPointExtension/v1">
            <gpxtpx:hr>122</gpxtpx:hr>
          </gpxtpx:TrackPointExtension>
        </extensions>
      </trkpt>
      <trkpt lat="48.62351" lon="1.99604">
        <ele>105.6</ele>
        <time>2025-11-16T12:26:32Z</time>
        <extensions>
          <gpxtpx:TrackPointExtension xmlns:gpxtpx="http://www.garmin.com/xmlschemas/TrackPointExtension/v1">
            <gpxtpx:hr>122</gpxtpx:hr>
          </gpxtpx:TrackPointExtension>
        </extensions>
      </trkpt>
      <trkpt lat="48.62349" lon="1.99608">
        <ele>105.6</ele>
        <time>2025-11-16T12:26:34Z</time>
        <extensions>
          <gpxtpx:TrackPointExtension xmlns:gpxtpx="http://www.garmin.com/xmlschemas/TrackPointExtension/v1">
            <gpxtpx:hr>122</gpxtpx:hr>
          </gpxtpx:TrackPointExtension>
        </extensions>
      </trkpt>
      <trkpt lat="48.62348" lon="1.99612">
        <ele>105.4</ele>
        <time>2025-11-16T12:26:36Z</time>
        <extensions>
          <gpxtpx:TrackPointExtension xmlns:gpxtpx="http://www.garmin.com/xmlschemas/TrackPointExtension/v1">
            <gpxtpx:hr>122</gpxtpx:hr>
          </gpxtpx:TrackPointExtension>
        </extensions>
      </trkpt>
      <trkpt lat="48.62346" lon="1.99616">
        <ele>105.4</ele>
        <time>2025-11-16T12:26:38Z</time>
        <extensions>
          <gpxtpx:TrackPointExtension xmlns:gpxtpx="http://www.garmin.com/xmlschemas/TrackPointExtension/v1">
            <gpxtpx:hr>122</gpxtpx:hr>
          </gpxtpx:TrackPointExtension>
        </extensions>
      </trkpt>
      <trkpt lat="48.62345" lon="1.99618">
        <ele>105.4</ele>
        <time>2025-11-16T12:26:39Z</time>
        <extensions>
          <gpxtpx:TrackPointExtension xmlns:gpxtpx="http://www.garmin.com/xmlschemas/TrackPointExtension/v1">
            <gpxtpx:hr>122</gpxtpx:hr>
          </gpxtpx:TrackPointExtension>
        </extensions>
      </trkpt>
      <trkpt lat="48.62343" lon="1.99622">
        <ele>105.4</ele>
        <time>2025-11-16T12:26:41Z</time>
        <extensions>
          <gpxtpx:TrackPointExtension xmlns:gpxtpx="http://www.garmin.com/xmlschemas/TrackPointExtension/v1">
            <gpxtpx:hr>122</gpxtpx:hr>
          </gpxtpx:TrackPointExtension>
        </extensions>
      </trkpt>
      <trkpt lat="48.62341" lon="1.99625">
        <ele>105.6</ele>
        <time>2025-11-16T12:26:43Z</time>
        <extensions>
          <gpxtpx:TrackPointExtension xmlns:gpxtpx="http://www.garmin.com/xmlschemas/TrackPointExtension/v1">
            <gpxtpx:hr>122</gpxtpx:hr>
          </gpxtpx:TrackPointExtension>
        </extensions>
      </trkpt>
      <trkpt lat="48.62339" lon="1.99629">
        <ele>105.4</ele>
        <time>2025-11-16T12:26:45Z</time>
        <extensions>
          <gpxtpx:TrackPointExtension xmlns:gpxtpx="http://www.garmin.com/xmlschemas/TrackPointExtension/v1">
            <gpxtpx:hr>122</gpxtpx:hr>
          </gpxtpx:TrackPointExtension>
        </extensions>
      </trkpt>
      <trkpt lat="48.62337" lon="1.99633">
        <ele>105.4</ele>
        <time>2025-11-16T12:26:47Z</time>
        <extensions>
          <gpxtpx:TrackPointExtension xmlns:gpxtpx="http://www.garmin.com/xmlschemas/TrackPointExtension/v1">
            <gpxtpx:hr>122</gpxtpx:hr>
          </gpxtpx:TrackPointExtension>
        </extensions>
      </trkpt>
      <trkpt lat="48.62334" lon="1.99636">
        <ele>105.4</ele>
        <time>2025-11-16T12:26:49Z</time>
        <extensions>
          <gpxtpx:TrackPointExtension xmlns:gpxtpx="http://www.garmin.com/xmlschemas/TrackPointExtension/v1">
            <gpxtpx:hr>122</gpxtpx:hr>
          </gpxtpx:TrackPointExtension>
        </extensions>
      </trkpt>
      <trkpt lat="48.62332" lon="1.99639">
        <ele>105.4</ele>
        <time>2025-11-16T12:26:51Z</time>
        <extensions>
          <gpxtpx:TrackPointExtension xmlns:gpxtpx="http://www.garmin.com/xmlschemas/TrackPointExtension/v1">
            <gpxtpx:hr>122</gpxtpx:hr>
          </gpxtpx:TrackPointExtension>
        </extensions>
      </trkpt>
      <trkpt lat="48.6233" lon="1.99642">
        <ele>105.2</ele>
        <time>2025-11-16T12:26:53Z</time>
        <extensions>
          <gpxtpx:TrackPointExtension xmlns:gpxtpx="http://www.garmin.com/xmlschemas/TrackPointExtension/v1">
            <gpxtpx:hr>122</gpxtpx:hr>
          </gpxtpx:TrackPointExtension>
        </extensions>
      </trkpt>
      <trkpt lat="48.62327" lon="1.99644">
        <ele>105.2</ele>
        <time>2025-11-16T12:26:55Z</time>
        <extensions>
          <gpxtpx:TrackPointExtension xmlns:gpxtpx="http://www.garmin.com/xmlschemas/TrackPointExtension/v1">
            <gpxtpx:hr>121</gpxtpx:hr>
          </gpxtpx:TrackPointExtension>
        </extensions>
      </trkpt>
      <trkpt lat="48.62324" lon="1.99646">
        <ele>105</ele>
        <time>2025-11-16T12:26:57Z</time>
        <extensions>
          <gpxtpx:TrackPointExtension xmlns:gpxtpx="http://www.garmin.com/xmlschemas/TrackPointExtension/v1">
            <gpxtpx:hr>121</gpxtpx:hr>
          </gpxtpx:TrackPointExtension>
        </extensions>
      </trkpt>
      <trkpt lat="48.62321" lon="1.99648">
        <ele>104.8</ele>
        <time>2025-11-16T12:26:59Z</time>
        <extensions>
          <gpxtpx:TrackPointExtension xmlns:gpxtpx="http://www.garmin.com/xmlschemas/TrackPointExtension/v1">
            <gpxtpx:hr>121</gpxtpx:hr>
          </gpxtpx:TrackPointExtension>
        </extensions>
      </trkpt>
      <trkpt lat="48.62319" lon="1.99648">
        <ele>104.8</ele>
        <time>2025-11-16T12:27:00Z</time>
        <extensions>
          <gpxtpx:TrackPointExtension xmlns:gpxtpx="http://www.garmin.com/xmlschemas/TrackPointExtension/v1">
            <gpxtpx:hr>120</gpxtpx:hr>
          </gpxtpx:TrackPointExtension>
        </extensions>
      </trkpt>
      <trkpt lat="48.62316" lon="1.9965">
        <ele>104.8</ele>
        <time>2025-11-16T12:27:02Z</time>
        <extensions>
          <gpxtpx:TrackPointExtension xmlns:gpxtpx="http://www.garmin.com/xmlschemas/TrackPointExtension/v1">
            <gpxtpx:hr>119</gpxtpx:hr>
          </gpxtpx:TrackPointExtension>
        </extensions>
      </trkpt>
      <trkpt lat="48.62313" lon="1.99652">
        <ele>104.8</ele>
        <time>2025-11-16T12:27:04Z</time>
        <extensions>
          <gpxtpx:TrackPointExtension xmlns:gpxtpx="http://www.garmin.com/xmlschemas/TrackPointExtension/v1">
            <gpxtpx:hr>119</gpxtpx:hr>
          </gpxtpx:TrackPointExtension>
        </extensions>
      </trkpt>
      <trkpt lat="48.6231" lon="1.99655">
        <ele>104.8</ele>
        <time>2025-11-16T12:27:06Z</time>
        <extensions>
          <gpxtpx:TrackPointExtension xmlns:gpxtpx="http://www.garmin.com/xmlschemas/TrackPointExtension/v1">
            <gpxtpx:hr>119</gpxtpx:hr>
          </gpxtpx:TrackPointExtension>
        </extensions>
      </trkpt>
      <trkpt lat="48.62308" lon="1.99656">
        <ele>105</ele>
        <time>2025-11-16T12:27:07Z</time>
        <extensions>
          <gpxtpx:TrackPointExtension xmlns:gpxtpx="http://www.garmin.com/xmlschemas/TrackPointExtension/v1">
            <gpxtpx:hr>119</gpxtpx:hr>
          </gpxtpx:TrackPointExtension>
        </extensions>
      </trkpt>
      <trkpt lat="48.62307" lon="1.99657">
        <ele>105</ele>
        <time>2025-11-16T12:27:08Z</time>
        <extensions>
          <gpxtpx:TrackPointExtension xmlns:gpxtpx="http://www.garmin.com/xmlschemas/TrackPointExtension/v1">
            <gpxtpx:hr>119</gpxtpx:hr>
          </gpxtpx:TrackPointExtension>
        </extensions>
      </trkpt>
      <trkpt lat="48.62304" lon="1.9966">
        <ele>105.2</ele>
        <time>2025-11-16T12:27:10Z</time>
        <extensions>
          <gpxtpx:TrackPointExtension xmlns:gpxtpx="http://www.garmin.com/xmlschemas/TrackPointExtension/v1">
            <gpxtpx:hr>119</gpxtpx:hr>
          </gpxtpx:TrackPointExtension>
        </extensions>
      </trkpt>
      <trkpt lat="48.62301" lon="1.99662">
        <ele>105.2</ele>
        <time>2025-11-16T12:27:12Z</time>
        <extensions>
          <gpxtpx:TrackPointExtension xmlns:gpxtpx="http://www.garmin.com/xmlschemas/TrackPointExtension/v1">
            <gpxtpx:hr>119</gpxtpx:hr>
          </gpxtpx:TrackPointExtension>
        </extensions>
      </trkpt>
      <trkpt lat="48.62299" lon="1.99664">
        <ele>105.4</ele>
        <time>2025-11-16T12:27:14Z</time>
        <extensions>
          <gpxtpx:TrackPointExtension xmlns:gpxtpx="http://www.garmin.com/xmlschemas/TrackPointExtension/v1">
            <gpxtpx:hr>119</gpxtpx:hr>
          </gpxtpx:TrackPointExtension>
        </extensions>
      </trkpt>
      <trkpt lat="48.62296" lon="1.99666">
        <ele>105.4</ele>
        <time>2025-11-16T12:27:16Z</time>
        <extensions>
          <gpxtpx:TrackPointExtension xmlns:gpxtpx="http://www.garmin.com/xmlschemas/TrackPointExtension/v1">
            <gpxtpx:hr>119</gpxtpx:hr>
          </gpxtpx:TrackPointExtension>
        </extensions>
      </trkpt>
      <trkpt lat="48.62293" lon="1.99669">
        <ele>105.2</ele>
        <time>2025-11-16T12:27:18Z</time>
        <extensions>
          <gpxtpx:TrackPointExtension xmlns:gpxtpx="http://www.garmin.com/xmlschemas/TrackPointExtension/v1">
            <gpxtpx:hr>119</gpxtpx:hr>
          </gpxtpx:TrackPointExtension>
        </extensions>
      </trkpt>
      <trkpt lat="48.6229" lon="1.99671">
        <ele>105.4</ele>
        <time>2025-11-16T12:27:20Z</time>
        <extensions>
          <gpxtpx:TrackPointExtension xmlns:gpxtpx="http://www.garmin.com/xmlschemas/TrackPointExtension/v1">
            <gpxtpx:hr>119</gpxtpx:hr>
          </gpxtpx:TrackPointExtension>
        </extensions>
      </trkpt>
      <trkpt lat="48.62287" lon="1.99673">
        <ele>105.4</ele>
        <time>2025-11-16T12:27:22Z</time>
        <extensions>
          <gpxtpx:TrackPointExtension xmlns:gpxtpx="http://www.garmin.com/xmlschemas/TrackPointExtension/v1">
            <gpxtpx:hr>119</gpxtpx:hr>
          </gpxtpx:TrackPointExtension>
        </extensions>
      </trkpt>
      <trkpt lat="48.62284" lon="1.99675">
        <ele>105.6</ele>
        <time>2025-11-16T12:27:24Z</time>
        <extensions>
          <gpxtpx:TrackPointExtension xmlns:gpxtpx="http://www.garmin.com/xmlschemas/TrackPointExtension/v1">
            <gpxtpx:hr>118</gpxtpx:hr>
          </gpxtpx:TrackPointExtension>
        </extensions>
      </trkpt>
      <trkpt lat="48.62282" lon="1.99678">
        <ele>105.6</ele>
        <time>2025-11-16T12:27:26Z</time>
        <extensions>
          <gpxtpx:TrackPointExtension xmlns:gpxtpx="http://www.garmin.com/xmlschemas/TrackPointExtension/v1">
            <gpxtpx:hr>119</gpxtpx:hr>
          </gpxtpx:TrackPointExtension>
        </extensions>
      </trkpt>
      <trkpt lat="48.6228" lon="1.99679">
        <ele>105.6</ele>
        <time>2025-11-16T12:27:27Z</time>
        <extensions>
          <gpxtpx:TrackPointExtension xmlns:gpxtpx="http://www.garmin.com/xmlschemas/TrackPointExtension/v1">
            <gpxtpx:hr>119</gpxtpx:hr>
          </gpxtpx:TrackPointExtension>
        </extensions>
      </trkpt>
      <trkpt lat="48.62278" lon="1.99682">
        <ele>105.8</ele>
        <time>2025-11-16T12:27:29Z</time>
        <extensions>
          <gpxtpx:TrackPointExtension xmlns:gpxtpx="http://www.garmin.com/xmlschemas/TrackPointExtension/v1">
            <gpxtpx:hr>121</gpxtpx:hr>
          </gpxtpx:TrackPointExtension>
        </extensions>
      </trkpt>
      <trkpt lat="48.62275" lon="1.99684">
        <ele>105.8</ele>
        <time>2025-11-16T12:27:31Z</time>
        <extensions>
          <gpxtpx:TrackPointExtension xmlns:gpxtpx="http://www.garmin.com/xmlschemas/TrackPointExtension/v1">
            <gpxtpx:hr>121</gpxtpx:hr>
          </gpxtpx:TrackPointExtension>
        </extensions>
      </trkpt>
      <trkpt lat="48.62271" lon="1.99686">
        <ele>106</ele>
        <time>2025-11-16T12:27:33Z</time>
        <extensions>
          <gpxtpx:TrackPointExtension xmlns:gpxtpx="http://www.garmin.com/xmlschemas/TrackPointExtension/v1">
            <gpxtpx:hr>121</gpxtpx:hr>
          </gpxtpx:TrackPointExtension>
        </extensions>
      </trkpt>
      <trkpt lat="48.62269" lon="1.99688">
        <ele>106.2</ele>
        <time>2025-11-16T12:27:35Z</time>
        <extensions>
          <gpxtpx:TrackPointExtension xmlns:gpxtpx="http://www.garmin.com/xmlschemas/TrackPointExtension/v1">
            <gpxtpx:hr>121</gpxtpx:hr>
          </gpxtpx:TrackPointExtension>
        </extensions>
      </trkpt>
      <trkpt lat="48.62266" lon="1.99691">
        <ele>106.2</ele>
        <time>2025-11-16T12:27:37Z</time>
        <extensions>
          <gpxtpx:TrackPointExtension xmlns:gpxtpx="http://www.garmin.com/xmlschemas/TrackPointExtension/v1">
            <gpxtpx:hr>122</gpxtpx:hr>
          </gpxtpx:TrackPointExtension>
        </extensions>
      </trkpt>
      <trkpt lat="48.62263" lon="1.99693">
        <ele>106.2</ele>
        <time>2025-11-16T12:27:39Z</time>
        <extensions>
          <gpxtpx:TrackPointExtension xmlns:gpxtpx="http://www.garmin.com/xmlschemas/TrackPointExtension/v1">
            <gpxtpx:hr>124</gpxtpx:hr>
          </gpxtpx:TrackPointExtension>
        </extensions>
      </trkpt>
      <trkpt lat="48.62261" lon="1.99694">
        <ele>106.2</ele>
        <time>2025-11-16T12:27:41Z</time>
        <extensions>
          <gpxtpx:TrackPointExtension xmlns:gpxtpx="http://www.garmin.com/xmlschemas/TrackPointExtension/v1">
            <gpxtpx:hr>124</gpxtpx:hr>
          </gpxtpx:TrackPointExtension>
        </extensions>
      </trkpt>
      <trkpt lat="48.62258" lon="1.99696">
        <ele>106.2</ele>
        <time>2025-11-16T12:27:43Z</time>
        <extensions>
          <gpxtpx:TrackPointExtension xmlns:gpxtpx="http://www.garmin.com/xmlschemas/TrackPointExtension/v1">
            <gpxtpx:hr>124</gpxtpx:hr>
          </gpxtpx:TrackPointExtension>
        </extensions>
      </trkpt>
      <trkpt lat="48.62255" lon="1.99698">
        <ele>106.4</ele>
        <time>2025-11-16T12:27:45Z</time>
        <extensions>
          <gpxtpx:TrackPointExtension xmlns:gpxtpx="http://www.garmin.com/xmlschemas/TrackPointExtension/v1">
            <gpxtpx:hr>123</gpxtpx:hr>
          </gpxtpx:TrackPointExtension>
        </extensions>
      </trkpt>
      <trkpt lat="48.62253" lon="1.997">
        <ele>106.4</ele>
        <time>2025-11-16T12:27:47Z</time>
        <extensions>
          <gpxtpx:TrackPointExtension xmlns:gpxtpx="http://www.garmin.com/xmlschemas/TrackPointExtension/v1">
            <gpxtpx:hr>121</gpxtpx:hr>
          </gpxtpx:TrackPointExtension>
        </extensions>
      </trkpt>
      <trkpt lat="48.62251" lon="1.99702">
        <ele>106.4</ele>
        <time>2025-11-16T12:27:48Z</time>
        <extensions>
          <gpxtpx:TrackPointExtension xmlns:gpxtpx="http://www.garmin.com/xmlschemas/TrackPointExtension/v1">
            <gpxtpx:hr>120</gpxtpx:hr>
          </gpxtpx:TrackPointExtension>
        </extensions>
      </trkpt>
      <trkpt lat="48.62249" lon="1.99704">
        <ele>106.6</ele>
        <time>2025-11-16T12:27:50Z</time>
        <extensions>
          <gpxtpx:TrackPointExtension xmlns:gpxtpx="http://www.garmin.com/xmlschemas/TrackPointExtension/v1">
            <gpxtpx:hr>120</gpxtpx:hr>
          </gpxtpx:TrackPointExtension>
        </extensions>
      </trkpt>
      <trkpt lat="48.62247" lon="1.99706">
        <ele>106.6</ele>
        <time>2025-11-16T12:27:51Z</time>
        <extensions>
          <gpxtpx:TrackPointExtension xmlns:gpxtpx="http://www.garmin.com/xmlschemas/TrackPointExtension/v1">
            <gpxtpx:hr>120</gpxtpx:hr>
          </gpxtpx:TrackPointExtension>
        </extensions>
      </trkpt>
      <trkpt lat="48.62244" lon="1.99709">
        <ele>107</ele>
        <time>2025-11-16T12:27:53Z</time>
        <extensions>
          <gpxtpx:TrackPointExtension xmlns:gpxtpx="http://www.garmin.com/xmlschemas/TrackPointExtension/v1">
            <gpxtpx:hr>120</gpxtpx:hr>
          </gpxtpx:TrackPointExtension>
        </extensions>
      </trkpt>
      <trkpt lat="48.62242" lon="1.99711">
        <ele>107.2</ele>
        <time>2025-11-16T12:27:55Z</time>
        <extensions>
          <gpxtpx:TrackPointExtension xmlns:gpxtpx="http://www.garmin.com/xmlschemas/TrackPointExtension/v1">
            <gpxtpx:hr>120</gpxtpx:hr>
          </gpxtpx:TrackPointExtension>
        </extensions>
      </trkpt>
      <trkpt lat="48.62239" lon="1.99714">
        <ele>107.4</ele>
        <time>2025-11-16T12:27:57Z</time>
        <extensions>
          <gpxtpx:TrackPointExtension xmlns:gpxtpx="http://www.garmin.com/xmlschemas/TrackPointExtension/v1">
            <gpxtpx:hr>120</gpxtpx:hr>
          </gpxtpx:TrackPointExtension>
        </extensions>
      </trkpt>
      <trkpt lat="48.62237" lon="1.99716">
        <ele>107.6</ele>
        <time>2025-11-16T12:27:58Z</time>
        <extensions>
          <gpxtpx:TrackPointExtension xmlns:gpxtpx="http://www.garmin.com/xmlschemas/TrackPointExtension/v1">
            <gpxtpx:hr>120</gpxtpx:hr>
          </gpxtpx:TrackPointExtension>
        </extensions>
      </trkpt>
      <trkpt lat="48.62235" lon="1.99719">
        <ele>107.8</ele>
        <time>2025-11-16T12:28:00Z</time>
        <extensions>
          <gpxtpx:TrackPointExtension xmlns:gpxtpx="http://www.garmin.com/xmlschemas/TrackPointExtension/v1">
            <gpxtpx:hr>120</gpxtpx:hr>
          </gpxtpx:TrackPointExtension>
        </extensions>
      </trkpt>
      <trkpt lat="48.62233" lon="1.9972">
        <ele>107.8</ele>
        <time>2025-11-16T12:28:01Z</time>
        <extensions>
          <gpxtpx:TrackPointExtension xmlns:gpxtpx="http://www.garmin.com/xmlschemas/TrackPointExtension/v1">
            <gpxtpx:hr>120</gpxtpx:hr>
          </gpxtpx:TrackPointExtension>
        </extensions>
      </trkpt>
      <trkpt lat="48.62232" lon="1.99721">
        <ele>108</ele>
        <time>2025-11-16T12:28:02Z</time>
        <extensions>
          <gpxtpx:TrackPointExtension xmlns:gpxtpx="http://www.garmin.com/xmlschemas/TrackPointExtension/v1">
            <gpxtpx:hr>120</gpxtpx:hr>
          </gpxtpx:TrackPointExtension>
        </extensions>
      </trkpt>
      <trkpt lat="48.62229" lon="1.99724">
        <ele>108</ele>
        <time>2025-11-16T12:28:04Z</time>
        <extensions>
          <gpxtpx:TrackPointExtension xmlns:gpxtpx="http://www.garmin.com/xmlschemas/TrackPointExtension/v1">
            <gpxtpx:hr>119</gpxtpx:hr>
          </gpxtpx:TrackPointExtension>
        </extensions>
      </trkpt>
      <trkpt lat="48.62227" lon="1.99726">
        <ele>108.2</ele>
        <time>2025-11-16T12:28:06Z</time>
        <extensions>
          <gpxtpx:TrackPointExtension xmlns:gpxtpx="http://www.garmin.com/xmlschemas/TrackPointExtension/v1">
            <gpxtpx:hr>119</gpxtpx:hr>
          </gpxtpx:TrackPointExtension>
        </extensions>
      </trkpt>
      <trkpt lat="48.62224" lon="1.99728">
        <ele>108.4</ele>
        <time>2025-11-16T12:28:08Z</time>
        <extensions>
          <gpxtpx:TrackPointExtension xmlns:gpxtpx="http://www.garmin.com/xmlschemas/TrackPointExtension/v1">
            <gpxtpx:hr>118</gpxtpx:hr>
          </gpxtpx:TrackPointExtension>
        </extensions>
      </trkpt>
      <trkpt lat="48.62221" lon="1.99731">
        <ele>108.6</ele>
        <time>2025-11-16T12:28:10Z</time>
        <extensions>
          <gpxtpx:TrackPointExtension xmlns:gpxtpx="http://www.garmin.com/xmlschemas/TrackPointExtension/v1">
            <gpxtpx:hr>118</gpxtpx:hr>
          </gpxtpx:TrackPointExtension>
        </extensions>
      </trkpt>
      <trkpt lat="48.62219" lon="1.99733">
        <ele>109</ele>
        <time>2025-11-16T12:28:12Z</time>
        <extensions>
          <gpxtpx:TrackPointExtension xmlns:gpxtpx="http://www.garmin.com/xmlschemas/TrackPointExtension/v1">
            <gpxtpx:hr>117</gpxtpx:hr>
          </gpxtpx:TrackPointExtension>
        </extensions>
      </trkpt>
      <trkpt lat="48.62216" lon="1.99735">
        <ele>109</ele>
        <time>2025-11-16T12:28:14Z</time>
        <extensions>
          <gpxtpx:TrackPointExtension xmlns:gpxtpx="http://www.garmin.com/xmlschemas/TrackPointExtension/v1">
            <gpxtpx:hr>117</gpxtpx:hr>
          </gpxtpx:TrackPointExtension>
        </extensions>
      </trkpt>
      <trkpt lat="48.62213" lon="1.99737">
        <ele>109</ele>
        <time>2025-11-16T12:28:16Z</time>
        <extensions>
          <gpxtpx:TrackPointExtension xmlns:gpxtpx="http://www.garmin.com/xmlschemas/TrackPointExtension/v1">
            <gpxtpx:hr>118</gpxtpx:hr>
          </gpxtpx:TrackPointExtension>
        </extensions>
      </trkpt>
      <trkpt lat="48.6221" lon="1.99738">
        <ele>109</ele>
        <time>2025-11-16T12:28:18Z</time>
        <extensions>
          <gpxtpx:TrackPointExtension xmlns:gpxtpx="http://www.garmin.com/xmlschemas/TrackPointExtension/v1">
            <gpxtpx:hr>118</gpxtpx:hr>
          </gpxtpx:TrackPointExtension>
        </extensions>
      </trkpt>
      <trkpt lat="48.62207" lon="1.99739">
        <ele>109.2</ele>
        <time>2025-11-16T12:28:20Z</time>
        <extensions>
          <gpxtpx:TrackPointExtension xmlns:gpxtpx="http://www.garmin.com/xmlschemas/TrackPointExtension/v1">
            <gpxtpx:hr>117</gpxtpx:hr>
          </gpxtpx:TrackPointExtension>
        </extensions>
      </trkpt>
      <trkpt lat="48.62204" lon="1.99741">
        <ele>109.2</ele>
        <time>2025-11-16T12:28:22Z</time>
        <extensions>
          <gpxtpx:TrackPointExtension xmlns:gpxtpx="http://www.garmin.com/xmlschemas/TrackPointExtension/v1">
            <gpxtpx:hr>117</gpxtpx:hr>
          </gpxtpx:TrackPointExtension>
        </extensions>
      </trkpt>
      <trkpt lat="48.62202" lon="1.99744">
        <ele>109.4</ele>
        <time>2025-11-16T12:28:24Z</time>
        <extensions>
          <gpxtpx:TrackPointExtension xmlns:gpxtpx="http://www.garmin.com/xmlschemas/TrackPointExtension/v1">
            <gpxtpx:hr>117</gpxtpx:hr>
          </gpxtpx:TrackPointExtension>
        </extensions>
      </trkpt>
      <trkpt lat="48.622" lon="1.99748">
        <ele>109.4</ele>
        <time>2025-11-16T12:28:26Z</time>
        <extensions>
          <gpxtpx:TrackPointExtension xmlns:gpxtpx="http://www.garmin.com/xmlschemas/TrackPointExtension/v1">
            <gpxtpx:hr>117</gpxtpx:hr>
          </gpxtpx:TrackPointExtension>
        </extensions>
      </trkpt>
      <trkpt lat="48.62199" lon="1.99752">
        <ele>109.4</ele>
        <time>2025-11-16T12:28:28Z</time>
        <extensions>
          <gpxtpx:TrackPointExtension xmlns:gpxtpx="http://www.garmin.com/xmlschemas/TrackPointExtension/v1">
            <gpxtpx:hr>117</gpxtpx:hr>
          </gpxtpx:TrackPointExtension>
        </extensions>
      </trkpt>
      <trkpt lat="48.62197" lon="1.99756">
        <ele>109.4</ele>
        <time>2025-11-16T12:28:30Z</time>
        <extensions>
          <gpxtpx:TrackPointExtension xmlns:gpxtpx="http://www.garmin.com/xmlschemas/TrackPointExtension/v1">
            <gpxtpx:hr>117</gpxtpx:hr>
          </gpxtpx:TrackPointExtension>
        </extensions>
      </trkpt>
      <trkpt lat="48.62196" lon="1.9976">
        <ele>109.4</ele>
        <time>2025-11-16T12:28:32Z</time>
        <extensions>
          <gpxtpx:TrackPointExtension xmlns:gpxtpx="http://www.garmin.com/xmlschemas/TrackPointExtension/v1">
            <gpxtpx:hr>118</gpxtpx:hr>
          </gpxtpx:TrackPointExtension>
        </extensions>
      </trkpt>
      <trkpt lat="48.62195" lon="1.99764">
        <ele>109.4</ele>
        <time>2025-11-16T12:28:34Z</time>
        <extensions>
          <gpxtpx:TrackPointExtension xmlns:gpxtpx="http://www.garmin.com/xmlschemas/TrackPointExtension/v1">
            <gpxtpx:hr>118</gpxtpx:hr>
          </gpxtpx:TrackPointExtension>
        </extensions>
      </trkpt>
      <trkpt lat="48.62195" lon="1.99769">
        <ele>109.4</ele>
        <time>2025-11-16T12:28:36Z</time>
        <extensions>
          <gpxtpx:TrackPointExtension xmlns:gpxtpx="http://www.garmin.com/xmlschemas/TrackPointExtension/v1">
            <gpxtpx:hr>119</gpxtpx:hr>
          </gpxtpx:TrackPointExtension>
        </extensions>
      </trkpt>
      <trkpt lat="48.62195" lon="1.99773">
        <ele>109.6</ele>
        <time>2025-11-16T12:28:38Z</time>
        <extensions>
          <gpxtpx:TrackPointExtension xmlns:gpxtpx="http://www.garmin.com/xmlschemas/TrackPointExtension/v1">
            <gpxtpx:hr>119</gpxtpx:hr>
          </gpxtpx:TrackPointExtension>
        </extensions>
      </trkpt>
      <trkpt lat="48.62196" lon="1.99777">
        <ele>109.8</ele>
        <time>2025-11-16T12:28:40Z</time>
        <extensions>
          <gpxtpx:TrackPointExtension xmlns:gpxtpx="http://www.garmin.com/xmlschemas/TrackPointExtension/v1">
            <gpxtpx:hr>119</gpxtpx:hr>
          </gpxtpx:TrackPointExtension>
        </extensions>
      </trkpt>
      <trkpt lat="48.62197" lon="1.99782">
        <ele>110.2</ele>
        <time>2025-11-16T12:28:42Z</time>
        <extensions>
          <gpxtpx:TrackPointExtension xmlns:gpxtpx="http://www.garmin.com/xmlschemas/TrackPointExtension/v1">
            <gpxtpx:hr>119</gpxtpx:hr>
          </gpxtpx:TrackPointExtension>
        </extensions>
      </trkpt>
      <trkpt lat="48.62198" lon="1.99784">
        <ele>110.4</ele>
        <time>2025-11-16T12:28:43Z</time>
        <extensions>
          <gpxtpx:TrackPointExtension xmlns:gpxtpx="http://www.garmin.com/xmlschemas/TrackPointExtension/v1">
            <gpxtpx:hr>119</gpxtpx:hr>
          </gpxtpx:TrackPointExtension>
        </extensions>
      </trkpt>
      <trkpt lat="48.622" lon="1.99789">
        <ele>110.4</ele>
        <time>2025-11-16T12:28:45Z</time>
        <extensions>
          <gpxtpx:TrackPointExtension xmlns:gpxtpx="http://www.garmin.com/xmlschemas/TrackPointExtension/v1">
            <gpxtpx:hr>120</gpxtpx:hr>
          </gpxtpx:TrackPointExtension>
        </extensions>
      </trkpt>
      <trkpt lat="48.62202" lon="1.99793">
        <ele>110.4</ele>
        <time>2025-11-16T12:28:47Z</time>
        <extensions>
          <gpxtpx:TrackPointExtension xmlns:gpxtpx="http://www.garmin.com/xmlschemas/TrackPointExtension/v1">
            <gpxtpx:hr>120</gpxtpx:hr>
          </gpxtpx:TrackPointExtension>
        </extensions>
      </trkpt>
      <trkpt lat="48.62203" lon="1.99795">
        <ele>110.4</ele>
        <time>2025-11-16T12:28:48Z</time>
        <extensions>
          <gpxtpx:TrackPointExtension xmlns:gpxtpx="http://www.garmin.com/xmlschemas/TrackPointExtension/v1">
            <gpxtpx:hr>120</gpxtpx:hr>
          </gpxtpx:TrackPointExtension>
        </extensions>
      </trkpt>
      <trkpt lat="48.62205" lon="1.998">
        <ele>110.4</ele>
        <time>2025-11-16T12:28:50Z</time>
        <extensions>
          <gpxtpx:TrackPointExtension xmlns:gpxtpx="http://www.garmin.com/xmlschemas/TrackPointExtension/v1">
            <gpxtpx:hr>120</gpxtpx:hr>
          </gpxtpx:TrackPointExtension>
        </extensions>
      </trkpt>
      <trkpt lat="48.62206" lon="1.99804">
        <ele>110.6</ele>
        <time>2025-11-16T12:28:52Z</time>
        <extensions>
          <gpxtpx:TrackPointExtension xmlns:gpxtpx="http://www.garmin.com/xmlschemas/TrackPointExtension/v1">
            <gpxtpx:hr>120</gpxtpx:hr>
          </gpxtpx:TrackPointExtension>
        </extensions>
      </trkpt>
      <trkpt lat="48.62207" lon="1.99808">
        <ele>110.6</ele>
        <time>2025-11-16T12:28:54Z</time>
        <extensions>
          <gpxtpx:TrackPointExtension xmlns:gpxtpx="http://www.garmin.com/xmlschemas/TrackPointExtension/v1">
            <gpxtpx:hr>120</gpxtpx:hr>
          </gpxtpx:TrackPointExtension>
        </extensions>
      </trkpt>
      <trkpt lat="48.62209" lon="1.99813">
        <ele>110.8</ele>
        <time>2025-11-16T12:28:56Z</time>
        <extensions>
          <gpxtpx:TrackPointExtension xmlns:gpxtpx="http://www.garmin.com/xmlschemas/TrackPointExtension/v1">
            <gpxtpx:hr>120</gpxtpx:hr>
          </gpxtpx:TrackPointExtension>
        </extensions>
      </trkpt>
      <trkpt lat="48.6221" lon="1.99817">
        <ele>110.8</ele>
        <time>2025-11-16T12:28:58Z</time>
        <extensions>
          <gpxtpx:TrackPointExtension xmlns:gpxtpx="http://www.garmin.com/xmlschemas/TrackPointExtension/v1">
            <gpxtpx:hr>120</gpxtpx:hr>
          </gpxtpx:TrackPointExtension>
        </extensions>
      </trkpt>
      <trkpt lat="48.62211" lon="1.99821">
        <ele>110.8</ele>
        <time>2025-11-16T12:29:00Z</time>
        <extensions>
          <gpxtpx:TrackPointExtension xmlns:gpxtpx="http://www.garmin.com/xmlschemas/TrackPointExtension/v1">
            <gpxtpx:hr>120</gpxtpx:hr>
          </gpxtpx:TrackPointExtension>
        </extensions>
      </trkpt>
      <trkpt lat="48.62213" lon="1.99825">
        <ele>111</ele>
        <time>2025-11-16T12:29:02Z</time>
        <extensions>
          <gpxtpx:TrackPointExtension xmlns:gpxtpx="http://www.garmin.com/xmlschemas/TrackPointExtension/v1">
            <gpxtpx:hr>120</gpxtpx:hr>
          </gpxtpx:TrackPointExtension>
        </extensions>
      </trkpt>
      <trkpt lat="48.62214" lon="1.99829">
        <ele>111.2</ele>
        <time>2025-11-16T12:29:04Z</time>
        <extensions>
          <gpxtpx:TrackPointExtension xmlns:gpxtpx="http://www.garmin.com/xmlschemas/TrackPointExtension/v1">
            <gpxtpx:hr>120</gpxtpx:hr>
          </gpxtpx:TrackPointExtension>
        </extensions>
      </trkpt>
      <trkpt lat="48.62216" lon="1.99833">
        <ele>111.2</ele>
        <time>2025-11-16T12:29:06Z</time>
        <extensions>
          <gpxtpx:TrackPointExtension xmlns:gpxtpx="http://www.garmin.com/xmlschemas/TrackPointExtension/v1">
            <gpxtpx:hr>120</gpxtpx:hr>
          </gpxtpx:TrackPointExtension>
        </extensions>
      </trkpt>
      <trkpt lat="48.62217" lon="1.99837">
        <ele>111.4</ele>
        <time>2025-11-16T12:29:08Z</time>
        <extensions>
          <gpxtpx:TrackPointExtension xmlns:gpxtpx="http://www.garmin.com/xmlschemas/TrackPointExtension/v1">
            <gpxtpx:hr>120</gpxtpx:hr>
          </gpxtpx:TrackPointExtension>
        </extensions>
      </trkpt>
      <trkpt lat="48.62219" lon="1.99841">
        <ele>111.6</ele>
        <time>2025-11-16T12:29:10Z</time>
        <extensions>
          <gpxtpx:TrackPointExtension xmlns:gpxtpx="http://www.garmin.com/xmlschemas/TrackPointExtension/v1">
            <gpxtpx:hr>121</gpxtpx:hr>
          </gpxtpx:TrackPointExtension>
        </extensions>
      </trkpt>
      <trkpt lat="48.6222" lon="1.99845">
        <ele>111.8</ele>
        <time>2025-11-16T12:29:12Z</time>
        <extensions>
          <gpxtpx:TrackPointExtension xmlns:gpxtpx="http://www.garmin.com/xmlschemas/TrackPointExtension/v1">
            <gpxtpx:hr>121</gpxtpx:hr>
          </gpxtpx:TrackPointExtension>
        </extensions>
      </trkpt>
      <trkpt lat="48.62221" lon="1.9985">
        <ele>112</ele>
        <time>2025-11-16T12:29:14Z</time>
        <extensions>
          <gpxtpx:TrackPointExtension xmlns:gpxtpx="http://www.garmin.com/xmlschemas/TrackPointExtension/v1">
            <gpxtpx:hr>121</gpxtpx:hr>
          </gpxtpx:TrackPointExtension>
        </extensions>
      </trkpt>
      <trkpt lat="48.62223" lon="1.99854">
        <ele>112.2</ele>
        <time>2025-11-16T12:29:16Z</time>
        <extensions>
          <gpxtpx:TrackPointExtension xmlns:gpxtpx="http://www.garmin.com/xmlschemas/TrackPointExtension/v1">
            <gpxtpx:hr>121</gpxtpx:hr>
          </gpxtpx:TrackPointExtension>
        </extensions>
      </trkpt>
      <trkpt lat="48.62224" lon="1.99859">
        <ele>112.4</ele>
        <time>2025-11-16T12:29:18Z</time>
        <extensions>
          <gpxtpx:TrackPointExtension xmlns:gpxtpx="http://www.garmin.com/xmlschemas/TrackPointExtension/v1">
            <gpxtpx:hr>121</gpxtpx:hr>
          </gpxtpx:TrackPointExtension>
        </extensions>
      </trkpt>
      <trkpt lat="48.62226" lon="1.99864">
        <ele>112.4</ele>
        <time>2025-11-16T12:29:20Z</time>
        <extensions>
          <gpxtpx:TrackPointExtension xmlns:gpxtpx="http://www.garmin.com/xmlschemas/TrackPointExtension/v1">
            <gpxtpx:hr>121</gpxtpx:hr>
          </gpxtpx:TrackPointExtension>
        </extensions>
      </trkpt>
      <trkpt lat="48.62227" lon="1.99866">
        <ele>112.4</ele>
        <time>2025-11-16T12:29:21Z</time>
        <extensions>
          <gpxtpx:TrackPointExtension xmlns:gpxtpx="http://www.garmin.com/xmlschemas/TrackPointExtension/v1">
            <gpxtpx:hr>121</gpxtpx:hr>
          </gpxtpx:TrackPointExtension>
        </extensions>
      </trkpt>
      <trkpt lat="48.62228" lon="1.99871">
        <ele>112.6</ele>
        <time>2025-11-16T12:29:23Z</time>
        <extensions>
          <gpxtpx:TrackPointExtension xmlns:gpxtpx="http://www.garmin.com/xmlschemas/TrackPointExtension/v1">
            <gpxtpx:hr>121</gpxtpx:hr>
          </gpxtpx:TrackPointExtension>
        </extensions>
      </trkpt>
      <trkpt lat="48.62229" lon="1.99875">
        <ele>112.8</ele>
        <time>2025-11-16T12:29:25Z</time>
        <extensions>
          <gpxtpx:TrackPointExtension xmlns:gpxtpx="http://www.garmin.com/xmlschemas/TrackPointExtension/v1">
            <gpxtpx:hr>121</gpxtpx:hr>
          </gpxtpx:TrackPointExtension>
        </extensions>
      </trkpt>
      <trkpt lat="48.62229" lon="1.99879">
        <ele>113</ele>
        <time>2025-11-16T12:29:27Z</time>
        <extensions>
          <gpxtpx:TrackPointExtension xmlns:gpxtpx="http://www.garmin.com/xmlschemas/TrackPointExtension/v1">
            <gpxtpx:hr>121</gpxtpx:hr>
          </gpxtpx:TrackPointExtension>
        </extensions>
      </trkpt>
      <trkpt lat="48.62231" lon="1.99883">
        <ele>113.2</ele>
        <time>2025-11-16T12:29:29Z</time>
        <extensions>
          <gpxtpx:TrackPointExtension xmlns:gpxtpx="http://www.garmin.com/xmlschemas/TrackPointExtension/v1">
            <gpxtpx:hr>121</gpxtpx:hr>
          </gpxtpx:TrackPointExtension>
        </extensions>
      </trkpt>
      <trkpt lat="48.62232" lon="1.99887">
        <ele>113.2</ele>
        <time>2025-11-16T12:29:31Z</time>
        <extensions>
          <gpxtpx:TrackPointExtension xmlns:gpxtpx="http://www.garmin.com/xmlschemas/TrackPointExtension/v1">
            <gpxtpx:hr>121</gpxtpx:hr>
          </gpxtpx:TrackPointExtension>
        </extensions>
      </trkpt>
      <trkpt lat="48.62233" lon="1.99891">
        <ele>113.4</ele>
        <time>2025-11-16T12:29:33Z</time>
        <extensions>
          <gpxtpx:TrackPointExtension xmlns:gpxtpx="http://www.garmin.com/xmlschemas/TrackPointExtension/v1">
            <gpxtpx:hr>121</gpxtpx:hr>
          </gpxtpx:TrackPointExtension>
        </extensions>
      </trkpt>
      <trkpt lat="48.62235" lon="1.99895">
        <ele>113.4</ele>
        <time>2025-11-16T12:29:35Z</time>
        <extensions>
          <gpxtpx:TrackPointExtension xmlns:gpxtpx="http://www.garmin.com/xmlschemas/TrackPointExtension/v1">
            <gpxtpx:hr>121</gpxtpx:hr>
          </gpxtpx:TrackPointExtension>
        </extensions>
      </trkpt>
      <trkpt lat="48.62236" lon="1.99899">
        <ele>113.6</ele>
        <time>2025-11-16T12:29:37Z</time>
        <extensions>
          <gpxtpx:TrackPointExtension xmlns:gpxtpx="http://www.garmin.com/xmlschemas/TrackPointExtension/v1">
            <gpxtpx:hr>121</gpxtpx:hr>
          </gpxtpx:TrackPointExtension>
        </extensions>
      </trkpt>
      <trkpt lat="48.62237" lon="1.99904">
        <ele>113.8</ele>
        <time>2025-11-16T12:29:39Z</time>
        <extensions>
          <gpxtpx:TrackPointExtension xmlns:gpxtpx="http://www.garmin.com/xmlschemas/TrackPointExtension/v1">
            <gpxtpx:hr>121</gpxtpx:hr>
          </gpxtpx:TrackPointExtension>
        </extensions>
      </trkpt>
      <trkpt lat="48.62239" lon="1.99908">
        <ele>113.8</ele>
        <time>2025-11-16T12:29:41Z</time>
        <extensions>
          <gpxtpx:TrackPointExtension xmlns:gpxtpx="http://www.garmin.com/xmlschemas/TrackPointExtension/v1">
            <gpxtpx:hr>121</gpxtpx:hr>
          </gpxtpx:TrackPointExtension>
        </extensions>
      </trkpt>
      <trkpt lat="48.6224" lon="1.99913">
        <ele>113.8</ele>
        <time>2025-11-16T12:29:43Z</time>
        <extensions>
          <gpxtpx:TrackPointExtension xmlns:gpxtpx="http://www.garmin.com/xmlschemas/TrackPointExtension/v1">
            <gpxtpx:hr>121</gpxtpx:hr>
          </gpxtpx:TrackPointExtension>
        </extensions>
      </trkpt>
      <trkpt lat="48.62241" lon="1.99915">
        <ele>114</ele>
        <time>2025-11-16T12:29:44Z</time>
        <extensions>
          <gpxtpx:TrackPointExtension xmlns:gpxtpx="http://www.garmin.com/xmlschemas/TrackPointExtension/v1">
            <gpxtpx:hr>121</gpxtpx:hr>
          </gpxtpx:TrackPointExtension>
        </extensions>
      </trkpt>
      <trkpt lat="48.62242" lon="1.9992">
        <ele>114</ele>
        <time>2025-11-16T12:29:46Z</time>
        <extensions>
          <gpxtpx:TrackPointExtension xmlns:gpxtpx="http://www.garmin.com/xmlschemas/TrackPointExtension/v1">
            <gpxtpx:hr>121</gpxtpx:hr>
          </gpxtpx:TrackPointExtension>
        </extensions>
      </trkpt>
      <trkpt lat="48.62243" lon="1.99922">
        <ele>114.2</ele>
        <time>2025-11-16T12:29:47Z</time>
        <extensions>
          <gpxtpx:TrackPointExtension xmlns:gpxtpx="http://www.garmin.com/xmlschemas/TrackPointExtension/v1">
            <gpxtpx:hr>121</gpxtpx:hr>
          </gpxtpx:TrackPointExtension>
        </extensions>
      </trkpt>
      <trkpt lat="48.62244" lon="1.99927">
        <ele>114.4</ele>
        <time>2025-11-16T12:29:49Z</time>
        <extensions>
          <gpxtpx:TrackPointExtension xmlns:gpxtpx="http://www.garmin.com/xmlschemas/TrackPointExtension/v1">
            <gpxtpx:hr>121</gpxtpx:hr>
          </gpxtpx:TrackPointExtension>
        </extensions>
      </trkpt>
      <trkpt lat="48.62244" lon="1.99931">
        <ele>114.4</ele>
        <time>2025-11-16T12:29:51Z</time>
        <extensions>
          <gpxtpx:TrackPointExtension xmlns:gpxtpx="http://www.garmin.com/xmlschemas/TrackPointExtension/v1">
            <gpxtpx:hr>121</gpxtpx:hr>
          </gpxtpx:TrackPointExtension>
        </extensions>
      </trkpt>
      <trkpt lat="48.62245" lon="1.99935">
        <ele>114.4</ele>
        <time>2025-11-16T12:29:53Z</time>
        <extensions>
          <gpxtpx:TrackPointExtension xmlns:gpxtpx="http://www.garmin.com/xmlschemas/TrackPointExtension/v1">
            <gpxtpx:hr>121</gpxtpx:hr>
          </gpxtpx:TrackPointExtension>
        </extensions>
      </trkpt>
      <trkpt lat="48.62247" lon="1.9994">
        <ele>114.6</ele>
        <time>2025-11-16T12:29:55Z</time>
        <extensions>
          <gpxtpx:TrackPointExtension xmlns:gpxtpx="http://www.garmin.com/xmlschemas/TrackPointExtension/v1">
            <gpxtpx:hr>122</gpxtpx:hr>
          </gpxtpx:TrackPointExtension>
        </extensions>
      </trkpt>
      <trkpt lat="48.62248" lon="1.99944">
        <ele>114.6</ele>
        <time>2025-11-16T12:29:57Z</time>
        <extensions>
          <gpxtpx:TrackPointExtension xmlns:gpxtpx="http://www.garmin.com/xmlschemas/TrackPointExtension/v1">
            <gpxtpx:hr>121</gpxtpx:hr>
          </gpxtpx:TrackPointExtension>
        </extensions>
      </trkpt>
      <trkpt lat="48.62249" lon="1.99949">
        <ele>114.4</ele>
        <time>2025-11-16T12:29:59Z</time>
        <extensions>
          <gpxtpx:TrackPointExtension xmlns:gpxtpx="http://www.garmin.com/xmlschemas/TrackPointExtension/v1">
            <gpxtpx:hr>121</gpxtpx:hr>
          </gpxtpx:TrackPointExtension>
        </extensions>
      </trkpt>
      <trkpt lat="48.6225" lon="1.99953">
        <ele>114.6</ele>
        <time>2025-11-16T12:30:01Z</time>
        <extensions>
          <gpxtpx:TrackPointExtension xmlns:gpxtpx="http://www.garmin.com/xmlschemas/TrackPointExtension/v1">
            <gpxtpx:hr>121</gpxtpx:hr>
          </gpxtpx:TrackPointExtension>
        </extensions>
      </trkpt>
      <trkpt lat="48.62252" lon="1.99958">
        <ele>114.6</ele>
        <time>2025-11-16T12:30:03Z</time>
        <extensions>
          <gpxtpx:TrackPointExtension xmlns:gpxtpx="http://www.garmin.com/xmlschemas/TrackPointExtension/v1">
            <gpxtpx:hr>121</gpxtpx:hr>
          </gpxtpx:TrackPointExtension>
        </extensions>
      </trkpt>
      <trkpt lat="48.62253" lon="1.99962">
        <ele>114.6</ele>
        <time>2025-11-16T12:30:05Z</time>
        <extensions>
          <gpxtpx:TrackPointExtension xmlns:gpxtpx="http://www.garmin.com/xmlschemas/TrackPointExtension/v1">
            <gpxtpx:hr>121</gpxtpx:hr>
          </gpxtpx:TrackPointExtension>
        </extensions>
      </trkpt>
      <trkpt lat="48.62255" lon="1.99967">
        <ele>114.6</ele>
        <time>2025-11-16T12:30:07Z</time>
        <extensions>
          <gpxtpx:TrackPointExtension xmlns:gpxtpx="http://www.garmin.com/xmlschemas/TrackPointExtension/v1">
            <gpxtpx:hr>121</gpxtpx:hr>
          </gpxtpx:TrackPointExtension>
        </extensions>
      </trkpt>
      <trkpt lat="48.62256" lon="1.99971">
        <ele>114.4</ele>
        <time>2025-11-16T12:30:09Z</time>
        <extensions>
          <gpxtpx:TrackPointExtension xmlns:gpxtpx="http://www.garmin.com/xmlschemas/TrackPointExtension/v1">
            <gpxtpx:hr>121</gpxtpx:hr>
          </gpxtpx:TrackPointExtension>
        </extensions>
      </trkpt>
      <trkpt lat="48.62258" lon="1.99975">
        <ele>114.6</ele>
        <time>2025-11-16T12:30:11Z</time>
        <extensions>
          <gpxtpx:TrackPointExtension xmlns:gpxtpx="http://www.garmin.com/xmlschemas/TrackPointExtension/v1">
            <gpxtpx:hr>121</gpxtpx:hr>
          </gpxtpx:TrackPointExtension>
        </extensions>
      </trkpt>
      <trkpt lat="48.62259" lon="1.99979">
        <ele>114.6</ele>
        <time>2025-11-16T12:30:13Z</time>
        <extensions>
          <gpxtpx:TrackPointExtension xmlns:gpxtpx="http://www.garmin.com/xmlschemas/TrackPointExtension/v1">
            <gpxtpx:hr>121</gpxtpx:hr>
          </gpxtpx:TrackPointExtension>
        </extensions>
      </trkpt>
      <trkpt lat="48.6226" lon="1.99984">
        <ele>114.6</ele>
        <time>2025-11-16T12:30:15Z</time>
      </trkpt>
      <trkpt lat="48.62262" lon="1.99988">
        <ele>114.6</ele>
        <time>2025-11-16T12:30:17Z</time>
        <extensions>
          <gpxtpx:TrackPointExtension xmlns:gpxtpx="http://www.garmin.com/xmlschemas/TrackPointExtension/v1">
            <gpxtpx:hr>121</gpxtpx:hr>
          </gpxtpx:TrackPointExtension>
        </extensions>
      </trkpt>
      <trkpt lat="48.62263" lon="1.99992">
        <ele>114.6</ele>
        <time>2025-11-16T12:30:19Z</time>
        <extensions>
          <gpxtpx:TrackPointExtension xmlns:gpxtpx="http://www.garmin.com/xmlschemas/TrackPointExtension/v1">
            <gpxtpx:hr>121</gpxtpx:hr>
          </gpxtpx:TrackPointExtension>
        </extensions>
      </trkpt>
      <trkpt lat="48.62264" lon="1.99997">
        <ele>114.8</ele>
        <time>2025-11-16T12:30:21Z</time>
        <extensions>
          <gpxtpx:TrackPointExtension xmlns:gpxtpx="http://www.garmin.com/xmlschemas/TrackPointExtension/v1">
            <gpxtpx:hr>121</gpxtpx:hr>
          </gpxtpx:TrackPointExtension>
        </extensions>
      </trkpt>
      <trkpt lat="48.62265" lon="2.00001">
        <ele>115</ele>
        <time>2025-11-16T12:30:23Z</time>
        <extensions>
          <gpxtpx:TrackPointExtension xmlns:gpxtpx="http://www.garmin.com/xmlschemas/TrackPointExtension/v1">
            <gpxtpx:hr>121</gpxtpx:hr>
          </gpxtpx:TrackPointExtension>
        </extensions>
      </trkpt>
      <trkpt lat="48.62267" lon="2.00005">
        <ele>115.2</ele>
        <time>2025-11-16T12:30:25Z</time>
        <extensions>
          <gpxtpx:TrackPointExtension xmlns:gpxtpx="http://www.garmin.com/xmlschemas/TrackPointExtension/v1">
            <gpxtpx:hr>121</gpxtpx:hr>
          </gpxtpx:TrackPointExtension>
        </extensions>
      </trkpt>
      <trkpt lat="48.62268" lon="2.0001">
        <ele>115.4</ele>
        <time>2025-11-16T12:30:27Z</time>
        <extensions>
          <gpxtpx:TrackPointExtension xmlns:gpxtpx="http://www.garmin.com/xmlschemas/TrackPointExtension/v1">
            <gpxtpx:hr>121</gpxtpx:hr>
          </gpxtpx:TrackPointExtension>
        </extensions>
      </trkpt>
      <trkpt lat="48.62269" lon="2.00014">
        <ele>115.6</ele>
        <time>2025-11-16T12:30:29Z</time>
        <extensions>
          <gpxtpx:TrackPointExtension xmlns:gpxtpx="http://www.garmin.com/xmlschemas/TrackPointExtension/v1">
            <gpxtpx:hr>121</gpxtpx:hr>
          </gpxtpx:TrackPointExtension>
        </extensions>
      </trkpt>
      <trkpt lat="48.62271" lon="2.00018">
        <ele>116</ele>
        <time>2025-11-16T12:30:31Z</time>
        <extensions>
          <gpxtpx:TrackPointExtension xmlns:gpxtpx="http://www.garmin.com/xmlschemas/TrackPointExtension/v1">
            <gpxtpx:hr>121</gpxtpx:hr>
          </gpxtpx:TrackPointExtension>
        </extensions>
      </trkpt>
      <trkpt lat="48.62272" lon="2.00023">
        <ele>116.4</ele>
        <time>2025-11-16T12:30:34Z</time>
        <extensions>
          <gpxtpx:TrackPointExtension xmlns:gpxtpx="http://www.garmin.com/xmlschemas/TrackPointExtension/v1">
            <gpxtpx:hr>120</gpxtpx:hr>
          </gpxtpx:TrackPointExtension>
        </extensions>
      </trkpt>
      <trkpt lat="48.62273" lon="2.00026">
        <ele>116.6</ele>
        <time>2025-11-16T12:30:37Z</time>
        <extensions>
          <gpxtpx:TrackPointExtension xmlns:gpxtpx="http://www.garmin.com/xmlschemas/TrackPointExtension/v1">
            <gpxtpx:hr>120</gpxtpx:hr>
          </gpxtpx:TrackPointExtension>
        </extensions>
      </trkpt>
      <trkpt lat="48.62274" lon="2.00028">
        <ele>116.6</ele>
        <time>2025-11-16T12:30:41Z</time>
        <extensions>
          <gpxtpx:TrackPointExtension xmlns:gpxtpx="http://www.garmin.com/xmlschemas/TrackPointExtension/v1">
            <gpxtpx:hr>119</gpxtpx:hr>
          </gpxtpx:TrackPointExtension>
        </extensions>
      </trkpt>
      <trkpt lat="48.62275" lon="2.00031">
        <ele>116.6</ele>
        <time>2025-11-16T12:30:43Z</time>
        <extensions>
          <gpxtpx:TrackPointExtension xmlns:gpxtpx="http://www.garmin.com/xmlschemas/TrackPointExtension/v1">
            <gpxtpx:hr>119</gpxtpx:hr>
          </gpxtpx:TrackPointExtension>
        </extensions>
      </trkpt>
      <trkpt lat="48.62276" lon="2.00034">
        <ele>116.8</ele>
        <time>2025-11-16T12:30:45Z</time>
        <extensions>
          <gpxtpx:TrackPointExtension xmlns:gpxtpx="http://www.garmin.com/xmlschemas/TrackPointExtension/v1">
            <gpxtpx:hr>119</gpxtpx:hr>
          </gpxtpx:TrackPointExtension>
        </extensions>
      </trkpt>
      <trkpt lat="48.62278" lon="2.00038">
        <ele>116.8</ele>
        <time>2025-11-16T12:30:47Z</time>
        <extensions>
          <gpxtpx:TrackPointExtension xmlns:gpxtpx="http://www.garmin.com/xmlschemas/TrackPointExtension/v1">
            <gpxtpx:hr>119</gpxtpx:hr>
          </gpxtpx:TrackPointExtension>
        </extensions>
      </trkpt>
      <trkpt lat="48.62279" lon="2.00042">
        <ele>116.6</ele>
        <time>2025-11-16T12:30:49Z</time>
        <extensions>
          <gpxtpx:TrackPointExtension xmlns:gpxtpx="http://www.garmin.com/xmlschemas/TrackPointExtension/v1">
            <gpxtpx:hr>119</gpxtpx:hr>
          </gpxtpx:TrackPointExtension>
        </extensions>
      </trkpt>
      <trkpt lat="48.62281" lon="2.00046">
        <ele>116.6</ele>
        <time>2025-11-16T12:30:51Z</time>
        <extensions>
          <gpxtpx:TrackPointExtension xmlns:gpxtpx="http://www.garmin.com/xmlschemas/TrackPointExtension/v1">
            <gpxtpx:hr>119</gpxtpx:hr>
          </gpxtpx:TrackPointExtension>
        </extensions>
      </trkpt>
      <trkpt lat="48.62282" lon="2.0005">
        <ele>116.6</ele>
        <time>2025-11-16T12:30:53Z</time>
        <extensions>
          <gpxtpx:TrackPointExtension xmlns:gpxtpx="http://www.garmin.com/xmlschemas/TrackPointExtension/v1">
            <gpxtpx:hr>119</gpxtpx:hr>
          </gpxtpx:TrackPointExtension>
        </extensions>
      </trkpt>
      <trkpt lat="48.62284" lon="2.00053">
        <ele>116.8</ele>
        <time>2025-11-16T12:30:55Z</time>
        <extensions>
          <gpxtpx:TrackPointExtension xmlns:gpxtpx="http://www.garmin.com/xmlschemas/TrackPointExtension/v1">
            <gpxtpx:hr>119</gpxtpx:hr>
          </gpxtpx:TrackPointExtension>
        </extensions>
      </trkpt>
      <trkpt lat="48.62285" lon="2.00057">
        <ele>116.8</ele>
        <time>2025-11-16T12:30:57Z</time>
        <extensions>
          <gpxtpx:TrackPointExtension xmlns:gpxtpx="http://www.garmin.com/xmlschemas/TrackPointExtension/v1">
            <gpxtpx:hr>118</gpxtpx:hr>
          </gpxtpx:TrackPointExtension>
        </extensions>
      </trkpt>
      <trkpt lat="48.62286" lon="2.0006">
        <ele>117</ele>
        <time>2025-11-16T12:30:59Z</time>
        <extensions>
          <gpxtpx:TrackPointExtension xmlns:gpxtpx="http://www.garmin.com/xmlschemas/TrackPointExtension/v1">
            <gpxtpx:hr>118</gpxtpx:hr>
          </gpxtpx:TrackPointExtension>
        </extensions>
      </trkpt>
      <trkpt lat="48.62287" lon="2.00064">
        <ele>117.4</ele>
        <time>2025-11-16T12:31:02Z</time>
        <extensions>
          <gpxtpx:TrackPointExtension xmlns:gpxtpx="http://www.garmin.com/xmlschemas/TrackPointExtension/v1">
            <gpxtpx:hr>118</gpxtpx:hr>
          </gpxtpx:TrackPointExtension>
        </extensions>
      </trkpt>
      <trkpt lat="48.62288" lon="2.00067">
        <ele>117.6</ele>
        <time>2025-11-16T12:31:04Z</time>
        <extensions>
          <gpxtpx:TrackPointExtension xmlns:gpxtpx="http://www.garmin.com/xmlschemas/TrackPointExtension/v1">
            <gpxtpx:hr>118</gpxtpx:hr>
          </gpxtpx:TrackPointExtension>
        </extensions>
      </trkpt>
      <trkpt lat="48.62289" lon="2.0007">
        <ele>117.8</ele>
        <time>2025-11-16T12:31:06Z</time>
        <extensions>
          <gpxtpx:TrackPointExtension xmlns:gpxtpx="http://www.garmin.com/xmlschemas/TrackPointExtension/v1">
            <gpxtpx:hr>118</gpxtpx:hr>
          </gpxtpx:TrackPointExtension>
        </extensions>
      </trkpt>
      <trkpt lat="48.62291" lon="2.00075">
        <ele>117.8</ele>
        <time>2025-11-16T12:31:08Z</time>
        <extensions>
          <gpxtpx:TrackPointExtension xmlns:gpxtpx="http://www.garmin.com/xmlschemas/TrackPointExtension/v1">
            <gpxtpx:hr>118</gpxtpx:hr>
          </gpxtpx:TrackPointExtension>
        </extensions>
      </trkpt>
      <trkpt lat="48.62291" lon="2.0008">
        <ele>118</ele>
        <time>2025-11-16T12:31:10Z</time>
        <extensions>
          <gpxtpx:TrackPointExtension xmlns:gpxtpx="http://www.garmin.com/xmlschemas/TrackPointExtension/v1">
            <gpxtpx:hr>118</gpxtpx:hr>
          </gpxtpx:TrackPointExtension>
        </extensions>
      </trkpt>
      <trkpt lat="48.62292" lon="2.00082">
        <ele>118</ele>
        <time>2025-11-16T12:31:11Z</time>
        <extensions>
          <gpxtpx:TrackPointExtension xmlns:gpxtpx="http://www.garmin.com/xmlschemas/TrackPointExtension/v1">
            <gpxtpx:hr>118</gpxtpx:hr>
          </gpxtpx:TrackPointExtension>
        </extensions>
      </trkpt>
      <trkpt lat="48.62293" lon="2.00087">
        <ele>118</ele>
        <time>2025-11-16T12:31:13Z</time>
        <extensions>
          <gpxtpx:TrackPointExtension xmlns:gpxtpx="http://www.garmin.com/xmlschemas/TrackPointExtension/v1">
            <gpxtpx:hr>117</gpxtpx:hr>
          </gpxtpx:TrackPointExtension>
        </extensions>
      </trkpt>
      <trkpt lat="48.62294" lon="2.00091">
        <ele>118</ele>
        <time>2025-11-16T12:31:15Z</time>
        <extensions>
          <gpxtpx:TrackPointExtension xmlns:gpxtpx="http://www.garmin.com/xmlschemas/TrackPointExtension/v1">
            <gpxtpx:hr>117</gpxtpx:hr>
          </gpxtpx:TrackPointExtension>
        </extensions>
      </trkpt>
      <trkpt lat="48.62296" lon="2.00095">
        <ele>118</ele>
        <time>2025-11-16T12:31:17Z</time>
        <extensions>
          <gpxtpx:TrackPointExtension xmlns:gpxtpx="http://www.garmin.com/xmlschemas/TrackPointExtension/v1">
            <gpxtpx:hr>115</gpxtpx:hr>
          </gpxtpx:TrackPointExtension>
        </extensions>
      </trkpt>
      <trkpt lat="48.62297" lon="2.00099">
        <ele>118.2</ele>
        <time>2025-11-16T12:31:19Z</time>
        <extensions>
          <gpxtpx:TrackPointExtension xmlns:gpxtpx="http://www.garmin.com/xmlschemas/TrackPointExtension/v1">
            <gpxtpx:hr>115</gpxtpx:hr>
          </gpxtpx:TrackPointExtension>
        </extensions>
      </trkpt>
      <trkpt lat="48.62299" lon="2.00102">
        <ele>118.4</ele>
        <time>2025-11-16T12:31:21Z</time>
        <extensions>
          <gpxtpx:TrackPointExtension xmlns:gpxtpx="http://www.garmin.com/xmlschemas/TrackPointExtension/v1">
            <gpxtpx:hr>115</gpxtpx:hr>
          </gpxtpx:TrackPointExtension>
        </extensions>
      </trkpt>
      <trkpt lat="48.623" lon="2.00106">
        <ele>118.4</ele>
        <time>2025-11-16T12:31:23Z</time>
        <extensions>
          <gpxtpx:TrackPointExtension xmlns:gpxtpx="http://www.garmin.com/xmlschemas/TrackPointExtension/v1">
            <gpxtpx:hr>115</gpxtpx:hr>
          </gpxtpx:TrackPointExtension>
        </extensions>
      </trkpt>
      <trkpt lat="48.62301" lon="2.00109">
        <ele>118.4</ele>
        <time>2025-11-16T12:31:25Z</time>
        <extensions>
          <gpxtpx:TrackPointExtension xmlns:gpxtpx="http://www.garmin.com/xmlschemas/TrackPointExtension/v1">
            <gpxtpx:hr>115</gpxtpx:hr>
          </gpxtpx:TrackPointExtension>
        </extensions>
      </trkpt>
      <trkpt lat="48.62302" lon="2.00113">
        <ele>118.6</ele>
        <time>2025-11-16T12:31:27Z</time>
        <extensions>
          <gpxtpx:TrackPointExtension xmlns:gpxtpx="http://www.garmin.com/xmlschemas/TrackPointExtension/v1">
            <gpxtpx:hr>116</gpxtpx:hr>
          </gpxtpx:TrackPointExtension>
        </extensions>
      </trkpt>
      <trkpt lat="48.62304" lon="2.00117">
        <ele>118.6</ele>
        <time>2025-11-16T12:31:29Z</time>
        <extensions>
          <gpxtpx:TrackPointExtension xmlns:gpxtpx="http://www.garmin.com/xmlschemas/TrackPointExtension/v1">
            <gpxtpx:hr>116</gpxtpx:hr>
          </gpxtpx:TrackPointExtension>
        </extensions>
      </trkpt>
      <trkpt lat="48.62305" lon="2.00121">
        <ele>118.8</ele>
        <time>2025-11-16T12:31:31Z</time>
        <extensions>
          <gpxtpx:TrackPointExtension xmlns:gpxtpx="http://www.garmin.com/xmlschemas/TrackPointExtension/v1">
            <gpxtpx:hr>116</gpxtpx:hr>
          </gpxtpx:TrackPointExtension>
        </extensions>
      </trkpt>
      <trkpt lat="48.62306" lon="2.00125">
        <ele>118.8</ele>
        <time>2025-11-16T12:31:33Z</time>
        <extensions>
          <gpxtpx:TrackPointExtension xmlns:gpxtpx="http://www.garmin.com/xmlschemas/TrackPointExtension/v1">
            <gpxtpx:hr>115</gpxtpx:hr>
          </gpxtpx:TrackPointExtension>
        </extensions>
      </trkpt>
      <trkpt lat="48.62307" lon="2.00129">
        <ele>118.8</ele>
        <time>2025-11-16T12:31:35Z</time>
        <extensions>
          <gpxtpx:TrackPointExtension xmlns:gpxtpx="http://www.garmin.com/xmlschemas/TrackPointExtension/v1">
            <gpxtpx:hr>115</gpxtpx:hr>
          </gpxtpx:TrackPointExtension>
        </extensions>
      </trkpt>
      <trkpt lat="48.62308" lon="2.00133">
        <ele>119</ele>
        <time>2025-11-16T12:31:37Z</time>
        <extensions>
          <gpxtpx:TrackPointExtension xmlns:gpxtpx="http://www.garmin.com/xmlschemas/TrackPointExtension/v1">
            <gpxtpx:hr>115</gpxtpx:hr>
          </gpxtpx:TrackPointExtension>
        </extensions>
      </trkpt>
      <trkpt lat="48.62309" lon="2.00138">
        <ele>119</ele>
        <time>2025-11-16T12:31:39Z</time>
        <extensions>
          <gpxtpx:TrackPointExtension xmlns:gpxtpx="http://www.garmin.com/xmlschemas/TrackPointExtension/v1">
            <gpxtpx:hr>116</gpxtpx:hr>
          </gpxtpx:TrackPointExtension>
        </extensions>
      </trkpt>
      <trkpt lat="48.6231" lon="2.00142">
        <ele>118.8</ele>
        <time>2025-11-16T12:31:41Z</time>
        <extensions>
          <gpxtpx:TrackPointExtension xmlns:gpxtpx="http://www.garmin.com/xmlschemas/TrackPointExtension/v1">
            <gpxtpx:hr>117</gpxtpx:hr>
          </gpxtpx:TrackPointExtension>
        </extensions>
      </trkpt>
      <trkpt lat="48.62311" lon="2.00147">
        <ele>118.8</ele>
        <time>2025-11-16T12:31:43Z</time>
        <extensions>
          <gpxtpx:TrackPointExtension xmlns:gpxtpx="http://www.garmin.com/xmlschemas/TrackPointExtension/v1">
            <gpxtpx:hr>117</gpxtpx:hr>
          </gpxtpx:TrackPointExtension>
        </extensions>
      </trkpt>
      <trkpt lat="48.62313" lon="2.00151">
        <ele>118.6</ele>
        <time>2025-11-16T12:31:45Z</time>
        <extensions>
          <gpxtpx:TrackPointExtension xmlns:gpxtpx="http://www.garmin.com/xmlschemas/TrackPointExtension/v1">
            <gpxtpx:hr>119</gpxtpx:hr>
          </gpxtpx:TrackPointExtension>
        </extensions>
      </trkpt>
      <trkpt lat="48.62315" lon="2.00155">
        <ele>118.6</ele>
        <time>2025-11-16T12:31:47Z</time>
        <extensions>
          <gpxtpx:TrackPointExtension xmlns:gpxtpx="http://www.garmin.com/xmlschemas/TrackPointExtension/v1">
            <gpxtpx:hr>123</gpxtpx:hr>
          </gpxtpx:TrackPointExtension>
        </extensions>
      </trkpt>
      <trkpt lat="48.62316" lon="2.0016">
        <ele>118.8</ele>
        <time>2025-11-16T12:31:49Z</time>
        <extensions>
          <gpxtpx:TrackPointExtension xmlns:gpxtpx="http://www.garmin.com/xmlschemas/TrackPointExtension/v1">
            <gpxtpx:hr>124</gpxtpx:hr>
          </gpxtpx:TrackPointExtension>
        </extensions>
      </trkpt>
      <trkpt lat="48.62317" lon="2.00164">
        <ele>119</ele>
        <time>2025-11-16T12:31:51Z</time>
        <extensions>
          <gpxtpx:TrackPointExtension xmlns:gpxtpx="http://www.garmin.com/xmlschemas/TrackPointExtension/v1">
            <gpxtpx:hr>124</gpxtpx:hr>
          </gpxtpx:TrackPointExtension>
        </extensions>
      </trkpt>
      <trkpt lat="48.62319" lon="2.00169">
        <ele>119</ele>
        <time>2025-11-16T12:31:53Z</time>
        <extensions>
          <gpxtpx:TrackPointExtension xmlns:gpxtpx="http://www.garmin.com/xmlschemas/TrackPointExtension/v1">
            <gpxtpx:hr>124</gpxtpx:hr>
          </gpxtpx:TrackPointExtension>
        </extensions>
      </trkpt>
      <trkpt lat="48.6232" lon="2.00173">
        <ele>119.2</ele>
        <time>2025-11-16T12:31:55Z</time>
        <extensions>
          <gpxtpx:TrackPointExtension xmlns:gpxtpx="http://www.garmin.com/xmlschemas/TrackPointExtension/v1">
            <gpxtpx:hr>124</gpxtpx:hr>
          </gpxtpx:TrackPointExtension>
        </extensions>
      </trkpt>
      <trkpt lat="48.62322" lon="2.00177">
        <ele>119.2</ele>
        <time>2025-11-16T12:31:57Z</time>
        <extensions>
          <gpxtpx:TrackPointExtension xmlns:gpxtpx="http://www.garmin.com/xmlschemas/TrackPointExtension/v1">
            <gpxtpx:hr>124</gpxtpx:hr>
          </gpxtpx:TrackPointExtension>
        </extensions>
      </trkpt>
      <trkpt lat="48.62323" lon="2.00182">
        <ele>119.2</ele>
        <time>2025-11-16T12:31:59Z</time>
        <extensions>
          <gpxtpx:TrackPointExtension xmlns:gpxtpx="http://www.garmin.com/xmlschemas/TrackPointExtension/v1">
            <gpxtpx:hr>124</gpxtpx:hr>
          </gpxtpx:TrackPointExtension>
        </extensions>
      </trkpt>
      <trkpt lat="48.62324" lon="2.00186">
        <ele>119.4</ele>
        <time>2025-11-16T12:32:01Z</time>
        <extensions>
          <gpxtpx:TrackPointExtension xmlns:gpxtpx="http://www.garmin.com/xmlschemas/TrackPointExtension/v1">
            <gpxtpx:hr>124</gpxtpx:hr>
          </gpxtpx:TrackPointExtension>
        </extensions>
      </trkpt>
      <trkpt lat="48.62325" lon="2.00191">
        <ele>119.4</ele>
        <time>2025-11-16T12:32:03Z</time>
        <extensions>
          <gpxtpx:TrackPointExtension xmlns:gpxtpx="http://www.garmin.com/xmlschemas/TrackPointExtension/v1">
            <gpxtpx:hr>124</gpxtpx:hr>
          </gpxtpx:TrackPointExtension>
        </extensions>
      </trkpt>
      <trkpt lat="48.62325" lon="2.00195">
        <ele>119.6</ele>
        <time>2025-11-16T12:32:05Z</time>
        <extensions>
          <gpxtpx:TrackPointExtension xmlns:gpxtpx="http://www.garmin.com/xmlschemas/TrackPointExtension/v1">
            <gpxtpx:hr>124</gpxtpx:hr>
          </gpxtpx:TrackPointExtension>
        </extensions>
      </trkpt>
      <trkpt lat="48.62325" lon="2.00199">
        <ele>119.8</ele>
        <time>2025-11-16T12:32:07Z</time>
        <extensions>
          <gpxtpx:TrackPointExtension xmlns:gpxtpx="http://www.garmin.com/xmlschemas/TrackPointExtension/v1">
            <gpxtpx:hr>124</gpxtpx:hr>
          </gpxtpx:TrackPointExtension>
        </extensions>
      </trkpt>
      <trkpt lat="48.62324" lon="2.00203">
        <ele>120</ele>
        <time>2025-11-16T12:32:09Z</time>
        <extensions>
          <gpxtpx:TrackPointExtension xmlns:gpxtpx="http://www.garmin.com/xmlschemas/TrackPointExtension/v1">
            <gpxtpx:hr>123</gpxtpx:hr>
          </gpxtpx:TrackPointExtension>
        </extensions>
      </trkpt>
      <trkpt lat="48.62322" lon="2.00207">
        <ele>120.2</ele>
        <time>2025-11-16T12:32:11Z</time>
        <extensions>
          <gpxtpx:TrackPointExtension xmlns:gpxtpx="http://www.garmin.com/xmlschemas/TrackPointExtension/v1">
            <gpxtpx:hr>123</gpxtpx:hr>
          </gpxtpx:TrackPointExtension>
        </extensions>
      </trkpt>
      <trkpt lat="48.62321" lon="2.0021">
        <ele>120.6</ele>
        <time>2025-11-16T12:32:13Z</time>
        <extensions>
          <gpxtpx:TrackPointExtension xmlns:gpxtpx="http://www.garmin.com/xmlschemas/TrackPointExtension/v1">
            <gpxtpx:hr>123</gpxtpx:hr>
          </gpxtpx:TrackPointExtension>
        </extensions>
      </trkpt>
      <trkpt lat="48.6232" lon="2.00214">
        <ele>120.8</ele>
        <time>2025-11-16T12:32:15Z</time>
        <extensions>
          <gpxtpx:TrackPointExtension xmlns:gpxtpx="http://www.garmin.com/xmlschemas/TrackPointExtension/v1">
            <gpxtpx:hr>123</gpxtpx:hr>
          </gpxtpx:TrackPointExtension>
        </extensions>
      </trkpt>
      <trkpt lat="48.62318" lon="2.00218">
        <ele>121</ele>
        <time>2025-11-16T12:32:17Z</time>
        <extensions>
          <gpxtpx:TrackPointExtension xmlns:gpxtpx="http://www.garmin.com/xmlschemas/TrackPointExtension/v1">
            <gpxtpx:hr>123</gpxtpx:hr>
          </gpxtpx:TrackPointExtension>
        </extensions>
      </trkpt>
      <trkpt lat="48.62316" lon="2.00222">
        <ele>121.4</ele>
        <time>2025-11-16T12:32:19Z</time>
        <extensions>
          <gpxtpx:TrackPointExtension xmlns:gpxtpx="http://www.garmin.com/xmlschemas/TrackPointExtension/v1">
            <gpxtpx:hr>122</gpxtpx:hr>
          </gpxtpx:TrackPointExtension>
        </extensions>
      </trkpt>
      <trkpt lat="48.62314" lon="2.00225">
        <ele>121.4</ele>
        <time>2025-11-16T12:32:21Z</time>
        <extensions>
          <gpxtpx:TrackPointExtension xmlns:gpxtpx="http://www.garmin.com/xmlschemas/TrackPointExtension/v1">
            <gpxtpx:hr>122</gpxtpx:hr>
          </gpxtpx:TrackPointExtension>
        </extensions>
      </trkpt>
      <trkpt lat="48.6231" lon="2.00226">
        <ele>121.6</ele>
        <time>2025-11-16T12:32:23Z</time>
        <extensions>
          <gpxtpx:TrackPointExtension xmlns:gpxtpx="http://www.garmin.com/xmlschemas/TrackPointExtension/v1">
            <gpxtpx:hr>121</gpxtpx:hr>
          </gpxtpx:TrackPointExtension>
        </extensions>
      </trkpt>
      <trkpt lat="48.62307" lon="2.00227">
        <ele>122</ele>
        <time>2025-11-16T12:32:25Z</time>
        <extensions>
          <gpxtpx:TrackPointExtension xmlns:gpxtpx="http://www.garmin.com/xmlschemas/TrackPointExtension/v1">
            <gpxtpx:hr>121</gpxtpx:hr>
          </gpxtpx:TrackPointExtension>
        </extensions>
      </trkpt>
      <trkpt lat="48.62304" lon="2.00227">
        <ele>122.2</ele>
        <time>2025-11-16T12:32:27Z</time>
        <extensions>
          <gpxtpx:TrackPointExtension xmlns:gpxtpx="http://www.garmin.com/xmlschemas/TrackPointExtension/v1">
            <gpxtpx:hr>121</gpxtpx:hr>
          </gpxtpx:TrackPointExtension>
        </extensions>
      </trkpt>
      <trkpt lat="48.62301" lon="2.00227">
        <ele>122.4</ele>
        <time>2025-11-16T12:32:29Z</time>
        <extensions>
          <gpxtpx:TrackPointExtension xmlns:gpxtpx="http://www.garmin.com/xmlschemas/TrackPointExtension/v1">
            <gpxtpx:hr>122</gpxtpx:hr>
          </gpxtpx:TrackPointExtension>
        </extensions>
      </trkpt>
      <trkpt lat="48.62299" lon="2.00228">
        <ele>122.6</ele>
        <time>2025-11-16T12:32:30Z</time>
        <extensions>
          <gpxtpx:TrackPointExtension xmlns:gpxtpx="http://www.garmin.com/xmlschemas/TrackPointExtension/v1">
            <gpxtpx:hr>122</gpxtpx:hr>
          </gpxtpx:TrackPointExtension>
        </extensions>
      </trkpt>
      <trkpt lat="48.62296" lon="2.00228">
        <ele>122.8</ele>
        <time>2025-11-16T12:32:32Z</time>
        <extensions>
          <gpxtpx:TrackPointExtension xmlns:gpxtpx="http://www.garmin.com/xmlschemas/TrackPointExtension/v1">
            <gpxtpx:hr>122</gpxtpx:hr>
          </gpxtpx:TrackPointExtension>
        </extensions>
      </trkpt>
      <trkpt lat="48.62294" lon="2.00228">
        <ele>122.8</ele>
        <time>2025-11-16T12:32:33Z</time>
        <extensions>
          <gpxtpx:TrackPointExtension xmlns:gpxtpx="http://www.garmin.com/xmlschemas/TrackPointExtension/v1">
            <gpxtpx:hr>122</gpxtpx:hr>
          </gpxtpx:TrackPointExtension>
        </extensions>
      </trkpt>
      <trkpt lat="48.62291" lon="2.00228">
        <ele>123</ele>
        <time>2025-11-16T12:32:35Z</time>
        <extensions>
          <gpxtpx:TrackPointExtension xmlns:gpxtpx="http://www.garmin.com/xmlschemas/TrackPointExtension/v1">
            <gpxtpx:hr>122</gpxtpx:hr>
          </gpxtpx:TrackPointExtension>
        </extensions>
      </trkpt>
      <trkpt lat="48.62287" lon="2.00229">
        <ele>123.4</ele>
        <time>2025-11-16T12:32:37Z</time>
        <extensions>
          <gpxtpx:TrackPointExtension xmlns:gpxtpx="http://www.garmin.com/xmlschemas/TrackPointExtension/v1">
            <gpxtpx:hr>122</gpxtpx:hr>
          </gpxtpx:TrackPointExtension>
        </extensions>
      </trkpt>
      <trkpt lat="48.62285" lon="2.0023">
        <ele>123.6</ele>
        <time>2025-11-16T12:32:38Z</time>
        <extensions>
          <gpxtpx:TrackPointExtension xmlns:gpxtpx="http://www.garmin.com/xmlschemas/TrackPointExtension/v1">
            <gpxtpx:hr>122</gpxtpx:hr>
          </gpxtpx:TrackPointExtension>
        </extensions>
      </trkpt>
      <trkpt lat="48.62282" lon="2.00229">
        <ele>123.6</ele>
        <time>2025-11-16T12:32:40Z</time>
        <extensions>
          <gpxtpx:TrackPointExtension xmlns:gpxtpx="http://www.garmin.com/xmlschemas/TrackPointExtension/v1">
            <gpxtpx:hr>122</gpxtpx:hr>
          </gpxtpx:TrackPointExtension>
        </extensions>
      </trkpt>
      <trkpt lat="48.62279" lon="2.00228">
        <ele>123.8</ele>
        <time>2025-11-16T12:32:42Z</time>
        <extensions>
          <gpxtpx:TrackPointExtension xmlns:gpxtpx="http://www.garmin.com/xmlschemas/TrackPointExtension/v1">
            <gpxtpx:hr>122</gpxtpx:hr>
          </gpxtpx:TrackPointExtension>
        </extensions>
      </trkpt>
      <trkpt lat="48.62276" lon="2.00227">
        <ele>123.8</ele>
        <time>2025-11-16T12:32:44Z</time>
        <extensions>
          <gpxtpx:TrackPointExtension xmlns:gpxtpx="http://www.garmin.com/xmlschemas/TrackPointExtension/v1">
            <gpxtpx:hr>122</gpxtpx:hr>
          </gpxtpx:TrackPointExtension>
        </extensions>
      </trkpt>
      <trkpt lat="48.62273" lon="2.00226">
        <ele>123.8</ele>
        <time>2025-11-16T12:32:46Z</time>
        <extensions>
          <gpxtpx:TrackPointExtension xmlns:gpxtpx="http://www.garmin.com/xmlschemas/TrackPointExtension/v1">
            <gpxtpx:hr>122</gpxtpx:hr>
          </gpxtpx:TrackPointExtension>
        </extensions>
      </trkpt>
      <trkpt lat="48.6227" lon="2.00226">
        <ele>123.8</ele>
        <time>2025-11-16T12:32:48Z</time>
        <extensions>
          <gpxtpx:TrackPointExtension xmlns:gpxtpx="http://www.garmin.com/xmlschemas/TrackPointExtension/v1">
            <gpxtpx:hr>122</gpxtpx:hr>
          </gpxtpx:TrackPointExtension>
        </extensions>
      </trkpt>
      <trkpt lat="48.62267" lon="2.00227">
        <ele>123.8</ele>
        <time>2025-11-16T12:32:50Z</time>
        <extensions>
          <gpxtpx:TrackPointExtension xmlns:gpxtpx="http://www.garmin.com/xmlschemas/TrackPointExtension/v1">
            <gpxtpx:hr>122</gpxtpx:hr>
          </gpxtpx:TrackPointExtension>
        </extensions>
      </trkpt>
      <trkpt lat="48.62265" lon="2.00228">
        <ele>124</ele>
        <time>2025-11-16T12:32:51Z</time>
        <extensions>
          <gpxtpx:TrackPointExtension xmlns:gpxtpx="http://www.garmin.com/xmlschemas/TrackPointExtension/v1">
            <gpxtpx:hr>122</gpxtpx:hr>
          </gpxtpx:TrackPointExtension>
        </extensions>
      </trkpt>
      <trkpt lat="48.62261" lon="2.00229">
        <ele>124.2</ele>
        <time>2025-11-16T12:32:53Z</time>
        <extensions>
          <gpxtpx:TrackPointExtension xmlns:gpxtpx="http://www.garmin.com/xmlschemas/TrackPointExtension/v1">
            <gpxtpx:hr>122</gpxtpx:hr>
          </gpxtpx:TrackPointExtension>
        </extensions>
      </trkpt>
      <trkpt lat="48.62258" lon="2.0023">
        <ele>124.2</ele>
        <time>2025-11-16T12:32:55Z</time>
        <extensions>
          <gpxtpx:TrackPointExtension xmlns:gpxtpx="http://www.garmin.com/xmlschemas/TrackPointExtension/v1">
            <gpxtpx:hr>122</gpxtpx:hr>
          </gpxtpx:TrackPointExtension>
        </extensions>
      </trkpt>
      <trkpt lat="48.62255" lon="2.00231">
        <ele>124</ele>
        <time>2025-11-16T12:32:57Z</time>
        <extensions>
          <gpxtpx:TrackPointExtension xmlns:gpxtpx="http://www.garmin.com/xmlschemas/TrackPointExtension/v1">
            <gpxtpx:hr>122</gpxtpx:hr>
          </gpxtpx:TrackPointExtension>
        </extensions>
      </trkpt>
      <trkpt lat="48.62252" lon="2.00232">
        <ele>124.2</ele>
        <time>2025-11-16T12:32:59Z</time>
        <extensions>
          <gpxtpx:TrackPointExtension xmlns:gpxtpx="http://www.garmin.com/xmlschemas/TrackPointExtension/v1">
            <gpxtpx:hr>122</gpxtpx:hr>
          </gpxtpx:TrackPointExtension>
        </extensions>
      </trkpt>
      <trkpt lat="48.62249" lon="2.00233">
        <ele>124.4</ele>
        <time>2025-11-16T12:33:01Z</time>
        <extensions>
          <gpxtpx:TrackPointExtension xmlns:gpxtpx="http://www.garmin.com/xmlschemas/TrackPointExtension/v1">
            <gpxtpx:hr>122</gpxtpx:hr>
          </gpxtpx:TrackPointExtension>
        </extensions>
      </trkpt>
      <trkpt lat="48.62246" lon="2.00234">
        <ele>124.6</ele>
        <time>2025-11-16T12:33:03Z</time>
        <extensions>
          <gpxtpx:TrackPointExtension xmlns:gpxtpx="http://www.garmin.com/xmlschemas/TrackPointExtension/v1">
            <gpxtpx:hr>122</gpxtpx:hr>
          </gpxtpx:TrackPointExtension>
        </extensions>
      </trkpt>
      <trkpt lat="48.62244" lon="2.00235">
        <ele>124.4</ele>
        <time>2025-11-16T12:33:05Z</time>
        <extensions>
          <gpxtpx:TrackPointExtension xmlns:gpxtpx="http://www.garmin.com/xmlschemas/TrackPointExtension/v1">
            <gpxtpx:hr>122</gpxtpx:hr>
          </gpxtpx:TrackPointExtension>
        </extensions>
      </trkpt>
      <trkpt lat="48.62241" lon="2.00235">
        <ele>124.4</ele>
        <time>2025-11-16T12:33:07Z</time>
        <extensions>
          <gpxtpx:TrackPointExtension xmlns:gpxtpx="http://www.garmin.com/xmlschemas/TrackPointExtension/v1">
            <gpxtpx:hr>122</gpxtpx:hr>
          </gpxtpx:TrackPointExtension>
        </extensions>
      </trkpt>
      <trkpt lat="48.62239" lon="2.00235">
        <ele>124.2</ele>
        <time>2025-11-16T12:33:09Z</time>
        <extensions>
          <gpxtpx:TrackPointExtension xmlns:gpxtpx="http://www.garmin.com/xmlschemas/TrackPointExtension/v1">
            <gpxtpx:hr>122</gpxtpx:hr>
          </gpxtpx:TrackPointExtension>
        </extensions>
      </trkpt>
      <trkpt lat="48.62236" lon="2.00235">
        <ele>124.2</ele>
        <time>2025-11-16T12:33:11Z</time>
        <extensions>
          <gpxtpx:TrackPointExtension xmlns:gpxtpx="http://www.garmin.com/xmlschemas/TrackPointExtension/v1">
            <gpxtpx:hr>122</gpxtpx:hr>
          </gpxtpx:TrackPointExtension>
        </extensions>
      </trkpt>
      <trkpt lat="48.62233" lon="2.00235">
        <ele>124.4</ele>
        <time>2025-11-16T12:33:13Z</time>
        <extensions>
          <gpxtpx:TrackPointExtension xmlns:gpxtpx="http://www.garmin.com/xmlschemas/TrackPointExtension/v1">
            <gpxtpx:hr>122</gpxtpx:hr>
          </gpxtpx:TrackPointExtension>
        </extensions>
      </trkpt>
      <trkpt lat="48.62229" lon="2.00236">
        <ele>124.4</ele>
        <time>2025-11-16T12:33:15Z</time>
        <extensions>
          <gpxtpx:TrackPointExtension xmlns:gpxtpx="http://www.garmin.com/xmlschemas/TrackPointExtension/v1">
            <gpxtpx:hr>122</gpxtpx:hr>
          </gpxtpx:TrackPointExtension>
        </extensions>
      </trkpt>
      <trkpt lat="48.62228" lon="2.00237">
        <ele>124.4</ele>
        <time>2025-11-16T12:33:16Z</time>
        <extensions>
          <gpxtpx:TrackPointExtension xmlns:gpxtpx="http://www.garmin.com/xmlschemas/TrackPointExtension/v1">
            <gpxtpx:hr>122</gpxtpx:hr>
          </gpxtpx:TrackPointExtension>
        </extensions>
      </trkpt>
      <trkpt lat="48.62225" lon="2.00238">
        <ele>124.4</ele>
        <time>2025-11-16T12:33:18Z</time>
        <extensions>
          <gpxtpx:TrackPointExtension xmlns:gpxtpx="http://www.garmin.com/xmlschemas/TrackPointExtension/v1">
            <gpxtpx:hr>122</gpxtpx:hr>
          </gpxtpx:TrackPointExtension>
        </extensions>
      </trkpt>
      <trkpt lat="48.62223" lon="2.00239">
        <ele>124.4</ele>
        <time>2025-11-16T12:33:19Z</time>
        <extensions>
          <gpxtpx:TrackPointExtension xmlns:gpxtpx="http://www.garmin.com/xmlschemas/TrackPointExtension/v1">
            <gpxtpx:hr>122</gpxtpx:hr>
          </gpxtpx:TrackPointExtension>
        </extensions>
      </trkpt>
      <trkpt lat="48.6222" lon="2.0024">
        <ele>124.2</ele>
        <time>2025-11-16T12:33:21Z</time>
        <extensions>
          <gpxtpx:TrackPointExtension xmlns:gpxtpx="http://www.garmin.com/xmlschemas/TrackPointExtension/v1">
            <gpxtpx:hr>123</gpxtpx:hr>
          </gpxtpx:TrackPointExtension>
        </extensions>
      </trkpt>
      <trkpt lat="48.62217" lon="2.0024">
        <ele>124</ele>
        <time>2025-11-16T12:33:23Z</time>
        <extensions>
          <gpxtpx:TrackPointExtension xmlns:gpxtpx="http://www.garmin.com/xmlschemas/TrackPointExtension/v1">
            <gpxtpx:hr>122</gpxtpx:hr>
          </gpxtpx:TrackPointExtension>
        </extensions>
      </trkpt>
      <trkpt lat="48.62214" lon="2.00241">
        <ele>123.8</ele>
        <time>2025-11-16T12:33:25Z</time>
        <extensions>
          <gpxtpx:TrackPointExtension xmlns:gpxtpx="http://www.garmin.com/xmlschemas/TrackPointExtension/v1">
            <gpxtpx:hr>122</gpxtpx:hr>
          </gpxtpx:TrackPointExtension>
        </extensions>
      </trkpt>
      <trkpt lat="48.62211" lon="2.00241">
        <ele>123.8</ele>
        <time>2025-11-16T12:33:27Z</time>
        <extensions>
          <gpxtpx:TrackPointExtension xmlns:gpxtpx="http://www.garmin.com/xmlschemas/TrackPointExtension/v1">
            <gpxtpx:hr>122</gpxtpx:hr>
          </gpxtpx:TrackPointExtension>
        </extensions>
      </trkpt>
      <trkpt lat="48.62209" lon="2.00242">
        <ele>123.6</ele>
        <time>2025-11-16T12:33:29Z</time>
        <extensions>
          <gpxtpx:TrackPointExtension xmlns:gpxtpx="http://www.garmin.com/xmlschemas/TrackPointExtension/v1">
            <gpxtpx:hr>123</gpxtpx:hr>
          </gpxtpx:TrackPointExtension>
        </extensions>
      </trkpt>
      <trkpt lat="48.62205" lon="2.00242">
        <ele>123.4</ele>
        <time>2025-11-16T12:33:31Z</time>
        <extensions>
          <gpxtpx:TrackPointExtension xmlns:gpxtpx="http://www.garmin.com/xmlschemas/TrackPointExtension/v1">
            <gpxtpx:hr>122</gpxtpx:hr>
          </gpxtpx:TrackPointExtension>
        </extensions>
      </trkpt>
      <trkpt lat="48.62204" lon="2.00242">
        <ele>123.4</ele>
        <time>2025-11-16T12:33:32Z</time>
        <extensions>
          <gpxtpx:TrackPointExtension xmlns:gpxtpx="http://www.garmin.com/xmlschemas/TrackPointExtension/v1">
            <gpxtpx:hr>121</gpxtpx:hr>
          </gpxtpx:TrackPointExtension>
        </extensions>
      </trkpt>
      <trkpt lat="48.622" lon="2.00241">
        <ele>123.2</ele>
        <time>2025-11-16T12:33:34Z</time>
        <extensions>
          <gpxtpx:TrackPointExtension xmlns:gpxtpx="http://www.garmin.com/xmlschemas/TrackPointExtension/v1">
            <gpxtpx:hr>120</gpxtpx:hr>
          </gpxtpx:TrackPointExtension>
        </extensions>
      </trkpt>
      <trkpt lat="48.62197" lon="2.00241">
        <ele>123</ele>
        <time>2025-11-16T12:33:36Z</time>
        <extensions>
          <gpxtpx:TrackPointExtension xmlns:gpxtpx="http://www.garmin.com/xmlschemas/TrackPointExtension/v1">
            <gpxtpx:hr>120</gpxtpx:hr>
          </gpxtpx:TrackPointExtension>
        </extensions>
      </trkpt>
      <trkpt lat="48.62194" lon="2.00241">
        <ele>122.8</ele>
        <time>2025-11-16T12:33:38Z</time>
        <extensions>
          <gpxtpx:TrackPointExtension xmlns:gpxtpx="http://www.garmin.com/xmlschemas/TrackPointExtension/v1">
            <gpxtpx:hr>121</gpxtpx:hr>
          </gpxtpx:TrackPointExtension>
        </extensions>
      </trkpt>
      <trkpt lat="48.62191" lon="2.00242">
        <ele>122.4</ele>
        <time>2025-11-16T12:33:40Z</time>
        <extensions>
          <gpxtpx:TrackPointExtension xmlns:gpxtpx="http://www.garmin.com/xmlschemas/TrackPointExtension/v1">
            <gpxtpx:hr>122</gpxtpx:hr>
          </gpxtpx:TrackPointExtension>
        </extensions>
      </trkpt>
      <trkpt lat="48.62189" lon="2.00241">
        <ele>122</ele>
        <time>2025-11-16T12:33:43Z</time>
        <extensions>
          <gpxtpx:TrackPointExtension xmlns:gpxtpx="http://www.garmin.com/xmlschemas/TrackPointExtension/v1">
            <gpxtpx:hr>122</gpxtpx:hr>
          </gpxtpx:TrackPointExtension>
        </extensions>
      </trkpt>
      <trkpt lat="48.62187" lon="2.00241">
        <ele>121.6</ele>
        <time>2025-11-16T12:33:46Z</time>
        <extensions>
          <gpxtpx:TrackPointExtension xmlns:gpxtpx="http://www.garmin.com/xmlschemas/TrackPointExtension/v1">
            <gpxtpx:hr>121</gpxtpx:hr>
          </gpxtpx:TrackPointExtension>
        </extensions>
      </trkpt>
      <trkpt lat="48.62185" lon="2.00241">
        <ele>121.4</ele>
        <time>2025-11-16T12:33:48Z</time>
        <extensions>
          <gpxtpx:TrackPointExtension xmlns:gpxtpx="http://www.garmin.com/xmlschemas/TrackPointExtension/v1">
            <gpxtpx:hr>121</gpxtpx:hr>
          </gpxtpx:TrackPointExtension>
        </extensions>
      </trkpt>
      <trkpt lat="48.62183" lon="2.00242">
        <ele>121</ele>
        <time>2025-11-16T12:33:50Z</time>
        <extensions>
          <gpxtpx:TrackPointExtension xmlns:gpxtpx="http://www.garmin.com/xmlschemas/TrackPointExtension/v1">
            <gpxtpx:hr>121</gpxtpx:hr>
          </gpxtpx:TrackPointExtension>
        </extensions>
      </trkpt>
      <trkpt lat="48.62181" lon="2.00243">
        <ele>120.8</ele>
        <time>2025-11-16T12:33:52Z</time>
        <extensions>
          <gpxtpx:TrackPointExtension xmlns:gpxtpx="http://www.garmin.com/xmlschemas/TrackPointExtension/v1">
            <gpxtpx:hr>121</gpxtpx:hr>
          </gpxtpx:TrackPointExtension>
        </extensions>
      </trkpt>
      <trkpt lat="48.6218" lon="2.00245">
        <ele>120.4</ele>
        <time>2025-11-16T12:33:54Z</time>
        <extensions>
          <gpxtpx:TrackPointExtension xmlns:gpxtpx="http://www.garmin.com/xmlschemas/TrackPointExtension/v1">
            <gpxtpx:hr>121</gpxtpx:hr>
          </gpxtpx:TrackPointExtension>
        </extensions>
      </trkpt>
      <trkpt lat="48.62178" lon="2.00246">
        <ele>120.2</ele>
        <time>2025-11-16T12:33:56Z</time>
        <extensions>
          <gpxtpx:TrackPointExtension xmlns:gpxtpx="http://www.garmin.com/xmlschemas/TrackPointExtension/v1">
            <gpxtpx:hr>121</gpxtpx:hr>
          </gpxtpx:TrackPointExtension>
        </extensions>
      </trkpt>
      <trkpt lat="48.62175" lon="2.00247">
        <ele>120</ele>
        <time>2025-11-16T12:33:58Z</time>
        <extensions>
          <gpxtpx:TrackPointExtension xmlns:gpxtpx="http://www.garmin.com/xmlschemas/TrackPointExtension/v1">
            <gpxtpx:hr>121</gpxtpx:hr>
          </gpxtpx:TrackPointExtension>
        </extensions>
      </trkpt>
      <trkpt lat="48.62172" lon="2.00247">
        <ele>119.8</ele>
        <time>2025-11-16T12:34:00Z</time>
        <extensions>
          <gpxtpx:TrackPointExtension xmlns:gpxtpx="http://www.garmin.com/xmlschemas/TrackPointExtension/v1">
            <gpxtpx:hr>121</gpxtpx:hr>
          </gpxtpx:TrackPointExtension>
        </extensions>
      </trkpt>
      <trkpt lat="48.62169" lon="2.00247">
        <ele>119.4</ele>
        <time>2025-11-16T12:34:02Z</time>
        <extensions>
          <gpxtpx:TrackPointExtension xmlns:gpxtpx="http://www.garmin.com/xmlschemas/TrackPointExtension/v1">
            <gpxtpx:hr>121</gpxtpx:hr>
          </gpxtpx:TrackPointExtension>
        </extensions>
      </trkpt>
      <trkpt lat="48.62166" lon="2.00247">
        <ele>119.2</ele>
        <time>2025-11-16T12:34:04Z</time>
        <extensions>
          <gpxtpx:TrackPointExtension xmlns:gpxtpx="http://www.garmin.com/xmlschemas/TrackPointExtension/v1">
            <gpxtpx:hr>122</gpxtpx:hr>
          </gpxtpx:TrackPointExtension>
        </extensions>
      </trkpt>
      <trkpt lat="48.62164" lon="2.00247">
        <ele>118.8</ele>
        <time>2025-11-16T12:34:06Z</time>
        <extensions>
          <gpxtpx:TrackPointExtension xmlns:gpxtpx="http://www.garmin.com/xmlschemas/TrackPointExtension/v1">
            <gpxtpx:hr>122</gpxtpx:hr>
          </gpxtpx:TrackPointExtension>
        </extensions>
      </trkpt>
      <trkpt lat="48.62162" lon="2.00246">
        <ele>118.6</ele>
        <time>2025-11-16T12:34:08Z</time>
        <extensions>
          <gpxtpx:TrackPointExtension xmlns:gpxtpx="http://www.garmin.com/xmlschemas/TrackPointExtension/v1">
            <gpxtpx:hr>122</gpxtpx:hr>
          </gpxtpx:TrackPointExtension>
        </extensions>
      </trkpt>
      <trkpt lat="48.62159" lon="2.00245">
        <ele>118.2</ele>
        <time>2025-11-16T12:34:10Z</time>
        <extensions>
          <gpxtpx:TrackPointExtension xmlns:gpxtpx="http://www.garmin.com/xmlschemas/TrackPointExtension/v1">
            <gpxtpx:hr>122</gpxtpx:hr>
          </gpxtpx:TrackPointExtension>
        </extensions>
      </trkpt>
      <trkpt lat="48.62158" lon="2.00243">
        <ele>118</ele>
        <time>2025-11-16T12:34:12Z</time>
        <extensions>
          <gpxtpx:TrackPointExtension xmlns:gpxtpx="http://www.garmin.com/xmlschemas/TrackPointExtension/v1">
            <gpxtpx:hr>121</gpxtpx:hr>
          </gpxtpx:TrackPointExtension>
        </extensions>
      </trkpt>
      <trkpt lat="48.62156" lon="2.0024">
        <ele>117.8</ele>
        <time>2025-11-16T12:34:14Z</time>
        <extensions>
          <gpxtpx:TrackPointExtension xmlns:gpxtpx="http://www.garmin.com/xmlschemas/TrackPointExtension/v1">
            <gpxtpx:hr>121</gpxtpx:hr>
          </gpxtpx:TrackPointExtension>
        </extensions>
      </trkpt>
      <trkpt lat="48.62156" lon="2.00237">
        <ele>117.4</ele>
        <time>2025-11-16T12:34:16Z</time>
        <extensions>
          <gpxtpx:TrackPointExtension xmlns:gpxtpx="http://www.garmin.com/xmlschemas/TrackPointExtension/v1">
            <gpxtpx:hr>121</gpxtpx:hr>
          </gpxtpx:TrackPointExtension>
        </extensions>
      </trkpt>
      <trkpt lat="48.62154" lon="2.00233">
        <ele>117.2</ele>
        <time>2025-11-16T12:34:18Z</time>
        <extensions>
          <gpxtpx:TrackPointExtension xmlns:gpxtpx="http://www.garmin.com/xmlschemas/TrackPointExtension/v1">
            <gpxtpx:hr>121</gpxtpx:hr>
          </gpxtpx:TrackPointExtension>
        </extensions>
      </trkpt>
      <trkpt lat="48.62153" lon="2.00229">
        <ele>117</ele>
        <time>2025-11-16T12:34:20Z</time>
        <extensions>
          <gpxtpx:TrackPointExtension xmlns:gpxtpx="http://www.garmin.com/xmlschemas/TrackPointExtension/v1">
            <gpxtpx:hr>121</gpxtpx:hr>
          </gpxtpx:TrackPointExtension>
        </extensions>
      </trkpt>
      <trkpt lat="48.62151" lon="2.00227">
        <ele>116.8</ele>
        <time>2025-11-16T12:34:22Z</time>
        <extensions>
          <gpxtpx:TrackPointExtension xmlns:gpxtpx="http://www.garmin.com/xmlschemas/TrackPointExtension/v1">
            <gpxtpx:hr>121</gpxtpx:hr>
          </gpxtpx:TrackPointExtension>
        </extensions>
      </trkpt>
      <trkpt lat="48.62148" lon="2.00225">
        <ele>116.6</ele>
        <time>2025-11-16T12:34:24Z</time>
        <extensions>
          <gpxtpx:TrackPointExtension xmlns:gpxtpx="http://www.garmin.com/xmlschemas/TrackPointExtension/v1">
            <gpxtpx:hr>121</gpxtpx:hr>
          </gpxtpx:TrackPointExtension>
        </extensions>
      </trkpt>
      <trkpt lat="48.62145" lon="2.00224">
        <ele>116.4</ele>
        <time>2025-11-16T12:34:26Z</time>
        <extensions>
          <gpxtpx:TrackPointExtension xmlns:gpxtpx="http://www.garmin.com/xmlschemas/TrackPointExtension/v1">
            <gpxtpx:hr>121</gpxtpx:hr>
          </gpxtpx:TrackPointExtension>
        </extensions>
      </trkpt>
      <trkpt lat="48.62142" lon="2.00224">
        <ele>116.2</ele>
        <time>2025-11-16T12:34:28Z</time>
        <extensions>
          <gpxtpx:TrackPointExtension xmlns:gpxtpx="http://www.garmin.com/xmlschemas/TrackPointExtension/v1">
            <gpxtpx:hr>121</gpxtpx:hr>
          </gpxtpx:TrackPointExtension>
        </extensions>
      </trkpt>
      <trkpt lat="48.62139" lon="2.00223">
        <ele>116.2</ele>
        <time>2025-11-16T12:34:30Z</time>
        <extensions>
          <gpxtpx:TrackPointExtension xmlns:gpxtpx="http://www.garmin.com/xmlschemas/TrackPointExtension/v1">
            <gpxtpx:hr>121</gpxtpx:hr>
          </gpxtpx:TrackPointExtension>
        </extensions>
      </trkpt>
      <trkpt lat="48.62136" lon="2.00224">
        <ele>116</ele>
        <time>2025-11-16T12:34:32Z</time>
        <extensions>
          <gpxtpx:TrackPointExtension xmlns:gpxtpx="http://www.garmin.com/xmlschemas/TrackPointExtension/v1">
            <gpxtpx:hr>121</gpxtpx:hr>
          </gpxtpx:TrackPointExtension>
        </extensions>
      </trkpt>
      <trkpt lat="48.62133" lon="2.00225">
        <ele>116</ele>
        <time>2025-11-16T12:34:34Z</time>
        <extensions>
          <gpxtpx:TrackPointExtension xmlns:gpxtpx="http://www.garmin.com/xmlschemas/TrackPointExtension/v1">
            <gpxtpx:hr>121</gpxtpx:hr>
          </gpxtpx:TrackPointExtension>
        </extensions>
      </trkpt>
      <trkpt lat="48.6213" lon="2.00226">
        <ele>116.2</ele>
        <time>2025-11-16T12:34:36Z</time>
        <extensions>
          <gpxtpx:TrackPointExtension xmlns:gpxtpx="http://www.garmin.com/xmlschemas/TrackPointExtension/v1">
            <gpxtpx:hr>121</gpxtpx:hr>
          </gpxtpx:TrackPointExtension>
        </extensions>
      </trkpt>
      <trkpt lat="48.62127" lon="2.00227">
        <ele>116.2</ele>
        <time>2025-11-16T12:34:38Z</time>
        <extensions>
          <gpxtpx:TrackPointExtension xmlns:gpxtpx="http://www.garmin.com/xmlschemas/TrackPointExtension/v1">
            <gpxtpx:hr>121</gpxtpx:hr>
          </gpxtpx:TrackPointExtension>
        </extensions>
      </trkpt>
      <trkpt lat="48.62124" lon="2.00228">
        <ele>116.4</ele>
        <time>2025-11-16T12:34:40Z</time>
        <extensions>
          <gpxtpx:TrackPointExtension xmlns:gpxtpx="http://www.garmin.com/xmlschemas/TrackPointExtension/v1">
            <gpxtpx:hr>121</gpxtpx:hr>
          </gpxtpx:TrackPointExtension>
        </extensions>
      </trkpt>
      <trkpt lat="48.62121" lon="2.00228">
        <ele>116.6</ele>
        <time>2025-11-16T12:34:42Z</time>
        <extensions>
          <gpxtpx:TrackPointExtension xmlns:gpxtpx="http://www.garmin.com/xmlschemas/TrackPointExtension/v1">
            <gpxtpx:hr>121</gpxtpx:hr>
          </gpxtpx:TrackPointExtension>
        </extensions>
      </trkpt>
      <trkpt lat="48.62118" lon="2.00228">
        <ele>116.8</ele>
        <time>2025-11-16T12:34:44Z</time>
        <extensions>
          <gpxtpx:TrackPointExtension xmlns:gpxtpx="http://www.garmin.com/xmlschemas/TrackPointExtension/v1">
            <gpxtpx:hr>121</gpxtpx:hr>
          </gpxtpx:TrackPointExtension>
        </extensions>
      </trkpt>
      <trkpt lat="48.62115" lon="2.00228">
        <ele>116.8</ele>
        <time>2025-11-16T12:34:46Z</time>
        <extensions>
          <gpxtpx:TrackPointExtension xmlns:gpxtpx="http://www.garmin.com/xmlschemas/TrackPointExtension/v1">
            <gpxtpx:hr>121</gpxtpx:hr>
          </gpxtpx:TrackPointExtension>
        </extensions>
      </trkpt>
      <trkpt lat="48.62112" lon="2.00228">
        <ele>116.8</ele>
        <time>2025-11-16T12:34:48Z</time>
        <extensions>
          <gpxtpx:TrackPointExtension xmlns:gpxtpx="http://www.garmin.com/xmlschemas/TrackPointExtension/v1">
            <gpxtpx:hr>121</gpxtpx:hr>
          </gpxtpx:TrackPointExtension>
        </extensions>
      </trkpt>
      <trkpt lat="48.6211" lon="2.00228">
        <ele>116.8</ele>
        <time>2025-11-16T12:34:50Z</time>
        <extensions>
          <gpxtpx:TrackPointExtension xmlns:gpxtpx="http://www.garmin.com/xmlschemas/TrackPointExtension/v1">
            <gpxtpx:hr>121</gpxtpx:hr>
          </gpxtpx:TrackPointExtension>
        </extensions>
      </trkpt>
      <trkpt lat="48.62107" lon="2.00228">
        <ele>117</ele>
        <time>2025-11-16T12:34:52Z</time>
        <extensions>
          <gpxtpx:TrackPointExtension xmlns:gpxtpx="http://www.garmin.com/xmlschemas/TrackPointExtension/v1">
            <gpxtpx:hr>121</gpxtpx:hr>
          </gpxtpx:TrackPointExtension>
        </extensions>
      </trkpt>
      <trkpt lat="48.62104" lon="2.00229">
        <ele>117.2</ele>
        <time>2025-11-16T12:34:54Z</time>
        <extensions>
          <gpxtpx:TrackPointExtension xmlns:gpxtpx="http://www.garmin.com/xmlschemas/TrackPointExtension/v1">
            <gpxtpx:hr>122</gpxtpx:hr>
          </gpxtpx:TrackPointExtension>
        </extensions>
      </trkpt>
      <trkpt lat="48.621" lon="2.00229">
        <ele>117.4</ele>
        <time>2025-11-16T12:34:56Z</time>
        <extensions>
          <gpxtpx:TrackPointExtension xmlns:gpxtpx="http://www.garmin.com/xmlschemas/TrackPointExtension/v1">
            <gpxtpx:hr>122</gpxtpx:hr>
          </gpxtpx:TrackPointExtension>
        </extensions>
      </trkpt>
      <trkpt lat="48.62098" lon="2.00229">
        <ele>117.4</ele>
        <time>2025-11-16T12:34:58Z</time>
        <extensions>
          <gpxtpx:TrackPointExtension xmlns:gpxtpx="http://www.garmin.com/xmlschemas/TrackPointExtension/v1">
            <gpxtpx:hr>122</gpxtpx:hr>
          </gpxtpx:TrackPointExtension>
        </extensions>
      </trkpt>
      <trkpt lat="48.62094" lon="2.00228">
        <ele>117.4</ele>
        <time>2025-11-16T12:35:00Z</time>
        <extensions>
          <gpxtpx:TrackPointExtension xmlns:gpxtpx="http://www.garmin.com/xmlschemas/TrackPointExtension/v1">
            <gpxtpx:hr>122</gpxtpx:hr>
          </gpxtpx:TrackPointExtension>
        </extensions>
      </trkpt>
      <trkpt lat="48.62091" lon="2.00228">
        <ele>117.4</ele>
        <time>2025-11-16T12:35:02Z</time>
        <extensions>
          <gpxtpx:TrackPointExtension xmlns:gpxtpx="http://www.garmin.com/xmlschemas/TrackPointExtension/v1">
            <gpxtpx:hr>122</gpxtpx:hr>
          </gpxtpx:TrackPointExtension>
        </extensions>
      </trkpt>
      <trkpt lat="48.62088" lon="2.00227">
        <ele>117.6</ele>
        <time>2025-11-16T12:35:04Z</time>
        <extensions>
          <gpxtpx:TrackPointExtension xmlns:gpxtpx="http://www.garmin.com/xmlschemas/TrackPointExtension/v1">
            <gpxtpx:hr>122</gpxtpx:hr>
          </gpxtpx:TrackPointExtension>
        </extensions>
      </trkpt>
      <trkpt lat="48.62085" lon="2.00227">
        <ele>117.8</ele>
        <time>2025-11-16T12:35:06Z</time>
        <extensions>
          <gpxtpx:TrackPointExtension xmlns:gpxtpx="http://www.garmin.com/xmlschemas/TrackPointExtension/v1">
            <gpxtpx:hr>122</gpxtpx:hr>
          </gpxtpx:TrackPointExtension>
        </extensions>
      </trkpt>
      <trkpt lat="48.62082" lon="2.00227">
        <ele>118</ele>
        <time>2025-11-16T12:35:08Z</time>
        <extensions>
          <gpxtpx:TrackPointExtension xmlns:gpxtpx="http://www.garmin.com/xmlschemas/TrackPointExtension/v1">
            <gpxtpx:hr>122</gpxtpx:hr>
          </gpxtpx:TrackPointExtension>
        </extensions>
      </trkpt>
      <trkpt lat="48.62079" lon="2.00227">
        <ele>118.2</ele>
        <time>2025-11-16T12:35:10Z</time>
        <extensions>
          <gpxtpx:TrackPointExtension xmlns:gpxtpx="http://www.garmin.com/xmlschemas/TrackPointExtension/v1">
            <gpxtpx:hr>122</gpxtpx:hr>
          </gpxtpx:TrackPointExtension>
        </extensions>
      </trkpt>
      <trkpt lat="48.62076" lon="2.00226">
        <ele>118.2</ele>
        <time>2025-11-16T12:35:12Z</time>
        <extensions>
          <gpxtpx:TrackPointExtension xmlns:gpxtpx="http://www.garmin.com/xmlschemas/TrackPointExtension/v1">
            <gpxtpx:hr>122</gpxtpx:hr>
          </gpxtpx:TrackPointExtension>
        </extensions>
      </trkpt>
      <trkpt lat="48.62072" lon="2.00226">
        <ele>118.2</ele>
        <time>2025-11-16T12:35:14Z</time>
        <extensions>
          <gpxtpx:TrackPointExtension xmlns:gpxtpx="http://www.garmin.com/xmlschemas/TrackPointExtension/v1">
            <gpxtpx:hr>122</gpxtpx:hr>
          </gpxtpx:TrackPointExtension>
        </extensions>
      </trkpt>
      <trkpt lat="48.6207" lon="2.00226">
        <ele>118.2</ele>
        <time>2025-11-16T12:35:15Z</time>
        <extensions>
          <gpxtpx:TrackPointExtension xmlns:gpxtpx="http://www.garmin.com/xmlschemas/TrackPointExtension/v1">
            <gpxtpx:hr>122</gpxtpx:hr>
          </gpxtpx:TrackPointExtension>
        </extensions>
      </trkpt>
      <trkpt lat="48.62068" lon="2.00226">
        <ele>118.2</ele>
        <time>2025-11-16T12:35:16Z</time>
        <extensions>
          <gpxtpx:TrackPointExtension xmlns:gpxtpx="http://www.garmin.com/xmlschemas/TrackPointExtension/v1">
            <gpxtpx:hr>122</gpxtpx:hr>
          </gpxtpx:TrackPointExtension>
        </extensions>
      </trkpt>
      <trkpt lat="48.62067" lon="2.00226">
        <ele>118.2</ele>
        <time>2025-11-16T12:35:17Z</time>
        <extensions>
          <gpxtpx:TrackPointExtension xmlns:gpxtpx="http://www.garmin.com/xmlschemas/TrackPointExtension/v1">
            <gpxtpx:hr>122</gpxtpx:hr>
          </gpxtpx:TrackPointExtension>
        </extensions>
      </trkpt>
      <trkpt lat="48.62065" lon="2.00226">
        <ele>118.2</ele>
        <time>2025-11-16T12:35:18Z</time>
        <extensions>
          <gpxtpx:TrackPointExtension xmlns:gpxtpx="http://www.garmin.com/xmlschemas/TrackPointExtension/v1">
            <gpxtpx:hr>122</gpxtpx:hr>
          </gpxtpx:TrackPointExtension>
        </extensions>
      </trkpt>
      <trkpt lat="48.62063" lon="2.00226">
        <ele>118.2</ele>
        <time>2025-11-16T12:35:19Z</time>
        <extensions>
          <gpxtpx:TrackPointExtension xmlns:gpxtpx="http://www.garmin.com/xmlschemas/TrackPointExtension/v1">
            <gpxtpx:hr>122</gpxtpx:hr>
          </gpxtpx:TrackPointExtension>
        </extensions>
      </trkpt>
      <trkpt lat="48.6206" lon="2.00226">
        <ele>118</ele>
        <time>2025-11-16T12:35:21Z</time>
        <extensions>
          <gpxtpx:TrackPointExtension xmlns:gpxtpx="http://www.garmin.com/xmlschemas/TrackPointExtension/v1">
            <gpxtpx:hr>122</gpxtpx:hr>
          </gpxtpx:TrackPointExtension>
        </extensions>
      </trkpt>
      <trkpt lat="48.62056" lon="2.00226">
        <ele>118</ele>
        <time>2025-11-16T12:35:23Z</time>
        <extensions>
          <gpxtpx:TrackPointExtension xmlns:gpxtpx="http://www.garmin.com/xmlschemas/TrackPointExtension/v1">
            <gpxtpx:hr>122</gpxtpx:hr>
          </gpxtpx:TrackPointExtension>
        </extensions>
      </trkpt>
      <trkpt lat="48.62053" lon="2.00226">
        <ele>117.8</ele>
        <time>2025-11-16T12:35:25Z</time>
        <extensions>
          <gpxtpx:TrackPointExtension xmlns:gpxtpx="http://www.garmin.com/xmlschemas/TrackPointExtension/v1">
            <gpxtpx:hr>122</gpxtpx:hr>
          </gpxtpx:TrackPointExtension>
        </extensions>
      </trkpt>
      <trkpt lat="48.6205" lon="2.00226">
        <ele>117.8</ele>
        <time>2025-11-16T12:35:27Z</time>
        <extensions>
          <gpxtpx:TrackPointExtension xmlns:gpxtpx="http://www.garmin.com/xmlschemas/TrackPointExtension/v1">
            <gpxtpx:hr>122</gpxtpx:hr>
          </gpxtpx:TrackPointExtension>
        </extensions>
      </trkpt>
      <trkpt lat="48.62048" lon="2.00226">
        <ele>117.8</ele>
        <time>2025-11-16T12:35:29Z</time>
        <extensions>
          <gpxtpx:TrackPointExtension xmlns:gpxtpx="http://www.garmin.com/xmlschemas/TrackPointExtension/v1">
            <gpxtpx:hr>122</gpxtpx:hr>
          </gpxtpx:TrackPointExtension>
        </extensions>
      </trkpt>
      <trkpt lat="48.62044" lon="2.00227">
        <ele>118</ele>
        <time>2025-11-16T12:35:31Z</time>
        <extensions>
          <gpxtpx:TrackPointExtension xmlns:gpxtpx="http://www.garmin.com/xmlschemas/TrackPointExtension/v1">
            <gpxtpx:hr>122</gpxtpx:hr>
          </gpxtpx:TrackPointExtension>
        </extensions>
      </trkpt>
      <trkpt lat="48.62042" lon="2.00228">
        <ele>118</ele>
        <time>2025-11-16T12:35:33Z</time>
        <extensions>
          <gpxtpx:TrackPointExtension xmlns:gpxtpx="http://www.garmin.com/xmlschemas/TrackPointExtension/v1">
            <gpxtpx:hr>121</gpxtpx:hr>
          </gpxtpx:TrackPointExtension>
        </extensions>
      </trkpt>
      <trkpt lat="48.62038" lon="2.00228">
        <ele>118.2</ele>
        <time>2025-11-16T12:35:35Z</time>
        <extensions>
          <gpxtpx:TrackPointExtension xmlns:gpxtpx="http://www.garmin.com/xmlschemas/TrackPointExtension/v1">
            <gpxtpx:hr>121</gpxtpx:hr>
          </gpxtpx:TrackPointExtension>
        </extensions>
      </trkpt>
      <trkpt lat="48.62035" lon="2.00228">
        <ele>118.2</ele>
        <time>2025-11-16T12:35:37Z</time>
        <extensions>
          <gpxtpx:TrackPointExtension xmlns:gpxtpx="http://www.garmin.com/xmlschemas/TrackPointExtension/v1">
            <gpxtpx:hr>121</gpxtpx:hr>
          </gpxtpx:TrackPointExtension>
        </extensions>
      </trkpt>
      <trkpt lat="48.62033" lon="2.00228">
        <ele>118.2</ele>
        <time>2025-11-16T12:35:38Z</time>
        <extensions>
          <gpxtpx:TrackPointExtension xmlns:gpxtpx="http://www.garmin.com/xmlschemas/TrackPointExtension/v1">
            <gpxtpx:hr>121</gpxtpx:hr>
          </gpxtpx:TrackPointExtension>
        </extensions>
      </trkpt>
      <trkpt lat="48.62031" lon="2.00227">
        <ele>118.2</ele>
        <time>2025-11-16T12:35:39Z</time>
        <extensions>
          <gpxtpx:TrackPointExtension xmlns:gpxtpx="http://www.garmin.com/xmlschemas/TrackPointExtension/v1">
            <gpxtpx:hr>121</gpxtpx:hr>
          </gpxtpx:TrackPointExtension>
        </extensions>
      </trkpt>
      <trkpt lat="48.62029" lon="2.00227">
        <ele>118.2</ele>
        <time>2025-11-16T12:35:40Z</time>
        <extensions>
          <gpxtpx:TrackPointExtension xmlns:gpxtpx="http://www.garmin.com/xmlschemas/TrackPointExtension/v1">
            <gpxtpx:hr>122</gpxtpx:hr>
          </gpxtpx:TrackPointExtension>
        </extensions>
      </trkpt>
      <trkpt lat="48.62027" lon="2.00227">
        <ele>118.2</ele>
        <time>2025-11-16T12:35:41Z</time>
        <extensions>
          <gpxtpx:TrackPointExtension xmlns:gpxtpx="http://www.garmin.com/xmlschemas/TrackPointExtension/v1">
            <gpxtpx:hr>122</gpxtpx:hr>
          </gpxtpx:TrackPointExtension>
        </extensions>
      </trkpt>
      <trkpt lat="48.62024" lon="2.00227">
        <ele>118.2</ele>
        <time>2025-11-16T12:35:43Z</time>
        <extensions>
          <gpxtpx:TrackPointExtension xmlns:gpxtpx="http://www.garmin.com/xmlschemas/TrackPointExtension/v1">
            <gpxtpx:hr>122</gpxtpx:hr>
          </gpxtpx:TrackPointExtension>
        </extensions>
      </trkpt>
      <trkpt lat="48.62022" lon="2.00227">
        <ele>118</ele>
        <time>2025-11-16T12:35:44Z</time>
        <extensions>
          <gpxtpx:TrackPointExtension xmlns:gpxtpx="http://www.garmin.com/xmlschemas/TrackPointExtension/v1">
            <gpxtpx:hr>122</gpxtpx:hr>
          </gpxtpx:TrackPointExtension>
        </extensions>
      </trkpt>
      <trkpt lat="48.6202" lon="2.00227">
        <ele>118</ele>
        <time>2025-11-16T12:35:45Z</time>
        <extensions>
          <gpxtpx:TrackPointExtension xmlns:gpxtpx="http://www.garmin.com/xmlschemas/TrackPointExtension/v1">
            <gpxtpx:hr>122</gpxtpx:hr>
          </gpxtpx:TrackPointExtension>
        </extensions>
      </trkpt>
      <trkpt lat="48.62018" lon="2.00227">
        <ele>118</ele>
        <time>2025-11-16T12:35:46Z</time>
        <extensions>
          <gpxtpx:TrackPointExtension xmlns:gpxtpx="http://www.garmin.com/xmlschemas/TrackPointExtension/v1">
            <gpxtpx:hr>122</gpxtpx:hr>
          </gpxtpx:TrackPointExtension>
        </extensions>
      </trkpt>
      <trkpt lat="48.62016" lon="2.00228">
        <ele>118</ele>
        <time>2025-11-16T12:35:47Z</time>
        <extensions>
          <gpxtpx:TrackPointExtension xmlns:gpxtpx="http://www.garmin.com/xmlschemas/TrackPointExtension/v1">
            <gpxtpx:hr>123</gpxtpx:hr>
          </gpxtpx:TrackPointExtension>
        </extensions>
      </trkpt>
      <trkpt lat="48.62013" lon="2.00228">
        <ele>118.2</ele>
        <time>2025-11-16T12:35:49Z</time>
        <extensions>
          <gpxtpx:TrackPointExtension xmlns:gpxtpx="http://www.garmin.com/xmlschemas/TrackPointExtension/v1">
            <gpxtpx:hr>123</gpxtpx:hr>
          </gpxtpx:TrackPointExtension>
        </extensions>
      </trkpt>
      <trkpt lat="48.6201" lon="2.00229">
        <ele>118.4</ele>
        <time>2025-11-16T12:35:51Z</time>
        <extensions>
          <gpxtpx:TrackPointExtension xmlns:gpxtpx="http://www.garmin.com/xmlschemas/TrackPointExtension/v1">
            <gpxtpx:hr>123</gpxtpx:hr>
          </gpxtpx:TrackPointExtension>
        </extensions>
      </trkpt>
      <trkpt lat="48.62008" lon="2.00229">
        <ele>118.4</ele>
        <time>2025-11-16T12:35:53Z</time>
        <extensions>
          <gpxtpx:TrackPointExtension xmlns:gpxtpx="http://www.garmin.com/xmlschemas/TrackPointExtension/v1">
            <gpxtpx:hr>123</gpxtpx:hr>
          </gpxtpx:TrackPointExtension>
        </extensions>
      </trkpt>
      <trkpt lat="48.62005" lon="2.0023">
        <ele>118.6</ele>
        <time>2025-11-16T12:35:55Z</time>
        <extensions>
          <gpxtpx:TrackPointExtension xmlns:gpxtpx="http://www.garmin.com/xmlschemas/TrackPointExtension/v1">
            <gpxtpx:hr>123</gpxtpx:hr>
          </gpxtpx:TrackPointExtension>
        </extensions>
      </trkpt>
      <trkpt lat="48.62002" lon="2.00231">
        <ele>118.8</ele>
        <time>2025-11-16T12:35:57Z</time>
        <extensions>
          <gpxtpx:TrackPointExtension xmlns:gpxtpx="http://www.garmin.com/xmlschemas/TrackPointExtension/v1">
            <gpxtpx:hr>123</gpxtpx:hr>
          </gpxtpx:TrackPointExtension>
        </extensions>
      </trkpt>
      <trkpt lat="48.61999" lon="2.00232">
        <ele>119</ele>
        <time>2025-11-16T12:35:59Z</time>
        <extensions>
          <gpxtpx:TrackPointExtension xmlns:gpxtpx="http://www.garmin.com/xmlschemas/TrackPointExtension/v1">
            <gpxtpx:hr>122</gpxtpx:hr>
          </gpxtpx:TrackPointExtension>
        </extensions>
      </trkpt>
      <trkpt lat="48.61996" lon="2.00232">
        <ele>119</ele>
        <time>2025-11-16T12:36:01Z</time>
        <extensions>
          <gpxtpx:TrackPointExtension xmlns:gpxtpx="http://www.garmin.com/xmlschemas/TrackPointExtension/v1">
            <gpxtpx:hr>122</gpxtpx:hr>
          </gpxtpx:TrackPointExtension>
        </extensions>
      </trkpt>
      <trkpt lat="48.61993" lon="2.00232">
        <ele>119.2</ele>
        <time>2025-11-16T12:36:03Z</time>
        <extensions>
          <gpxtpx:TrackPointExtension xmlns:gpxtpx="http://www.garmin.com/xmlschemas/TrackPointExtension/v1">
            <gpxtpx:hr>123</gpxtpx:hr>
          </gpxtpx:TrackPointExtension>
        </extensions>
      </trkpt>
      <trkpt lat="48.61989" lon="2.00232">
        <ele>119.2</ele>
        <time>2025-11-16T12:36:05Z</time>
        <extensions>
          <gpxtpx:TrackPointExtension xmlns:gpxtpx="http://www.garmin.com/xmlschemas/TrackPointExtension/v1">
            <gpxtpx:hr>123</gpxtpx:hr>
          </gpxtpx:TrackPointExtension>
        </extensions>
      </trkpt>
      <trkpt lat="48.61987" lon="2.00232">
        <ele>119.2</ele>
        <time>2025-11-16T12:36:07Z</time>
        <extensions>
          <gpxtpx:TrackPointExtension xmlns:gpxtpx="http://www.garmin.com/xmlschemas/TrackPointExtension/v1">
            <gpxtpx:hr>123</gpxtpx:hr>
          </gpxtpx:TrackPointExtension>
        </extensions>
      </trkpt>
      <trkpt lat="48.61984" lon="2.00232">
        <ele>119.4</ele>
        <time>2025-11-16T12:36:09Z</time>
        <extensions>
          <gpxtpx:TrackPointExtension xmlns:gpxtpx="http://www.garmin.com/xmlschemas/TrackPointExtension/v1">
            <gpxtpx:hr>123</gpxtpx:hr>
          </gpxtpx:TrackPointExtension>
        </extensions>
      </trkpt>
      <trkpt lat="48.61982" lon="2.00232">
        <ele>119.4</ele>
        <time>2025-11-16T12:36:11Z</time>
        <extensions>
          <gpxtpx:TrackPointExtension xmlns:gpxtpx="http://www.garmin.com/xmlschemas/TrackPointExtension/v1">
            <gpxtpx:hr>123</gpxtpx:hr>
          </gpxtpx:TrackPointExtension>
        </extensions>
      </trkpt>
      <trkpt lat="48.6198" lon="2.00231">
        <ele>119.4</ele>
        <time>2025-11-16T12:36:13Z</time>
        <extensions>
          <gpxtpx:TrackPointExtension xmlns:gpxtpx="http://www.garmin.com/xmlschemas/TrackPointExtension/v1">
            <gpxtpx:hr>124</gpxtpx:hr>
          </gpxtpx:TrackPointExtension>
        </extensions>
      </trkpt>
      <trkpt lat="48.61977" lon="2.00231">
        <ele>119.4</ele>
        <time>2025-11-16T12:36:15Z</time>
        <extensions>
          <gpxtpx:TrackPointExtension xmlns:gpxtpx="http://www.garmin.com/xmlschemas/TrackPointExtension/v1">
            <gpxtpx:hr>124</gpxtpx:hr>
          </gpxtpx:TrackPointExtension>
        </extensions>
      </trkpt>
      <trkpt lat="48.61973" lon="2.00231">
        <ele>119.4</ele>
        <time>2025-11-16T12:36:17Z</time>
        <extensions>
          <gpxtpx:TrackPointExtension xmlns:gpxtpx="http://www.garmin.com/xmlschemas/TrackPointExtension/v1">
            <gpxtpx:hr>125</gpxtpx:hr>
          </gpxtpx:TrackPointExtension>
        </extensions>
      </trkpt>
      <trkpt lat="48.6197" lon="2.0023">
        <ele>119.4</ele>
        <time>2025-11-16T12:36:19Z</time>
        <extensions>
          <gpxtpx:TrackPointExtension xmlns:gpxtpx="http://www.garmin.com/xmlschemas/TrackPointExtension/v1">
            <gpxtpx:hr>125</gpxtpx:hr>
          </gpxtpx:TrackPointExtension>
        </extensions>
      </trkpt>
      <trkpt lat="48.61965" lon="2.00229">
        <ele>119.6</ele>
        <time>2025-11-16T12:36:21Z</time>
        <extensions>
          <gpxtpx:TrackPointExtension xmlns:gpxtpx="http://www.garmin.com/xmlschemas/TrackPointExtension/v1">
            <gpxtpx:hr>125</gpxtpx:hr>
          </gpxtpx:TrackPointExtension>
        </extensions>
      </trkpt>
      <trkpt lat="48.61964" lon="2.00229">
        <ele>119.6</ele>
        <time>2025-11-16T12:36:22Z</time>
        <extensions>
          <gpxtpx:TrackPointExtension xmlns:gpxtpx="http://www.garmin.com/xmlschemas/TrackPointExtension/v1">
            <gpxtpx:hr>125</gpxtpx:hr>
          </gpxtpx:TrackPointExtension>
        </extensions>
      </trkpt>
      <trkpt lat="48.61962" lon="2.00229">
        <ele>119.8</ele>
        <time>2025-11-16T12:36:23Z</time>
        <extensions>
          <gpxtpx:TrackPointExtension xmlns:gpxtpx="http://www.garmin.com/xmlschemas/TrackPointExtension/v1">
            <gpxtpx:hr>125</gpxtpx:hr>
          </gpxtpx:TrackPointExtension>
        </extensions>
      </trkpt>
      <trkpt lat="48.6196" lon="2.00228">
        <ele>119.8</ele>
        <time>2025-11-16T12:36:24Z</time>
        <extensions>
          <gpxtpx:TrackPointExtension xmlns:gpxtpx="http://www.garmin.com/xmlschemas/TrackPointExtension/v1">
            <gpxtpx:hr>125</gpxtpx:hr>
          </gpxtpx:TrackPointExtension>
        </extensions>
      </trkpt>
      <trkpt lat="48.61957" lon="2.00228">
        <ele>119.8</ele>
        <time>2025-11-16T12:36:25Z</time>
        <extensions>
          <gpxtpx:TrackPointExtension xmlns:gpxtpx="http://www.garmin.com/xmlschemas/TrackPointExtension/v1">
            <gpxtpx:hr>125</gpxtpx:hr>
          </gpxtpx:TrackPointExtension>
        </extensions>
      </trkpt>
      <trkpt lat="48.61954" lon="2.00228">
        <ele>120</ele>
        <time>2025-11-16T12:36:27Z</time>
        <extensions>
          <gpxtpx:TrackPointExtension xmlns:gpxtpx="http://www.garmin.com/xmlschemas/TrackPointExtension/v1">
            <gpxtpx:hr>125</gpxtpx:hr>
          </gpxtpx:TrackPointExtension>
        </extensions>
      </trkpt>
      <trkpt lat="48.61952" lon="2.00228">
        <ele>120</ele>
        <time>2025-11-16T12:36:28Z</time>
        <extensions>
          <gpxtpx:TrackPointExtension xmlns:gpxtpx="http://www.garmin.com/xmlschemas/TrackPointExtension/v1">
            <gpxtpx:hr>125</gpxtpx:hr>
          </gpxtpx:TrackPointExtension>
        </extensions>
      </trkpt>
      <trkpt lat="48.61949" lon="2.00228">
        <ele>120</ele>
        <time>2025-11-16T12:36:30Z</time>
        <extensions>
          <gpxtpx:TrackPointExtension xmlns:gpxtpx="http://www.garmin.com/xmlschemas/TrackPointExtension/v1">
            <gpxtpx:hr>125</gpxtpx:hr>
          </gpxtpx:TrackPointExtension>
        </extensions>
      </trkpt>
      <trkpt lat="48.61947" lon="2.00229">
        <ele>120</ele>
        <time>2025-11-16T12:36:32Z</time>
        <extensions>
          <gpxtpx:TrackPointExtension xmlns:gpxtpx="http://www.garmin.com/xmlschemas/TrackPointExtension/v1">
            <gpxtpx:hr>125</gpxtpx:hr>
          </gpxtpx:TrackPointExtension>
        </extensions>
      </trkpt>
      <trkpt lat="48.61944" lon="2.00229">
        <ele>120</ele>
        <time>2025-11-16T12:36:34Z</time>
        <extensions>
          <gpxtpx:TrackPointExtension xmlns:gpxtpx="http://www.garmin.com/xmlschemas/TrackPointExtension/v1">
            <gpxtpx:hr>125</gpxtpx:hr>
          </gpxtpx:TrackPointExtension>
        </extensions>
      </trkpt>
      <trkpt lat="48.61941" lon="2.00229">
        <ele>120.2</ele>
        <time>2025-11-16T12:36:36Z</time>
        <extensions>
          <gpxtpx:TrackPointExtension xmlns:gpxtpx="http://www.garmin.com/xmlschemas/TrackPointExtension/v1">
            <gpxtpx:hr>125</gpxtpx:hr>
          </gpxtpx:TrackPointExtension>
        </extensions>
      </trkpt>
      <trkpt lat="48.61938" lon="2.0023">
        <ele>120</ele>
        <time>2025-11-16T12:36:38Z</time>
        <extensions>
          <gpxtpx:TrackPointExtension xmlns:gpxtpx="http://www.garmin.com/xmlschemas/TrackPointExtension/v1">
            <gpxtpx:hr>125</gpxtpx:hr>
          </gpxtpx:TrackPointExtension>
        </extensions>
      </trkpt>
      <trkpt lat="48.61935" lon="2.0023">
        <ele>119.8</ele>
        <time>2025-11-16T12:36:40Z</time>
        <extensions>
          <gpxtpx:TrackPointExtension xmlns:gpxtpx="http://www.garmin.com/xmlschemas/TrackPointExtension/v1">
            <gpxtpx:hr>125</gpxtpx:hr>
          </gpxtpx:TrackPointExtension>
        </extensions>
      </trkpt>
      <trkpt lat="48.61932" lon="2.0023">
        <ele>119.6</ele>
        <time>2025-11-16T12:36:42Z</time>
        <extensions>
          <gpxtpx:TrackPointExtension xmlns:gpxtpx="http://www.garmin.com/xmlschemas/TrackPointExtension/v1">
            <gpxtpx:hr>125</gpxtpx:hr>
          </gpxtpx:TrackPointExtension>
        </extensions>
      </trkpt>
      <trkpt lat="48.61929" lon="2.0023">
        <ele>119.6</ele>
        <time>2025-11-16T12:36:44Z</time>
        <extensions>
          <gpxtpx:TrackPointExtension xmlns:gpxtpx="http://www.garmin.com/xmlschemas/TrackPointExtension/v1">
            <gpxtpx:hr>125</gpxtpx:hr>
          </gpxtpx:TrackPointExtension>
        </extensions>
      </trkpt>
      <trkpt lat="48.61927" lon="2.0023">
        <ele>119.4</ele>
        <time>2025-11-16T12:36:46Z</time>
        <extensions>
          <gpxtpx:TrackPointExtension xmlns:gpxtpx="http://www.garmin.com/xmlschemas/TrackPointExtension/v1">
            <gpxtpx:hr>125</gpxtpx:hr>
          </gpxtpx:TrackPointExtension>
        </extensions>
      </trkpt>
      <trkpt lat="48.61924" lon="2.0023">
        <ele>119.2</ele>
        <time>2025-11-16T12:36:48Z</time>
        <extensions>
          <gpxtpx:TrackPointExtension xmlns:gpxtpx="http://www.garmin.com/xmlschemas/TrackPointExtension/v1">
            <gpxtpx:hr>125</gpxtpx:hr>
          </gpxtpx:TrackPointExtension>
        </extensions>
      </trkpt>
      <trkpt lat="48.61921" lon="2.0023">
        <ele>118.8</ele>
        <time>2025-11-16T12:36:50Z</time>
        <extensions>
          <gpxtpx:TrackPointExtension xmlns:gpxtpx="http://www.garmin.com/xmlschemas/TrackPointExtension/v1">
            <gpxtpx:hr>125</gpxtpx:hr>
          </gpxtpx:TrackPointExtension>
        </extensions>
      </trkpt>
      <trkpt lat="48.61919" lon="2.0023">
        <ele>118.8</ele>
        <time>2025-11-16T12:36:51Z</time>
        <extensions>
          <gpxtpx:TrackPointExtension xmlns:gpxtpx="http://www.garmin.com/xmlschemas/TrackPointExtension/v1">
            <gpxtpx:hr>125</gpxtpx:hr>
          </gpxtpx:TrackPointExtension>
        </extensions>
      </trkpt>
      <trkpt lat="48.61916" lon="2.0023">
        <ele>118.6</ele>
        <time>2025-11-16T12:36:52Z</time>
        <extensions>
          <gpxtpx:TrackPointExtension xmlns:gpxtpx="http://www.garmin.com/xmlschemas/TrackPointExtension/v1">
            <gpxtpx:hr>125</gpxtpx:hr>
          </gpxtpx:TrackPointExtension>
        </extensions>
      </trkpt>
      <trkpt lat="48.61914" lon="2.0023">
        <ele>118.6</ele>
        <time>2025-11-16T12:36:53Z</time>
        <extensions>
          <gpxtpx:TrackPointExtension xmlns:gpxtpx="http://www.garmin.com/xmlschemas/TrackPointExtension/v1">
            <gpxtpx:hr>125</gpxtpx:hr>
          </gpxtpx:TrackPointExtension>
        </extensions>
      </trkpt>
      <trkpt lat="48.61912" lon="2.0023">
        <ele>118.6</ele>
        <time>2025-11-16T12:36:54Z</time>
        <extensions>
          <gpxtpx:TrackPointExtension xmlns:gpxtpx="http://www.garmin.com/xmlschemas/TrackPointExtension/v1">
            <gpxtpx:hr>125</gpxtpx:hr>
          </gpxtpx:TrackPointExtension>
        </extensions>
      </trkpt>
      <trkpt lat="48.61909" lon="2.0023">
        <ele>118.4</ele>
        <time>2025-11-16T12:36:55Z</time>
        <extensions>
          <gpxtpx:TrackPointExtension xmlns:gpxtpx="http://www.garmin.com/xmlschemas/TrackPointExtension/v1">
            <gpxtpx:hr>125</gpxtpx:hr>
          </gpxtpx:TrackPointExtension>
        </extensions>
      </trkpt>
      <trkpt lat="48.61907" lon="2.00231">
        <ele>118.4</ele>
        <time>2025-11-16T12:36:56Z</time>
        <extensions>
          <gpxtpx:TrackPointExtension xmlns:gpxtpx="http://www.garmin.com/xmlschemas/TrackPointExtension/v1">
            <gpxtpx:hr>125</gpxtpx:hr>
          </gpxtpx:TrackPointExtension>
        </extensions>
      </trkpt>
      <trkpt lat="48.61905" lon="2.00231">
        <ele>118.4</ele>
        <time>2025-11-16T12:36:57Z</time>
        <extensions>
          <gpxtpx:TrackPointExtension xmlns:gpxtpx="http://www.garmin.com/xmlschemas/TrackPointExtension/v1">
            <gpxtpx:hr>126</gpxtpx:hr>
          </gpxtpx:TrackPointExtension>
        </extensions>
      </trkpt>
      <trkpt lat="48.61903" lon="2.00232">
        <ele>118.4</ele>
        <time>2025-11-16T12:36:58Z</time>
        <extensions>
          <gpxtpx:TrackPointExtension xmlns:gpxtpx="http://www.garmin.com/xmlschemas/TrackPointExtension/v1">
            <gpxtpx:hr>126</gpxtpx:hr>
          </gpxtpx:TrackPointExtension>
        </extensions>
      </trkpt>
      <trkpt lat="48.619" lon="2.00233">
        <ele>118.2</ele>
        <time>2025-11-16T12:37:00Z</time>
        <extensions>
          <gpxtpx:TrackPointExtension xmlns:gpxtpx="http://www.garmin.com/xmlschemas/TrackPointExtension/v1">
            <gpxtpx:hr>126</gpxtpx:hr>
          </gpxtpx:TrackPointExtension>
        </extensions>
      </trkpt>
      <trkpt lat="48.61897" lon="2.00234">
        <ele>118</ele>
        <time>2025-11-16T12:37:02Z</time>
        <extensions>
          <gpxtpx:TrackPointExtension xmlns:gpxtpx="http://www.garmin.com/xmlschemas/TrackPointExtension/v1">
            <gpxtpx:hr>125</gpxtpx:hr>
          </gpxtpx:TrackPointExtension>
        </extensions>
      </trkpt>
      <trkpt lat="48.61894" lon="2.00235">
        <ele>118</ele>
        <time>2025-11-16T12:37:04Z</time>
        <extensions>
          <gpxtpx:TrackPointExtension xmlns:gpxtpx="http://www.garmin.com/xmlschemas/TrackPointExtension/v1">
            <gpxtpx:hr>124</gpxtpx:hr>
          </gpxtpx:TrackPointExtension>
        </extensions>
      </trkpt>
      <trkpt lat="48.61891" lon="2.00235">
        <ele>118.2</ele>
        <time>2025-11-16T12:37:06Z</time>
        <extensions>
          <gpxtpx:TrackPointExtension xmlns:gpxtpx="http://www.garmin.com/xmlschemas/TrackPointExtension/v1">
            <gpxtpx:hr>122</gpxtpx:hr>
          </gpxtpx:TrackPointExtension>
        </extensions>
      </trkpt>
      <trkpt lat="48.61888" lon="2.00236">
        <ele>118.2</ele>
        <time>2025-11-16T12:37:08Z</time>
        <extensions>
          <gpxtpx:TrackPointExtension xmlns:gpxtpx="http://www.garmin.com/xmlschemas/TrackPointExtension/v1">
            <gpxtpx:hr>122</gpxtpx:hr>
          </gpxtpx:TrackPointExtension>
        </extensions>
      </trkpt>
      <trkpt lat="48.61885" lon="2.00237">
        <ele>118.2</ele>
        <time>2025-11-16T12:37:10Z</time>
        <extensions>
          <gpxtpx:TrackPointExtension xmlns:gpxtpx="http://www.garmin.com/xmlschemas/TrackPointExtension/v1">
            <gpxtpx:hr>122</gpxtpx:hr>
          </gpxtpx:TrackPointExtension>
        </extensions>
      </trkpt>
      <trkpt lat="48.61882" lon="2.00238">
        <ele>118.2</ele>
        <time>2025-11-16T12:37:12Z</time>
        <extensions>
          <gpxtpx:TrackPointExtension xmlns:gpxtpx="http://www.garmin.com/xmlschemas/TrackPointExtension/v1">
            <gpxtpx:hr>122</gpxtpx:hr>
          </gpxtpx:TrackPointExtension>
        </extensions>
      </trkpt>
      <trkpt lat="48.61879" lon="2.00238">
        <ele>118.4</ele>
        <time>2025-11-16T12:37:14Z</time>
        <extensions>
          <gpxtpx:TrackPointExtension xmlns:gpxtpx="http://www.garmin.com/xmlschemas/TrackPointExtension/v1">
            <gpxtpx:hr>122</gpxtpx:hr>
          </gpxtpx:TrackPointExtension>
        </extensions>
      </trkpt>
      <trkpt lat="48.61876" lon="2.00238">
        <ele>118.6</ele>
        <time>2025-11-16T12:37:16Z</time>
        <extensions>
          <gpxtpx:TrackPointExtension xmlns:gpxtpx="http://www.garmin.com/xmlschemas/TrackPointExtension/v1">
            <gpxtpx:hr>122</gpxtpx:hr>
          </gpxtpx:TrackPointExtension>
        </extensions>
      </trkpt>
      <trkpt lat="48.61874" lon="2.00238">
        <ele>118.6</ele>
        <time>2025-11-16T12:37:17Z</time>
        <extensions>
          <gpxtpx:TrackPointExtension xmlns:gpxtpx="http://www.garmin.com/xmlschemas/TrackPointExtension/v1">
            <gpxtpx:hr>122</gpxtpx:hr>
          </gpxtpx:TrackPointExtension>
        </extensions>
      </trkpt>
      <trkpt lat="48.61872" lon="2.00238">
        <ele>118.6</ele>
        <time>2025-11-16T12:37:18Z</time>
        <extensions>
          <gpxtpx:TrackPointExtension xmlns:gpxtpx="http://www.garmin.com/xmlschemas/TrackPointExtension/v1">
            <gpxtpx:hr>122</gpxtpx:hr>
          </gpxtpx:TrackPointExtension>
        </extensions>
      </trkpt>
      <trkpt lat="48.6187" lon="2.00239">
        <ele>118.6</ele>
        <time>2025-11-16T12:37:19Z</time>
        <extensions>
          <gpxtpx:TrackPointExtension xmlns:gpxtpx="http://www.garmin.com/xmlschemas/TrackPointExtension/v1">
            <gpxtpx:hr>122</gpxtpx:hr>
          </gpxtpx:TrackPointExtension>
        </extensions>
      </trkpt>
      <trkpt lat="48.61868" lon="2.00239">
        <ele>118.8</ele>
        <time>2025-11-16T12:37:20Z</time>
        <extensions>
          <gpxtpx:TrackPointExtension xmlns:gpxtpx="http://www.garmin.com/xmlschemas/TrackPointExtension/v1">
            <gpxtpx:hr>122</gpxtpx:hr>
          </gpxtpx:TrackPointExtension>
        </extensions>
      </trkpt>
      <trkpt lat="48.61866" lon="2.00239">
        <ele>118.8</ele>
        <time>2025-11-16T12:37:21Z</time>
        <extensions>
          <gpxtpx:TrackPointExtension xmlns:gpxtpx="http://www.garmin.com/xmlschemas/TrackPointExtension/v1">
            <gpxtpx:hr>122</gpxtpx:hr>
          </gpxtpx:TrackPointExtension>
        </extensions>
      </trkpt>
      <trkpt lat="48.61864" lon="2.00239">
        <ele>118.8</ele>
        <time>2025-11-16T12:37:22Z</time>
        <extensions>
          <gpxtpx:TrackPointExtension xmlns:gpxtpx="http://www.garmin.com/xmlschemas/TrackPointExtension/v1">
            <gpxtpx:hr>122</gpxtpx:hr>
          </gpxtpx:TrackPointExtension>
        </extensions>
      </trkpt>
      <trkpt lat="48.61862" lon="2.00239">
        <ele>118.8</ele>
        <time>2025-11-16T12:37:23Z</time>
        <extensions>
          <gpxtpx:TrackPointExtension xmlns:gpxtpx="http://www.garmin.com/xmlschemas/TrackPointExtension/v1">
            <gpxtpx:hr>122</gpxtpx:hr>
          </gpxtpx:TrackPointExtension>
        </extensions>
      </trkpt>
      <trkpt lat="48.6186" lon="2.00239">
        <ele>118.8</ele>
        <time>2025-11-16T12:37:24Z</time>
        <extensions>
          <gpxtpx:TrackPointExtension xmlns:gpxtpx="http://www.garmin.com/xmlschemas/TrackPointExtension/v1">
            <gpxtpx:hr>122</gpxtpx:hr>
          </gpxtpx:TrackPointExtension>
        </extensions>
      </trkpt>
      <trkpt lat="48.61857" lon="2.00239">
        <ele>119</ele>
        <time>2025-11-16T12:37:25Z</time>
        <extensions>
          <gpxtpx:TrackPointExtension xmlns:gpxtpx="http://www.garmin.com/xmlschemas/TrackPointExtension/v1">
            <gpxtpx:hr>122</gpxtpx:hr>
          </gpxtpx:TrackPointExtension>
        </extensions>
      </trkpt>
      <trkpt lat="48.61855" lon="2.00239">
        <ele>119</ele>
        <time>2025-11-16T12:37:26Z</time>
        <extensions>
          <gpxtpx:TrackPointExtension xmlns:gpxtpx="http://www.garmin.com/xmlschemas/TrackPointExtension/v1">
            <gpxtpx:hr>122</gpxtpx:hr>
          </gpxtpx:TrackPointExtension>
        </extensions>
      </trkpt>
      <trkpt lat="48.61853" lon="2.00239">
        <ele>119</ele>
        <time>2025-11-16T12:37:27Z</time>
        <extensions>
          <gpxtpx:TrackPointExtension xmlns:gpxtpx="http://www.garmin.com/xmlschemas/TrackPointExtension/v1">
            <gpxtpx:hr>123</gpxtpx:hr>
          </gpxtpx:TrackPointExtension>
        </extensions>
      </trkpt>
      <trkpt lat="48.6185" lon="2.00239">
        <ele>119.2</ele>
        <time>2025-11-16T12:37:28Z</time>
        <extensions>
          <gpxtpx:TrackPointExtension xmlns:gpxtpx="http://www.garmin.com/xmlschemas/TrackPointExtension/v1">
            <gpxtpx:hr>123</gpxtpx:hr>
          </gpxtpx:TrackPointExtension>
        </extensions>
      </trkpt>
      <trkpt lat="48.61848" lon="2.00239">
        <ele>119.2</ele>
        <time>2025-11-16T12:37:29Z</time>
        <extensions>
          <gpxtpx:TrackPointExtension xmlns:gpxtpx="http://www.garmin.com/xmlschemas/TrackPointExtension/v1">
            <gpxtpx:hr>123</gpxtpx:hr>
          </gpxtpx:TrackPointExtension>
        </extensions>
      </trkpt>
      <trkpt lat="48.61846" lon="2.00239">
        <ele>119</ele>
        <time>2025-11-16T12:37:30Z</time>
        <extensions>
          <gpxtpx:TrackPointExtension xmlns:gpxtpx="http://www.garmin.com/xmlschemas/TrackPointExtension/v1">
            <gpxtpx:hr>123</gpxtpx:hr>
          </gpxtpx:TrackPointExtension>
        </extensions>
      </trkpt>
      <trkpt lat="48.61844" lon="2.00239">
        <ele>119</ele>
        <time>2025-11-16T12:37:31Z</time>
        <extensions>
          <gpxtpx:TrackPointExtension xmlns:gpxtpx="http://www.garmin.com/xmlschemas/TrackPointExtension/v1">
            <gpxtpx:hr>123</gpxtpx:hr>
          </gpxtpx:TrackPointExtension>
        </extensions>
      </trkpt>
      <trkpt lat="48.61841" lon="2.00239">
        <ele>119</ele>
        <time>2025-11-16T12:37:33Z</time>
        <extensions>
          <gpxtpx:TrackPointExtension xmlns:gpxtpx="http://www.garmin.com/xmlschemas/TrackPointExtension/v1">
            <gpxtpx:hr>123</gpxtpx:hr>
          </gpxtpx:TrackPointExtension>
        </extensions>
      </trkpt>
      <trkpt lat="48.61838" lon="2.00239">
        <ele>119.4</ele>
        <time>2025-11-16T12:37:35Z</time>
        <extensions>
          <gpxtpx:TrackPointExtension xmlns:gpxtpx="http://www.garmin.com/xmlschemas/TrackPointExtension/v1">
            <gpxtpx:hr>123</gpxtpx:hr>
          </gpxtpx:TrackPointExtension>
        </extensions>
      </trkpt>
      <trkpt lat="48.61836" lon="2.0024">
        <ele>119.4</ele>
        <time>2025-11-16T12:37:36Z</time>
        <extensions>
          <gpxtpx:TrackPointExtension xmlns:gpxtpx="http://www.garmin.com/xmlschemas/TrackPointExtension/v1">
            <gpxtpx:hr>123</gpxtpx:hr>
          </gpxtpx:TrackPointExtension>
        </extensions>
      </trkpt>
      <trkpt lat="48.61834" lon="2.0024">
        <ele>119.4</ele>
        <time>2025-11-16T12:37:37Z</time>
        <extensions>
          <gpxtpx:TrackPointExtension xmlns:gpxtpx="http://www.garmin.com/xmlschemas/TrackPointExtension/v1">
            <gpxtpx:hr>123</gpxtpx:hr>
          </gpxtpx:TrackPointExtension>
        </extensions>
      </trkpt>
      <trkpt lat="48.61831" lon="2.00241">
        <ele>119.4</ele>
        <time>2025-11-16T12:37:39Z</time>
        <extensions>
          <gpxtpx:TrackPointExtension xmlns:gpxtpx="http://www.garmin.com/xmlschemas/TrackPointExtension/v1">
            <gpxtpx:hr>123</gpxtpx:hr>
          </gpxtpx:TrackPointExtension>
        </extensions>
      </trkpt>
      <trkpt lat="48.61829" lon="2.00241">
        <ele>119.4</ele>
        <time>2025-11-16T12:37:40Z</time>
        <extensions>
          <gpxtpx:TrackPointExtension xmlns:gpxtpx="http://www.garmin.com/xmlschemas/TrackPointExtension/v1">
            <gpxtpx:hr>123</gpxtpx:hr>
          </gpxtpx:TrackPointExtension>
        </extensions>
      </trkpt>
      <trkpt lat="48.61827" lon="2.00241">
        <ele>119.4</ele>
        <time>2025-11-16T12:37:41Z</time>
        <extensions>
          <gpxtpx:TrackPointExtension xmlns:gpxtpx="http://www.garmin.com/xmlschemas/TrackPointExtension/v1">
            <gpxtpx:hr>123</gpxtpx:hr>
          </gpxtpx:TrackPointExtension>
        </extensions>
      </trkpt>
      <trkpt lat="48.61824" lon="2.00241">
        <ele>119.4</ele>
        <time>2025-11-16T12:37:43Z</time>
        <extensions>
          <gpxtpx:TrackPointExtension xmlns:gpxtpx="http://www.garmin.com/xmlschemas/TrackPointExtension/v1">
            <gpxtpx:hr>123</gpxtpx:hr>
          </gpxtpx:TrackPointExtension>
        </extensions>
      </trkpt>
      <trkpt lat="48.6182" lon="2.0024">
        <ele>119.4</ele>
        <time>2025-11-16T12:37:45Z</time>
        <extensions>
          <gpxtpx:TrackPointExtension xmlns:gpxtpx="http://www.garmin.com/xmlschemas/TrackPointExtension/v1">
            <gpxtpx:hr>123</gpxtpx:hr>
          </gpxtpx:TrackPointExtension>
        </extensions>
      </trkpt>
      <trkpt lat="48.61818" lon="2.00239">
        <ele>119.6</ele>
        <time>2025-11-16T12:37:47Z</time>
        <extensions>
          <gpxtpx:TrackPointExtension xmlns:gpxtpx="http://www.garmin.com/xmlschemas/TrackPointExtension/v1">
            <gpxtpx:hr>123</gpxtpx:hr>
          </gpxtpx:TrackPointExtension>
        </extensions>
      </trkpt>
      <trkpt lat="48.61815" lon="2.00237">
        <ele>119.6</ele>
        <time>2025-11-16T12:37:49Z</time>
        <extensions>
          <gpxtpx:TrackPointExtension xmlns:gpxtpx="http://www.garmin.com/xmlschemas/TrackPointExtension/v1">
            <gpxtpx:hr>124</gpxtpx:hr>
          </gpxtpx:TrackPointExtension>
        </extensions>
      </trkpt>
      <trkpt lat="48.61812" lon="2.00236">
        <ele>119.8</ele>
        <time>2025-11-16T12:37:51Z</time>
        <extensions>
          <gpxtpx:TrackPointExtension xmlns:gpxtpx="http://www.garmin.com/xmlschemas/TrackPointExtension/v1">
            <gpxtpx:hr>124</gpxtpx:hr>
          </gpxtpx:TrackPointExtension>
        </extensions>
      </trkpt>
      <trkpt lat="48.6181" lon="2.00234">
        <ele>119.8</ele>
        <time>2025-11-16T12:37:53Z</time>
        <extensions>
          <gpxtpx:TrackPointExtension xmlns:gpxtpx="http://www.garmin.com/xmlschemas/TrackPointExtension/v1">
            <gpxtpx:hr>124</gpxtpx:hr>
          </gpxtpx:TrackPointExtension>
        </extensions>
      </trkpt>
      <trkpt lat="48.61808" lon="2.00232">
        <ele>120</ele>
        <time>2025-11-16T12:37:55Z</time>
        <extensions>
          <gpxtpx:TrackPointExtension xmlns:gpxtpx="http://www.garmin.com/xmlschemas/TrackPointExtension/v1">
            <gpxtpx:hr>123</gpxtpx:hr>
          </gpxtpx:TrackPointExtension>
        </extensions>
      </trkpt>
      <trkpt lat="48.61806" lon="2.0023">
        <ele>120.2</ele>
        <time>2025-11-16T12:37:57Z</time>
        <extensions>
          <gpxtpx:TrackPointExtension xmlns:gpxtpx="http://www.garmin.com/xmlschemas/TrackPointExtension/v1">
            <gpxtpx:hr>122</gpxtpx:hr>
          </gpxtpx:TrackPointExtension>
        </extensions>
      </trkpt>
      <trkpt lat="48.61804" lon="2.00227">
        <ele>120.4</ele>
        <time>2025-11-16T12:37:59Z</time>
        <extensions>
          <gpxtpx:TrackPointExtension xmlns:gpxtpx="http://www.garmin.com/xmlschemas/TrackPointExtension/v1">
            <gpxtpx:hr>120</gpxtpx:hr>
          </gpxtpx:TrackPointExtension>
        </extensions>
      </trkpt>
      <trkpt lat="48.61802" lon="2.00225">
        <ele>120.4</ele>
        <time>2025-11-16T12:38:01Z</time>
        <extensions>
          <gpxtpx:TrackPointExtension xmlns:gpxtpx="http://www.garmin.com/xmlschemas/TrackPointExtension/v1">
            <gpxtpx:hr>120</gpxtpx:hr>
          </gpxtpx:TrackPointExtension>
        </extensions>
      </trkpt>
      <trkpt lat="48.61799" lon="2.00222">
        <ele>120.6</ele>
        <time>2025-11-16T12:38:03Z</time>
        <extensions>
          <gpxtpx:TrackPointExtension xmlns:gpxtpx="http://www.garmin.com/xmlschemas/TrackPointExtension/v1">
            <gpxtpx:hr>120</gpxtpx:hr>
          </gpxtpx:TrackPointExtension>
        </extensions>
      </trkpt>
      <trkpt lat="48.61796" lon="2.0022">
        <ele>120.6</ele>
        <time>2025-11-16T12:38:05Z</time>
        <extensions>
          <gpxtpx:TrackPointExtension xmlns:gpxtpx="http://www.garmin.com/xmlschemas/TrackPointExtension/v1">
            <gpxtpx:hr>120</gpxtpx:hr>
          </gpxtpx:TrackPointExtension>
        </extensions>
      </trkpt>
      <trkpt lat="48.61794" lon="2.00217">
        <ele>120.6</ele>
        <time>2025-11-16T12:38:07Z</time>
        <extensions>
          <gpxtpx:TrackPointExtension xmlns:gpxtpx="http://www.garmin.com/xmlschemas/TrackPointExtension/v1">
            <gpxtpx:hr>120</gpxtpx:hr>
          </gpxtpx:TrackPointExtension>
        </extensions>
      </trkpt>
      <trkpt lat="48.61793" lon="2.00216">
        <ele>120.6</ele>
        <time>2025-11-16T12:38:08Z</time>
        <extensions>
          <gpxtpx:TrackPointExtension xmlns:gpxtpx="http://www.garmin.com/xmlschemas/TrackPointExtension/v1">
            <gpxtpx:hr>120</gpxtpx:hr>
          </gpxtpx:TrackPointExtension>
        </extensions>
      </trkpt>
      <trkpt lat="48.6179" lon="2.00213">
        <ele>120.6</ele>
        <time>2025-11-16T12:38:10Z</time>
        <extensions>
          <gpxtpx:TrackPointExtension xmlns:gpxtpx="http://www.garmin.com/xmlschemas/TrackPointExtension/v1">
            <gpxtpx:hr>120</gpxtpx:hr>
          </gpxtpx:TrackPointExtension>
        </extensions>
      </trkpt>
      <trkpt lat="48.61788" lon="2.00211">
        <ele>120.6</ele>
        <time>2025-11-16T12:38:11Z</time>
        <extensions>
          <gpxtpx:TrackPointExtension xmlns:gpxtpx="http://www.garmin.com/xmlschemas/TrackPointExtension/v1">
            <gpxtpx:hr>120</gpxtpx:hr>
          </gpxtpx:TrackPointExtension>
        </extensions>
      </trkpt>
      <trkpt lat="48.61786" lon="2.0021">
        <ele>120.6</ele>
        <time>2025-11-16T12:38:12Z</time>
        <extensions>
          <gpxtpx:TrackPointExtension xmlns:gpxtpx="http://www.garmin.com/xmlschemas/TrackPointExtension/v1">
            <gpxtpx:hr>120</gpxtpx:hr>
          </gpxtpx:TrackPointExtension>
        </extensions>
      </trkpt>
      <trkpt lat="48.61784" lon="2.00208">
        <ele>120.6</ele>
        <time>2025-11-16T12:38:14Z</time>
        <extensions>
          <gpxtpx:TrackPointExtension xmlns:gpxtpx="http://www.garmin.com/xmlschemas/TrackPointExtension/v1">
            <gpxtpx:hr>121</gpxtpx:hr>
          </gpxtpx:TrackPointExtension>
        </extensions>
      </trkpt>
      <trkpt lat="48.61782" lon="2.00206">
        <ele>120.8</ele>
        <time>2025-11-16T12:38:16Z</time>
        <extensions>
          <gpxtpx:TrackPointExtension xmlns:gpxtpx="http://www.garmin.com/xmlschemas/TrackPointExtension/v1">
            <gpxtpx:hr>121</gpxtpx:hr>
          </gpxtpx:TrackPointExtension>
        </extensions>
      </trkpt>
      <trkpt lat="48.6178" lon="2.00204">
        <ele>120.8</ele>
        <time>2025-11-16T12:38:18Z</time>
        <extensions>
          <gpxtpx:TrackPointExtension xmlns:gpxtpx="http://www.garmin.com/xmlschemas/TrackPointExtension/v1">
            <gpxtpx:hr>121</gpxtpx:hr>
          </gpxtpx:TrackPointExtension>
        </extensions>
      </trkpt>
      <trkpt lat="48.61778" lon="2.00202">
        <ele>121</ele>
        <time>2025-11-16T12:38:20Z</time>
        <extensions>
          <gpxtpx:TrackPointExtension xmlns:gpxtpx="http://www.garmin.com/xmlschemas/TrackPointExtension/v1">
            <gpxtpx:hr>121</gpxtpx:hr>
          </gpxtpx:TrackPointExtension>
        </extensions>
      </trkpt>
      <trkpt lat="48.61777" lon="2.00201">
        <ele>121</ele>
        <time>2025-11-16T12:38:21Z</time>
        <extensions>
          <gpxtpx:TrackPointExtension xmlns:gpxtpx="http://www.garmin.com/xmlschemas/TrackPointExtension/v1">
            <gpxtpx:hr>121</gpxtpx:hr>
          </gpxtpx:TrackPointExtension>
        </extensions>
      </trkpt>
      <trkpt lat="48.61773" lon="2.00197">
        <ele>121</ele>
        <time>2025-11-16T12:38:23Z</time>
        <extensions>
          <gpxtpx:TrackPointExtension xmlns:gpxtpx="http://www.garmin.com/xmlschemas/TrackPointExtension/v1">
            <gpxtpx:hr>121</gpxtpx:hr>
          </gpxtpx:TrackPointExtension>
        </extensions>
      </trkpt>
      <trkpt lat="48.61771" lon="2.00195">
        <ele>121</ele>
        <time>2025-11-16T12:38:24Z</time>
        <extensions>
          <gpxtpx:TrackPointExtension xmlns:gpxtpx="http://www.garmin.com/xmlschemas/TrackPointExtension/v1">
            <gpxtpx:hr>121</gpxtpx:hr>
          </gpxtpx:TrackPointExtension>
        </extensions>
      </trkpt>
      <trkpt lat="48.61768" lon="2.00193">
        <ele>121</ele>
        <time>2025-11-16T12:38:25Z</time>
        <extensions>
          <gpxtpx:TrackPointExtension xmlns:gpxtpx="http://www.garmin.com/xmlschemas/TrackPointExtension/v1">
            <gpxtpx:hr>121</gpxtpx:hr>
          </gpxtpx:TrackPointExtension>
        </extensions>
      </trkpt>
      <trkpt lat="48.61765" lon="2.00191">
        <ele>121</ele>
        <time>2025-11-16T12:38:26Z</time>
        <extensions>
          <gpxtpx:TrackPointExtension xmlns:gpxtpx="http://www.garmin.com/xmlschemas/TrackPointExtension/v1">
            <gpxtpx:hr>121</gpxtpx:hr>
          </gpxtpx:TrackPointExtension>
        </extensions>
      </trkpt>
      <trkpt lat="48.61762" lon="2.00189">
        <ele>121</ele>
        <time>2025-11-16T12:38:27Z</time>
        <extensions>
          <gpxtpx:TrackPointExtension xmlns:gpxtpx="http://www.garmin.com/xmlschemas/TrackPointExtension/v1">
            <gpxtpx:hr>121</gpxtpx:hr>
          </gpxtpx:TrackPointExtension>
        </extensions>
      </trkpt>
      <trkpt lat="48.61759" lon="2.00188">
        <ele>121.2</ele>
        <time>2025-11-16T12:38:28Z</time>
        <extensions>
          <gpxtpx:TrackPointExtension xmlns:gpxtpx="http://www.garmin.com/xmlschemas/TrackPointExtension/v1">
            <gpxtpx:hr>121</gpxtpx:hr>
          </gpxtpx:TrackPointExtension>
        </extensions>
      </trkpt>
      <trkpt lat="48.61756" lon="2.00187">
        <ele>121.2</ele>
        <time>2025-11-16T12:38:29Z</time>
        <extensions>
          <gpxtpx:TrackPointExtension xmlns:gpxtpx="http://www.garmin.com/xmlschemas/TrackPointExtension/v1">
            <gpxtpx:hr>121</gpxtpx:hr>
          </gpxtpx:TrackPointExtension>
        </extensions>
      </trkpt>
      <trkpt lat="48.61754" lon="2.00186">
        <ele>121.2</ele>
        <time>2025-11-16T12:38:30Z</time>
        <extensions>
          <gpxtpx:TrackPointExtension xmlns:gpxtpx="http://www.garmin.com/xmlschemas/TrackPointExtension/v1">
            <gpxtpx:hr>121</gpxtpx:hr>
          </gpxtpx:TrackPointExtension>
        </extensions>
      </trkpt>
      <trkpt lat="48.6175" lon="2.00185">
        <ele>121.4</ele>
        <time>2025-11-16T12:38:31Z</time>
        <extensions>
          <gpxtpx:TrackPointExtension xmlns:gpxtpx="http://www.garmin.com/xmlschemas/TrackPointExtension/v1">
            <gpxtpx:hr>121</gpxtpx:hr>
          </gpxtpx:TrackPointExtension>
        </extensions>
      </trkpt>
      <trkpt lat="48.61747" lon="2.00184">
        <ele>121.4</ele>
        <time>2025-11-16T12:38:32Z</time>
        <extensions>
          <gpxtpx:TrackPointExtension xmlns:gpxtpx="http://www.garmin.com/xmlschemas/TrackPointExtension/v1">
            <gpxtpx:hr>121</gpxtpx:hr>
          </gpxtpx:TrackPointExtension>
        </extensions>
      </trkpt>
      <trkpt lat="48.61744" lon="2.00182">
        <ele>121.6</ele>
        <time>2025-11-16T12:38:33Z</time>
        <extensions>
          <gpxtpx:TrackPointExtension xmlns:gpxtpx="http://www.garmin.com/xmlschemas/TrackPointExtension/v1">
            <gpxtpx:hr>121</gpxtpx:hr>
          </gpxtpx:TrackPointExtension>
        </extensions>
      </trkpt>
      <trkpt lat="48.6174" lon="2.00179">
        <ele>121.8</ele>
        <time>2025-11-16T12:38:34Z</time>
        <extensions>
          <gpxtpx:TrackPointExtension xmlns:gpxtpx="http://www.garmin.com/xmlschemas/TrackPointExtension/v1">
            <gpxtpx:hr>121</gpxtpx:hr>
          </gpxtpx:TrackPointExtension>
        </extensions>
      </trkpt>
      <trkpt lat="48.61738" lon="2.00175">
        <ele>121.8</ele>
        <time>2025-11-16T12:38:35Z</time>
        <extensions>
          <gpxtpx:TrackPointExtension xmlns:gpxtpx="http://www.garmin.com/xmlschemas/TrackPointExtension/v1">
            <gpxtpx:hr>121</gpxtpx:hr>
          </gpxtpx:TrackPointExtension>
        </extensions>
      </trkpt>
      <trkpt lat="48.61735" lon="2.00172">
        <ele>122</ele>
        <time>2025-11-16T12:38:36Z</time>
        <extensions>
          <gpxtpx:TrackPointExtension xmlns:gpxtpx="http://www.garmin.com/xmlschemas/TrackPointExtension/v1">
            <gpxtpx:hr>121</gpxtpx:hr>
          </gpxtpx:TrackPointExtension>
        </extensions>
      </trkpt>
      <trkpt lat="48.61733" lon="2.00169">
        <ele>122</ele>
        <time>2025-11-16T12:38:37Z</time>
        <extensions>
          <gpxtpx:TrackPointExtension xmlns:gpxtpx="http://www.garmin.com/xmlschemas/TrackPointExtension/v1">
            <gpxtpx:hr>121</gpxtpx:hr>
          </gpxtpx:TrackPointExtension>
        </extensions>
      </trkpt>
      <trkpt lat="48.61732" lon="2.00166">
        <ele>122.2</ele>
        <time>2025-11-16T12:38:38Z</time>
        <extensions>
          <gpxtpx:TrackPointExtension xmlns:gpxtpx="http://www.garmin.com/xmlschemas/TrackPointExtension/v1">
            <gpxtpx:hr>121</gpxtpx:hr>
          </gpxtpx:TrackPointExtension>
        </extensions>
      </trkpt>
      <trkpt lat="48.61731" lon="2.00164">
        <ele>122.2</ele>
        <time>2025-11-16T12:38:39Z</time>
        <extensions>
          <gpxtpx:TrackPointExtension xmlns:gpxtpx="http://www.garmin.com/xmlschemas/TrackPointExtension/v1">
            <gpxtpx:hr>121</gpxtpx:hr>
          </gpxtpx:TrackPointExtension>
        </extensions>
      </trkpt>
      <trkpt lat="48.6173" lon="2.00161">
        <ele>122.2</ele>
        <time>2025-11-16T12:38:41Z</time>
        <extensions>
          <gpxtpx:TrackPointExtension xmlns:gpxtpx="http://www.garmin.com/xmlschemas/TrackPointExtension/v1">
            <gpxtpx:hr>121</gpxtpx:hr>
          </gpxtpx:TrackPointExtension>
        </extensions>
      </trkpt>
      <trkpt lat="48.6173" lon="2.00158">
        <ele>122.2</ele>
        <time>2025-11-16T12:38:44Z</time>
        <extensions>
          <gpxtpx:TrackPointExtension xmlns:gpxtpx="http://www.garmin.com/xmlschemas/TrackPointExtension/v1">
            <gpxtpx:hr>121</gpxtpx:hr>
          </gpxtpx:TrackPointExtension>
        </extensions>
      </trkpt>
      <trkpt lat="48.61731" lon="2.00154">
        <ele>122.4</ele>
        <time>2025-11-16T12:38:46Z</time>
        <extensions>
          <gpxtpx:TrackPointExtension xmlns:gpxtpx="http://www.garmin.com/xmlschemas/TrackPointExtension/v1">
            <gpxtpx:hr>121</gpxtpx:hr>
          </gpxtpx:TrackPointExtension>
        </extensions>
      </trkpt>
      <trkpt lat="48.61732" lon="2.0015">
        <ele>122.4</ele>
        <time>2025-11-16T12:38:48Z</time>
        <extensions>
          <gpxtpx:TrackPointExtension xmlns:gpxtpx="http://www.garmin.com/xmlschemas/TrackPointExtension/v1">
            <gpxtpx:hr>121</gpxtpx:hr>
          </gpxtpx:TrackPointExtension>
        </extensions>
      </trkpt>
      <trkpt lat="48.61732" lon="2.00145">
        <ele>122.4</ele>
        <time>2025-11-16T12:38:50Z</time>
        <extensions>
          <gpxtpx:TrackPointExtension xmlns:gpxtpx="http://www.garmin.com/xmlschemas/TrackPointExtension/v1">
            <gpxtpx:hr>122</gpxtpx:hr>
          </gpxtpx:TrackPointExtension>
        </extensions>
      </trkpt>
      <trkpt lat="48.61731" lon="2.0014">
        <ele>122.6</ele>
        <time>2025-11-16T12:38:52Z</time>
        <extensions>
          <gpxtpx:TrackPointExtension xmlns:gpxtpx="http://www.garmin.com/xmlschemas/TrackPointExtension/v1">
            <gpxtpx:hr>122</gpxtpx:hr>
          </gpxtpx:TrackPointExtension>
        </extensions>
      </trkpt>
      <trkpt lat="48.6173" lon="2.00136">
        <ele>122.6</ele>
        <time>2025-11-16T12:38:54Z</time>
        <extensions>
          <gpxtpx:TrackPointExtension xmlns:gpxtpx="http://www.garmin.com/xmlschemas/TrackPointExtension/v1">
            <gpxtpx:hr>123</gpxtpx:hr>
          </gpxtpx:TrackPointExtension>
        </extensions>
      </trkpt>
      <trkpt lat="48.61729" lon="2.00132">
        <ele>122.8</ele>
        <time>2025-11-16T12:38:56Z</time>
        <extensions>
          <gpxtpx:TrackPointExtension xmlns:gpxtpx="http://www.garmin.com/xmlschemas/TrackPointExtension/v1">
            <gpxtpx:hr>123</gpxtpx:hr>
          </gpxtpx:TrackPointExtension>
        </extensions>
      </trkpt>
      <trkpt lat="48.61728" lon="2.00127">
        <ele>122.8</ele>
        <time>2025-11-16T12:38:58Z</time>
        <extensions>
          <gpxtpx:TrackPointExtension xmlns:gpxtpx="http://www.garmin.com/xmlschemas/TrackPointExtension/v1">
            <gpxtpx:hr>121</gpxtpx:hr>
          </gpxtpx:TrackPointExtension>
        </extensions>
      </trkpt>
      <trkpt lat="48.61727" lon="2.00123">
        <ele>123</ele>
        <time>2025-11-16T12:39:00Z</time>
        <extensions>
          <gpxtpx:TrackPointExtension xmlns:gpxtpx="http://www.garmin.com/xmlschemas/TrackPointExtension/v1">
            <gpxtpx:hr>120</gpxtpx:hr>
          </gpxtpx:TrackPointExtension>
        </extensions>
      </trkpt>
      <trkpt lat="48.61726" lon="2.00119">
        <ele>123</ele>
        <time>2025-11-16T12:39:02Z</time>
        <extensions>
          <gpxtpx:TrackPointExtension xmlns:gpxtpx="http://www.garmin.com/xmlschemas/TrackPointExtension/v1">
            <gpxtpx:hr>119</gpxtpx:hr>
          </gpxtpx:TrackPointExtension>
        </extensions>
      </trkpt>
      <trkpt lat="48.61725" lon="2.00114">
        <ele>123.2</ele>
        <time>2025-11-16T12:39:04Z</time>
        <extensions>
          <gpxtpx:TrackPointExtension xmlns:gpxtpx="http://www.garmin.com/xmlschemas/TrackPointExtension/v1">
            <gpxtpx:hr>119</gpxtpx:hr>
          </gpxtpx:TrackPointExtension>
        </extensions>
      </trkpt>
      <trkpt lat="48.61724" lon="2.00111">
        <ele>123.2</ele>
        <time>2025-11-16T12:39:06Z</time>
        <extensions>
          <gpxtpx:TrackPointExtension xmlns:gpxtpx="http://www.garmin.com/xmlschemas/TrackPointExtension/v1">
            <gpxtpx:hr>118</gpxtpx:hr>
          </gpxtpx:TrackPointExtension>
        </extensions>
      </trkpt>
      <trkpt lat="48.61724" lon="2.00107">
        <ele>123.4</ele>
        <time>2025-11-16T12:39:08Z</time>
        <extensions>
          <gpxtpx:TrackPointExtension xmlns:gpxtpx="http://www.garmin.com/xmlschemas/TrackPointExtension/v1">
            <gpxtpx:hr>118</gpxtpx:hr>
          </gpxtpx:TrackPointExtension>
        </extensions>
      </trkpt>
      <trkpt lat="48.61723" lon="2.00104">
        <ele>123.6</ele>
        <time>2025-11-16T12:39:10Z</time>
        <extensions>
          <gpxtpx:TrackPointExtension xmlns:gpxtpx="http://www.garmin.com/xmlschemas/TrackPointExtension/v1">
            <gpxtpx:hr>119</gpxtpx:hr>
          </gpxtpx:TrackPointExtension>
        </extensions>
      </trkpt>
      <trkpt lat="48.61723" lon="2.001">
        <ele>123.6</ele>
        <time>2025-11-16T12:39:12Z</time>
        <extensions>
          <gpxtpx:TrackPointExtension xmlns:gpxtpx="http://www.garmin.com/xmlschemas/TrackPointExtension/v1">
            <gpxtpx:hr>119</gpxtpx:hr>
          </gpxtpx:TrackPointExtension>
        </extensions>
      </trkpt>
      <trkpt lat="48.61723" lon="2.00096">
        <ele>123.6</ele>
        <time>2025-11-16T12:39:14Z</time>
        <extensions>
          <gpxtpx:TrackPointExtension xmlns:gpxtpx="http://www.garmin.com/xmlschemas/TrackPointExtension/v1">
            <gpxtpx:hr>119</gpxtpx:hr>
          </gpxtpx:TrackPointExtension>
        </extensions>
      </trkpt>
      <trkpt lat="48.61723" lon="2.00091">
        <ele>123.6</ele>
        <time>2025-11-16T12:39:16Z</time>
        <extensions>
          <gpxtpx:TrackPointExtension xmlns:gpxtpx="http://www.garmin.com/xmlschemas/TrackPointExtension/v1">
            <gpxtpx:hr>119</gpxtpx:hr>
          </gpxtpx:TrackPointExtension>
        </extensions>
      </trkpt>
      <trkpt lat="48.61723" lon="2.00088">
        <ele>123.6</ele>
        <time>2025-11-16T12:39:17Z</time>
        <extensions>
          <gpxtpx:TrackPointExtension xmlns:gpxtpx="http://www.garmin.com/xmlschemas/TrackPointExtension/v1">
            <gpxtpx:hr>119</gpxtpx:hr>
          </gpxtpx:TrackPointExtension>
        </extensions>
      </trkpt>
      <trkpt lat="48.61723" lon="2.00085">
        <ele>123.6</ele>
        <time>2025-11-16T12:39:18Z</time>
        <extensions>
          <gpxtpx:TrackPointExtension xmlns:gpxtpx="http://www.garmin.com/xmlschemas/TrackPointExtension/v1">
            <gpxtpx:hr>119</gpxtpx:hr>
          </gpxtpx:TrackPointExtension>
        </extensions>
      </trkpt>
      <trkpt lat="48.61722" lon="2.00082">
        <ele>123.6</ele>
        <time>2025-11-16T12:39:19Z</time>
        <extensions>
          <gpxtpx:TrackPointExtension xmlns:gpxtpx="http://www.garmin.com/xmlschemas/TrackPointExtension/v1">
            <gpxtpx:hr>119</gpxtpx:hr>
          </gpxtpx:TrackPointExtension>
        </extensions>
      </trkpt>
      <trkpt lat="48.61721" lon="2.00079">
        <ele>123.6</ele>
        <time>2025-11-16T12:39:20Z</time>
        <extensions>
          <gpxtpx:TrackPointExtension xmlns:gpxtpx="http://www.garmin.com/xmlschemas/TrackPointExtension/v1">
            <gpxtpx:hr>119</gpxtpx:hr>
          </gpxtpx:TrackPointExtension>
        </extensions>
      </trkpt>
      <trkpt lat="48.61721" lon="2.00075">
        <ele>123.6</ele>
        <time>2025-11-16T12:39:21Z</time>
        <extensions>
          <gpxtpx:TrackPointExtension xmlns:gpxtpx="http://www.garmin.com/xmlschemas/TrackPointExtension/v1">
            <gpxtpx:hr>119</gpxtpx:hr>
          </gpxtpx:TrackPointExtension>
        </extensions>
      </trkpt>
      <trkpt lat="48.6172" lon="2.00071">
        <ele>123.6</ele>
        <time>2025-11-16T12:39:22Z</time>
        <extensions>
          <gpxtpx:TrackPointExtension xmlns:gpxtpx="http://www.garmin.com/xmlschemas/TrackPointExtension/v1">
            <gpxtpx:hr>119</gpxtpx:hr>
          </gpxtpx:TrackPointExtension>
        </extensions>
      </trkpt>
      <trkpt lat="48.61719" lon="2.00066">
        <ele>123.8</ele>
        <time>2025-11-16T12:39:23Z</time>
        <extensions>
          <gpxtpx:TrackPointExtension xmlns:gpxtpx="http://www.garmin.com/xmlschemas/TrackPointExtension/v1">
            <gpxtpx:hr>119</gpxtpx:hr>
          </gpxtpx:TrackPointExtension>
        </extensions>
      </trkpt>
      <trkpt lat="48.61719" lon="2.00062">
        <ele>123.8</ele>
        <time>2025-11-16T12:39:24Z</time>
        <extensions>
          <gpxtpx:TrackPointExtension xmlns:gpxtpx="http://www.garmin.com/xmlschemas/TrackPointExtension/v1">
            <gpxtpx:hr>119</gpxtpx:hr>
          </gpxtpx:TrackPointExtension>
        </extensions>
      </trkpt>
      <trkpt lat="48.61718" lon="2.00058">
        <ele>124</ele>
        <time>2025-11-16T12:39:25Z</time>
        <extensions>
          <gpxtpx:TrackPointExtension xmlns:gpxtpx="http://www.garmin.com/xmlschemas/TrackPointExtension/v1">
            <gpxtpx:hr>118</gpxtpx:hr>
          </gpxtpx:TrackPointExtension>
        </extensions>
      </trkpt>
      <trkpt lat="48.61718" lon="2.00055">
        <ele>124.2</ele>
        <time>2025-11-16T12:39:26Z</time>
        <extensions>
          <gpxtpx:TrackPointExtension xmlns:gpxtpx="http://www.garmin.com/xmlschemas/TrackPointExtension/v1">
            <gpxtpx:hr>118</gpxtpx:hr>
          </gpxtpx:TrackPointExtension>
        </extensions>
      </trkpt>
      <trkpt lat="48.61717" lon="2.00051">
        <ele>124.2</ele>
        <time>2025-11-16T12:39:27Z</time>
        <extensions>
          <gpxtpx:TrackPointExtension xmlns:gpxtpx="http://www.garmin.com/xmlschemas/TrackPointExtension/v1">
            <gpxtpx:hr>118</gpxtpx:hr>
          </gpxtpx:TrackPointExtension>
        </extensions>
      </trkpt>
      <trkpt lat="48.61717" lon="2.00048">
        <ele>124.2</ele>
        <time>2025-11-16T12:39:28Z</time>
        <extensions>
          <gpxtpx:TrackPointExtension xmlns:gpxtpx="http://www.garmin.com/xmlschemas/TrackPointExtension/v1">
            <gpxtpx:hr>118</gpxtpx:hr>
          </gpxtpx:TrackPointExtension>
        </extensions>
      </trkpt>
      <trkpt lat="48.61717" lon="2.00046">
        <ele>124.4</ele>
        <time>2025-11-16T12:39:29Z</time>
        <extensions>
          <gpxtpx:TrackPointExtension xmlns:gpxtpx="http://www.garmin.com/xmlschemas/TrackPointExtension/v1">
            <gpxtpx:hr>118</gpxtpx:hr>
          </gpxtpx:TrackPointExtension>
        </extensions>
      </trkpt>
      <trkpt lat="48.61717" lon="2.00041">
        <ele>124.6</ele>
        <time>2025-11-16T12:39:31Z</time>
        <extensions>
          <gpxtpx:TrackPointExtension xmlns:gpxtpx="http://www.garmin.com/xmlschemas/TrackPointExtension/v1">
            <gpxtpx:hr>118</gpxtpx:hr>
          </gpxtpx:TrackPointExtension>
        </extensions>
      </trkpt>
      <trkpt lat="48.61718" lon="2.00037">
        <ele>124.8</ele>
        <time>2025-11-16T12:39:33Z</time>
        <extensions>
          <gpxtpx:TrackPointExtension xmlns:gpxtpx="http://www.garmin.com/xmlschemas/TrackPointExtension/v1">
            <gpxtpx:hr>117</gpxtpx:hr>
          </gpxtpx:TrackPointExtension>
        </extensions>
      </trkpt>
      <trkpt lat="48.61718" lon="2.00034">
        <ele>124.8</ele>
        <time>2025-11-16T12:39:35Z</time>
        <extensions>
          <gpxtpx:TrackPointExtension xmlns:gpxtpx="http://www.garmin.com/xmlschemas/TrackPointExtension/v1">
            <gpxtpx:hr>117</gpxtpx:hr>
          </gpxtpx:TrackPointExtension>
        </extensions>
      </trkpt>
      <trkpt lat="48.61716" lon="2.00031">
        <ele>124.8</ele>
        <time>2025-11-16T12:39:38Z</time>
        <extensions>
          <gpxtpx:TrackPointExtension xmlns:gpxtpx="http://www.garmin.com/xmlschemas/TrackPointExtension/v1">
            <gpxtpx:hr>117</gpxtpx:hr>
          </gpxtpx:TrackPointExtension>
        </extensions>
      </trkpt>
      <trkpt lat="48.61714" lon="2.0003">
        <ele>124.8</ele>
        <time>2025-11-16T12:39:40Z</time>
        <extensions>
          <gpxtpx:TrackPointExtension xmlns:gpxtpx="http://www.garmin.com/xmlschemas/TrackPointExtension/v1">
            <gpxtpx:hr>117</gpxtpx:hr>
          </gpxtpx:TrackPointExtension>
        </extensions>
      </trkpt>
      <trkpt lat="48.61712" lon="2.00029">
        <ele>124.6</ele>
        <time>2025-11-16T12:39:42Z</time>
        <extensions>
          <gpxtpx:TrackPointExtension xmlns:gpxtpx="http://www.garmin.com/xmlschemas/TrackPointExtension/v1">
            <gpxtpx:hr>116</gpxtpx:hr>
          </gpxtpx:TrackPointExtension>
        </extensions>
      </trkpt>
      <trkpt lat="48.61709" lon="2.00028">
        <ele>124.6</ele>
        <time>2025-11-16T12:39:44Z</time>
        <extensions>
          <gpxtpx:TrackPointExtension xmlns:gpxtpx="http://www.garmin.com/xmlschemas/TrackPointExtension/v1">
            <gpxtpx:hr>116</gpxtpx:hr>
          </gpxtpx:TrackPointExtension>
        </extensions>
      </trkpt>
      <trkpt lat="48.61706" lon="2.00028">
        <ele>124.6</ele>
        <time>2025-11-16T12:39:46Z</time>
        <extensions>
          <gpxtpx:TrackPointExtension xmlns:gpxtpx="http://www.garmin.com/xmlschemas/TrackPointExtension/v1">
            <gpxtpx:hr>117</gpxtpx:hr>
          </gpxtpx:TrackPointExtension>
        </extensions>
      </trkpt>
      <trkpt lat="48.61703" lon="2.00029">
        <ele>124.6</ele>
        <time>2025-11-16T12:39:48Z</time>
        <extensions>
          <gpxtpx:TrackPointExtension xmlns:gpxtpx="http://www.garmin.com/xmlschemas/TrackPointExtension/v1">
            <gpxtpx:hr>118</gpxtpx:hr>
          </gpxtpx:TrackPointExtension>
        </extensions>
      </trkpt>
      <trkpt lat="48.617" lon="2.0003">
        <ele>124.6</ele>
        <time>2025-11-16T12:39:50Z</time>
        <extensions>
          <gpxtpx:TrackPointExtension xmlns:gpxtpx="http://www.garmin.com/xmlschemas/TrackPointExtension/v1">
            <gpxtpx:hr>119</gpxtpx:hr>
          </gpxtpx:TrackPointExtension>
        </extensions>
      </trkpt>
      <trkpt lat="48.61697" lon="2.00032">
        <ele>124.8</ele>
        <time>2025-11-16T12:39:52Z</time>
        <extensions>
          <gpxtpx:TrackPointExtension xmlns:gpxtpx="http://www.garmin.com/xmlschemas/TrackPointExtension/v1">
            <gpxtpx:hr>118</gpxtpx:hr>
          </gpxtpx:TrackPointExtension>
        </extensions>
      </trkpt>
      <trkpt lat="48.61695" lon="2.00034">
        <ele>124.8</ele>
        <time>2025-11-16T12:39:54Z</time>
        <extensions>
          <gpxtpx:TrackPointExtension xmlns:gpxtpx="http://www.garmin.com/xmlschemas/TrackPointExtension/v1">
            <gpxtpx:hr>118</gpxtpx:hr>
          </gpxtpx:TrackPointExtension>
        </extensions>
      </trkpt>
      <trkpt lat="48.61693" lon="2.00036">
        <ele>124.8</ele>
        <time>2025-11-16T12:39:56Z</time>
        <extensions>
          <gpxtpx:TrackPointExtension xmlns:gpxtpx="http://www.garmin.com/xmlschemas/TrackPointExtension/v1">
            <gpxtpx:hr>118</gpxtpx:hr>
          </gpxtpx:TrackPointExtension>
        </extensions>
      </trkpt>
      <trkpt lat="48.61691" lon="2.00038">
        <ele>124.8</ele>
        <time>2025-11-16T12:39:58Z</time>
        <extensions>
          <gpxtpx:TrackPointExtension xmlns:gpxtpx="http://www.garmin.com/xmlschemas/TrackPointExtension/v1">
            <gpxtpx:hr>119</gpxtpx:hr>
          </gpxtpx:TrackPointExtension>
        </extensions>
      </trkpt>
      <trkpt lat="48.61688" lon="2.00039">
        <ele>124.8</ele>
        <time>2025-11-16T12:40:00Z</time>
        <extensions>
          <gpxtpx:TrackPointExtension xmlns:gpxtpx="http://www.garmin.com/xmlschemas/TrackPointExtension/v1">
            <gpxtpx:hr>119</gpxtpx:hr>
          </gpxtpx:TrackPointExtension>
        </extensions>
      </trkpt>
      <trkpt lat="48.61685" lon="2.00041">
        <ele>124.8</ele>
        <time>2025-11-16T12:40:02Z</time>
        <extensions>
          <gpxtpx:TrackPointExtension xmlns:gpxtpx="http://www.garmin.com/xmlschemas/TrackPointExtension/v1">
            <gpxtpx:hr>118</gpxtpx:hr>
          </gpxtpx:TrackPointExtension>
        </extensions>
      </trkpt>
      <trkpt lat="48.61683" lon="2.00043">
        <ele>124.8</ele>
        <time>2025-11-16T12:40:04Z</time>
        <extensions>
          <gpxtpx:TrackPointExtension xmlns:gpxtpx="http://www.garmin.com/xmlschemas/TrackPointExtension/v1">
            <gpxtpx:hr>118</gpxtpx:hr>
          </gpxtpx:TrackPointExtension>
        </extensions>
      </trkpt>
      <trkpt lat="48.61681" lon="2.00045">
        <ele>124.6</ele>
        <time>2025-11-16T12:40:06Z</time>
        <extensions>
          <gpxtpx:TrackPointExtension xmlns:gpxtpx="http://www.garmin.com/xmlschemas/TrackPointExtension/v1">
            <gpxtpx:hr>118</gpxtpx:hr>
          </gpxtpx:TrackPointExtension>
        </extensions>
      </trkpt>
      <trkpt lat="48.61679" lon="2.00047">
        <ele>124.4</ele>
        <time>2025-11-16T12:40:08Z</time>
        <extensions>
          <gpxtpx:TrackPointExtension xmlns:gpxtpx="http://www.garmin.com/xmlschemas/TrackPointExtension/v1">
            <gpxtpx:hr>117</gpxtpx:hr>
          </gpxtpx:TrackPointExtension>
        </extensions>
      </trkpt>
      <trkpt lat="48.61676" lon="2.00049">
        <ele>124.2</ele>
        <time>2025-11-16T12:40:10Z</time>
        <extensions>
          <gpxtpx:TrackPointExtension xmlns:gpxtpx="http://www.garmin.com/xmlschemas/TrackPointExtension/v1">
            <gpxtpx:hr>117</gpxtpx:hr>
          </gpxtpx:TrackPointExtension>
        </extensions>
      </trkpt>
      <trkpt lat="48.61673" lon="2.00052">
        <ele>124.2</ele>
        <time>2025-11-16T12:40:12Z</time>
        <extensions>
          <gpxtpx:TrackPointExtension xmlns:gpxtpx="http://www.garmin.com/xmlschemas/TrackPointExtension/v1">
            <gpxtpx:hr>117</gpxtpx:hr>
          </gpxtpx:TrackPointExtension>
        </extensions>
      </trkpt>
      <trkpt lat="48.61671" lon="2.00054">
        <ele>124.2</ele>
        <time>2025-11-16T12:40:13Z</time>
        <extensions>
          <gpxtpx:TrackPointExtension xmlns:gpxtpx="http://www.garmin.com/xmlschemas/TrackPointExtension/v1">
            <gpxtpx:hr>117</gpxtpx:hr>
          </gpxtpx:TrackPointExtension>
        </extensions>
      </trkpt>
      <trkpt lat="48.61669" lon="2.00058">
        <ele>124.4</ele>
        <time>2025-11-16T12:40:15Z</time>
        <extensions>
          <gpxtpx:TrackPointExtension xmlns:gpxtpx="http://www.garmin.com/xmlschemas/TrackPointExtension/v1">
            <gpxtpx:hr>117</gpxtpx:hr>
          </gpxtpx:TrackPointExtension>
        </extensions>
      </trkpt>
      <trkpt lat="48.61667" lon="2.0006">
        <ele>124.6</ele>
        <time>2025-11-16T12:40:16Z</time>
        <extensions>
          <gpxtpx:TrackPointExtension xmlns:gpxtpx="http://www.garmin.com/xmlschemas/TrackPointExtension/v1">
            <gpxtpx:hr>117</gpxtpx:hr>
          </gpxtpx:TrackPointExtension>
        </extensions>
      </trkpt>
      <trkpt lat="48.61666" lon="2.00062">
        <ele>124.6</ele>
        <time>2025-11-16T12:40:17Z</time>
        <extensions>
          <gpxtpx:TrackPointExtension xmlns:gpxtpx="http://www.garmin.com/xmlschemas/TrackPointExtension/v1">
            <gpxtpx:hr>117</gpxtpx:hr>
          </gpxtpx:TrackPointExtension>
        </extensions>
      </trkpt>
      <trkpt lat="48.61664" lon="2.00064">
        <ele>124.6</ele>
        <time>2025-11-16T12:40:18Z</time>
        <extensions>
          <gpxtpx:TrackPointExtension xmlns:gpxtpx="http://www.garmin.com/xmlschemas/TrackPointExtension/v1">
            <gpxtpx:hr>118</gpxtpx:hr>
          </gpxtpx:TrackPointExtension>
        </extensions>
      </trkpt>
      <trkpt lat="48.61663" lon="2.00066">
        <ele>124.8</ele>
        <time>2025-11-16T12:40:19Z</time>
        <extensions>
          <gpxtpx:TrackPointExtension xmlns:gpxtpx="http://www.garmin.com/xmlschemas/TrackPointExtension/v1">
            <gpxtpx:hr>118</gpxtpx:hr>
          </gpxtpx:TrackPointExtension>
        </extensions>
      </trkpt>
      <trkpt lat="48.61661" lon="2.00068">
        <ele>124.8</ele>
        <time>2025-11-16T12:40:20Z</time>
        <extensions>
          <gpxtpx:TrackPointExtension xmlns:gpxtpx="http://www.garmin.com/xmlschemas/TrackPointExtension/v1">
            <gpxtpx:hr>118</gpxtpx:hr>
          </gpxtpx:TrackPointExtension>
        </extensions>
      </trkpt>
      <trkpt lat="48.61659" lon="2.00071">
        <ele>124.6</ele>
        <time>2025-11-16T12:40:22Z</time>
        <extensions>
          <gpxtpx:TrackPointExtension xmlns:gpxtpx="http://www.garmin.com/xmlschemas/TrackPointExtension/v1">
            <gpxtpx:hr>117</gpxtpx:hr>
          </gpxtpx:TrackPointExtension>
        </extensions>
      </trkpt>
      <trkpt lat="48.61657" lon="2.00074">
        <ele>124.6</ele>
        <time>2025-11-16T12:40:24Z</time>
        <extensions>
          <gpxtpx:TrackPointExtension xmlns:gpxtpx="http://www.garmin.com/xmlschemas/TrackPointExtension/v1">
            <gpxtpx:hr>117</gpxtpx:hr>
          </gpxtpx:TrackPointExtension>
        </extensions>
      </trkpt>
      <trkpt lat="48.61655" lon="2.00078">
        <ele>124.6</ele>
        <time>2025-11-16T12:40:26Z</time>
        <extensions>
          <gpxtpx:TrackPointExtension xmlns:gpxtpx="http://www.garmin.com/xmlschemas/TrackPointExtension/v1">
            <gpxtpx:hr>117</gpxtpx:hr>
          </gpxtpx:TrackPointExtension>
        </extensions>
      </trkpt>
      <trkpt lat="48.61653" lon="2.00081">
        <ele>124.6</ele>
        <time>2025-11-16T12:40:28Z</time>
        <extensions>
          <gpxtpx:TrackPointExtension xmlns:gpxtpx="http://www.garmin.com/xmlschemas/TrackPointExtension/v1">
            <gpxtpx:hr>117</gpxtpx:hr>
          </gpxtpx:TrackPointExtension>
        </extensions>
      </trkpt>
      <trkpt lat="48.61651" lon="2.00085">
        <ele>124.6</ele>
        <time>2025-11-16T12:40:30Z</time>
        <extensions>
          <gpxtpx:TrackPointExtension xmlns:gpxtpx="http://www.garmin.com/xmlschemas/TrackPointExtension/v1">
            <gpxtpx:hr>118</gpxtpx:hr>
          </gpxtpx:TrackPointExtension>
        </extensions>
      </trkpt>
      <trkpt lat="48.6165" lon="2.00089">
        <ele>124.4</ele>
        <time>2025-11-16T12:40:32Z</time>
        <extensions>
          <gpxtpx:TrackPointExtension xmlns:gpxtpx="http://www.garmin.com/xmlschemas/TrackPointExtension/v1">
            <gpxtpx:hr>118</gpxtpx:hr>
          </gpxtpx:TrackPointExtension>
        </extensions>
      </trkpt>
      <trkpt lat="48.61648" lon="2.00092">
        <ele>124.2</ele>
        <time>2025-11-16T12:40:34Z</time>
        <extensions>
          <gpxtpx:TrackPointExtension xmlns:gpxtpx="http://www.garmin.com/xmlschemas/TrackPointExtension/v1">
            <gpxtpx:hr>118</gpxtpx:hr>
          </gpxtpx:TrackPointExtension>
        </extensions>
      </trkpt>
      <trkpt lat="48.61647" lon="2.00096">
        <ele>124.2</ele>
        <time>2025-11-16T12:40:36Z</time>
        <extensions>
          <gpxtpx:TrackPointExtension xmlns:gpxtpx="http://www.garmin.com/xmlschemas/TrackPointExtension/v1">
            <gpxtpx:hr>118</gpxtpx:hr>
          </gpxtpx:TrackPointExtension>
        </extensions>
      </trkpt>
      <trkpt lat="48.61645" lon="2.001">
        <ele>124.2</ele>
        <time>2025-11-16T12:40:38Z</time>
        <extensions>
          <gpxtpx:TrackPointExtension xmlns:gpxtpx="http://www.garmin.com/xmlschemas/TrackPointExtension/v1">
            <gpxtpx:hr>118</gpxtpx:hr>
          </gpxtpx:TrackPointExtension>
        </extensions>
      </trkpt>
      <trkpt lat="48.61644" lon="2.00102">
        <ele>124.2</ele>
        <time>2025-11-16T12:40:39Z</time>
        <extensions>
          <gpxtpx:TrackPointExtension xmlns:gpxtpx="http://www.garmin.com/xmlschemas/TrackPointExtension/v1">
            <gpxtpx:hr>118</gpxtpx:hr>
          </gpxtpx:TrackPointExtension>
        </extensions>
      </trkpt>
      <trkpt lat="48.61642" lon="2.00106">
        <ele>124</ele>
        <time>2025-11-16T12:40:41Z</time>
        <extensions>
          <gpxtpx:TrackPointExtension xmlns:gpxtpx="http://www.garmin.com/xmlschemas/TrackPointExtension/v1">
            <gpxtpx:hr>118</gpxtpx:hr>
          </gpxtpx:TrackPointExtension>
        </extensions>
      </trkpt>
      <trkpt lat="48.61641" lon="2.0011">
        <ele>124</ele>
        <time>2025-11-16T12:40:43Z</time>
        <extensions>
          <gpxtpx:TrackPointExtension xmlns:gpxtpx="http://www.garmin.com/xmlschemas/TrackPointExtension/v1">
            <gpxtpx:hr>118</gpxtpx:hr>
          </gpxtpx:TrackPointExtension>
        </extensions>
      </trkpt>
      <trkpt lat="48.61639" lon="2.00114">
        <ele>124</ele>
        <time>2025-11-16T12:40:45Z</time>
        <extensions>
          <gpxtpx:TrackPointExtension xmlns:gpxtpx="http://www.garmin.com/xmlschemas/TrackPointExtension/v1">
            <gpxtpx:hr>118</gpxtpx:hr>
          </gpxtpx:TrackPointExtension>
        </extensions>
      </trkpt>
      <trkpt lat="48.61637" lon="2.00118">
        <ele>124</ele>
        <time>2025-11-16T12:40:47Z</time>
        <extensions>
          <gpxtpx:TrackPointExtension xmlns:gpxtpx="http://www.garmin.com/xmlschemas/TrackPointExtension/v1">
            <gpxtpx:hr>118</gpxtpx:hr>
          </gpxtpx:TrackPointExtension>
        </extensions>
      </trkpt>
      <trkpt lat="48.61635" lon="2.00122">
        <ele>124.2</ele>
        <time>2025-11-16T12:40:49Z</time>
        <extensions>
          <gpxtpx:TrackPointExtension xmlns:gpxtpx="http://www.garmin.com/xmlschemas/TrackPointExtension/v1">
            <gpxtpx:hr>118</gpxtpx:hr>
          </gpxtpx:TrackPointExtension>
        </extensions>
      </trkpt>
      <trkpt lat="48.61634" lon="2.00125">
        <ele>124.4</ele>
        <time>2025-11-16T12:40:51Z</time>
        <extensions>
          <gpxtpx:TrackPointExtension xmlns:gpxtpx="http://www.garmin.com/xmlschemas/TrackPointExtension/v1">
            <gpxtpx:hr>118</gpxtpx:hr>
          </gpxtpx:TrackPointExtension>
        </extensions>
      </trkpt>
      <trkpt lat="48.61632" lon="2.00129">
        <ele>124.6</ele>
        <time>2025-11-16T12:40:53Z</time>
        <extensions>
          <gpxtpx:TrackPointExtension xmlns:gpxtpx="http://www.garmin.com/xmlschemas/TrackPointExtension/v1">
            <gpxtpx:hr>118</gpxtpx:hr>
          </gpxtpx:TrackPointExtension>
        </extensions>
      </trkpt>
      <trkpt lat="48.61631" lon="2.00134">
        <ele>124.8</ele>
        <time>2025-11-16T12:40:55Z</time>
        <extensions>
          <gpxtpx:TrackPointExtension xmlns:gpxtpx="http://www.garmin.com/xmlschemas/TrackPointExtension/v1">
            <gpxtpx:hr>118</gpxtpx:hr>
          </gpxtpx:TrackPointExtension>
        </extensions>
      </trkpt>
      <trkpt lat="48.6163" lon="2.00135">
        <ele>124.8</ele>
        <time>2025-11-16T12:40:56Z</time>
        <extensions>
          <gpxtpx:TrackPointExtension xmlns:gpxtpx="http://www.garmin.com/xmlschemas/TrackPointExtension/v1">
            <gpxtpx:hr>118</gpxtpx:hr>
          </gpxtpx:TrackPointExtension>
        </extensions>
      </trkpt>
      <trkpt lat="48.61628" lon="2.0014">
        <ele>124.8</ele>
        <time>2025-11-16T12:40:58Z</time>
        <extensions>
          <gpxtpx:TrackPointExtension xmlns:gpxtpx="http://www.garmin.com/xmlschemas/TrackPointExtension/v1">
            <gpxtpx:hr>118</gpxtpx:hr>
          </gpxtpx:TrackPointExtension>
        </extensions>
      </trkpt>
      <trkpt lat="48.61627" lon="2.00142">
        <ele>125</ele>
        <time>2025-11-16T12:40:59Z</time>
        <extensions>
          <gpxtpx:TrackPointExtension xmlns:gpxtpx="http://www.garmin.com/xmlschemas/TrackPointExtension/v1">
            <gpxtpx:hr>118</gpxtpx:hr>
          </gpxtpx:TrackPointExtension>
        </extensions>
      </trkpt>
      <trkpt lat="48.61625" lon="2.00146">
        <ele>125</ele>
        <time>2025-11-16T12:41:01Z</time>
        <extensions>
          <gpxtpx:TrackPointExtension xmlns:gpxtpx="http://www.garmin.com/xmlschemas/TrackPointExtension/v1">
            <gpxtpx:hr>118</gpxtpx:hr>
          </gpxtpx:TrackPointExtension>
        </extensions>
      </trkpt>
      <trkpt lat="48.61623" lon="2.00151">
        <ele>125.2</ele>
        <time>2025-11-16T12:41:03Z</time>
        <extensions>
          <gpxtpx:TrackPointExtension xmlns:gpxtpx="http://www.garmin.com/xmlschemas/TrackPointExtension/v1">
            <gpxtpx:hr>118</gpxtpx:hr>
          </gpxtpx:TrackPointExtension>
        </extensions>
      </trkpt>
      <trkpt lat="48.61622" lon="2.00155">
        <ele>125.4</ele>
        <time>2025-11-16T12:41:05Z</time>
        <extensions>
          <gpxtpx:TrackPointExtension xmlns:gpxtpx="http://www.garmin.com/xmlschemas/TrackPointExtension/v1">
            <gpxtpx:hr>118</gpxtpx:hr>
          </gpxtpx:TrackPointExtension>
        </extensions>
      </trkpt>
      <trkpt lat="48.6162" lon="2.00159">
        <ele>125.6</ele>
        <time>2025-11-16T12:41:07Z</time>
        <extensions>
          <gpxtpx:TrackPointExtension xmlns:gpxtpx="http://www.garmin.com/xmlschemas/TrackPointExtension/v1">
            <gpxtpx:hr>118</gpxtpx:hr>
          </gpxtpx:TrackPointExtension>
        </extensions>
      </trkpt>
      <trkpt lat="48.61619" lon="2.00163">
        <ele>126</ele>
        <time>2025-11-16T12:41:09Z</time>
        <extensions>
          <gpxtpx:TrackPointExtension xmlns:gpxtpx="http://www.garmin.com/xmlschemas/TrackPointExtension/v1">
            <gpxtpx:hr>118</gpxtpx:hr>
          </gpxtpx:TrackPointExtension>
        </extensions>
      </trkpt>
      <trkpt lat="48.61618" lon="2.00167">
        <ele>126.2</ele>
        <time>2025-11-16T12:41:11Z</time>
        <extensions>
          <gpxtpx:TrackPointExtension xmlns:gpxtpx="http://www.garmin.com/xmlschemas/TrackPointExtension/v1">
            <gpxtpx:hr>118</gpxtpx:hr>
          </gpxtpx:TrackPointExtension>
        </extensions>
      </trkpt>
      <trkpt lat="48.61617" lon="2.0017">
        <ele>126.4</ele>
        <time>2025-11-16T12:41:13Z</time>
        <extensions>
          <gpxtpx:TrackPointExtension xmlns:gpxtpx="http://www.garmin.com/xmlschemas/TrackPointExtension/v1">
            <gpxtpx:hr>118</gpxtpx:hr>
          </gpxtpx:TrackPointExtension>
        </extensions>
      </trkpt>
      <trkpt lat="48.61615" lon="2.00174">
        <ele>126.6</ele>
        <time>2025-11-16T12:41:15Z</time>
        <extensions>
          <gpxtpx:TrackPointExtension xmlns:gpxtpx="http://www.garmin.com/xmlschemas/TrackPointExtension/v1">
            <gpxtpx:hr>118</gpxtpx:hr>
          </gpxtpx:TrackPointExtension>
        </extensions>
      </trkpt>
      <trkpt lat="48.61613" lon="2.00178">
        <ele>126.6</ele>
        <time>2025-11-16T12:41:17Z</time>
        <extensions>
          <gpxtpx:TrackPointExtension xmlns:gpxtpx="http://www.garmin.com/xmlschemas/TrackPointExtension/v1">
            <gpxtpx:hr>118</gpxtpx:hr>
          </gpxtpx:TrackPointExtension>
        </extensions>
      </trkpt>
      <trkpt lat="48.61612" lon="2.00182">
        <ele>126.6</ele>
        <time>2025-11-16T12:41:19Z</time>
        <extensions>
          <gpxtpx:TrackPointExtension xmlns:gpxtpx="http://www.garmin.com/xmlschemas/TrackPointExtension/v1">
            <gpxtpx:hr>118</gpxtpx:hr>
          </gpxtpx:TrackPointExtension>
        </extensions>
      </trkpt>
      <trkpt lat="48.61611" lon="2.00186">
        <ele>126.6</ele>
        <time>2025-11-16T12:41:21Z</time>
        <extensions>
          <gpxtpx:TrackPointExtension xmlns:gpxtpx="http://www.garmin.com/xmlschemas/TrackPointExtension/v1">
            <gpxtpx:hr>118</gpxtpx:hr>
          </gpxtpx:TrackPointExtension>
        </extensions>
      </trkpt>
      <trkpt lat="48.6161" lon="2.00189">
        <ele>126.6</ele>
        <time>2025-11-16T12:41:23Z</time>
        <extensions>
          <gpxtpx:TrackPointExtension xmlns:gpxtpx="http://www.garmin.com/xmlschemas/TrackPointExtension/v1">
            <gpxtpx:hr>118</gpxtpx:hr>
          </gpxtpx:TrackPointExtension>
        </extensions>
      </trkpt>
      <trkpt lat="48.61608" lon="2.00193">
        <ele>126.4</ele>
        <time>2025-11-16T12:41:25Z</time>
        <extensions>
          <gpxtpx:TrackPointExtension xmlns:gpxtpx="http://www.garmin.com/xmlschemas/TrackPointExtension/v1">
            <gpxtpx:hr>118</gpxtpx:hr>
          </gpxtpx:TrackPointExtension>
        </extensions>
      </trkpt>
      <trkpt lat="48.61607" lon="2.00196">
        <ele>126.2</ele>
        <time>2025-11-16T12:41:27Z</time>
        <extensions>
          <gpxtpx:TrackPointExtension xmlns:gpxtpx="http://www.garmin.com/xmlschemas/TrackPointExtension/v1">
            <gpxtpx:hr>118</gpxtpx:hr>
          </gpxtpx:TrackPointExtension>
        </extensions>
      </trkpt>
      <trkpt lat="48.61605" lon="2.002">
        <ele>126</ele>
        <time>2025-11-16T12:41:29Z</time>
        <extensions>
          <gpxtpx:TrackPointExtension xmlns:gpxtpx="http://www.garmin.com/xmlschemas/TrackPointExtension/v1">
            <gpxtpx:hr>117</gpxtpx:hr>
          </gpxtpx:TrackPointExtension>
        </extensions>
      </trkpt>
      <trkpt lat="48.61604" lon="2.00204">
        <ele>125.6</ele>
        <time>2025-11-16T12:41:31Z</time>
        <extensions>
          <gpxtpx:TrackPointExtension xmlns:gpxtpx="http://www.garmin.com/xmlschemas/TrackPointExtension/v1">
            <gpxtpx:hr>117</gpxtpx:hr>
          </gpxtpx:TrackPointExtension>
        </extensions>
      </trkpt>
      <trkpt lat="48.61602" lon="2.00207">
        <ele>125.4</ele>
        <time>2025-11-16T12:41:33Z</time>
        <extensions>
          <gpxtpx:TrackPointExtension xmlns:gpxtpx="http://www.garmin.com/xmlschemas/TrackPointExtension/v1">
            <gpxtpx:hr>116</gpxtpx:hr>
          </gpxtpx:TrackPointExtension>
        </extensions>
      </trkpt>
      <trkpt lat="48.61601" lon="2.0021">
        <ele>125</ele>
        <time>2025-11-16T12:41:35Z</time>
        <extensions>
          <gpxtpx:TrackPointExtension xmlns:gpxtpx="http://www.garmin.com/xmlschemas/TrackPointExtension/v1">
            <gpxtpx:hr>116</gpxtpx:hr>
          </gpxtpx:TrackPointExtension>
        </extensions>
      </trkpt>
      <trkpt lat="48.61599" lon="2.00214">
        <ele>124.8</ele>
        <time>2025-11-16T12:41:37Z</time>
        <extensions>
          <gpxtpx:TrackPointExtension xmlns:gpxtpx="http://www.garmin.com/xmlschemas/TrackPointExtension/v1">
            <gpxtpx:hr>116</gpxtpx:hr>
          </gpxtpx:TrackPointExtension>
        </extensions>
      </trkpt>
      <trkpt lat="48.61597" lon="2.00217">
        <ele>124.6</ele>
        <time>2025-11-16T12:41:39Z</time>
        <extensions>
          <gpxtpx:TrackPointExtension xmlns:gpxtpx="http://www.garmin.com/xmlschemas/TrackPointExtension/v1">
            <gpxtpx:hr>116</gpxtpx:hr>
          </gpxtpx:TrackPointExtension>
        </extensions>
      </trkpt>
      <trkpt lat="48.61596" lon="2.00221">
        <ele>124.4</ele>
        <time>2025-11-16T12:41:41Z</time>
        <extensions>
          <gpxtpx:TrackPointExtension xmlns:gpxtpx="http://www.garmin.com/xmlschemas/TrackPointExtension/v1">
            <gpxtpx:hr>116</gpxtpx:hr>
          </gpxtpx:TrackPointExtension>
        </extensions>
      </trkpt>
      <trkpt lat="48.61594" lon="2.00223">
        <ele>124.4</ele>
        <time>2025-11-16T12:41:42Z</time>
        <extensions>
          <gpxtpx:TrackPointExtension xmlns:gpxtpx="http://www.garmin.com/xmlschemas/TrackPointExtension/v1">
            <gpxtpx:hr>116</gpxtpx:hr>
          </gpxtpx:TrackPointExtension>
        </extensions>
      </trkpt>
      <trkpt lat="48.61592" lon="2.00227">
        <ele>124.2</ele>
        <time>2025-11-16T12:41:44Z</time>
        <extensions>
          <gpxtpx:TrackPointExtension xmlns:gpxtpx="http://www.garmin.com/xmlschemas/TrackPointExtension/v1">
            <gpxtpx:hr>116</gpxtpx:hr>
          </gpxtpx:TrackPointExtension>
        </extensions>
      </trkpt>
      <trkpt lat="48.61589" lon="2.00231">
        <ele>124</ele>
        <time>2025-11-16T12:41:46Z</time>
        <extensions>
          <gpxtpx:TrackPointExtension xmlns:gpxtpx="http://www.garmin.com/xmlschemas/TrackPointExtension/v1">
            <gpxtpx:hr>116</gpxtpx:hr>
          </gpxtpx:TrackPointExtension>
        </extensions>
      </trkpt>
      <trkpt lat="48.61587" lon="2.00234">
        <ele>123.8</ele>
        <time>2025-11-16T12:41:48Z</time>
        <extensions>
          <gpxtpx:TrackPointExtension xmlns:gpxtpx="http://www.garmin.com/xmlschemas/TrackPointExtension/v1">
            <gpxtpx:hr>116</gpxtpx:hr>
          </gpxtpx:TrackPointExtension>
        </extensions>
      </trkpt>
      <trkpt lat="48.61585" lon="2.00236">
        <ele>123.8</ele>
        <time>2025-11-16T12:41:49Z</time>
        <extensions>
          <gpxtpx:TrackPointExtension xmlns:gpxtpx="http://www.garmin.com/xmlschemas/TrackPointExtension/v1">
            <gpxtpx:hr>116</gpxtpx:hr>
          </gpxtpx:TrackPointExtension>
        </extensions>
      </trkpt>
      <trkpt lat="48.61584" lon="2.00238">
        <ele>123.8</ele>
        <time>2025-11-16T12:41:50Z</time>
        <extensions>
          <gpxtpx:TrackPointExtension xmlns:gpxtpx="http://www.garmin.com/xmlschemas/TrackPointExtension/v1">
            <gpxtpx:hr>116</gpxtpx:hr>
          </gpxtpx:TrackPointExtension>
        </extensions>
      </trkpt>
      <trkpt lat="48.61581" lon="2.00241">
        <ele>123.8</ele>
        <time>2025-11-16T12:41:52Z</time>
        <extensions>
          <gpxtpx:TrackPointExtension xmlns:gpxtpx="http://www.garmin.com/xmlschemas/TrackPointExtension/v1">
            <gpxtpx:hr>117</gpxtpx:hr>
          </gpxtpx:TrackPointExtension>
        </extensions>
      </trkpt>
      <trkpt lat="48.61579" lon="2.00245">
        <ele>123.8</ele>
        <time>2025-11-16T12:41:54Z</time>
        <extensions>
          <gpxtpx:TrackPointExtension xmlns:gpxtpx="http://www.garmin.com/xmlschemas/TrackPointExtension/v1">
            <gpxtpx:hr>117</gpxtpx:hr>
          </gpxtpx:TrackPointExtension>
        </extensions>
      </trkpt>
      <trkpt lat="48.61578" lon="2.00248">
        <ele>123.8</ele>
        <time>2025-11-16T12:41:56Z</time>
        <extensions>
          <gpxtpx:TrackPointExtension xmlns:gpxtpx="http://www.garmin.com/xmlschemas/TrackPointExtension/v1">
            <gpxtpx:hr>117</gpxtpx:hr>
          </gpxtpx:TrackPointExtension>
        </extensions>
      </trkpt>
      <trkpt lat="48.61577" lon="2.00251">
        <ele>123.8</ele>
        <time>2025-11-16T12:41:58Z</time>
        <extensions>
          <gpxtpx:TrackPointExtension xmlns:gpxtpx="http://www.garmin.com/xmlschemas/TrackPointExtension/v1">
            <gpxtpx:hr>117</gpxtpx:hr>
          </gpxtpx:TrackPointExtension>
        </extensions>
      </trkpt>
      <trkpt lat="48.61576" lon="2.00254">
        <ele>124</ele>
        <time>2025-11-16T12:42:00Z</time>
        <extensions>
          <gpxtpx:TrackPointExtension xmlns:gpxtpx="http://www.garmin.com/xmlschemas/TrackPointExtension/v1">
            <gpxtpx:hr>117</gpxtpx:hr>
          </gpxtpx:TrackPointExtension>
        </extensions>
      </trkpt>
      <trkpt lat="48.61574" lon="2.00257">
        <ele>124.2</ele>
        <time>2025-11-16T12:42:02Z</time>
        <extensions>
          <gpxtpx:TrackPointExtension xmlns:gpxtpx="http://www.garmin.com/xmlschemas/TrackPointExtension/v1">
            <gpxtpx:hr>116</gpxtpx:hr>
          </gpxtpx:TrackPointExtension>
        </extensions>
      </trkpt>
      <trkpt lat="48.61573" lon="2.00261">
        <ele>124.2</ele>
        <time>2025-11-16T12:42:04Z</time>
        <extensions>
          <gpxtpx:TrackPointExtension xmlns:gpxtpx="http://www.garmin.com/xmlschemas/TrackPointExtension/v1">
            <gpxtpx:hr>116</gpxtpx:hr>
          </gpxtpx:TrackPointExtension>
        </extensions>
      </trkpt>
      <trkpt lat="48.6157" lon="2.00264">
        <ele>124.2</ele>
        <time>2025-11-16T12:42:06Z</time>
        <extensions>
          <gpxtpx:TrackPointExtension xmlns:gpxtpx="http://www.garmin.com/xmlschemas/TrackPointExtension/v1">
            <gpxtpx:hr>116</gpxtpx:hr>
          </gpxtpx:TrackPointExtension>
        </extensions>
      </trkpt>
      <trkpt lat="48.61568" lon="2.00267">
        <ele>124.2</ele>
        <time>2025-11-16T12:42:08Z</time>
        <extensions>
          <gpxtpx:TrackPointExtension xmlns:gpxtpx="http://www.garmin.com/xmlschemas/TrackPointExtension/v1">
            <gpxtpx:hr>116</gpxtpx:hr>
          </gpxtpx:TrackPointExtension>
        </extensions>
      </trkpt>
      <trkpt lat="48.61565" lon="2.00269">
        <ele>124.4</ele>
        <time>2025-11-16T12:42:10Z</time>
        <extensions>
          <gpxtpx:TrackPointExtension xmlns:gpxtpx="http://www.garmin.com/xmlschemas/TrackPointExtension/v1">
            <gpxtpx:hr>116</gpxtpx:hr>
          </gpxtpx:TrackPointExtension>
        </extensions>
      </trkpt>
      <trkpt lat="48.61563" lon="2.00272">
        <ele>124.6</ele>
        <time>2025-11-16T12:42:12Z</time>
        <extensions>
          <gpxtpx:TrackPointExtension xmlns:gpxtpx="http://www.garmin.com/xmlschemas/TrackPointExtension/v1">
            <gpxtpx:hr>115</gpxtpx:hr>
          </gpxtpx:TrackPointExtension>
        </extensions>
      </trkpt>
      <trkpt lat="48.6156" lon="2.00275">
        <ele>124.8</ele>
        <time>2025-11-16T12:42:14Z</time>
        <extensions>
          <gpxtpx:TrackPointExtension xmlns:gpxtpx="http://www.garmin.com/xmlschemas/TrackPointExtension/v1">
            <gpxtpx:hr>115</gpxtpx:hr>
          </gpxtpx:TrackPointExtension>
        </extensions>
      </trkpt>
      <trkpt lat="48.61557" lon="2.00278">
        <ele>125.2</ele>
        <time>2025-11-16T12:42:16Z</time>
        <extensions>
          <gpxtpx:TrackPointExtension xmlns:gpxtpx="http://www.garmin.com/xmlschemas/TrackPointExtension/v1">
            <gpxtpx:hr>116</gpxtpx:hr>
          </gpxtpx:TrackPointExtension>
        </extensions>
      </trkpt>
      <trkpt lat="48.61555" lon="2.00281">
        <ele>125.6</ele>
        <time>2025-11-16T12:42:18Z</time>
        <extensions>
          <gpxtpx:TrackPointExtension xmlns:gpxtpx="http://www.garmin.com/xmlschemas/TrackPointExtension/v1">
            <gpxtpx:hr>116</gpxtpx:hr>
          </gpxtpx:TrackPointExtension>
        </extensions>
      </trkpt>
      <trkpt lat="48.61552" lon="2.00284">
        <ele>126</ele>
        <time>2025-11-16T12:42:20Z</time>
        <extensions>
          <gpxtpx:TrackPointExtension xmlns:gpxtpx="http://www.garmin.com/xmlschemas/TrackPointExtension/v1">
            <gpxtpx:hr>115</gpxtpx:hr>
          </gpxtpx:TrackPointExtension>
        </extensions>
      </trkpt>
      <trkpt lat="48.6155" lon="2.00285">
        <ele>126.2</ele>
        <time>2025-11-16T12:42:21Z</time>
        <extensions>
          <gpxtpx:TrackPointExtension xmlns:gpxtpx="http://www.garmin.com/xmlschemas/TrackPointExtension/v1">
            <gpxtpx:hr>116</gpxtpx:hr>
          </gpxtpx:TrackPointExtension>
        </extensions>
      </trkpt>
      <trkpt lat="48.61548" lon="2.00288">
        <ele>126.4</ele>
        <time>2025-11-16T12:42:23Z</time>
        <extensions>
          <gpxtpx:TrackPointExtension xmlns:gpxtpx="http://www.garmin.com/xmlschemas/TrackPointExtension/v1">
            <gpxtpx:hr>116</gpxtpx:hr>
          </gpxtpx:TrackPointExtension>
        </extensions>
      </trkpt>
      <trkpt lat="48.61546" lon="2.0029">
        <ele>126.6</ele>
        <time>2025-11-16T12:42:25Z</time>
        <extensions>
          <gpxtpx:TrackPointExtension xmlns:gpxtpx="http://www.garmin.com/xmlschemas/TrackPointExtension/v1">
            <gpxtpx:hr>116</gpxtpx:hr>
          </gpxtpx:TrackPointExtension>
        </extensions>
      </trkpt>
      <trkpt lat="48.61544" lon="2.00292">
        <ele>126.8</ele>
        <time>2025-11-16T12:42:27Z</time>
        <extensions>
          <gpxtpx:TrackPointExtension xmlns:gpxtpx="http://www.garmin.com/xmlschemas/TrackPointExtension/v1">
            <gpxtpx:hr>116</gpxtpx:hr>
          </gpxtpx:TrackPointExtension>
        </extensions>
      </trkpt>
      <trkpt lat="48.61544" lon="2.00295">
        <ele>127</ele>
        <time>2025-11-16T12:42:29Z</time>
        <extensions>
          <gpxtpx:TrackPointExtension xmlns:gpxtpx="http://www.garmin.com/xmlschemas/TrackPointExtension/v1">
            <gpxtpx:hr>115</gpxtpx:hr>
          </gpxtpx:TrackPointExtension>
        </extensions>
      </trkpt>
      <trkpt lat="48.61544" lon="2.00299">
        <ele>127.2</ele>
        <time>2025-11-16T12:42:31Z</time>
        <extensions>
          <gpxtpx:TrackPointExtension xmlns:gpxtpx="http://www.garmin.com/xmlschemas/TrackPointExtension/v1">
            <gpxtpx:hr>115</gpxtpx:hr>
          </gpxtpx:TrackPointExtension>
        </extensions>
      </trkpt>
      <trkpt lat="48.61546" lon="2.00304">
        <ele>127.6</ele>
        <time>2025-11-16T12:42:33Z</time>
        <extensions>
          <gpxtpx:TrackPointExtension xmlns:gpxtpx="http://www.garmin.com/xmlschemas/TrackPointExtension/v1">
            <gpxtpx:hr>115</gpxtpx:hr>
          </gpxtpx:TrackPointExtension>
        </extensions>
      </trkpt>
      <trkpt lat="48.61547" lon="2.00306">
        <ele>127.8</ele>
        <time>2025-11-16T12:42:34Z</time>
        <extensions>
          <gpxtpx:TrackPointExtension xmlns:gpxtpx="http://www.garmin.com/xmlschemas/TrackPointExtension/v1">
            <gpxtpx:hr>115</gpxtpx:hr>
          </gpxtpx:TrackPointExtension>
        </extensions>
      </trkpt>
      <trkpt lat="48.61548" lon="2.00309">
        <ele>127.8</ele>
        <time>2025-11-16T12:42:35Z</time>
        <extensions>
          <gpxtpx:TrackPointExtension xmlns:gpxtpx="http://www.garmin.com/xmlschemas/TrackPointExtension/v1">
            <gpxtpx:hr>115</gpxtpx:hr>
          </gpxtpx:TrackPointExtension>
        </extensions>
      </trkpt>
      <trkpt lat="48.61549" lon="2.00314">
        <ele>128.2</ele>
        <time>2025-11-16T12:42:37Z</time>
        <extensions>
          <gpxtpx:TrackPointExtension xmlns:gpxtpx="http://www.garmin.com/xmlschemas/TrackPointExtension/v1">
            <gpxtpx:hr>115</gpxtpx:hr>
          </gpxtpx:TrackPointExtension>
        </extensions>
      </trkpt>
      <trkpt lat="48.61551" lon="2.00318">
        <ele>128.4</ele>
        <time>2025-11-16T12:42:39Z</time>
        <extensions>
          <gpxtpx:TrackPointExtension xmlns:gpxtpx="http://www.garmin.com/xmlschemas/TrackPointExtension/v1">
            <gpxtpx:hr>115</gpxtpx:hr>
          </gpxtpx:TrackPointExtension>
        </extensions>
      </trkpt>
      <trkpt lat="48.61552" lon="2.00322">
        <ele>128.6</ele>
        <time>2025-11-16T12:42:41Z</time>
        <extensions>
          <gpxtpx:TrackPointExtension xmlns:gpxtpx="http://www.garmin.com/xmlschemas/TrackPointExtension/v1">
            <gpxtpx:hr>115</gpxtpx:hr>
          </gpxtpx:TrackPointExtension>
        </extensions>
      </trkpt>
      <trkpt lat="48.61553" lon="2.00325">
        <ele>129</ele>
        <time>2025-11-16T12:42:43Z</time>
        <extensions>
          <gpxtpx:TrackPointExtension xmlns:gpxtpx="http://www.garmin.com/xmlschemas/TrackPointExtension/v1">
            <gpxtpx:hr>116</gpxtpx:hr>
          </gpxtpx:TrackPointExtension>
        </extensions>
      </trkpt>
      <trkpt lat="48.61555" lon="2.00329">
        <ele>129.2</ele>
        <time>2025-11-16T12:42:45Z</time>
        <extensions>
          <gpxtpx:TrackPointExtension xmlns:gpxtpx="http://www.garmin.com/xmlschemas/TrackPointExtension/v1">
            <gpxtpx:hr>116</gpxtpx:hr>
          </gpxtpx:TrackPointExtension>
        </extensions>
      </trkpt>
      <trkpt lat="48.61556" lon="2.00333">
        <ele>129.4</ele>
        <time>2025-11-16T12:42:47Z</time>
        <extensions>
          <gpxtpx:TrackPointExtension xmlns:gpxtpx="http://www.garmin.com/xmlschemas/TrackPointExtension/v1">
            <gpxtpx:hr>116</gpxtpx:hr>
          </gpxtpx:TrackPointExtension>
        </extensions>
      </trkpt>
      <trkpt lat="48.61558" lon="2.00337">
        <ele>129.6</ele>
        <time>2025-11-16T12:42:49Z</time>
        <extensions>
          <gpxtpx:TrackPointExtension xmlns:gpxtpx="http://www.garmin.com/xmlschemas/TrackPointExtension/v1">
            <gpxtpx:hr>116</gpxtpx:hr>
          </gpxtpx:TrackPointExtension>
        </extensions>
      </trkpt>
      <trkpt lat="48.61559" lon="2.00339">
        <ele>129.8</ele>
        <time>2025-11-16T12:42:50Z</time>
        <extensions>
          <gpxtpx:TrackPointExtension xmlns:gpxtpx="http://www.garmin.com/xmlschemas/TrackPointExtension/v1">
            <gpxtpx:hr>116</gpxtpx:hr>
          </gpxtpx:TrackPointExtension>
        </extensions>
      </trkpt>
      <trkpt lat="48.61561" lon="2.00343">
        <ele>130</ele>
        <time>2025-11-16T12:42:52Z</time>
        <extensions>
          <gpxtpx:TrackPointExtension xmlns:gpxtpx="http://www.garmin.com/xmlschemas/TrackPointExtension/v1">
            <gpxtpx:hr>116</gpxtpx:hr>
          </gpxtpx:TrackPointExtension>
        </extensions>
      </trkpt>
      <trkpt lat="48.61563" lon="2.00347">
        <ele>130.2</ele>
        <time>2025-11-16T12:42:54Z</time>
        <extensions>
          <gpxtpx:TrackPointExtension xmlns:gpxtpx="http://www.garmin.com/xmlschemas/TrackPointExtension/v1">
            <gpxtpx:hr>116</gpxtpx:hr>
          </gpxtpx:TrackPointExtension>
        </extensions>
      </trkpt>
      <trkpt lat="48.61565" lon="2.00351">
        <ele>130.4</ele>
        <time>2025-11-16T12:42:56Z</time>
        <extensions>
          <gpxtpx:TrackPointExtension xmlns:gpxtpx="http://www.garmin.com/xmlschemas/TrackPointExtension/v1">
            <gpxtpx:hr>116</gpxtpx:hr>
          </gpxtpx:TrackPointExtension>
        </extensions>
      </trkpt>
      <trkpt lat="48.61567" lon="2.00355">
        <ele>130.6</ele>
        <time>2025-11-16T12:42:58Z</time>
        <extensions>
          <gpxtpx:TrackPointExtension xmlns:gpxtpx="http://www.garmin.com/xmlschemas/TrackPointExtension/v1">
            <gpxtpx:hr>116</gpxtpx:hr>
          </gpxtpx:TrackPointExtension>
        </extensions>
      </trkpt>
      <trkpt lat="48.61568" lon="2.00358">
        <ele>130.8</ele>
        <time>2025-11-16T12:43:00Z</time>
        <extensions>
          <gpxtpx:TrackPointExtension xmlns:gpxtpx="http://www.garmin.com/xmlschemas/TrackPointExtension/v1">
            <gpxtpx:hr>116</gpxtpx:hr>
          </gpxtpx:TrackPointExtension>
        </extensions>
      </trkpt>
      <trkpt lat="48.6157" lon="2.0036">
        <ele>130.8</ele>
        <time>2025-11-16T12:43:01Z</time>
        <extensions>
          <gpxtpx:TrackPointExtension xmlns:gpxtpx="http://www.garmin.com/xmlschemas/TrackPointExtension/v1">
            <gpxtpx:hr>116</gpxtpx:hr>
          </gpxtpx:TrackPointExtension>
        </extensions>
      </trkpt>
      <trkpt lat="48.61572" lon="2.00365">
        <ele>130.8</ele>
        <time>2025-11-16T12:43:03Z</time>
        <extensions>
          <gpxtpx:TrackPointExtension xmlns:gpxtpx="http://www.garmin.com/xmlschemas/TrackPointExtension/v1">
            <gpxtpx:hr>116</gpxtpx:hr>
          </gpxtpx:TrackPointExtension>
        </extensions>
      </trkpt>
      <trkpt lat="48.61573" lon="2.00367">
        <ele>131</ele>
        <time>2025-11-16T12:43:04Z</time>
        <extensions>
          <gpxtpx:TrackPointExtension xmlns:gpxtpx="http://www.garmin.com/xmlschemas/TrackPointExtension/v1">
            <gpxtpx:hr>116</gpxtpx:hr>
          </gpxtpx:TrackPointExtension>
        </extensions>
      </trkpt>
      <trkpt lat="48.61575" lon="2.00371">
        <ele>131</ele>
        <time>2025-11-16T12:43:06Z</time>
        <extensions>
          <gpxtpx:TrackPointExtension xmlns:gpxtpx="http://www.garmin.com/xmlschemas/TrackPointExtension/v1">
            <gpxtpx:hr>116</gpxtpx:hr>
          </gpxtpx:TrackPointExtension>
        </extensions>
      </trkpt>
      <trkpt lat="48.61576" lon="2.00376">
        <ele>131</ele>
        <time>2025-11-16T12:43:08Z</time>
        <extensions>
          <gpxtpx:TrackPointExtension xmlns:gpxtpx="http://www.garmin.com/xmlschemas/TrackPointExtension/v1">
            <gpxtpx:hr>116</gpxtpx:hr>
          </gpxtpx:TrackPointExtension>
        </extensions>
      </trkpt>
      <trkpt lat="48.61578" lon="2.0038">
        <ele>131</ele>
        <time>2025-11-16T12:43:10Z</time>
        <extensions>
          <gpxtpx:TrackPointExtension xmlns:gpxtpx="http://www.garmin.com/xmlschemas/TrackPointExtension/v1">
            <gpxtpx:hr>116</gpxtpx:hr>
          </gpxtpx:TrackPointExtension>
        </extensions>
      </trkpt>
      <trkpt lat="48.6158" lon="2.00383">
        <ele>131</ele>
        <time>2025-11-16T12:43:12Z</time>
        <extensions>
          <gpxtpx:TrackPointExtension xmlns:gpxtpx="http://www.garmin.com/xmlschemas/TrackPointExtension/v1">
            <gpxtpx:hr>116</gpxtpx:hr>
          </gpxtpx:TrackPointExtension>
        </extensions>
      </trkpt>
      <trkpt lat="48.61581" lon="2.00387">
        <ele>131.2</ele>
        <time>2025-11-16T12:43:14Z</time>
        <extensions>
          <gpxtpx:TrackPointExtension xmlns:gpxtpx="http://www.garmin.com/xmlschemas/TrackPointExtension/v1">
            <gpxtpx:hr>116</gpxtpx:hr>
          </gpxtpx:TrackPointExtension>
        </extensions>
      </trkpt>
      <trkpt lat="48.61583" lon="2.00389">
        <ele>131.2</ele>
        <time>2025-11-16T12:43:15Z</time>
        <extensions>
          <gpxtpx:TrackPointExtension xmlns:gpxtpx="http://www.garmin.com/xmlschemas/TrackPointExtension/v1">
            <gpxtpx:hr>117</gpxtpx:hr>
          </gpxtpx:TrackPointExtension>
        </extensions>
      </trkpt>
      <trkpt lat="48.61584" lon="2.00393">
        <ele>131.2</ele>
        <time>2025-11-16T12:43:17Z</time>
        <extensions>
          <gpxtpx:TrackPointExtension xmlns:gpxtpx="http://www.garmin.com/xmlschemas/TrackPointExtension/v1">
            <gpxtpx:hr>117</gpxtpx:hr>
          </gpxtpx:TrackPointExtension>
        </extensions>
      </trkpt>
      <trkpt lat="48.61587" lon="2.00397">
        <ele>131.4</ele>
        <time>2025-11-16T12:43:19Z</time>
        <extensions>
          <gpxtpx:TrackPointExtension xmlns:gpxtpx="http://www.garmin.com/xmlschemas/TrackPointExtension/v1">
            <gpxtpx:hr>117</gpxtpx:hr>
          </gpxtpx:TrackPointExtension>
        </extensions>
      </trkpt>
      <trkpt lat="48.61589" lon="2.004">
        <ele>131.4</ele>
        <time>2025-11-16T12:43:21Z</time>
        <extensions>
          <gpxtpx:TrackPointExtension xmlns:gpxtpx="http://www.garmin.com/xmlschemas/TrackPointExtension/v1">
            <gpxtpx:hr>117</gpxtpx:hr>
          </gpxtpx:TrackPointExtension>
        </extensions>
      </trkpt>
      <trkpt lat="48.61591" lon="2.00404">
        <ele>131.2</ele>
        <time>2025-11-16T12:43:23Z</time>
        <extensions>
          <gpxtpx:TrackPointExtension xmlns:gpxtpx="http://www.garmin.com/xmlschemas/TrackPointExtension/v1">
            <gpxtpx:hr>117</gpxtpx:hr>
          </gpxtpx:TrackPointExtension>
        </extensions>
      </trkpt>
      <trkpt lat="48.61593" lon="2.00407">
        <ele>131.2</ele>
        <time>2025-11-16T12:43:25Z</time>
        <extensions>
          <gpxtpx:TrackPointExtension xmlns:gpxtpx="http://www.garmin.com/xmlschemas/TrackPointExtension/v1">
            <gpxtpx:hr>117</gpxtpx:hr>
          </gpxtpx:TrackPointExtension>
        </extensions>
      </trkpt>
      <trkpt lat="48.61594" lon="2.00411">
        <ele>131</ele>
        <time>2025-11-16T12:43:27Z</time>
        <extensions>
          <gpxtpx:TrackPointExtension xmlns:gpxtpx="http://www.garmin.com/xmlschemas/TrackPointExtension/v1">
            <gpxtpx:hr>117</gpxtpx:hr>
          </gpxtpx:TrackPointExtension>
        </extensions>
      </trkpt>
      <trkpt lat="48.61595" lon="2.00415">
        <ele>130.8</ele>
        <time>2025-11-16T12:43:29Z</time>
        <extensions>
          <gpxtpx:TrackPointExtension xmlns:gpxtpx="http://www.garmin.com/xmlschemas/TrackPointExtension/v1">
            <gpxtpx:hr>117</gpxtpx:hr>
          </gpxtpx:TrackPointExtension>
        </extensions>
      </trkpt>
      <trkpt lat="48.61597" lon="2.00419">
        <ele>130.8</ele>
        <time>2025-11-16T12:43:31Z</time>
        <extensions>
          <gpxtpx:TrackPointExtension xmlns:gpxtpx="http://www.garmin.com/xmlschemas/TrackPointExtension/v1">
            <gpxtpx:hr>118</gpxtpx:hr>
          </gpxtpx:TrackPointExtension>
        </extensions>
      </trkpt>
      <trkpt lat="48.61599" lon="2.00424">
        <ele>130.8</ele>
        <time>2025-11-16T12:43:33Z</time>
        <extensions>
          <gpxtpx:TrackPointExtension xmlns:gpxtpx="http://www.garmin.com/xmlschemas/TrackPointExtension/v1">
            <gpxtpx:hr>118</gpxtpx:hr>
          </gpxtpx:TrackPointExtension>
        </extensions>
      </trkpt>
      <trkpt lat="48.616" lon="2.00428">
        <ele>130.8</ele>
        <time>2025-11-16T12:43:35Z</time>
        <extensions>
          <gpxtpx:TrackPointExtension xmlns:gpxtpx="http://www.garmin.com/xmlschemas/TrackPointExtension/v1">
            <gpxtpx:hr>117</gpxtpx:hr>
          </gpxtpx:TrackPointExtension>
        </extensions>
      </trkpt>
      <trkpt lat="48.61602" lon="2.00432">
        <ele>130.6</ele>
        <time>2025-11-16T12:43:37Z</time>
        <extensions>
          <gpxtpx:TrackPointExtension xmlns:gpxtpx="http://www.garmin.com/xmlschemas/TrackPointExtension/v1">
            <gpxtpx:hr>116</gpxtpx:hr>
          </gpxtpx:TrackPointExtension>
        </extensions>
      </trkpt>
      <trkpt lat="48.61604" lon="2.00435">
        <ele>130.6</ele>
        <time>2025-11-16T12:43:39Z</time>
        <extensions>
          <gpxtpx:TrackPointExtension xmlns:gpxtpx="http://www.garmin.com/xmlschemas/TrackPointExtension/v1">
            <gpxtpx:hr>116</gpxtpx:hr>
          </gpxtpx:TrackPointExtension>
        </extensions>
      </trkpt>
      <trkpt lat="48.61605" lon="2.00438">
        <ele>130.4</ele>
        <time>2025-11-16T12:43:41Z</time>
        <extensions>
          <gpxtpx:TrackPointExtension xmlns:gpxtpx="http://www.garmin.com/xmlschemas/TrackPointExtension/v1">
            <gpxtpx:hr>116</gpxtpx:hr>
          </gpxtpx:TrackPointExtension>
        </extensions>
      </trkpt>
      <trkpt lat="48.61607" lon="2.00441">
        <ele>130.4</ele>
        <time>2025-11-16T12:43:43Z</time>
        <extensions>
          <gpxtpx:TrackPointExtension xmlns:gpxtpx="http://www.garmin.com/xmlschemas/TrackPointExtension/v1">
            <gpxtpx:hr>116</gpxtpx:hr>
          </gpxtpx:TrackPointExtension>
        </extensions>
      </trkpt>
      <trkpt lat="48.61608" lon="2.00445">
        <ele>130.4</ele>
        <time>2025-11-16T12:43:45Z</time>
        <extensions>
          <gpxtpx:TrackPointExtension xmlns:gpxtpx="http://www.garmin.com/xmlschemas/TrackPointExtension/v1">
            <gpxtpx:hr>116</gpxtpx:hr>
          </gpxtpx:TrackPointExtension>
        </extensions>
      </trkpt>
      <trkpt lat="48.6161" lon="2.00449">
        <ele>130.4</ele>
        <time>2025-11-16T12:43:47Z</time>
        <extensions>
          <gpxtpx:TrackPointExtension xmlns:gpxtpx="http://www.garmin.com/xmlschemas/TrackPointExtension/v1">
            <gpxtpx:hr>115</gpxtpx:hr>
          </gpxtpx:TrackPointExtension>
        </extensions>
      </trkpt>
      <trkpt lat="48.61611" lon="2.00451">
        <ele>130.4</ele>
        <time>2025-11-16T12:43:48Z</time>
        <extensions>
          <gpxtpx:TrackPointExtension xmlns:gpxtpx="http://www.garmin.com/xmlschemas/TrackPointExtension/v1">
            <gpxtpx:hr>115</gpxtpx:hr>
          </gpxtpx:TrackPointExtension>
        </extensions>
      </trkpt>
      <trkpt lat="48.61613" lon="2.00453">
        <ele>130.4</ele>
        <time>2025-11-16T12:43:49Z</time>
        <extensions>
          <gpxtpx:TrackPointExtension xmlns:gpxtpx="http://www.garmin.com/xmlschemas/TrackPointExtension/v1">
            <gpxtpx:hr>114</gpxtpx:hr>
          </gpxtpx:TrackPointExtension>
        </extensions>
      </trkpt>
      <trkpt lat="48.61614" lon="2.00456">
        <ele>130.2</ele>
        <time>2025-11-16T12:43:50Z</time>
        <extensions>
          <gpxtpx:TrackPointExtension xmlns:gpxtpx="http://www.garmin.com/xmlschemas/TrackPointExtension/v1">
            <gpxtpx:hr>114</gpxtpx:hr>
          </gpxtpx:TrackPointExtension>
        </extensions>
      </trkpt>
      <trkpt lat="48.61616" lon="2.00458">
        <ele>130.2</ele>
        <time>2025-11-16T12:43:51Z</time>
        <extensions>
          <gpxtpx:TrackPointExtension xmlns:gpxtpx="http://www.garmin.com/xmlschemas/TrackPointExtension/v1">
            <gpxtpx:hr>114</gpxtpx:hr>
          </gpxtpx:TrackPointExtension>
        </extensions>
      </trkpt>
      <trkpt lat="48.61617" lon="2.00461">
        <ele>130.2</ele>
        <time>2025-11-16T12:43:52Z</time>
        <extensions>
          <gpxtpx:TrackPointExtension xmlns:gpxtpx="http://www.garmin.com/xmlschemas/TrackPointExtension/v1">
            <gpxtpx:hr>114</gpxtpx:hr>
          </gpxtpx:TrackPointExtension>
        </extensions>
      </trkpt>
      <trkpt lat="48.61619" lon="2.00464">
        <ele>130.2</ele>
        <time>2025-11-16T12:43:53Z</time>
        <extensions>
          <gpxtpx:TrackPointExtension xmlns:gpxtpx="http://www.garmin.com/xmlschemas/TrackPointExtension/v1">
            <gpxtpx:hr>114</gpxtpx:hr>
          </gpxtpx:TrackPointExtension>
        </extensions>
      </trkpt>
      <trkpt lat="48.6162" lon="2.00466">
        <ele>130.4</ele>
        <time>2025-11-16T12:43:54Z</time>
        <extensions>
          <gpxtpx:TrackPointExtension xmlns:gpxtpx="http://www.garmin.com/xmlschemas/TrackPointExtension/v1">
            <gpxtpx:hr>114</gpxtpx:hr>
          </gpxtpx:TrackPointExtension>
        </extensions>
      </trkpt>
      <trkpt lat="48.61622" lon="2.00469">
        <ele>130.4</ele>
        <time>2025-11-16T12:43:55Z</time>
        <extensions>
          <gpxtpx:TrackPointExtension xmlns:gpxtpx="http://www.garmin.com/xmlschemas/TrackPointExtension/v1">
            <gpxtpx:hr>113</gpxtpx:hr>
          </gpxtpx:TrackPointExtension>
        </extensions>
      </trkpt>
      <trkpt lat="48.61623" lon="2.00471">
        <ele>130.4</ele>
        <time>2025-11-16T12:43:56Z</time>
        <extensions>
          <gpxtpx:TrackPointExtension xmlns:gpxtpx="http://www.garmin.com/xmlschemas/TrackPointExtension/v1">
            <gpxtpx:hr>113</gpxtpx:hr>
          </gpxtpx:TrackPointExtension>
        </extensions>
      </trkpt>
      <trkpt lat="48.61625" lon="2.00473">
        <ele>130.4</ele>
        <time>2025-11-16T12:43:57Z</time>
        <extensions>
          <gpxtpx:TrackPointExtension xmlns:gpxtpx="http://www.garmin.com/xmlschemas/TrackPointExtension/v1">
            <gpxtpx:hr>113</gpxtpx:hr>
          </gpxtpx:TrackPointExtension>
        </extensions>
      </trkpt>
      <trkpt lat="48.61627" lon="2.00476">
        <ele>130.4</ele>
        <time>2025-11-16T12:43:58Z</time>
        <extensions>
          <gpxtpx:TrackPointExtension xmlns:gpxtpx="http://www.garmin.com/xmlschemas/TrackPointExtension/v1">
            <gpxtpx:hr>113</gpxtpx:hr>
          </gpxtpx:TrackPointExtension>
        </extensions>
      </trkpt>
      <trkpt lat="48.61629" lon="2.00479">
        <ele>130.6</ele>
        <time>2025-11-16T12:43:59Z</time>
        <extensions>
          <gpxtpx:TrackPointExtension xmlns:gpxtpx="http://www.garmin.com/xmlschemas/TrackPointExtension/v1">
            <gpxtpx:hr>113</gpxtpx:hr>
          </gpxtpx:TrackPointExtension>
        </extensions>
      </trkpt>
      <trkpt lat="48.61631" lon="2.00482">
        <ele>130.6</ele>
        <time>2025-11-16T12:44:00Z</time>
        <extensions>
          <gpxtpx:TrackPointExtension xmlns:gpxtpx="http://www.garmin.com/xmlschemas/TrackPointExtension/v1">
            <gpxtpx:hr>113</gpxtpx:hr>
          </gpxtpx:TrackPointExtension>
        </extensions>
      </trkpt>
      <trkpt lat="48.61633" lon="2.00486">
        <ele>130.6</ele>
        <time>2025-11-16T12:44:01Z</time>
        <extensions>
          <gpxtpx:TrackPointExtension xmlns:gpxtpx="http://www.garmin.com/xmlschemas/TrackPointExtension/v1">
            <gpxtpx:hr>113</gpxtpx:hr>
          </gpxtpx:TrackPointExtension>
        </extensions>
      </trkpt>
      <trkpt lat="48.61635" lon="2.00489">
        <ele>130.6</ele>
        <time>2025-11-16T12:44:02Z</time>
        <extensions>
          <gpxtpx:TrackPointExtension xmlns:gpxtpx="http://www.garmin.com/xmlschemas/TrackPointExtension/v1">
            <gpxtpx:hr>113</gpxtpx:hr>
          </gpxtpx:TrackPointExtension>
        </extensions>
      </trkpt>
      <trkpt lat="48.61637" lon="2.00493">
        <ele>130.6</ele>
        <time>2025-11-16T12:44:03Z</time>
        <extensions>
          <gpxtpx:TrackPointExtension xmlns:gpxtpx="http://www.garmin.com/xmlschemas/TrackPointExtension/v1">
            <gpxtpx:hr>113</gpxtpx:hr>
          </gpxtpx:TrackPointExtension>
        </extensions>
      </trkpt>
      <trkpt lat="48.61639" lon="2.00497">
        <ele>130.6</ele>
        <time>2025-11-16T12:44:04Z</time>
        <extensions>
          <gpxtpx:TrackPointExtension xmlns:gpxtpx="http://www.garmin.com/xmlschemas/TrackPointExtension/v1">
            <gpxtpx:hr>113</gpxtpx:hr>
          </gpxtpx:TrackPointExtension>
        </extensions>
      </trkpt>
      <trkpt lat="48.6164" lon="2.00501">
        <ele>130.6</ele>
        <time>2025-11-16T12:44:05Z</time>
        <extensions>
          <gpxtpx:TrackPointExtension xmlns:gpxtpx="http://www.garmin.com/xmlschemas/TrackPointExtension/v1">
            <gpxtpx:hr>113</gpxtpx:hr>
          </gpxtpx:TrackPointExtension>
        </extensions>
      </trkpt>
      <trkpt lat="48.61642" lon="2.00505">
        <ele>130.6</ele>
        <time>2025-11-16T12:44:06Z</time>
        <extensions>
          <gpxtpx:TrackPointExtension xmlns:gpxtpx="http://www.garmin.com/xmlschemas/TrackPointExtension/v1">
            <gpxtpx:hr>113</gpxtpx:hr>
          </gpxtpx:TrackPointExtension>
        </extensions>
      </trkpt>
      <trkpt lat="48.61643" lon="2.00508">
        <ele>130.6</ele>
        <time>2025-11-16T12:44:07Z</time>
        <extensions>
          <gpxtpx:TrackPointExtension xmlns:gpxtpx="http://www.garmin.com/xmlschemas/TrackPointExtension/v1">
            <gpxtpx:hr>113</gpxtpx:hr>
          </gpxtpx:TrackPointExtension>
        </extensions>
      </trkpt>
      <trkpt lat="48.61645" lon="2.00511">
        <ele>130.6</ele>
        <time>2025-11-16T12:44:08Z</time>
        <extensions>
          <gpxtpx:TrackPointExtension xmlns:gpxtpx="http://www.garmin.com/xmlschemas/TrackPointExtension/v1">
            <gpxtpx:hr>113</gpxtpx:hr>
          </gpxtpx:TrackPointExtension>
        </extensions>
      </trkpt>
      <trkpt lat="48.61646" lon="2.00513">
        <ele>130.6</ele>
        <time>2025-11-16T12:44:09Z</time>
        <extensions>
          <gpxtpx:TrackPointExtension xmlns:gpxtpx="http://www.garmin.com/xmlschemas/TrackPointExtension/v1">
            <gpxtpx:hr>113</gpxtpx:hr>
          </gpxtpx:TrackPointExtension>
        </extensions>
      </trkpt>
      <trkpt lat="48.61648" lon="2.00516">
        <ele>130.6</ele>
        <time>2025-11-16T12:44:10Z</time>
        <extensions>
          <gpxtpx:TrackPointExtension xmlns:gpxtpx="http://www.garmin.com/xmlschemas/TrackPointExtension/v1">
            <gpxtpx:hr>113</gpxtpx:hr>
          </gpxtpx:TrackPointExtension>
        </extensions>
      </trkpt>
      <trkpt lat="48.6165" lon="2.00518">
        <ele>130.6</ele>
        <time>2025-11-16T12:44:11Z</time>
        <extensions>
          <gpxtpx:TrackPointExtension xmlns:gpxtpx="http://www.garmin.com/xmlschemas/TrackPointExtension/v1">
            <gpxtpx:hr>113</gpxtpx:hr>
          </gpxtpx:TrackPointExtension>
        </extensions>
      </trkpt>
      <trkpt lat="48.61652" lon="2.0052">
        <ele>130.6</ele>
        <time>2025-11-16T12:44:12Z</time>
        <extensions>
          <gpxtpx:TrackPointExtension xmlns:gpxtpx="http://www.garmin.com/xmlschemas/TrackPointExtension/v1">
            <gpxtpx:hr>113</gpxtpx:hr>
          </gpxtpx:TrackPointExtension>
        </extensions>
      </trkpt>
      <trkpt lat="48.61653" lon="2.00522">
        <ele>130.8</ele>
        <time>2025-11-16T12:44:13Z</time>
        <extensions>
          <gpxtpx:TrackPointExtension xmlns:gpxtpx="http://www.garmin.com/xmlschemas/TrackPointExtension/v1">
            <gpxtpx:hr>113</gpxtpx:hr>
          </gpxtpx:TrackPointExtension>
        </extensions>
      </trkpt>
      <trkpt lat="48.61655" lon="2.00524">
        <ele>130.8</ele>
        <time>2025-11-16T12:44:14Z</time>
        <extensions>
          <gpxtpx:TrackPointExtension xmlns:gpxtpx="http://www.garmin.com/xmlschemas/TrackPointExtension/v1">
            <gpxtpx:hr>113</gpxtpx:hr>
          </gpxtpx:TrackPointExtension>
        </extensions>
      </trkpt>
      <trkpt lat="48.61656" lon="2.00526">
        <ele>130.8</ele>
        <time>2025-11-16T12:44:15Z</time>
        <extensions>
          <gpxtpx:TrackPointExtension xmlns:gpxtpx="http://www.garmin.com/xmlschemas/TrackPointExtension/v1">
            <gpxtpx:hr>113</gpxtpx:hr>
          </gpxtpx:TrackPointExtension>
        </extensions>
      </trkpt>
      <trkpt lat="48.61658" lon="2.0053">
        <ele>131</ele>
        <time>2025-11-16T12:44:17Z</time>
        <extensions>
          <gpxtpx:TrackPointExtension xmlns:gpxtpx="http://www.garmin.com/xmlschemas/TrackPointExtension/v1">
            <gpxtpx:hr>113</gpxtpx:hr>
          </gpxtpx:TrackPointExtension>
        </extensions>
      </trkpt>
      <trkpt lat="48.61659" lon="2.00535">
        <ele>131</ele>
        <time>2025-11-16T12:44:19Z</time>
        <extensions>
          <gpxtpx:TrackPointExtension xmlns:gpxtpx="http://www.garmin.com/xmlschemas/TrackPointExtension/v1">
            <gpxtpx:hr>113</gpxtpx:hr>
          </gpxtpx:TrackPointExtension>
        </extensions>
      </trkpt>
      <trkpt lat="48.6166" lon="2.00537">
        <ele>131.2</ele>
        <time>2025-11-16T12:44:21Z</time>
        <extensions>
          <gpxtpx:TrackPointExtension xmlns:gpxtpx="http://www.garmin.com/xmlschemas/TrackPointExtension/v1">
            <gpxtpx:hr>114</gpxtpx:hr>
          </gpxtpx:TrackPointExtension>
        </extensions>
      </trkpt>
      <trkpt lat="48.61662" lon="2.0054">
        <ele>131.6</ele>
        <time>2025-11-16T12:44:24Z</time>
        <extensions>
          <gpxtpx:TrackPointExtension xmlns:gpxtpx="http://www.garmin.com/xmlschemas/TrackPointExtension/v1">
            <gpxtpx:hr>114</gpxtpx:hr>
          </gpxtpx:TrackPointExtension>
        </extensions>
      </trkpt>
      <trkpt lat="48.61663" lon="2.00542">
        <ele>131.8</ele>
        <time>2025-11-16T12:44:26Z</time>
        <extensions>
          <gpxtpx:TrackPointExtension xmlns:gpxtpx="http://www.garmin.com/xmlschemas/TrackPointExtension/v1">
            <gpxtpx:hr>114</gpxtpx:hr>
          </gpxtpx:TrackPointExtension>
        </extensions>
      </trkpt>
      <trkpt lat="48.61665" lon="2.00545">
        <ele>132</ele>
        <time>2025-11-16T12:44:28Z</time>
        <extensions>
          <gpxtpx:TrackPointExtension xmlns:gpxtpx="http://www.garmin.com/xmlschemas/TrackPointExtension/v1">
            <gpxtpx:hr>114</gpxtpx:hr>
          </gpxtpx:TrackPointExtension>
        </extensions>
      </trkpt>
      <trkpt lat="48.61666" lon="2.00549">
        <ele>132.2</ele>
        <time>2025-11-16T12:44:30Z</time>
        <extensions>
          <gpxtpx:TrackPointExtension xmlns:gpxtpx="http://www.garmin.com/xmlschemas/TrackPointExtension/v1">
            <gpxtpx:hr>114</gpxtpx:hr>
          </gpxtpx:TrackPointExtension>
        </extensions>
      </trkpt>
      <trkpt lat="48.61666" lon="2.00554">
        <ele>132.4</ele>
        <time>2025-11-16T12:44:32Z</time>
        <extensions>
          <gpxtpx:TrackPointExtension xmlns:gpxtpx="http://www.garmin.com/xmlschemas/TrackPointExtension/v1">
            <gpxtpx:hr>114</gpxtpx:hr>
          </gpxtpx:TrackPointExtension>
        </extensions>
      </trkpt>
      <trkpt lat="48.61666" lon="2.00558">
        <ele>132.4</ele>
        <time>2025-11-16T12:44:34Z</time>
        <extensions>
          <gpxtpx:TrackPointExtension xmlns:gpxtpx="http://www.garmin.com/xmlschemas/TrackPointExtension/v1">
            <gpxtpx:hr>114</gpxtpx:hr>
          </gpxtpx:TrackPointExtension>
        </extensions>
      </trkpt>
      <trkpt lat="48.61667" lon="2.00562">
        <ele>132.4</ele>
        <time>2025-11-16T12:44:36Z</time>
        <extensions>
          <gpxtpx:TrackPointExtension xmlns:gpxtpx="http://www.garmin.com/xmlschemas/TrackPointExtension/v1">
            <gpxtpx:hr>114</gpxtpx:hr>
          </gpxtpx:TrackPointExtension>
        </extensions>
      </trkpt>
      <trkpt lat="48.61668" lon="2.00566">
        <ele>132.2</ele>
        <time>2025-11-16T12:44:38Z</time>
        <extensions>
          <gpxtpx:TrackPointExtension xmlns:gpxtpx="http://www.garmin.com/xmlschemas/TrackPointExtension/v1">
            <gpxtpx:hr>114</gpxtpx:hr>
          </gpxtpx:TrackPointExtension>
        </extensions>
      </trkpt>
      <trkpt lat="48.61669" lon="2.0057">
        <ele>132.2</ele>
        <time>2025-11-16T12:44:40Z</time>
        <extensions>
          <gpxtpx:TrackPointExtension xmlns:gpxtpx="http://www.garmin.com/xmlschemas/TrackPointExtension/v1">
            <gpxtpx:hr>114</gpxtpx:hr>
          </gpxtpx:TrackPointExtension>
        </extensions>
      </trkpt>
      <trkpt lat="48.61671" lon="2.00573">
        <ele>132.2</ele>
        <time>2025-11-16T12:44:42Z</time>
        <extensions>
          <gpxtpx:TrackPointExtension xmlns:gpxtpx="http://www.garmin.com/xmlschemas/TrackPointExtension/v1">
            <gpxtpx:hr>114</gpxtpx:hr>
          </gpxtpx:TrackPointExtension>
        </extensions>
      </trkpt>
      <trkpt lat="48.61672" lon="2.00577">
        <ele>132.4</ele>
        <time>2025-11-16T12:44:44Z</time>
        <extensions>
          <gpxtpx:TrackPointExtension xmlns:gpxtpx="http://www.garmin.com/xmlschemas/TrackPointExtension/v1">
            <gpxtpx:hr>114</gpxtpx:hr>
          </gpxtpx:TrackPointExtension>
        </extensions>
      </trkpt>
      <trkpt lat="48.61673" lon="2.0058">
        <ele>132.6</ele>
        <time>2025-11-16T12:44:46Z</time>
        <extensions>
          <gpxtpx:TrackPointExtension xmlns:gpxtpx="http://www.garmin.com/xmlschemas/TrackPointExtension/v1">
            <gpxtpx:hr>113</gpxtpx:hr>
          </gpxtpx:TrackPointExtension>
        </extensions>
      </trkpt>
      <trkpt lat="48.61675" lon="2.00585">
        <ele>132.6</ele>
        <time>2025-11-16T12:44:48Z</time>
        <extensions>
          <gpxtpx:TrackPointExtension xmlns:gpxtpx="http://www.garmin.com/xmlschemas/TrackPointExtension/v1">
            <gpxtpx:hr>113</gpxtpx:hr>
          </gpxtpx:TrackPointExtension>
        </extensions>
      </trkpt>
      <trkpt lat="48.61676" lon="2.00589">
        <ele>132.8</ele>
        <time>2025-11-16T12:44:50Z</time>
        <extensions>
          <gpxtpx:TrackPointExtension xmlns:gpxtpx="http://www.garmin.com/xmlschemas/TrackPointExtension/v1">
            <gpxtpx:hr>113</gpxtpx:hr>
          </gpxtpx:TrackPointExtension>
        </extensions>
      </trkpt>
      <trkpt lat="48.61678" lon="2.00594">
        <ele>132.8</ele>
        <time>2025-11-16T12:44:52Z</time>
        <extensions>
          <gpxtpx:TrackPointExtension xmlns:gpxtpx="http://www.garmin.com/xmlschemas/TrackPointExtension/v1">
            <gpxtpx:hr>113</gpxtpx:hr>
          </gpxtpx:TrackPointExtension>
        </extensions>
      </trkpt>
      <trkpt lat="48.61679" lon="2.00598">
        <ele>133</ele>
        <time>2025-11-16T12:44:54Z</time>
        <extensions>
          <gpxtpx:TrackPointExtension xmlns:gpxtpx="http://www.garmin.com/xmlschemas/TrackPointExtension/v1">
            <gpxtpx:hr>113</gpxtpx:hr>
          </gpxtpx:TrackPointExtension>
        </extensions>
      </trkpt>
      <trkpt lat="48.61681" lon="2.00602">
        <ele>133</ele>
        <time>2025-11-16T12:44:56Z</time>
        <extensions>
          <gpxtpx:TrackPointExtension xmlns:gpxtpx="http://www.garmin.com/xmlschemas/TrackPointExtension/v1">
            <gpxtpx:hr>114</gpxtpx:hr>
          </gpxtpx:TrackPointExtension>
        </extensions>
      </trkpt>
      <trkpt lat="48.61682" lon="2.00607">
        <ele>133</ele>
        <time>2025-11-16T12:44:58Z</time>
        <extensions>
          <gpxtpx:TrackPointExtension xmlns:gpxtpx="http://www.garmin.com/xmlschemas/TrackPointExtension/v1">
            <gpxtpx:hr>114</gpxtpx:hr>
          </gpxtpx:TrackPointExtension>
        </extensions>
      </trkpt>
      <trkpt lat="48.61683" lon="2.00611">
        <ele>133</ele>
        <time>2025-11-16T12:45:00Z</time>
        <extensions>
          <gpxtpx:TrackPointExtension xmlns:gpxtpx="http://www.garmin.com/xmlschemas/TrackPointExtension/v1">
            <gpxtpx:hr>114</gpxtpx:hr>
          </gpxtpx:TrackPointExtension>
        </extensions>
      </trkpt>
      <trkpt lat="48.61685" lon="2.00615">
        <ele>133.2</ele>
        <time>2025-11-16T12:45:02Z</time>
        <extensions>
          <gpxtpx:TrackPointExtension xmlns:gpxtpx="http://www.garmin.com/xmlschemas/TrackPointExtension/v1">
            <gpxtpx:hr>113</gpxtpx:hr>
          </gpxtpx:TrackPointExtension>
        </extensions>
      </trkpt>
      <trkpt lat="48.61686" lon="2.00618">
        <ele>133.2</ele>
        <time>2025-11-16T12:45:03Z</time>
        <extensions>
          <gpxtpx:TrackPointExtension xmlns:gpxtpx="http://www.garmin.com/xmlschemas/TrackPointExtension/v1">
            <gpxtpx:hr>113</gpxtpx:hr>
          </gpxtpx:TrackPointExtension>
        </extensions>
      </trkpt>
      <trkpt lat="48.61687" lon="2.0062">
        <ele>133.2</ele>
        <time>2025-11-16T12:45:04Z</time>
        <extensions>
          <gpxtpx:TrackPointExtension xmlns:gpxtpx="http://www.garmin.com/xmlschemas/TrackPointExtension/v1">
            <gpxtpx:hr>113</gpxtpx:hr>
          </gpxtpx:TrackPointExtension>
        </extensions>
      </trkpt>
      <trkpt lat="48.61689" lon="2.00623">
        <ele>133.4</ele>
        <time>2025-11-16T12:45:05Z</time>
        <extensions>
          <gpxtpx:TrackPointExtension xmlns:gpxtpx="http://www.garmin.com/xmlschemas/TrackPointExtension/v1">
            <gpxtpx:hr>113</gpxtpx:hr>
          </gpxtpx:TrackPointExtension>
        </extensions>
      </trkpt>
      <trkpt lat="48.6169" lon="2.00627">
        <ele>133.4</ele>
        <time>2025-11-16T12:45:06Z</time>
        <extensions>
          <gpxtpx:TrackPointExtension xmlns:gpxtpx="http://www.garmin.com/xmlschemas/TrackPointExtension/v1">
            <gpxtpx:hr>114</gpxtpx:hr>
          </gpxtpx:TrackPointExtension>
        </extensions>
      </trkpt>
      <trkpt lat="48.61692" lon="2.0063">
        <ele>133.4</ele>
        <time>2025-11-16T12:45:07Z</time>
        <extensions>
          <gpxtpx:TrackPointExtension xmlns:gpxtpx="http://www.garmin.com/xmlschemas/TrackPointExtension/v1">
            <gpxtpx:hr>114</gpxtpx:hr>
          </gpxtpx:TrackPointExtension>
        </extensions>
      </trkpt>
      <trkpt lat="48.61692" lon="2.00634">
        <ele>133.4</ele>
        <time>2025-11-16T12:45:08Z</time>
        <extensions>
          <gpxtpx:TrackPointExtension xmlns:gpxtpx="http://www.garmin.com/xmlschemas/TrackPointExtension/v1">
            <gpxtpx:hr>114</gpxtpx:hr>
          </gpxtpx:TrackPointExtension>
        </extensions>
      </trkpt>
      <trkpt lat="48.61693" lon="2.00638">
        <ele>133.4</ele>
        <time>2025-11-16T12:45:09Z</time>
        <extensions>
          <gpxtpx:TrackPointExtension xmlns:gpxtpx="http://www.garmin.com/xmlschemas/TrackPointExtension/v1">
            <gpxtpx:hr>114</gpxtpx:hr>
          </gpxtpx:TrackPointExtension>
        </extensions>
      </trkpt>
      <trkpt lat="48.61695" lon="2.00642">
        <ele>133.4</ele>
        <time>2025-11-16T12:45:10Z</time>
        <extensions>
          <gpxtpx:TrackPointExtension xmlns:gpxtpx="http://www.garmin.com/xmlschemas/TrackPointExtension/v1">
            <gpxtpx:hr>114</gpxtpx:hr>
          </gpxtpx:TrackPointExtension>
        </extensions>
      </trkpt>
      <trkpt lat="48.61695" lon="2.00646">
        <ele>133.6</ele>
        <time>2025-11-16T12:45:11Z</time>
        <extensions>
          <gpxtpx:TrackPointExtension xmlns:gpxtpx="http://www.garmin.com/xmlschemas/TrackPointExtension/v1">
            <gpxtpx:hr>114</gpxtpx:hr>
          </gpxtpx:TrackPointExtension>
        </extensions>
      </trkpt>
      <trkpt lat="48.61696" lon="2.00649">
        <ele>133.6</ele>
        <time>2025-11-16T12:45:12Z</time>
        <extensions>
          <gpxtpx:TrackPointExtension xmlns:gpxtpx="http://www.garmin.com/xmlschemas/TrackPointExtension/v1">
            <gpxtpx:hr>114</gpxtpx:hr>
          </gpxtpx:TrackPointExtension>
        </extensions>
      </trkpt>
      <trkpt lat="48.61697" lon="2.00653">
        <ele>133.6</ele>
        <time>2025-11-16T12:45:13Z</time>
        <extensions>
          <gpxtpx:TrackPointExtension xmlns:gpxtpx="http://www.garmin.com/xmlschemas/TrackPointExtension/v1">
            <gpxtpx:hr>115</gpxtpx:hr>
          </gpxtpx:TrackPointExtension>
        </extensions>
      </trkpt>
      <trkpt lat="48.61698" lon="2.00656">
        <ele>133.6</ele>
        <time>2025-11-16T12:45:14Z</time>
        <extensions>
          <gpxtpx:TrackPointExtension xmlns:gpxtpx="http://www.garmin.com/xmlschemas/TrackPointExtension/v1">
            <gpxtpx:hr>115</gpxtpx:hr>
          </gpxtpx:TrackPointExtension>
        </extensions>
      </trkpt>
      <trkpt lat="48.61699" lon="2.00659">
        <ele>133.6</ele>
        <time>2025-11-16T12:45:15Z</time>
        <extensions>
          <gpxtpx:TrackPointExtension xmlns:gpxtpx="http://www.garmin.com/xmlschemas/TrackPointExtension/v1">
            <gpxtpx:hr>115</gpxtpx:hr>
          </gpxtpx:TrackPointExtension>
        </extensions>
      </trkpt>
      <trkpt lat="48.617" lon="2.00661">
        <ele>133.6</ele>
        <time>2025-11-16T12:45:16Z</time>
        <extensions>
          <gpxtpx:TrackPointExtension xmlns:gpxtpx="http://www.garmin.com/xmlschemas/TrackPointExtension/v1">
            <gpxtpx:hr>115</gpxtpx:hr>
          </gpxtpx:TrackPointExtension>
        </extensions>
      </trkpt>
      <trkpt lat="48.61701" lon="2.00664">
        <ele>133.6</ele>
        <time>2025-11-16T12:45:17Z</time>
        <extensions>
          <gpxtpx:TrackPointExtension xmlns:gpxtpx="http://www.garmin.com/xmlschemas/TrackPointExtension/v1">
            <gpxtpx:hr>115</gpxtpx:hr>
          </gpxtpx:TrackPointExtension>
        </extensions>
      </trkpt>
      <trkpt lat="48.61702" lon="2.00668">
        <ele>133.6</ele>
        <time>2025-11-16T12:45:19Z</time>
        <extensions>
          <gpxtpx:TrackPointExtension xmlns:gpxtpx="http://www.garmin.com/xmlschemas/TrackPointExtension/v1">
            <gpxtpx:hr>115</gpxtpx:hr>
          </gpxtpx:TrackPointExtension>
        </extensions>
      </trkpt>
      <trkpt lat="48.61703" lon="2.00671">
        <ele>133.6</ele>
        <time>2025-11-16T12:45:21Z</time>
        <extensions>
          <gpxtpx:TrackPointExtension xmlns:gpxtpx="http://www.garmin.com/xmlschemas/TrackPointExtension/v1">
            <gpxtpx:hr>115</gpxtpx:hr>
          </gpxtpx:TrackPointExtension>
        </extensions>
      </trkpt>
      <trkpt lat="48.61703" lon="2.00674">
        <ele>133.6</ele>
        <time>2025-11-16T12:45:23Z</time>
        <extensions>
          <gpxtpx:TrackPointExtension xmlns:gpxtpx="http://www.garmin.com/xmlschemas/TrackPointExtension/v1">
            <gpxtpx:hr>116</gpxtpx:hr>
          </gpxtpx:TrackPointExtension>
        </extensions>
      </trkpt>
      <trkpt lat="48.61703" lon="2.00677">
        <ele>133.4</ele>
        <time>2025-11-16T12:45:25Z</time>
        <extensions>
          <gpxtpx:TrackPointExtension xmlns:gpxtpx="http://www.garmin.com/xmlschemas/TrackPointExtension/v1">
            <gpxtpx:hr>115</gpxtpx:hr>
          </gpxtpx:TrackPointExtension>
        </extensions>
      </trkpt>
      <trkpt lat="48.61703" lon="2.0068">
        <ele>133.4</ele>
        <time>2025-11-16T12:45:27Z</time>
        <extensions>
          <gpxtpx:TrackPointExtension xmlns:gpxtpx="http://www.garmin.com/xmlschemas/TrackPointExtension/v1">
            <gpxtpx:hr>115</gpxtpx:hr>
          </gpxtpx:TrackPointExtension>
        </extensions>
      </trkpt>
      <trkpt lat="48.61704" lon="2.00684">
        <ele>133.4</ele>
        <time>2025-11-16T12:45:29Z</time>
        <extensions>
          <gpxtpx:TrackPointExtension xmlns:gpxtpx="http://www.garmin.com/xmlschemas/TrackPointExtension/v1">
            <gpxtpx:hr>115</gpxtpx:hr>
          </gpxtpx:TrackPointExtension>
        </extensions>
      </trkpt>
      <trkpt lat="48.61704" lon="2.00688">
        <ele>133.4</ele>
        <time>2025-11-16T12:45:31Z</time>
        <extensions>
          <gpxtpx:TrackPointExtension xmlns:gpxtpx="http://www.garmin.com/xmlschemas/TrackPointExtension/v1">
            <gpxtpx:hr>115</gpxtpx:hr>
          </gpxtpx:TrackPointExtension>
        </extensions>
      </trkpt>
      <trkpt lat="48.61705" lon="2.00693">
        <ele>133.4</ele>
        <time>2025-11-16T12:45:33Z</time>
        <extensions>
          <gpxtpx:TrackPointExtension xmlns:gpxtpx="http://www.garmin.com/xmlschemas/TrackPointExtension/v1">
            <gpxtpx:hr>115</gpxtpx:hr>
          </gpxtpx:TrackPointExtension>
        </extensions>
      </trkpt>
      <trkpt lat="48.61707" lon="2.00697">
        <ele>133.4</ele>
        <time>2025-11-16T12:45:35Z</time>
        <extensions>
          <gpxtpx:TrackPointExtension xmlns:gpxtpx="http://www.garmin.com/xmlschemas/TrackPointExtension/v1">
            <gpxtpx:hr>114</gpxtpx:hr>
          </gpxtpx:TrackPointExtension>
        </extensions>
      </trkpt>
      <trkpt lat="48.61708" lon="2.007">
        <ele>133.4</ele>
        <time>2025-11-16T12:45:37Z</time>
        <extensions>
          <gpxtpx:TrackPointExtension xmlns:gpxtpx="http://www.garmin.com/xmlschemas/TrackPointExtension/v1">
            <gpxtpx:hr>114</gpxtpx:hr>
          </gpxtpx:TrackPointExtension>
        </extensions>
      </trkpt>
      <trkpt lat="48.61708" lon="2.00704">
        <ele>133.2</ele>
        <time>2025-11-16T12:45:39Z</time>
        <extensions>
          <gpxtpx:TrackPointExtension xmlns:gpxtpx="http://www.garmin.com/xmlschemas/TrackPointExtension/v1">
            <gpxtpx:hr>114</gpxtpx:hr>
          </gpxtpx:TrackPointExtension>
        </extensions>
      </trkpt>
      <trkpt lat="48.61708" lon="2.00708">
        <ele>133.2</ele>
        <time>2025-11-16T12:45:41Z</time>
        <extensions>
          <gpxtpx:TrackPointExtension xmlns:gpxtpx="http://www.garmin.com/xmlschemas/TrackPointExtension/v1">
            <gpxtpx:hr>113</gpxtpx:hr>
          </gpxtpx:TrackPointExtension>
        </extensions>
      </trkpt>
      <trkpt lat="48.61708" lon="2.00713">
        <ele>133</ele>
        <time>2025-11-16T12:45:43Z</time>
        <extensions>
          <gpxtpx:TrackPointExtension xmlns:gpxtpx="http://www.garmin.com/xmlschemas/TrackPointExtension/v1">
            <gpxtpx:hr>113</gpxtpx:hr>
          </gpxtpx:TrackPointExtension>
        </extensions>
      </trkpt>
      <trkpt lat="48.61708" lon="2.00717">
        <ele>133</ele>
        <time>2025-11-16T12:45:45Z</time>
        <extensions>
          <gpxtpx:TrackPointExtension xmlns:gpxtpx="http://www.garmin.com/xmlschemas/TrackPointExtension/v1">
            <gpxtpx:hr>112</gpxtpx:hr>
          </gpxtpx:TrackPointExtension>
        </extensions>
      </trkpt>
      <trkpt lat="48.61709" lon="2.00721">
        <ele>133</ele>
        <time>2025-11-16T12:45:47Z</time>
        <extensions>
          <gpxtpx:TrackPointExtension xmlns:gpxtpx="http://www.garmin.com/xmlschemas/TrackPointExtension/v1">
            <gpxtpx:hr>110</gpxtpx:hr>
          </gpxtpx:TrackPointExtension>
        </extensions>
      </trkpt>
      <trkpt lat="48.61711" lon="2.00725">
        <ele>133</ele>
        <time>2025-11-16T12:45:49Z</time>
        <extensions>
          <gpxtpx:TrackPointExtension xmlns:gpxtpx="http://www.garmin.com/xmlschemas/TrackPointExtension/v1">
            <gpxtpx:hr>110</gpxtpx:hr>
          </gpxtpx:TrackPointExtension>
        </extensions>
      </trkpt>
      <trkpt lat="48.61712" lon="2.0073">
        <ele>133</ele>
        <time>2025-11-16T12:45:51Z</time>
        <extensions>
          <gpxtpx:TrackPointExtension xmlns:gpxtpx="http://www.garmin.com/xmlschemas/TrackPointExtension/v1">
            <gpxtpx:hr>110</gpxtpx:hr>
          </gpxtpx:TrackPointExtension>
        </extensions>
      </trkpt>
      <trkpt lat="48.61713" lon="2.00734">
        <ele>133</ele>
        <time>2025-11-16T12:45:53Z</time>
        <extensions>
          <gpxtpx:TrackPointExtension xmlns:gpxtpx="http://www.garmin.com/xmlschemas/TrackPointExtension/v1">
            <gpxtpx:hr>110</gpxtpx:hr>
          </gpxtpx:TrackPointExtension>
        </extensions>
      </trkpt>
      <trkpt lat="48.61713" lon="2.00738">
        <ele>133</ele>
        <time>2025-11-16T12:45:55Z</time>
        <extensions>
          <gpxtpx:TrackPointExtension xmlns:gpxtpx="http://www.garmin.com/xmlschemas/TrackPointExtension/v1">
            <gpxtpx:hr>110</gpxtpx:hr>
          </gpxtpx:TrackPointExtension>
        </extensions>
      </trkpt>
      <trkpt lat="48.61714" lon="2.00742">
        <ele>133</ele>
        <time>2025-11-16T12:45:57Z</time>
        <extensions>
          <gpxtpx:TrackPointExtension xmlns:gpxtpx="http://www.garmin.com/xmlschemas/TrackPointExtension/v1">
            <gpxtpx:hr>110</gpxtpx:hr>
          </gpxtpx:TrackPointExtension>
        </extensions>
      </trkpt>
      <trkpt lat="48.61715" lon="2.00746">
        <ele>133</ele>
        <time>2025-11-16T12:45:59Z</time>
        <extensions>
          <gpxtpx:TrackPointExtension xmlns:gpxtpx="http://www.garmin.com/xmlschemas/TrackPointExtension/v1">
            <gpxtpx:hr>111</gpxtpx:hr>
          </gpxtpx:TrackPointExtension>
        </extensions>
      </trkpt>
      <trkpt lat="48.61716" lon="2.0075">
        <ele>133.2</ele>
        <time>2025-11-16T12:46:01Z</time>
        <extensions>
          <gpxtpx:TrackPointExtension xmlns:gpxtpx="http://www.garmin.com/xmlschemas/TrackPointExtension/v1">
            <gpxtpx:hr>111</gpxtpx:hr>
          </gpxtpx:TrackPointExtension>
        </extensions>
      </trkpt>
      <trkpt lat="48.61717" lon="2.00754">
        <ele>133.2</ele>
        <time>2025-11-16T12:46:03Z</time>
        <extensions>
          <gpxtpx:TrackPointExtension xmlns:gpxtpx="http://www.garmin.com/xmlschemas/TrackPointExtension/v1">
            <gpxtpx:hr>111</gpxtpx:hr>
          </gpxtpx:TrackPointExtension>
        </extensions>
      </trkpt>
      <trkpt lat="48.61718" lon="2.00757">
        <ele>133.2</ele>
        <time>2025-11-16T12:46:05Z</time>
        <extensions>
          <gpxtpx:TrackPointExtension xmlns:gpxtpx="http://www.garmin.com/xmlschemas/TrackPointExtension/v1">
            <gpxtpx:hr>112</gpxtpx:hr>
          </gpxtpx:TrackPointExtension>
        </extensions>
      </trkpt>
      <trkpt lat="48.61719" lon="2.00762">
        <ele>133.4</ele>
        <time>2025-11-16T12:46:07Z</time>
        <extensions>
          <gpxtpx:TrackPointExtension xmlns:gpxtpx="http://www.garmin.com/xmlschemas/TrackPointExtension/v1">
            <gpxtpx:hr>113</gpxtpx:hr>
          </gpxtpx:TrackPointExtension>
        </extensions>
      </trkpt>
      <trkpt lat="48.6172" lon="2.00766">
        <ele>133.4</ele>
        <time>2025-11-16T12:46:09Z</time>
        <extensions>
          <gpxtpx:TrackPointExtension xmlns:gpxtpx="http://www.garmin.com/xmlschemas/TrackPointExtension/v1">
            <gpxtpx:hr>114</gpxtpx:hr>
          </gpxtpx:TrackPointExtension>
        </extensions>
      </trkpt>
      <trkpt lat="48.61721" lon="2.0077">
        <ele>133.4</ele>
        <time>2025-11-16T12:46:11Z</time>
        <extensions>
          <gpxtpx:TrackPointExtension xmlns:gpxtpx="http://www.garmin.com/xmlschemas/TrackPointExtension/v1">
            <gpxtpx:hr>114</gpxtpx:hr>
          </gpxtpx:TrackPointExtension>
        </extensions>
      </trkpt>
      <trkpt lat="48.61722" lon="2.00775">
        <ele>133.4</ele>
        <time>2025-11-16T12:46:13Z</time>
        <extensions>
          <gpxtpx:TrackPointExtension xmlns:gpxtpx="http://www.garmin.com/xmlschemas/TrackPointExtension/v1">
            <gpxtpx:hr>114</gpxtpx:hr>
          </gpxtpx:TrackPointExtension>
        </extensions>
      </trkpt>
      <trkpt lat="48.61721" lon="2.00779">
        <ele>133.4</ele>
        <time>2025-11-16T12:46:15Z</time>
        <extensions>
          <gpxtpx:TrackPointExtension xmlns:gpxtpx="http://www.garmin.com/xmlschemas/TrackPointExtension/v1">
            <gpxtpx:hr>114</gpxtpx:hr>
          </gpxtpx:TrackPointExtension>
        </extensions>
      </trkpt>
      <trkpt lat="48.61721" lon="2.00785">
        <ele>133.4</ele>
        <time>2025-11-16T12:46:17Z</time>
        <extensions>
          <gpxtpx:TrackPointExtension xmlns:gpxtpx="http://www.garmin.com/xmlschemas/TrackPointExtension/v1">
            <gpxtpx:hr>114</gpxtpx:hr>
          </gpxtpx:TrackPointExtension>
        </extensions>
      </trkpt>
      <trkpt lat="48.6172" lon="2.00787">
        <ele>133.4</ele>
        <time>2025-11-16T12:46:18Z</time>
        <extensions>
          <gpxtpx:TrackPointExtension xmlns:gpxtpx="http://www.garmin.com/xmlschemas/TrackPointExtension/v1">
            <gpxtpx:hr>114</gpxtpx:hr>
          </gpxtpx:TrackPointExtension>
        </extensions>
      </trkpt>
      <trkpt lat="48.61719" lon="2.0079">
        <ele>133.4</ele>
        <time>2025-11-16T12:46:19Z</time>
        <extensions>
          <gpxtpx:TrackPointExtension xmlns:gpxtpx="http://www.garmin.com/xmlschemas/TrackPointExtension/v1">
            <gpxtpx:hr>114</gpxtpx:hr>
          </gpxtpx:TrackPointExtension>
        </extensions>
      </trkpt>
      <trkpt lat="48.61719" lon="2.00793">
        <ele>133.2</ele>
        <time>2025-11-16T12:46:20Z</time>
        <extensions>
          <gpxtpx:TrackPointExtension xmlns:gpxtpx="http://www.garmin.com/xmlschemas/TrackPointExtension/v1">
            <gpxtpx:hr>115</gpxtpx:hr>
          </gpxtpx:TrackPointExtension>
        </extensions>
      </trkpt>
      <trkpt lat="48.61718" lon="2.00796">
        <ele>133.2</ele>
        <time>2025-11-16T12:46:21Z</time>
        <extensions>
          <gpxtpx:TrackPointExtension xmlns:gpxtpx="http://www.garmin.com/xmlschemas/TrackPointExtension/v1">
            <gpxtpx:hr>115</gpxtpx:hr>
          </gpxtpx:TrackPointExtension>
        </extensions>
      </trkpt>
      <trkpt lat="48.61718" lon="2.00799">
        <ele>133.2</ele>
        <time>2025-11-16T12:46:22Z</time>
        <extensions>
          <gpxtpx:TrackPointExtension xmlns:gpxtpx="http://www.garmin.com/xmlschemas/TrackPointExtension/v1">
            <gpxtpx:hr>115</gpxtpx:hr>
          </gpxtpx:TrackPointExtension>
        </extensions>
      </trkpt>
      <trkpt lat="48.61717" lon="2.00802">
        <ele>133.2</ele>
        <time>2025-11-16T12:46:23Z</time>
        <extensions>
          <gpxtpx:TrackPointExtension xmlns:gpxtpx="http://www.garmin.com/xmlschemas/TrackPointExtension/v1">
            <gpxtpx:hr>115</gpxtpx:hr>
          </gpxtpx:TrackPointExtension>
        </extensions>
      </trkpt>
      <trkpt lat="48.61716" lon="2.00807">
        <ele>133.2</ele>
        <time>2025-11-16T12:46:25Z</time>
        <extensions>
          <gpxtpx:TrackPointExtension xmlns:gpxtpx="http://www.garmin.com/xmlschemas/TrackPointExtension/v1">
            <gpxtpx:hr>116</gpxtpx:hr>
          </gpxtpx:TrackPointExtension>
        </extensions>
      </trkpt>
      <trkpt lat="48.61716" lon="2.00812">
        <ele>133</ele>
        <time>2025-11-16T12:46:27Z</time>
        <extensions>
          <gpxtpx:TrackPointExtension xmlns:gpxtpx="http://www.garmin.com/xmlschemas/TrackPointExtension/v1">
            <gpxtpx:hr>116</gpxtpx:hr>
          </gpxtpx:TrackPointExtension>
        </extensions>
      </trkpt>
      <trkpt lat="48.61716" lon="2.00817">
        <ele>133.2</ele>
        <time>2025-11-16T12:46:29Z</time>
        <extensions>
          <gpxtpx:TrackPointExtension xmlns:gpxtpx="http://www.garmin.com/xmlschemas/TrackPointExtension/v1">
            <gpxtpx:hr>115</gpxtpx:hr>
          </gpxtpx:TrackPointExtension>
        </extensions>
      </trkpt>
      <trkpt lat="48.61717" lon="2.00822">
        <ele>133.2</ele>
        <time>2025-11-16T12:46:31Z</time>
        <extensions>
          <gpxtpx:TrackPointExtension xmlns:gpxtpx="http://www.garmin.com/xmlschemas/TrackPointExtension/v1">
            <gpxtpx:hr>114</gpxtpx:hr>
          </gpxtpx:TrackPointExtension>
        </extensions>
      </trkpt>
      <trkpt lat="48.61717" lon="2.00827">
        <ele>133.2</ele>
        <time>2025-11-16T12:46:33Z</time>
        <extensions>
          <gpxtpx:TrackPointExtension xmlns:gpxtpx="http://www.garmin.com/xmlschemas/TrackPointExtension/v1">
            <gpxtpx:hr>113</gpxtpx:hr>
          </gpxtpx:TrackPointExtension>
        </extensions>
      </trkpt>
      <trkpt lat="48.61718" lon="2.00832">
        <ele>133.4</ele>
        <time>2025-11-16T12:46:35Z</time>
        <extensions>
          <gpxtpx:TrackPointExtension xmlns:gpxtpx="http://www.garmin.com/xmlschemas/TrackPointExtension/v1">
            <gpxtpx:hr>112</gpxtpx:hr>
          </gpxtpx:TrackPointExtension>
        </extensions>
      </trkpt>
      <trkpt lat="48.6172" lon="2.00836">
        <ele>133.4</ele>
        <time>2025-11-16T12:46:37Z</time>
        <extensions>
          <gpxtpx:TrackPointExtension xmlns:gpxtpx="http://www.garmin.com/xmlschemas/TrackPointExtension/v1">
            <gpxtpx:hr>110</gpxtpx:hr>
          </gpxtpx:TrackPointExtension>
        </extensions>
      </trkpt>
      <trkpt lat="48.61721" lon="2.00839">
        <ele>133.6</ele>
        <time>2025-11-16T12:46:39Z</time>
        <extensions>
          <gpxtpx:TrackPointExtension xmlns:gpxtpx="http://www.garmin.com/xmlschemas/TrackPointExtension/v1">
            <gpxtpx:hr>110</gpxtpx:hr>
          </gpxtpx:TrackPointExtension>
        </extensions>
      </trkpt>
      <trkpt lat="48.61724" lon="2.00843">
        <ele>133.6</ele>
        <time>2025-11-16T12:46:41Z</time>
        <extensions>
          <gpxtpx:TrackPointExtension xmlns:gpxtpx="http://www.garmin.com/xmlschemas/TrackPointExtension/v1">
            <gpxtpx:hr>110</gpxtpx:hr>
          </gpxtpx:TrackPointExtension>
        </extensions>
      </trkpt>
      <trkpt lat="48.61726" lon="2.00847">
        <ele>133.8</ele>
        <time>2025-11-16T12:46:43Z</time>
        <extensions>
          <gpxtpx:TrackPointExtension xmlns:gpxtpx="http://www.garmin.com/xmlschemas/TrackPointExtension/v1">
            <gpxtpx:hr>110</gpxtpx:hr>
          </gpxtpx:TrackPointExtension>
        </extensions>
      </trkpt>
      <trkpt lat="48.61728" lon="2.0085">
        <ele>133.8</ele>
        <time>2025-11-16T12:46:44Z</time>
        <extensions>
          <gpxtpx:TrackPointExtension xmlns:gpxtpx="http://www.garmin.com/xmlschemas/TrackPointExtension/v1">
            <gpxtpx:hr>110</gpxtpx:hr>
          </gpxtpx:TrackPointExtension>
        </extensions>
      </trkpt>
      <trkpt lat="48.6173" lon="2.00852">
        <ele>133.8</ele>
        <time>2025-11-16T12:46:45Z</time>
        <extensions>
          <gpxtpx:TrackPointExtension xmlns:gpxtpx="http://www.garmin.com/xmlschemas/TrackPointExtension/v1">
            <gpxtpx:hr>110</gpxtpx:hr>
          </gpxtpx:TrackPointExtension>
        </extensions>
      </trkpt>
      <trkpt lat="48.61732" lon="2.00854">
        <ele>133.8</ele>
        <time>2025-11-16T12:46:46Z</time>
        <extensions>
          <gpxtpx:TrackPointExtension xmlns:gpxtpx="http://www.garmin.com/xmlschemas/TrackPointExtension/v1">
            <gpxtpx:hr>110</gpxtpx:hr>
          </gpxtpx:TrackPointExtension>
        </extensions>
      </trkpt>
      <trkpt lat="48.61734" lon="2.00856">
        <ele>133.8</ele>
        <time>2025-11-16T12:46:47Z</time>
        <extensions>
          <gpxtpx:TrackPointExtension xmlns:gpxtpx="http://www.garmin.com/xmlschemas/TrackPointExtension/v1">
            <gpxtpx:hr>110</gpxtpx:hr>
          </gpxtpx:TrackPointExtension>
        </extensions>
      </trkpt>
      <trkpt lat="48.61737" lon="2.00858">
        <ele>133.8</ele>
        <time>2025-11-16T12:46:48Z</time>
        <extensions>
          <gpxtpx:TrackPointExtension xmlns:gpxtpx="http://www.garmin.com/xmlschemas/TrackPointExtension/v1">
            <gpxtpx:hr>109</gpxtpx:hr>
          </gpxtpx:TrackPointExtension>
        </extensions>
      </trkpt>
      <trkpt lat="48.61739" lon="2.0086">
        <ele>133.8</ele>
        <time>2025-11-16T12:46:49Z</time>
        <extensions>
          <gpxtpx:TrackPointExtension xmlns:gpxtpx="http://www.garmin.com/xmlschemas/TrackPointExtension/v1">
            <gpxtpx:hr>109</gpxtpx:hr>
          </gpxtpx:TrackPointExtension>
        </extensions>
      </trkpt>
      <trkpt lat="48.61742" lon="2.00862">
        <ele>133.8</ele>
        <time>2025-11-16T12:46:50Z</time>
        <extensions>
          <gpxtpx:TrackPointExtension xmlns:gpxtpx="http://www.garmin.com/xmlschemas/TrackPointExtension/v1">
            <gpxtpx:hr>109</gpxtpx:hr>
          </gpxtpx:TrackPointExtension>
        </extensions>
      </trkpt>
      <trkpt lat="48.61744" lon="2.00863">
        <ele>133.8</ele>
        <time>2025-11-16T12:46:51Z</time>
        <extensions>
          <gpxtpx:TrackPointExtension xmlns:gpxtpx="http://www.garmin.com/xmlschemas/TrackPointExtension/v1">
            <gpxtpx:hr>109</gpxtpx:hr>
          </gpxtpx:TrackPointExtension>
        </extensions>
      </trkpt>
      <trkpt lat="48.61746" lon="2.00865">
        <ele>133.8</ele>
        <time>2025-11-16T12:46:52Z</time>
        <extensions>
          <gpxtpx:TrackPointExtension xmlns:gpxtpx="http://www.garmin.com/xmlschemas/TrackPointExtension/v1">
            <gpxtpx:hr>109</gpxtpx:hr>
          </gpxtpx:TrackPointExtension>
        </extensions>
      </trkpt>
      <trkpt lat="48.61748" lon="2.00868">
        <ele>133.8</ele>
        <time>2025-11-16T12:46:54Z</time>
        <extensions>
          <gpxtpx:TrackPointExtension xmlns:gpxtpx="http://www.garmin.com/xmlschemas/TrackPointExtension/v1">
            <gpxtpx:hr>109</gpxtpx:hr>
          </gpxtpx:TrackPointExtension>
        </extensions>
      </trkpt>
      <trkpt lat="48.6175" lon="2.00871">
        <ele>133.8</ele>
        <time>2025-11-16T12:46:56Z</time>
        <extensions>
          <gpxtpx:TrackPointExtension xmlns:gpxtpx="http://www.garmin.com/xmlschemas/TrackPointExtension/v1">
            <gpxtpx:hr>109</gpxtpx:hr>
          </gpxtpx:TrackPointExtension>
        </extensions>
      </trkpt>
      <trkpt lat="48.61752" lon="2.00873">
        <ele>134</ele>
        <time>2025-11-16T12:46:57Z</time>
        <extensions>
          <gpxtpx:TrackPointExtension xmlns:gpxtpx="http://www.garmin.com/xmlschemas/TrackPointExtension/v1">
            <gpxtpx:hr>109</gpxtpx:hr>
          </gpxtpx:TrackPointExtension>
        </extensions>
      </trkpt>
      <trkpt lat="48.61754" lon="2.00875">
        <ele>134</ele>
        <time>2025-11-16T12:46:58Z</time>
        <extensions>
          <gpxtpx:TrackPointExtension xmlns:gpxtpx="http://www.garmin.com/xmlschemas/TrackPointExtension/v1">
            <gpxtpx:hr>109</gpxtpx:hr>
          </gpxtpx:TrackPointExtension>
        </extensions>
      </trkpt>
      <trkpt lat="48.61756" lon="2.00878">
        <ele>134</ele>
        <time>2025-11-16T12:46:59Z</time>
        <extensions>
          <gpxtpx:TrackPointExtension xmlns:gpxtpx="http://www.garmin.com/xmlschemas/TrackPointExtension/v1">
            <gpxtpx:hr>109</gpxtpx:hr>
          </gpxtpx:TrackPointExtension>
        </extensions>
      </trkpt>
      <trkpt lat="48.61758" lon="2.00881">
        <ele>134</ele>
        <time>2025-11-16T12:47:00Z</time>
        <extensions>
          <gpxtpx:TrackPointExtension xmlns:gpxtpx="http://www.garmin.com/xmlschemas/TrackPointExtension/v1">
            <gpxtpx:hr>109</gpxtpx:hr>
          </gpxtpx:TrackPointExtension>
        </extensions>
      </trkpt>
      <trkpt lat="48.61759" lon="2.00884">
        <ele>134.2</ele>
        <time>2025-11-16T12:47:01Z</time>
        <extensions>
          <gpxtpx:TrackPointExtension xmlns:gpxtpx="http://www.garmin.com/xmlschemas/TrackPointExtension/v1">
            <gpxtpx:hr>109</gpxtpx:hr>
          </gpxtpx:TrackPointExtension>
        </extensions>
      </trkpt>
      <trkpt lat="48.6176" lon="2.00887">
        <ele>134.2</ele>
        <time>2025-11-16T12:47:02Z</time>
        <extensions>
          <gpxtpx:TrackPointExtension xmlns:gpxtpx="http://www.garmin.com/xmlschemas/TrackPointExtension/v1">
            <gpxtpx:hr>109</gpxtpx:hr>
          </gpxtpx:TrackPointExtension>
        </extensions>
      </trkpt>
      <trkpt lat="48.6176" lon="2.0089">
        <ele>134.2</ele>
        <time>2025-11-16T12:47:03Z</time>
        <extensions>
          <gpxtpx:TrackPointExtension xmlns:gpxtpx="http://www.garmin.com/xmlschemas/TrackPointExtension/v1">
            <gpxtpx:hr>109</gpxtpx:hr>
          </gpxtpx:TrackPointExtension>
        </extensions>
      </trkpt>
      <trkpt lat="48.6176" lon="2.00893">
        <ele>134.2</ele>
        <time>2025-11-16T12:47:04Z</time>
        <extensions>
          <gpxtpx:TrackPointExtension xmlns:gpxtpx="http://www.garmin.com/xmlschemas/TrackPointExtension/v1">
            <gpxtpx:hr>109</gpxtpx:hr>
          </gpxtpx:TrackPointExtension>
        </extensions>
      </trkpt>
      <trkpt lat="48.61761" lon="2.00897">
        <ele>134.4</ele>
        <time>2025-11-16T12:47:06Z</time>
        <extensions>
          <gpxtpx:TrackPointExtension xmlns:gpxtpx="http://www.garmin.com/xmlschemas/TrackPointExtension/v1">
            <gpxtpx:hr>109</gpxtpx:hr>
          </gpxtpx:TrackPointExtension>
        </extensions>
      </trkpt>
      <trkpt lat="48.61761" lon="2.00901">
        <ele>134.4</ele>
        <time>2025-11-16T12:47:08Z</time>
        <extensions>
          <gpxtpx:TrackPointExtension xmlns:gpxtpx="http://www.garmin.com/xmlschemas/TrackPointExtension/v1">
            <gpxtpx:hr>109</gpxtpx:hr>
          </gpxtpx:TrackPointExtension>
        </extensions>
      </trkpt>
      <trkpt lat="48.61761" lon="2.00904">
        <ele>134.4</ele>
        <time>2025-11-16T12:47:10Z</time>
        <extensions>
          <gpxtpx:TrackPointExtension xmlns:gpxtpx="http://www.garmin.com/xmlschemas/TrackPointExtension/v1">
            <gpxtpx:hr>108</gpxtpx:hr>
          </gpxtpx:TrackPointExtension>
        </extensions>
      </trkpt>
      <trkpt lat="48.61761" lon="2.00908">
        <ele>134.6</ele>
        <time>2025-11-16T12:47:12Z</time>
        <extensions>
          <gpxtpx:TrackPointExtension xmlns:gpxtpx="http://www.garmin.com/xmlschemas/TrackPointExtension/v1">
            <gpxtpx:hr>108</gpxtpx:hr>
          </gpxtpx:TrackPointExtension>
        </extensions>
      </trkpt>
      <trkpt lat="48.61761" lon="2.00911">
        <ele>134.6</ele>
        <time>2025-11-16T12:47:14Z</time>
        <extensions>
          <gpxtpx:TrackPointExtension xmlns:gpxtpx="http://www.garmin.com/xmlschemas/TrackPointExtension/v1">
            <gpxtpx:hr>107</gpxtpx:hr>
          </gpxtpx:TrackPointExtension>
        </extensions>
      </trkpt>
      <trkpt lat="48.61761" lon="2.00914">
        <ele>134.4</ele>
        <time>2025-11-16T12:47:16Z</time>
        <extensions>
          <gpxtpx:TrackPointExtension xmlns:gpxtpx="http://www.garmin.com/xmlschemas/TrackPointExtension/v1">
            <gpxtpx:hr>107</gpxtpx:hr>
          </gpxtpx:TrackPointExtension>
        </extensions>
      </trkpt>
      <trkpt lat="48.61762" lon="2.00918">
        <ele>134.4</ele>
        <time>2025-11-16T12:47:18Z</time>
        <extensions>
          <gpxtpx:TrackPointExtension xmlns:gpxtpx="http://www.garmin.com/xmlschemas/TrackPointExtension/v1">
            <gpxtpx:hr>107</gpxtpx:hr>
          </gpxtpx:TrackPointExtension>
        </extensions>
      </trkpt>
      <trkpt lat="48.61762" lon="2.00922">
        <ele>134.4</ele>
        <time>2025-11-16T12:47:20Z</time>
        <extensions>
          <gpxtpx:TrackPointExtension xmlns:gpxtpx="http://www.garmin.com/xmlschemas/TrackPointExtension/v1">
            <gpxtpx:hr>107</gpxtpx:hr>
          </gpxtpx:TrackPointExtension>
        </extensions>
      </trkpt>
      <trkpt lat="48.61762" lon="2.00926">
        <ele>134.4</ele>
        <time>2025-11-16T12:47:22Z</time>
        <extensions>
          <gpxtpx:TrackPointExtension xmlns:gpxtpx="http://www.garmin.com/xmlschemas/TrackPointExtension/v1">
            <gpxtpx:hr>109</gpxtpx:hr>
          </gpxtpx:TrackPointExtension>
        </extensions>
      </trkpt>
      <trkpt lat="48.61763" lon="2.00929">
        <ele>134.2</ele>
        <time>2025-11-16T12:47:24Z</time>
        <extensions>
          <gpxtpx:TrackPointExtension xmlns:gpxtpx="http://www.garmin.com/xmlschemas/TrackPointExtension/v1">
            <gpxtpx:hr>111</gpxtpx:hr>
          </gpxtpx:TrackPointExtension>
        </extensions>
      </trkpt>
      <trkpt lat="48.61764" lon="2.00933">
        <ele>134.2</ele>
        <time>2025-11-16T12:47:26Z</time>
        <extensions>
          <gpxtpx:TrackPointExtension xmlns:gpxtpx="http://www.garmin.com/xmlschemas/TrackPointExtension/v1">
            <gpxtpx:hr>113</gpxtpx:hr>
          </gpxtpx:TrackPointExtension>
        </extensions>
      </trkpt>
      <trkpt lat="48.61765" lon="2.00937">
        <ele>134</ele>
        <time>2025-11-16T12:47:28Z</time>
        <extensions>
          <gpxtpx:TrackPointExtension xmlns:gpxtpx="http://www.garmin.com/xmlschemas/TrackPointExtension/v1">
            <gpxtpx:hr>114</gpxtpx:hr>
          </gpxtpx:TrackPointExtension>
        </extensions>
      </trkpt>
      <trkpt lat="48.61766" lon="2.0094">
        <ele>134</ele>
        <time>2025-11-16T12:47:30Z</time>
        <extensions>
          <gpxtpx:TrackPointExtension xmlns:gpxtpx="http://www.garmin.com/xmlschemas/TrackPointExtension/v1">
            <gpxtpx:hr>114</gpxtpx:hr>
          </gpxtpx:TrackPointExtension>
        </extensions>
      </trkpt>
      <trkpt lat="48.61767" lon="2.00944">
        <ele>134</ele>
        <time>2025-11-16T12:47:32Z</time>
        <extensions>
          <gpxtpx:TrackPointExtension xmlns:gpxtpx="http://www.garmin.com/xmlschemas/TrackPointExtension/v1">
            <gpxtpx:hr>114</gpxtpx:hr>
          </gpxtpx:TrackPointExtension>
        </extensions>
      </trkpt>
      <trkpt lat="48.61768" lon="2.00949">
        <ele>134</ele>
        <time>2025-11-16T12:47:34Z</time>
        <extensions>
          <gpxtpx:TrackPointExtension xmlns:gpxtpx="http://www.garmin.com/xmlschemas/TrackPointExtension/v1">
            <gpxtpx:hr>112</gpxtpx:hr>
          </gpxtpx:TrackPointExtension>
        </extensions>
      </trkpt>
      <trkpt lat="48.61769" lon="2.00952">
        <ele>133.8</ele>
        <time>2025-11-16T12:47:35Z</time>
        <extensions>
          <gpxtpx:TrackPointExtension xmlns:gpxtpx="http://www.garmin.com/xmlschemas/TrackPointExtension/v1">
            <gpxtpx:hr>110</gpxtpx:hr>
          </gpxtpx:TrackPointExtension>
        </extensions>
      </trkpt>
      <trkpt lat="48.6177" lon="2.00955">
        <ele>134</ele>
        <time>2025-11-16T12:47:36Z</time>
        <extensions>
          <gpxtpx:TrackPointExtension xmlns:gpxtpx="http://www.garmin.com/xmlschemas/TrackPointExtension/v1">
            <gpxtpx:hr>110</gpxtpx:hr>
          </gpxtpx:TrackPointExtension>
        </extensions>
      </trkpt>
      <trkpt lat="48.6177" lon="2.00958">
        <ele>134</ele>
        <time>2025-11-16T12:47:37Z</time>
        <extensions>
          <gpxtpx:TrackPointExtension xmlns:gpxtpx="http://www.garmin.com/xmlschemas/TrackPointExtension/v1">
            <gpxtpx:hr>110</gpxtpx:hr>
          </gpxtpx:TrackPointExtension>
        </extensions>
      </trkpt>
      <trkpt lat="48.61771" lon="2.00961">
        <ele>134</ele>
        <time>2025-11-16T12:47:38Z</time>
        <extensions>
          <gpxtpx:TrackPointExtension xmlns:gpxtpx="http://www.garmin.com/xmlschemas/TrackPointExtension/v1">
            <gpxtpx:hr>110</gpxtpx:hr>
          </gpxtpx:TrackPointExtension>
        </extensions>
      </trkpt>
      <trkpt lat="48.61772" lon="2.00964">
        <ele>134</ele>
        <time>2025-11-16T12:47:39Z</time>
        <extensions>
          <gpxtpx:TrackPointExtension xmlns:gpxtpx="http://www.garmin.com/xmlschemas/TrackPointExtension/v1">
            <gpxtpx:hr>110</gpxtpx:hr>
          </gpxtpx:TrackPointExtension>
        </extensions>
      </trkpt>
      <trkpt lat="48.61772" lon="2.00967">
        <ele>134</ele>
        <time>2025-11-16T12:47:40Z</time>
        <extensions>
          <gpxtpx:TrackPointExtension xmlns:gpxtpx="http://www.garmin.com/xmlschemas/TrackPointExtension/v1">
            <gpxtpx:hr>110</gpxtpx:hr>
          </gpxtpx:TrackPointExtension>
        </extensions>
      </trkpt>
      <trkpt lat="48.61772" lon="2.0097">
        <ele>134</ele>
        <time>2025-11-16T12:47:41Z</time>
        <extensions>
          <gpxtpx:TrackPointExtension xmlns:gpxtpx="http://www.garmin.com/xmlschemas/TrackPointExtension/v1">
            <gpxtpx:hr>110</gpxtpx:hr>
          </gpxtpx:TrackPointExtension>
        </extensions>
      </trkpt>
      <trkpt lat="48.61772" lon="2.00973">
        <ele>134</ele>
        <time>2025-11-16T12:47:42Z</time>
        <extensions>
          <gpxtpx:TrackPointExtension xmlns:gpxtpx="http://www.garmin.com/xmlschemas/TrackPointExtension/v1">
            <gpxtpx:hr>110</gpxtpx:hr>
          </gpxtpx:TrackPointExtension>
        </extensions>
      </trkpt>
      <trkpt lat="48.61773" lon="2.00976">
        <ele>134</ele>
        <time>2025-11-16T12:47:43Z</time>
        <extensions>
          <gpxtpx:TrackPointExtension xmlns:gpxtpx="http://www.garmin.com/xmlschemas/TrackPointExtension/v1">
            <gpxtpx:hr>110</gpxtpx:hr>
          </gpxtpx:TrackPointExtension>
        </extensions>
      </trkpt>
      <trkpt lat="48.61774" lon="2.0098">
        <ele>134</ele>
        <time>2025-11-16T12:47:44Z</time>
        <extensions>
          <gpxtpx:TrackPointExtension xmlns:gpxtpx="http://www.garmin.com/xmlschemas/TrackPointExtension/v1">
            <gpxtpx:hr>110</gpxtpx:hr>
          </gpxtpx:TrackPointExtension>
        </extensions>
      </trkpt>
      <trkpt lat="48.61775" lon="2.00983">
        <ele>134</ele>
        <time>2025-11-16T12:47:45Z</time>
        <extensions>
          <gpxtpx:TrackPointExtension xmlns:gpxtpx="http://www.garmin.com/xmlschemas/TrackPointExtension/v1">
            <gpxtpx:hr>110</gpxtpx:hr>
          </gpxtpx:TrackPointExtension>
        </extensions>
      </trkpt>
      <trkpt lat="48.61776" lon="2.00986">
        <ele>133.8</ele>
        <time>2025-11-16T12:47:46Z</time>
        <extensions>
          <gpxtpx:TrackPointExtension xmlns:gpxtpx="http://www.garmin.com/xmlschemas/TrackPointExtension/v1">
            <gpxtpx:hr>110</gpxtpx:hr>
          </gpxtpx:TrackPointExtension>
        </extensions>
      </trkpt>
      <trkpt lat="48.61777" lon="2.00989">
        <ele>133.8</ele>
        <time>2025-11-16T12:47:47Z</time>
        <extensions>
          <gpxtpx:TrackPointExtension xmlns:gpxtpx="http://www.garmin.com/xmlschemas/TrackPointExtension/v1">
            <gpxtpx:hr>110</gpxtpx:hr>
          </gpxtpx:TrackPointExtension>
        </extensions>
      </trkpt>
      <trkpt lat="48.61778" lon="2.00991">
        <ele>133.8</ele>
        <time>2025-11-16T12:47:48Z</time>
        <extensions>
          <gpxtpx:TrackPointExtension xmlns:gpxtpx="http://www.garmin.com/xmlschemas/TrackPointExtension/v1">
            <gpxtpx:hr>110</gpxtpx:hr>
          </gpxtpx:TrackPointExtension>
        </extensions>
      </trkpt>
      <trkpt lat="48.61779" lon="2.00995">
        <ele>133.8</ele>
        <time>2025-11-16T12:47:50Z</time>
        <extensions>
          <gpxtpx:TrackPointExtension xmlns:gpxtpx="http://www.garmin.com/xmlschemas/TrackPointExtension/v1">
            <gpxtpx:hr>109</gpxtpx:hr>
          </gpxtpx:TrackPointExtension>
        </extensions>
      </trkpt>
      <trkpt lat="48.61779" lon="2.00999">
        <ele>133.8</ele>
        <time>2025-11-16T12:47:52Z</time>
        <extensions>
          <gpxtpx:TrackPointExtension xmlns:gpxtpx="http://www.garmin.com/xmlschemas/TrackPointExtension/v1">
            <gpxtpx:hr>107</gpxtpx:hr>
          </gpxtpx:TrackPointExtension>
        </extensions>
      </trkpt>
      <trkpt lat="48.6178" lon="2.01002">
        <ele>133.8</ele>
        <time>2025-11-16T12:47:54Z</time>
        <extensions>
          <gpxtpx:TrackPointExtension xmlns:gpxtpx="http://www.garmin.com/xmlschemas/TrackPointExtension/v1">
            <gpxtpx:hr>107</gpxtpx:hr>
          </gpxtpx:TrackPointExtension>
        </extensions>
      </trkpt>
      <trkpt lat="48.6178" lon="2.01006">
        <ele>133.8</ele>
        <time>2025-11-16T12:47:56Z</time>
        <extensions>
          <gpxtpx:TrackPointExtension xmlns:gpxtpx="http://www.garmin.com/xmlschemas/TrackPointExtension/v1">
            <gpxtpx:hr>108</gpxtpx:hr>
          </gpxtpx:TrackPointExtension>
        </extensions>
      </trkpt>
      <trkpt lat="48.61781" lon="2.0101">
        <ele>133.8</ele>
        <time>2025-11-16T12:47:58Z</time>
        <extensions>
          <gpxtpx:TrackPointExtension xmlns:gpxtpx="http://www.garmin.com/xmlschemas/TrackPointExtension/v1">
            <gpxtpx:hr>108</gpxtpx:hr>
          </gpxtpx:TrackPointExtension>
        </extensions>
      </trkpt>
      <trkpt lat="48.61782" lon="2.01013">
        <ele>133.6</ele>
        <time>2025-11-16T12:48:00Z</time>
        <extensions>
          <gpxtpx:TrackPointExtension xmlns:gpxtpx="http://www.garmin.com/xmlschemas/TrackPointExtension/v1">
            <gpxtpx:hr>108</gpxtpx:hr>
          </gpxtpx:TrackPointExtension>
        </extensions>
      </trkpt>
      <trkpt lat="48.61782" lon="2.01018">
        <ele>133.6</ele>
        <time>2025-11-16T12:48:02Z</time>
        <extensions>
          <gpxtpx:TrackPointExtension xmlns:gpxtpx="http://www.garmin.com/xmlschemas/TrackPointExtension/v1">
            <gpxtpx:hr>108</gpxtpx:hr>
          </gpxtpx:TrackPointExtension>
        </extensions>
      </trkpt>
      <trkpt lat="48.61783" lon="2.0102">
        <ele>133.6</ele>
        <time>2025-11-16T12:48:03Z</time>
        <extensions>
          <gpxtpx:TrackPointExtension xmlns:gpxtpx="http://www.garmin.com/xmlschemas/TrackPointExtension/v1">
            <gpxtpx:hr>108</gpxtpx:hr>
          </gpxtpx:TrackPointExtension>
        </extensions>
      </trkpt>
      <trkpt lat="48.61784" lon="2.01022">
        <ele>133.4</ele>
        <time>2025-11-16T12:48:04Z</time>
        <extensions>
          <gpxtpx:TrackPointExtension xmlns:gpxtpx="http://www.garmin.com/xmlschemas/TrackPointExtension/v1">
            <gpxtpx:hr>108</gpxtpx:hr>
          </gpxtpx:TrackPointExtension>
        </extensions>
      </trkpt>
      <trkpt lat="48.61786" lon="2.01027">
        <ele>133.4</ele>
        <time>2025-11-16T12:48:06Z</time>
        <extensions>
          <gpxtpx:TrackPointExtension xmlns:gpxtpx="http://www.garmin.com/xmlschemas/TrackPointExtension/v1">
            <gpxtpx:hr>108</gpxtpx:hr>
          </gpxtpx:TrackPointExtension>
        </extensions>
      </trkpt>
      <trkpt lat="48.61787" lon="2.0103">
        <ele>133.4</ele>
        <time>2025-11-16T12:48:08Z</time>
        <extensions>
          <gpxtpx:TrackPointExtension xmlns:gpxtpx="http://www.garmin.com/xmlschemas/TrackPointExtension/v1">
            <gpxtpx:hr>108</gpxtpx:hr>
          </gpxtpx:TrackPointExtension>
        </extensions>
      </trkpt>
      <trkpt lat="48.61788" lon="2.01034">
        <ele>133.2</ele>
        <time>2025-11-16T12:48:10Z</time>
        <extensions>
          <gpxtpx:TrackPointExtension xmlns:gpxtpx="http://www.garmin.com/xmlschemas/TrackPointExtension/v1">
            <gpxtpx:hr>108</gpxtpx:hr>
          </gpxtpx:TrackPointExtension>
        </extensions>
      </trkpt>
      <trkpt lat="48.61788" lon="2.01037">
        <ele>133</ele>
        <time>2025-11-16T12:48:12Z</time>
        <extensions>
          <gpxtpx:TrackPointExtension xmlns:gpxtpx="http://www.garmin.com/xmlschemas/TrackPointExtension/v1">
            <gpxtpx:hr>108</gpxtpx:hr>
          </gpxtpx:TrackPointExtension>
        </extensions>
      </trkpt>
      <trkpt lat="48.61788" lon="2.01041">
        <ele>133</ele>
        <time>2025-11-16T12:48:14Z</time>
        <extensions>
          <gpxtpx:TrackPointExtension xmlns:gpxtpx="http://www.garmin.com/xmlschemas/TrackPointExtension/v1">
            <gpxtpx:hr>109</gpxtpx:hr>
          </gpxtpx:TrackPointExtension>
        </extensions>
      </trkpt>
      <trkpt lat="48.61789" lon="2.01046">
        <ele>133</ele>
        <time>2025-11-16T12:48:16Z</time>
        <extensions>
          <gpxtpx:TrackPointExtension xmlns:gpxtpx="http://www.garmin.com/xmlschemas/TrackPointExtension/v1">
            <gpxtpx:hr>109</gpxtpx:hr>
          </gpxtpx:TrackPointExtension>
        </extensions>
      </trkpt>
      <trkpt lat="48.6179" lon="2.0105">
        <ele>132.8</ele>
        <time>2025-11-16T12:48:18Z</time>
        <extensions>
          <gpxtpx:TrackPointExtension xmlns:gpxtpx="http://www.garmin.com/xmlschemas/TrackPointExtension/v1">
            <gpxtpx:hr>109</gpxtpx:hr>
          </gpxtpx:TrackPointExtension>
        </extensions>
      </trkpt>
      <trkpt lat="48.61792" lon="2.01054">
        <ele>132.8</ele>
        <time>2025-11-16T12:48:20Z</time>
        <extensions>
          <gpxtpx:TrackPointExtension xmlns:gpxtpx="http://www.garmin.com/xmlschemas/TrackPointExtension/v1">
            <gpxtpx:hr>109</gpxtpx:hr>
          </gpxtpx:TrackPointExtension>
        </extensions>
      </trkpt>
      <trkpt lat="48.61794" lon="2.01059">
        <ele>132.6</ele>
        <time>2025-11-16T12:48:22Z</time>
        <extensions>
          <gpxtpx:TrackPointExtension xmlns:gpxtpx="http://www.garmin.com/xmlschemas/TrackPointExtension/v1">
            <gpxtpx:hr>111</gpxtpx:hr>
          </gpxtpx:TrackPointExtension>
        </extensions>
      </trkpt>
      <trkpt lat="48.61795" lon="2.01063">
        <ele>132.4</ele>
        <time>2025-11-16T12:48:24Z</time>
        <extensions>
          <gpxtpx:TrackPointExtension xmlns:gpxtpx="http://www.garmin.com/xmlschemas/TrackPointExtension/v1">
            <gpxtpx:hr>112</gpxtpx:hr>
          </gpxtpx:TrackPointExtension>
        </extensions>
      </trkpt>
      <trkpt lat="48.61796" lon="2.01066">
        <ele>132.4</ele>
        <time>2025-11-16T12:48:25Z</time>
        <extensions>
          <gpxtpx:TrackPointExtension xmlns:gpxtpx="http://www.garmin.com/xmlschemas/TrackPointExtension/v1">
            <gpxtpx:hr>113</gpxtpx:hr>
          </gpxtpx:TrackPointExtension>
        </extensions>
      </trkpt>
      <trkpt lat="48.61797" lon="2.01071">
        <ele>132.2</ele>
        <time>2025-11-16T12:48:27Z</time>
        <extensions>
          <gpxtpx:TrackPointExtension xmlns:gpxtpx="http://www.garmin.com/xmlschemas/TrackPointExtension/v1">
            <gpxtpx:hr>114</gpxtpx:hr>
          </gpxtpx:TrackPointExtension>
        </extensions>
      </trkpt>
      <trkpt lat="48.61798" lon="2.01073">
        <ele>132.2</ele>
        <time>2025-11-16T12:48:28Z</time>
        <extensions>
          <gpxtpx:TrackPointExtension xmlns:gpxtpx="http://www.garmin.com/xmlschemas/TrackPointExtension/v1">
            <gpxtpx:hr>115</gpxtpx:hr>
          </gpxtpx:TrackPointExtension>
        </extensions>
      </trkpt>
      <trkpt lat="48.61798" lon="2.01076">
        <ele>132</ele>
        <time>2025-11-16T12:48:29Z</time>
        <extensions>
          <gpxtpx:TrackPointExtension xmlns:gpxtpx="http://www.garmin.com/xmlschemas/TrackPointExtension/v1">
            <gpxtpx:hr>115</gpxtpx:hr>
          </gpxtpx:TrackPointExtension>
        </extensions>
      </trkpt>
      <trkpt lat="48.618" lon="2.01081">
        <ele>132</ele>
        <time>2025-11-16T12:48:31Z</time>
        <extensions>
          <gpxtpx:TrackPointExtension xmlns:gpxtpx="http://www.garmin.com/xmlschemas/TrackPointExtension/v1">
            <gpxtpx:hr>115</gpxtpx:hr>
          </gpxtpx:TrackPointExtension>
        </extensions>
      </trkpt>
      <trkpt lat="48.61801" lon="2.01086">
        <ele>132</ele>
        <time>2025-11-16T12:48:33Z</time>
        <extensions>
          <gpxtpx:TrackPointExtension xmlns:gpxtpx="http://www.garmin.com/xmlschemas/TrackPointExtension/v1">
            <gpxtpx:hr>115</gpxtpx:hr>
          </gpxtpx:TrackPointExtension>
        </extensions>
      </trkpt>
      <trkpt lat="48.61802" lon="2.01091">
        <ele>131.8</ele>
        <time>2025-11-16T12:48:35Z</time>
        <extensions>
          <gpxtpx:TrackPointExtension xmlns:gpxtpx="http://www.garmin.com/xmlschemas/TrackPointExtension/v1">
            <gpxtpx:hr>116</gpxtpx:hr>
          </gpxtpx:TrackPointExtension>
        </extensions>
      </trkpt>
      <trkpt lat="48.61802" lon="2.01096">
        <ele>131.8</ele>
        <time>2025-11-16T12:48:37Z</time>
        <extensions>
          <gpxtpx:TrackPointExtension xmlns:gpxtpx="http://www.garmin.com/xmlschemas/TrackPointExtension/v1">
            <gpxtpx:hr>116</gpxtpx:hr>
          </gpxtpx:TrackPointExtension>
        </extensions>
      </trkpt>
      <trkpt lat="48.61803" lon="2.01099">
        <ele>131.8</ele>
        <time>2025-11-16T12:48:38Z</time>
        <extensions>
          <gpxtpx:TrackPointExtension xmlns:gpxtpx="http://www.garmin.com/xmlschemas/TrackPointExtension/v1">
            <gpxtpx:hr>116</gpxtpx:hr>
          </gpxtpx:TrackPointExtension>
        </extensions>
      </trkpt>
      <trkpt lat="48.61804" lon="2.01104">
        <ele>131.6</ele>
        <time>2025-11-16T12:48:40Z</time>
        <extensions>
          <gpxtpx:TrackPointExtension xmlns:gpxtpx="http://www.garmin.com/xmlschemas/TrackPointExtension/v1">
            <gpxtpx:hr>116</gpxtpx:hr>
          </gpxtpx:TrackPointExtension>
        </extensions>
      </trkpt>
      <trkpt lat="48.61805" lon="2.01106">
        <ele>131.4</ele>
        <time>2025-11-16T12:48:41Z</time>
        <extensions>
          <gpxtpx:TrackPointExtension xmlns:gpxtpx="http://www.garmin.com/xmlschemas/TrackPointExtension/v1">
            <gpxtpx:hr>116</gpxtpx:hr>
          </gpxtpx:TrackPointExtension>
        </extensions>
      </trkpt>
      <trkpt lat="48.61806" lon="2.01109">
        <ele>131.4</ele>
        <time>2025-11-16T12:48:42Z</time>
        <extensions>
          <gpxtpx:TrackPointExtension xmlns:gpxtpx="http://www.garmin.com/xmlschemas/TrackPointExtension/v1">
            <gpxtpx:hr>116</gpxtpx:hr>
          </gpxtpx:TrackPointExtension>
        </extensions>
      </trkpt>
      <trkpt lat="48.61808" lon="2.01113">
        <ele>131.4</ele>
        <time>2025-11-16T12:48:44Z</time>
        <extensions>
          <gpxtpx:TrackPointExtension xmlns:gpxtpx="http://www.garmin.com/xmlschemas/TrackPointExtension/v1">
            <gpxtpx:hr>116</gpxtpx:hr>
          </gpxtpx:TrackPointExtension>
        </extensions>
      </trkpt>
      <trkpt lat="48.61809" lon="2.01115">
        <ele>131.4</ele>
        <time>2025-11-16T12:48:45Z</time>
        <extensions>
          <gpxtpx:TrackPointExtension xmlns:gpxtpx="http://www.garmin.com/xmlschemas/TrackPointExtension/v1">
            <gpxtpx:hr>116</gpxtpx:hr>
          </gpxtpx:TrackPointExtension>
        </extensions>
      </trkpt>
      <trkpt lat="48.61811" lon="2.0112">
        <ele>131.2</ele>
        <time>2025-11-16T12:48:47Z</time>
        <extensions>
          <gpxtpx:TrackPointExtension xmlns:gpxtpx="http://www.garmin.com/xmlschemas/TrackPointExtension/v1">
            <gpxtpx:hr>116</gpxtpx:hr>
          </gpxtpx:TrackPointExtension>
        </extensions>
      </trkpt>
      <trkpt lat="48.61812" lon="2.01124">
        <ele>131.2</ele>
        <time>2025-11-16T12:48:49Z</time>
        <extensions>
          <gpxtpx:TrackPointExtension xmlns:gpxtpx="http://www.garmin.com/xmlschemas/TrackPointExtension/v1">
            <gpxtpx:hr>116</gpxtpx:hr>
          </gpxtpx:TrackPointExtension>
        </extensions>
      </trkpt>
      <trkpt lat="48.61812" lon="2.01127">
        <ele>131.2</ele>
        <time>2025-11-16T12:48:50Z</time>
        <extensions>
          <gpxtpx:TrackPointExtension xmlns:gpxtpx="http://www.garmin.com/xmlschemas/TrackPointExtension/v1">
            <gpxtpx:hr>116</gpxtpx:hr>
          </gpxtpx:TrackPointExtension>
        </extensions>
      </trkpt>
      <trkpt lat="48.61812" lon="2.0113">
        <ele>131.2</ele>
        <time>2025-11-16T12:48:51Z</time>
        <extensions>
          <gpxtpx:TrackPointExtension xmlns:gpxtpx="http://www.garmin.com/xmlschemas/TrackPointExtension/v1">
            <gpxtpx:hr>116</gpxtpx:hr>
          </gpxtpx:TrackPointExtension>
        </extensions>
      </trkpt>
      <trkpt lat="48.61812" lon="2.01133">
        <ele>131.2</ele>
        <time>2025-11-16T12:48:52Z</time>
        <extensions>
          <gpxtpx:TrackPointExtension xmlns:gpxtpx="http://www.garmin.com/xmlschemas/TrackPointExtension/v1">
            <gpxtpx:hr>116</gpxtpx:hr>
          </gpxtpx:TrackPointExtension>
        </extensions>
      </trkpt>
      <trkpt lat="48.61812" lon="2.01136">
        <ele>131.2</ele>
        <time>2025-11-16T12:48:53Z</time>
        <extensions>
          <gpxtpx:TrackPointExtension xmlns:gpxtpx="http://www.garmin.com/xmlschemas/TrackPointExtension/v1">
            <gpxtpx:hr>116</gpxtpx:hr>
          </gpxtpx:TrackPointExtension>
        </extensions>
      </trkpt>
      <trkpt lat="48.61812" lon="2.01139">
        <ele>131.2</ele>
        <time>2025-11-16T12:48:54Z</time>
        <extensions>
          <gpxtpx:TrackPointExtension xmlns:gpxtpx="http://www.garmin.com/xmlschemas/TrackPointExtension/v1">
            <gpxtpx:hr>116</gpxtpx:hr>
          </gpxtpx:TrackPointExtension>
        </extensions>
      </trkpt>
      <trkpt lat="48.61813" lon="2.01142">
        <ele>131.2</ele>
        <time>2025-11-16T12:48:55Z</time>
        <extensions>
          <gpxtpx:TrackPointExtension xmlns:gpxtpx="http://www.garmin.com/xmlschemas/TrackPointExtension/v1">
            <gpxtpx:hr>116</gpxtpx:hr>
          </gpxtpx:TrackPointExtension>
        </extensions>
      </trkpt>
      <trkpt lat="48.61813" lon="2.01145">
        <ele>131.2</ele>
        <time>2025-11-16T12:48:56Z</time>
        <extensions>
          <gpxtpx:TrackPointExtension xmlns:gpxtpx="http://www.garmin.com/xmlschemas/TrackPointExtension/v1">
            <gpxtpx:hr>116</gpxtpx:hr>
          </gpxtpx:TrackPointExtension>
        </extensions>
      </trkpt>
      <trkpt lat="48.61814" lon="2.01148">
        <ele>131.2</ele>
        <time>2025-11-16T12:48:57Z</time>
        <extensions>
          <gpxtpx:TrackPointExtension xmlns:gpxtpx="http://www.garmin.com/xmlschemas/TrackPointExtension/v1">
            <gpxtpx:hr>117</gpxtpx:hr>
          </gpxtpx:TrackPointExtension>
        </extensions>
      </trkpt>
      <trkpt lat="48.61814" lon="2.0115">
        <ele>131.2</ele>
        <time>2025-11-16T12:48:58Z</time>
        <extensions>
          <gpxtpx:TrackPointExtension xmlns:gpxtpx="http://www.garmin.com/xmlschemas/TrackPointExtension/v1">
            <gpxtpx:hr>117</gpxtpx:hr>
          </gpxtpx:TrackPointExtension>
        </extensions>
      </trkpt>
      <trkpt lat="48.61815" lon="2.01153">
        <ele>131.2</ele>
        <time>2025-11-16T12:48:59Z</time>
        <extensions>
          <gpxtpx:TrackPointExtension xmlns:gpxtpx="http://www.garmin.com/xmlschemas/TrackPointExtension/v1">
            <gpxtpx:hr>118</gpxtpx:hr>
          </gpxtpx:TrackPointExtension>
        </extensions>
      </trkpt>
      <trkpt lat="48.61815" lon="2.01156">
        <ele>131.2</ele>
        <time>2025-11-16T12:49:00Z</time>
        <extensions>
          <gpxtpx:TrackPointExtension xmlns:gpxtpx="http://www.garmin.com/xmlschemas/TrackPointExtension/v1">
            <gpxtpx:hr>118</gpxtpx:hr>
          </gpxtpx:TrackPointExtension>
        </extensions>
      </trkpt>
      <trkpt lat="48.61816" lon="2.01159">
        <ele>131.2</ele>
        <time>2025-11-16T12:49:01Z</time>
        <extensions>
          <gpxtpx:TrackPointExtension xmlns:gpxtpx="http://www.garmin.com/xmlschemas/TrackPointExtension/v1">
            <gpxtpx:hr>117</gpxtpx:hr>
          </gpxtpx:TrackPointExtension>
        </extensions>
      </trkpt>
      <trkpt lat="48.61817" lon="2.01163">
        <ele>131.2</ele>
        <time>2025-11-16T12:49:03Z</time>
        <extensions>
          <gpxtpx:TrackPointExtension xmlns:gpxtpx="http://www.garmin.com/xmlschemas/TrackPointExtension/v1">
            <gpxtpx:hr>118</gpxtpx:hr>
          </gpxtpx:TrackPointExtension>
        </extensions>
      </trkpt>
      <trkpt lat="48.61818" lon="2.01168">
        <ele>131</ele>
        <time>2025-11-16T12:49:05Z</time>
        <extensions>
          <gpxtpx:TrackPointExtension xmlns:gpxtpx="http://www.garmin.com/xmlschemas/TrackPointExtension/v1">
            <gpxtpx:hr>118</gpxtpx:hr>
          </gpxtpx:TrackPointExtension>
        </extensions>
      </trkpt>
      <trkpt lat="48.6182" lon="2.01172">
        <ele>131</ele>
        <time>2025-11-16T12:49:07Z</time>
        <extensions>
          <gpxtpx:TrackPointExtension xmlns:gpxtpx="http://www.garmin.com/xmlschemas/TrackPointExtension/v1">
            <gpxtpx:hr>118</gpxtpx:hr>
          </gpxtpx:TrackPointExtension>
        </extensions>
      </trkpt>
      <trkpt lat="48.6182" lon="2.01176">
        <ele>130.8</ele>
        <time>2025-11-16T12:49:09Z</time>
        <extensions>
          <gpxtpx:TrackPointExtension xmlns:gpxtpx="http://www.garmin.com/xmlschemas/TrackPointExtension/v1">
            <gpxtpx:hr>118</gpxtpx:hr>
          </gpxtpx:TrackPointExtension>
        </extensions>
      </trkpt>
      <trkpt lat="48.61821" lon="2.0118">
        <ele>130.8</ele>
        <time>2025-11-16T12:49:11Z</time>
        <extensions>
          <gpxtpx:TrackPointExtension xmlns:gpxtpx="http://www.garmin.com/xmlschemas/TrackPointExtension/v1">
            <gpxtpx:hr>118</gpxtpx:hr>
          </gpxtpx:TrackPointExtension>
        </extensions>
      </trkpt>
      <trkpt lat="48.61822" lon="2.01183">
        <ele>130.8</ele>
        <time>2025-11-16T12:49:13Z</time>
        <extensions>
          <gpxtpx:TrackPointExtension xmlns:gpxtpx="http://www.garmin.com/xmlschemas/TrackPointExtension/v1">
            <gpxtpx:hr>118</gpxtpx:hr>
          </gpxtpx:TrackPointExtension>
        </extensions>
      </trkpt>
      <trkpt lat="48.61823" lon="2.01188">
        <ele>130.8</ele>
        <time>2025-11-16T12:49:15Z</time>
        <extensions>
          <gpxtpx:TrackPointExtension xmlns:gpxtpx="http://www.garmin.com/xmlschemas/TrackPointExtension/v1">
            <gpxtpx:hr>117</gpxtpx:hr>
          </gpxtpx:TrackPointExtension>
        </extensions>
      </trkpt>
      <trkpt lat="48.61824" lon="2.01192">
        <ele>130.8</ele>
        <time>2025-11-16T12:49:17Z</time>
        <extensions>
          <gpxtpx:TrackPointExtension xmlns:gpxtpx="http://www.garmin.com/xmlschemas/TrackPointExtension/v1">
            <gpxtpx:hr>117</gpxtpx:hr>
          </gpxtpx:TrackPointExtension>
        </extensions>
      </trkpt>
      <trkpt lat="48.61824" lon="2.01196">
        <ele>130.8</ele>
        <time>2025-11-16T12:49:19Z</time>
        <extensions>
          <gpxtpx:TrackPointExtension xmlns:gpxtpx="http://www.garmin.com/xmlschemas/TrackPointExtension/v1">
            <gpxtpx:hr>117</gpxtpx:hr>
          </gpxtpx:TrackPointExtension>
        </extensions>
      </trkpt>
      <trkpt lat="48.61824" lon="2.012">
        <ele>130.8</ele>
        <time>2025-11-16T12:49:21Z</time>
        <extensions>
          <gpxtpx:TrackPointExtension xmlns:gpxtpx="http://www.garmin.com/xmlschemas/TrackPointExtension/v1">
            <gpxtpx:hr>118</gpxtpx:hr>
          </gpxtpx:TrackPointExtension>
        </extensions>
      </trkpt>
      <trkpt lat="48.61823" lon="2.01204">
        <ele>130.6</ele>
        <time>2025-11-16T12:49:23Z</time>
        <extensions>
          <gpxtpx:TrackPointExtension xmlns:gpxtpx="http://www.garmin.com/xmlschemas/TrackPointExtension/v1">
            <gpxtpx:hr>118</gpxtpx:hr>
          </gpxtpx:TrackPointExtension>
        </extensions>
      </trkpt>
      <trkpt lat="48.6182" lon="2.01208">
        <ele>130.6</ele>
        <time>2025-11-16T12:49:25Z</time>
        <extensions>
          <gpxtpx:TrackPointExtension xmlns:gpxtpx="http://www.garmin.com/xmlschemas/TrackPointExtension/v1">
            <gpxtpx:hr>118</gpxtpx:hr>
          </gpxtpx:TrackPointExtension>
        </extensions>
      </trkpt>
      <trkpt lat="48.61818" lon="2.0121">
        <ele>130.6</ele>
        <time>2025-11-16T12:49:27Z</time>
        <extensions>
          <gpxtpx:TrackPointExtension xmlns:gpxtpx="http://www.garmin.com/xmlschemas/TrackPointExtension/v1">
            <gpxtpx:hr>118</gpxtpx:hr>
          </gpxtpx:TrackPointExtension>
        </extensions>
      </trkpt>
      <trkpt lat="48.61814" lon="2.01212">
        <ele>130.6</ele>
        <time>2025-11-16T12:49:29Z</time>
        <extensions>
          <gpxtpx:TrackPointExtension xmlns:gpxtpx="http://www.garmin.com/xmlschemas/TrackPointExtension/v1">
            <gpxtpx:hr>118</gpxtpx:hr>
          </gpxtpx:TrackPointExtension>
        </extensions>
      </trkpt>
      <trkpt lat="48.61811" lon="2.01214">
        <ele>130.4</ele>
        <time>2025-11-16T12:49:31Z</time>
        <extensions>
          <gpxtpx:TrackPointExtension xmlns:gpxtpx="http://www.garmin.com/xmlschemas/TrackPointExtension/v1">
            <gpxtpx:hr>117</gpxtpx:hr>
          </gpxtpx:TrackPointExtension>
        </extensions>
      </trkpt>
      <trkpt lat="48.61807" lon="2.01216">
        <ele>130.4</ele>
        <time>2025-11-16T12:49:33Z</time>
        <extensions>
          <gpxtpx:TrackPointExtension xmlns:gpxtpx="http://www.garmin.com/xmlschemas/TrackPointExtension/v1">
            <gpxtpx:hr>117</gpxtpx:hr>
          </gpxtpx:TrackPointExtension>
        </extensions>
      </trkpt>
      <trkpt lat="48.61804" lon="2.01218">
        <ele>130.4</ele>
        <time>2025-11-16T12:49:35Z</time>
        <extensions>
          <gpxtpx:TrackPointExtension xmlns:gpxtpx="http://www.garmin.com/xmlschemas/TrackPointExtension/v1">
            <gpxtpx:hr>117</gpxtpx:hr>
          </gpxtpx:TrackPointExtension>
        </extensions>
      </trkpt>
      <trkpt lat="48.61802" lon="2.01219">
        <ele>130.4</ele>
        <time>2025-11-16T12:49:36Z</time>
        <extensions>
          <gpxtpx:TrackPointExtension xmlns:gpxtpx="http://www.garmin.com/xmlschemas/TrackPointExtension/v1">
            <gpxtpx:hr>118</gpxtpx:hr>
          </gpxtpx:TrackPointExtension>
        </extensions>
      </trkpt>
      <trkpt lat="48.61801" lon="2.01221">
        <ele>130.4</ele>
        <time>2025-11-16T12:49:37Z</time>
        <extensions>
          <gpxtpx:TrackPointExtension xmlns:gpxtpx="http://www.garmin.com/xmlschemas/TrackPointExtension/v1">
            <gpxtpx:hr>118</gpxtpx:hr>
          </gpxtpx:TrackPointExtension>
        </extensions>
      </trkpt>
      <trkpt lat="48.61797" lon="2.01223">
        <ele>130.4</ele>
        <time>2025-11-16T12:49:39Z</time>
        <extensions>
          <gpxtpx:TrackPointExtension xmlns:gpxtpx="http://www.garmin.com/xmlschemas/TrackPointExtension/v1">
            <gpxtpx:hr>118</gpxtpx:hr>
          </gpxtpx:TrackPointExtension>
        </extensions>
      </trkpt>
      <trkpt lat="48.61796" lon="2.01225">
        <ele>130.4</ele>
        <time>2025-11-16T12:49:40Z</time>
        <extensions>
          <gpxtpx:TrackPointExtension xmlns:gpxtpx="http://www.garmin.com/xmlschemas/TrackPointExtension/v1">
            <gpxtpx:hr>118</gpxtpx:hr>
          </gpxtpx:TrackPointExtension>
        </extensions>
      </trkpt>
      <trkpt lat="48.61793" lon="2.01228">
        <ele>130.4</ele>
        <time>2025-11-16T12:49:42Z</time>
        <extensions>
          <gpxtpx:TrackPointExtension xmlns:gpxtpx="http://www.garmin.com/xmlschemas/TrackPointExtension/v1">
            <gpxtpx:hr>118</gpxtpx:hr>
          </gpxtpx:TrackPointExtension>
        </extensions>
      </trkpt>
      <trkpt lat="48.61792" lon="2.01229">
        <ele>130.4</ele>
        <time>2025-11-16T12:49:43Z</time>
        <extensions>
          <gpxtpx:TrackPointExtension xmlns:gpxtpx="http://www.garmin.com/xmlschemas/TrackPointExtension/v1">
            <gpxtpx:hr>118</gpxtpx:hr>
          </gpxtpx:TrackPointExtension>
        </extensions>
      </trkpt>
      <trkpt lat="48.6179" lon="2.01231">
        <ele>130.4</ele>
        <time>2025-11-16T12:49:44Z</time>
        <extensions>
          <gpxtpx:TrackPointExtension xmlns:gpxtpx="http://www.garmin.com/xmlschemas/TrackPointExtension/v1">
            <gpxtpx:hr>118</gpxtpx:hr>
          </gpxtpx:TrackPointExtension>
        </extensions>
      </trkpt>
      <trkpt lat="48.61788" lon="2.01233">
        <ele>130.4</ele>
        <time>2025-11-16T12:49:45Z</time>
        <extensions>
          <gpxtpx:TrackPointExtension xmlns:gpxtpx="http://www.garmin.com/xmlschemas/TrackPointExtension/v1">
            <gpxtpx:hr>118</gpxtpx:hr>
          </gpxtpx:TrackPointExtension>
        </extensions>
      </trkpt>
      <trkpt lat="48.61787" lon="2.01235">
        <ele>130.6</ele>
        <time>2025-11-16T12:49:46Z</time>
        <extensions>
          <gpxtpx:TrackPointExtension xmlns:gpxtpx="http://www.garmin.com/xmlschemas/TrackPointExtension/v1">
            <gpxtpx:hr>118</gpxtpx:hr>
          </gpxtpx:TrackPointExtension>
        </extensions>
      </trkpt>
      <trkpt lat="48.61785" lon="2.01237">
        <ele>130.6</ele>
        <time>2025-11-16T12:49:47Z</time>
        <extensions>
          <gpxtpx:TrackPointExtension xmlns:gpxtpx="http://www.garmin.com/xmlschemas/TrackPointExtension/v1">
            <gpxtpx:hr>118</gpxtpx:hr>
          </gpxtpx:TrackPointExtension>
        </extensions>
      </trkpt>
      <trkpt lat="48.61783" lon="2.01239">
        <ele>130.6</ele>
        <time>2025-11-16T12:49:48Z</time>
        <extensions>
          <gpxtpx:TrackPointExtension xmlns:gpxtpx="http://www.garmin.com/xmlschemas/TrackPointExtension/v1">
            <gpxtpx:hr>118</gpxtpx:hr>
          </gpxtpx:TrackPointExtension>
        </extensions>
      </trkpt>
      <trkpt lat="48.61782" lon="2.01241">
        <ele>130.6</ele>
        <time>2025-11-16T12:49:49Z</time>
        <extensions>
          <gpxtpx:TrackPointExtension xmlns:gpxtpx="http://www.garmin.com/xmlschemas/TrackPointExtension/v1">
            <gpxtpx:hr>118</gpxtpx:hr>
          </gpxtpx:TrackPointExtension>
        </extensions>
      </trkpt>
      <trkpt lat="48.6178" lon="2.01243">
        <ele>130.6</ele>
        <time>2025-11-16T12:49:50Z</time>
        <extensions>
          <gpxtpx:TrackPointExtension xmlns:gpxtpx="http://www.garmin.com/xmlschemas/TrackPointExtension/v1">
            <gpxtpx:hr>119</gpxtpx:hr>
          </gpxtpx:TrackPointExtension>
        </extensions>
      </trkpt>
      <trkpt lat="48.61778" lon="2.01246">
        <ele>130.6</ele>
        <time>2025-11-16T12:49:52Z</time>
        <extensions>
          <gpxtpx:TrackPointExtension xmlns:gpxtpx="http://www.garmin.com/xmlschemas/TrackPointExtension/v1">
            <gpxtpx:hr>119</gpxtpx:hr>
          </gpxtpx:TrackPointExtension>
        </extensions>
      </trkpt>
      <trkpt lat="48.61775" lon="2.01248">
        <ele>130.6</ele>
        <time>2025-11-16T12:49:54Z</time>
        <extensions>
          <gpxtpx:TrackPointExtension xmlns:gpxtpx="http://www.garmin.com/xmlschemas/TrackPointExtension/v1">
            <gpxtpx:hr>118</gpxtpx:hr>
          </gpxtpx:TrackPointExtension>
        </extensions>
      </trkpt>
      <trkpt lat="48.61772" lon="2.01251">
        <ele>130.8</ele>
        <time>2025-11-16T12:49:56Z</time>
        <extensions>
          <gpxtpx:TrackPointExtension xmlns:gpxtpx="http://www.garmin.com/xmlschemas/TrackPointExtension/v1">
            <gpxtpx:hr>118</gpxtpx:hr>
          </gpxtpx:TrackPointExtension>
        </extensions>
      </trkpt>
      <trkpt lat="48.6177" lon="2.01253">
        <ele>130.6</ele>
        <time>2025-11-16T12:49:58Z</time>
        <extensions>
          <gpxtpx:TrackPointExtension xmlns:gpxtpx="http://www.garmin.com/xmlschemas/TrackPointExtension/v1">
            <gpxtpx:hr>118</gpxtpx:hr>
          </gpxtpx:TrackPointExtension>
        </extensions>
      </trkpt>
      <trkpt lat="48.61767" lon="2.01256">
        <ele>130.6</ele>
        <time>2025-11-16T12:50:00Z</time>
        <extensions>
          <gpxtpx:TrackPointExtension xmlns:gpxtpx="http://www.garmin.com/xmlschemas/TrackPointExtension/v1">
            <gpxtpx:hr>118</gpxtpx:hr>
          </gpxtpx:TrackPointExtension>
        </extensions>
      </trkpt>
      <trkpt lat="48.61764" lon="2.01259">
        <ele>130.6</ele>
        <time>2025-11-16T12:50:02Z</time>
        <extensions>
          <gpxtpx:TrackPointExtension xmlns:gpxtpx="http://www.garmin.com/xmlschemas/TrackPointExtension/v1">
            <gpxtpx:hr>119</gpxtpx:hr>
          </gpxtpx:TrackPointExtension>
        </extensions>
      </trkpt>
      <trkpt lat="48.61762" lon="2.01263">
        <ele>130.6</ele>
        <time>2025-11-16T12:50:04Z</time>
        <extensions>
          <gpxtpx:TrackPointExtension xmlns:gpxtpx="http://www.garmin.com/xmlschemas/TrackPointExtension/v1">
            <gpxtpx:hr>119</gpxtpx:hr>
          </gpxtpx:TrackPointExtension>
        </extensions>
      </trkpt>
      <trkpt lat="48.6176" lon="2.01265">
        <ele>130.6</ele>
        <time>2025-11-16T12:50:05Z</time>
        <extensions>
          <gpxtpx:TrackPointExtension xmlns:gpxtpx="http://www.garmin.com/xmlschemas/TrackPointExtension/v1">
            <gpxtpx:hr>119</gpxtpx:hr>
          </gpxtpx:TrackPointExtension>
        </extensions>
      </trkpt>
      <trkpt lat="48.61758" lon="2.01267">
        <ele>130.4</ele>
        <time>2025-11-16T12:50:06Z</time>
        <extensions>
          <gpxtpx:TrackPointExtension xmlns:gpxtpx="http://www.garmin.com/xmlschemas/TrackPointExtension/v1">
            <gpxtpx:hr>119</gpxtpx:hr>
          </gpxtpx:TrackPointExtension>
        </extensions>
      </trkpt>
      <trkpt lat="48.61757" lon="2.01268">
        <ele>130.4</ele>
        <time>2025-11-16T12:50:07Z</time>
        <extensions>
          <gpxtpx:TrackPointExtension xmlns:gpxtpx="http://www.garmin.com/xmlschemas/TrackPointExtension/v1">
            <gpxtpx:hr>119</gpxtpx:hr>
          </gpxtpx:TrackPointExtension>
        </extensions>
      </trkpt>
      <trkpt lat="48.61755" lon="2.0127">
        <ele>130.4</ele>
        <time>2025-11-16T12:50:08Z</time>
        <extensions>
          <gpxtpx:TrackPointExtension xmlns:gpxtpx="http://www.garmin.com/xmlschemas/TrackPointExtension/v1">
            <gpxtpx:hr>119</gpxtpx:hr>
          </gpxtpx:TrackPointExtension>
        </extensions>
      </trkpt>
      <trkpt lat="48.61752" lon="2.01273">
        <ele>130.2</ele>
        <time>2025-11-16T12:50:10Z</time>
        <extensions>
          <gpxtpx:TrackPointExtension xmlns:gpxtpx="http://www.garmin.com/xmlschemas/TrackPointExtension/v1">
            <gpxtpx:hr>119</gpxtpx:hr>
          </gpxtpx:TrackPointExtension>
        </extensions>
      </trkpt>
      <trkpt lat="48.61751" lon="2.01274">
        <ele>130.2</ele>
        <time>2025-11-16T12:50:11Z</time>
        <extensions>
          <gpxtpx:TrackPointExtension xmlns:gpxtpx="http://www.garmin.com/xmlschemas/TrackPointExtension/v1">
            <gpxtpx:hr>119</gpxtpx:hr>
          </gpxtpx:TrackPointExtension>
        </extensions>
      </trkpt>
      <trkpt lat="48.61748" lon="2.01277">
        <ele>130</ele>
        <time>2025-11-16T12:50:13Z</time>
        <extensions>
          <gpxtpx:TrackPointExtension xmlns:gpxtpx="http://www.garmin.com/xmlschemas/TrackPointExtension/v1">
            <gpxtpx:hr>119</gpxtpx:hr>
          </gpxtpx:TrackPointExtension>
        </extensions>
      </trkpt>
      <trkpt lat="48.61746" lon="2.0128">
        <ele>130</ele>
        <time>2025-11-16T12:50:15Z</time>
        <extensions>
          <gpxtpx:TrackPointExtension xmlns:gpxtpx="http://www.garmin.com/xmlschemas/TrackPointExtension/v1">
            <gpxtpx:hr>119</gpxtpx:hr>
          </gpxtpx:TrackPointExtension>
        </extensions>
      </trkpt>
      <trkpt lat="48.61744" lon="2.01282">
        <ele>129.8</ele>
        <time>2025-11-16T12:50:17Z</time>
        <extensions>
          <gpxtpx:TrackPointExtension xmlns:gpxtpx="http://www.garmin.com/xmlschemas/TrackPointExtension/v1">
            <gpxtpx:hr>119</gpxtpx:hr>
          </gpxtpx:TrackPointExtension>
        </extensions>
      </trkpt>
      <trkpt lat="48.61741" lon="2.01284">
        <ele>129.8</ele>
        <time>2025-11-16T12:50:19Z</time>
        <extensions>
          <gpxtpx:TrackPointExtension xmlns:gpxtpx="http://www.garmin.com/xmlschemas/TrackPointExtension/v1">
            <gpxtpx:hr>118</gpxtpx:hr>
          </gpxtpx:TrackPointExtension>
        </extensions>
      </trkpt>
      <trkpt lat="48.61739" lon="2.01287">
        <ele>129.6</ele>
        <time>2025-11-16T12:50:21Z</time>
        <extensions>
          <gpxtpx:TrackPointExtension xmlns:gpxtpx="http://www.garmin.com/xmlschemas/TrackPointExtension/v1">
            <gpxtpx:hr>117</gpxtpx:hr>
          </gpxtpx:TrackPointExtension>
        </extensions>
      </trkpt>
      <trkpt lat="48.61736" lon="2.0129">
        <ele>129.6</ele>
        <time>2025-11-16T12:50:23Z</time>
        <extensions>
          <gpxtpx:TrackPointExtension xmlns:gpxtpx="http://www.garmin.com/xmlschemas/TrackPointExtension/v1">
            <gpxtpx:hr>115</gpxtpx:hr>
          </gpxtpx:TrackPointExtension>
        </extensions>
      </trkpt>
      <trkpt lat="48.61735" lon="2.01291">
        <ele>129.6</ele>
        <time>2025-11-16T12:50:24Z</time>
        <extensions>
          <gpxtpx:TrackPointExtension xmlns:gpxtpx="http://www.garmin.com/xmlschemas/TrackPointExtension/v1">
            <gpxtpx:hr>115</gpxtpx:hr>
          </gpxtpx:TrackPointExtension>
        </extensions>
      </trkpt>
      <trkpt lat="48.61733" lon="2.01292">
        <ele>129.4</ele>
        <time>2025-11-16T12:50:25Z</time>
      </trkpt>
      <trkpt lat="48.61731" lon="2.01295">
        <ele>129.4</ele>
        <time>2025-11-16T12:50:27Z</time>
        <extensions>
          <gpxtpx:TrackPointExtension xmlns:gpxtpx="http://www.garmin.com/xmlschemas/TrackPointExtension/v1">
            <gpxtpx:hr>115</gpxtpx:hr>
          </gpxtpx:TrackPointExtension>
        </extensions>
      </trkpt>
      <trkpt lat="48.61729" lon="2.01298">
        <ele>129.2</ele>
        <time>2025-11-16T12:50:29Z</time>
        <extensions>
          <gpxtpx:TrackPointExtension xmlns:gpxtpx="http://www.garmin.com/xmlschemas/TrackPointExtension/v1">
            <gpxtpx:hr>116</gpxtpx:hr>
          </gpxtpx:TrackPointExtension>
        </extensions>
      </trkpt>
      <trkpt lat="48.61726" lon="2.01301">
        <ele>129.2</ele>
        <time>2025-11-16T12:50:31Z</time>
        <extensions>
          <gpxtpx:TrackPointExtension xmlns:gpxtpx="http://www.garmin.com/xmlschemas/TrackPointExtension/v1">
            <gpxtpx:hr>118</gpxtpx:hr>
          </gpxtpx:TrackPointExtension>
        </extensions>
      </trkpt>
      <trkpt lat="48.61724" lon="2.01304">
        <ele>129.2</ele>
        <time>2025-11-16T12:50:33Z</time>
        <extensions>
          <gpxtpx:TrackPointExtension xmlns:gpxtpx="http://www.garmin.com/xmlschemas/TrackPointExtension/v1">
            <gpxtpx:hr>118</gpxtpx:hr>
          </gpxtpx:TrackPointExtension>
        </extensions>
      </trkpt>
      <trkpt lat="48.61722" lon="2.01307">
        <ele>129.2</ele>
        <time>2025-11-16T12:50:35Z</time>
        <extensions>
          <gpxtpx:TrackPointExtension xmlns:gpxtpx="http://www.garmin.com/xmlschemas/TrackPointExtension/v1">
            <gpxtpx:hr>118</gpxtpx:hr>
          </gpxtpx:TrackPointExtension>
        </extensions>
      </trkpt>
      <trkpt lat="48.6172" lon="2.01309">
        <ele>129.2</ele>
        <time>2025-11-16T12:50:36Z</time>
        <extensions>
          <gpxtpx:TrackPointExtension xmlns:gpxtpx="http://www.garmin.com/xmlschemas/TrackPointExtension/v1">
            <gpxtpx:hr>118</gpxtpx:hr>
          </gpxtpx:TrackPointExtension>
        </extensions>
      </trkpt>
      <trkpt lat="48.61718" lon="2.01312">
        <ele>129.2</ele>
        <time>2025-11-16T12:50:38Z</time>
        <extensions>
          <gpxtpx:TrackPointExtension xmlns:gpxtpx="http://www.garmin.com/xmlschemas/TrackPointExtension/v1">
            <gpxtpx:hr>118</gpxtpx:hr>
          </gpxtpx:TrackPointExtension>
        </extensions>
      </trkpt>
      <trkpt lat="48.61715" lon="2.01315">
        <ele>129.2</ele>
        <time>2025-11-16T12:50:40Z</time>
        <extensions>
          <gpxtpx:TrackPointExtension xmlns:gpxtpx="http://www.garmin.com/xmlschemas/TrackPointExtension/v1">
            <gpxtpx:hr>118</gpxtpx:hr>
          </gpxtpx:TrackPointExtension>
        </extensions>
      </trkpt>
      <trkpt lat="48.61712" lon="2.01319">
        <ele>129.2</ele>
        <time>2025-11-16T12:50:42Z</time>
        <extensions>
          <gpxtpx:TrackPointExtension xmlns:gpxtpx="http://www.garmin.com/xmlschemas/TrackPointExtension/v1">
            <gpxtpx:hr>119</gpxtpx:hr>
          </gpxtpx:TrackPointExtension>
        </extensions>
      </trkpt>
      <trkpt lat="48.61711" lon="2.01321">
        <ele>129.2</ele>
        <time>2025-11-16T12:50:43Z</time>
        <extensions>
          <gpxtpx:TrackPointExtension xmlns:gpxtpx="http://www.garmin.com/xmlschemas/TrackPointExtension/v1">
            <gpxtpx:hr>120</gpxtpx:hr>
          </gpxtpx:TrackPointExtension>
        </extensions>
      </trkpt>
      <trkpt lat="48.61709" lon="2.01323">
        <ele>129.2</ele>
        <time>2025-11-16T12:50:44Z</time>
        <extensions>
          <gpxtpx:TrackPointExtension xmlns:gpxtpx="http://www.garmin.com/xmlschemas/TrackPointExtension/v1">
            <gpxtpx:hr>120</gpxtpx:hr>
          </gpxtpx:TrackPointExtension>
        </extensions>
      </trkpt>
      <trkpt lat="48.61707" lon="2.01325">
        <ele>129</ele>
        <time>2025-11-16T12:50:45Z</time>
        <extensions>
          <gpxtpx:TrackPointExtension xmlns:gpxtpx="http://www.garmin.com/xmlschemas/TrackPointExtension/v1">
            <gpxtpx:hr>120</gpxtpx:hr>
          </gpxtpx:TrackPointExtension>
        </extensions>
      </trkpt>
      <trkpt lat="48.61705" lon="2.01327">
        <ele>129</ele>
        <time>2025-11-16T12:50:46Z</time>
        <extensions>
          <gpxtpx:TrackPointExtension xmlns:gpxtpx="http://www.garmin.com/xmlschemas/TrackPointExtension/v1">
            <gpxtpx:hr>120</gpxtpx:hr>
          </gpxtpx:TrackPointExtension>
        </extensions>
      </trkpt>
      <trkpt lat="48.61703" lon="2.0133">
        <ele>129</ele>
        <time>2025-11-16T12:50:47Z</time>
        <extensions>
          <gpxtpx:TrackPointExtension xmlns:gpxtpx="http://www.garmin.com/xmlschemas/TrackPointExtension/v1">
            <gpxtpx:hr>120</gpxtpx:hr>
          </gpxtpx:TrackPointExtension>
        </extensions>
      </trkpt>
      <trkpt lat="48.61701" lon="2.01332">
        <ele>128.8</ele>
        <time>2025-11-16T12:50:48Z</time>
        <extensions>
          <gpxtpx:TrackPointExtension xmlns:gpxtpx="http://www.garmin.com/xmlschemas/TrackPointExtension/v1">
            <gpxtpx:hr>120</gpxtpx:hr>
          </gpxtpx:TrackPointExtension>
        </extensions>
      </trkpt>
      <trkpt lat="48.61699" lon="2.01335">
        <ele>128.8</ele>
        <time>2025-11-16T12:50:49Z</time>
        <extensions>
          <gpxtpx:TrackPointExtension xmlns:gpxtpx="http://www.garmin.com/xmlschemas/TrackPointExtension/v1">
            <gpxtpx:hr>120</gpxtpx:hr>
          </gpxtpx:TrackPointExtension>
        </extensions>
      </trkpt>
      <trkpt lat="48.61697" lon="2.01337">
        <ele>128.8</ele>
        <time>2025-11-16T12:50:50Z</time>
        <extensions>
          <gpxtpx:TrackPointExtension xmlns:gpxtpx="http://www.garmin.com/xmlschemas/TrackPointExtension/v1">
            <gpxtpx:hr>121</gpxtpx:hr>
          </gpxtpx:TrackPointExtension>
        </extensions>
      </trkpt>
      <trkpt lat="48.61695" lon="2.01339">
        <ele>128.6</ele>
        <time>2025-11-16T12:50:51Z</time>
        <extensions>
          <gpxtpx:TrackPointExtension xmlns:gpxtpx="http://www.garmin.com/xmlschemas/TrackPointExtension/v1">
            <gpxtpx:hr>121</gpxtpx:hr>
          </gpxtpx:TrackPointExtension>
        </extensions>
      </trkpt>
      <trkpt lat="48.61693" lon="2.01341">
        <ele>128.6</ele>
        <time>2025-11-16T12:50:52Z</time>
        <extensions>
          <gpxtpx:TrackPointExtension xmlns:gpxtpx="http://www.garmin.com/xmlschemas/TrackPointExtension/v1">
            <gpxtpx:hr>121</gpxtpx:hr>
          </gpxtpx:TrackPointExtension>
        </extensions>
      </trkpt>
      <trkpt lat="48.61691" lon="2.01343">
        <ele>128.6</ele>
        <time>2025-11-16T12:50:53Z</time>
        <extensions>
          <gpxtpx:TrackPointExtension xmlns:gpxtpx="http://www.garmin.com/xmlschemas/TrackPointExtension/v1">
            <gpxtpx:hr>121</gpxtpx:hr>
          </gpxtpx:TrackPointExtension>
        </extensions>
      </trkpt>
      <trkpt lat="48.6169" lon="2.01345">
        <ele>128.6</ele>
        <time>2025-11-16T12:50:54Z</time>
        <extensions>
          <gpxtpx:TrackPointExtension xmlns:gpxtpx="http://www.garmin.com/xmlschemas/TrackPointExtension/v1">
            <gpxtpx:hr>120</gpxtpx:hr>
          </gpxtpx:TrackPointExtension>
        </extensions>
      </trkpt>
      <trkpt lat="48.61687" lon="2.01348">
        <ele>128.4</ele>
        <time>2025-11-16T12:50:56Z</time>
        <extensions>
          <gpxtpx:TrackPointExtension xmlns:gpxtpx="http://www.garmin.com/xmlschemas/TrackPointExtension/v1">
            <gpxtpx:hr>120</gpxtpx:hr>
          </gpxtpx:TrackPointExtension>
        </extensions>
      </trkpt>
      <trkpt lat="48.61684" lon="2.01351">
        <ele>128.2</ele>
        <time>2025-11-16T12:50:58Z</time>
        <extensions>
          <gpxtpx:TrackPointExtension xmlns:gpxtpx="http://www.garmin.com/xmlschemas/TrackPointExtension/v1">
            <gpxtpx:hr>120</gpxtpx:hr>
          </gpxtpx:TrackPointExtension>
        </extensions>
      </trkpt>
      <trkpt lat="48.61682" lon="2.01354">
        <ele>128</ele>
        <time>2025-11-16T12:51:00Z</time>
        <extensions>
          <gpxtpx:TrackPointExtension xmlns:gpxtpx="http://www.garmin.com/xmlschemas/TrackPointExtension/v1">
            <gpxtpx:hr>120</gpxtpx:hr>
          </gpxtpx:TrackPointExtension>
        </extensions>
      </trkpt>
      <trkpt lat="48.61679" lon="2.01357">
        <ele>127.8</ele>
        <time>2025-11-16T12:51:02Z</time>
        <extensions>
          <gpxtpx:TrackPointExtension xmlns:gpxtpx="http://www.garmin.com/xmlschemas/TrackPointExtension/v1">
            <gpxtpx:hr>120</gpxtpx:hr>
          </gpxtpx:TrackPointExtension>
        </extensions>
      </trkpt>
      <trkpt lat="48.61677" lon="2.01359">
        <ele>127.8</ele>
        <time>2025-11-16T12:51:03Z</time>
        <extensions>
          <gpxtpx:TrackPointExtension xmlns:gpxtpx="http://www.garmin.com/xmlschemas/TrackPointExtension/v1">
            <gpxtpx:hr>120</gpxtpx:hr>
          </gpxtpx:TrackPointExtension>
        </extensions>
      </trkpt>
      <trkpt lat="48.61675" lon="2.01362">
        <ele>127.6</ele>
        <time>2025-11-16T12:51:05Z</time>
        <extensions>
          <gpxtpx:TrackPointExtension xmlns:gpxtpx="http://www.garmin.com/xmlschemas/TrackPointExtension/v1">
            <gpxtpx:hr>120</gpxtpx:hr>
          </gpxtpx:TrackPointExtension>
        </extensions>
      </trkpt>
      <trkpt lat="48.61673" lon="2.01365">
        <ele>127.4</ele>
        <time>2025-11-16T12:51:07Z</time>
        <extensions>
          <gpxtpx:TrackPointExtension xmlns:gpxtpx="http://www.garmin.com/xmlschemas/TrackPointExtension/v1">
            <gpxtpx:hr>120</gpxtpx:hr>
          </gpxtpx:TrackPointExtension>
        </extensions>
      </trkpt>
      <trkpt lat="48.61672" lon="2.01368">
        <ele>127.2</ele>
        <time>2025-11-16T12:51:09Z</time>
        <extensions>
          <gpxtpx:TrackPointExtension xmlns:gpxtpx="http://www.garmin.com/xmlschemas/TrackPointExtension/v1">
            <gpxtpx:hr>120</gpxtpx:hr>
          </gpxtpx:TrackPointExtension>
        </extensions>
      </trkpt>
      <trkpt lat="48.6167" lon="2.01371">
        <ele>127</ele>
        <time>2025-11-16T12:51:11Z</time>
        <extensions>
          <gpxtpx:TrackPointExtension xmlns:gpxtpx="http://www.garmin.com/xmlschemas/TrackPointExtension/v1">
            <gpxtpx:hr>120</gpxtpx:hr>
          </gpxtpx:TrackPointExtension>
        </extensions>
      </trkpt>
      <trkpt lat="48.61668" lon="2.01373">
        <ele>127</ele>
        <time>2025-11-16T12:51:13Z</time>
        <extensions>
          <gpxtpx:TrackPointExtension xmlns:gpxtpx="http://www.garmin.com/xmlschemas/TrackPointExtension/v1">
            <gpxtpx:hr>120</gpxtpx:hr>
          </gpxtpx:TrackPointExtension>
        </extensions>
      </trkpt>
      <trkpt lat="48.61665" lon="2.01376">
        <ele>126.8</ele>
        <time>2025-11-16T12:51:15Z</time>
        <extensions>
          <gpxtpx:TrackPointExtension xmlns:gpxtpx="http://www.garmin.com/xmlschemas/TrackPointExtension/v1">
            <gpxtpx:hr>120</gpxtpx:hr>
          </gpxtpx:TrackPointExtension>
        </extensions>
      </trkpt>
      <trkpt lat="48.61663" lon="2.01378">
        <ele>126.8</ele>
        <time>2025-11-16T12:51:16Z</time>
        <extensions>
          <gpxtpx:TrackPointExtension xmlns:gpxtpx="http://www.garmin.com/xmlschemas/TrackPointExtension/v1">
            <gpxtpx:hr>120</gpxtpx:hr>
          </gpxtpx:TrackPointExtension>
        </extensions>
      </trkpt>
      <trkpt lat="48.61661" lon="2.01382">
        <ele>126.8</ele>
        <time>2025-11-16T12:51:18Z</time>
        <extensions>
          <gpxtpx:TrackPointExtension xmlns:gpxtpx="http://www.garmin.com/xmlschemas/TrackPointExtension/v1">
            <gpxtpx:hr>120</gpxtpx:hr>
          </gpxtpx:TrackPointExtension>
        </extensions>
      </trkpt>
      <trkpt lat="48.61659" lon="2.01384">
        <ele>126.6</ele>
        <time>2025-11-16T12:51:19Z</time>
        <extensions>
          <gpxtpx:TrackPointExtension xmlns:gpxtpx="http://www.garmin.com/xmlschemas/TrackPointExtension/v1">
            <gpxtpx:hr>120</gpxtpx:hr>
          </gpxtpx:TrackPointExtension>
        </extensions>
      </trkpt>
      <trkpt lat="48.61658" lon="2.01386">
        <ele>126.6</ele>
        <time>2025-11-16T12:51:20Z</time>
        <extensions>
          <gpxtpx:TrackPointExtension xmlns:gpxtpx="http://www.garmin.com/xmlschemas/TrackPointExtension/v1">
            <gpxtpx:hr>120</gpxtpx:hr>
          </gpxtpx:TrackPointExtension>
        </extensions>
      </trkpt>
      <trkpt lat="48.61656" lon="2.01388">
        <ele>126.6</ele>
        <time>2025-11-16T12:51:21Z</time>
        <extensions>
          <gpxtpx:TrackPointExtension xmlns:gpxtpx="http://www.garmin.com/xmlschemas/TrackPointExtension/v1">
            <gpxtpx:hr>121</gpxtpx:hr>
          </gpxtpx:TrackPointExtension>
        </extensions>
      </trkpt>
      <trkpt lat="48.61654" lon="2.0139">
        <ele>126.6</ele>
        <time>2025-11-16T12:51:22Z</time>
        <extensions>
          <gpxtpx:TrackPointExtension xmlns:gpxtpx="http://www.garmin.com/xmlschemas/TrackPointExtension/v1">
            <gpxtpx:hr>121</gpxtpx:hr>
          </gpxtpx:TrackPointExtension>
        </extensions>
      </trkpt>
      <trkpt lat="48.61653" lon="2.01392">
        <ele>126.6</ele>
        <time>2025-11-16T12:51:23Z</time>
        <extensions>
          <gpxtpx:TrackPointExtension xmlns:gpxtpx="http://www.garmin.com/xmlschemas/TrackPointExtension/v1">
            <gpxtpx:hr>121</gpxtpx:hr>
          </gpxtpx:TrackPointExtension>
        </extensions>
      </trkpt>
      <trkpt lat="48.61651" lon="2.01393">
        <ele>126.6</ele>
        <time>2025-11-16T12:51:24Z</time>
        <extensions>
          <gpxtpx:TrackPointExtension xmlns:gpxtpx="http://www.garmin.com/xmlschemas/TrackPointExtension/v1">
            <gpxtpx:hr>121</gpxtpx:hr>
          </gpxtpx:TrackPointExtension>
        </extensions>
      </trkpt>
      <trkpt lat="48.6165" lon="2.01395">
        <ele>126.4</ele>
        <time>2025-11-16T12:51:25Z</time>
        <extensions>
          <gpxtpx:TrackPointExtension xmlns:gpxtpx="http://www.garmin.com/xmlschemas/TrackPointExtension/v1">
            <gpxtpx:hr>121</gpxtpx:hr>
          </gpxtpx:TrackPointExtension>
        </extensions>
      </trkpt>
      <trkpt lat="48.61647" lon="2.01398">
        <ele>126.4</ele>
        <time>2025-11-16T12:51:27Z</time>
        <extensions>
          <gpxtpx:TrackPointExtension xmlns:gpxtpx="http://www.garmin.com/xmlschemas/TrackPointExtension/v1">
            <gpxtpx:hr>121</gpxtpx:hr>
          </gpxtpx:TrackPointExtension>
        </extensions>
      </trkpt>
      <trkpt lat="48.61645" lon="2.01401">
        <ele>126.4</ele>
        <time>2025-11-16T12:51:29Z</time>
        <extensions>
          <gpxtpx:TrackPointExtension xmlns:gpxtpx="http://www.garmin.com/xmlschemas/TrackPointExtension/v1">
            <gpxtpx:hr>121</gpxtpx:hr>
          </gpxtpx:TrackPointExtension>
        </extensions>
      </trkpt>
      <trkpt lat="48.61644" lon="2.01403">
        <ele>126.6</ele>
        <time>2025-11-16T12:51:31Z</time>
        <extensions>
          <gpxtpx:TrackPointExtension xmlns:gpxtpx="http://www.garmin.com/xmlschemas/TrackPointExtension/v1">
            <gpxtpx:hr>121</gpxtpx:hr>
          </gpxtpx:TrackPointExtension>
        </extensions>
      </trkpt>
      <trkpt lat="48.61642" lon="2.01405">
        <ele>126.8</ele>
        <time>2025-11-16T12:51:33Z</time>
        <extensions>
          <gpxtpx:TrackPointExtension xmlns:gpxtpx="http://www.garmin.com/xmlschemas/TrackPointExtension/v1">
            <gpxtpx:hr>121</gpxtpx:hr>
          </gpxtpx:TrackPointExtension>
        </extensions>
      </trkpt>
      <trkpt lat="48.6164" lon="2.01408">
        <ele>126.8</ele>
        <time>2025-11-16T12:51:35Z</time>
        <extensions>
          <gpxtpx:TrackPointExtension xmlns:gpxtpx="http://www.garmin.com/xmlschemas/TrackPointExtension/v1">
            <gpxtpx:hr>121</gpxtpx:hr>
          </gpxtpx:TrackPointExtension>
        </extensions>
      </trkpt>
      <trkpt lat="48.61638" lon="2.0141">
        <ele>126.8</ele>
        <time>2025-11-16T12:51:37Z</time>
        <extensions>
          <gpxtpx:TrackPointExtension xmlns:gpxtpx="http://www.garmin.com/xmlschemas/TrackPointExtension/v1">
            <gpxtpx:hr>122</gpxtpx:hr>
          </gpxtpx:TrackPointExtension>
        </extensions>
      </trkpt>
      <trkpt lat="48.61635" lon="2.01414">
        <ele>126.8</ele>
        <time>2025-11-16T12:51:39Z</time>
        <extensions>
          <gpxtpx:TrackPointExtension xmlns:gpxtpx="http://www.garmin.com/xmlschemas/TrackPointExtension/v1">
            <gpxtpx:hr>122</gpxtpx:hr>
          </gpxtpx:TrackPointExtension>
        </extensions>
      </trkpt>
      <trkpt lat="48.61634" lon="2.01416">
        <ele>126.8</ele>
        <time>2025-11-16T12:51:40Z</time>
        <extensions>
          <gpxtpx:TrackPointExtension xmlns:gpxtpx="http://www.garmin.com/xmlschemas/TrackPointExtension/v1">
            <gpxtpx:hr>122</gpxtpx:hr>
          </gpxtpx:TrackPointExtension>
        </extensions>
      </trkpt>
      <trkpt lat="48.61631" lon="2.0142">
        <ele>127</ele>
        <time>2025-11-16T12:51:42Z</time>
        <extensions>
          <gpxtpx:TrackPointExtension xmlns:gpxtpx="http://www.garmin.com/xmlschemas/TrackPointExtension/v1">
            <gpxtpx:hr>122</gpxtpx:hr>
          </gpxtpx:TrackPointExtension>
        </extensions>
      </trkpt>
      <trkpt lat="48.61629" lon="2.01424">
        <ele>127</ele>
        <time>2025-11-16T12:51:44Z</time>
        <extensions>
          <gpxtpx:TrackPointExtension xmlns:gpxtpx="http://www.garmin.com/xmlschemas/TrackPointExtension/v1">
            <gpxtpx:hr>122</gpxtpx:hr>
          </gpxtpx:TrackPointExtension>
        </extensions>
      </trkpt>
      <trkpt lat="48.61627" lon="2.01426">
        <ele>127.2</ele>
        <time>2025-11-16T12:51:46Z</time>
        <extensions>
          <gpxtpx:TrackPointExtension xmlns:gpxtpx="http://www.garmin.com/xmlschemas/TrackPointExtension/v1">
            <gpxtpx:hr>121</gpxtpx:hr>
          </gpxtpx:TrackPointExtension>
        </extensions>
      </trkpt>
      <trkpt lat="48.61625" lon="2.01429">
        <ele>127.2</ele>
        <time>2025-11-16T12:51:48Z</time>
        <extensions>
          <gpxtpx:TrackPointExtension xmlns:gpxtpx="http://www.garmin.com/xmlschemas/TrackPointExtension/v1">
            <gpxtpx:hr>121</gpxtpx:hr>
          </gpxtpx:TrackPointExtension>
        </extensions>
      </trkpt>
      <trkpt lat="48.61623" lon="2.01431">
        <ele>127.2</ele>
        <time>2025-11-16T12:51:50Z</time>
        <extensions>
          <gpxtpx:TrackPointExtension xmlns:gpxtpx="http://www.garmin.com/xmlschemas/TrackPointExtension/v1">
            <gpxtpx:hr>121</gpxtpx:hr>
          </gpxtpx:TrackPointExtension>
        </extensions>
      </trkpt>
      <trkpt lat="48.6162" lon="2.01434">
        <ele>127</ele>
        <time>2025-11-16T12:51:52Z</time>
        <extensions>
          <gpxtpx:TrackPointExtension xmlns:gpxtpx="http://www.garmin.com/xmlschemas/TrackPointExtension/v1">
            <gpxtpx:hr>121</gpxtpx:hr>
          </gpxtpx:TrackPointExtension>
        </extensions>
      </trkpt>
      <trkpt lat="48.61618" lon="2.01437">
        <ele>126.8</ele>
        <time>2025-11-16T12:51:54Z</time>
        <extensions>
          <gpxtpx:TrackPointExtension xmlns:gpxtpx="http://www.garmin.com/xmlschemas/TrackPointExtension/v1">
            <gpxtpx:hr>121</gpxtpx:hr>
          </gpxtpx:TrackPointExtension>
        </extensions>
      </trkpt>
      <trkpt lat="48.61615" lon="2.0144">
        <ele>126.8</ele>
        <time>2025-11-16T12:51:56Z</time>
        <extensions>
          <gpxtpx:TrackPointExtension xmlns:gpxtpx="http://www.garmin.com/xmlschemas/TrackPointExtension/v1">
            <gpxtpx:hr>120</gpxtpx:hr>
          </gpxtpx:TrackPointExtension>
        </extensions>
      </trkpt>
      <trkpt lat="48.61613" lon="2.01443">
        <ele>126.8</ele>
        <time>2025-11-16T12:51:58Z</time>
        <extensions>
          <gpxtpx:TrackPointExtension xmlns:gpxtpx="http://www.garmin.com/xmlschemas/TrackPointExtension/v1">
            <gpxtpx:hr>120</gpxtpx:hr>
          </gpxtpx:TrackPointExtension>
        </extensions>
      </trkpt>
      <trkpt lat="48.61612" lon="2.01446">
        <ele>126.8</ele>
        <time>2025-11-16T12:52:00Z</time>
        <extensions>
          <gpxtpx:TrackPointExtension xmlns:gpxtpx="http://www.garmin.com/xmlschemas/TrackPointExtension/v1">
            <gpxtpx:hr>120</gpxtpx:hr>
          </gpxtpx:TrackPointExtension>
        </extensions>
      </trkpt>
      <trkpt lat="48.61611" lon="2.01448">
        <ele>126.8</ele>
        <time>2025-11-16T12:52:02Z</time>
        <extensions>
          <gpxtpx:TrackPointExtension xmlns:gpxtpx="http://www.garmin.com/xmlschemas/TrackPointExtension/v1">
            <gpxtpx:hr>120</gpxtpx:hr>
          </gpxtpx:TrackPointExtension>
        </extensions>
      </trkpt>
      <trkpt lat="48.61609" lon="2.01451">
        <ele>126.8</ele>
        <time>2025-11-16T12:52:04Z</time>
        <extensions>
          <gpxtpx:TrackPointExtension xmlns:gpxtpx="http://www.garmin.com/xmlschemas/TrackPointExtension/v1">
            <gpxtpx:hr>120</gpxtpx:hr>
          </gpxtpx:TrackPointExtension>
        </extensions>
      </trkpt>
      <trkpt lat="48.61607" lon="2.01452">
        <ele>126.8</ele>
        <time>2025-11-16T12:52:05Z</time>
        <extensions>
          <gpxtpx:TrackPointExtension xmlns:gpxtpx="http://www.garmin.com/xmlschemas/TrackPointExtension/v1">
            <gpxtpx:hr>120</gpxtpx:hr>
          </gpxtpx:TrackPointExtension>
        </extensions>
      </trkpt>
      <trkpt lat="48.61604" lon="2.01455">
        <ele>126.6</ele>
        <time>2025-11-16T12:52:07Z</time>
        <extensions>
          <gpxtpx:TrackPointExtension xmlns:gpxtpx="http://www.garmin.com/xmlschemas/TrackPointExtension/v1">
            <gpxtpx:hr>120</gpxtpx:hr>
          </gpxtpx:TrackPointExtension>
        </extensions>
      </trkpt>
      <trkpt lat="48.61603" lon="2.01457">
        <ele>126.6</ele>
        <time>2025-11-16T12:52:08Z</time>
        <extensions>
          <gpxtpx:TrackPointExtension xmlns:gpxtpx="http://www.garmin.com/xmlschemas/TrackPointExtension/v1">
            <gpxtpx:hr>121</gpxtpx:hr>
          </gpxtpx:TrackPointExtension>
        </extensions>
      </trkpt>
      <trkpt lat="48.61601" lon="2.0146">
        <ele>126.6</ele>
        <time>2025-11-16T12:52:09Z</time>
        <extensions>
          <gpxtpx:TrackPointExtension xmlns:gpxtpx="http://www.garmin.com/xmlschemas/TrackPointExtension/v1">
            <gpxtpx:hr>121</gpxtpx:hr>
          </gpxtpx:TrackPointExtension>
        </extensions>
      </trkpt>
      <trkpt lat="48.616" lon="2.01462">
        <ele>126.6</ele>
        <time>2025-11-16T12:52:10Z</time>
        <extensions>
          <gpxtpx:TrackPointExtension xmlns:gpxtpx="http://www.garmin.com/xmlschemas/TrackPointExtension/v1">
            <gpxtpx:hr>121</gpxtpx:hr>
          </gpxtpx:TrackPointExtension>
        </extensions>
      </trkpt>
      <trkpt lat="48.61598" lon="2.01464">
        <ele>126.8</ele>
        <time>2025-11-16T12:52:11Z</time>
        <extensions>
          <gpxtpx:TrackPointExtension xmlns:gpxtpx="http://www.garmin.com/xmlschemas/TrackPointExtension/v1">
            <gpxtpx:hr>121</gpxtpx:hr>
          </gpxtpx:TrackPointExtension>
        </extensions>
      </trkpt>
      <trkpt lat="48.61597" lon="2.01466">
        <ele>126.8</ele>
        <time>2025-11-16T12:52:12Z</time>
        <extensions>
          <gpxtpx:TrackPointExtension xmlns:gpxtpx="http://www.garmin.com/xmlschemas/TrackPointExtension/v1">
            <gpxtpx:hr>121</gpxtpx:hr>
          </gpxtpx:TrackPointExtension>
        </extensions>
      </trkpt>
      <trkpt lat="48.61595" lon="2.01468">
        <ele>126.8</ele>
        <time>2025-11-16T12:52:13Z</time>
        <extensions>
          <gpxtpx:TrackPointExtension xmlns:gpxtpx="http://www.garmin.com/xmlschemas/TrackPointExtension/v1">
            <gpxtpx:hr>121</gpxtpx:hr>
          </gpxtpx:TrackPointExtension>
        </extensions>
      </trkpt>
      <trkpt lat="48.61594" lon="2.0147">
        <ele>126.8</ele>
        <time>2025-11-16T12:52:14Z</time>
        <extensions>
          <gpxtpx:TrackPointExtension xmlns:gpxtpx="http://www.garmin.com/xmlschemas/TrackPointExtension/v1">
            <gpxtpx:hr>120</gpxtpx:hr>
          </gpxtpx:TrackPointExtension>
        </extensions>
      </trkpt>
      <trkpt lat="48.61592" lon="2.01472">
        <ele>126.6</ele>
        <time>2025-11-16T12:52:15Z</time>
        <extensions>
          <gpxtpx:TrackPointExtension xmlns:gpxtpx="http://www.garmin.com/xmlschemas/TrackPointExtension/v1">
            <gpxtpx:hr>120</gpxtpx:hr>
          </gpxtpx:TrackPointExtension>
        </extensions>
      </trkpt>
      <trkpt lat="48.61591" lon="2.01474">
        <ele>126.6</ele>
        <time>2025-11-16T12:52:16Z</time>
        <extensions>
          <gpxtpx:TrackPointExtension xmlns:gpxtpx="http://www.garmin.com/xmlschemas/TrackPointExtension/v1">
            <gpxtpx:hr>120</gpxtpx:hr>
          </gpxtpx:TrackPointExtension>
        </extensions>
      </trkpt>
      <trkpt lat="48.61589" lon="2.01476">
        <ele>126.6</ele>
        <time>2025-11-16T12:52:17Z</time>
        <extensions>
          <gpxtpx:TrackPointExtension xmlns:gpxtpx="http://www.garmin.com/xmlschemas/TrackPointExtension/v1">
            <gpxtpx:hr>120</gpxtpx:hr>
          </gpxtpx:TrackPointExtension>
        </extensions>
      </trkpt>
      <trkpt lat="48.61588" lon="2.01478">
        <ele>126.6</ele>
        <time>2025-11-16T12:52:18Z</time>
        <extensions>
          <gpxtpx:TrackPointExtension xmlns:gpxtpx="http://www.garmin.com/xmlschemas/TrackPointExtension/v1">
            <gpxtpx:hr>121</gpxtpx:hr>
          </gpxtpx:TrackPointExtension>
        </extensions>
      </trkpt>
      <trkpt lat="48.61586" lon="2.0148">
        <ele>126.4</ele>
        <time>2025-11-16T12:52:19Z</time>
        <extensions>
          <gpxtpx:TrackPointExtension xmlns:gpxtpx="http://www.garmin.com/xmlschemas/TrackPointExtension/v1">
            <gpxtpx:hr>121</gpxtpx:hr>
          </gpxtpx:TrackPointExtension>
        </extensions>
      </trkpt>
      <trkpt lat="48.61584" lon="2.01483">
        <ele>126.4</ele>
        <time>2025-11-16T12:52:21Z</time>
        <extensions>
          <gpxtpx:TrackPointExtension xmlns:gpxtpx="http://www.garmin.com/xmlschemas/TrackPointExtension/v1">
            <gpxtpx:hr>121</gpxtpx:hr>
          </gpxtpx:TrackPointExtension>
        </extensions>
      </trkpt>
      <trkpt lat="48.61581" lon="2.01487">
        <ele>126.2</ele>
        <time>2025-11-16T12:52:23Z</time>
        <extensions>
          <gpxtpx:TrackPointExtension xmlns:gpxtpx="http://www.garmin.com/xmlschemas/TrackPointExtension/v1">
            <gpxtpx:hr>121</gpxtpx:hr>
          </gpxtpx:TrackPointExtension>
        </extensions>
      </trkpt>
      <trkpt lat="48.61579" lon="2.0149">
        <ele>126</ele>
        <time>2025-11-16T12:52:25Z</time>
        <extensions>
          <gpxtpx:TrackPointExtension xmlns:gpxtpx="http://www.garmin.com/xmlschemas/TrackPointExtension/v1">
            <gpxtpx:hr>121</gpxtpx:hr>
          </gpxtpx:TrackPointExtension>
        </extensions>
      </trkpt>
      <trkpt lat="48.61577" lon="2.01493">
        <ele>125.8</ele>
        <time>2025-11-16T12:52:27Z</time>
        <extensions>
          <gpxtpx:TrackPointExtension xmlns:gpxtpx="http://www.garmin.com/xmlschemas/TrackPointExtension/v1">
            <gpxtpx:hr>121</gpxtpx:hr>
          </gpxtpx:TrackPointExtension>
        </extensions>
      </trkpt>
      <trkpt lat="48.61575" lon="2.01495">
        <ele>125.8</ele>
        <time>2025-11-16T12:52:28Z</time>
        <extensions>
          <gpxtpx:TrackPointExtension xmlns:gpxtpx="http://www.garmin.com/xmlschemas/TrackPointExtension/v1">
            <gpxtpx:hr>121</gpxtpx:hr>
          </gpxtpx:TrackPointExtension>
        </extensions>
      </trkpt>
      <trkpt lat="48.61573" lon="2.01499">
        <ele>125.4</ele>
        <time>2025-11-16T12:52:30Z</time>
        <extensions>
          <gpxtpx:TrackPointExtension xmlns:gpxtpx="http://www.garmin.com/xmlschemas/TrackPointExtension/v1">
            <gpxtpx:hr>120</gpxtpx:hr>
          </gpxtpx:TrackPointExtension>
        </extensions>
      </trkpt>
      <trkpt lat="48.61571" lon="2.01502">
        <ele>125.2</ele>
        <time>2025-11-16T12:52:32Z</time>
        <extensions>
          <gpxtpx:TrackPointExtension xmlns:gpxtpx="http://www.garmin.com/xmlschemas/TrackPointExtension/v1">
            <gpxtpx:hr>120</gpxtpx:hr>
          </gpxtpx:TrackPointExtension>
        </extensions>
      </trkpt>
      <trkpt lat="48.61568" lon="2.01505">
        <ele>125</ele>
        <time>2025-11-16T12:52:34Z</time>
        <extensions>
          <gpxtpx:TrackPointExtension xmlns:gpxtpx="http://www.garmin.com/xmlschemas/TrackPointExtension/v1">
            <gpxtpx:hr>120</gpxtpx:hr>
          </gpxtpx:TrackPointExtension>
        </extensions>
      </trkpt>
      <trkpt lat="48.61566" lon="2.01507">
        <ele>125</ele>
        <time>2025-11-16T12:52:36Z</time>
        <extensions>
          <gpxtpx:TrackPointExtension xmlns:gpxtpx="http://www.garmin.com/xmlschemas/TrackPointExtension/v1">
            <gpxtpx:hr>120</gpxtpx:hr>
          </gpxtpx:TrackPointExtension>
        </extensions>
      </trkpt>
      <trkpt lat="48.61564" lon="2.0151">
        <ele>125</ele>
        <time>2025-11-16T12:52:38Z</time>
        <extensions>
          <gpxtpx:TrackPointExtension xmlns:gpxtpx="http://www.garmin.com/xmlschemas/TrackPointExtension/v1">
            <gpxtpx:hr>120</gpxtpx:hr>
          </gpxtpx:TrackPointExtension>
        </extensions>
      </trkpt>
      <trkpt lat="48.61561" lon="2.01512">
        <ele>124.8</ele>
        <time>2025-11-16T12:52:40Z</time>
        <extensions>
          <gpxtpx:TrackPointExtension xmlns:gpxtpx="http://www.garmin.com/xmlschemas/TrackPointExtension/v1">
            <gpxtpx:hr>120</gpxtpx:hr>
          </gpxtpx:TrackPointExtension>
        </extensions>
      </trkpt>
      <trkpt lat="48.61557" lon="2.01514">
        <ele>124.8</ele>
        <time>2025-11-16T12:52:42Z</time>
        <extensions>
          <gpxtpx:TrackPointExtension xmlns:gpxtpx="http://www.garmin.com/xmlschemas/TrackPointExtension/v1">
            <gpxtpx:hr>120</gpxtpx:hr>
          </gpxtpx:TrackPointExtension>
        </extensions>
      </trkpt>
      <trkpt lat="48.61554" lon="2.01515">
        <ele>124.6</ele>
        <time>2025-11-16T12:52:44Z</time>
        <extensions>
          <gpxtpx:TrackPointExtension xmlns:gpxtpx="http://www.garmin.com/xmlschemas/TrackPointExtension/v1">
            <gpxtpx:hr>120</gpxtpx:hr>
          </gpxtpx:TrackPointExtension>
        </extensions>
      </trkpt>
      <trkpt lat="48.61552" lon="2.01515">
        <ele>124.6</ele>
        <time>2025-11-16T12:52:45Z</time>
        <extensions>
          <gpxtpx:TrackPointExtension xmlns:gpxtpx="http://www.garmin.com/xmlschemas/TrackPointExtension/v1">
            <gpxtpx:hr>120</gpxtpx:hr>
          </gpxtpx:TrackPointExtension>
        </extensions>
      </trkpt>
      <trkpt lat="48.61549" lon="2.01515">
        <ele>124.6</ele>
        <time>2025-11-16T12:52:47Z</time>
        <extensions>
          <gpxtpx:TrackPointExtension xmlns:gpxtpx="http://www.garmin.com/xmlschemas/TrackPointExtension/v1">
            <gpxtpx:hr>120</gpxtpx:hr>
          </gpxtpx:TrackPointExtension>
        </extensions>
      </trkpt>
      <trkpt lat="48.61546" lon="2.01516">
        <ele>124.6</ele>
        <time>2025-11-16T12:52:49Z</time>
        <extensions>
          <gpxtpx:TrackPointExtension xmlns:gpxtpx="http://www.garmin.com/xmlschemas/TrackPointExtension/v1">
            <gpxtpx:hr>120</gpxtpx:hr>
          </gpxtpx:TrackPointExtension>
        </extensions>
      </trkpt>
      <trkpt lat="48.61544" lon="2.01516">
        <ele>124.8</ele>
        <time>2025-11-16T12:52:50Z</time>
        <extensions>
          <gpxtpx:TrackPointExtension xmlns:gpxtpx="http://www.garmin.com/xmlschemas/TrackPointExtension/v1">
            <gpxtpx:hr>120</gpxtpx:hr>
          </gpxtpx:TrackPointExtension>
        </extensions>
      </trkpt>
      <trkpt lat="48.6154" lon="2.01517">
        <ele>124.8</ele>
        <time>2025-11-16T12:52:52Z</time>
        <extensions>
          <gpxtpx:TrackPointExtension xmlns:gpxtpx="http://www.garmin.com/xmlschemas/TrackPointExtension/v1">
            <gpxtpx:hr>120</gpxtpx:hr>
          </gpxtpx:TrackPointExtension>
        </extensions>
      </trkpt>
      <trkpt lat="48.61539" lon="2.01517">
        <ele>124.6</ele>
        <time>2025-11-16T12:52:53Z</time>
        <extensions>
          <gpxtpx:TrackPointExtension xmlns:gpxtpx="http://www.garmin.com/xmlschemas/TrackPointExtension/v1">
            <gpxtpx:hr>120</gpxtpx:hr>
          </gpxtpx:TrackPointExtension>
        </extensions>
      </trkpt>
      <trkpt lat="48.61535" lon="2.01518">
        <ele>124.6</ele>
        <time>2025-11-16T12:52:55Z</time>
        <extensions>
          <gpxtpx:TrackPointExtension xmlns:gpxtpx="http://www.garmin.com/xmlschemas/TrackPointExtension/v1">
            <gpxtpx:hr>120</gpxtpx:hr>
          </gpxtpx:TrackPointExtension>
        </extensions>
      </trkpt>
      <trkpt lat="48.61533" lon="2.01519">
        <ele>124.6</ele>
        <time>2025-11-16T12:52:56Z</time>
        <extensions>
          <gpxtpx:TrackPointExtension xmlns:gpxtpx="http://www.garmin.com/xmlschemas/TrackPointExtension/v1">
            <gpxtpx:hr>120</gpxtpx:hr>
          </gpxtpx:TrackPointExtension>
        </extensions>
      </trkpt>
      <trkpt lat="48.61532" lon="2.01519">
        <ele>124.6</ele>
        <time>2025-11-16T12:52:57Z</time>
        <extensions>
          <gpxtpx:TrackPointExtension xmlns:gpxtpx="http://www.garmin.com/xmlschemas/TrackPointExtension/v1">
            <gpxtpx:hr>120</gpxtpx:hr>
          </gpxtpx:TrackPointExtension>
        </extensions>
      </trkpt>
      <trkpt lat="48.6153" lon="2.0152">
        <ele>124.4</ele>
        <time>2025-11-16T12:52:58Z</time>
        <extensions>
          <gpxtpx:TrackPointExtension xmlns:gpxtpx="http://www.garmin.com/xmlschemas/TrackPointExtension/v1">
            <gpxtpx:hr>120</gpxtpx:hr>
          </gpxtpx:TrackPointExtension>
        </extensions>
      </trkpt>
      <trkpt lat="48.61528" lon="2.0152">
        <ele>124.2</ele>
        <time>2025-11-16T12:52:59Z</time>
        <extensions>
          <gpxtpx:TrackPointExtension xmlns:gpxtpx="http://www.garmin.com/xmlschemas/TrackPointExtension/v1">
            <gpxtpx:hr>120</gpxtpx:hr>
          </gpxtpx:TrackPointExtension>
        </extensions>
      </trkpt>
      <trkpt lat="48.61524" lon="2.0152">
        <ele>124</ele>
        <time>2025-11-16T12:53:01Z</time>
        <extensions>
          <gpxtpx:TrackPointExtension xmlns:gpxtpx="http://www.garmin.com/xmlschemas/TrackPointExtension/v1">
            <gpxtpx:hr>119</gpxtpx:hr>
          </gpxtpx:TrackPointExtension>
        </extensions>
      </trkpt>
      <trkpt lat="48.61523" lon="2.0152">
        <ele>124</ele>
        <time>2025-11-16T12:53:02Z</time>
        <extensions>
          <gpxtpx:TrackPointExtension xmlns:gpxtpx="http://www.garmin.com/xmlschemas/TrackPointExtension/v1">
            <gpxtpx:hr>119</gpxtpx:hr>
          </gpxtpx:TrackPointExtension>
        </extensions>
      </trkpt>
      <trkpt lat="48.6152" lon="2.0152">
        <ele>123.8</ele>
        <time>2025-11-16T12:53:04Z</time>
        <extensions>
          <gpxtpx:TrackPointExtension xmlns:gpxtpx="http://www.garmin.com/xmlschemas/TrackPointExtension/v1">
            <gpxtpx:hr>119</gpxtpx:hr>
          </gpxtpx:TrackPointExtension>
        </extensions>
      </trkpt>
      <trkpt lat="48.61517" lon="2.0152">
        <ele>123.8</ele>
        <time>2025-11-16T12:53:06Z</time>
        <extensions>
          <gpxtpx:TrackPointExtension xmlns:gpxtpx="http://www.garmin.com/xmlschemas/TrackPointExtension/v1">
            <gpxtpx:hr>118</gpxtpx:hr>
          </gpxtpx:TrackPointExtension>
        </extensions>
      </trkpt>
      <trkpt lat="48.61514" lon="2.0152">
        <ele>123.8</ele>
        <time>2025-11-16T12:53:08Z</time>
        <extensions>
          <gpxtpx:TrackPointExtension xmlns:gpxtpx="http://www.garmin.com/xmlschemas/TrackPointExtension/v1">
            <gpxtpx:hr>117</gpxtpx:hr>
          </gpxtpx:TrackPointExtension>
        </extensions>
      </trkpt>
      <trkpt lat="48.61511" lon="2.0152">
        <ele>123.8</ele>
        <time>2025-11-16T12:53:10Z</time>
        <extensions>
          <gpxtpx:TrackPointExtension xmlns:gpxtpx="http://www.garmin.com/xmlschemas/TrackPointExtension/v1">
            <gpxtpx:hr>117</gpxtpx:hr>
          </gpxtpx:TrackPointExtension>
        </extensions>
      </trkpt>
      <trkpt lat="48.61508" lon="2.01521">
        <ele>123.6</ele>
        <time>2025-11-16T12:53:12Z</time>
        <extensions>
          <gpxtpx:TrackPointExtension xmlns:gpxtpx="http://www.garmin.com/xmlschemas/TrackPointExtension/v1">
            <gpxtpx:hr>115</gpxtpx:hr>
          </gpxtpx:TrackPointExtension>
        </extensions>
      </trkpt>
      <trkpt lat="48.61505" lon="2.01522">
        <ele>123.6</ele>
        <time>2025-11-16T12:53:14Z</time>
        <extensions>
          <gpxtpx:TrackPointExtension xmlns:gpxtpx="http://www.garmin.com/xmlschemas/TrackPointExtension/v1">
            <gpxtpx:hr>115</gpxtpx:hr>
          </gpxtpx:TrackPointExtension>
        </extensions>
      </trkpt>
      <trkpt lat="48.61503" lon="2.01522">
        <ele>123.4</ele>
        <time>2025-11-16T12:53:15Z</time>
        <extensions>
          <gpxtpx:TrackPointExtension xmlns:gpxtpx="http://www.garmin.com/xmlschemas/TrackPointExtension/v1">
            <gpxtpx:hr>115</gpxtpx:hr>
          </gpxtpx:TrackPointExtension>
        </extensions>
      </trkpt>
      <trkpt lat="48.61501" lon="2.01523">
        <ele>123.4</ele>
        <time>2025-11-16T12:53:16Z</time>
        <extensions>
          <gpxtpx:TrackPointExtension xmlns:gpxtpx="http://www.garmin.com/xmlschemas/TrackPointExtension/v1">
            <gpxtpx:hr>115</gpxtpx:hr>
          </gpxtpx:TrackPointExtension>
        </extensions>
      </trkpt>
      <trkpt lat="48.61499" lon="2.01524">
        <ele>123.2</ele>
        <time>2025-11-16T12:53:17Z</time>
        <extensions>
          <gpxtpx:TrackPointExtension xmlns:gpxtpx="http://www.garmin.com/xmlschemas/TrackPointExtension/v1">
            <gpxtpx:hr>115</gpxtpx:hr>
          </gpxtpx:TrackPointExtension>
        </extensions>
      </trkpt>
      <trkpt lat="48.61497" lon="2.01524">
        <ele>123.2</ele>
        <time>2025-11-16T12:53:18Z</time>
        <extensions>
          <gpxtpx:TrackPointExtension xmlns:gpxtpx="http://www.garmin.com/xmlschemas/TrackPointExtension/v1">
            <gpxtpx:hr>115</gpxtpx:hr>
          </gpxtpx:TrackPointExtension>
        </extensions>
      </trkpt>
      <trkpt lat="48.61494" lon="2.01525">
        <ele>123</ele>
        <time>2025-11-16T12:53:19Z</time>
        <extensions>
          <gpxtpx:TrackPointExtension xmlns:gpxtpx="http://www.garmin.com/xmlschemas/TrackPointExtension/v1">
            <gpxtpx:hr>115</gpxtpx:hr>
          </gpxtpx:TrackPointExtension>
        </extensions>
      </trkpt>
      <trkpt lat="48.61492" lon="2.01525">
        <ele>123.2</ele>
        <time>2025-11-16T12:53:20Z</time>
        <extensions>
          <gpxtpx:TrackPointExtension xmlns:gpxtpx="http://www.garmin.com/xmlschemas/TrackPointExtension/v1">
            <gpxtpx:hr>115</gpxtpx:hr>
          </gpxtpx:TrackPointExtension>
        </extensions>
      </trkpt>
      <trkpt lat="48.61491" lon="2.01525">
        <ele>123.2</ele>
        <time>2025-11-16T12:53:21Z</time>
        <extensions>
          <gpxtpx:TrackPointExtension xmlns:gpxtpx="http://www.garmin.com/xmlschemas/TrackPointExtension/v1">
            <gpxtpx:hr>115</gpxtpx:hr>
          </gpxtpx:TrackPointExtension>
        </extensions>
      </trkpt>
      <trkpt lat="48.61487" lon="2.01526">
        <ele>123.2</ele>
        <time>2025-11-16T12:53:23Z</time>
        <extensions>
          <gpxtpx:TrackPointExtension xmlns:gpxtpx="http://www.garmin.com/xmlschemas/TrackPointExtension/v1">
            <gpxtpx:hr>115</gpxtpx:hr>
          </gpxtpx:TrackPointExtension>
        </extensions>
      </trkpt>
      <trkpt lat="48.61484" lon="2.01526">
        <ele>123.2</ele>
        <time>2025-11-16T12:53:25Z</time>
        <extensions>
          <gpxtpx:TrackPointExtension xmlns:gpxtpx="http://www.garmin.com/xmlschemas/TrackPointExtension/v1">
            <gpxtpx:hr>115</gpxtpx:hr>
          </gpxtpx:TrackPointExtension>
        </extensions>
      </trkpt>
      <trkpt lat="48.61481" lon="2.01526">
        <ele>123.4</ele>
        <time>2025-11-16T12:53:27Z</time>
        <extensions>
          <gpxtpx:TrackPointExtension xmlns:gpxtpx="http://www.garmin.com/xmlschemas/TrackPointExtension/v1">
            <gpxtpx:hr>114</gpxtpx:hr>
          </gpxtpx:TrackPointExtension>
        </extensions>
      </trkpt>
      <trkpt lat="48.61478" lon="2.01526">
        <ele>123.4</ele>
        <time>2025-11-16T12:53:29Z</time>
        <extensions>
          <gpxtpx:TrackPointExtension xmlns:gpxtpx="http://www.garmin.com/xmlschemas/TrackPointExtension/v1">
            <gpxtpx:hr>114</gpxtpx:hr>
          </gpxtpx:TrackPointExtension>
        </extensions>
      </trkpt>
      <trkpt lat="48.61475" lon="2.01526">
        <ele>123.4</ele>
        <time>2025-11-16T12:53:31Z</time>
        <extensions>
          <gpxtpx:TrackPointExtension xmlns:gpxtpx="http://www.garmin.com/xmlschemas/TrackPointExtension/v1">
            <gpxtpx:hr>114</gpxtpx:hr>
          </gpxtpx:TrackPointExtension>
        </extensions>
      </trkpt>
      <trkpt lat="48.61472" lon="2.01527">
        <ele>123.4</ele>
        <time>2025-11-16T12:53:33Z</time>
        <extensions>
          <gpxtpx:TrackPointExtension xmlns:gpxtpx="http://www.garmin.com/xmlschemas/TrackPointExtension/v1">
            <gpxtpx:hr>114</gpxtpx:hr>
          </gpxtpx:TrackPointExtension>
        </extensions>
      </trkpt>
      <trkpt lat="48.6147" lon="2.01527">
        <ele>123.4</ele>
        <time>2025-11-16T12:53:34Z</time>
        <extensions>
          <gpxtpx:TrackPointExtension xmlns:gpxtpx="http://www.garmin.com/xmlschemas/TrackPointExtension/v1">
            <gpxtpx:hr>113</gpxtpx:hr>
          </gpxtpx:TrackPointExtension>
        </extensions>
      </trkpt>
      <trkpt lat="48.61468" lon="2.01528">
        <ele>123.4</ele>
        <time>2025-11-16T12:53:36Z</time>
        <extensions>
          <gpxtpx:TrackPointExtension xmlns:gpxtpx="http://www.garmin.com/xmlschemas/TrackPointExtension/v1">
            <gpxtpx:hr>113</gpxtpx:hr>
          </gpxtpx:TrackPointExtension>
        </extensions>
      </trkpt>
      <trkpt lat="48.61464" lon="2.01529">
        <ele>123.2</ele>
        <time>2025-11-16T12:53:38Z</time>
        <extensions>
          <gpxtpx:TrackPointExtension xmlns:gpxtpx="http://www.garmin.com/xmlschemas/TrackPointExtension/v1">
            <gpxtpx:hr>113</gpxtpx:hr>
          </gpxtpx:TrackPointExtension>
        </extensions>
      </trkpt>
      <trkpt lat="48.61461" lon="2.0153">
        <ele>123</ele>
        <time>2025-11-16T12:53:40Z</time>
        <extensions>
          <gpxtpx:TrackPointExtension xmlns:gpxtpx="http://www.garmin.com/xmlschemas/TrackPointExtension/v1">
            <gpxtpx:hr>112</gpxtpx:hr>
          </gpxtpx:TrackPointExtension>
        </extensions>
      </trkpt>
      <trkpt lat="48.61458" lon="2.0153">
        <ele>123</ele>
        <time>2025-11-16T12:53:42Z</time>
        <extensions>
          <gpxtpx:TrackPointExtension xmlns:gpxtpx="http://www.garmin.com/xmlschemas/TrackPointExtension/v1">
            <gpxtpx:hr>112</gpxtpx:hr>
          </gpxtpx:TrackPointExtension>
        </extensions>
      </trkpt>
      <trkpt lat="48.61455" lon="2.01529">
        <ele>123</ele>
        <time>2025-11-16T12:53:44Z</time>
        <extensions>
          <gpxtpx:TrackPointExtension xmlns:gpxtpx="http://www.garmin.com/xmlschemas/TrackPointExtension/v1">
            <gpxtpx:hr>112</gpxtpx:hr>
          </gpxtpx:TrackPointExtension>
        </extensions>
      </trkpt>
      <trkpt lat="48.61452" lon="2.01529">
        <ele>122.8</ele>
        <time>2025-11-16T12:53:46Z</time>
        <extensions>
          <gpxtpx:TrackPointExtension xmlns:gpxtpx="http://www.garmin.com/xmlschemas/TrackPointExtension/v1">
            <gpxtpx:hr>112</gpxtpx:hr>
          </gpxtpx:TrackPointExtension>
        </extensions>
      </trkpt>
      <trkpt lat="48.6145" lon="2.01529">
        <ele>122.8</ele>
        <time>2025-11-16T12:53:47Z</time>
        <extensions>
          <gpxtpx:TrackPointExtension xmlns:gpxtpx="http://www.garmin.com/xmlschemas/TrackPointExtension/v1">
            <gpxtpx:hr>112</gpxtpx:hr>
          </gpxtpx:TrackPointExtension>
        </extensions>
      </trkpt>
      <trkpt lat="48.61448" lon="2.01529">
        <ele>122.8</ele>
        <time>2025-11-16T12:53:48Z</time>
        <extensions>
          <gpxtpx:TrackPointExtension xmlns:gpxtpx="http://www.garmin.com/xmlschemas/TrackPointExtension/v1">
            <gpxtpx:hr>112</gpxtpx:hr>
          </gpxtpx:TrackPointExtension>
        </extensions>
      </trkpt>
      <trkpt lat="48.61444" lon="2.01529">
        <ele>122.6</ele>
        <time>2025-11-16T12:53:50Z</time>
        <extensions>
          <gpxtpx:TrackPointExtension xmlns:gpxtpx="http://www.garmin.com/xmlschemas/TrackPointExtension/v1">
            <gpxtpx:hr>112</gpxtpx:hr>
          </gpxtpx:TrackPointExtension>
        </extensions>
      </trkpt>
      <trkpt lat="48.61443" lon="2.01529">
        <ele>122.6</ele>
        <time>2025-11-16T12:53:51Z</time>
        <extensions>
          <gpxtpx:TrackPointExtension xmlns:gpxtpx="http://www.garmin.com/xmlschemas/TrackPointExtension/v1">
            <gpxtpx:hr>112</gpxtpx:hr>
          </gpxtpx:TrackPointExtension>
        </extensions>
      </trkpt>
      <trkpt lat="48.61439" lon="2.01529">
        <ele>122.4</ele>
        <time>2025-11-16T12:53:53Z</time>
        <extensions>
          <gpxtpx:TrackPointExtension xmlns:gpxtpx="http://www.garmin.com/xmlschemas/TrackPointExtension/v1">
            <gpxtpx:hr>111</gpxtpx:hr>
          </gpxtpx:TrackPointExtension>
        </extensions>
      </trkpt>
      <trkpt lat="48.61436" lon="2.0153">
        <ele>122.4</ele>
        <time>2025-11-16T12:53:55Z</time>
        <extensions>
          <gpxtpx:TrackPointExtension xmlns:gpxtpx="http://www.garmin.com/xmlschemas/TrackPointExtension/v1">
            <gpxtpx:hr>111</gpxtpx:hr>
          </gpxtpx:TrackPointExtension>
        </extensions>
      </trkpt>
      <trkpt lat="48.61433" lon="2.0153">
        <ele>122.4</ele>
        <time>2025-11-16T12:53:57Z</time>
        <extensions>
          <gpxtpx:TrackPointExtension xmlns:gpxtpx="http://www.garmin.com/xmlschemas/TrackPointExtension/v1">
            <gpxtpx:hr>111</gpxtpx:hr>
          </gpxtpx:TrackPointExtension>
        </extensions>
      </trkpt>
      <trkpt lat="48.61431" lon="2.01531">
        <ele>122.4</ele>
        <time>2025-11-16T12:53:59Z</time>
        <extensions>
          <gpxtpx:TrackPointExtension xmlns:gpxtpx="http://www.garmin.com/xmlschemas/TrackPointExtension/v1">
            <gpxtpx:hr>111</gpxtpx:hr>
          </gpxtpx:TrackPointExtension>
        </extensions>
      </trkpt>
      <trkpt lat="48.61428" lon="2.01531">
        <ele>122.6</ele>
        <time>2025-11-16T12:54:01Z</time>
        <extensions>
          <gpxtpx:TrackPointExtension xmlns:gpxtpx="http://www.garmin.com/xmlschemas/TrackPointExtension/v1">
            <gpxtpx:hr>112</gpxtpx:hr>
          </gpxtpx:TrackPointExtension>
        </extensions>
      </trkpt>
      <trkpt lat="48.61425" lon="2.01532">
        <ele>122.6</ele>
        <time>2025-11-16T12:54:03Z</time>
        <extensions>
          <gpxtpx:TrackPointExtension xmlns:gpxtpx="http://www.garmin.com/xmlschemas/TrackPointExtension/v1">
            <gpxtpx:hr>112</gpxtpx:hr>
          </gpxtpx:TrackPointExtension>
        </extensions>
      </trkpt>
      <trkpt lat="48.61421" lon="2.01533">
        <ele>122.4</ele>
        <time>2025-11-16T12:54:05Z</time>
        <extensions>
          <gpxtpx:TrackPointExtension xmlns:gpxtpx="http://www.garmin.com/xmlschemas/TrackPointExtension/v1">
            <gpxtpx:hr>112</gpxtpx:hr>
          </gpxtpx:TrackPointExtension>
        </extensions>
      </trkpt>
      <trkpt lat="48.6142" lon="2.01533">
        <ele>122.2</ele>
        <time>2025-11-16T12:54:06Z</time>
        <extensions>
          <gpxtpx:TrackPointExtension xmlns:gpxtpx="http://www.garmin.com/xmlschemas/TrackPointExtension/v1">
            <gpxtpx:hr>112</gpxtpx:hr>
          </gpxtpx:TrackPointExtension>
        </extensions>
      </trkpt>
      <trkpt lat="48.61417" lon="2.01533">
        <ele>122.2</ele>
        <time>2025-11-16T12:54:08Z</time>
        <extensions>
          <gpxtpx:TrackPointExtension xmlns:gpxtpx="http://www.garmin.com/xmlschemas/TrackPointExtension/v1">
            <gpxtpx:hr>112</gpxtpx:hr>
          </gpxtpx:TrackPointExtension>
        </extensions>
      </trkpt>
      <trkpt lat="48.61415" lon="2.01533">
        <ele>122.2</ele>
        <time>2025-11-16T12:54:09Z</time>
        <extensions>
          <gpxtpx:TrackPointExtension xmlns:gpxtpx="http://www.garmin.com/xmlschemas/TrackPointExtension/v1">
            <gpxtpx:hr>112</gpxtpx:hr>
          </gpxtpx:TrackPointExtension>
        </extensions>
      </trkpt>
      <trkpt lat="48.61411" lon="2.01533">
        <ele>122.2</ele>
        <time>2025-11-16T12:54:11Z</time>
        <extensions>
          <gpxtpx:TrackPointExtension xmlns:gpxtpx="http://www.garmin.com/xmlschemas/TrackPointExtension/v1">
            <gpxtpx:hr>112</gpxtpx:hr>
          </gpxtpx:TrackPointExtension>
        </extensions>
      </trkpt>
      <trkpt lat="48.61408" lon="2.01533">
        <ele>122.2</ele>
        <time>2025-11-16T12:54:13Z</time>
        <extensions>
          <gpxtpx:TrackPointExtension xmlns:gpxtpx="http://www.garmin.com/xmlschemas/TrackPointExtension/v1">
            <gpxtpx:hr>112</gpxtpx:hr>
          </gpxtpx:TrackPointExtension>
        </extensions>
      </trkpt>
      <trkpt lat="48.61405" lon="2.01534">
        <ele>122</ele>
        <time>2025-11-16T12:54:15Z</time>
        <extensions>
          <gpxtpx:TrackPointExtension xmlns:gpxtpx="http://www.garmin.com/xmlschemas/TrackPointExtension/v1">
            <gpxtpx:hr>112</gpxtpx:hr>
          </gpxtpx:TrackPointExtension>
        </extensions>
      </trkpt>
      <trkpt lat="48.61402" lon="2.01534">
        <ele>122</ele>
        <time>2025-11-16T12:54:17Z</time>
        <extensions>
          <gpxtpx:TrackPointExtension xmlns:gpxtpx="http://www.garmin.com/xmlschemas/TrackPointExtension/v1">
            <gpxtpx:hr>112</gpxtpx:hr>
          </gpxtpx:TrackPointExtension>
        </extensions>
      </trkpt>
      <trkpt lat="48.614" lon="2.01535">
        <ele>121.8</ele>
        <time>2025-11-16T12:54:19Z</time>
        <extensions>
          <gpxtpx:TrackPointExtension xmlns:gpxtpx="http://www.garmin.com/xmlschemas/TrackPointExtension/v1">
            <gpxtpx:hr>112</gpxtpx:hr>
          </gpxtpx:TrackPointExtension>
        </extensions>
      </trkpt>
      <trkpt lat="48.61397" lon="2.01535">
        <ele>121.6</ele>
        <time>2025-11-16T12:54:22Z</time>
        <extensions>
          <gpxtpx:TrackPointExtension xmlns:gpxtpx="http://www.garmin.com/xmlschemas/TrackPointExtension/v1">
            <gpxtpx:hr>112</gpxtpx:hr>
          </gpxtpx:TrackPointExtension>
        </extensions>
      </trkpt>
      <trkpt lat="48.61395" lon="2.01535">
        <ele>121.4</ele>
        <time>2025-11-16T12:54:24Z</time>
        <extensions>
          <gpxtpx:TrackPointExtension xmlns:gpxtpx="http://www.garmin.com/xmlschemas/TrackPointExtension/v1">
            <gpxtpx:hr>112</gpxtpx:hr>
          </gpxtpx:TrackPointExtension>
        </extensions>
      </trkpt>
      <trkpt lat="48.61393" lon="2.01535">
        <ele>121.2</ele>
        <time>2025-11-16T12:54:26Z</time>
        <extensions>
          <gpxtpx:TrackPointExtension xmlns:gpxtpx="http://www.garmin.com/xmlschemas/TrackPointExtension/v1">
            <gpxtpx:hr>112</gpxtpx:hr>
          </gpxtpx:TrackPointExtension>
        </extensions>
      </trkpt>
      <trkpt lat="48.6139" lon="2.01534">
        <ele>121.2</ele>
        <time>2025-11-16T12:54:28Z</time>
        <extensions>
          <gpxtpx:TrackPointExtension xmlns:gpxtpx="http://www.garmin.com/xmlschemas/TrackPointExtension/v1">
            <gpxtpx:hr>112</gpxtpx:hr>
          </gpxtpx:TrackPointExtension>
        </extensions>
      </trkpt>
      <trkpt lat="48.61388" lon="2.01534">
        <ele>121</ele>
        <time>2025-11-16T12:54:30Z</time>
        <extensions>
          <gpxtpx:TrackPointExtension xmlns:gpxtpx="http://www.garmin.com/xmlschemas/TrackPointExtension/v1">
            <gpxtpx:hr>112</gpxtpx:hr>
          </gpxtpx:TrackPointExtension>
        </extensions>
      </trkpt>
      <trkpt lat="48.61385" lon="2.01533">
        <ele>120.8</ele>
        <time>2025-11-16T12:54:32Z</time>
        <extensions>
          <gpxtpx:TrackPointExtension xmlns:gpxtpx="http://www.garmin.com/xmlschemas/TrackPointExtension/v1">
            <gpxtpx:hr>112</gpxtpx:hr>
          </gpxtpx:TrackPointExtension>
        </extensions>
      </trkpt>
      <trkpt lat="48.61382" lon="2.01534">
        <ele>120.8</ele>
        <time>2025-11-16T12:54:34Z</time>
        <extensions>
          <gpxtpx:TrackPointExtension xmlns:gpxtpx="http://www.garmin.com/xmlschemas/TrackPointExtension/v1">
            <gpxtpx:hr>112</gpxtpx:hr>
          </gpxtpx:TrackPointExtension>
        </extensions>
      </trkpt>
      <trkpt lat="48.61379" lon="2.01535">
        <ele>120.6</ele>
        <time>2025-11-16T12:54:36Z</time>
        <extensions>
          <gpxtpx:TrackPointExtension xmlns:gpxtpx="http://www.garmin.com/xmlschemas/TrackPointExtension/v1">
            <gpxtpx:hr>112</gpxtpx:hr>
          </gpxtpx:TrackPointExtension>
        </extensions>
      </trkpt>
      <trkpt lat="48.61377" lon="2.01536">
        <ele>120.6</ele>
        <time>2025-11-16T12:54:38Z</time>
        <extensions>
          <gpxtpx:TrackPointExtension xmlns:gpxtpx="http://www.garmin.com/xmlschemas/TrackPointExtension/v1">
            <gpxtpx:hr>112</gpxtpx:hr>
          </gpxtpx:TrackPointExtension>
        </extensions>
      </trkpt>
      <trkpt lat="48.61374" lon="2.01537">
        <ele>120.6</ele>
        <time>2025-11-16T12:54:40Z</time>
        <extensions>
          <gpxtpx:TrackPointExtension xmlns:gpxtpx="http://www.garmin.com/xmlschemas/TrackPointExtension/v1">
            <gpxtpx:hr>112</gpxtpx:hr>
          </gpxtpx:TrackPointExtension>
        </extensions>
      </trkpt>
      <trkpt lat="48.61371" lon="2.01537">
        <ele>120.6</ele>
        <time>2025-11-16T12:54:42Z</time>
        <extensions>
          <gpxtpx:TrackPointExtension xmlns:gpxtpx="http://www.garmin.com/xmlschemas/TrackPointExtension/v1">
            <gpxtpx:hr>112</gpxtpx:hr>
          </gpxtpx:TrackPointExtension>
        </extensions>
      </trkpt>
      <trkpt lat="48.61367" lon="2.01538">
        <ele>120.6</ele>
        <time>2025-11-16T12:54:44Z</time>
        <extensions>
          <gpxtpx:TrackPointExtension xmlns:gpxtpx="http://www.garmin.com/xmlschemas/TrackPointExtension/v1">
            <gpxtpx:hr>112</gpxtpx:hr>
          </gpxtpx:TrackPointExtension>
        </extensions>
      </trkpt>
      <trkpt lat="48.61365" lon="2.01538">
        <ele>120.6</ele>
        <time>2025-11-16T12:54:45Z</time>
        <extensions>
          <gpxtpx:TrackPointExtension xmlns:gpxtpx="http://www.garmin.com/xmlschemas/TrackPointExtension/v1">
            <gpxtpx:hr>112</gpxtpx:hr>
          </gpxtpx:TrackPointExtension>
        </extensions>
      </trkpt>
      <trkpt lat="48.61362" lon="2.01539">
        <ele>120.6</ele>
        <time>2025-11-16T12:54:47Z</time>
        <extensions>
          <gpxtpx:TrackPointExtension xmlns:gpxtpx="http://www.garmin.com/xmlschemas/TrackPointExtension/v1">
            <gpxtpx:hr>112</gpxtpx:hr>
          </gpxtpx:TrackPointExtension>
        </extensions>
      </trkpt>
      <trkpt lat="48.61359" lon="2.01539">
        <ele>120.6</ele>
        <time>2025-11-16T12:54:49Z</time>
        <extensions>
          <gpxtpx:TrackPointExtension xmlns:gpxtpx="http://www.garmin.com/xmlschemas/TrackPointExtension/v1">
            <gpxtpx:hr>112</gpxtpx:hr>
          </gpxtpx:TrackPointExtension>
        </extensions>
      </trkpt>
      <trkpt lat="48.61357" lon="2.01539">
        <ele>120.6</ele>
        <time>2025-11-16T12:54:50Z</time>
        <extensions>
          <gpxtpx:TrackPointExtension xmlns:gpxtpx="http://www.garmin.com/xmlschemas/TrackPointExtension/v1">
            <gpxtpx:hr>112</gpxtpx:hr>
          </gpxtpx:TrackPointExtension>
        </extensions>
      </trkpt>
      <trkpt lat="48.61354" lon="2.01539">
        <ele>120.4</ele>
        <time>2025-11-16T12:54:52Z</time>
        <extensions>
          <gpxtpx:TrackPointExtension xmlns:gpxtpx="http://www.garmin.com/xmlschemas/TrackPointExtension/v1">
            <gpxtpx:hr>112</gpxtpx:hr>
          </gpxtpx:TrackPointExtension>
        </extensions>
      </trkpt>
      <trkpt lat="48.61352" lon="2.01539">
        <ele>120.4</ele>
        <time>2025-11-16T12:54:53Z</time>
        <extensions>
          <gpxtpx:TrackPointExtension xmlns:gpxtpx="http://www.garmin.com/xmlschemas/TrackPointExtension/v1">
            <gpxtpx:hr>112</gpxtpx:hr>
          </gpxtpx:TrackPointExtension>
        </extensions>
      </trkpt>
      <trkpt lat="48.61349" lon="2.01539">
        <ele>120.4</ele>
        <time>2025-11-16T12:54:55Z</time>
        <extensions>
          <gpxtpx:TrackPointExtension xmlns:gpxtpx="http://www.garmin.com/xmlschemas/TrackPointExtension/v1">
            <gpxtpx:hr>111</gpxtpx:hr>
          </gpxtpx:TrackPointExtension>
        </extensions>
      </trkpt>
      <trkpt lat="48.61346" lon="2.01539">
        <ele>120.6</ele>
        <time>2025-11-16T12:54:57Z</time>
        <extensions>
          <gpxtpx:TrackPointExtension xmlns:gpxtpx="http://www.garmin.com/xmlschemas/TrackPointExtension/v1">
            <gpxtpx:hr>111</gpxtpx:hr>
          </gpxtpx:TrackPointExtension>
        </extensions>
      </trkpt>
      <trkpt lat="48.61343" lon="2.01539">
        <ele>120.6</ele>
        <time>2025-11-16T12:54:59Z</time>
        <extensions>
          <gpxtpx:TrackPointExtension xmlns:gpxtpx="http://www.garmin.com/xmlschemas/TrackPointExtension/v1">
            <gpxtpx:hr>111</gpxtpx:hr>
          </gpxtpx:TrackPointExtension>
        </extensions>
      </trkpt>
      <trkpt lat="48.6134" lon="2.01541">
        <ele>120.6</ele>
        <time>2025-11-16T12:55:01Z</time>
        <extensions>
          <gpxtpx:TrackPointExtension xmlns:gpxtpx="http://www.garmin.com/xmlschemas/TrackPointExtension/v1">
            <gpxtpx:hr>111</gpxtpx:hr>
          </gpxtpx:TrackPointExtension>
        </extensions>
      </trkpt>
      <trkpt lat="48.61338" lon="2.01544">
        <ele>120.8</ele>
        <time>2025-11-16T12:55:03Z</time>
        <extensions>
          <gpxtpx:TrackPointExtension xmlns:gpxtpx="http://www.garmin.com/xmlschemas/TrackPointExtension/v1">
            <gpxtpx:hr>111</gpxtpx:hr>
          </gpxtpx:TrackPointExtension>
        </extensions>
      </trkpt>
      <trkpt lat="48.61336" lon="2.01548">
        <ele>120.8</ele>
        <time>2025-11-16T12:55:05Z</time>
        <extensions>
          <gpxtpx:TrackPointExtension xmlns:gpxtpx="http://www.garmin.com/xmlschemas/TrackPointExtension/v1">
            <gpxtpx:hr>111</gpxtpx:hr>
          </gpxtpx:TrackPointExtension>
        </extensions>
      </trkpt>
      <trkpt lat="48.61334" lon="2.01552">
        <ele>121</ele>
        <time>2025-11-16T12:55:07Z</time>
        <extensions>
          <gpxtpx:TrackPointExtension xmlns:gpxtpx="http://www.garmin.com/xmlschemas/TrackPointExtension/v1">
            <gpxtpx:hr>111</gpxtpx:hr>
          </gpxtpx:TrackPointExtension>
        </extensions>
      </trkpt>
      <trkpt lat="48.61332" lon="2.01557">
        <ele>121</ele>
        <time>2025-11-16T12:55:09Z</time>
        <extensions>
          <gpxtpx:TrackPointExtension xmlns:gpxtpx="http://www.garmin.com/xmlschemas/TrackPointExtension/v1">
            <gpxtpx:hr>111</gpxtpx:hr>
          </gpxtpx:TrackPointExtension>
        </extensions>
      </trkpt>
      <trkpt lat="48.61331" lon="2.01561">
        <ele>121.2</ele>
        <time>2025-11-16T12:55:11Z</time>
        <extensions>
          <gpxtpx:TrackPointExtension xmlns:gpxtpx="http://www.garmin.com/xmlschemas/TrackPointExtension/v1">
            <gpxtpx:hr>111</gpxtpx:hr>
          </gpxtpx:TrackPointExtension>
        </extensions>
      </trkpt>
      <trkpt lat="48.6133" lon="2.01563">
        <ele>121.2</ele>
        <time>2025-11-16T12:55:12Z</time>
        <extensions>
          <gpxtpx:TrackPointExtension xmlns:gpxtpx="http://www.garmin.com/xmlschemas/TrackPointExtension/v1">
            <gpxtpx:hr>111</gpxtpx:hr>
          </gpxtpx:TrackPointExtension>
        </extensions>
      </trkpt>
      <trkpt lat="48.61329" lon="2.01568">
        <ele>121.4</ele>
        <time>2025-11-16T12:55:14Z</time>
        <extensions>
          <gpxtpx:TrackPointExtension xmlns:gpxtpx="http://www.garmin.com/xmlschemas/TrackPointExtension/v1">
            <gpxtpx:hr>111</gpxtpx:hr>
          </gpxtpx:TrackPointExtension>
        </extensions>
      </trkpt>
      <trkpt lat="48.61327" lon="2.0157">
        <ele>121.4</ele>
        <time>2025-11-16T12:55:15Z</time>
        <extensions>
          <gpxtpx:TrackPointExtension xmlns:gpxtpx="http://www.garmin.com/xmlschemas/TrackPointExtension/v1">
            <gpxtpx:hr>111</gpxtpx:hr>
          </gpxtpx:TrackPointExtension>
        </extensions>
      </trkpt>
      <trkpt lat="48.61326" lon="2.01574">
        <ele>121.6</ele>
        <time>2025-11-16T12:55:17Z</time>
        <extensions>
          <gpxtpx:TrackPointExtension xmlns:gpxtpx="http://www.garmin.com/xmlschemas/TrackPointExtension/v1">
            <gpxtpx:hr>112</gpxtpx:hr>
          </gpxtpx:TrackPointExtension>
        </extensions>
      </trkpt>
      <trkpt lat="48.61324" lon="2.01578">
        <ele>121.8</ele>
        <time>2025-11-16T12:55:19Z</time>
        <extensions>
          <gpxtpx:TrackPointExtension xmlns:gpxtpx="http://www.garmin.com/xmlschemas/TrackPointExtension/v1">
            <gpxtpx:hr>114</gpxtpx:hr>
          </gpxtpx:TrackPointExtension>
        </extensions>
      </trkpt>
      <trkpt lat="48.61323" lon="2.01583">
        <ele>122.2</ele>
        <time>2025-11-16T12:55:21Z</time>
        <extensions>
          <gpxtpx:TrackPointExtension xmlns:gpxtpx="http://www.garmin.com/xmlschemas/TrackPointExtension/v1">
            <gpxtpx:hr>116</gpxtpx:hr>
          </gpxtpx:TrackPointExtension>
        </extensions>
      </trkpt>
      <trkpt lat="48.61322" lon="2.01587">
        <ele>122.4</ele>
        <time>2025-11-16T12:55:23Z</time>
        <extensions>
          <gpxtpx:TrackPointExtension xmlns:gpxtpx="http://www.garmin.com/xmlschemas/TrackPointExtension/v1">
            <gpxtpx:hr>116</gpxtpx:hr>
          </gpxtpx:TrackPointExtension>
        </extensions>
      </trkpt>
      <trkpt lat="48.6132" lon="2.01591">
        <ele>122.6</ele>
        <time>2025-11-16T12:55:25Z</time>
        <extensions>
          <gpxtpx:TrackPointExtension xmlns:gpxtpx="http://www.garmin.com/xmlschemas/TrackPointExtension/v1">
            <gpxtpx:hr>116</gpxtpx:hr>
          </gpxtpx:TrackPointExtension>
        </extensions>
      </trkpt>
      <trkpt lat="48.61319" lon="2.01595">
        <ele>122.8</ele>
        <time>2025-11-16T12:55:27Z</time>
        <extensions>
          <gpxtpx:TrackPointExtension xmlns:gpxtpx="http://www.garmin.com/xmlschemas/TrackPointExtension/v1">
            <gpxtpx:hr>116</gpxtpx:hr>
          </gpxtpx:TrackPointExtension>
        </extensions>
      </trkpt>
      <trkpt lat="48.61317" lon="2.01599">
        <ele>122.8</ele>
        <time>2025-11-16T12:55:29Z</time>
        <extensions>
          <gpxtpx:TrackPointExtension xmlns:gpxtpx="http://www.garmin.com/xmlschemas/TrackPointExtension/v1">
            <gpxtpx:hr>116</gpxtpx:hr>
          </gpxtpx:TrackPointExtension>
        </extensions>
      </trkpt>
      <trkpt lat="48.61316" lon="2.01601">
        <ele>122.8</ele>
        <time>2025-11-16T12:55:30Z</time>
        <extensions>
          <gpxtpx:TrackPointExtension xmlns:gpxtpx="http://www.garmin.com/xmlschemas/TrackPointExtension/v1">
            <gpxtpx:hr>116</gpxtpx:hr>
          </gpxtpx:TrackPointExtension>
        </extensions>
      </trkpt>
      <trkpt lat="48.61314" lon="2.01605">
        <ele>122.8</ele>
        <time>2025-11-16T12:55:32Z</time>
        <extensions>
          <gpxtpx:TrackPointExtension xmlns:gpxtpx="http://www.garmin.com/xmlschemas/TrackPointExtension/v1">
            <gpxtpx:hr>116</gpxtpx:hr>
          </gpxtpx:TrackPointExtension>
        </extensions>
      </trkpt>
      <trkpt lat="48.61313" lon="2.0161">
        <ele>122.8</ele>
        <time>2025-11-16T12:55:34Z</time>
        <extensions>
          <gpxtpx:TrackPointExtension xmlns:gpxtpx="http://www.garmin.com/xmlschemas/TrackPointExtension/v1">
            <gpxtpx:hr>116</gpxtpx:hr>
          </gpxtpx:TrackPointExtension>
        </extensions>
      </trkpt>
      <trkpt lat="48.61311" lon="2.01612">
        <ele>122.8</ele>
        <time>2025-11-16T12:55:35Z</time>
        <extensions>
          <gpxtpx:TrackPointExtension xmlns:gpxtpx="http://www.garmin.com/xmlschemas/TrackPointExtension/v1">
            <gpxtpx:hr>116</gpxtpx:hr>
          </gpxtpx:TrackPointExtension>
        </extensions>
      </trkpt>
      <trkpt lat="48.6131" lon="2.01616">
        <ele>122.8</ele>
        <time>2025-11-16T12:55:37Z</time>
        <extensions>
          <gpxtpx:TrackPointExtension xmlns:gpxtpx="http://www.garmin.com/xmlschemas/TrackPointExtension/v1">
            <gpxtpx:hr>116</gpxtpx:hr>
          </gpxtpx:TrackPointExtension>
        </extensions>
      </trkpt>
      <trkpt lat="48.61308" lon="2.01621">
        <ele>122.8</ele>
        <time>2025-11-16T12:55:39Z</time>
        <extensions>
          <gpxtpx:TrackPointExtension xmlns:gpxtpx="http://www.garmin.com/xmlschemas/TrackPointExtension/v1">
            <gpxtpx:hr>116</gpxtpx:hr>
          </gpxtpx:TrackPointExtension>
        </extensions>
      </trkpt>
      <trkpt lat="48.61306" lon="2.01625">
        <ele>122.8</ele>
        <time>2025-11-16T12:55:41Z</time>
        <extensions>
          <gpxtpx:TrackPointExtension xmlns:gpxtpx="http://www.garmin.com/xmlschemas/TrackPointExtension/v1">
            <gpxtpx:hr>116</gpxtpx:hr>
          </gpxtpx:TrackPointExtension>
        </extensions>
      </trkpt>
      <trkpt lat="48.61304" lon="2.01629">
        <ele>123</ele>
        <time>2025-11-16T12:55:43Z</time>
        <extensions>
          <gpxtpx:TrackPointExtension xmlns:gpxtpx="http://www.garmin.com/xmlschemas/TrackPointExtension/v1">
            <gpxtpx:hr>117</gpxtpx:hr>
          </gpxtpx:TrackPointExtension>
        </extensions>
      </trkpt>
      <trkpt lat="48.61303" lon="2.01633">
        <ele>123</ele>
        <time>2025-11-16T12:55:45Z</time>
        <extensions>
          <gpxtpx:TrackPointExtension xmlns:gpxtpx="http://www.garmin.com/xmlschemas/TrackPointExtension/v1">
            <gpxtpx:hr>117</gpxtpx:hr>
          </gpxtpx:TrackPointExtension>
        </extensions>
      </trkpt>
      <trkpt lat="48.61301" lon="2.01637">
        <ele>123</ele>
        <time>2025-11-16T12:55:47Z</time>
        <extensions>
          <gpxtpx:TrackPointExtension xmlns:gpxtpx="http://www.garmin.com/xmlschemas/TrackPointExtension/v1">
            <gpxtpx:hr>117</gpxtpx:hr>
          </gpxtpx:TrackPointExtension>
        </extensions>
      </trkpt>
      <trkpt lat="48.613" lon="2.01641">
        <ele>123.2</ele>
        <time>2025-11-16T12:55:49Z</time>
        <extensions>
          <gpxtpx:TrackPointExtension xmlns:gpxtpx="http://www.garmin.com/xmlschemas/TrackPointExtension/v1">
            <gpxtpx:hr>117</gpxtpx:hr>
          </gpxtpx:TrackPointExtension>
        </extensions>
      </trkpt>
      <trkpt lat="48.61298" lon="2.01645">
        <ele>123.4</ele>
        <time>2025-11-16T12:55:51Z</time>
        <extensions>
          <gpxtpx:TrackPointExtension xmlns:gpxtpx="http://www.garmin.com/xmlschemas/TrackPointExtension/v1">
            <gpxtpx:hr>117</gpxtpx:hr>
          </gpxtpx:TrackPointExtension>
        </extensions>
      </trkpt>
      <trkpt lat="48.61297" lon="2.01648">
        <ele>123.4</ele>
        <time>2025-11-16T12:55:53Z</time>
        <extensions>
          <gpxtpx:TrackPointExtension xmlns:gpxtpx="http://www.garmin.com/xmlschemas/TrackPointExtension/v1">
            <gpxtpx:hr>117</gpxtpx:hr>
          </gpxtpx:TrackPointExtension>
        </extensions>
      </trkpt>
      <trkpt lat="48.61295" lon="2.01652">
        <ele>123.6</ele>
        <time>2025-11-16T12:55:55Z</time>
        <extensions>
          <gpxtpx:TrackPointExtension xmlns:gpxtpx="http://www.garmin.com/xmlschemas/TrackPointExtension/v1">
            <gpxtpx:hr>117</gpxtpx:hr>
          </gpxtpx:TrackPointExtension>
        </extensions>
      </trkpt>
      <trkpt lat="48.61293" lon="2.01657">
        <ele>123.8</ele>
        <time>2025-11-16T12:55:57Z</time>
        <extensions>
          <gpxtpx:TrackPointExtension xmlns:gpxtpx="http://www.garmin.com/xmlschemas/TrackPointExtension/v1">
            <gpxtpx:hr>117</gpxtpx:hr>
          </gpxtpx:TrackPointExtension>
        </extensions>
      </trkpt>
      <trkpt lat="48.61292" lon="2.01661">
        <ele>123.8</ele>
        <time>2025-11-16T12:55:59Z</time>
        <extensions>
          <gpxtpx:TrackPointExtension xmlns:gpxtpx="http://www.garmin.com/xmlschemas/TrackPointExtension/v1">
            <gpxtpx:hr>117</gpxtpx:hr>
          </gpxtpx:TrackPointExtension>
        </extensions>
      </trkpt>
      <trkpt lat="48.6129" lon="2.01664">
        <ele>123.8</ele>
        <time>2025-11-16T12:56:01Z</time>
        <extensions>
          <gpxtpx:TrackPointExtension xmlns:gpxtpx="http://www.garmin.com/xmlschemas/TrackPointExtension/v1">
            <gpxtpx:hr>117</gpxtpx:hr>
          </gpxtpx:TrackPointExtension>
        </extensions>
      </trkpt>
      <trkpt lat="48.61289" lon="2.01668">
        <ele>124</ele>
        <time>2025-11-16T12:56:04Z</time>
        <extensions>
          <gpxtpx:TrackPointExtension xmlns:gpxtpx="http://www.garmin.com/xmlschemas/TrackPointExtension/v1">
            <gpxtpx:hr>117</gpxtpx:hr>
          </gpxtpx:TrackPointExtension>
        </extensions>
      </trkpt>
      <trkpt lat="48.61288" lon="2.01671">
        <ele>124</ele>
        <time>2025-11-16T12:56:06Z</time>
        <extensions>
          <gpxtpx:TrackPointExtension xmlns:gpxtpx="http://www.garmin.com/xmlschemas/TrackPointExtension/v1">
            <gpxtpx:hr>117</gpxtpx:hr>
          </gpxtpx:TrackPointExtension>
        </extensions>
      </trkpt>
      <trkpt lat="48.61286" lon="2.01674">
        <ele>123.8</ele>
        <time>2025-11-16T12:56:08Z</time>
        <extensions>
          <gpxtpx:TrackPointExtension xmlns:gpxtpx="http://www.garmin.com/xmlschemas/TrackPointExtension/v1">
            <gpxtpx:hr>117</gpxtpx:hr>
          </gpxtpx:TrackPointExtension>
        </extensions>
      </trkpt>
      <trkpt lat="48.61284" lon="2.01678">
        <ele>123.8</ele>
        <time>2025-11-16T12:56:10Z</time>
        <extensions>
          <gpxtpx:TrackPointExtension xmlns:gpxtpx="http://www.garmin.com/xmlschemas/TrackPointExtension/v1">
            <gpxtpx:hr>117</gpxtpx:hr>
          </gpxtpx:TrackPointExtension>
        </extensions>
      </trkpt>
      <trkpt lat="48.61283" lon="2.01683">
        <ele>123.8</ele>
        <time>2025-11-16T12:56:12Z</time>
        <extensions>
          <gpxtpx:TrackPointExtension xmlns:gpxtpx="http://www.garmin.com/xmlschemas/TrackPointExtension/v1">
            <gpxtpx:hr>117</gpxtpx:hr>
          </gpxtpx:TrackPointExtension>
        </extensions>
      </trkpt>
      <trkpt lat="48.61281" lon="2.01687">
        <ele>123.6</ele>
        <time>2025-11-16T12:56:14Z</time>
        <extensions>
          <gpxtpx:TrackPointExtension xmlns:gpxtpx="http://www.garmin.com/xmlschemas/TrackPointExtension/v1">
            <gpxtpx:hr>117</gpxtpx:hr>
          </gpxtpx:TrackPointExtension>
        </extensions>
      </trkpt>
      <trkpt lat="48.61279" lon="2.01692">
        <ele>123.6</ele>
        <time>2025-11-16T12:56:16Z</time>
        <extensions>
          <gpxtpx:TrackPointExtension xmlns:gpxtpx="http://www.garmin.com/xmlschemas/TrackPointExtension/v1">
            <gpxtpx:hr>117</gpxtpx:hr>
          </gpxtpx:TrackPointExtension>
        </extensions>
      </trkpt>
      <trkpt lat="48.61278" lon="2.01696">
        <ele>123.6</ele>
        <time>2025-11-16T12:56:18Z</time>
        <extensions>
          <gpxtpx:TrackPointExtension xmlns:gpxtpx="http://www.garmin.com/xmlschemas/TrackPointExtension/v1">
            <gpxtpx:hr>117</gpxtpx:hr>
          </gpxtpx:TrackPointExtension>
        </extensions>
      </trkpt>
      <trkpt lat="48.61276" lon="2.017">
        <ele>123.8</ele>
        <time>2025-11-16T12:56:20Z</time>
        <extensions>
          <gpxtpx:TrackPointExtension xmlns:gpxtpx="http://www.garmin.com/xmlschemas/TrackPointExtension/v1">
            <gpxtpx:hr>117</gpxtpx:hr>
          </gpxtpx:TrackPointExtension>
        </extensions>
      </trkpt>
      <trkpt lat="48.61275" lon="2.01705">
        <ele>123.8</ele>
        <time>2025-11-16T12:56:22Z</time>
        <extensions>
          <gpxtpx:TrackPointExtension xmlns:gpxtpx="http://www.garmin.com/xmlschemas/TrackPointExtension/v1">
            <gpxtpx:hr>117</gpxtpx:hr>
          </gpxtpx:TrackPointExtension>
        </extensions>
      </trkpt>
      <trkpt lat="48.61273" lon="2.01709">
        <ele>123.6</ele>
        <time>2025-11-16T12:56:24Z</time>
        <extensions>
          <gpxtpx:TrackPointExtension xmlns:gpxtpx="http://www.garmin.com/xmlschemas/TrackPointExtension/v1">
            <gpxtpx:hr>117</gpxtpx:hr>
          </gpxtpx:TrackPointExtension>
        </extensions>
      </trkpt>
      <trkpt lat="48.61272" lon="2.01713">
        <ele>123.4</ele>
        <time>2025-11-16T12:56:26Z</time>
        <extensions>
          <gpxtpx:TrackPointExtension xmlns:gpxtpx="http://www.garmin.com/xmlschemas/TrackPointExtension/v1">
            <gpxtpx:hr>117</gpxtpx:hr>
          </gpxtpx:TrackPointExtension>
        </extensions>
      </trkpt>
      <trkpt lat="48.6127" lon="2.01715">
        <ele>123.4</ele>
        <time>2025-11-16T12:56:27Z</time>
        <extensions>
          <gpxtpx:TrackPointExtension xmlns:gpxtpx="http://www.garmin.com/xmlschemas/TrackPointExtension/v1">
            <gpxtpx:hr>117</gpxtpx:hr>
          </gpxtpx:TrackPointExtension>
        </extensions>
      </trkpt>
      <trkpt lat="48.61269" lon="2.01719">
        <ele>123.4</ele>
        <time>2025-11-16T12:56:29Z</time>
        <extensions>
          <gpxtpx:TrackPointExtension xmlns:gpxtpx="http://www.garmin.com/xmlschemas/TrackPointExtension/v1">
            <gpxtpx:hr>116</gpxtpx:hr>
          </gpxtpx:TrackPointExtension>
        </extensions>
      </trkpt>
      <trkpt lat="48.61268" lon="2.01722">
        <ele>123.4</ele>
        <time>2025-11-16T12:56:30Z</time>
        <extensions>
          <gpxtpx:TrackPointExtension xmlns:gpxtpx="http://www.garmin.com/xmlschemas/TrackPointExtension/v1">
            <gpxtpx:hr>116</gpxtpx:hr>
          </gpxtpx:TrackPointExtension>
        </extensions>
      </trkpt>
      <trkpt lat="48.61266" lon="2.01727">
        <ele>123.2</ele>
        <time>2025-11-16T12:56:32Z</time>
        <extensions>
          <gpxtpx:TrackPointExtension xmlns:gpxtpx="http://www.garmin.com/xmlschemas/TrackPointExtension/v1">
            <gpxtpx:hr>117</gpxtpx:hr>
          </gpxtpx:TrackPointExtension>
        </extensions>
      </trkpt>
      <trkpt lat="48.61265" lon="2.01731">
        <ele>123.2</ele>
        <time>2025-11-16T12:56:34Z</time>
        <extensions>
          <gpxtpx:TrackPointExtension xmlns:gpxtpx="http://www.garmin.com/xmlschemas/TrackPointExtension/v1">
            <gpxtpx:hr>116</gpxtpx:hr>
          </gpxtpx:TrackPointExtension>
        </extensions>
      </trkpt>
      <trkpt lat="48.61263" lon="2.01736">
        <ele>123</ele>
        <time>2025-11-16T12:56:36Z</time>
        <extensions>
          <gpxtpx:TrackPointExtension xmlns:gpxtpx="http://www.garmin.com/xmlschemas/TrackPointExtension/v1">
            <gpxtpx:hr>116</gpxtpx:hr>
          </gpxtpx:TrackPointExtension>
        </extensions>
      </trkpt>
      <trkpt lat="48.61261" lon="2.0174">
        <ele>123</ele>
        <time>2025-11-16T12:56:38Z</time>
        <extensions>
          <gpxtpx:TrackPointExtension xmlns:gpxtpx="http://www.garmin.com/xmlschemas/TrackPointExtension/v1">
            <gpxtpx:hr>116</gpxtpx:hr>
          </gpxtpx:TrackPointExtension>
        </extensions>
      </trkpt>
      <trkpt lat="48.61259" lon="2.01744">
        <ele>122.8</ele>
        <time>2025-11-16T12:56:40Z</time>
        <extensions>
          <gpxtpx:TrackPointExtension xmlns:gpxtpx="http://www.garmin.com/xmlschemas/TrackPointExtension/v1">
            <gpxtpx:hr>115</gpxtpx:hr>
          </gpxtpx:TrackPointExtension>
        </extensions>
      </trkpt>
      <trkpt lat="48.61258" lon="2.01748">
        <ele>122.8</ele>
        <time>2025-11-16T12:56:42Z</time>
        <extensions>
          <gpxtpx:TrackPointExtension xmlns:gpxtpx="http://www.garmin.com/xmlschemas/TrackPointExtension/v1">
            <gpxtpx:hr>114</gpxtpx:hr>
          </gpxtpx:TrackPointExtension>
        </extensions>
      </trkpt>
      <trkpt lat="48.61256" lon="2.01752">
        <ele>122.6</ele>
        <time>2025-11-16T12:56:44Z</time>
        <extensions>
          <gpxtpx:TrackPointExtension xmlns:gpxtpx="http://www.garmin.com/xmlschemas/TrackPointExtension/v1">
            <gpxtpx:hr>113</gpxtpx:hr>
          </gpxtpx:TrackPointExtension>
        </extensions>
      </trkpt>
      <trkpt lat="48.61254" lon="2.01757">
        <ele>122.4</ele>
        <time>2025-11-16T12:56:46Z</time>
        <extensions>
          <gpxtpx:TrackPointExtension xmlns:gpxtpx="http://www.garmin.com/xmlschemas/TrackPointExtension/v1">
            <gpxtpx:hr>113</gpxtpx:hr>
          </gpxtpx:TrackPointExtension>
        </extensions>
      </trkpt>
      <trkpt lat="48.61252" lon="2.01761">
        <ele>122.4</ele>
        <time>2025-11-16T12:56:48Z</time>
        <extensions>
          <gpxtpx:TrackPointExtension xmlns:gpxtpx="http://www.garmin.com/xmlschemas/TrackPointExtension/v1">
            <gpxtpx:hr>113</gpxtpx:hr>
          </gpxtpx:TrackPointExtension>
        </extensions>
      </trkpt>
      <trkpt lat="48.61252" lon="2.01766">
        <ele>122.4</ele>
        <time>2025-11-16T12:56:50Z</time>
        <extensions>
          <gpxtpx:TrackPointExtension xmlns:gpxtpx="http://www.garmin.com/xmlschemas/TrackPointExtension/v1">
            <gpxtpx:hr>113</gpxtpx:hr>
          </gpxtpx:TrackPointExtension>
        </extensions>
      </trkpt>
      <trkpt lat="48.6125" lon="2.0177">
        <ele>122.4</ele>
        <time>2025-11-16T12:56:52Z</time>
        <extensions>
          <gpxtpx:TrackPointExtension xmlns:gpxtpx="http://www.garmin.com/xmlschemas/TrackPointExtension/v1">
            <gpxtpx:hr>113</gpxtpx:hr>
          </gpxtpx:TrackPointExtension>
        </extensions>
      </trkpt>
      <trkpt lat="48.61248" lon="2.01775">
        <ele>122.4</ele>
        <time>2025-11-16T12:56:54Z</time>
        <extensions>
          <gpxtpx:TrackPointExtension xmlns:gpxtpx="http://www.garmin.com/xmlschemas/TrackPointExtension/v1">
            <gpxtpx:hr>113</gpxtpx:hr>
          </gpxtpx:TrackPointExtension>
        </extensions>
      </trkpt>
      <trkpt lat="48.61247" lon="2.01779">
        <ele>122.4</ele>
        <time>2025-11-16T12:56:56Z</time>
        <extensions>
          <gpxtpx:TrackPointExtension xmlns:gpxtpx="http://www.garmin.com/xmlschemas/TrackPointExtension/v1">
            <gpxtpx:hr>113</gpxtpx:hr>
          </gpxtpx:TrackPointExtension>
        </extensions>
      </trkpt>
      <trkpt lat="48.61246" lon="2.01783">
        <ele>122.4</ele>
        <time>2025-11-16T12:56:58Z</time>
        <extensions>
          <gpxtpx:TrackPointExtension xmlns:gpxtpx="http://www.garmin.com/xmlschemas/TrackPointExtension/v1">
            <gpxtpx:hr>113</gpxtpx:hr>
          </gpxtpx:TrackPointExtension>
        </extensions>
      </trkpt>
      <trkpt lat="48.61244" lon="2.01788">
        <ele>122.4</ele>
        <time>2025-11-16T12:57:00Z</time>
        <extensions>
          <gpxtpx:TrackPointExtension xmlns:gpxtpx="http://www.garmin.com/xmlschemas/TrackPointExtension/v1">
            <gpxtpx:hr>113</gpxtpx:hr>
          </gpxtpx:TrackPointExtension>
        </extensions>
      </trkpt>
      <trkpt lat="48.61243" lon="2.01792">
        <ele>122.4</ele>
        <time>2025-11-16T12:57:02Z</time>
        <extensions>
          <gpxtpx:TrackPointExtension xmlns:gpxtpx="http://www.garmin.com/xmlschemas/TrackPointExtension/v1">
            <gpxtpx:hr>113</gpxtpx:hr>
          </gpxtpx:TrackPointExtension>
        </extensions>
      </trkpt>
      <trkpt lat="48.61241" lon="2.01795">
        <ele>122.4</ele>
        <time>2025-11-16T12:57:04Z</time>
        <extensions>
          <gpxtpx:TrackPointExtension xmlns:gpxtpx="http://www.garmin.com/xmlschemas/TrackPointExtension/v1">
            <gpxtpx:hr>113</gpxtpx:hr>
          </gpxtpx:TrackPointExtension>
        </extensions>
      </trkpt>
      <trkpt lat="48.61239" lon="2.01799">
        <ele>122.4</ele>
        <time>2025-11-16T12:57:06Z</time>
        <extensions>
          <gpxtpx:TrackPointExtension xmlns:gpxtpx="http://www.garmin.com/xmlschemas/TrackPointExtension/v1">
            <gpxtpx:hr>113</gpxtpx:hr>
          </gpxtpx:TrackPointExtension>
        </extensions>
      </trkpt>
      <trkpt lat="48.61237" lon="2.01804">
        <ele>122.4</ele>
        <time>2025-11-16T12:57:08Z</time>
        <extensions>
          <gpxtpx:TrackPointExtension xmlns:gpxtpx="http://www.garmin.com/xmlschemas/TrackPointExtension/v1">
            <gpxtpx:hr>113</gpxtpx:hr>
          </gpxtpx:TrackPointExtension>
        </extensions>
      </trkpt>
      <trkpt lat="48.61235" lon="2.01808">
        <ele>122.4</ele>
        <time>2025-11-16T12:57:10Z</time>
        <extensions>
          <gpxtpx:TrackPointExtension xmlns:gpxtpx="http://www.garmin.com/xmlschemas/TrackPointExtension/v1">
            <gpxtpx:hr>111</gpxtpx:hr>
          </gpxtpx:TrackPointExtension>
        </extensions>
      </trkpt>
      <trkpt lat="48.61233" lon="2.01812">
        <ele>122.6</ele>
        <time>2025-11-16T12:57:12Z</time>
        <extensions>
          <gpxtpx:TrackPointExtension xmlns:gpxtpx="http://www.garmin.com/xmlschemas/TrackPointExtension/v1">
            <gpxtpx:hr>109</gpxtpx:hr>
          </gpxtpx:TrackPointExtension>
        </extensions>
      </trkpt>
      <trkpt lat="48.61232" lon="2.01814">
        <ele>122.6</ele>
        <time>2025-11-16T12:57:13Z</time>
        <extensions>
          <gpxtpx:TrackPointExtension xmlns:gpxtpx="http://www.garmin.com/xmlschemas/TrackPointExtension/v1">
            <gpxtpx:hr>108</gpxtpx:hr>
          </gpxtpx:TrackPointExtension>
        </extensions>
      </trkpt>
      <trkpt lat="48.61231" lon="2.01817">
        <ele>122.6</ele>
        <time>2025-11-16T12:57:14Z</time>
        <extensions>
          <gpxtpx:TrackPointExtension xmlns:gpxtpx="http://www.garmin.com/xmlschemas/TrackPointExtension/v1">
            <gpxtpx:hr>105</gpxtpx:hr>
          </gpxtpx:TrackPointExtension>
        </extensions>
      </trkpt>
      <trkpt lat="48.61229" lon="2.01821">
        <ele>122.4</ele>
        <time>2025-11-16T12:57:16Z</time>
        <extensions>
          <gpxtpx:TrackPointExtension xmlns:gpxtpx="http://www.garmin.com/xmlschemas/TrackPointExtension/v1">
            <gpxtpx:hr>104</gpxtpx:hr>
          </gpxtpx:TrackPointExtension>
        </extensions>
      </trkpt>
      <trkpt lat="48.61228" lon="2.01823">
        <ele>122.4</ele>
        <time>2025-11-16T12:57:17Z</time>
        <extensions>
          <gpxtpx:TrackPointExtension xmlns:gpxtpx="http://www.garmin.com/xmlschemas/TrackPointExtension/v1">
            <gpxtpx:hr>104</gpxtpx:hr>
          </gpxtpx:TrackPointExtension>
        </extensions>
      </trkpt>
      <trkpt lat="48.61227" lon="2.01828">
        <ele>122.2</ele>
        <time>2025-11-16T12:57:19Z</time>
        <extensions>
          <gpxtpx:TrackPointExtension xmlns:gpxtpx="http://www.garmin.com/xmlschemas/TrackPointExtension/v1">
            <gpxtpx:hr>104</gpxtpx:hr>
          </gpxtpx:TrackPointExtension>
        </extensions>
      </trkpt>
      <trkpt lat="48.61225" lon="2.01832">
        <ele>122</ele>
        <time>2025-11-16T12:57:21Z</time>
        <extensions>
          <gpxtpx:TrackPointExtension xmlns:gpxtpx="http://www.garmin.com/xmlschemas/TrackPointExtension/v1">
            <gpxtpx:hr>104</gpxtpx:hr>
          </gpxtpx:TrackPointExtension>
        </extensions>
      </trkpt>
      <trkpt lat="48.61224" lon="2.01834">
        <ele>122</ele>
        <time>2025-11-16T12:57:22Z</time>
        <extensions>
          <gpxtpx:TrackPointExtension xmlns:gpxtpx="http://www.garmin.com/xmlschemas/TrackPointExtension/v1">
            <gpxtpx:hr>104</gpxtpx:hr>
          </gpxtpx:TrackPointExtension>
        </extensions>
      </trkpt>
      <trkpt lat="48.61222" lon="2.01838">
        <ele>121.8</ele>
        <time>2025-11-16T12:57:24Z</time>
        <extensions>
          <gpxtpx:TrackPointExtension xmlns:gpxtpx="http://www.garmin.com/xmlschemas/TrackPointExtension/v1">
            <gpxtpx:hr>104</gpxtpx:hr>
          </gpxtpx:TrackPointExtension>
        </extensions>
      </trkpt>
      <trkpt lat="48.6122" lon="2.01842">
        <ele>121.6</ele>
        <time>2025-11-16T12:57:26Z</time>
        <extensions>
          <gpxtpx:TrackPointExtension xmlns:gpxtpx="http://www.garmin.com/xmlschemas/TrackPointExtension/v1">
            <gpxtpx:hr>104</gpxtpx:hr>
          </gpxtpx:TrackPointExtension>
        </extensions>
      </trkpt>
      <trkpt lat="48.61219" lon="2.01847">
        <ele>121.6</ele>
        <time>2025-11-16T12:57:28Z</time>
        <extensions>
          <gpxtpx:TrackPointExtension xmlns:gpxtpx="http://www.garmin.com/xmlschemas/TrackPointExtension/v1">
            <gpxtpx:hr>104</gpxtpx:hr>
          </gpxtpx:TrackPointExtension>
        </extensions>
      </trkpt>
      <trkpt lat="48.61218" lon="2.0185">
        <ele>121.6</ele>
        <time>2025-11-16T12:57:29Z</time>
        <extensions>
          <gpxtpx:TrackPointExtension xmlns:gpxtpx="http://www.garmin.com/xmlschemas/TrackPointExtension/v1">
            <gpxtpx:hr>104</gpxtpx:hr>
          </gpxtpx:TrackPointExtension>
        </extensions>
      </trkpt>
      <trkpt lat="48.61217" lon="2.01852">
        <ele>121.6</ele>
        <time>2025-11-16T12:57:30Z</time>
        <extensions>
          <gpxtpx:TrackPointExtension xmlns:gpxtpx="http://www.garmin.com/xmlschemas/TrackPointExtension/v1">
            <gpxtpx:hr>104</gpxtpx:hr>
          </gpxtpx:TrackPointExtension>
        </extensions>
      </trkpt>
      <trkpt lat="48.61216" lon="2.01856">
        <ele>121.6</ele>
        <time>2025-11-16T12:57:32Z</time>
        <extensions>
          <gpxtpx:TrackPointExtension xmlns:gpxtpx="http://www.garmin.com/xmlschemas/TrackPointExtension/v1">
            <gpxtpx:hr>104</gpxtpx:hr>
          </gpxtpx:TrackPointExtension>
        </extensions>
      </trkpt>
      <trkpt lat="48.61214" lon="2.0186">
        <ele>121.4</ele>
        <time>2025-11-16T12:57:34Z</time>
        <extensions>
          <gpxtpx:TrackPointExtension xmlns:gpxtpx="http://www.garmin.com/xmlschemas/TrackPointExtension/v1">
            <gpxtpx:hr>104</gpxtpx:hr>
          </gpxtpx:TrackPointExtension>
        </extensions>
      </trkpt>
      <trkpt lat="48.61212" lon="2.01864">
        <ele>121.4</ele>
        <time>2025-11-16T12:57:36Z</time>
        <extensions>
          <gpxtpx:TrackPointExtension xmlns:gpxtpx="http://www.garmin.com/xmlschemas/TrackPointExtension/v1">
            <gpxtpx:hr>104</gpxtpx:hr>
          </gpxtpx:TrackPointExtension>
        </extensions>
      </trkpt>
      <trkpt lat="48.6121" lon="2.01868">
        <ele>121.4</ele>
        <time>2025-11-16T12:57:38Z</time>
        <extensions>
          <gpxtpx:TrackPointExtension xmlns:gpxtpx="http://www.garmin.com/xmlschemas/TrackPointExtension/v1">
            <gpxtpx:hr>104</gpxtpx:hr>
          </gpxtpx:TrackPointExtension>
        </extensions>
      </trkpt>
      <trkpt lat="48.61209" lon="2.01873">
        <ele>121.2</ele>
        <time>2025-11-16T12:57:40Z</time>
        <extensions>
          <gpxtpx:TrackPointExtension xmlns:gpxtpx="http://www.garmin.com/xmlschemas/TrackPointExtension/v1">
            <gpxtpx:hr>104</gpxtpx:hr>
          </gpxtpx:TrackPointExtension>
        </extensions>
      </trkpt>
      <trkpt lat="48.61208" lon="2.01877">
        <ele>121.2</ele>
        <time>2025-11-16T12:57:42Z</time>
        <extensions>
          <gpxtpx:TrackPointExtension xmlns:gpxtpx="http://www.garmin.com/xmlschemas/TrackPointExtension/v1">
            <gpxtpx:hr>105</gpxtpx:hr>
          </gpxtpx:TrackPointExtension>
        </extensions>
      </trkpt>
      <trkpt lat="48.61206" lon="2.01881">
        <ele>121.2</ele>
        <time>2025-11-16T12:57:44Z</time>
        <extensions>
          <gpxtpx:TrackPointExtension xmlns:gpxtpx="http://www.garmin.com/xmlschemas/TrackPointExtension/v1">
            <gpxtpx:hr>104</gpxtpx:hr>
          </gpxtpx:TrackPointExtension>
        </extensions>
      </trkpt>
      <trkpt lat="48.61205" lon="2.01883">
        <ele>121.2</ele>
        <time>2025-11-16T12:57:45Z</time>
        <extensions>
          <gpxtpx:TrackPointExtension xmlns:gpxtpx="http://www.garmin.com/xmlschemas/TrackPointExtension/v1">
            <gpxtpx:hr>104</gpxtpx:hr>
          </gpxtpx:TrackPointExtension>
        </extensions>
      </trkpt>
      <trkpt lat="48.61204" lon="2.01887">
        <ele>121</ele>
        <time>2025-11-16T12:57:47Z</time>
        <extensions>
          <gpxtpx:TrackPointExtension xmlns:gpxtpx="http://www.garmin.com/xmlschemas/TrackPointExtension/v1">
            <gpxtpx:hr>104</gpxtpx:hr>
          </gpxtpx:TrackPointExtension>
        </extensions>
      </trkpt>
      <trkpt lat="48.61202" lon="2.01891">
        <ele>121</ele>
        <time>2025-11-16T12:57:49Z</time>
        <extensions>
          <gpxtpx:TrackPointExtension xmlns:gpxtpx="http://www.garmin.com/xmlschemas/TrackPointExtension/v1">
            <gpxtpx:hr>105</gpxtpx:hr>
          </gpxtpx:TrackPointExtension>
        </extensions>
      </trkpt>
      <trkpt lat="48.612" lon="2.01895">
        <ele>121</ele>
        <time>2025-11-16T12:57:51Z</time>
        <extensions>
          <gpxtpx:TrackPointExtension xmlns:gpxtpx="http://www.garmin.com/xmlschemas/TrackPointExtension/v1">
            <gpxtpx:hr>105</gpxtpx:hr>
          </gpxtpx:TrackPointExtension>
        </extensions>
      </trkpt>
      <trkpt lat="48.61199" lon="2.01897">
        <ele>120.8</ele>
        <time>2025-11-16T12:57:52Z</time>
        <extensions>
          <gpxtpx:TrackPointExtension xmlns:gpxtpx="http://www.garmin.com/xmlschemas/TrackPointExtension/v1">
            <gpxtpx:hr>106</gpxtpx:hr>
          </gpxtpx:TrackPointExtension>
        </extensions>
      </trkpt>
      <trkpt lat="48.61198" lon="2.01902">
        <ele>120.8</ele>
        <time>2025-11-16T12:57:54Z</time>
        <extensions>
          <gpxtpx:TrackPointExtension xmlns:gpxtpx="http://www.garmin.com/xmlschemas/TrackPointExtension/v1">
            <gpxtpx:hr>106</gpxtpx:hr>
          </gpxtpx:TrackPointExtension>
        </extensions>
      </trkpt>
      <trkpt lat="48.61196" lon="2.01906">
        <ele>120.8</ele>
        <time>2025-11-16T12:57:56Z</time>
        <extensions>
          <gpxtpx:TrackPointExtension xmlns:gpxtpx="http://www.garmin.com/xmlschemas/TrackPointExtension/v1">
            <gpxtpx:hr>107</gpxtpx:hr>
          </gpxtpx:TrackPointExtension>
        </extensions>
      </trkpt>
      <trkpt lat="48.61195" lon="2.01909">
        <ele>120.8</ele>
        <time>2025-11-16T12:57:58Z</time>
        <extensions>
          <gpxtpx:TrackPointExtension xmlns:gpxtpx="http://www.garmin.com/xmlschemas/TrackPointExtension/v1">
            <gpxtpx:hr>107</gpxtpx:hr>
          </gpxtpx:TrackPointExtension>
        </extensions>
      </trkpt>
      <trkpt lat="48.61193" lon="2.01912">
        <ele>120.8</ele>
        <time>2025-11-16T12:58:00Z</time>
        <extensions>
          <gpxtpx:TrackPointExtension xmlns:gpxtpx="http://www.garmin.com/xmlschemas/TrackPointExtension/v1">
            <gpxtpx:hr>107</gpxtpx:hr>
          </gpxtpx:TrackPointExtension>
        </extensions>
      </trkpt>
      <trkpt lat="48.61192" lon="2.01915">
        <ele>120.8</ele>
        <time>2025-11-16T12:58:02Z</time>
        <extensions>
          <gpxtpx:TrackPointExtension xmlns:gpxtpx="http://www.garmin.com/xmlschemas/TrackPointExtension/v1">
            <gpxtpx:hr>108</gpxtpx:hr>
          </gpxtpx:TrackPointExtension>
        </extensions>
      </trkpt>
      <trkpt lat="48.6119" lon="2.01918">
        <ele>120.8</ele>
        <time>2025-11-16T12:58:04Z</time>
        <extensions>
          <gpxtpx:TrackPointExtension xmlns:gpxtpx="http://www.garmin.com/xmlschemas/TrackPointExtension/v1">
            <gpxtpx:hr>108</gpxtpx:hr>
          </gpxtpx:TrackPointExtension>
        </extensions>
      </trkpt>
      <trkpt lat="48.61188" lon="2.01922">
        <ele>120.8</ele>
        <time>2025-11-16T12:58:06Z</time>
        <extensions>
          <gpxtpx:TrackPointExtension xmlns:gpxtpx="http://www.garmin.com/xmlschemas/TrackPointExtension/v1">
            <gpxtpx:hr>108</gpxtpx:hr>
          </gpxtpx:TrackPointExtension>
        </extensions>
      </trkpt>
      <trkpt lat="48.61187" lon="2.01926">
        <ele>120.8</ele>
        <time>2025-11-16T12:58:08Z</time>
        <extensions>
          <gpxtpx:TrackPointExtension xmlns:gpxtpx="http://www.garmin.com/xmlschemas/TrackPointExtension/v1">
            <gpxtpx:hr>108</gpxtpx:hr>
          </gpxtpx:TrackPointExtension>
        </extensions>
      </trkpt>
      <trkpt lat="48.61186" lon="2.0193">
        <ele>121</ele>
        <time>2025-11-16T12:58:10Z</time>
        <extensions>
          <gpxtpx:TrackPointExtension xmlns:gpxtpx="http://www.garmin.com/xmlschemas/TrackPointExtension/v1">
            <gpxtpx:hr>107</gpxtpx:hr>
          </gpxtpx:TrackPointExtension>
        </extensions>
      </trkpt>
      <trkpt lat="48.61185" lon="2.01935">
        <ele>121.2</ele>
        <time>2025-11-16T12:58:12Z</time>
        <extensions>
          <gpxtpx:TrackPointExtension xmlns:gpxtpx="http://www.garmin.com/xmlschemas/TrackPointExtension/v1">
            <gpxtpx:hr>107</gpxtpx:hr>
          </gpxtpx:TrackPointExtension>
        </extensions>
      </trkpt>
      <trkpt lat="48.61184" lon="2.01938">
        <ele>121.2</ele>
        <time>2025-11-16T12:58:13Z</time>
        <extensions>
          <gpxtpx:TrackPointExtension xmlns:gpxtpx="http://www.garmin.com/xmlschemas/TrackPointExtension/v1">
            <gpxtpx:hr>107</gpxtpx:hr>
          </gpxtpx:TrackPointExtension>
        </extensions>
      </trkpt>
      <trkpt lat="48.61183" lon="2.01941">
        <ele>121.2</ele>
        <time>2025-11-16T12:58:14Z</time>
        <extensions>
          <gpxtpx:TrackPointExtension xmlns:gpxtpx="http://www.garmin.com/xmlschemas/TrackPointExtension/v1">
            <gpxtpx:hr>107</gpxtpx:hr>
          </gpxtpx:TrackPointExtension>
        </extensions>
      </trkpt>
      <trkpt lat="48.61182" lon="2.01943">
        <ele>121.2</ele>
        <time>2025-11-16T12:58:15Z</time>
        <extensions>
          <gpxtpx:TrackPointExtension xmlns:gpxtpx="http://www.garmin.com/xmlschemas/TrackPointExtension/v1">
            <gpxtpx:hr>107</gpxtpx:hr>
          </gpxtpx:TrackPointExtension>
        </extensions>
      </trkpt>
      <trkpt lat="48.6118" lon="2.01948">
        <ele>121.2</ele>
        <time>2025-11-16T12:58:17Z</time>
        <extensions>
          <gpxtpx:TrackPointExtension xmlns:gpxtpx="http://www.garmin.com/xmlschemas/TrackPointExtension/v1">
            <gpxtpx:hr>107</gpxtpx:hr>
          </gpxtpx:TrackPointExtension>
        </extensions>
      </trkpt>
      <trkpt lat="48.61179" lon="2.01951">
        <ele>121</ele>
        <time>2025-11-16T12:58:19Z</time>
        <extensions>
          <gpxtpx:TrackPointExtension xmlns:gpxtpx="http://www.garmin.com/xmlschemas/TrackPointExtension/v1">
            <gpxtpx:hr>107</gpxtpx:hr>
          </gpxtpx:TrackPointExtension>
        </extensions>
      </trkpt>
      <trkpt lat="48.61177" lon="2.01955">
        <ele>120.8</ele>
        <time>2025-11-16T12:58:21Z</time>
        <extensions>
          <gpxtpx:TrackPointExtension xmlns:gpxtpx="http://www.garmin.com/xmlschemas/TrackPointExtension/v1">
            <gpxtpx:hr>107</gpxtpx:hr>
          </gpxtpx:TrackPointExtension>
        </extensions>
      </trkpt>
      <trkpt lat="48.61175" lon="2.01959">
        <ele>120.6</ele>
        <time>2025-11-16T12:58:23Z</time>
        <extensions>
          <gpxtpx:TrackPointExtension xmlns:gpxtpx="http://www.garmin.com/xmlschemas/TrackPointExtension/v1">
            <gpxtpx:hr>107</gpxtpx:hr>
          </gpxtpx:TrackPointExtension>
        </extensions>
      </trkpt>
      <trkpt lat="48.61174" lon="2.01962">
        <ele>120.6</ele>
        <time>2025-11-16T12:58:24Z</time>
        <extensions>
          <gpxtpx:TrackPointExtension xmlns:gpxtpx="http://www.garmin.com/xmlschemas/TrackPointExtension/v1">
            <gpxtpx:hr>107</gpxtpx:hr>
          </gpxtpx:TrackPointExtension>
        </extensions>
      </trkpt>
      <trkpt lat="48.61173" lon="2.01964">
        <ele>120.6</ele>
        <time>2025-11-16T12:58:25Z</time>
        <extensions>
          <gpxtpx:TrackPointExtension xmlns:gpxtpx="http://www.garmin.com/xmlschemas/TrackPointExtension/v1">
            <gpxtpx:hr>107</gpxtpx:hr>
          </gpxtpx:TrackPointExtension>
        </extensions>
      </trkpt>
      <trkpt lat="48.61172" lon="2.01969">
        <ele>120.8</ele>
        <time>2025-11-16T12:58:27Z</time>
        <extensions>
          <gpxtpx:TrackPointExtension xmlns:gpxtpx="http://www.garmin.com/xmlschemas/TrackPointExtension/v1">
            <gpxtpx:hr>107</gpxtpx:hr>
          </gpxtpx:TrackPointExtension>
        </extensions>
      </trkpt>
      <trkpt lat="48.6117" lon="2.01973">
        <ele>120.8</ele>
        <time>2025-11-16T12:58:29Z</time>
        <extensions>
          <gpxtpx:TrackPointExtension xmlns:gpxtpx="http://www.garmin.com/xmlschemas/TrackPointExtension/v1">
            <gpxtpx:hr>107</gpxtpx:hr>
          </gpxtpx:TrackPointExtension>
        </extensions>
      </trkpt>
      <trkpt lat="48.61168" lon="2.01978">
        <ele>120.8</ele>
        <time>2025-11-16T12:58:31Z</time>
        <extensions>
          <gpxtpx:TrackPointExtension xmlns:gpxtpx="http://www.garmin.com/xmlschemas/TrackPointExtension/v1">
            <gpxtpx:hr>107</gpxtpx:hr>
          </gpxtpx:TrackPointExtension>
        </extensions>
      </trkpt>
      <trkpt lat="48.61167" lon="2.01982">
        <ele>120.8</ele>
        <time>2025-11-16T12:58:33Z</time>
        <extensions>
          <gpxtpx:TrackPointExtension xmlns:gpxtpx="http://www.garmin.com/xmlschemas/TrackPointExtension/v1">
            <gpxtpx:hr>107</gpxtpx:hr>
          </gpxtpx:TrackPointExtension>
        </extensions>
      </trkpt>
      <trkpt lat="48.61165" lon="2.01985">
        <ele>120.6</ele>
        <time>2025-11-16T12:58:35Z</time>
        <extensions>
          <gpxtpx:TrackPointExtension xmlns:gpxtpx="http://www.garmin.com/xmlschemas/TrackPointExtension/v1">
            <gpxtpx:hr>107</gpxtpx:hr>
          </gpxtpx:TrackPointExtension>
        </extensions>
      </trkpt>
      <trkpt lat="48.61163" lon="2.01989">
        <ele>120.6</ele>
        <time>2025-11-16T12:58:37Z</time>
        <extensions>
          <gpxtpx:TrackPointExtension xmlns:gpxtpx="http://www.garmin.com/xmlschemas/TrackPointExtension/v1">
            <gpxtpx:hr>107</gpxtpx:hr>
          </gpxtpx:TrackPointExtension>
        </extensions>
      </trkpt>
      <trkpt lat="48.61161" lon="2.01993">
        <ele>120.4</ele>
        <time>2025-11-16T12:58:39Z</time>
        <extensions>
          <gpxtpx:TrackPointExtension xmlns:gpxtpx="http://www.garmin.com/xmlschemas/TrackPointExtension/v1">
            <gpxtpx:hr>107</gpxtpx:hr>
          </gpxtpx:TrackPointExtension>
        </extensions>
      </trkpt>
      <trkpt lat="48.61159" lon="2.01998">
        <ele>120.2</ele>
        <time>2025-11-16T12:58:41Z</time>
        <extensions>
          <gpxtpx:TrackPointExtension xmlns:gpxtpx="http://www.garmin.com/xmlschemas/TrackPointExtension/v1">
            <gpxtpx:hr>107</gpxtpx:hr>
          </gpxtpx:TrackPointExtension>
        </extensions>
      </trkpt>
      <trkpt lat="48.61158" lon="2.02002">
        <ele>120</ele>
        <time>2025-11-16T12:58:43Z</time>
        <extensions>
          <gpxtpx:TrackPointExtension xmlns:gpxtpx="http://www.garmin.com/xmlschemas/TrackPointExtension/v1">
            <gpxtpx:hr>107</gpxtpx:hr>
          </gpxtpx:TrackPointExtension>
        </extensions>
      </trkpt>
      <trkpt lat="48.61157" lon="2.02006">
        <ele>120</ele>
        <time>2025-11-16T12:58:45Z</time>
        <extensions>
          <gpxtpx:TrackPointExtension xmlns:gpxtpx="http://www.garmin.com/xmlschemas/TrackPointExtension/v1">
            <gpxtpx:hr>107</gpxtpx:hr>
          </gpxtpx:TrackPointExtension>
        </extensions>
      </trkpt>
      <trkpt lat="48.61155" lon="2.02011">
        <ele>120</ele>
        <time>2025-11-16T12:58:47Z</time>
        <extensions>
          <gpxtpx:TrackPointExtension xmlns:gpxtpx="http://www.garmin.com/xmlschemas/TrackPointExtension/v1">
            <gpxtpx:hr>108</gpxtpx:hr>
          </gpxtpx:TrackPointExtension>
        </extensions>
      </trkpt>
      <trkpt lat="48.61155" lon="2.02014">
        <ele>120.2</ele>
        <time>2025-11-16T12:58:48Z</time>
        <extensions>
          <gpxtpx:TrackPointExtension xmlns:gpxtpx="http://www.garmin.com/xmlschemas/TrackPointExtension/v1">
            <gpxtpx:hr>108</gpxtpx:hr>
          </gpxtpx:TrackPointExtension>
        </extensions>
      </trkpt>
      <trkpt lat="48.61153" lon="2.02017">
        <ele>120.2</ele>
        <time>2025-11-16T12:58:49Z</time>
        <extensions>
          <gpxtpx:TrackPointExtension xmlns:gpxtpx="http://www.garmin.com/xmlschemas/TrackPointExtension/v1">
            <gpxtpx:hr>109</gpxtpx:hr>
          </gpxtpx:TrackPointExtension>
        </extensions>
      </trkpt>
      <trkpt lat="48.61152" lon="2.0202">
        <ele>120.2</ele>
        <time>2025-11-16T12:58:50Z</time>
        <extensions>
          <gpxtpx:TrackPointExtension xmlns:gpxtpx="http://www.garmin.com/xmlschemas/TrackPointExtension/v1">
            <gpxtpx:hr>109</gpxtpx:hr>
          </gpxtpx:TrackPointExtension>
        </extensions>
      </trkpt>
      <trkpt lat="48.61151" lon="2.02023">
        <ele>120.2</ele>
        <time>2025-11-16T12:58:51Z</time>
        <extensions>
          <gpxtpx:TrackPointExtension xmlns:gpxtpx="http://www.garmin.com/xmlschemas/TrackPointExtension/v1">
            <gpxtpx:hr>109</gpxtpx:hr>
          </gpxtpx:TrackPointExtension>
        </extensions>
      </trkpt>
      <trkpt lat="48.6115" lon="2.02025">
        <ele>120.2</ele>
        <time>2025-11-16T12:58:52Z</time>
        <extensions>
          <gpxtpx:TrackPointExtension xmlns:gpxtpx="http://www.garmin.com/xmlschemas/TrackPointExtension/v1">
            <gpxtpx:hr>109</gpxtpx:hr>
          </gpxtpx:TrackPointExtension>
        </extensions>
      </trkpt>
      <trkpt lat="48.61148" lon="2.02028">
        <ele>120.2</ele>
        <time>2025-11-16T12:58:53Z</time>
        <extensions>
          <gpxtpx:TrackPointExtension xmlns:gpxtpx="http://www.garmin.com/xmlschemas/TrackPointExtension/v1">
            <gpxtpx:hr>109</gpxtpx:hr>
          </gpxtpx:TrackPointExtension>
        </extensions>
      </trkpt>
      <trkpt lat="48.61147" lon="2.0203">
        <ele>120.2</ele>
        <time>2025-11-16T12:58:54Z</time>
        <extensions>
          <gpxtpx:TrackPointExtension xmlns:gpxtpx="http://www.garmin.com/xmlschemas/TrackPointExtension/v1">
            <gpxtpx:hr>108</gpxtpx:hr>
          </gpxtpx:TrackPointExtension>
        </extensions>
      </trkpt>
      <trkpt lat="48.61146" lon="2.02032">
        <ele>120</ele>
        <time>2025-11-16T12:58:55Z</time>
        <extensions>
          <gpxtpx:TrackPointExtension xmlns:gpxtpx="http://www.garmin.com/xmlschemas/TrackPointExtension/v1">
            <gpxtpx:hr>108</gpxtpx:hr>
          </gpxtpx:TrackPointExtension>
        </extensions>
      </trkpt>
      <trkpt lat="48.61145" lon="2.02035">
        <ele>120</ele>
        <time>2025-11-16T12:58:56Z</time>
        <extensions>
          <gpxtpx:TrackPointExtension xmlns:gpxtpx="http://www.garmin.com/xmlschemas/TrackPointExtension/v1">
            <gpxtpx:hr>108</gpxtpx:hr>
          </gpxtpx:TrackPointExtension>
        </extensions>
      </trkpt>
      <trkpt lat="48.61143" lon="2.02037">
        <ele>119.8</ele>
        <time>2025-11-16T12:58:57Z</time>
        <extensions>
          <gpxtpx:TrackPointExtension xmlns:gpxtpx="http://www.garmin.com/xmlschemas/TrackPointExtension/v1">
            <gpxtpx:hr>108</gpxtpx:hr>
          </gpxtpx:TrackPointExtension>
        </extensions>
      </trkpt>
      <trkpt lat="48.61141" lon="2.02041">
        <ele>119.6</ele>
        <time>2025-11-16T12:58:59Z</time>
        <extensions>
          <gpxtpx:TrackPointExtension xmlns:gpxtpx="http://www.garmin.com/xmlschemas/TrackPointExtension/v1">
            <gpxtpx:hr>108</gpxtpx:hr>
          </gpxtpx:TrackPointExtension>
        </extensions>
      </trkpt>
      <trkpt lat="48.6114" lon="2.02045">
        <ele>119.4</ele>
        <time>2025-11-16T12:59:01Z</time>
        <extensions>
          <gpxtpx:TrackPointExtension xmlns:gpxtpx="http://www.garmin.com/xmlschemas/TrackPointExtension/v1">
            <gpxtpx:hr>108</gpxtpx:hr>
          </gpxtpx:TrackPointExtension>
        </extensions>
      </trkpt>
      <trkpt lat="48.61138" lon="2.02049">
        <ele>119.4</ele>
        <time>2025-11-16T12:59:03Z</time>
        <extensions>
          <gpxtpx:TrackPointExtension xmlns:gpxtpx="http://www.garmin.com/xmlschemas/TrackPointExtension/v1">
            <gpxtpx:hr>108</gpxtpx:hr>
          </gpxtpx:TrackPointExtension>
        </extensions>
      </trkpt>
      <trkpt lat="48.61137" lon="2.02053">
        <ele>119</ele>
        <time>2025-11-16T12:59:05Z</time>
        <extensions>
          <gpxtpx:TrackPointExtension xmlns:gpxtpx="http://www.garmin.com/xmlschemas/TrackPointExtension/v1">
            <gpxtpx:hr>108</gpxtpx:hr>
          </gpxtpx:TrackPointExtension>
        </extensions>
      </trkpt>
      <trkpt lat="48.61136" lon="2.02057">
        <ele>119</ele>
        <time>2025-11-16T12:59:07Z</time>
        <extensions>
          <gpxtpx:TrackPointExtension xmlns:gpxtpx="http://www.garmin.com/xmlschemas/TrackPointExtension/v1">
            <gpxtpx:hr>108</gpxtpx:hr>
          </gpxtpx:TrackPointExtension>
        </extensions>
      </trkpt>
      <trkpt lat="48.61135" lon="2.02061">
        <ele>118.8</ele>
        <time>2025-11-16T12:59:09Z</time>
        <extensions>
          <gpxtpx:TrackPointExtension xmlns:gpxtpx="http://www.garmin.com/xmlschemas/TrackPointExtension/v1">
            <gpxtpx:hr>108</gpxtpx:hr>
          </gpxtpx:TrackPointExtension>
        </extensions>
      </trkpt>
      <trkpt lat="48.61133" lon="2.02066">
        <ele>118.8</ele>
        <time>2025-11-16T12:59:12Z</time>
        <extensions>
          <gpxtpx:TrackPointExtension xmlns:gpxtpx="http://www.garmin.com/xmlschemas/TrackPointExtension/v1">
            <gpxtpx:hr>108</gpxtpx:hr>
          </gpxtpx:TrackPointExtension>
        </extensions>
      </trkpt>
      <trkpt lat="48.61132" lon="2.02069">
        <ele>118.6</ele>
        <time>2025-11-16T12:59:15Z</time>
        <extensions>
          <gpxtpx:TrackPointExtension xmlns:gpxtpx="http://www.garmin.com/xmlschemas/TrackPointExtension/v1">
            <gpxtpx:hr>108</gpxtpx:hr>
          </gpxtpx:TrackPointExtension>
        </extensions>
      </trkpt>
      <trkpt lat="48.61131" lon="2.02072">
        <ele>118.4</ele>
        <time>2025-11-16T12:59:25Z</time>
        <extensions>
          <gpxtpx:TrackPointExtension xmlns:gpxtpx="http://www.garmin.com/xmlschemas/TrackPointExtension/v1">
            <gpxtpx:hr>106</gpxtpx:hr>
          </gpxtpx:TrackPointExtension>
        </extensions>
      </trkpt>
      <trkpt lat="48.6113" lon="2.02075">
        <ele>118.6</ele>
        <time>2025-11-16T12:59:27Z</time>
        <extensions>
          <gpxtpx:TrackPointExtension xmlns:gpxtpx="http://www.garmin.com/xmlschemas/TrackPointExtension/v1">
            <gpxtpx:hr>106</gpxtpx:hr>
          </gpxtpx:TrackPointExtension>
        </extensions>
      </trkpt>
      <trkpt lat="48.61129" lon="2.0208">
        <ele>118.6</ele>
        <time>2025-11-16T12:59:29Z</time>
        <extensions>
          <gpxtpx:TrackPointExtension xmlns:gpxtpx="http://www.garmin.com/xmlschemas/TrackPointExtension/v1">
            <gpxtpx:hr>106</gpxtpx:hr>
          </gpxtpx:TrackPointExtension>
        </extensions>
      </trkpt>
      <trkpt lat="48.61129" lon="2.02085">
        <ele>118.6</ele>
        <time>2025-11-16T12:59:31Z</time>
        <extensions>
          <gpxtpx:TrackPointExtension xmlns:gpxtpx="http://www.garmin.com/xmlschemas/TrackPointExtension/v1">
            <gpxtpx:hr>107</gpxtpx:hr>
          </gpxtpx:TrackPointExtension>
        </extensions>
      </trkpt>
      <trkpt lat="48.6113" lon="2.02089">
        <ele>118.4</ele>
        <time>2025-11-16T12:59:33Z</time>
        <extensions>
          <gpxtpx:TrackPointExtension xmlns:gpxtpx="http://www.garmin.com/xmlschemas/TrackPointExtension/v1">
            <gpxtpx:hr>107</gpxtpx:hr>
          </gpxtpx:TrackPointExtension>
        </extensions>
      </trkpt>
      <trkpt lat="48.61131" lon="2.02094">
        <ele>118.4</ele>
        <time>2025-11-16T12:59:35Z</time>
        <extensions>
          <gpxtpx:TrackPointExtension xmlns:gpxtpx="http://www.garmin.com/xmlschemas/TrackPointExtension/v1">
            <gpxtpx:hr>107</gpxtpx:hr>
          </gpxtpx:TrackPointExtension>
        </extensions>
      </trkpt>
      <trkpt lat="48.61133" lon="2.02097">
        <ele>118</ele>
        <time>2025-11-16T12:59:37Z</time>
        <extensions>
          <gpxtpx:TrackPointExtension xmlns:gpxtpx="http://www.garmin.com/xmlschemas/TrackPointExtension/v1">
            <gpxtpx:hr>107</gpxtpx:hr>
          </gpxtpx:TrackPointExtension>
        </extensions>
      </trkpt>
      <trkpt lat="48.61135" lon="2.02101">
        <ele>117.8</ele>
        <time>2025-11-16T12:59:39Z</time>
        <extensions>
          <gpxtpx:TrackPointExtension xmlns:gpxtpx="http://www.garmin.com/xmlschemas/TrackPointExtension/v1">
            <gpxtpx:hr>108</gpxtpx:hr>
          </gpxtpx:TrackPointExtension>
        </extensions>
      </trkpt>
      <trkpt lat="48.61137" lon="2.02104">
        <ele>117.6</ele>
        <time>2025-11-16T12:59:41Z</time>
        <extensions>
          <gpxtpx:TrackPointExtension xmlns:gpxtpx="http://www.garmin.com/xmlschemas/TrackPointExtension/v1">
            <gpxtpx:hr>108</gpxtpx:hr>
          </gpxtpx:TrackPointExtension>
        </extensions>
      </trkpt>
      <trkpt lat="48.61139" lon="2.02108">
        <ele>117.4</ele>
        <time>2025-11-16T12:59:43Z</time>
        <extensions>
          <gpxtpx:TrackPointExtension xmlns:gpxtpx="http://www.garmin.com/xmlschemas/TrackPointExtension/v1">
            <gpxtpx:hr>108</gpxtpx:hr>
          </gpxtpx:TrackPointExtension>
        </extensions>
      </trkpt>
      <trkpt lat="48.61141" lon="2.02111">
        <ele>117</ele>
        <time>2025-11-16T12:59:45Z</time>
        <extensions>
          <gpxtpx:TrackPointExtension xmlns:gpxtpx="http://www.garmin.com/xmlschemas/TrackPointExtension/v1">
            <gpxtpx:hr>108</gpxtpx:hr>
          </gpxtpx:TrackPointExtension>
        </extensions>
      </trkpt>
      <trkpt lat="48.61144" lon="2.02115">
        <ele>116.6</ele>
        <time>2025-11-16T12:59:47Z</time>
        <extensions>
          <gpxtpx:TrackPointExtension xmlns:gpxtpx="http://www.garmin.com/xmlschemas/TrackPointExtension/v1">
            <gpxtpx:hr>108</gpxtpx:hr>
          </gpxtpx:TrackPointExtension>
        </extensions>
      </trkpt>
      <trkpt lat="48.61146" lon="2.02118">
        <ele>116.4</ele>
        <time>2025-11-16T12:59:49Z</time>
        <extensions>
          <gpxtpx:TrackPointExtension xmlns:gpxtpx="http://www.garmin.com/xmlschemas/TrackPointExtension/v1">
            <gpxtpx:hr>108</gpxtpx:hr>
          </gpxtpx:TrackPointExtension>
        </extensions>
      </trkpt>
      <trkpt lat="48.61148" lon="2.02121">
        <ele>116</ele>
        <time>2025-11-16T12:59:51Z</time>
        <extensions>
          <gpxtpx:TrackPointExtension xmlns:gpxtpx="http://www.garmin.com/xmlschemas/TrackPointExtension/v1">
            <gpxtpx:hr>108</gpxtpx:hr>
          </gpxtpx:TrackPointExtension>
        </extensions>
      </trkpt>
      <trkpt lat="48.6115" lon="2.02124">
        <ele>115.8</ele>
        <time>2025-11-16T12:59:53Z</time>
        <extensions>
          <gpxtpx:TrackPointExtension xmlns:gpxtpx="http://www.garmin.com/xmlschemas/TrackPointExtension/v1">
            <gpxtpx:hr>108</gpxtpx:hr>
          </gpxtpx:TrackPointExtension>
        </extensions>
      </trkpt>
      <trkpt lat="48.61152" lon="2.02127">
        <ele>115.6</ele>
        <time>2025-11-16T12:59:55Z</time>
        <extensions>
          <gpxtpx:TrackPointExtension xmlns:gpxtpx="http://www.garmin.com/xmlschemas/TrackPointExtension/v1">
            <gpxtpx:hr>108</gpxtpx:hr>
          </gpxtpx:TrackPointExtension>
        </extensions>
      </trkpt>
      <trkpt lat="48.61154" lon="2.0213">
        <ele>115.2</ele>
        <time>2025-11-16T12:59:57Z</time>
        <extensions>
          <gpxtpx:TrackPointExtension xmlns:gpxtpx="http://www.garmin.com/xmlschemas/TrackPointExtension/v1">
            <gpxtpx:hr>108</gpxtpx:hr>
          </gpxtpx:TrackPointExtension>
        </extensions>
      </trkpt>
      <trkpt lat="48.61156" lon="2.02133">
        <ele>115</ele>
        <time>2025-11-16T12:59:59Z</time>
        <extensions>
          <gpxtpx:TrackPointExtension xmlns:gpxtpx="http://www.garmin.com/xmlschemas/TrackPointExtension/v1">
            <gpxtpx:hr>108</gpxtpx:hr>
          </gpxtpx:TrackPointExtension>
        </extensions>
      </trkpt>
      <trkpt lat="48.61159" lon="2.02136">
        <ele>114.8</ele>
        <time>2025-11-16T13:00:01Z</time>
        <extensions>
          <gpxtpx:TrackPointExtension xmlns:gpxtpx="http://www.garmin.com/xmlschemas/TrackPointExtension/v1">
            <gpxtpx:hr>108</gpxtpx:hr>
          </gpxtpx:TrackPointExtension>
        </extensions>
      </trkpt>
      <trkpt lat="48.61161" lon="2.02139">
        <ele>114.8</ele>
        <time>2025-11-16T13:00:03Z</time>
        <extensions>
          <gpxtpx:TrackPointExtension xmlns:gpxtpx="http://www.garmin.com/xmlschemas/TrackPointExtension/v1">
            <gpxtpx:hr>108</gpxtpx:hr>
          </gpxtpx:TrackPointExtension>
        </extensions>
      </trkpt>
      <trkpt lat="48.61163" lon="2.02143">
        <ele>114.6</ele>
        <time>2025-11-16T13:00:05Z</time>
        <extensions>
          <gpxtpx:TrackPointExtension xmlns:gpxtpx="http://www.garmin.com/xmlschemas/TrackPointExtension/v1">
            <gpxtpx:hr>108</gpxtpx:hr>
          </gpxtpx:TrackPointExtension>
        </extensions>
      </trkpt>
      <trkpt lat="48.61165" lon="2.02147">
        <ele>114.4</ele>
        <time>2025-11-16T13:00:07Z</time>
        <extensions>
          <gpxtpx:TrackPointExtension xmlns:gpxtpx="http://www.garmin.com/xmlschemas/TrackPointExtension/v1">
            <gpxtpx:hr>109</gpxtpx:hr>
          </gpxtpx:TrackPointExtension>
        </extensions>
      </trkpt>
      <trkpt lat="48.61168" lon="2.0215">
        <ele>114.2</ele>
        <time>2025-11-16T13:00:09Z</time>
        <extensions>
          <gpxtpx:TrackPointExtension xmlns:gpxtpx="http://www.garmin.com/xmlschemas/TrackPointExtension/v1">
            <gpxtpx:hr>110</gpxtpx:hr>
          </gpxtpx:TrackPointExtension>
        </extensions>
      </trkpt>
      <trkpt lat="48.61169" lon="2.02153">
        <ele>114.2</ele>
        <time>2025-11-16T13:00:11Z</time>
        <extensions>
          <gpxtpx:TrackPointExtension xmlns:gpxtpx="http://www.garmin.com/xmlschemas/TrackPointExtension/v1">
            <gpxtpx:hr>110</gpxtpx:hr>
          </gpxtpx:TrackPointExtension>
        </extensions>
      </trkpt>
      <trkpt lat="48.61171" lon="2.02156">
        <ele>114</ele>
        <time>2025-11-16T13:00:13Z</time>
        <extensions>
          <gpxtpx:TrackPointExtension xmlns:gpxtpx="http://www.garmin.com/xmlschemas/TrackPointExtension/v1">
            <gpxtpx:hr>112</gpxtpx:hr>
          </gpxtpx:TrackPointExtension>
        </extensions>
      </trkpt>
      <trkpt lat="48.61173" lon="2.02159">
        <ele>113.8</ele>
        <time>2025-11-16T13:00:15Z</time>
        <extensions>
          <gpxtpx:TrackPointExtension xmlns:gpxtpx="http://www.garmin.com/xmlschemas/TrackPointExtension/v1">
            <gpxtpx:hr>114</gpxtpx:hr>
          </gpxtpx:TrackPointExtension>
        </extensions>
      </trkpt>
      <trkpt lat="48.61175" lon="2.02162">
        <ele>113.6</ele>
        <time>2025-11-16T13:00:17Z</time>
        <extensions>
          <gpxtpx:TrackPointExtension xmlns:gpxtpx="http://www.garmin.com/xmlschemas/TrackPointExtension/v1">
            <gpxtpx:hr>115</gpxtpx:hr>
          </gpxtpx:TrackPointExtension>
        </extensions>
      </trkpt>
      <trkpt lat="48.61177" lon="2.02165">
        <ele>113.4</ele>
        <time>2025-11-16T13:00:19Z</time>
        <extensions>
          <gpxtpx:TrackPointExtension xmlns:gpxtpx="http://www.garmin.com/xmlschemas/TrackPointExtension/v1">
            <gpxtpx:hr>116</gpxtpx:hr>
          </gpxtpx:TrackPointExtension>
        </extensions>
      </trkpt>
      <trkpt lat="48.61179" lon="2.02169">
        <ele>113.2</ele>
        <time>2025-11-16T13:00:21Z</time>
        <extensions>
          <gpxtpx:TrackPointExtension xmlns:gpxtpx="http://www.garmin.com/xmlschemas/TrackPointExtension/v1">
            <gpxtpx:hr>115</gpxtpx:hr>
          </gpxtpx:TrackPointExtension>
        </extensions>
      </trkpt>
      <trkpt lat="48.6118" lon="2.02173">
        <ele>113</ele>
        <time>2025-11-16T13:00:23Z</time>
        <extensions>
          <gpxtpx:TrackPointExtension xmlns:gpxtpx="http://www.garmin.com/xmlschemas/TrackPointExtension/v1">
            <gpxtpx:hr>113</gpxtpx:hr>
          </gpxtpx:TrackPointExtension>
        </extensions>
      </trkpt>
      <trkpt lat="48.61181" lon="2.02178">
        <ele>112.8</ele>
        <time>2025-11-16T13:00:25Z</time>
        <extensions>
          <gpxtpx:TrackPointExtension xmlns:gpxtpx="http://www.garmin.com/xmlschemas/TrackPointExtension/v1">
            <gpxtpx:hr>110</gpxtpx:hr>
          </gpxtpx:TrackPointExtension>
        </extensions>
      </trkpt>
      <trkpt lat="48.61182" lon="2.02182">
        <ele>112.8</ele>
        <time>2025-11-16T13:00:27Z</time>
        <extensions>
          <gpxtpx:TrackPointExtension xmlns:gpxtpx="http://www.garmin.com/xmlschemas/TrackPointExtension/v1">
            <gpxtpx:hr>111</gpxtpx:hr>
          </gpxtpx:TrackPointExtension>
        </extensions>
      </trkpt>
      <trkpt lat="48.61184" lon="2.02187">
        <ele>112.6</ele>
        <time>2025-11-16T13:00:29Z</time>
        <extensions>
          <gpxtpx:TrackPointExtension xmlns:gpxtpx="http://www.garmin.com/xmlschemas/TrackPointExtension/v1">
            <gpxtpx:hr>111</gpxtpx:hr>
          </gpxtpx:TrackPointExtension>
        </extensions>
      </trkpt>
      <trkpt lat="48.61185" lon="2.02191">
        <ele>112.6</ele>
        <time>2025-11-16T13:00:31Z</time>
        <extensions>
          <gpxtpx:TrackPointExtension xmlns:gpxtpx="http://www.garmin.com/xmlschemas/TrackPointExtension/v1">
            <gpxtpx:hr>111</gpxtpx:hr>
          </gpxtpx:TrackPointExtension>
        </extensions>
      </trkpt>
      <trkpt lat="48.61186" lon="2.02195">
        <ele>112.6</ele>
        <time>2025-11-16T13:00:33Z</time>
        <extensions>
          <gpxtpx:TrackPointExtension xmlns:gpxtpx="http://www.garmin.com/xmlschemas/TrackPointExtension/v1">
            <gpxtpx:hr>112</gpxtpx:hr>
          </gpxtpx:TrackPointExtension>
        </extensions>
      </trkpt>
      <trkpt lat="48.61188" lon="2.02199">
        <ele>112.6</ele>
        <time>2025-11-16T13:00:35Z</time>
        <extensions>
          <gpxtpx:TrackPointExtension xmlns:gpxtpx="http://www.garmin.com/xmlschemas/TrackPointExtension/v1">
            <gpxtpx:hr>112</gpxtpx:hr>
          </gpxtpx:TrackPointExtension>
        </extensions>
      </trkpt>
      <trkpt lat="48.6119" lon="2.02204">
        <ele>112.4</ele>
        <time>2025-11-16T13:00:37Z</time>
        <extensions>
          <gpxtpx:TrackPointExtension xmlns:gpxtpx="http://www.garmin.com/xmlschemas/TrackPointExtension/v1">
            <gpxtpx:hr>115</gpxtpx:hr>
          </gpxtpx:TrackPointExtension>
        </extensions>
      </trkpt>
      <trkpt lat="48.61191" lon="2.02208">
        <ele>112.4</ele>
        <time>2025-11-16T13:00:39Z</time>
        <extensions>
          <gpxtpx:TrackPointExtension xmlns:gpxtpx="http://www.garmin.com/xmlschemas/TrackPointExtension/v1">
            <gpxtpx:hr>119</gpxtpx:hr>
          </gpxtpx:TrackPointExtension>
        </extensions>
      </trkpt>
      <trkpt lat="48.61192" lon="2.02213">
        <ele>112.4</ele>
        <time>2025-11-16T13:00:41Z</time>
        <extensions>
          <gpxtpx:TrackPointExtension xmlns:gpxtpx="http://www.garmin.com/xmlschemas/TrackPointExtension/v1">
            <gpxtpx:hr>125</gpxtpx:hr>
          </gpxtpx:TrackPointExtension>
        </extensions>
      </trkpt>
      <trkpt lat="48.61192" lon="2.02218">
        <ele>112.4</ele>
        <time>2025-11-16T13:00:43Z</time>
        <extensions>
          <gpxtpx:TrackPointExtension xmlns:gpxtpx="http://www.garmin.com/xmlschemas/TrackPointExtension/v1">
            <gpxtpx:hr>129</gpxtpx:hr>
          </gpxtpx:TrackPointExtension>
        </extensions>
      </trkpt>
      <trkpt lat="48.61194" lon="2.02223">
        <ele>112.4</ele>
        <time>2025-11-16T13:00:45Z</time>
        <extensions>
          <gpxtpx:TrackPointExtension xmlns:gpxtpx="http://www.garmin.com/xmlschemas/TrackPointExtension/v1">
            <gpxtpx:hr>129</gpxtpx:hr>
          </gpxtpx:TrackPointExtension>
        </extensions>
      </trkpt>
      <trkpt lat="48.61196" lon="2.02225">
        <ele>112.6</ele>
        <time>2025-11-16T13:00:46Z</time>
        <extensions>
          <gpxtpx:TrackPointExtension xmlns:gpxtpx="http://www.garmin.com/xmlschemas/TrackPointExtension/v1">
            <gpxtpx:hr>129</gpxtpx:hr>
          </gpxtpx:TrackPointExtension>
        </extensions>
      </trkpt>
      <trkpt lat="48.61198" lon="2.02229">
        <ele>112.8</ele>
        <time>2025-11-16T13:00:48Z</time>
        <extensions>
          <gpxtpx:TrackPointExtension xmlns:gpxtpx="http://www.garmin.com/xmlschemas/TrackPointExtension/v1">
            <gpxtpx:hr>129</gpxtpx:hr>
          </gpxtpx:TrackPointExtension>
        </extensions>
      </trkpt>
      <trkpt lat="48.612" lon="2.02233">
        <ele>112.8</ele>
        <time>2025-11-16T13:00:50Z</time>
        <extensions>
          <gpxtpx:TrackPointExtension xmlns:gpxtpx="http://www.garmin.com/xmlschemas/TrackPointExtension/v1">
            <gpxtpx:hr>129</gpxtpx:hr>
          </gpxtpx:TrackPointExtension>
        </extensions>
      </trkpt>
      <trkpt lat="48.61202" lon="2.02237">
        <ele>113</ele>
        <time>2025-11-16T13:00:52Z</time>
        <extensions>
          <gpxtpx:TrackPointExtension xmlns:gpxtpx="http://www.garmin.com/xmlschemas/TrackPointExtension/v1">
            <gpxtpx:hr>129</gpxtpx:hr>
          </gpxtpx:TrackPointExtension>
        </extensions>
      </trkpt>
      <trkpt lat="48.61204" lon="2.0224">
        <ele>113</ele>
        <time>2025-11-16T13:00:54Z</time>
        <extensions>
          <gpxtpx:TrackPointExtension xmlns:gpxtpx="http://www.garmin.com/xmlschemas/TrackPointExtension/v1">
            <gpxtpx:hr>129</gpxtpx:hr>
          </gpxtpx:TrackPointExtension>
        </extensions>
      </trkpt>
      <trkpt lat="48.61206" lon="2.02244">
        <ele>113.4</ele>
        <time>2025-11-16T13:00:56Z</time>
        <extensions>
          <gpxtpx:TrackPointExtension xmlns:gpxtpx="http://www.garmin.com/xmlschemas/TrackPointExtension/v1">
            <gpxtpx:hr>129</gpxtpx:hr>
          </gpxtpx:TrackPointExtension>
        </extensions>
      </trkpt>
      <trkpt lat="48.61208" lon="2.02249">
        <ele>113.6</ele>
        <time>2025-11-16T13:00:58Z</time>
        <extensions>
          <gpxtpx:TrackPointExtension xmlns:gpxtpx="http://www.garmin.com/xmlschemas/TrackPointExtension/v1">
            <gpxtpx:hr>129</gpxtpx:hr>
          </gpxtpx:TrackPointExtension>
        </extensions>
      </trkpt>
      <trkpt lat="48.6121" lon="2.02253">
        <ele>113.6</ele>
        <time>2025-11-16T13:01:00Z</time>
        <extensions>
          <gpxtpx:TrackPointExtension xmlns:gpxtpx="http://www.garmin.com/xmlschemas/TrackPointExtension/v1">
            <gpxtpx:hr>128</gpxtpx:hr>
          </gpxtpx:TrackPointExtension>
        </extensions>
      </trkpt>
      <trkpt lat="48.61211" lon="2.02257">
        <ele>113.8</ele>
        <time>2025-11-16T13:01:02Z</time>
        <extensions>
          <gpxtpx:TrackPointExtension xmlns:gpxtpx="http://www.garmin.com/xmlschemas/TrackPointExtension/v1">
            <gpxtpx:hr>128</gpxtpx:hr>
          </gpxtpx:TrackPointExtension>
        </extensions>
      </trkpt>
      <trkpt lat="48.61212" lon="2.02261">
        <ele>114</ele>
        <time>2025-11-16T13:01:04Z</time>
        <extensions>
          <gpxtpx:TrackPointExtension xmlns:gpxtpx="http://www.garmin.com/xmlschemas/TrackPointExtension/v1">
            <gpxtpx:hr>127</gpxtpx:hr>
          </gpxtpx:TrackPointExtension>
        </extensions>
      </trkpt>
      <trkpt lat="48.61214" lon="2.02266">
        <ele>114.2</ele>
        <time>2025-11-16T13:01:06Z</time>
        <extensions>
          <gpxtpx:TrackPointExtension xmlns:gpxtpx="http://www.garmin.com/xmlschemas/TrackPointExtension/v1">
            <gpxtpx:hr>127</gpxtpx:hr>
          </gpxtpx:TrackPointExtension>
        </extensions>
      </trkpt>
      <trkpt lat="48.61215" lon="2.02271">
        <ele>114.2</ele>
        <time>2025-11-16T13:01:08Z</time>
        <extensions>
          <gpxtpx:TrackPointExtension xmlns:gpxtpx="http://www.garmin.com/xmlschemas/TrackPointExtension/v1">
            <gpxtpx:hr>126</gpxtpx:hr>
          </gpxtpx:TrackPointExtension>
        </extensions>
      </trkpt>
      <trkpt lat="48.61215" lon="2.02273">
        <ele>114.2</ele>
        <time>2025-11-16T13:01:09Z</time>
        <extensions>
          <gpxtpx:TrackPointExtension xmlns:gpxtpx="http://www.garmin.com/xmlschemas/TrackPointExtension/v1">
            <gpxtpx:hr>126</gpxtpx:hr>
          </gpxtpx:TrackPointExtension>
        </extensions>
      </trkpt>
      <trkpt lat="48.61216" lon="2.02276">
        <ele>114.2</ele>
        <time>2025-11-16T13:01:10Z</time>
        <extensions>
          <gpxtpx:TrackPointExtension xmlns:gpxtpx="http://www.garmin.com/xmlschemas/TrackPointExtension/v1">
            <gpxtpx:hr>126</gpxtpx:hr>
          </gpxtpx:TrackPointExtension>
        </extensions>
      </trkpt>
      <trkpt lat="48.61216" lon="2.02279">
        <ele>114.2</ele>
        <time>2025-11-16T13:01:11Z</time>
        <extensions>
          <gpxtpx:TrackPointExtension xmlns:gpxtpx="http://www.garmin.com/xmlschemas/TrackPointExtension/v1">
            <gpxtpx:hr>126</gpxtpx:hr>
          </gpxtpx:TrackPointExtension>
        </extensions>
      </trkpt>
      <trkpt lat="48.61216" lon="2.02282">
        <ele>114.2</ele>
        <time>2025-11-16T13:01:12Z</time>
        <extensions>
          <gpxtpx:TrackPointExtension xmlns:gpxtpx="http://www.garmin.com/xmlschemas/TrackPointExtension/v1">
            <gpxtpx:hr>126</gpxtpx:hr>
          </gpxtpx:TrackPointExtension>
        </extensions>
      </trkpt>
      <trkpt lat="48.61216" lon="2.02284">
        <ele>114.2</ele>
        <time>2025-11-16T13:01:13Z</time>
        <extensions>
          <gpxtpx:TrackPointExtension xmlns:gpxtpx="http://www.garmin.com/xmlschemas/TrackPointExtension/v1">
            <gpxtpx:hr>125</gpxtpx:hr>
          </gpxtpx:TrackPointExtension>
        </extensions>
      </trkpt>
      <trkpt lat="48.61216" lon="2.02289">
        <ele>114.2</ele>
        <time>2025-11-16T13:01:15Z</time>
        <extensions>
          <gpxtpx:TrackPointExtension xmlns:gpxtpx="http://www.garmin.com/xmlschemas/TrackPointExtension/v1">
            <gpxtpx:hr>125</gpxtpx:hr>
          </gpxtpx:TrackPointExtension>
        </extensions>
      </trkpt>
      <trkpt lat="48.61217" lon="2.02294">
        <ele>114.2</ele>
        <time>2025-11-16T13:01:17Z</time>
        <extensions>
          <gpxtpx:TrackPointExtension xmlns:gpxtpx="http://www.garmin.com/xmlschemas/TrackPointExtension/v1">
            <gpxtpx:hr>123</gpxtpx:hr>
          </gpxtpx:TrackPointExtension>
        </extensions>
      </trkpt>
      <trkpt lat="48.61217" lon="2.02299">
        <ele>114.4</ele>
        <time>2025-11-16T13:01:19Z</time>
        <extensions>
          <gpxtpx:TrackPointExtension xmlns:gpxtpx="http://www.garmin.com/xmlschemas/TrackPointExtension/v1">
            <gpxtpx:hr>121</gpxtpx:hr>
          </gpxtpx:TrackPointExtension>
        </extensions>
      </trkpt>
      <trkpt lat="48.61218" lon="2.02304">
        <ele>114.6</ele>
        <time>2025-11-16T13:01:21Z</time>
        <extensions>
          <gpxtpx:TrackPointExtension xmlns:gpxtpx="http://www.garmin.com/xmlschemas/TrackPointExtension/v1">
            <gpxtpx:hr>121</gpxtpx:hr>
          </gpxtpx:TrackPointExtension>
        </extensions>
      </trkpt>
      <trkpt lat="48.61219" lon="2.02308">
        <ele>114.8</ele>
        <time>2025-11-16T13:01:23Z</time>
        <extensions>
          <gpxtpx:TrackPointExtension xmlns:gpxtpx="http://www.garmin.com/xmlschemas/TrackPointExtension/v1">
            <gpxtpx:hr>121</gpxtpx:hr>
          </gpxtpx:TrackPointExtension>
        </extensions>
      </trkpt>
      <trkpt lat="48.6122" lon="2.02311">
        <ele>114.8</ele>
        <time>2025-11-16T13:01:24Z</time>
        <extensions>
          <gpxtpx:TrackPointExtension xmlns:gpxtpx="http://www.garmin.com/xmlschemas/TrackPointExtension/v1">
            <gpxtpx:hr>121</gpxtpx:hr>
          </gpxtpx:TrackPointExtension>
        </extensions>
      </trkpt>
      <trkpt lat="48.6122" lon="2.02316">
        <ele>114.8</ele>
        <time>2025-11-16T13:01:26Z</time>
        <extensions>
          <gpxtpx:TrackPointExtension xmlns:gpxtpx="http://www.garmin.com/xmlschemas/TrackPointExtension/v1">
            <gpxtpx:hr>121</gpxtpx:hr>
          </gpxtpx:TrackPointExtension>
        </extensions>
      </trkpt>
      <trkpt lat="48.61221" lon="2.0232">
        <ele>114.8</ele>
        <time>2025-11-16T13:01:28Z</time>
        <extensions>
          <gpxtpx:TrackPointExtension xmlns:gpxtpx="http://www.garmin.com/xmlschemas/TrackPointExtension/v1">
            <gpxtpx:hr>121</gpxtpx:hr>
          </gpxtpx:TrackPointExtension>
        </extensions>
      </trkpt>
      <trkpt lat="48.61222" lon="2.02325">
        <ele>115</ele>
        <time>2025-11-16T13:01:30Z</time>
        <extensions>
          <gpxtpx:TrackPointExtension xmlns:gpxtpx="http://www.garmin.com/xmlschemas/TrackPointExtension/v1">
            <gpxtpx:hr>120</gpxtpx:hr>
          </gpxtpx:TrackPointExtension>
        </extensions>
      </trkpt>
      <trkpt lat="48.61222" lon="2.0233">
        <ele>115</ele>
        <time>2025-11-16T13:01:32Z</time>
        <extensions>
          <gpxtpx:TrackPointExtension xmlns:gpxtpx="http://www.garmin.com/xmlschemas/TrackPointExtension/v1">
            <gpxtpx:hr>120</gpxtpx:hr>
          </gpxtpx:TrackPointExtension>
        </extensions>
      </trkpt>
      <trkpt lat="48.61222" lon="2.02334">
        <ele>115</ele>
        <time>2025-11-16T13:01:34Z</time>
        <extensions>
          <gpxtpx:TrackPointExtension xmlns:gpxtpx="http://www.garmin.com/xmlschemas/TrackPointExtension/v1">
            <gpxtpx:hr>120</gpxtpx:hr>
          </gpxtpx:TrackPointExtension>
        </extensions>
      </trkpt>
      <trkpt lat="48.61223" lon="2.02338">
        <ele>115</ele>
        <time>2025-11-16T13:01:36Z</time>
        <extensions>
          <gpxtpx:TrackPointExtension xmlns:gpxtpx="http://www.garmin.com/xmlschemas/TrackPointExtension/v1">
            <gpxtpx:hr>120</gpxtpx:hr>
          </gpxtpx:TrackPointExtension>
        </extensions>
      </trkpt>
      <trkpt lat="48.61222" lon="2.02343">
        <ele>114.8</ele>
        <time>2025-11-16T13:01:38Z</time>
        <extensions>
          <gpxtpx:TrackPointExtension xmlns:gpxtpx="http://www.garmin.com/xmlschemas/TrackPointExtension/v1">
            <gpxtpx:hr>120</gpxtpx:hr>
          </gpxtpx:TrackPointExtension>
        </extensions>
      </trkpt>
      <trkpt lat="48.61222" lon="2.02347">
        <ele>114.6</ele>
        <time>2025-11-16T13:01:40Z</time>
        <extensions>
          <gpxtpx:TrackPointExtension xmlns:gpxtpx="http://www.garmin.com/xmlschemas/TrackPointExtension/v1">
            <gpxtpx:hr>120</gpxtpx:hr>
          </gpxtpx:TrackPointExtension>
        </extensions>
      </trkpt>
      <trkpt lat="48.61221" lon="2.02352">
        <ele>114.6</ele>
        <time>2025-11-16T13:01:42Z</time>
        <extensions>
          <gpxtpx:TrackPointExtension xmlns:gpxtpx="http://www.garmin.com/xmlschemas/TrackPointExtension/v1">
            <gpxtpx:hr>120</gpxtpx:hr>
          </gpxtpx:TrackPointExtension>
        </extensions>
      </trkpt>
      <trkpt lat="48.6122" lon="2.02356">
        <ele>114.6</ele>
        <time>2025-11-16T13:01:44Z</time>
        <extensions>
          <gpxtpx:TrackPointExtension xmlns:gpxtpx="http://www.garmin.com/xmlschemas/TrackPointExtension/v1">
            <gpxtpx:hr>120</gpxtpx:hr>
          </gpxtpx:TrackPointExtension>
        </extensions>
      </trkpt>
      <trkpt lat="48.61219" lon="2.02361">
        <ele>114.6</ele>
        <time>2025-11-16T13:01:46Z</time>
        <extensions>
          <gpxtpx:TrackPointExtension xmlns:gpxtpx="http://www.garmin.com/xmlschemas/TrackPointExtension/v1">
            <gpxtpx:hr>119</gpxtpx:hr>
          </gpxtpx:TrackPointExtension>
        </extensions>
      </trkpt>
      <trkpt lat="48.61218" lon="2.02365">
        <ele>114.8</ele>
        <time>2025-11-16T13:01:48Z</time>
        <extensions>
          <gpxtpx:TrackPointExtension xmlns:gpxtpx="http://www.garmin.com/xmlschemas/TrackPointExtension/v1">
            <gpxtpx:hr>119</gpxtpx:hr>
          </gpxtpx:TrackPointExtension>
        </extensions>
      </trkpt>
      <trkpt lat="48.61217" lon="2.0237">
        <ele>114.8</ele>
        <time>2025-11-16T13:01:50Z</time>
        <extensions>
          <gpxtpx:TrackPointExtension xmlns:gpxtpx="http://www.garmin.com/xmlschemas/TrackPointExtension/v1">
            <gpxtpx:hr>119</gpxtpx:hr>
          </gpxtpx:TrackPointExtension>
        </extensions>
      </trkpt>
      <trkpt lat="48.61217" lon="2.02374">
        <ele>114.8</ele>
        <time>2025-11-16T13:01:52Z</time>
        <extensions>
          <gpxtpx:TrackPointExtension xmlns:gpxtpx="http://www.garmin.com/xmlschemas/TrackPointExtension/v1">
            <gpxtpx:hr>118</gpxtpx:hr>
          </gpxtpx:TrackPointExtension>
        </extensions>
      </trkpt>
      <trkpt lat="48.61218" lon="2.02379">
        <ele>114.8</ele>
        <time>2025-11-16T13:01:54Z</time>
        <extensions>
          <gpxtpx:TrackPointExtension xmlns:gpxtpx="http://www.garmin.com/xmlschemas/TrackPointExtension/v1">
            <gpxtpx:hr>118</gpxtpx:hr>
          </gpxtpx:TrackPointExtension>
        </extensions>
      </trkpt>
      <trkpt lat="48.61218" lon="2.02384">
        <ele>114.8</ele>
        <time>2025-11-16T13:01:56Z</time>
        <extensions>
          <gpxtpx:TrackPointExtension xmlns:gpxtpx="http://www.garmin.com/xmlschemas/TrackPointExtension/v1">
            <gpxtpx:hr>118</gpxtpx:hr>
          </gpxtpx:TrackPointExtension>
        </extensions>
      </trkpt>
      <trkpt lat="48.61219" lon="2.02389">
        <ele>114.8</ele>
        <time>2025-11-16T13:01:58Z</time>
        <extensions>
          <gpxtpx:TrackPointExtension xmlns:gpxtpx="http://www.garmin.com/xmlschemas/TrackPointExtension/v1">
            <gpxtpx:hr>118</gpxtpx:hr>
          </gpxtpx:TrackPointExtension>
        </extensions>
      </trkpt>
      <trkpt lat="48.6122" lon="2.02391">
        <ele>114.8</ele>
        <time>2025-11-16T13:01:59Z</time>
        <extensions>
          <gpxtpx:TrackPointExtension xmlns:gpxtpx="http://www.garmin.com/xmlschemas/TrackPointExtension/v1">
            <gpxtpx:hr>118</gpxtpx:hr>
          </gpxtpx:TrackPointExtension>
        </extensions>
      </trkpt>
      <trkpt lat="48.6122" lon="2.02396">
        <ele>114.8</ele>
        <time>2025-11-16T13:02:01Z</time>
        <extensions>
          <gpxtpx:TrackPointExtension xmlns:gpxtpx="http://www.garmin.com/xmlschemas/TrackPointExtension/v1">
            <gpxtpx:hr>118</gpxtpx:hr>
          </gpxtpx:TrackPointExtension>
        </extensions>
      </trkpt>
      <trkpt lat="48.6122" lon="2.02401">
        <ele>114.8</ele>
        <time>2025-11-16T13:02:03Z</time>
        <extensions>
          <gpxtpx:TrackPointExtension xmlns:gpxtpx="http://www.garmin.com/xmlschemas/TrackPointExtension/v1">
            <gpxtpx:hr>118</gpxtpx:hr>
          </gpxtpx:TrackPointExtension>
        </extensions>
      </trkpt>
      <trkpt lat="48.6122" lon="2.02407">
        <ele>114.8</ele>
        <time>2025-11-16T13:02:05Z</time>
        <extensions>
          <gpxtpx:TrackPointExtension xmlns:gpxtpx="http://www.garmin.com/xmlschemas/TrackPointExtension/v1">
            <gpxtpx:hr>118</gpxtpx:hr>
          </gpxtpx:TrackPointExtension>
        </extensions>
      </trkpt>
      <trkpt lat="48.6122" lon="2.02409">
        <ele>114.8</ele>
        <time>2025-11-16T13:02:06Z</time>
        <extensions>
          <gpxtpx:TrackPointExtension xmlns:gpxtpx="http://www.garmin.com/xmlschemas/TrackPointExtension/v1">
            <gpxtpx:hr>118</gpxtpx:hr>
          </gpxtpx:TrackPointExtension>
        </extensions>
      </trkpt>
      <trkpt lat="48.6122" lon="2.02412">
        <ele>114.8</ele>
        <time>2025-11-16T13:02:07Z</time>
        <extensions>
          <gpxtpx:TrackPointExtension xmlns:gpxtpx="http://www.garmin.com/xmlschemas/TrackPointExtension/v1">
            <gpxtpx:hr>118</gpxtpx:hr>
          </gpxtpx:TrackPointExtension>
        </extensions>
      </trkpt>
      <trkpt lat="48.6122" lon="2.02415">
        <ele>114.8</ele>
        <time>2025-11-16T13:02:08Z</time>
        <extensions>
          <gpxtpx:TrackPointExtension xmlns:gpxtpx="http://www.garmin.com/xmlschemas/TrackPointExtension/v1">
            <gpxtpx:hr>118</gpxtpx:hr>
          </gpxtpx:TrackPointExtension>
        </extensions>
      </trkpt>
      <trkpt lat="48.6122" lon="2.02418">
        <ele>114.8</ele>
        <time>2025-11-16T13:02:09Z</time>
        <extensions>
          <gpxtpx:TrackPointExtension xmlns:gpxtpx="http://www.garmin.com/xmlschemas/TrackPointExtension/v1">
            <gpxtpx:hr>119</gpxtpx:hr>
          </gpxtpx:TrackPointExtension>
        </extensions>
      </trkpt>
      <trkpt lat="48.6122" lon="2.0242">
        <ele>115</ele>
        <time>2025-11-16T13:02:10Z</time>
        <extensions>
          <gpxtpx:TrackPointExtension xmlns:gpxtpx="http://www.garmin.com/xmlschemas/TrackPointExtension/v1">
            <gpxtpx:hr>119</gpxtpx:hr>
          </gpxtpx:TrackPointExtension>
        </extensions>
      </trkpt>
      <trkpt lat="48.6122" lon="2.02423">
        <ele>115</ele>
        <time>2025-11-16T13:02:11Z</time>
        <extensions>
          <gpxtpx:TrackPointExtension xmlns:gpxtpx="http://www.garmin.com/xmlschemas/TrackPointExtension/v1">
            <gpxtpx:hr>119</gpxtpx:hr>
          </gpxtpx:TrackPointExtension>
        </extensions>
      </trkpt>
      <trkpt lat="48.6122" lon="2.02428">
        <ele>115</ele>
        <time>2025-11-16T13:02:13Z</time>
        <extensions>
          <gpxtpx:TrackPointExtension xmlns:gpxtpx="http://www.garmin.com/xmlschemas/TrackPointExtension/v1">
            <gpxtpx:hr>119</gpxtpx:hr>
          </gpxtpx:TrackPointExtension>
        </extensions>
      </trkpt>
      <trkpt lat="48.6122" lon="2.02433">
        <ele>115</ele>
        <time>2025-11-16T13:02:15Z</time>
        <extensions>
          <gpxtpx:TrackPointExtension xmlns:gpxtpx="http://www.garmin.com/xmlschemas/TrackPointExtension/v1">
            <gpxtpx:hr>119</gpxtpx:hr>
          </gpxtpx:TrackPointExtension>
        </extensions>
      </trkpt>
      <trkpt lat="48.61219" lon="2.02438">
        <ele>115</ele>
        <time>2025-11-16T13:02:17Z</time>
        <extensions>
          <gpxtpx:TrackPointExtension xmlns:gpxtpx="http://www.garmin.com/xmlschemas/TrackPointExtension/v1">
            <gpxtpx:hr>119</gpxtpx:hr>
          </gpxtpx:TrackPointExtension>
        </extensions>
      </trkpt>
      <trkpt lat="48.61219" lon="2.02442">
        <ele>114.8</ele>
        <time>2025-11-16T13:02:19Z</time>
        <extensions>
          <gpxtpx:TrackPointExtension xmlns:gpxtpx="http://www.garmin.com/xmlschemas/TrackPointExtension/v1">
            <gpxtpx:hr>119</gpxtpx:hr>
          </gpxtpx:TrackPointExtension>
        </extensions>
      </trkpt>
      <trkpt lat="48.61219" lon="2.02447">
        <ele>114.8</ele>
        <time>2025-11-16T13:02:21Z</time>
        <extensions>
          <gpxtpx:TrackPointExtension xmlns:gpxtpx="http://www.garmin.com/xmlschemas/TrackPointExtension/v1">
            <gpxtpx:hr>119</gpxtpx:hr>
          </gpxtpx:TrackPointExtension>
        </extensions>
      </trkpt>
      <trkpt lat="48.61218" lon="2.02452">
        <ele>114.6</ele>
        <time>2025-11-16T13:02:23Z</time>
        <extensions>
          <gpxtpx:TrackPointExtension xmlns:gpxtpx="http://www.garmin.com/xmlschemas/TrackPointExtension/v1">
            <gpxtpx:hr>119</gpxtpx:hr>
          </gpxtpx:TrackPointExtension>
        </extensions>
      </trkpt>
      <trkpt lat="48.61218" lon="2.02457">
        <ele>114.4</ele>
        <time>2025-11-16T13:02:25Z</time>
        <extensions>
          <gpxtpx:TrackPointExtension xmlns:gpxtpx="http://www.garmin.com/xmlschemas/TrackPointExtension/v1">
            <gpxtpx:hr>119</gpxtpx:hr>
          </gpxtpx:TrackPointExtension>
        </extensions>
      </trkpt>
      <trkpt lat="48.61217" lon="2.02461">
        <ele>114.2</ele>
        <time>2025-11-16T13:02:27Z</time>
        <extensions>
          <gpxtpx:TrackPointExtension xmlns:gpxtpx="http://www.garmin.com/xmlschemas/TrackPointExtension/v1">
            <gpxtpx:hr>119</gpxtpx:hr>
          </gpxtpx:TrackPointExtension>
        </extensions>
      </trkpt>
      <trkpt lat="48.61216" lon="2.02466">
        <ele>114</ele>
        <time>2025-11-16T13:02:29Z</time>
        <extensions>
          <gpxtpx:TrackPointExtension xmlns:gpxtpx="http://www.garmin.com/xmlschemas/TrackPointExtension/v1">
            <gpxtpx:hr>118</gpxtpx:hr>
          </gpxtpx:TrackPointExtension>
        </extensions>
      </trkpt>
      <trkpt lat="48.61216" lon="2.02471">
        <ele>113.8</ele>
        <time>2025-11-16T13:02:31Z</time>
        <extensions>
          <gpxtpx:TrackPointExtension xmlns:gpxtpx="http://www.garmin.com/xmlschemas/TrackPointExtension/v1">
            <gpxtpx:hr>118</gpxtpx:hr>
          </gpxtpx:TrackPointExtension>
        </extensions>
      </trkpt>
      <trkpt lat="48.61216" lon="2.02475">
        <ele>113.6</ele>
        <time>2025-11-16T13:02:33Z</time>
        <extensions>
          <gpxtpx:TrackPointExtension xmlns:gpxtpx="http://www.garmin.com/xmlschemas/TrackPointExtension/v1">
            <gpxtpx:hr>117</gpxtpx:hr>
          </gpxtpx:TrackPointExtension>
        </extensions>
      </trkpt>
      <trkpt lat="48.61215" lon="2.02479">
        <ele>113.4</ele>
        <time>2025-11-16T13:02:35Z</time>
        <extensions>
          <gpxtpx:TrackPointExtension xmlns:gpxtpx="http://www.garmin.com/xmlschemas/TrackPointExtension/v1">
            <gpxtpx:hr>116</gpxtpx:hr>
          </gpxtpx:TrackPointExtension>
        </extensions>
      </trkpt>
      <trkpt lat="48.61214" lon="2.02484">
        <ele>113.4</ele>
        <time>2025-11-16T13:02:37Z</time>
        <extensions>
          <gpxtpx:TrackPointExtension xmlns:gpxtpx="http://www.garmin.com/xmlschemas/TrackPointExtension/v1">
            <gpxtpx:hr>114</gpxtpx:hr>
          </gpxtpx:TrackPointExtension>
        </extensions>
      </trkpt>
      <trkpt lat="48.61214" lon="2.02489">
        <ele>113.2</ele>
        <time>2025-11-16T13:02:39Z</time>
        <extensions>
          <gpxtpx:TrackPointExtension xmlns:gpxtpx="http://www.garmin.com/xmlschemas/TrackPointExtension/v1">
            <gpxtpx:hr>112</gpxtpx:hr>
          </gpxtpx:TrackPointExtension>
        </extensions>
      </trkpt>
      <trkpt lat="48.61214" lon="2.02493">
        <ele>113.2</ele>
        <time>2025-11-16T13:02:41Z</time>
        <extensions>
          <gpxtpx:TrackPointExtension xmlns:gpxtpx="http://www.garmin.com/xmlschemas/TrackPointExtension/v1">
            <gpxtpx:hr>112</gpxtpx:hr>
          </gpxtpx:TrackPointExtension>
        </extensions>
      </trkpt>
      <trkpt lat="48.61213" lon="2.02498">
        <ele>113</ele>
        <time>2025-11-16T13:02:43Z</time>
        <extensions>
          <gpxtpx:TrackPointExtension xmlns:gpxtpx="http://www.garmin.com/xmlschemas/TrackPointExtension/v1">
            <gpxtpx:hr>111</gpxtpx:hr>
          </gpxtpx:TrackPointExtension>
        </extensions>
      </trkpt>
      <trkpt lat="48.61213" lon="2.02503">
        <ele>112.8</ele>
        <time>2025-11-16T13:02:45Z</time>
        <extensions>
          <gpxtpx:TrackPointExtension xmlns:gpxtpx="http://www.garmin.com/xmlschemas/TrackPointExtension/v1">
            <gpxtpx:hr>111</gpxtpx:hr>
          </gpxtpx:TrackPointExtension>
        </extensions>
      </trkpt>
      <trkpt lat="48.61212" lon="2.02508">
        <ele>112.6</ele>
        <time>2025-11-16T13:02:47Z</time>
        <extensions>
          <gpxtpx:TrackPointExtension xmlns:gpxtpx="http://www.garmin.com/xmlschemas/TrackPointExtension/v1">
            <gpxtpx:hr>111</gpxtpx:hr>
          </gpxtpx:TrackPointExtension>
        </extensions>
      </trkpt>
      <trkpt lat="48.61212" lon="2.02513">
        <ele>112.6</ele>
        <time>2025-11-16T13:02:49Z</time>
        <extensions>
          <gpxtpx:TrackPointExtension xmlns:gpxtpx="http://www.garmin.com/xmlschemas/TrackPointExtension/v1">
            <gpxtpx:hr>111</gpxtpx:hr>
          </gpxtpx:TrackPointExtension>
        </extensions>
      </trkpt>
      <trkpt lat="48.61212" lon="2.02517">
        <ele>112.6</ele>
        <time>2025-11-16T13:02:51Z</time>
        <extensions>
          <gpxtpx:TrackPointExtension xmlns:gpxtpx="http://www.garmin.com/xmlschemas/TrackPointExtension/v1">
            <gpxtpx:hr>111</gpxtpx:hr>
          </gpxtpx:TrackPointExtension>
        </extensions>
      </trkpt>
      <trkpt lat="48.61212" lon="2.02522">
        <ele>112.6</ele>
        <time>2025-11-16T13:02:53Z</time>
        <extensions>
          <gpxtpx:TrackPointExtension xmlns:gpxtpx="http://www.garmin.com/xmlschemas/TrackPointExtension/v1">
            <gpxtpx:hr>111</gpxtpx:hr>
          </gpxtpx:TrackPointExtension>
        </extensions>
      </trkpt>
      <trkpt lat="48.61212" lon="2.02527">
        <ele>112.6</ele>
        <time>2025-11-16T13:02:55Z</time>
        <extensions>
          <gpxtpx:TrackPointExtension xmlns:gpxtpx="http://www.garmin.com/xmlschemas/TrackPointExtension/v1">
            <gpxtpx:hr>111</gpxtpx:hr>
          </gpxtpx:TrackPointExtension>
        </extensions>
      </trkpt>
      <trkpt lat="48.61212" lon="2.02531">
        <ele>112.4</ele>
        <time>2025-11-16T13:02:57Z</time>
        <extensions>
          <gpxtpx:TrackPointExtension xmlns:gpxtpx="http://www.garmin.com/xmlschemas/TrackPointExtension/v1">
            <gpxtpx:hr>111</gpxtpx:hr>
          </gpxtpx:TrackPointExtension>
        </extensions>
      </trkpt>
      <trkpt lat="48.61212" lon="2.02536">
        <ele>112.4</ele>
        <time>2025-11-16T13:02:59Z</time>
        <extensions>
          <gpxtpx:TrackPointExtension xmlns:gpxtpx="http://www.garmin.com/xmlschemas/TrackPointExtension/v1">
            <gpxtpx:hr>111</gpxtpx:hr>
          </gpxtpx:TrackPointExtension>
        </extensions>
      </trkpt>
      <trkpt lat="48.61212" lon="2.02541">
        <ele>112.2</ele>
        <time>2025-11-16T13:03:01Z</time>
        <extensions>
          <gpxtpx:TrackPointExtension xmlns:gpxtpx="http://www.garmin.com/xmlschemas/TrackPointExtension/v1">
            <gpxtpx:hr>109</gpxtpx:hr>
          </gpxtpx:TrackPointExtension>
        </extensions>
      </trkpt>
      <trkpt lat="48.61212" lon="2.02546">
        <ele>112.2</ele>
        <time>2025-11-16T13:03:03Z</time>
        <extensions>
          <gpxtpx:TrackPointExtension xmlns:gpxtpx="http://www.garmin.com/xmlschemas/TrackPointExtension/v1">
            <gpxtpx:hr>108</gpxtpx:hr>
          </gpxtpx:TrackPointExtension>
        </extensions>
      </trkpt>
      <trkpt lat="48.61212" lon="2.02551">
        <ele>112</ele>
        <time>2025-11-16T13:03:05Z</time>
        <extensions>
          <gpxtpx:TrackPointExtension xmlns:gpxtpx="http://www.garmin.com/xmlschemas/TrackPointExtension/v1">
            <gpxtpx:hr>108</gpxtpx:hr>
          </gpxtpx:TrackPointExtension>
        </extensions>
      </trkpt>
      <trkpt lat="48.61212" lon="2.02556">
        <ele>112.2</ele>
        <time>2025-11-16T13:03:07Z</time>
        <extensions>
          <gpxtpx:TrackPointExtension xmlns:gpxtpx="http://www.garmin.com/xmlschemas/TrackPointExtension/v1">
            <gpxtpx:hr>108</gpxtpx:hr>
          </gpxtpx:TrackPointExtension>
        </extensions>
      </trkpt>
      <trkpt lat="48.61212" lon="2.0256">
        <ele>112.2</ele>
        <time>2025-11-16T13:03:09Z</time>
        <extensions>
          <gpxtpx:TrackPointExtension xmlns:gpxtpx="http://www.garmin.com/xmlschemas/TrackPointExtension/v1">
            <gpxtpx:hr>107</gpxtpx:hr>
          </gpxtpx:TrackPointExtension>
        </extensions>
      </trkpt>
      <trkpt lat="48.61211" lon="2.02565">
        <ele>112</ele>
        <time>2025-11-16T13:03:11Z</time>
        <extensions>
          <gpxtpx:TrackPointExtension xmlns:gpxtpx="http://www.garmin.com/xmlschemas/TrackPointExtension/v1">
            <gpxtpx:hr>105</gpxtpx:hr>
          </gpxtpx:TrackPointExtension>
        </extensions>
      </trkpt>
      <trkpt lat="48.6121" lon="2.02571">
        <ele>112</ele>
        <time>2025-11-16T13:03:13Z</time>
        <extensions>
          <gpxtpx:TrackPointExtension xmlns:gpxtpx="http://www.garmin.com/xmlschemas/TrackPointExtension/v1">
            <gpxtpx:hr>105</gpxtpx:hr>
          </gpxtpx:TrackPointExtension>
        </extensions>
      </trkpt>
      <trkpt lat="48.6121" lon="2.02576">
        <ele>112</ele>
        <time>2025-11-16T13:03:15Z</time>
        <extensions>
          <gpxtpx:TrackPointExtension xmlns:gpxtpx="http://www.garmin.com/xmlschemas/TrackPointExtension/v1">
            <gpxtpx:hr>105</gpxtpx:hr>
          </gpxtpx:TrackPointExtension>
        </extensions>
      </trkpt>
      <trkpt lat="48.6121" lon="2.02581">
        <ele>112</ele>
        <time>2025-11-16T13:03:17Z</time>
        <extensions>
          <gpxtpx:TrackPointExtension xmlns:gpxtpx="http://www.garmin.com/xmlschemas/TrackPointExtension/v1">
            <gpxtpx:hr>105</gpxtpx:hr>
          </gpxtpx:TrackPointExtension>
        </extensions>
      </trkpt>
      <trkpt lat="48.61209" lon="2.02584">
        <ele>111.8</ele>
        <time>2025-11-16T13:03:18Z</time>
        <extensions>
          <gpxtpx:TrackPointExtension xmlns:gpxtpx="http://www.garmin.com/xmlschemas/TrackPointExtension/v1">
            <gpxtpx:hr>105</gpxtpx:hr>
          </gpxtpx:TrackPointExtension>
        </extensions>
      </trkpt>
      <trkpt lat="48.61209" lon="2.02586">
        <ele>111.8</ele>
        <time>2025-11-16T13:03:19Z</time>
        <extensions>
          <gpxtpx:TrackPointExtension xmlns:gpxtpx="http://www.garmin.com/xmlschemas/TrackPointExtension/v1">
            <gpxtpx:hr>106</gpxtpx:hr>
          </gpxtpx:TrackPointExtension>
        </extensions>
      </trkpt>
      <trkpt lat="48.61209" lon="2.02589">
        <ele>111.8</ele>
        <time>2025-11-16T13:03:20Z</time>
        <extensions>
          <gpxtpx:TrackPointExtension xmlns:gpxtpx="http://www.garmin.com/xmlschemas/TrackPointExtension/v1">
            <gpxtpx:hr>106</gpxtpx:hr>
          </gpxtpx:TrackPointExtension>
        </extensions>
      </trkpt>
      <trkpt lat="48.61209" lon="2.02592">
        <ele>111.8</ele>
        <time>2025-11-16T13:03:21Z</time>
        <extensions>
          <gpxtpx:TrackPointExtension xmlns:gpxtpx="http://www.garmin.com/xmlschemas/TrackPointExtension/v1">
            <gpxtpx:hr>106</gpxtpx:hr>
          </gpxtpx:TrackPointExtension>
        </extensions>
      </trkpt>
      <trkpt lat="48.61209" lon="2.02595">
        <ele>111.8</ele>
        <time>2025-11-16T13:03:22Z</time>
        <extensions>
          <gpxtpx:TrackPointExtension xmlns:gpxtpx="http://www.garmin.com/xmlschemas/TrackPointExtension/v1">
            <gpxtpx:hr>106</gpxtpx:hr>
          </gpxtpx:TrackPointExtension>
        </extensions>
      </trkpt>
      <trkpt lat="48.61209" lon="2.026">
        <ele>111.6</ele>
        <time>2025-11-16T13:03:24Z</time>
        <extensions>
          <gpxtpx:TrackPointExtension xmlns:gpxtpx="http://www.garmin.com/xmlschemas/TrackPointExtension/v1">
            <gpxtpx:hr>107</gpxtpx:hr>
          </gpxtpx:TrackPointExtension>
        </extensions>
      </trkpt>
      <trkpt lat="48.61209" lon="2.02605">
        <ele>111.6</ele>
        <time>2025-11-16T13:03:26Z</time>
        <extensions>
          <gpxtpx:TrackPointExtension xmlns:gpxtpx="http://www.garmin.com/xmlschemas/TrackPointExtension/v1">
            <gpxtpx:hr>107</gpxtpx:hr>
          </gpxtpx:TrackPointExtension>
        </extensions>
      </trkpt>
      <trkpt lat="48.61209" lon="2.0261">
        <ele>111.8</ele>
        <time>2025-11-16T13:03:28Z</time>
        <extensions>
          <gpxtpx:TrackPointExtension xmlns:gpxtpx="http://www.garmin.com/xmlschemas/TrackPointExtension/v1">
            <gpxtpx:hr>107</gpxtpx:hr>
          </gpxtpx:TrackPointExtension>
        </extensions>
      </trkpt>
      <trkpt lat="48.6121" lon="2.02615">
        <ele>111.8</ele>
        <time>2025-11-16T13:03:30Z</time>
        <extensions>
          <gpxtpx:TrackPointExtension xmlns:gpxtpx="http://www.garmin.com/xmlschemas/TrackPointExtension/v1">
            <gpxtpx:hr>107</gpxtpx:hr>
          </gpxtpx:TrackPointExtension>
        </extensions>
      </trkpt>
      <trkpt lat="48.6121" lon="2.0262">
        <ele>111.8</ele>
        <time>2025-11-16T13:03:32Z</time>
        <extensions>
          <gpxtpx:TrackPointExtension xmlns:gpxtpx="http://www.garmin.com/xmlschemas/TrackPointExtension/v1">
            <gpxtpx:hr>106</gpxtpx:hr>
          </gpxtpx:TrackPointExtension>
        </extensions>
      </trkpt>
      <trkpt lat="48.6121" lon="2.02625">
        <ele>111.8</ele>
        <time>2025-11-16T13:03:34Z</time>
        <extensions>
          <gpxtpx:TrackPointExtension xmlns:gpxtpx="http://www.garmin.com/xmlschemas/TrackPointExtension/v1">
            <gpxtpx:hr>106</gpxtpx:hr>
          </gpxtpx:TrackPointExtension>
        </extensions>
      </trkpt>
      <trkpt lat="48.6121" lon="2.0263">
        <ele>111.8</ele>
        <time>2025-11-16T13:03:36Z</time>
        <extensions>
          <gpxtpx:TrackPointExtension xmlns:gpxtpx="http://www.garmin.com/xmlschemas/TrackPointExtension/v1">
            <gpxtpx:hr>106</gpxtpx:hr>
          </gpxtpx:TrackPointExtension>
        </extensions>
      </trkpt>
      <trkpt lat="48.61211" lon="2.02635">
        <ele>111.8</ele>
        <time>2025-11-16T13:03:38Z</time>
        <extensions>
          <gpxtpx:TrackPointExtension xmlns:gpxtpx="http://www.garmin.com/xmlschemas/TrackPointExtension/v1">
            <gpxtpx:hr>106</gpxtpx:hr>
          </gpxtpx:TrackPointExtension>
        </extensions>
      </trkpt>
      <trkpt lat="48.61211" lon="2.0264">
        <ele>111.6</ele>
        <time>2025-11-16T13:03:40Z</time>
        <extensions>
          <gpxtpx:TrackPointExtension xmlns:gpxtpx="http://www.garmin.com/xmlschemas/TrackPointExtension/v1">
            <gpxtpx:hr>106</gpxtpx:hr>
          </gpxtpx:TrackPointExtension>
        </extensions>
      </trkpt>
      <trkpt lat="48.6121" lon="2.02645">
        <ele>111.6</ele>
        <time>2025-11-16T13:03:42Z</time>
        <extensions>
          <gpxtpx:TrackPointExtension xmlns:gpxtpx="http://www.garmin.com/xmlschemas/TrackPointExtension/v1">
            <gpxtpx:hr>107</gpxtpx:hr>
          </gpxtpx:TrackPointExtension>
        </extensions>
      </trkpt>
      <trkpt lat="48.6121" lon="2.02649">
        <ele>111.6</ele>
        <time>2025-11-16T13:03:44Z</time>
        <extensions>
          <gpxtpx:TrackPointExtension xmlns:gpxtpx="http://www.garmin.com/xmlschemas/TrackPointExtension/v1">
            <gpxtpx:hr>107</gpxtpx:hr>
          </gpxtpx:TrackPointExtension>
        </extensions>
      </trkpt>
      <trkpt lat="48.6121" lon="2.02654">
        <ele>111.4</ele>
        <time>2025-11-16T13:03:46Z</time>
        <extensions>
          <gpxtpx:TrackPointExtension xmlns:gpxtpx="http://www.garmin.com/xmlschemas/TrackPointExtension/v1">
            <gpxtpx:hr>107</gpxtpx:hr>
          </gpxtpx:TrackPointExtension>
        </extensions>
      </trkpt>
      <trkpt lat="48.6121" lon="2.02659">
        <ele>111.2</ele>
        <time>2025-11-16T13:03:48Z</time>
        <extensions>
          <gpxtpx:TrackPointExtension xmlns:gpxtpx="http://www.garmin.com/xmlschemas/TrackPointExtension/v1">
            <gpxtpx:hr>107</gpxtpx:hr>
          </gpxtpx:TrackPointExtension>
        </extensions>
      </trkpt>
      <trkpt lat="48.6121" lon="2.02664">
        <ele>111.2</ele>
        <time>2025-11-16T13:03:50Z</time>
        <extensions>
          <gpxtpx:TrackPointExtension xmlns:gpxtpx="http://www.garmin.com/xmlschemas/TrackPointExtension/v1">
            <gpxtpx:hr>108</gpxtpx:hr>
          </gpxtpx:TrackPointExtension>
        </extensions>
      </trkpt>
      <trkpt lat="48.6121" lon="2.02669">
        <ele>111.2</ele>
        <time>2025-11-16T13:03:52Z</time>
        <extensions>
          <gpxtpx:TrackPointExtension xmlns:gpxtpx="http://www.garmin.com/xmlschemas/TrackPointExtension/v1">
            <gpxtpx:hr>109</gpxtpx:hr>
          </gpxtpx:TrackPointExtension>
        </extensions>
      </trkpt>
      <trkpt lat="48.6121" lon="2.02674">
        <ele>111.2</ele>
        <time>2025-11-16T13:03:54Z</time>
        <extensions>
          <gpxtpx:TrackPointExtension xmlns:gpxtpx="http://www.garmin.com/xmlschemas/TrackPointExtension/v1">
            <gpxtpx:hr>111</gpxtpx:hr>
          </gpxtpx:TrackPointExtension>
        </extensions>
      </trkpt>
      <trkpt lat="48.6121" lon="2.02679">
        <ele>111.2</ele>
        <time>2025-11-16T13:03:56Z</time>
        <extensions>
          <gpxtpx:TrackPointExtension xmlns:gpxtpx="http://www.garmin.com/xmlschemas/TrackPointExtension/v1">
            <gpxtpx:hr>112</gpxtpx:hr>
          </gpxtpx:TrackPointExtension>
        </extensions>
      </trkpt>
      <trkpt lat="48.6121" lon="2.02684">
        <ele>111.2</ele>
        <time>2025-11-16T13:03:58Z</time>
        <extensions>
          <gpxtpx:TrackPointExtension xmlns:gpxtpx="http://www.garmin.com/xmlschemas/TrackPointExtension/v1">
            <gpxtpx:hr>111</gpxtpx:hr>
          </gpxtpx:TrackPointExtension>
        </extensions>
      </trkpt>
      <trkpt lat="48.61211" lon="2.02689">
        <ele>111</ele>
        <time>2025-11-16T13:04:00Z</time>
        <extensions>
          <gpxtpx:TrackPointExtension xmlns:gpxtpx="http://www.garmin.com/xmlschemas/TrackPointExtension/v1">
            <gpxtpx:hr>110</gpxtpx:hr>
          </gpxtpx:TrackPointExtension>
        </extensions>
      </trkpt>
      <trkpt lat="48.61211" lon="2.02693">
        <ele>111</ele>
        <time>2025-11-16T13:04:02Z</time>
        <extensions>
          <gpxtpx:TrackPointExtension xmlns:gpxtpx="http://www.garmin.com/xmlschemas/TrackPointExtension/v1">
            <gpxtpx:hr>110</gpxtpx:hr>
          </gpxtpx:TrackPointExtension>
        </extensions>
      </trkpt>
      <trkpt lat="48.61211" lon="2.02698">
        <ele>111</ele>
        <time>2025-11-16T13:04:04Z</time>
        <extensions>
          <gpxtpx:TrackPointExtension xmlns:gpxtpx="http://www.garmin.com/xmlschemas/TrackPointExtension/v1">
            <gpxtpx:hr>111</gpxtpx:hr>
          </gpxtpx:TrackPointExtension>
        </extensions>
      </trkpt>
      <trkpt lat="48.61211" lon="2.02703">
        <ele>111.2</ele>
        <time>2025-11-16T13:04:06Z</time>
        <extensions>
          <gpxtpx:TrackPointExtension xmlns:gpxtpx="http://www.garmin.com/xmlschemas/TrackPointExtension/v1">
            <gpxtpx:hr>112</gpxtpx:hr>
          </gpxtpx:TrackPointExtension>
        </extensions>
      </trkpt>
      <trkpt lat="48.61212" lon="2.02708">
        <ele>111.2</ele>
        <time>2025-11-16T13:04:08Z</time>
        <extensions>
          <gpxtpx:TrackPointExtension xmlns:gpxtpx="http://www.garmin.com/xmlschemas/TrackPointExtension/v1">
            <gpxtpx:hr>113</gpxtpx:hr>
          </gpxtpx:TrackPointExtension>
        </extensions>
      </trkpt>
      <trkpt lat="48.61212" lon="2.02713">
        <ele>111.2</ele>
        <time>2025-11-16T13:04:10Z</time>
        <extensions>
          <gpxtpx:TrackPointExtension xmlns:gpxtpx="http://www.garmin.com/xmlschemas/TrackPointExtension/v1">
            <gpxtpx:hr>113</gpxtpx:hr>
          </gpxtpx:TrackPointExtension>
        </extensions>
      </trkpt>
      <trkpt lat="48.61212" lon="2.02718">
        <ele>111.2</ele>
        <time>2025-11-16T13:04:12Z</time>
        <extensions>
          <gpxtpx:TrackPointExtension xmlns:gpxtpx="http://www.garmin.com/xmlschemas/TrackPointExtension/v1">
            <gpxtpx:hr>113</gpxtpx:hr>
          </gpxtpx:TrackPointExtension>
        </extensions>
      </trkpt>
      <trkpt lat="48.61213" lon="2.02723">
        <ele>111.2</ele>
        <time>2025-11-16T13:04:14Z</time>
        <extensions>
          <gpxtpx:TrackPointExtension xmlns:gpxtpx="http://www.garmin.com/xmlschemas/TrackPointExtension/v1">
            <gpxtpx:hr>114</gpxtpx:hr>
          </gpxtpx:TrackPointExtension>
        </extensions>
      </trkpt>
      <trkpt lat="48.61214" lon="2.02728">
        <ele>111</ele>
        <time>2025-11-16T13:04:16Z</time>
        <extensions>
          <gpxtpx:TrackPointExtension xmlns:gpxtpx="http://www.garmin.com/xmlschemas/TrackPointExtension/v1">
            <gpxtpx:hr>114</gpxtpx:hr>
          </gpxtpx:TrackPointExtension>
        </extensions>
      </trkpt>
      <trkpt lat="48.61215" lon="2.02733">
        <ele>111</ele>
        <time>2025-11-16T13:04:18Z</time>
        <extensions>
          <gpxtpx:TrackPointExtension xmlns:gpxtpx="http://www.garmin.com/xmlschemas/TrackPointExtension/v1">
            <gpxtpx:hr>114</gpxtpx:hr>
          </gpxtpx:TrackPointExtension>
        </extensions>
      </trkpt>
      <trkpt lat="48.61215" lon="2.02737">
        <ele>110.8</ele>
        <time>2025-11-16T13:04:20Z</time>
        <extensions>
          <gpxtpx:TrackPointExtension xmlns:gpxtpx="http://www.garmin.com/xmlschemas/TrackPointExtension/v1">
            <gpxtpx:hr>114</gpxtpx:hr>
          </gpxtpx:TrackPointExtension>
        </extensions>
      </trkpt>
      <trkpt lat="48.61216" lon="2.02742">
        <ele>110.6</ele>
        <time>2025-11-16T13:04:22Z</time>
        <extensions>
          <gpxtpx:TrackPointExtension xmlns:gpxtpx="http://www.garmin.com/xmlschemas/TrackPointExtension/v1">
            <gpxtpx:hr>113</gpxtpx:hr>
          </gpxtpx:TrackPointExtension>
        </extensions>
      </trkpt>
      <trkpt lat="48.61216" lon="2.02747">
        <ele>110.6</ele>
        <time>2025-11-16T13:04:24Z</time>
        <extensions>
          <gpxtpx:TrackPointExtension xmlns:gpxtpx="http://www.garmin.com/xmlschemas/TrackPointExtension/v1">
            <gpxtpx:hr>113</gpxtpx:hr>
          </gpxtpx:TrackPointExtension>
        </extensions>
      </trkpt>
      <trkpt lat="48.61216" lon="2.02752">
        <ele>110.6</ele>
        <time>2025-11-16T13:04:26Z</time>
        <extensions>
          <gpxtpx:TrackPointExtension xmlns:gpxtpx="http://www.garmin.com/xmlschemas/TrackPointExtension/v1">
            <gpxtpx:hr>112</gpxtpx:hr>
          </gpxtpx:TrackPointExtension>
        </extensions>
      </trkpt>
      <trkpt lat="48.61217" lon="2.02757">
        <ele>110.4</ele>
        <time>2025-11-16T13:04:28Z</time>
        <extensions>
          <gpxtpx:TrackPointExtension xmlns:gpxtpx="http://www.garmin.com/xmlschemas/TrackPointExtension/v1">
            <gpxtpx:hr>112</gpxtpx:hr>
          </gpxtpx:TrackPointExtension>
        </extensions>
      </trkpt>
      <trkpt lat="48.61218" lon="2.02761">
        <ele>110.4</ele>
        <time>2025-11-16T13:04:30Z</time>
        <extensions>
          <gpxtpx:TrackPointExtension xmlns:gpxtpx="http://www.garmin.com/xmlschemas/TrackPointExtension/v1">
            <gpxtpx:hr>112</gpxtpx:hr>
          </gpxtpx:TrackPointExtension>
        </extensions>
      </trkpt>
      <trkpt lat="48.61218" lon="2.02766">
        <ele>110.6</ele>
        <time>2025-11-16T13:04:32Z</time>
        <extensions>
          <gpxtpx:TrackPointExtension xmlns:gpxtpx="http://www.garmin.com/xmlschemas/TrackPointExtension/v1">
            <gpxtpx:hr>111</gpxtpx:hr>
          </gpxtpx:TrackPointExtension>
        </extensions>
      </trkpt>
      <trkpt lat="48.6122" lon="2.02771">
        <ele>110.6</ele>
        <time>2025-11-16T13:04:34Z</time>
        <extensions>
          <gpxtpx:TrackPointExtension xmlns:gpxtpx="http://www.garmin.com/xmlschemas/TrackPointExtension/v1">
            <gpxtpx:hr>111</gpxtpx:hr>
          </gpxtpx:TrackPointExtension>
        </extensions>
      </trkpt>
      <trkpt lat="48.6122" lon="2.02776">
        <ele>110.6</ele>
        <time>2025-11-16T13:04:36Z</time>
        <extensions>
          <gpxtpx:TrackPointExtension xmlns:gpxtpx="http://www.garmin.com/xmlschemas/TrackPointExtension/v1">
            <gpxtpx:hr>109</gpxtpx:hr>
          </gpxtpx:TrackPointExtension>
        </extensions>
      </trkpt>
      <trkpt lat="48.61221" lon="2.02781">
        <ele>110.6</ele>
        <time>2025-11-16T13:04:38Z</time>
        <extensions>
          <gpxtpx:TrackPointExtension xmlns:gpxtpx="http://www.garmin.com/xmlschemas/TrackPointExtension/v1">
            <gpxtpx:hr>109</gpxtpx:hr>
          </gpxtpx:TrackPointExtension>
        </extensions>
      </trkpt>
      <trkpt lat="48.61222" lon="2.02785">
        <ele>110.6</ele>
        <time>2025-11-16T13:04:40Z</time>
        <extensions>
          <gpxtpx:TrackPointExtension xmlns:gpxtpx="http://www.garmin.com/xmlschemas/TrackPointExtension/v1">
            <gpxtpx:hr>109</gpxtpx:hr>
          </gpxtpx:TrackPointExtension>
        </extensions>
      </trkpt>
      <trkpt lat="48.61224" lon="2.02788">
        <ele>110.6</ele>
        <time>2025-11-16T13:04:42Z</time>
        <extensions>
          <gpxtpx:TrackPointExtension xmlns:gpxtpx="http://www.garmin.com/xmlschemas/TrackPointExtension/v1">
            <gpxtpx:hr>109</gpxtpx:hr>
          </gpxtpx:TrackPointExtension>
        </extensions>
      </trkpt>
      <trkpt lat="48.61227" lon="2.02791">
        <ele>110.4</ele>
        <time>2025-11-16T13:04:45Z</time>
        <extensions>
          <gpxtpx:TrackPointExtension xmlns:gpxtpx="http://www.garmin.com/xmlschemas/TrackPointExtension/v1">
            <gpxtpx:hr>109</gpxtpx:hr>
          </gpxtpx:TrackPointExtension>
        </extensions>
      </trkpt>
      <trkpt lat="48.61229" lon="2.02792">
        <ele>110.2</ele>
        <time>2025-11-16T13:04:50Z</time>
        <extensions>
          <gpxtpx:TrackPointExtension xmlns:gpxtpx="http://www.garmin.com/xmlschemas/TrackPointExtension/v1">
            <gpxtpx:hr>109</gpxtpx:hr>
          </gpxtpx:TrackPointExtension>
        </extensions>
      </trkpt>
    </trkseg>
  </trk>
</gpx>